<?xml version='1.0' encoding='UTF-8'?><gpx version="1.1" creator="JPX - https://github.com/jenetics/jpx" xmlns="http://www.topografix.com/GPX/1/1"><trk><trkseg><trkpt lat="43.472148396693385" lon="12.243964489818788"><ele>291.0</ele><time>2026-04-26T08:13:55Z</time></trkpt><trkpt lat="43.47208011959935" lon="12.24393915464174"><ele>291.0</ele><time>2026-04-26T08:13:56Z</time></trkpt><trkpt lat="43.47193014118864" lon="12.244085175959748"><ele>291.0</ele><time>2026-04-26T08:14:04Z</time></trkpt><trkpt lat="43.47187946033098" lon="12.244239341418382"><ele>291.0</ele><time>2026-04-26T08:14:05Z</time></trkpt><trkpt lat="43.47183582140623" lon="12.244419999415609"><ele>291.0</ele><time>2026-04-26T08:14:06Z</time></trkpt><trkpt lat="43.47178884240606" lon="12.244599776209146"><ele>291.0</ele><time>2026-04-26T08:14:07Z</time></trkpt><trkpt lat="43.4717490620213" lon="12.244771391160228"><ele>291.0</ele><time>2026-04-26T08:14:08Z</time></trkpt><trkpt lat="43.47171309703569" lon="12.24493222528293"><ele>291.0</ele><time>2026-04-26T08:14:09Z</time></trkpt><trkpt lat="43.47167363934112" lon="12.24509262996472"><ele>291.0</ele><time>2026-04-26T08:14:10Z</time></trkpt><trkpt lat="43.471637273212124" lon="12.245226608321005"><ele>291.0</ele><time>2026-04-26T08:14:11Z</time></trkpt><trkpt lat="43.47161095916275" lon="12.245338625593819"><ele>291.0</ele><time>2026-04-26T08:14:12Z</time></trkpt><trkpt lat="43.47157459743249" lon="12.24543484674911"><ele>291.0</ele><time>2026-04-26T08:14:12.999Z</time></trkpt><trkpt lat="43.471538023520495" lon="12.245516308101926"><ele>291.0</ele><time>2026-04-26T08:14:13.999Z</time></trkpt><trkpt lat="43.47141374275964" lon="12.245617939402337"><ele>291.2</ele><time>2026-04-26T08:14:15.999Z</time></trkpt><trkpt lat="43.47133603231773" lon="12.245672585161918"><ele>291.40000000000003</ele><time>2026-04-26T08:14:16.999Z</time></trkpt><trkpt lat="43.47123926119576" lon="12.245730212770855"><ele>291.6</ele><time>2026-04-26T08:14:17.999Z</time></trkpt><trkpt lat="43.47115011836594" lon="12.245789459008046"><ele>291.8</ele><time>2026-04-26T08:14:18.999Z</time></trkpt><trkpt lat="43.47106627751708" lon="12.24586120756233"><ele>292.0</ele><time>2026-04-26T08:14:19.999Z</time></trkpt><trkpt lat="43.47098334213929" lon="12.2459457988399"><ele>292.0</ele><time>2026-04-26T08:14:20.999Z</time></trkpt><trkpt lat="43.47086626268646" lon="12.245955085040332"><ele>292.0</ele><time>2026-04-26T08:14:21.999Z</time></trkpt><trkpt lat="43.4707465396453" lon="12.246013512612983"><ele>292.0</ele><time>2026-04-26T08:14:22.999Z</time></trkpt><trkpt lat="43.47061283386428" lon="12.245941805339005"><ele>292.0</ele><time>2026-04-26T08:14:23.999Z</time></trkpt><trkpt lat="43.47048322798729" lon="12.245949148281428"><ele>291.3333333333333</ele><time>2026-04-26T08:14:24.999Z</time></trkpt><trkpt lat="43.470346834503914" lon="12.245965147116019"><ele>290.6666666666667</ele><time>2026-04-26T08:14:25.999Z</time></trkpt><trkpt lat="43.47019018254939" lon="12.245998259761427"><ele>290.0</ele><time>2026-04-26T08:14:26.999Z</time></trkpt><trkpt lat="43.47002551603032" lon="12.246012573598856"><ele>290.0</ele><time>2026-04-26T08:14:27.999Z</time></trkpt><trkpt lat="43.469864512330936" lon="12.2460659564752"><ele>290.0</ele><time>2026-04-26T08:14:28.999Z</time></trkpt><trkpt lat="43.4697026637559" lon="12.246151790879527"><ele>290.0</ele><time>2026-04-26T08:14:29.999Z</time></trkpt><trkpt lat="43.46953902908542" lon="12.246254125746741"><ele>290.33333333333337</ele><time>2026-04-26T08:14:30.999Z</time></trkpt><trkpt lat="43.46937902396645" lon="12.246387910924206"><ele>290.6666666666667</ele><time>2026-04-26T08:14:31.999Z</time></trkpt><trkpt lat="43.46921924618612" lon="12.246542977092624"><ele>291.0</ele><time>2026-04-26T08:14:32.999Z</time></trkpt><trkpt lat="43.46907708931884" lon="12.2467296364408"><ele>291.0</ele><time>2026-04-26T08:14:33.999Z</time></trkpt><trkpt lat="43.46891970134872" lon="12.246918145347264"><ele>291.0</ele><time>2026-04-26T08:14:34.999Z</time></trkpt><trkpt lat="43.46875114501442" lon="12.247107565118727"><ele>291.0</ele><time>2026-04-26T08:14:35.999Z</time></trkpt><trkpt lat="43.46858833980609" lon="12.247320505737864"><ele>291.6666666666667</ele><time>2026-04-26T08:14:36.999Z</time></trkpt><trkpt lat="43.46842698525682" lon="12.247515038892834"><ele>292.33333333333337</ele><time>2026-04-26T08:14:37.999Z</time></trkpt><trkpt lat="43.46828503899165" lon="12.24770046390406"><ele>293.0</ele><time>2026-04-26T08:14:38.999Z</time></trkpt><trkpt lat="43.468152623706224" lon="12.247877917374689"><ele>293.0</ele><time>2026-04-26T08:14:39.999Z</time></trkpt><trkpt lat="43.4680342476173" lon="12.2480318393852"><ele>293.0</ele><time>2026-04-26T08:14:40.999Z</time></trkpt><trkpt lat="43.46792017401509" lon="12.248169183521721"><ele>293.0</ele><time>2026-04-26T08:14:41.999Z</time></trkpt><trkpt lat="43.467808772139946" lon="12.248317250019067"><ele>293.6666666666667</ele><time>2026-04-26T08:14:42.999Z</time></trkpt><trkpt lat="43.46769165504847" lon="12.248465834375402"><ele>294.3333333333333</ele><time>2026-04-26T08:14:43.999Z</time></trkpt><trkpt lat="43.467575625299126" lon="12.248636055436169"><ele>295.0</ele><time>2026-04-26T08:14:44.999Z</time></trkpt><trkpt lat="43.46745557700374" lon="12.248794396467606"><ele>295.66666666666663</ele><time>2026-04-26T08:14:45.999Z</time></trkpt><trkpt lat="43.46734030927795" lon="12.248960649544808"><ele>296.3333333333333</ele><time>2026-04-26T08:14:46.999Z</time></trkpt><trkpt lat="43.4672275098763" lon="12.24911147940907"><ele>297.0</ele><time>2026-04-26T08:14:47.999Z</time></trkpt><trkpt lat="43.467124179427145" lon="12.249242650938077"><ele>296.6</ele><time>2026-04-26T08:14:48.999Z</time></trkpt><trkpt lat="43.467038690389096" lon="12.24937658967547"><ele>296.2</ele><time>2026-04-26T08:14:49.999Z</time></trkpt><trkpt lat="43.46695310028559" lon="12.249479829883517"><ele>295.8</ele><time>2026-04-26T08:14:50.999Z</time></trkpt><trkpt lat="43.46688126027827" lon="12.249570318503519"><ele>295.4</ele><time>2026-04-26T08:14:51.999Z</time></trkpt><trkpt lat="43.466815585860495" lon="12.24966988475804"><ele>295.0</ele><time>2026-04-26T08:14:52.999Z</time></trkpt><trkpt lat="43.46673714249932" lon="12.249784208421925"><ele>295.5</ele><time>2026-04-26T08:14:53.999Z</time></trkpt><trkpt lat="43.466644477119736" lon="12.249907298439926"><ele>296.0</ele><time>2026-04-26T08:14:54.999Z</time></trkpt><trkpt lat="43.46654537088346" lon="12.250025272101865"><ele>296.5</ele><time>2026-04-26T08:14:55.999Z</time></trkpt><trkpt lat="43.46645162212095" lon="12.250155997476107"><ele>297.0</ele><time>2026-04-26T08:14:56.999Z</time></trkpt><trkpt lat="43.46635891889719" lon="12.2502781198754"><ele>296.8333333333333</ele><time>2026-04-26T08:14:57.999Z</time></trkpt><trkpt lat="43.46627779211609" lon="12.250402453415989"><ele>296.6666666666667</ele><time>2026-04-26T08:14:58.999Z</time></trkpt><trkpt lat="43.46621163814314" lon="12.250486169290333"><ele>296.5</ele><time>2026-04-26T08:14:59.999Z</time></trkpt><trkpt lat="43.466151342298716" lon="12.250563019364506"><ele>296.33333333333337</ele><time>2026-04-26T08:15:00.999Z</time></trkpt><trkpt lat="43.46609703532379" lon="12.250619037534612"><ele>296.1666666666667</ele><time>2026-04-26T08:15:01.999Z</time></trkpt><trkpt lat="43.46603911542922" lon="12.250670703998903"><ele>296.0</ele><time>2026-04-26T08:15:02.999Z</time></trkpt><trkpt lat="43.46595912848456" lon="12.250704134177955"><ele>296.0</ele><time>2026-04-26T08:15:04.999Z</time></trkpt><trkpt lat="43.46586121264999" lon="12.250726834605988"><ele>296.0</ele><time>2026-04-26T08:15:11.999Z</time></trkpt><trkpt lat="43.46579539623144" lon="12.250773622368156"><ele>296.0</ele><time>2026-04-26T08:15:12.999Z</time></trkpt><trkpt lat="43.465737834489715" lon="12.250859688450568"><ele>296.0</ele><time>2026-04-26T08:15:13.999Z</time></trkpt><trkpt lat="43.465704311883876" lon="12.250972930032747"><ele>296.0</ele><time>2026-04-26T08:15:14.999Z</time></trkpt><trkpt lat="43.465660907536225" lon="12.25109899112368"><ele>296.0</ele><time>2026-04-26T08:15:15.999Z</time></trkpt><trkpt lat="43.465628571416296" lon="12.251258606767681"><ele>296.0</ele><time>2026-04-26T08:15:16.999Z</time></trkpt><trkpt lat="43.46553678779849" lon="12.251359339366017"><ele>296.0</ele><time>2026-04-26T08:15:17.999Z</time></trkpt><trkpt lat="43.465429383760856" lon="12.251433962151284"><ele>296.0</ele><time>2026-04-26T08:15:18.999Z</time></trkpt><trkpt lat="43.46534259042627" lon="12.251522572661765"><ele>296.0</ele><time>2026-04-26T08:15:19.999Z</time></trkpt><trkpt lat="43.46525311987258" lon="12.251562691239071"><ele>296.0</ele><time>2026-04-26T08:15:20.999Z</time></trkpt><trkpt lat="43.46518768980991" lon="12.251598255405963"><ele>296.5</ele><time>2026-04-26T08:15:21.999Z</time></trkpt><trkpt lat="43.465115565021875" lon="12.251652317846064"><ele>297.0</ele><time>2026-04-26T08:15:22.999Z</time></trkpt><trkpt lat="43.465039401976824" lon="12.25172041778682"><ele>297.5</ele><time>2026-04-26T08:15:23.999Z</time></trkpt><trkpt lat="43.46497695627099" lon="12.251779337488081"><ele>298.0</ele><time>2026-04-26T08:15:24.999Z</time></trkpt><trkpt lat="43.46491224647484" lon="12.251824184689799"><ele>298.5</ele><time>2026-04-26T08:15:25.999Z</time></trkpt><trkpt lat="43.464811543678685" lon="12.251861486536896"><ele>299.0</ele><time>2026-04-26T08:15:26.999Z</time></trkpt><trkpt lat="43.464670845596714" lon="12.251935693664985"><ele>298.0</ele><time>2026-04-26T08:15:27.999Z</time></trkpt><trkpt lat="43.464502082301664" lon="12.252011179942167"><ele>297.0</ele><time>2026-04-26T08:15:28.999Z</time></trkpt><trkpt lat="43.464350841385574" lon="12.252085948883336"><ele>296.0</ele><time>2026-04-26T08:15:29.998Z</time></trkpt><trkpt lat="43.46421783958103" lon="12.25214558916792"><ele>296.0</ele><time>2026-04-26T08:15:30.998Z</time></trkpt><trkpt lat="43.46410755829239" lon="12.252196327541235"><ele>296.0</ele><time>2026-04-26T08:15:31.998Z</time></trkpt><trkpt lat="43.46400341675083" lon="12.25223517167757"><ele>296.0</ele><time>2026-04-26T08:15:32.998Z</time></trkpt><trkpt lat="43.46390246615712" lon="12.252264464740936"><ele>296.0</ele><time>2026-04-26T08:15:34Z</time></trkpt><trkpt lat="43.463805983101494" lon="12.252286945515781"><ele>296.0</ele><time>2026-04-26T08:15:35Z</time></trkpt><trkpt lat="43.46370777799504" lon="12.252288220214663"><ele>295.8</ele><time>2026-04-26T08:15:36Z</time></trkpt><trkpt lat="43.463622353037145" lon="12.252281911154432"><ele>295.6</ele><time>2026-04-26T08:15:37Z</time></trkpt><trkpt lat="43.46353973502938" lon="12.252220111195811"><ele>295.4</ele><time>2026-04-26T08:15:38Z</time></trkpt><trkpt lat="43.463449470499185" lon="12.252216252284782"><ele>295.2</ele><time>2026-04-26T08:15:39Z</time></trkpt><trkpt lat="43.463346768868426" lon="12.25221348414556"><ele>295.0</ele><time>2026-04-26T08:15:40Z</time></trkpt><trkpt lat="43.46325509024479" lon="12.252211013113984"><ele>295.0</ele><time>2026-04-26T08:15:41Z</time></trkpt><trkpt lat="43.463150420896476" lon="12.252230812202333"><ele>295.0</ele><time>2026-04-26T08:15:42Z</time></trkpt><trkpt lat="43.463022602536455" lon="12.252227287424144"><ele>295.0</ele><time>2026-04-26T08:15:43Z</time></trkpt><trkpt lat="43.46289441512287" lon="12.252189957941354"><ele>295.0</ele><time>2026-04-26T08:15:44Z</time></trkpt><trkpt lat="43.46276948125779" lon="12.25218775544102"><ele>295.6</ele><time>2026-04-26T08:15:45Z</time></trkpt><trkpt lat="43.46265191271747" lon="12.252184695979636"><ele>296.2</ele><time>2026-04-26T08:15:46Z</time></trkpt><trkpt lat="43.46253100705639" lon="12.25218102969492"><ele>296.8</ele><time>2026-04-26T08:15:47Z</time></trkpt><trkpt lat="43.4624274460896" lon="12.252176612652496"><ele>297.4</ele><time>2026-04-26T08:15:48Z</time></trkpt><trkpt lat="43.46234061528318" lon="12.252171448173453"><ele>298.0</ele><time>2026-04-26T08:15:49Z</time></trkpt><trkpt lat="43.46225698558817" lon="12.252171765138893"><ele>298.0</ele><time>2026-04-26T08:15:50Z</time></trkpt><trkpt lat="43.462184521971764" lon="12.252169647610465"><ele>298.0</ele><time>2026-04-26T08:15:51Z</time></trkpt><trkpt lat="43.46208748804025" lon="12.252168721928008"><ele>298.0</ele><time>2026-04-26T08:15:53Z</time></trkpt><trkpt lat="43.46200987777647" lon="12.25217417511253"><ele>298.0</ele><time>2026-04-26T08:15:56Z</time></trkpt><trkpt lat="43.4619460342794" lon="12.252177830974249"><ele>298.0</ele><time>2026-04-26T08:15:59.999Z</time></trkpt><trkpt lat="43.46188185593221" lon="12.252176637066059"><ele>298.0</ele><time>2026-04-26T08:16:03.999Z</time></trkpt><trkpt lat="43.46180544607479" lon="12.252176042398997"><ele>298.8</ele><time>2026-04-26T08:16:17.999Z</time></trkpt><trkpt lat="43.461735319827774" lon="12.252179711158218"><ele>299.6</ele><time>2026-04-26T08:16:18.999Z</time></trkpt><trkpt lat="43.461638752121935" lon="12.252172653891117"><ele>300.4</ele><time>2026-04-26T08:16:19.999Z</time></trkpt><trkpt lat="43.46155973119187" lon="12.25216538138144"><ele>301.2</ele><time>2026-04-26T08:16:20.999Z</time></trkpt><trkpt lat="43.46143951455273" lon="12.25215935511047"><ele>302.0</ele><time>2026-04-26T08:16:22.999Z</time></trkpt><trkpt lat="43.461324734328244" lon="12.252148883400949"><ele>303.33333333333337</ele><time>2026-04-26T08:16:24.999Z</time></trkpt><trkpt lat="43.46125453016186" lon="12.252147912963926"><ele>304.6666666666667</ele><time>2026-04-26T08:16:25.999Z</time></trkpt><trkpt lat="43.461183548894866" lon="12.252151346993754"><ele>306.0</ele><time>2026-04-26T08:16:26.999Z</time></trkpt><trkpt lat="43.46110734298659" lon="12.252150014792207"><ele>307.3333333333333</ele><time>2026-04-26T08:16:27.999Z</time></trkpt><trkpt lat="43.461019060411175" lon="12.252143752843235"><ele>308.66666666666663</ele><time>2026-04-26T08:16:28.999Z</time></trkpt><trkpt lat="43.460922588545344" lon="12.252138878054684"><ele>310.0</ele><time>2026-04-26T08:16:29.999Z</time></trkpt><trkpt lat="43.46083994953702" lon="12.252141456929033"><ele>310.0</ele><time>2026-04-26T08:16:30.999Z</time></trkpt><trkpt lat="43.460749738786106" lon="12.252141097427726"><ele>310.0</ele><time>2026-04-26T08:16:31.999Z</time></trkpt><trkpt lat="43.460661803464916" lon="12.252136586423381"><ele>310.0</ele><time>2026-04-26T08:16:32.999Z</time></trkpt><trkpt lat="43.46055903371998" lon="12.252130667570817"><ele>310.0</ele><time>2026-04-26T08:16:33.999Z</time></trkpt><trkpt lat="43.46047589647341" lon="12.252128726641642"><ele>310.0</ele><time>2026-04-26T08:16:34.999Z</time></trkpt><trkpt lat="43.460407756772696" lon="12.25212390293317"><ele>310.0</ele><time>2026-04-26T08:16:35.999Z</time></trkpt><trkpt lat="43.460329801743754" lon="12.252122312373725"><ele>309.5</ele><time>2026-04-26T08:16:36.999Z</time></trkpt><trkpt lat="43.460247344148485" lon="12.252106569666294"><ele>309.0</ele><time>2026-04-26T08:16:37.999Z</time></trkpt><trkpt lat="43.460163411602835" lon="12.252098003288927"><ele>308.5</ele><time>2026-04-26T08:16:38.999Z</time></trkpt><trkpt lat="43.46007534716263" lon="12.252071223659675"><ele>308.0</ele><time>2026-04-26T08:16:39.999Z</time></trkpt><trkpt lat="43.459996055271596" lon="12.251995101077133"><ele>307.5</ele><time>2026-04-26T08:16:40.999Z</time></trkpt><trkpt lat="43.45991822159832" lon="12.251923087897202"><ele>307.0</ele><time>2026-04-26T08:16:41.999Z</time></trkpt><trkpt lat="43.459835217281096" lon="12.251861124120646"><ele>307.0</ele><time>2026-04-26T08:16:42.999Z</time></trkpt><trkpt lat="43.45975781117562" lon="12.251784137787139"><ele>307.0</ele><time>2026-04-26T08:16:43.999Z</time></trkpt><trkpt lat="43.459682192225124" lon="12.251711211736074"><ele>307.0</ele><time>2026-04-26T08:16:44.999Z</time></trkpt><trkpt lat="43.45960341544813" lon="12.251650067640906"><ele>307.0</ele><time>2026-04-26T08:16:45.999Z</time></trkpt><trkpt lat="43.4595257382678" lon="12.251590729578968"><ele>307.0</ele><time>2026-04-26T08:16:46.999Z</time></trkpt><trkpt lat="43.45944383745623" lon="12.251554979090933"><ele>305.0</ele><time>2026-04-26T08:16:47.999Z</time></trkpt><trkpt lat="43.45935854994108" lon="12.251536146825782"><ele>303.0</ele><time>2026-04-26T08:16:48.999Z</time></trkpt><trkpt lat="43.45927296142595" lon="12.251528489046766"><ele>301.0</ele><time>2026-04-26T08:16:49.999Z</time></trkpt><trkpt lat="43.45919687833782" lon="12.251525185660695"><ele>299.0</ele><time>2026-04-26T08:16:50.999Z</time></trkpt><trkpt lat="43.45912385564635" lon="12.251530248523832"><ele>297.0</ele><time>2026-04-26T08:16:51.999Z</time></trkpt><trkpt lat="43.45905999423651" lon="12.2515441645092"><ele>295.0</ele><time>2026-04-26T08:16:52.999Z</time></trkpt><trkpt lat="43.45894993270496" lon="12.251583488757982"><ele>295.0</ele><time>2026-04-26T08:16:54.999Z</time></trkpt><trkpt lat="43.45883741843485" lon="12.25162430360213"><ele>295.0</ele><time>2026-04-26T08:16:56.999Z</time></trkpt><trkpt lat="43.45873471767458" lon="12.251689272604043"><ele>295.0</ele><time>2026-04-26T08:16:58.999Z</time></trkpt><trkpt lat="43.45868405905137" lon="12.251758204898554"><ele>295.0</ele><time>2026-04-26T08:16:59.999Z</time></trkpt><trkpt lat="43.458606941447805" lon="12.251830691962539"><ele>295.0</ele><time>2026-04-26T08:17:00.999Z</time></trkpt><trkpt lat="43.45852430419725" lon="12.251894251310242"><ele>294.6</ele><time>2026-04-26T08:17:01.999Z</time></trkpt><trkpt lat="43.458434888060786" lon="12.251952503020028"><ele>294.2</ele><time>2026-04-26T08:17:02.999Z</time></trkpt><trkpt lat="43.45833943522105" lon="12.252012306106554"><ele>293.8</ele><time>2026-04-26T08:17:03.999Z</time></trkpt><trkpt lat="43.45824517988459" lon="12.252083878730469"><ele>293.4</ele><time>2026-04-26T08:17:04.999Z</time></trkpt><trkpt lat="43.45813917167946" lon="12.252160248001974"><ele>293.0</ele><time>2026-04-26T08:17:05.999Z</time></trkpt><trkpt lat="43.45802069168059" lon="12.252241263399204"><ele>293.4</ele><time>2026-04-26T08:17:06.999Z</time></trkpt><trkpt lat="43.4579120478602" lon="12.252315093363496"><ele>293.8</ele><time>2026-04-26T08:17:07.999Z</time></trkpt><trkpt lat="43.45781519321554" lon="12.252382311089274"><ele>294.2</ele><time>2026-04-26T08:17:08.999Z</time></trkpt><trkpt lat="43.45771883529878" lon="12.252453317555357"><ele>294.6</ele><time>2026-04-26T08:17:09.999Z</time></trkpt><trkpt lat="43.45762527021103" lon="12.252517978974595"><ele>295.0</ele><time>2026-04-26T08:17:10.999Z</time></trkpt><trkpt lat="43.457531504446976" lon="12.252581897010746"><ele>295.0</ele><time>2026-04-26T08:17:11.999Z</time></trkpt><trkpt lat="43.45744373054775" lon="12.252650411647213"><ele>295.0</ele><time>2026-04-26T08:17:12.999Z</time></trkpt><trkpt lat="43.457353298063325" lon="12.252712539654786"><ele>295.0</ele><time>2026-04-26T08:17:13.999Z</time></trkpt><trkpt lat="43.45726995624717" lon="12.252781778718713"><ele>295.0</ele><time>2026-04-26T08:17:14.999Z</time></trkpt><trkpt lat="43.4571688912558" lon="12.25283578415308"><ele>295.0</ele><time>2026-04-26T08:17:15.999Z</time></trkpt><trkpt lat="43.45707575729628" lon="12.25287000222758"><ele>294.6</ele><time>2026-04-26T08:17:16.998Z</time></trkpt><trkpt lat="43.45698336542626" lon="12.252907143685716"><ele>294.2</ele><time>2026-04-26T08:17:17.998Z</time></trkpt><trkpt lat="43.456883329030646" lon="12.252939290975046"><ele>293.8</ele><time>2026-04-26T08:17:18.998Z</time></trkpt><trkpt lat="43.4567843993475" lon="12.252965708332704"><ele>293.4</ele><time>2026-04-26T08:17:19.998Z</time></trkpt><trkpt lat="43.456702452700696" lon="12.252976447657442"><ele>293.0</ele><time>2026-04-26T08:17:20.998Z</time></trkpt><trkpt lat="43.45661689418711" lon="12.252993844045955"><ele>293.0</ele><time>2026-04-26T08:17:21.998Z</time></trkpt><trkpt lat="43.45653953401732" lon="12.253009390697517"><ele>293.0</ele><time>2026-04-26T08:17:22.998Z</time></trkpt><trkpt lat="43.456463425681164" lon="12.253016114153706"><ele>293.0</ele><time>2026-04-26T08:17:23.998Z</time></trkpt><trkpt lat="43.456397449185594" lon="12.253000194371172"><ele>293.0</ele><time>2026-04-26T08:17:24.998Z</time></trkpt><trkpt lat="43.45630394993366" lon="12.252908310252144"><ele>293.0</ele><time>2026-04-26T08:17:26.998Z</time></trkpt><trkpt lat="43.45626542032536" lon="12.252808819564434"><ele>293.0</ele><time>2026-04-26T08:17:27.998Z</time></trkpt><trkpt lat="43.45627483107143" lon="12.252659148003888"><ele>292.75</ele><time>2026-04-26T08:17:28.998Z</time></trkpt><trkpt lat="43.45624237312216" lon="12.252512140808758"><ele>292.5</ele><time>2026-04-26T08:17:29.998Z</time></trkpt><trkpt lat="43.45619450686964" lon="12.252368891707693"><ele>292.25</ele><time>2026-04-26T08:17:30.998Z</time></trkpt><trkpt lat="43.45618290519262" lon="12.25219513182694"><ele>292.0</ele><time>2026-04-26T08:17:31.998Z</time></trkpt><trkpt lat="43.45614963990944" lon="12.2520448834252"><ele>291.8</ele><time>2026-04-26T08:17:32.998Z</time></trkpt><trkpt lat="43.45611641783357" lon="12.25189473470276"><ele>291.6</ele><time>2026-04-26T08:17:33.998Z</time></trkpt><trkpt lat="43.456084675240234" lon="12.251757833718965"><ele>291.40000000000003</ele><time>2026-04-26T08:17:34.998Z</time></trkpt><trkpt lat="43.45605934251127" lon="12.251627765669847"><ele>291.2</ele><time>2026-04-26T08:17:35.998Z</time></trkpt><trkpt lat="43.45603098555898" lon="12.25150195653481"><ele>291.0</ele><time>2026-04-26T08:17:36.998Z</time></trkpt><trkpt lat="43.456009006798986" lon="12.251390779575683"><ele>290.8333333333333</ele><time>2026-04-26T08:17:37.998Z</time></trkpt><trkpt lat="43.45598230078333" lon="12.251272922089086"><ele>290.6666666666667</ele><time>2026-04-26T08:17:38.998Z</time></trkpt><trkpt lat="43.45595689268503" lon="12.251156786180163"><ele>290.5</ele><time>2026-04-26T08:17:39.999Z</time></trkpt><trkpt lat="43.45593359958644" lon="12.251047570816821"><ele>290.33333333333337</ele><time>2026-04-26T08:17:40.999Z</time></trkpt><trkpt lat="43.45590825016434" lon="12.250942775044317"><ele>290.1666666666667</ele><time>2026-04-26T08:17:41.999Z</time></trkpt><trkpt lat="43.455887806554934" lon="12.250837782862561"><ele>290.0</ele><time>2026-04-26T08:17:42.999Z</time></trkpt><trkpt lat="43.4558774378096" lon="12.250735685965955"><ele>290.0</ele><time>2026-04-26T08:17:43.999Z</time></trkpt><trkpt lat="43.45586861156549" lon="12.25063220007849"><ele>290.0</ele><time>2026-04-26T08:17:44.999Z</time></trkpt><trkpt lat="43.455865511195" lon="12.250536748336264"><ele>290.0</ele><time>2026-04-26T08:17:45.999Z</time></trkpt><trkpt lat="43.455865604857514" lon="12.250448881067777"><ele>290.0</ele><time>2026-04-26T08:17:46.999Z</time></trkpt><trkpt lat="43.455844386344864" lon="12.250265624978693"><ele>290.0</ele><time>2026-04-26T08:17:48.999Z</time></trkpt><trkpt lat="43.45577429781023" lon="12.250192980323389"><ele>290.0</ele><time>2026-04-26T08:17:49.999Z</time></trkpt><trkpt lat="43.45573522464199" lon="12.250091866761563"><ele>290.2</ele><time>2026-04-26T08:17:50.999Z</time></trkpt><trkpt lat="43.455710639046664" lon="12.249987089676258"><ele>290.4</ele><time>2026-04-26T08:17:51.999Z</time></trkpt><trkpt lat="43.455683630742065" lon="12.249855649844587"><ele>290.6</ele><time>2026-04-26T08:17:52.999Z</time></trkpt><trkpt lat="43.45565954236654" lon="12.249725312535872"><ele>290.8</ele><time>2026-04-26T08:17:53.999Z</time></trkpt><trkpt lat="43.455630630089495" lon="12.249594055833661"><ele>291.0</ele><time>2026-04-26T08:17:54.999Z</time></trkpt><trkpt lat="43.45560481242511" lon="12.249465554324457"><ele>290.40000000000003</ele><time>2026-04-26T08:17:55.999Z</time></trkpt><trkpt lat="43.45557901563491" lon="12.24933850175465"><ele>289.8</ele><time>2026-04-26T08:17:56.999Z</time></trkpt><trkpt lat="43.45554484019114" lon="12.24920272912301"><ele>289.20000000000005</ele><time>2026-04-26T08:17:57.999Z</time></trkpt><trkpt lat="43.45551171628945" lon="12.24905383246466"><ele>288.6</ele><time>2026-04-26T08:17:58.999Z</time></trkpt><trkpt lat="43.45548487591239" lon="12.248898344013808"><ele>288.0</ele><time>2026-04-26T08:17:59.999Z</time></trkpt><trkpt lat="43.455458228156175" lon="12.248754740419944"><ele>287.6666666666667</ele><time>2026-04-26T08:18:00.999Z</time></trkpt><trkpt lat="43.455428852619136" lon="12.248619428190763"><ele>287.3333333333333</ele><time>2026-04-26T08:18:01.999Z</time></trkpt><trkpt lat="43.455409415219215" lon="12.248505983708341"><ele>287.0</ele><time>2026-04-26T08:18:02.999Z</time></trkpt><trkpt lat="43.45539703377017" lon="12.24841181865113"><ele>286.66666666666663</ele><time>2026-04-26T08:18:03.999Z</time></trkpt><trkpt lat="43.45538566766161" lon="12.248304412254972"><ele>286.3333333333333</ele><time>2026-04-26T08:18:05.999Z</time></trkpt><trkpt lat="43.455408974662255" lon="12.248209078225782"><ele>286.0</ele><time>2026-04-26T08:18:07.999Z</time></trkpt><trkpt lat="43.455307294794416" lon="12.248126310854017"><ele>286.0</ele><time>2026-04-26T08:18:10.999Z</time></trkpt><trkpt lat="43.455236301663064" lon="12.248223812536674"><ele>286.0</ele><time>2026-04-26T08:18:12.999Z</time></trkpt><trkpt lat="43.45516043467464" lon="12.24824149985371"><ele>286.0</ele><time>2026-04-26T08:18:13.999Z</time></trkpt><trkpt lat="43.45509765409312" lon="12.248271611940366"><ele>286.0</ele><time>2026-04-26T08:18:14.999Z</time></trkpt><trkpt lat="43.45503153466723" lon="12.24830267557306"><ele>286.0</ele><time>2026-04-26T08:18:15.999Z</time></trkpt><trkpt lat="43.45494664468139" lon="12.2483433552363"><ele>286.0</ele><time>2026-04-26T08:18:16.999Z</time></trkpt><trkpt lat="43.45485426227" lon="12.248379673417817"><ele>286.0</ele><time>2026-04-26T08:18:17.999Z</time></trkpt><trkpt lat="43.454762388641264" lon="12.24841427224014"><ele>286.0</ele><time>2026-04-26T08:18:18.999Z</time></trkpt><trkpt lat="43.45466918332771" lon="12.248455332017938"><ele>286.0</ele><time>2026-04-26T08:18:19.999Z</time></trkpt><trkpt lat="43.45458140200012" lon="12.248497737734644"><ele>286.0</ele><time>2026-04-26T08:18:20.999Z</time></trkpt><trkpt lat="43.45451081316259" lon="12.248524646261075"><ele>286.0</ele><time>2026-04-26T08:18:21.999Z</time></trkpt><trkpt lat="43.45443517325466" lon="12.24856410639369"><ele>286.0</ele><time>2026-04-26T08:18:22.999Z</time></trkpt><trkpt lat="43.45434537897809" lon="12.248606474839177"><ele>285.8</ele><time>2026-04-26T08:18:23.999Z</time></trkpt><trkpt lat="43.45424648402543" lon="12.248649317623643"><ele>285.6</ele><time>2026-04-26T08:18:24.999Z</time></trkpt><trkpt lat="43.454138327341056" lon="12.248690184797644"><ele>285.4</ele><time>2026-04-26T08:18:25.999Z</time></trkpt><trkpt lat="43.454035461077645" lon="12.24873266367725"><ele>285.2</ele><time>2026-04-26T08:18:26.999Z</time></trkpt><trkpt lat="43.453933702857206" lon="12.248778293698813"><ele>285.0</ele><time>2026-04-26T08:18:27.999Z</time></trkpt><trkpt lat="43.453833693696374" lon="12.248815100544354"><ele>284.8</ele><time>2026-04-26T08:18:28.999Z</time></trkpt><trkpt lat="43.45374039022751" lon="12.24885609511662"><ele>284.6</ele><time>2026-04-26T08:18:29.999Z</time></trkpt><trkpt lat="43.453647175611565" lon="12.24890676894467"><ele>284.4</ele><time>2026-04-26T08:18:30.999Z</time></trkpt><trkpt lat="43.45354489068574" lon="12.248945932727013"><ele>284.2</ele><time>2026-04-26T08:18:31.999Z</time></trkpt><trkpt lat="43.453432733238955" lon="12.248989276740541"><ele>284.0</ele><time>2026-04-26T08:18:32.999Z</time></trkpt><trkpt lat="43.453334821774334" lon="12.24902853633094"><ele>284.0</ele><time>2026-04-26T08:18:33.999Z</time></trkpt><trkpt lat="43.45324306921985" lon="12.249059767324873"><ele>284.0</ele><time>2026-04-26T08:18:34.999Z</time></trkpt><trkpt lat="43.45314586530388" lon="12.249091836620556"><ele>284.0</ele><time>2026-04-26T08:18:35.999Z</time></trkpt><trkpt lat="43.45303427258157" lon="12.249124499907808"><ele>284.0</ele><time>2026-04-26T08:18:36.999Z</time></trkpt><trkpt lat="43.45292539344388" lon="12.249151483851778"><ele>284.0</ele><time>2026-04-26T08:18:37.999Z</time></trkpt><trkpt lat="43.45282199500806" lon="12.249170309791323"><ele>284.0</ele><time>2026-04-26T08:18:38.999Z</time></trkpt><trkpt lat="43.45271101261631" lon="12.249197522126451"><ele>284.0</ele><time>2026-04-26T08:18:39.999Z</time></trkpt><trkpt lat="43.45259711716315" lon="12.24922487930536"><ele>284.0</ele><time>2026-04-26T08:18:40.999Z</time></trkpt><trkpt lat="43.452492596596414" lon="12.249251730435143"><ele>284.0</ele><time>2026-04-26T08:18:41.999Z</time></trkpt><trkpt lat="43.45239622030152" lon="12.24927179438187"><ele>284.0</ele><time>2026-04-26T08:18:42.999Z</time></trkpt><trkpt lat="43.452302053644736" lon="12.24929945926015"><ele>284.0</ele><time>2026-04-26T08:18:43.999Z</time></trkpt><trkpt lat="43.45221118356116" lon="12.249317750937731"><ele>284.0</ele><time>2026-04-26T08:18:44.999Z</time></trkpt><trkpt lat="43.452112381496576" lon="12.249334604962167"><ele>284.0</ele><time>2026-04-26T08:18:45.999Z</time></trkpt><trkpt lat="43.45201897160678" lon="12.249353521024622"><ele>284.0</ele><time>2026-04-26T08:18:46.999Z</time></trkpt><trkpt lat="43.451943946899405" lon="12.249369197132442"><ele>284.0</ele><time>2026-04-26T08:18:47.999Z</time></trkpt><trkpt lat="43.451835279453704" lon="12.249405964856786"><ele>283.33333333333337</ele><time>2026-04-26T08:18:49.999Z</time></trkpt><trkpt lat="43.45171439078157" lon="12.249434777056997"><ele>282.6666666666667</ele><time>2026-04-26T08:18:50.999Z</time></trkpt><trkpt lat="43.45154477105105" lon="12.249480830558152"><ele>282.0</ele><time>2026-04-26T08:18:51.999Z</time></trkpt><trkpt lat="43.451349446702466" lon="12.249535101876704"><ele>282.6666666666667</ele><time>2026-04-26T08:18:52.999Z</time></trkpt><trkpt lat="43.451138110149316" lon="12.249589361279913"><ele>283.33333333333337</ele><time>2026-04-26T08:18:53.999Z</time></trkpt><trkpt lat="43.45092981049304" lon="12.249631579151314"><ele>284.0</ele><time>2026-04-26T08:18:54.999Z</time></trkpt><trkpt lat="43.45075652496012" lon="12.249667680262458"><ele>284.0</ele><time>2026-04-26T08:18:55.999Z</time></trkpt><trkpt lat="43.450606146431795" lon="12.249709874903438"><ele>284.0</ele><time>2026-04-26T08:18:56.999Z</time></trkpt><trkpt lat="43.450467786876075" lon="12.249751877187576"><ele>284.0</ele><time>2026-04-26T08:18:57.999Z</time></trkpt><trkpt lat="43.45032744935615" lon="12.24979440799019"><ele>284.0</ele><time>2026-04-26T08:18:58.999Z</time></trkpt><trkpt lat="43.45019063789231" lon="12.249827489395585"><ele>284.0</ele><time>2026-04-26T08:18:59.999Z</time></trkpt><trkpt lat="43.45005525678591" lon="12.249863318179843"><ele>284.0</ele><time>2026-04-26T08:19:00.999Z</time></trkpt><trkpt lat="43.44992513254078" lon="12.249891779382258"><ele>284.0</ele><time>2026-04-26T08:19:01.999Z</time></trkpt><trkpt lat="43.44980589535522" lon="12.249905592665101"><ele>284.0</ele><time>2026-04-26T08:19:02.999Z</time></trkpt><trkpt lat="43.44970610281423" lon="12.24990055809751"><ele>284.0</ele><time>2026-04-26T08:19:03.999Z</time></trkpt><trkpt lat="43.44963307566212" lon="12.249872389871408"><ele>284.0</ele><time>2026-04-26T08:19:04.999Z</time></trkpt><trkpt lat="43.44956920791225" lon="12.249862660074598"><ele>284.0</ele><time>2026-04-26T08:19:05.999Z</time></trkpt><trkpt lat="43.449508838309406" lon="12.24983427234"><ele>284.0</ele><time>2026-04-26T08:19:06.999Z</time></trkpt><trkpt lat="43.44943756444522" lon="12.249799235761886"><ele>284.0</ele><time>2026-04-26T08:19:07.999Z</time></trkpt><trkpt lat="43.44934654855126" lon="12.249751631091781"><ele>284.0</ele><time>2026-04-26T08:19:08.999Z</time></trkpt><trkpt lat="43.449250933879014" lon="12.249703263923182"><ele>284.0</ele><time>2026-04-26T08:19:09.999Z</time></trkpt><trkpt lat="43.44916242858177" lon="12.249660310557891"><ele>284.0</ele><time>2026-04-26T08:19:10.999Z</time></trkpt><trkpt lat="43.44907126070124" lon="12.249619430475445"><ele>284.0</ele><time>2026-04-26T08:19:11.999Z</time></trkpt><trkpt lat="43.44896898587833" lon="12.24957863712312"><ele>284.0</ele><time>2026-04-26T08:19:12.999Z</time></trkpt><trkpt lat="43.448875143601086" lon="12.249547161292375"><ele>284.0</ele><time>2026-04-26T08:19:13.999Z</time></trkpt><trkpt lat="43.44878617237484" lon="12.249514988275402"><ele>284.0</ele><time>2026-04-26T08:19:14.999Z</time></trkpt><trkpt lat="43.44868544983186" lon="12.249483788048368"><ele>284.0</ele><time>2026-04-26T08:19:15.999Z</time></trkpt><trkpt lat="43.4485951240352" lon="12.249467058724482"><ele>284.0</ele><time>2026-04-26T08:19:16.999Z</time></trkpt><trkpt lat="43.448502498164494" lon="12.249468355631933"><ele>284.0</ele><time>2026-04-26T08:19:17.999Z</time></trkpt><trkpt lat="43.448404579710036" lon="12.249483936253405"><ele>284.0</ele><time>2026-04-26T08:19:18.998Z</time></trkpt><trkpt lat="43.44830975614491" lon="12.249509127084831"><ele>284.0</ele><time>2026-04-26T08:19:19.998Z</time></trkpt><trkpt lat="43.448193032667575" lon="12.249542603804967"><ele>284.0</ele><time>2026-04-26T08:19:20.998Z</time></trkpt><trkpt lat="43.448071458610535" lon="12.249576350908576"><ele>284.0</ele><time>2026-04-26T08:19:21.998Z</time></trkpt><trkpt lat="43.4479625902575" lon="12.24960868619489"><ele>284.0</ele><time>2026-04-26T08:19:22.998Z</time></trkpt><trkpt lat="43.44785343141131" lon="12.249635012340644"><ele>283.75</ele><time>2026-04-26T08:19:23.998Z</time></trkpt><trkpt lat="43.447744280798474" lon="12.24966079515947"><ele>283.5</ele><time>2026-04-26T08:19:24.998Z</time></trkpt><trkpt lat="43.447637947611284" lon="12.24968862041657"><ele>283.25</ele><time>2026-04-26T08:19:25.998Z</time></trkpt><trkpt lat="43.44752196485933" lon="12.24971514090893"><ele>283.0</ele><time>2026-04-26T08:19:26.998Z</time></trkpt><trkpt lat="43.44740851676132" lon="12.249743300476403"><ele>283.0</ele><time>2026-04-26T08:19:27.998Z</time></trkpt><trkpt lat="43.44730648584628" lon="12.249765556592834"><ele>283.0</ele><time>2026-04-26T08:19:28.998Z</time></trkpt><trkpt lat="43.44720313650694" lon="12.249790389059811"><ele>283.0</ele><time>2026-04-26T08:19:29.998Z</time></trkpt><trkpt lat="43.44708520748224" lon="12.24982033778619"><ele>283.0</ele><time>2026-04-26T08:19:30.998Z</time></trkpt><trkpt lat="43.44696949440026" lon="12.2498510039071"><ele>283.0</ele><time>2026-04-26T08:19:31.998Z</time></trkpt><trkpt lat="43.446873791827926" lon="12.249872376814961"><ele>283.0</ele><time>2026-04-26T08:19:32.998Z</time></trkpt><trkpt lat="43.44677759404347" lon="12.249903198453454"><ele>283.0</ele><time>2026-04-26T08:19:33.998Z</time></trkpt><trkpt lat="43.446674007184555" lon="12.249929527527264"><ele>283.0</ele><time>2026-04-26T08:19:34.998Z</time></trkpt><trkpt lat="43.446579491203785" lon="12.249954648682781"><ele>283.0</ele><time>2026-04-26T08:19:35.998Z</time></trkpt><trkpt lat="43.446489296136846" lon="12.249978092050425"><ele>283.0</ele><time>2026-04-26T08:19:36.998Z</time></trkpt><trkpt lat="43.446399316893896" lon="12.249997126202926"><ele>283.0</ele><time>2026-04-26T08:19:37.998Z</time></trkpt><trkpt lat="43.44630879992352" lon="12.250012780085862"><ele>283.0</ele><time>2026-04-26T08:19:38.998Z</time></trkpt><trkpt lat="43.44620865098004" lon="12.250035601157624"><ele>283.0</ele><time>2026-04-26T08:19:39.998Z</time></trkpt><trkpt lat="43.446084598476354" lon="12.250058843841462"><ele>283.0</ele><time>2026-04-26T08:19:40.998Z</time></trkpt><trkpt lat="43.44594735214412" lon="12.250063034710738"><ele>283.0</ele><time>2026-04-26T08:19:41.998Z</time></trkpt><trkpt lat="43.44579862207869" lon="12.250046497137832"><ele>283.0</ele><time>2026-04-26T08:19:42.998Z</time></trkpt><trkpt lat="43.44563817751127" lon="12.250008425681354"><ele>283.0</ele><time>2026-04-26T08:19:43.998Z</time></trkpt><trkpt lat="43.44547618096273" lon="12.249962465368506"><ele>284.25</ele><time>2026-04-26T08:19:44.998Z</time></trkpt><trkpt lat="43.445346929362636" lon="12.249938589519168"><ele>285.5</ele><time>2026-04-26T08:19:45.999Z</time></trkpt><trkpt lat="43.44521767799498" lon="12.249931102048462"><ele>286.75</ele><time>2026-04-26T08:19:46.999Z</time></trkpt><trkpt lat="43.44507737104398" lon="12.24994125651115"><ele>288.0</ele><time>2026-04-26T08:19:47.999Z</time></trkpt><trkpt lat="43.44493360339068" lon="12.249981005862988"><ele>288.0</ele><time>2026-04-26T08:19:48.999Z</time></trkpt><trkpt lat="43.444785744399304" lon="12.250026249097566"><ele>288.0</ele><time>2026-04-26T08:19:49.999Z</time></trkpt><trkpt lat="43.44463256849696" lon="12.25007114956165"><ele>288.0</ele><time>2026-04-26T08:19:50.999Z</time></trkpt><trkpt lat="43.444485047550884" lon="12.250121718727694"><ele>287.0</ele><time>2026-04-26T08:19:51.999Z</time></trkpt><trkpt lat="43.44433571525841" lon="12.25015108435812"><ele>286.0</ele><time>2026-04-26T08:19:52.999Z</time></trkpt><trkpt lat="43.44418336933583" lon="12.250176130859622"><ele>285.0</ele><time>2026-04-26T08:19:53.999Z</time></trkpt><trkpt lat="43.44403306850105" lon="12.250208011379529"><ele>285.0</ele><time>2026-04-26T08:19:54.999Z</time></trkpt><trkpt lat="43.44388988329694" lon="12.250242107174948"><ele>285.0</ele><time>2026-04-26T08:19:55.999Z</time></trkpt><trkpt lat="43.443747449036046" lon="12.250271736143754"><ele>285.0</ele><time>2026-04-26T08:19:56.999Z</time></trkpt><trkpt lat="43.44359558117905" lon="12.250305207247907"><ele>285.0</ele><time>2026-04-26T08:19:57.999Z</time></trkpt><trkpt lat="43.443453027953844" lon="12.250344423187236"><ele>284.0</ele><time>2026-04-26T08:19:58.999Z</time></trkpt><trkpt lat="43.4433078965765" lon="12.25039275183369"><ele>283.0</ele><time>2026-04-26T08:19:59.999Z</time></trkpt><trkpt lat="43.44314349214062" lon="12.250432214691006"><ele>282.0</ele><time>2026-04-26T08:20:00.999Z</time></trkpt><trkpt lat="43.44299850609967" lon="12.250469244591052"><ele>282.0</ele><time>2026-04-26T08:20:01.999Z</time></trkpt><trkpt lat="43.44285291211388" lon="12.25051298119981"><ele>282.0</ele><time>2026-04-26T08:20:02.999Z</time></trkpt><trkpt lat="43.44269984761316" lon="12.250581966723486"><ele>282.0</ele><time>2026-04-26T08:20:03.999Z</time></trkpt><trkpt lat="43.44255750402396" lon="12.25063959301787"><ele>282.75</ele><time>2026-04-26T08:20:04.999Z</time></trkpt><trkpt lat="43.442412536267305" lon="12.250683899372598"><ele>283.5</ele><time>2026-04-26T08:20:05.999Z</time></trkpt><trkpt lat="43.44227322691865" lon="12.250736244237947"><ele>284.25</ele><time>2026-04-26T08:20:06.999Z</time></trkpt><trkpt lat="43.44213815352624" lon="12.25079682579695"><ele>285.0</ele><time>2026-04-26T08:20:07.999Z</time></trkpt><trkpt lat="43.442007401289594" lon="12.250858201000561"><ele>285.75</ele><time>2026-04-26T08:20:08.999Z</time></trkpt><trkpt lat="43.44189189081047" lon="12.250912811574524"><ele>286.5</ele><time>2026-04-26T08:20:09.999Z</time></trkpt><trkpt lat="43.44178559481071" lon="12.250979033517801"><ele>287.25</ele><time>2026-04-26T08:20:10.999Z</time></trkpt><trkpt lat="43.44168270093471" lon="12.25106685024415"><ele>288.0</ele><time>2026-04-26T08:20:11.999Z</time></trkpt><trkpt lat="43.44158895591064" lon="12.251170060238907"><ele>288.0</ele><time>2026-04-26T08:20:12.999Z</time></trkpt><trkpt lat="43.44150125043672" lon="12.251275469198928"><ele>288.0</ele><time>2026-04-26T08:20:13.999Z</time></trkpt><trkpt lat="43.44142856732125" lon="12.251372539302736"><ele>288.0</ele><time>2026-04-26T08:20:14.999Z</time></trkpt><trkpt lat="43.44138736666951" lon="12.251515263980156"><ele>288.0</ele><time>2026-04-26T08:20:15.999Z</time></trkpt><trkpt lat="43.44133444032685" lon="12.251664440674713"><ele>288.5</ele><time>2026-04-26T08:20:16.999Z</time></trkpt><trkpt lat="43.44130408538872" lon="12.251856943473761"><ele>289.0</ele><time>2026-04-26T08:20:17.999Z</time></trkpt><trkpt lat="43.441265443999384" lon="12.252031726888848"><ele>289.5</ele><time>2026-04-26T08:20:18.999Z</time></trkpt><trkpt lat="43.4412188249659" lon="12.252191266735247"><ele>290.0</ele><time>2026-04-26T08:20:19.999Z</time></trkpt><trkpt lat="43.441148224310446" lon="12.252344128269694"><ele>290.5</ele><time>2026-04-26T08:20:20.999Z</time></trkpt><trkpt lat="43.44102904308858" lon="12.252479524019565"><ele>291.0</ele><time>2026-04-26T08:20:21.999Z</time></trkpt><trkpt lat="43.44090291674203" lon="12.252566809797527"><ele>291.5</ele><time>2026-04-26T08:20:22.999Z</time></trkpt><trkpt lat="43.44079806939015" lon="12.252690939166216"><ele>292.0</ele><time>2026-04-26T08:20:23.999Z</time></trkpt><trkpt lat="43.44068012241478" lon="12.252789178457972"><ele>292.0</ele><time>2026-04-26T08:20:24.999Z</time></trkpt><trkpt lat="43.440562209336534" lon="12.252862987039634"><ele>292.0</ele><time>2026-04-26T08:20:25.999Z</time></trkpt><trkpt lat="43.44042778492146" lon="12.252925054283557"><ele>292.0</ele><time>2026-04-26T08:20:26.999Z</time></trkpt><trkpt lat="43.44029226958695" lon="12.25296001082252"><ele>292.0</ele><time>2026-04-26T08:20:27.999Z</time></trkpt><trkpt lat="43.44014748474676" lon="12.252997802557882"><ele>292.5</ele><time>2026-04-26T08:20:28.999Z</time></trkpt><trkpt lat="43.44000327836758" lon="12.253033430633277"><ele>293.0</ele><time>2026-04-26T08:20:29.999Z</time></trkpt><trkpt lat="43.43986233730911" lon="12.253079439189538"><ele>293.5</ele><time>2026-04-26T08:20:30.999Z</time></trkpt><trkpt lat="43.43973337937268" lon="12.25312682074962"><ele>294.0</ele><time>2026-04-26T08:20:31.999Z</time></trkpt><trkpt lat="43.439615030697425" lon="12.253197940863833"><ele>295.5</ele><time>2026-04-26T08:20:32.999Z</time></trkpt><trkpt lat="43.439501382721495" lon="12.253271447271185"><ele>297.0</ele><time>2026-04-26T08:20:33.999Z</time></trkpt><trkpt lat="43.43938586091781" lon="12.253337698516487"><ele>298.5</ele><time>2026-04-26T08:20:34.999Z</time></trkpt><trkpt lat="43.439277447876066" lon="12.253396329866316"><ele>300.0</ele><time>2026-04-26T08:20:35.999Z</time></trkpt><trkpt lat="43.439155929668615" lon="12.253450138509963"><ele>300.0</ele><time>2026-04-26T08:20:36.999Z</time></trkpt><trkpt lat="43.43902736414718" lon="12.253513156791167"><ele>300.0</ele><time>2026-04-26T08:20:37.999Z</time></trkpt><trkpt lat="43.43889745041155" lon="12.253562326294299"><ele>300.0</ele><time>2026-04-26T08:20:38.999Z</time></trkpt><trkpt lat="43.438776151135826" lon="12.253610325051227"><ele>300.0</ele><time>2026-04-26T08:20:39.999Z</time></trkpt><trkpt lat="43.43865618026482" lon="12.253667770499383"><ele>299.5</ele><time>2026-04-26T08:20:40.999Z</time></trkpt><trkpt lat="43.43853355257233" lon="12.253727769381568"><ele>299.0</ele><time>2026-04-26T08:20:41.999Z</time></trkpt><trkpt lat="43.43839967572945" lon="12.253792504793214"><ele>298.5</ele><time>2026-04-26T08:20:42.999Z</time></trkpt><trkpt lat="43.43827714363353" lon="12.253860815893747"><ele>298.0</ele><time>2026-04-26T08:20:43.999Z</time></trkpt><trkpt lat="43.43814915188886" lon="12.253885162940946"><ele>298.0</ele><time>2026-04-26T08:20:44.999Z</time></trkpt><trkpt lat="43.43802466477067" lon="12.253953351086638"><ele>298.0</ele><time>2026-04-26T08:20:45.999Z</time></trkpt><trkpt lat="43.43791728340764" lon="12.254025572710827"><ele>298.0</ele><time>2026-04-26T08:20:46.999Z</time></trkpt><trkpt lat="43.43781764845786" lon="12.254090413015925"><ele>298.0</ele><time>2026-04-26T08:20:47.999Z</time></trkpt><trkpt lat="43.43774028066958" lon="12.25415219753537"><ele>297.8</ele><time>2026-04-26T08:20:48.999Z</time></trkpt><trkpt lat="43.43766631637969" lon="12.254229802278102"><ele>297.6</ele><time>2026-04-26T08:20:49.999Z</time></trkpt><trkpt lat="43.43758539163113" lon="12.254308547073546"><ele>297.4</ele><time>2026-04-26T08:20:50.999Z</time></trkpt><trkpt lat="43.43749765216495" lon="12.254387734493093"><ele>297.2</ele><time>2026-04-26T08:20:51.999Z</time></trkpt><trkpt lat="43.43740644925362" lon="12.254464037746327"><ele>297.0</ele><time>2026-04-26T08:20:52.999Z</time></trkpt><trkpt lat="43.437316953934" lon="12.254539991613326"><ele>297.0</ele><time>2026-04-26T08:20:53.999Z</time></trkpt><trkpt lat="43.43722686874735" lon="12.25462248100601"><ele>297.0</ele><time>2026-04-26T08:20:54.999Z</time></trkpt><trkpt lat="43.4371315772934" lon="12.25471038406232"><ele>297.0</ele><time>2026-04-26T08:20:55.999Z</time></trkpt><trkpt lat="43.43703084722473" lon="12.254808004511077"><ele>297.0</ele><time>2026-04-26T08:20:56.999Z</time></trkpt><trkpt lat="43.43693222724528" lon="12.254906685623535"><ele>297.0</ele><time>2026-04-26T08:20:57.999Z</time></trkpt><trkpt lat="43.436842611537955" lon="12.255013680127975"><ele>297.0</ele><time>2026-04-26T08:20:58.999Z</time></trkpt><trkpt lat="43.43675422856247" lon="12.255129090468301"><ele>297.0</ele><time>2026-04-26T08:20:59.999Z</time></trkpt><trkpt lat="43.4366677746789" lon="12.255245539098443"><ele>297.0</ele><time>2026-04-26T08:21:00.999Z</time></trkpt><trkpt lat="43.436579335209345" lon="12.255360130880446"><ele>297.0</ele><time>2026-04-26T08:21:01.999Z</time></trkpt><trkpt lat="43.43649368860983" lon="12.255474095084848"><ele>297.0</ele><time>2026-04-26T08:21:02.999Z</time></trkpt><trkpt lat="43.436403849252436" lon="12.255598891030013"><ele>297.0</ele><time>2026-04-26T08:21:03.999Z</time></trkpt><trkpt lat="43.43631693938776" lon="12.255717044727232"><ele>297.0</ele><time>2026-04-26T08:21:04.999Z</time></trkpt><trkpt lat="43.43622086250667" lon="12.255836872121552"><ele>296.75</ele><time>2026-04-26T08:21:05.999Z</time></trkpt><trkpt lat="43.4361141503999" lon="12.255963563200838"><ele>296.5</ele><time>2026-04-26T08:21:06.999Z</time></trkpt><trkpt lat="43.436008834074066" lon="12.256094428262234"><ele>296.25</ele><time>2026-04-26T08:21:07.999Z</time></trkpt><trkpt lat="43.43591304866276" lon="12.256224571648369"><ele>296.0</ele><time>2026-04-26T08:21:08.999Z</time></trkpt><trkpt lat="43.43582460489382" lon="12.256342941243675"><ele>296.0</ele><time>2026-04-26T08:21:09.999Z</time></trkpt><trkpt lat="43.43574486138267" lon="12.256463542762955"><ele>296.0</ele><time>2026-04-26T08:21:10.999Z</time></trkpt><trkpt lat="43.435670986758446" lon="12.25658683113609"><ele>296.0</ele><time>2026-04-26T08:21:11.999Z</time></trkpt><trkpt lat="43.435609700617015" lon="12.256707150413998"><ele>296.0</ele><time>2026-04-26T08:21:12.999Z</time></trkpt><trkpt lat="43.435566595589805" lon="12.256815438170452"><ele>296.0</ele><time>2026-04-26T08:21:13.999Z</time></trkpt><trkpt lat="43.43552710619603" lon="12.256939118333419"><ele>296.0</ele><time>2026-04-26T08:21:14.999Z</time></trkpt><trkpt lat="43.4355061507552" lon="12.257077299604719"><ele>296.0</ele><time>2026-04-26T08:21:15.999Z</time></trkpt><trkpt lat="43.435484770873416" lon="12.257250603560195"><ele>296.0</ele><time>2026-04-26T08:21:16.999Z</time></trkpt><trkpt lat="43.43548867812629" lon="12.257472051893451"><ele>296.0</ele><time>2026-04-26T08:21:17.999Z</time></trkpt><trkpt lat="43.43550194130464" lon="12.257752378035581"><ele>297.0</ele><time>2026-04-26T08:21:18.999Z</time></trkpt><trkpt lat="43.43549980642666" lon="12.25808649244558"><ele>298.0</ele><time>2026-04-26T08:21:19.999Z</time></trkpt><trkpt lat="43.4354573244317" lon="12.258445789481042"><ele>291.5</ele><time>2026-04-26T08:21:20.999Z</time></trkpt><trkpt lat="43.43542280731523" lon="12.258796909862701"><ele>285.0</ele><time>2026-04-26T08:21:21.999Z</time></trkpt><trkpt lat="43.43537649190762" lon="12.259086286104578"><ele>284.6666666666667</ele><time>2026-04-26T08:21:22.999Z</time></trkpt><trkpt lat="43.43533730964717" lon="12.259353986247758"><ele>284.33333333333337</ele><time>2026-04-26T08:21:23.999Z</time></trkpt><trkpt lat="43.435301074613406" lon="12.25961013551257"><ele>284.0</ele><time>2026-04-26T08:21:24.999Z</time></trkpt><trkpt lat="43.43527050883765" lon="12.25983689171421"><ele>284.6666666666667</ele><time>2026-04-26T08:21:25.999Z</time></trkpt><trkpt lat="43.43527154361145" lon="12.26008216915448"><ele>285.3333333333333</ele><time>2026-04-26T08:21:26.999Z</time></trkpt><trkpt lat="43.43527273525765" lon="12.260333181382407"><ele>286.0</ele><time>2026-04-26T08:21:27.999Z</time></trkpt><trkpt lat="43.435284921964325" lon="12.260639501553532"><ele>286.66666666666663</ele><time>2026-04-26T08:21:28.998Z</time></trkpt><trkpt lat="43.43528445991196" lon="12.26091764873026"><ele>287.3333333333333</ele><time>2026-04-26T08:21:29.998Z</time></trkpt><trkpt lat="43.43526328620786" lon="12.261162306373988"><ele>288.0</ele><time>2026-04-26T08:21:30.998Z</time></trkpt><trkpt lat="43.43526117421681" lon="12.261380904001431"><ele>289.6666666666667</ele><time>2026-04-26T08:21:31.998Z</time></trkpt><trkpt lat="43.43528695789474" lon="12.26158948343969"><ele>291.33333333333337</ele><time>2026-04-26T08:21:32.998Z</time></trkpt><trkpt lat="43.43531984304287" lon="12.261794458318496"><ele>293.0</ele><time>2026-04-26T08:21:33.998Z</time></trkpt><trkpt lat="43.43534761285495" lon="12.262012536205283"><ele>293.0</ele><time>2026-04-26T08:21:34.998Z</time></trkpt><trkpt lat="43.43539115210858" lon="12.262233777527044"><ele>293.0</ele><time>2026-04-26T08:21:35.998Z</time></trkpt><trkpt lat="43.43543856093705" lon="12.262460362934661"><ele>293.0</ele><time>2026-04-26T08:21:36.998Z</time></trkpt><trkpt lat="43.43549900752237" lon="12.262679566691105"><ele>297.0</ele><time>2026-04-26T08:21:37.998Z</time></trkpt><trkpt lat="43.435571779681766" lon="12.26290862457506"><ele>301.0</ele><time>2026-04-26T08:21:38.998Z</time></trkpt><trkpt lat="43.43563149902033" lon="12.263128837825036"><ele>305.0</ele><time>2026-04-26T08:21:39.998Z</time></trkpt><trkpt lat="43.43569700142605" lon="12.26335383612053"><ele>305.0</ele><time>2026-04-26T08:21:40.998Z</time></trkpt><trkpt lat="43.43576813575479" lon="12.263555504796832"><ele>305.0</ele><time>2026-04-26T08:21:41.998Z</time></trkpt><trkpt lat="43.43581911495612" lon="12.26373084483315"><ele>305.0</ele><time>2026-04-26T08:21:42.998Z</time></trkpt><trkpt lat="43.435844003152894" lon="12.263868531204507"><ele>305.0</ele><time>2026-04-26T08:21:43.998Z</time></trkpt><trkpt lat="43.43592780123879" lon="12.26402491622836"><ele>304.2</ele><time>2026-04-26T08:21:44.998Z</time></trkpt><trkpt lat="43.4360448189147" lon="12.264102197897095"><ele>303.4</ele><time>2026-04-26T08:21:45.998Z</time></trkpt><trkpt lat="43.43611804476054" lon="12.264232953693298"><ele>302.6</ele><time>2026-04-26T08:21:46.998Z</time></trkpt><trkpt lat="43.43618291400629" lon="12.26431773951366"><ele>301.8</ele><time>2026-04-26T08:21:47.998Z</time></trkpt><trkpt lat="43.43623880524725" lon="12.264421507991855"><ele>301.0</ele><time>2026-04-26T08:21:48.998Z</time></trkpt><trkpt lat="43.43629192907977" lon="12.264518886743216"><ele>302.0</ele><time>2026-04-26T08:21:49.998Z</time></trkpt><trkpt lat="43.43635326982229" lon="12.26459903190727"><ele>303.0</ele><time>2026-04-26T08:21:50.998Z</time></trkpt><trkpt lat="43.436412253959766" lon="12.264670491402487"><ele>304.0</ele><time>2026-04-26T08:21:51.999Z</time></trkpt><trkpt lat="43.43647443415102" lon="12.264766630735354"><ele>305.0</ele><time>2026-04-26T08:21:52.999Z</time></trkpt><trkpt lat="43.43655970681642" lon="12.264839537880956"><ele>306.0</ele><time>2026-04-26T08:21:53.999Z</time></trkpt><trkpt lat="43.436640207771006" lon="12.264908885064848"><ele>306.0</ele><time>2026-04-26T08:21:54.999Z</time></trkpt><trkpt lat="43.436727688202566" lon="12.26498175471176"><ele>306.0</ele><time>2026-04-26T08:21:55.999Z</time></trkpt><trkpt lat="43.436822992247706" lon="12.265077576092175"><ele>306.0</ele><time>2026-04-26T08:21:56.999Z</time></trkpt><trkpt lat="43.43690380860891" lon="12.265223225123142"><ele>306.0</ele><time>2026-04-26T08:21:57.999Z</time></trkpt><trkpt lat="43.437010669801765" lon="12.265360988450073"><ele>306.0</ele><time>2026-04-26T08:21:58.999Z</time></trkpt><trkpt lat="43.437098505747215" lon="12.265539861438864"><ele>306.0</ele><time>2026-04-26T08:21:59.999Z</time></trkpt><trkpt lat="43.43720155439685" lon="12.265707832829188"><ele>306.0</ele><time>2026-04-26T08:22:00.999Z</time></trkpt><trkpt lat="43.43731985298415" lon="12.265894523602647"><ele>306.6666666666667</ele><time>2026-04-26T08:22:01.999Z</time></trkpt><trkpt lat="43.43744808126907" lon="12.266097078536514"><ele>307.33333333333337</ele><time>2026-04-26T08:22:02.999Z</time></trkpt><trkpt lat="43.437595259036854" lon="12.266329566954024"><ele>308.0</ele><time>2026-04-26T08:22:03.999Z</time></trkpt><trkpt lat="43.437765782986524" lon="12.266569027729744"><ele>308.0</ele><time>2026-04-26T08:22:04.999Z</time></trkpt><trkpt lat="43.437915436511965" lon="12.266810500041183"><ele>308.0</ele><time>2026-04-26T08:22:05.999Z</time></trkpt><trkpt lat="43.43804608691399" lon="12.26701475758903"><ele>308.0</ele><time>2026-04-26T08:22:06.999Z</time></trkpt><trkpt lat="43.438161173354274" lon="12.267150956883443"><ele>311.33333333333337</ele><time>2026-04-26T08:22:07.999Z</time></trkpt><trkpt lat="43.43828606939443" lon="12.267297482197149"><ele>314.6666666666667</ele><time>2026-04-26T08:22:08.999Z</time></trkpt><trkpt lat="43.43841783925301" lon="12.26746181353059"><ele>318.0</ele><time>2026-04-26T08:22:09.999Z</time></trkpt><trkpt lat="43.43849984464354" lon="12.267668502830238"><ele>318.0</ele><time>2026-04-26T08:22:10.999Z</time></trkpt><trkpt lat="43.43856037385673" lon="12.267905668651634"><ele>318.0</ele><time>2026-04-26T08:22:11.999Z</time></trkpt><trkpt lat="43.43860517655123" lon="12.268159815516945"><ele>318.0</ele><time>2026-04-26T08:22:12.999Z</time></trkpt><trkpt lat="43.43865245730457" lon="12.268427167096828"><ele>317.6666666666667</ele><time>2026-04-26T08:22:13.999Z</time></trkpt><trkpt lat="43.438725311544346" lon="12.26871333014252"><ele>317.33333333333337</ele><time>2026-04-26T08:22:14.999Z</time></trkpt><trkpt lat="43.438791724827944" lon="12.268974569086128"><ele>317.0</ele><time>2026-04-26T08:22:15.999Z</time></trkpt><trkpt lat="43.43887123186742" lon="12.269236649728072"><ele>317.0</ele><time>2026-04-26T08:22:16.999Z</time></trkpt><trkpt lat="43.43897561540168" lon="12.269493104566369"><ele>317.0</ele><time>2026-04-26T08:22:17.999Z</time></trkpt><trkpt lat="43.439090533764954" lon="12.269747306290824"><ele>317.0</ele><time>2026-04-26T08:22:18.999Z</time></trkpt><trkpt lat="43.43925405126482" lon="12.270039297399862"><ele>313.5</ele><time>2026-04-26T08:22:19.999Z</time></trkpt><trkpt lat="43.43941790865693" lon="12.270337987163053"><ele>310.0</ele><time>2026-04-26T08:22:20.999Z</time></trkpt><trkpt lat="43.439585230977954" lon="12.270623312865556"><ele>312.0</ele><time>2026-04-26T08:22:21.999Z</time></trkpt><trkpt lat="43.439724799167934" lon="12.27086361921992"><ele>314.0</ele><time>2026-04-26T08:22:22.999Z</time></trkpt><trkpt lat="43.43984329608859" lon="12.27107533502922"><ele>316.0</ele><time>2026-04-26T08:22:23.999Z</time></trkpt><trkpt lat="43.43996609535677" lon="12.271273602439603"><ele>314.66666666666663</ele><time>2026-04-26T08:22:24.999Z</time></trkpt><trkpt lat="43.44008004810305" lon="12.2714856669918"><ele>313.3333333333333</ele><time>2026-04-26T08:22:25.999Z</time></trkpt><trkpt lat="43.4401780208782" lon="12.271712393564323"><ele>312.0</ele><time>2026-04-26T08:22:26.999Z</time></trkpt><trkpt lat="43.44026257443018" lon="12.271963192024499"><ele>312.0</ele><time>2026-04-26T08:22:27.999Z</time></trkpt><trkpt lat="43.44037777040995" lon="12.272205197691866"><ele>312.0</ele><time>2026-04-26T08:22:28.999Z</time></trkpt><trkpt lat="43.440485433699514" lon="12.272438116556211"><ele>312.0</ele><time>2026-04-26T08:22:29.999Z</time></trkpt><trkpt lat="43.44056806794766" lon="12.272682835788467"><ele>312.0</ele><time>2026-04-26T08:22:30.999Z</time></trkpt><trkpt lat="43.4406486437259" lon="12.272942962252461"><ele>312.0</ele><time>2026-04-26T08:22:31.999Z</time></trkpt><trkpt lat="43.4407202867876" lon="12.27323010200788"><ele>312.0</ele><time>2026-04-26T08:22:32.999Z</time></trkpt><trkpt lat="43.44079510746768" lon="12.273526432877404"><ele>312.0</ele><time>2026-04-26T08:22:33.999Z</time></trkpt><trkpt lat="43.44085681873993" lon="12.273800913967438"><ele>312.0</ele><time>2026-04-26T08:22:34.999Z</time></trkpt><trkpt lat="43.440928704467304" lon="12.274040553483559"><ele>312.0</ele><time>2026-04-26T08:22:35.999Z</time></trkpt><trkpt lat="43.44101034490292" lon="12.274255278145763"><ele>311.3333333333333</ele><time>2026-04-26T08:22:36.999Z</time></trkpt><trkpt lat="43.44111351631145" lon="12.274469644938613"><ele>310.66666666666663</ele><time>2026-04-26T08:22:37.999Z</time></trkpt><trkpt lat="43.44123485427797" lon="12.274669432127897"><ele>310.0</ele><time>2026-04-26T08:22:38.999Z</time></trkpt><trkpt lat="43.44136489283161" lon="12.274844562745018"><ele>311.3333333333333</ele><time>2026-04-26T08:22:39.999Z</time></trkpt><trkpt lat="43.441503552357574" lon="12.274998491271647"><ele>312.6666666666667</ele><time>2026-04-26T08:22:40.999Z</time></trkpt><trkpt lat="43.44166678068571" lon="12.27511070319286"><ele>314.0</ele><time>2026-04-26T08:22:41.999Z</time></trkpt><trkpt lat="43.441819169576235" lon="12.275189202959448"><ele>314.0</ele><time>2026-04-26T08:22:42.999Z</time></trkpt><trkpt lat="43.44195037136399" lon="12.275282230878712"><ele>314.0</ele><time>2026-04-26T08:22:43.999Z</time></trkpt><trkpt lat="43.44205748771377" lon="12.275421678250412"><ele>314.0</ele><time>2026-04-26T08:22:44.999Z</time></trkpt><trkpt lat="43.44214192707422" lon="12.275625300421167"><ele>315.6666666666667</ele><time>2026-04-26T08:22:45.999Z</time></trkpt><trkpt lat="43.44222457358226" lon="12.275873423923606"><ele>317.3333333333333</ele><time>2026-04-26T08:22:46.999Z</time></trkpt><trkpt lat="43.442324530206456" lon="12.276124819161357"><ele>319.0</ele><time>2026-04-26T08:22:47.999Z</time></trkpt><trkpt lat="43.442439294837875" lon="12.276352944551249"><ele>316.0</ele><time>2026-04-26T08:22:48.999Z</time></trkpt><trkpt lat="43.44254369282237" lon="12.27655764388774"><ele>313.0</ele><time>2026-04-26T08:22:49.999Z</time></trkpt><trkpt lat="43.442655464453296" lon="12.276751357069895"><ele>310.0</ele><time>2026-04-26T08:22:50.999Z</time></trkpt><trkpt lat="43.442764634311345" lon="12.276958184034527"><ele>310.0</ele><time>2026-04-26T08:22:51.999Z</time></trkpt><trkpt lat="43.44286474483979" lon="12.277212964216998"><ele>310.0</ele><time>2026-04-26T08:22:52.999Z</time></trkpt><trkpt lat="43.4429590098103" lon="12.27748478146925"><ele>310.0</ele><time>2026-04-26T08:22:53.999Z</time></trkpt><trkpt lat="43.44304641539559" lon="12.277705006766425"><ele>311.25</ele><time>2026-04-26T08:22:54.999Z</time></trkpt><trkpt lat="43.44313141719974" lon="12.277867909282637"><ele>312.5</ele><time>2026-04-26T08:22:55.999Z</time></trkpt><trkpt lat="43.44322917443743" lon="12.277959521584775"><ele>313.75</ele><time>2026-04-26T08:22:56.999Z</time></trkpt><trkpt lat="43.443357456019356" lon="12.2780126023256"><ele>315.0</ele><time>2026-04-26T08:22:57.999Z</time></trkpt><trkpt lat="43.44352742252798" lon="12.27807455318802"><ele>315.0</ele><time>2026-04-26T08:22:58.999Z</time></trkpt><trkpt lat="43.44367772075137" lon="12.27813529637367"><ele>315.0</ele><time>2026-04-26T08:22:59.999Z</time></trkpt><trkpt lat="43.44381281072349" lon="12.278162465619163"><ele>315.0</ele><time>2026-04-26T08:23:00.999Z</time></trkpt><trkpt lat="43.44393447473176" lon="12.278121803868721"><ele>315.0</ele><time>2026-04-26T08:23:01.999Z</time></trkpt><trkpt lat="43.44404623449789" lon="12.278008528752364"><ele>317.0</ele><time>2026-04-26T08:23:02.999Z</time></trkpt><trkpt lat="43.44413155513867" lon="12.277865192078144"><ele>319.0</ele><time>2026-04-26T08:23:03.999Z</time></trkpt><trkpt lat="43.44421883778572" lon="12.277818062051288"><ele>321.0</ele><time>2026-04-26T08:23:04.999Z</time></trkpt><trkpt lat="43.44435398582545" lon="12.277909220765608"><ele>323.0</ele><time>2026-04-26T08:23:06.999Z</time></trkpt><trkpt lat="43.44443925994803" lon="12.278096082548473"><ele>324.0</ele><time>2026-04-26T08:23:07.999Z</time></trkpt><trkpt lat="43.4445426609707" lon="12.278302156992812"><ele>325.0</ele><time>2026-04-26T08:23:08.999Z</time></trkpt><trkpt lat="43.444646742590116" lon="12.278462191788636"><ele>326.0</ele><time>2026-04-26T08:23:09.999Z</time></trkpt><trkpt lat="43.44473967306395" lon="12.278606808840287"><ele>326.0</ele><time>2026-04-26T08:23:10.999Z</time></trkpt><trkpt lat="43.44483308559975" lon="12.278725685659895"><ele>326.0</ele><time>2026-04-26T08:23:11.999Z</time></trkpt><trkpt lat="43.444909591415886" lon="12.278806095606726"><ele>326.0</ele><time>2026-04-26T08:23:12.999Z</time></trkpt><trkpt lat="43.444998450560846" lon="12.27884147398048"><ele>326.0</ele><time>2026-04-26T08:23:13.999Z</time></trkpt><trkpt lat="43.44510424612049" lon="12.278872234607086"><ele>326.0</ele><time>2026-04-26T08:23:14.999Z</time></trkpt><trkpt lat="43.4452038299606" lon="12.278908791416514"><ele>323.6</ele><time>2026-04-26T08:23:15.999Z</time></trkpt><trkpt lat="43.4452628843668" lon="12.278989672165217"><ele>321.20000000000005</ele><time>2026-04-26T08:23:16.999Z</time></trkpt><trkpt lat="43.445276601255195" lon="12.279125326886177"><ele>318.79999999999995</ele><time>2026-04-26T08:23:17.999Z</time></trkpt><trkpt lat="43.44525624065419" lon="12.279249918309281"><ele>316.4</ele><time>2026-04-26T08:23:18.999Z</time></trkpt><trkpt lat="43.445209562090604" lon="12.279393563763783"><ele>314.0</ele><time>2026-04-26T08:23:19.999Z</time></trkpt><trkpt lat="43.44517272493011" lon="12.27953946925518"><ele>314.0</ele><time>2026-04-26T08:23:20.999Z</time></trkpt><trkpt lat="43.44514622099821" lon="12.279724906517234"><ele>314.0</ele><time>2026-04-26T08:23:21.999Z</time></trkpt><trkpt lat="43.44514125350898" lon="12.279929807491666"><ele>314.0</ele><time>2026-04-26T08:23:22.999Z</time></trkpt><trkpt lat="43.44515773689633" lon="12.280146388700159"><ele>314.0</ele><time>2026-04-26T08:23:23.999Z</time></trkpt><trkpt lat="43.445194814148834" lon="12.280391847872368"><ele>315.33333333333337</ele><time>2026-04-26T08:23:24.999Z</time></trkpt><trkpt lat="43.4452457303955" lon="12.280620183470914"><ele>316.6666666666667</ele><time>2026-04-26T08:23:25.999Z</time></trkpt><trkpt lat="43.445306029893615" lon="12.280859246916695"><ele>318.0</ele><time>2026-04-26T08:23:26.999Z</time></trkpt><trkpt lat="43.445386011273776" lon="12.281126882196476"><ele>326.6666666666667</ele><time>2026-04-26T08:23:27.999Z</time></trkpt><trkpt lat="43.445462631885995" lon="12.281380265046835"><ele>335.33333333333337</ele><time>2026-04-26T08:23:28.999Z</time></trkpt><trkpt lat="43.445545943716" lon="12.281621263532708"><ele>344.0</ele><time>2026-04-26T08:23:29.999Z</time></trkpt><trkpt lat="43.445627221311085" lon="12.2818208337732"><ele>344.0</ele><time>2026-04-26T08:23:30.999Z</time></trkpt><trkpt lat="43.44570268775616" lon="12.28199702547323"><ele>344.0</ele><time>2026-04-26T08:23:31.999Z</time></trkpt><trkpt lat="43.4457721233273" lon="12.282173171225134"><ele>344.0</ele><time>2026-04-26T08:23:32.999Z</time></trkpt><trkpt lat="43.4458419836802" lon="12.282343300822943"><ele>344.0</ele><time>2026-04-26T08:23:33.999Z</time></trkpt><trkpt lat="43.44590457901189" lon="12.282485111576568"><ele>340.0</ele><time>2026-04-26T08:23:34.999Z</time></trkpt><trkpt lat="43.44597433640357" lon="12.282626547544925"><ele>336.0</ele><time>2026-04-26T08:23:35.999Z</time></trkpt><trkpt lat="43.44607913763123" lon="12.282743304511154"><ele>332.0</ele><time>2026-04-26T08:23:36.999Z</time></trkpt><trkpt lat="43.446210411165865" lon="12.282824014082955"><ele>328.0</ele><time>2026-04-26T08:23:37.999Z</time></trkpt><trkpt lat="43.44635288064794" lon="12.282853953203071"><ele>332.25</ele><time>2026-04-26T08:23:38.999Z</time></trkpt><trkpt lat="43.44645167829976" lon="12.28293346237453"><ele>336.5</ele><time>2026-04-26T08:23:39.999Z</time></trkpt><trkpt lat="43.446534737121475" lon="12.283053914501474"><ele>340.75</ele><time>2026-04-26T08:23:40.999Z</time></trkpt><trkpt lat="43.44660256344348" lon="12.283204931247372"><ele>345.0</ele><time>2026-04-26T08:23:41.999Z</time></trkpt><trkpt lat="43.446645309184035" lon="12.283396395602797"><ele>345.0</ele><time>2026-04-26T08:23:42.998Z</time></trkpt><trkpt lat="43.44667207203716" lon="12.283599449424727"><ele>345.0</ele><time>2026-04-26T08:23:43.998Z</time></trkpt><trkpt lat="43.446689095171635" lon="12.283802686663698"><ele>345.0</ele><time>2026-04-26T08:23:44.998Z</time></trkpt><trkpt lat="43.446722039855985" lon="12.283986722242208"><ele>345.0</ele><time>2026-04-26T08:23:45.998Z</time></trkpt><trkpt lat="43.44675277815426" lon="12.284157045625935"><ele>340.25</ele><time>2026-04-26T08:23:46.998Z</time></trkpt><trkpt lat="43.4467792403171" lon="12.284329648755655"><ele>335.5</ele><time>2026-04-26T08:23:47.998Z</time></trkpt><trkpt lat="43.44681467377628" lon="12.284499210364409"><ele>330.75</ele><time>2026-04-26T08:23:48.998Z</time></trkpt><trkpt lat="43.44685092893846" lon="12.28465725719879"><ele>326.0</ele><time>2026-04-26T08:23:49.998Z</time></trkpt><trkpt lat="43.4468887400808" lon="12.28481079627981"><ele>325.5</ele><time>2026-04-26T08:23:50.998Z</time></trkpt><trkpt lat="43.44693725155024" lon="12.284968762859085"><ele>325.0</ele><time>2026-04-26T08:23:51.998Z</time></trkpt><trkpt lat="43.446973537511425" lon="12.285131148007371"><ele>324.5</ele><time>2026-04-26T08:23:52.998Z</time></trkpt><trkpt lat="43.447005082449834" lon="12.2852892233452"><ele>324.0</ele><time>2026-04-26T08:23:53.998Z</time></trkpt><trkpt lat="43.447032270275926" lon="12.285459391547159"><ele>323.6666666666667</ele><time>2026-04-26T08:23:54.998Z</time></trkpt><trkpt lat="43.44706948723659" lon="12.285638026124952"><ele>323.33333333333337</ele><time>2026-04-26T08:23:55.998Z</time></trkpt><trkpt lat="43.447111122198976" lon="12.285841056074823"><ele>323.0</ele><time>2026-04-26T08:23:56.998Z</time></trkpt><trkpt lat="43.447156412633625" lon="12.286060495935429"><ele>323.6666666666667</ele><time>2026-04-26T08:23:58Z</time></trkpt><trkpt lat="43.447204967324566" lon="12.286293818183585"><ele>324.3333333333333</ele><time>2026-04-26T08:23:59Z</time></trkpt><trkpt lat="43.44726068313101" lon="12.286545770784265"><ele>325.0</ele><time>2026-04-26T08:24:00Z</time></trkpt><trkpt lat="43.44731860510033" lon="12.286817083756787"><ele>325.0</ele><time>2026-04-26T08:24:01Z</time></trkpt><trkpt lat="43.44737680260482" lon="12.287105375324856"><ele>325.0</ele><time>2026-04-26T08:24:02Z</time></trkpt><trkpt lat="43.447448430350235" lon="12.287437925768593"><ele>324.0</ele><time>2026-04-26T08:24:03Z</time></trkpt><trkpt lat="43.447527620821276" lon="12.287776645464692"><ele>323.0</ele><time>2026-04-26T08:24:04Z</time></trkpt><trkpt lat="43.44759881401483" lon="12.288126444034402"><ele>322.0</ele><time>2026-04-26T08:24:05Z</time></trkpt><trkpt lat="43.44767083883573" lon="12.288478618888819"><ele>321.0</ele><time>2026-04-26T08:24:06Z</time></trkpt><trkpt lat="43.44773393671041" lon="12.288841473020192"><ele>321.5</ele><time>2026-04-26T08:24:07Z</time></trkpt><trkpt lat="43.44777153466296" lon="12.289166665837488"><ele>322.0</ele><time>2026-04-26T08:24:08Z</time></trkpt><trkpt lat="43.44783549894051" lon="12.289515484488609"><ele>323.5</ele><time>2026-04-26T08:24:09Z</time></trkpt><trkpt lat="43.44792217705759" lon="12.28988334005834"><ele>325.0</ele><time>2026-04-26T08:24:10Z</time></trkpt><trkpt lat="43.44802368402941" lon="12.290271653933956"><ele>325.0</ele><time>2026-04-26T08:24:11Z</time></trkpt><trkpt lat="43.448085162988285" lon="12.290588936879308"><ele>325.0</ele><time>2026-04-26T08:24:12Z</time></trkpt><trkpt lat="43.44814938294852" lon="12.290908076341571"><ele>325.5</ele><time>2026-04-26T08:24:13Z</time></trkpt><trkpt lat="43.4482070740565" lon="12.291232315256073"><ele>326.0</ele><time>2026-04-26T08:24:14Z</time></trkpt><trkpt lat="43.448243659876006" lon="12.29154686448836"><ele>326.0</ele><time>2026-04-26T08:24:15Z</time></trkpt><trkpt lat="43.448257864492476" lon="12.291853603959472"><ele>326.0</ele><time>2026-04-26T08:24:16Z</time></trkpt><trkpt lat="43.44826727399645" lon="12.292144789565093"><ele>326.0</ele><time>2026-04-26T08:24:17Z</time></trkpt><trkpt lat="43.448303129656644" lon="12.292438777403891"><ele>326.0</ele><time>2026-04-26T08:24:18Z</time></trkpt><trkpt lat="43.448407507984726" lon="12.292737794785888"><ele>326.0</ele><time>2026-04-26T08:24:19Z</time></trkpt><trkpt lat="43.448523701616345" lon="12.29303773326961"><ele>328.0</ele><time>2026-04-26T08:24:20Z</time></trkpt><trkpt lat="43.4486438851346" lon="12.29335870628947"><ele>330.0</ele><time>2026-04-26T08:24:21Z</time></trkpt><trkpt lat="43.448747908905275" lon="12.29370778047143"><ele>331.0</ele><time>2026-04-26T08:24:22Z</time></trkpt><trkpt lat="43.44885519148392" lon="12.294074422503044"><ele>332.0</ele><time>2026-04-26T08:24:23Z</time></trkpt><trkpt lat="43.44897348617095" lon="12.294430704041154"><ele>332.0</ele><time>2026-04-26T08:24:24Z</time></trkpt><trkpt lat="43.449088165358525" lon="12.294746005397826"><ele>332.0</ele><time>2026-04-26T08:24:25Z</time></trkpt><trkpt lat="43.449196947738905" lon="12.295046284703815"><ele>333.0</ele><time>2026-04-26T08:24:26Z</time></trkpt><trkpt lat="43.449304635049735" lon="12.295335815435354"><ele>334.0</ele><time>2026-04-26T08:24:27Z</time></trkpt><trkpt lat="43.44940847311626" lon="12.295631394752968"><ele>334.5</ele><time>2026-04-26T08:24:28Z</time></trkpt><trkpt lat="43.449515712391005" lon="12.295934924253837"><ele>335.0</ele><time>2026-04-26T08:24:29Z</time></trkpt><trkpt lat="43.449615425679106" lon="12.296207299547751"><ele>338.0</ele><time>2026-04-26T08:24:30Z</time></trkpt><trkpt lat="43.449710959240605" lon="12.296457846322141"><ele>341.0</ele><time>2026-04-26T08:24:30.999Z</time></trkpt><trkpt lat="43.44981256082205" lon="12.296704565990705"><ele>344.0</ele><time>2026-04-26T08:24:31.999Z</time></trkpt><trkpt lat="43.44992041419978" lon="12.296948146840329"><ele>344.0</ele><time>2026-04-26T08:24:32.999Z</time></trkpt><trkpt lat="43.45002108401648" lon="12.297185732429428"><ele>344.0</ele><time>2026-04-26T08:24:33.999Z</time></trkpt><trkpt lat="43.450124618853536" lon="12.297395908277093"><ele>344.0</ele><time>2026-04-26T08:24:34.999Z</time></trkpt><trkpt lat="43.450241513184025" lon="12.297581212253327"><ele>342.6666666666667</ele><time>2026-04-26T08:24:35.999Z</time></trkpt><trkpt lat="43.45035849685525" lon="12.297761224444981"><ele>341.3333333333333</ele><time>2026-04-26T08:24:36.999Z</time></trkpt><trkpt lat="43.45047811609282" lon="12.297928159134242"><ele>340.0</ele><time>2026-04-26T08:24:37.999Z</time></trkpt><trkpt lat="43.45060613269114" lon="12.298102356516766"><ele>343.3333333333333</ele><time>2026-04-26T08:24:38.999Z</time></trkpt><trkpt lat="43.450745756829996" lon="12.298275997916912"><ele>346.6666666666667</ele><time>2026-04-26T08:24:39.999Z</time></trkpt><trkpt lat="43.45089639050517" lon="12.298447328107638"><ele>350.0</ele><time>2026-04-26T08:24:40.999Z</time></trkpt><trkpt lat="43.45106308147323" lon="12.298628860368723"><ele>350.0</ele><time>2026-04-26T08:24:41.999Z</time></trkpt><trkpt lat="43.451239621542896" lon="12.298822598617328"><ele>350.0</ele><time>2026-04-26T08:24:42.999Z</time></trkpt><trkpt lat="43.45141551895753" lon="12.299022243195292"><ele>355.0</ele><time>2026-04-26T08:24:43.999Z</time></trkpt><trkpt lat="43.45159417105237" lon="12.299224919420608"><ele>360.0</ele><time>2026-04-26T08:24:44.999Z</time></trkpt><trkpt lat="43.45176882976331" lon="12.29943900366278"><ele>360.0</ele><time>2026-04-26T08:24:45.999Z</time></trkpt><trkpt lat="43.45193581886614" lon="12.299678445498209"><ele>360.0</ele><time>2026-04-26T08:24:46.999Z</time></trkpt><trkpt lat="43.45207826674552" lon="12.299954031536021"><ele>362.6666666666667</ele><time>2026-04-26T08:24:47.999Z</time></trkpt><trkpt lat="43.45220707494093" lon="12.300231212410763"><ele>365.33333333333337</ele><time>2026-04-26T08:24:48.999Z</time></trkpt><trkpt lat="43.45232706291983" lon="12.300464576069096"><ele>368.0</ele><time>2026-04-26T08:24:49.999Z</time></trkpt><trkpt lat="43.45245339784023" lon="12.300691433412624"><ele>362.33333333333337</ele><time>2026-04-26T08:24:50.999Z</time></trkpt><trkpt lat="43.45258970454001" lon="12.300899253189316"><ele>356.6666666666667</ele><time>2026-04-26T08:24:51.999Z</time></trkpt><trkpt lat="43.452737790238054" lon="12.301078310168725"><ele>351.0</ele><time>2026-04-26T08:24:52.999Z</time></trkpt><trkpt lat="43.45288134829671" lon="12.301229584912129"><ele>351.0</ele><time>2026-04-26T08:24:53.999Z</time></trkpt><trkpt lat="43.45303570610595" lon="12.301370524614104"><ele>351.0</ele><time>2026-04-26T08:24:54.999Z</time></trkpt><trkpt lat="43.45319815523565" lon="12.301520409885038"><ele>351.0</ele><time>2026-04-26T08:24:55.999Z</time></trkpt><trkpt lat="43.4533765670075" lon="12.301663114244505"><ele>351.0</ele><time>2026-04-26T08:24:56.999Z</time></trkpt><trkpt lat="43.453564004912984" lon="12.301809839236254"><ele>351.0</ele><time>2026-04-26T08:24:57.999Z</time></trkpt><trkpt lat="43.453755585728814" lon="12.301959475238549"><ele>351.0</ele><time>2026-04-26T08:24:58.999Z</time></trkpt><trkpt lat="43.453922737983085" lon="12.302110637572572"><ele>352.0</ele><time>2026-04-26T08:24:59.999Z</time></trkpt><trkpt lat="43.45406255041498" lon="12.302274194057512"><ele>353.0</ele><time>2026-04-26T08:25:00.999Z</time></trkpt><trkpt lat="43.45418067460401" lon="12.302497109801818"><ele>354.0</ele><time>2026-04-26T08:25:01.999Z</time></trkpt><trkpt lat="43.45429474922883" lon="12.302737817341086"><ele>354.0</ele><time>2026-04-26T08:25:02.999Z</time></trkpt><trkpt lat="43.45440970827281" lon="12.302974384289124"><ele>354.0</ele><time>2026-04-26T08:25:03.999Z</time></trkpt><trkpt lat="43.45452677546531" lon="12.303201756052092"><ele>354.0</ele><time>2026-04-26T08:25:04.999Z</time></trkpt><trkpt lat="43.454647565927615" lon="12.303410976265006"><ele>353.6666666666667</ele><time>2026-04-26T08:25:05.999Z</time></trkpt><trkpt lat="43.45476624330532" lon="12.303597547597027"><ele>353.33333333333337</ele><time>2026-04-26T08:25:06.999Z</time></trkpt><trkpt lat="43.45489512916635" lon="12.303775201952716"><ele>353.0</ele><time>2026-04-26T08:25:07.999Z</time></trkpt><trkpt lat="43.45503539763188" lon="12.303949109703915"><ele>353.0</ele><time>2026-04-26T08:25:08.999Z</time></trkpt><trkpt lat="43.455178907331465" lon="12.304123562026433"><ele>353.0</ele><time>2026-04-26T08:25:09.999Z</time></trkpt><trkpt lat="43.4553149660428" lon="12.304278120800742"><ele>353.0</ele><time>2026-04-26T08:25:10.999Z</time></trkpt><trkpt lat="43.45545990151425" lon="12.304430896732274"><ele>352.33333333333337</ele><time>2026-04-26T08:25:11.999Z</time></trkpt><trkpt lat="43.45561883991742" lon="12.3045614374881"><ele>351.6666666666667</ele><time>2026-04-26T08:25:12.999Z</time></trkpt><trkpt lat="43.45580057860469" lon="12.304663195209706"><ele>351.0</ele><time>2026-04-26T08:25:13.999Z</time></trkpt><trkpt lat="43.455989769671426" lon="12.304752357891898"><ele>351.0</ele><time>2026-04-26T08:25:14.999Z</time></trkpt><trkpt lat="43.45616696972043" lon="12.304846355948177"><ele>351.0</ele><time>2026-04-26T08:25:15.999Z</time></trkpt><trkpt lat="43.45633222935546" lon="12.304928628308618"><ele>351.0</ele><time>2026-04-26T08:25:16.999Z</time></trkpt><trkpt lat="43.45650664635229" lon="12.304997200836251"><ele>354.0</ele><time>2026-04-26T08:25:17.999Z</time></trkpt><trkpt lat="43.456691304142694" lon="12.305051377829095"><ele>357.0</ele><time>2026-04-26T08:25:18.999Z</time></trkpt><trkpt lat="43.456885850608515" lon="12.305084285384867"><ele>360.0</ele><time>2026-04-26T08:25:19.999Z</time></trkpt><trkpt lat="43.457108193015976" lon="12.30508131072277"><ele>362.5</ele><time>2026-04-26T08:25:20.999Z</time></trkpt><trkpt lat="43.45735267984048" lon="12.305072803061652"><ele>365.0</ele><time>2026-04-26T08:25:21.999Z</time></trkpt><trkpt lat="43.45760774118934" lon="12.305054269106906"><ele>365.0</ele><time>2026-04-26T08:25:22.999Z</time></trkpt><trkpt lat="43.457868412044434" lon="12.305021812230082"><ele>365.0</ele><time>2026-04-26T08:25:23.999Z</time></trkpt><trkpt lat="43.45813344309564" lon="12.304965780664453"><ele>362.5</ele><time>2026-04-26T08:25:24.999Z</time></trkpt><trkpt lat="43.458397724310224" lon="12.304906814413222"><ele>360.0</ele><time>2026-04-26T08:25:25.999Z</time></trkpt><trkpt lat="43.45865555609032" lon="12.304848487198312"><ele>360.0</ele><time>2026-04-26T08:25:26.999Z</time></trkpt><trkpt lat="43.458891748062186" lon="12.304790773936963"><ele>360.0</ele><time>2026-04-26T08:25:27.999Z</time></trkpt><trkpt lat="43.459105650829756" lon="12.304764967378178"><ele>360.0</ele><time>2026-04-26T08:25:28.999Z</time></trkpt><trkpt lat="43.45929647775167" lon="12.304752407117084"><ele>360.0</ele><time>2026-04-26T08:25:29.999Z</time></trkpt><trkpt lat="43.459487034171" lon="12.304762598781362"><ele>360.0</ele><time>2026-04-26T08:25:30.999Z</time></trkpt><trkpt lat="43.45967415039057" lon="12.30481992127117"><ele>361.3333333333333</ele><time>2026-04-26T08:25:31.999Z</time></trkpt><trkpt lat="43.45987467452243" lon="12.304925715663849"><ele>362.66666666666663</ele><time>2026-04-26T08:25:32.999Z</time></trkpt><trkpt lat="43.46005475016193" lon="12.30505596501262"><ele>364.0</ele><time>2026-04-26T08:25:33.999Z</time></trkpt><trkpt lat="43.460235293544535" lon="12.3052154553243"><ele>364.0</ele><time>2026-04-26T08:25:34.999Z</time></trkpt><trkpt lat="43.46040652054805" lon="12.305383866956628"><ele>364.0</ele><time>2026-04-26T08:25:35.999Z</time></trkpt><trkpt lat="43.460566669880386" lon="12.30556440361293"><ele>364.0</ele><time>2026-04-26T08:25:36.999Z</time></trkpt><trkpt lat="43.46073723678145" lon="12.305727497718028"><ele>363.3333333333333</ele><time>2026-04-26T08:25:37.999Z</time></trkpt><trkpt lat="43.4609143845067" lon="12.305887503874722"><ele>362.6666666666667</ele><time>2026-04-26T08:25:38.999Z</time></trkpt><trkpt lat="43.46108949464723" lon="12.306051455378158"><ele>362.0</ele><time>2026-04-26T08:25:39.999Z</time></trkpt><trkpt lat="43.46126674500072" lon="12.306208901978666"><ele>364.0</ele><time>2026-04-26T08:25:40.999Z</time></trkpt><trkpt lat="43.46143693273072" lon="12.306364757577473"><ele>366.0</ele><time>2026-04-26T08:25:41.999Z</time></trkpt><trkpt lat="43.46159321925343" lon="12.306505625934832"><ele>368.0</ele><time>2026-04-26T08:25:42.999Z</time></trkpt><trkpt lat="43.46172840891056" lon="12.306637267043453"><ele>368.0</ele><time>2026-04-26T08:25:43.999Z</time></trkpt><trkpt lat="43.461848816757744" lon="12.306760173816532"><ele>368.0</ele><time>2026-04-26T08:25:44.999Z</time></trkpt><trkpt lat="43.46194978705653" lon="12.306895982157641"><ele>368.0</ele><time>2026-04-26T08:25:45.999Z</time></trkpt><trkpt lat="43.46203075404392" lon="12.307055603030165"><ele>368.0</ele><time>2026-04-26T08:25:46.999Z</time></trkpt><trkpt lat="43.46210507169083" lon="12.307250585146287"><ele>369.0</ele><time>2026-04-26T08:25:47.999Z</time></trkpt><trkpt lat="43.46217804150109" lon="12.307477862205516"><ele>370.0</ele><time>2026-04-26T08:25:48.999Z</time></trkpt><trkpt lat="43.46226819521371" lon="12.307721344626701"><ele>371.0</ele><time>2026-04-26T08:25:49.999Z</time></trkpt><trkpt lat="43.46236216735285" lon="12.307988155480857"><ele>371.5</ele><time>2026-04-26T08:25:50.999Z</time></trkpt><trkpt lat="43.46246619630587" lon="12.308290093786287"><ele>372.0</ele><time>2026-04-26T08:25:51.999Z</time></trkpt><trkpt lat="43.46258540718911" lon="12.30862084246641"><ele>369.5</ele><time>2026-04-26T08:25:52.999Z</time></trkpt><trkpt lat="43.462683423754584" lon="12.308957878573795"><ele>367.0</ele><time>2026-04-26T08:25:53.999Z</time></trkpt><trkpt lat="43.462763482328" lon="12.30930705740053"><ele>367.0</ele><time>2026-04-26T08:25:54.999Z</time></trkpt><trkpt lat="43.46283031800556" lon="12.30967021220489"><ele>367.0</ele><time>2026-04-26T08:25:55.999Z</time></trkpt><trkpt lat="43.462882014280744" lon="12.31000749199073"><ele>364.3333333333333</ele><time>2026-04-26T08:25:56.999Z</time></trkpt><trkpt lat="43.46289935548636" lon="12.310298621161845"><ele>361.6666666666667</ele><time>2026-04-26T08:25:57.999Z</time></trkpt><trkpt lat="43.46290761147868" lon="12.310508698226862"><ele>359.0</ele><time>2026-04-26T08:25:58.998Z</time></trkpt><trkpt lat="43.46289368077887" lon="12.31068718288394"><ele>359.0</ele><time>2026-04-26T08:25:59.998Z</time></trkpt><trkpt lat="43.46285422581199" lon="12.310860919830684"><ele>359.0</ele><time>2026-04-26T08:26:00.998Z</time></trkpt><trkpt lat="43.462777260226275" lon="12.311050960395919"><ele>359.0</ele><time>2026-04-26T08:26:01.998Z</time></trkpt><trkpt lat="43.46268121149497" lon="12.311201679918298"><ele>359.0</ele><time>2026-04-26T08:26:02.998Z</time></trkpt><trkpt lat="43.462638665386166" lon="12.311365608969636"><ele>360.75</ele><time>2026-04-26T08:26:04Z</time></trkpt><trkpt lat="43.4626240008644" lon="12.311551312935833"><ele>362.5</ele><time>2026-04-26T08:26:05Z</time></trkpt><trkpt lat="43.46263701175376" lon="12.311754877991612"><ele>364.25</ele><time>2026-04-26T08:26:06Z</time></trkpt><trkpt lat="43.46267214175144" lon="12.31196401637079"><ele>366.0</ele><time>2026-04-26T08:26:07Z</time></trkpt><trkpt lat="43.46275012161602" lon="12.312210074632224"><ele>366.5</ele><time>2026-04-26T08:26:08Z</time></trkpt><trkpt lat="43.4628130963468" lon="12.312525248098895"><ele>367.0</ele><time>2026-04-26T08:26:09Z</time></trkpt><trkpt lat="43.46289091789247" lon="12.312862951710711"><ele>380.5</ele><time>2026-04-26T08:26:10Z</time></trkpt><trkpt lat="43.462975487768" lon="12.31323918634969"><ele>394.0</ele><time>2026-04-26T08:26:11Z</time></trkpt><trkpt lat="43.46302958018115" lon="12.313611942277138"><ele>389.5</ele><time>2026-04-26T08:26:12Z</time></trkpt><trkpt lat="43.46305727421838" lon="12.314000656360173"><ele>385.0</ele><time>2026-04-26T08:26:13Z</time></trkpt><trkpt lat="43.46307270174272" lon="12.314373282472543"><ele>385.0</ele><time>2026-04-26T08:26:14Z</time></trkpt><trkpt lat="43.46309418885866" lon="12.31471156500462"><ele>385.0</ele><time>2026-04-26T08:26:15Z</time></trkpt><trkpt lat="43.46312725725431" lon="12.315061237502851"><ele>385.5</ele><time>2026-04-26T08:26:16Z</time></trkpt><trkpt lat="43.46316248725217" lon="12.315410542131596"><ele>386.0</ele><time>2026-04-26T08:26:17Z</time></trkpt><trkpt lat="43.463205518020445" lon="12.315737616686876"><ele>385.0</ele><time>2026-04-26T08:26:18Z</time></trkpt><trkpt lat="43.46323781864786" lon="12.3160270578455"><ele>384.0</ele><time>2026-04-26T08:26:19Z</time></trkpt><trkpt lat="43.463277741843264" lon="12.316285774312801"><ele>383.0</ele><time>2026-04-26T08:26:20Z</time></trkpt><trkpt lat="43.46332067558934" lon="12.31651728344993"><ele>382.0</ele><time>2026-04-26T08:26:21Z</time></trkpt><trkpt lat="43.46336462224986" lon="12.31673617927377"><ele>381.0</ele><time>2026-04-26T08:26:22Z</time></trkpt><trkpt lat="43.463408126259075" lon="12.316932682494699"><ele>380.0</ele><time>2026-04-26T08:26:23Z</time></trkpt><trkpt lat="43.4634711256984" lon="12.317121122755719"><ele>376.6666666666667</ele><time>2026-04-26T08:26:24Z</time></trkpt><trkpt lat="43.46354328864561" lon="12.31731412919852"><ele>373.3333333333333</ele><time>2026-04-26T08:26:25Z</time></trkpt><trkpt lat="43.463637055775386" lon="12.317517994708494"><ele>370.0</ele><time>2026-04-26T08:26:26Z</time></trkpt><trkpt lat="43.46374001321384" lon="12.317743209466418"><ele>370.3333333333333</ele><time>2026-04-26T08:26:27Z</time></trkpt><trkpt lat="43.46383797732586" lon="12.317957393798705"><ele>370.6666666666667</ele><time>2026-04-26T08:26:28Z</time></trkpt><trkpt lat="43.4639142581004" lon="12.31813732461522"><ele>371.0</ele><time>2026-04-26T08:26:29Z</time></trkpt><trkpt lat="43.46398591784228" lon="12.318296221097064"><ele>371.0</ele><time>2026-04-26T08:26:30Z</time></trkpt><trkpt lat="43.46404763950415" lon="12.318451168179594"><ele>371.0</ele><time>2026-04-26T08:26:31Z</time></trkpt><trkpt lat="43.46407558568569" lon="12.318600776431278"><ele>371.0</ele><time>2026-04-26T08:26:32Z</time></trkpt><trkpt lat="43.46408777958309" lon="12.318765841277768"><ele>371.0</ele><time>2026-04-26T08:26:33Z</time></trkpt><trkpt lat="43.464035066786245" lon="12.318939131129675"><ele>373.25</ele><time>2026-04-26T08:26:34Z</time></trkpt><trkpt lat="43.46395888486533" lon="12.319119881593865"><ele>375.5</ele><time>2026-04-26T08:26:35Z</time></trkpt><trkpt lat="43.46389552236121" lon="12.31929571570616"><ele>377.75</ele><time>2026-04-26T08:26:36Z</time></trkpt><trkpt lat="43.463850020882795" lon="12.319467430849208"><ele>380.0</ele><time>2026-04-26T08:26:37Z</time></trkpt><trkpt lat="43.463846380133056" lon="12.319644413860077"><ele>383.0</ele><time>2026-04-26T08:26:38Z</time></trkpt><trkpt lat="43.4638694148822" lon="12.31983051784516"><ele>386.0</ele><time>2026-04-26T08:26:39Z</time></trkpt><trkpt lat="43.46390888366465" lon="12.320022883578655"><ele>389.0</ele><time>2026-04-26T08:26:40Z</time></trkpt><trkpt lat="43.4639712751024" lon="12.32023725709013"><ele>389.0</ele><time>2026-04-26T08:26:41Z</time></trkpt><trkpt lat="43.46403381579992" lon="12.320453671191938"><ele>389.0</ele><time>2026-04-26T08:26:42Z</time></trkpt><trkpt lat="43.464069497643116" lon="12.320696918864268"><ele>389.0</ele><time>2026-04-26T08:26:43Z</time></trkpt><trkpt lat="43.4640861776784" lon="12.320941819936454"><ele>389.0</ele><time>2026-04-26T08:26:44Z</time></trkpt><trkpt lat="43.464088823036185" lon="12.321191818524067"><ele>389.0</ele><time>2026-04-26T08:26:45Z</time></trkpt><trkpt lat="43.464078441535676" lon="12.321446582023915"><ele>389.0</ele><time>2026-04-26T08:26:46Z</time></trkpt><trkpt lat="43.46403538567241" lon="12.321711045954705"><ele>389.66666666666663</ele><time>2026-04-26T08:26:47Z</time></trkpt><trkpt lat="43.464000056700655" lon="12.32194143268508"><ele>390.33333333333337</ele><time>2026-04-26T08:26:48Z</time></trkpt><trkpt lat="43.46399879293809" lon="12.322161645146252"><ele>391.0</ele><time>2026-04-26T08:26:49Z</time></trkpt><trkpt lat="43.4640330434562" lon="12.322388532869992"><ele>389.33333333333337</ele><time>2026-04-26T08:26:50Z</time></trkpt><trkpt lat="43.46409698567827" lon="12.322643474628213"><ele>387.66666666666663</ele><time>2026-04-26T08:26:51Z</time></trkpt><trkpt lat="43.46417603597322" lon="12.322917319952925"><ele>386.0</ele><time>2026-04-26T08:26:52Z</time></trkpt><trkpt lat="43.464263871523634" lon="12.323224382291102"><ele>384.5</ele><time>2026-04-26T08:26:53Z</time></trkpt><trkpt lat="43.464359666672536" lon="12.323571976363349"><ele>383.0</ele><time>2026-04-26T08:26:54Z</time></trkpt><trkpt lat="43.46446605644226" lon="12.323953450836402"><ele>380.0</ele><time>2026-04-26T08:26:54.999Z</time></trkpt><trkpt lat="43.46457743647228" lon="12.324342764995398"><ele>377.0</ele><time>2026-04-26T08:26:55.999Z</time></trkpt><trkpt lat="43.46467859912529" lon="12.324708907372088"><ele>390.0</ele><time>2026-04-26T08:26:56.999Z</time></trkpt><trkpt lat="43.464749677441695" lon="12.325042673059073"><ele>403.0</ele><time>2026-04-26T08:26:57.999Z</time></trkpt><trkpt lat="43.464773019719814" lon="12.325350388198222"><ele>400.6666666666667</ele><time>2026-04-26T08:26:58.999Z</time></trkpt><trkpt lat="43.46477246543748" lon="12.325621419286398"><ele>398.33333333333337</ele><time>2026-04-26T08:26:59.999Z</time></trkpt><trkpt lat="43.46481939659968" lon="12.32583099997456"><ele>396.0</ele><time>2026-04-26T08:27:00.999Z</time></trkpt><trkpt lat="43.464873734155304" lon="12.326023242998398"><ele>396.0</ele><time>2026-04-26T08:27:01.999Z</time></trkpt><trkpt lat="43.46497999835544" lon="12.326207379597811"><ele>396.0</ele><time>2026-04-26T08:27:02.999Z</time></trkpt><trkpt lat="43.46510265338688" lon="12.326431493487233"><ele>396.0</ele><time>2026-04-26T08:27:03.999Z</time></trkpt><trkpt lat="43.46532437935996" lon="12.326633029512045"><ele>400.0</ele><time>2026-04-26T08:27:04.999Z</time></trkpt><trkpt lat="43.46550926870399" lon="12.326917700839878"><ele>404.0</ele><time>2026-04-26T08:27:05.999Z</time></trkpt><trkpt lat="43.46569390885542" lon="12.327202558171718"><ele>398.5</ele><time>2026-04-26T08:27:06.999Z</time></trkpt><trkpt lat="43.46586039854692" lon="12.327514239343575"><ele>393.0</ele><time>2026-04-26T08:27:07.999Z</time></trkpt><trkpt lat="43.46599152404213" lon="12.327798712965425"><ele>393.0</ele><time>2026-04-26T08:27:08.999Z</time></trkpt><trkpt lat="43.466108744707356" lon="12.32804748251475"><ele>393.0</ele><time>2026-04-26T08:27:09.999Z</time></trkpt><trkpt lat="43.46622113274927" lon="12.328272292597344"><ele>393.0</ele><time>2026-04-26T08:27:10.999Z</time></trkpt><trkpt lat="43.46631464636789" lon="12.32849024750807"><ele>395.66666666666663</ele><time>2026-04-26T08:27:11.999Z</time></trkpt><trkpt lat="43.46639185475308" lon="12.328717643678528"><ele>398.3333333333333</ele><time>2026-04-26T08:27:12.999Z</time></trkpt><trkpt lat="43.46644578467783" lon="12.328968395104697"><ele>401.0</ele><time>2026-04-26T08:27:13.999Z</time></trkpt><trkpt lat="43.46648012117296" lon="12.32925072942261"><ele>401.0</ele><time>2026-04-26T08:27:14.999Z</time></trkpt><trkpt lat="43.46649866373879" lon="12.329517451754105"><ele>401.0</ele><time>2026-04-26T08:27:15.999Z</time></trkpt><trkpt lat="43.4665188784557" lon="12.329767331514795"><ele>401.0</ele><time>2026-04-26T08:27:16.999Z</time></trkpt><trkpt lat="43.466511308215644" lon="12.330012718596672"><ele>399.3333333333333</ele><time>2026-04-26T08:27:17.999Z</time></trkpt><trkpt lat="43.466480108981024" lon="12.3302464510765"><ele>397.66666666666663</ele><time>2026-04-26T08:27:18.999Z</time></trkpt><trkpt lat="43.46640753562261" lon="12.33051713723831"><ele>396.0</ele><time>2026-04-26T08:27:19.999Z</time></trkpt><trkpt lat="43.46634421023635" lon="12.330785723871852"><ele>394.33333333333337</ele><time>2026-04-26T08:27:20.999Z</time></trkpt><trkpt lat="43.46629991443548" lon="12.331028794664572"><ele>392.6666666666667</ele><time>2026-04-26T08:27:21.999Z</time></trkpt><trkpt lat="43.46626843023342" lon="12.331242691183872"><ele>391.0</ele><time>2026-04-26T08:27:22.999Z</time></trkpt><trkpt lat="43.46624828582414" lon="12.331432820676856"><ele>389.8</ele><time>2026-04-26T08:27:23.999Z</time></trkpt><trkpt lat="43.46624740011027" lon="12.331583911737857"><ele>388.6</ele><time>2026-04-26T08:27:24.999Z</time></trkpt><trkpt lat="43.466249425534514" lon="12.331723537009069"><ele>387.4</ele><time>2026-04-26T08:27:25.999Z</time></trkpt><trkpt lat="43.46624937573433" lon="12.331862988370553"><ele>386.2</ele><time>2026-04-26T08:27:26.999Z</time></trkpt><trkpt lat="43.46624416221454" lon="12.331982784286742"><ele>385.0</ele><time>2026-04-26T08:27:27.999Z</time></trkpt><trkpt lat="43.46624662180369" lon="12.33212515167448"><ele>385.0</ele><time>2026-04-26T08:27:28.999Z</time></trkpt><trkpt lat="43.46626052513782" lon="12.332272930776304"><ele>385.0</ele><time>2026-04-26T08:27:29.999Z</time></trkpt><trkpt lat="43.46627562128934" lon="12.332409861859551"><ele>385.0</ele><time>2026-04-26T08:27:30.999Z</time></trkpt><trkpt lat="43.46630813178556" lon="12.33255551605301"><ele>385.0</ele><time>2026-04-26T08:27:31.999Z</time></trkpt><trkpt lat="43.46634781239799" lon="12.332701681431818"><ele>385.0</ele><time>2026-04-26T08:27:32.999Z</time></trkpt><trkpt lat="43.46638425028303" lon="12.332860930177555"><ele>385.0</ele><time>2026-04-26T08:27:33.999Z</time></trkpt><trkpt lat="43.46641852807513" lon="12.333027435126446"><ele>385.0</ele><time>2026-04-26T08:27:34.999Z</time></trkpt><trkpt lat="43.466462678032784" lon="12.333200639588146"><ele>385.0</ele><time>2026-04-26T08:27:35.999Z</time></trkpt><trkpt lat="43.46650053863679" lon="12.333388415427832"><ele>385.0</ele><time>2026-04-26T08:27:36.999Z</time></trkpt><trkpt lat="43.46653259388763" lon="12.333590813017151"><ele>386.33333333333337</ele><time>2026-04-26T08:27:37.999Z</time></trkpt><trkpt lat="43.46655291628146" lon="12.333801338528088"><ele>387.66666666666663</ele><time>2026-04-26T08:27:38.999Z</time></trkpt><trkpt lat="43.46653553974117" lon="12.334021342441993"><ele>389.0</ele><time>2026-04-26T08:27:39.999Z</time></trkpt><trkpt lat="43.46647157357898" lon="12.334245901415864"><ele>390.0</ele><time>2026-04-26T08:27:40.999Z</time></trkpt><trkpt lat="43.46635765207612" lon="12.334515615044316"><ele>391.0</ele><time>2026-04-26T08:27:41.999Z</time></trkpt><trkpt lat="43.466230787935956" lon="12.334785650175546"><ele>397.0</ele><time>2026-04-26T08:27:42.999Z</time></trkpt><trkpt lat="43.46612487129983" lon="12.335077490963164"><ele>403.0</ele><time>2026-04-26T08:27:43.999Z</time></trkpt><trkpt lat="43.46602564475718" lon="12.335381359484291"><ele>401.5</ele><time>2026-04-26T08:27:44.999Z</time></trkpt><trkpt lat="43.46593798485627" lon="12.335691080702826"><ele>400.0</ele><time>2026-04-26T08:27:45.999Z</time></trkpt><trkpt lat="43.46586270249205" lon="12.336017276559188"><ele>400.0</ele><time>2026-04-26T08:27:46.999Z</time></trkpt><trkpt lat="43.465809216832916" lon="12.336360162040506"><ele>400.0</ele><time>2026-04-26T08:27:47.999Z</time></trkpt><trkpt lat="43.46578503831864" lon="12.336662189249253"><ele>401.6666666666667</ele><time>2026-04-26T08:27:48.999Z</time></trkpt><trkpt lat="43.465786387296056" lon="12.336930405590124"><ele>403.33333333333337</ele><time>2026-04-26T08:27:49.999Z</time></trkpt><trkpt lat="43.465776908385074" lon="12.337170520689053"><ele>405.0</ele><time>2026-04-26T08:27:50.999Z</time></trkpt><trkpt lat="43.46573907713875" lon="12.33733332411317"><ele>405.75</ele><time>2026-04-26T08:27:51.999Z</time></trkpt><trkpt lat="43.46566692815598" lon="12.337433050205663"><ele>406.5</ele><time>2026-04-26T08:27:52.999Z</time></trkpt><trkpt lat="43.465546375555626" lon="12.337552729735227"><ele>407.25</ele><time>2026-04-26T08:27:53.999Z</time></trkpt><trkpt lat="43.465437209574" lon="12.337698221260226"><ele>408.0</ele><time>2026-04-26T08:27:54.999Z</time></trkpt><trkpt lat="43.46526352362626" lon="12.337890925331767"><ele>416.0</ele><time>2026-04-26T08:27:55.999Z</time></trkpt><trkpt lat="43.46499581894945" lon="12.338088849893534"><ele>424.0</ele><time>2026-04-26T08:27:56.999Z</time></trkpt><trkpt lat="43.46478033544938" lon="12.338307424041892"><ele>424.0</ele><time>2026-04-26T08:27:57.999Z</time></trkpt><trkpt lat="43.46461308307312" lon="12.338533606454627"><ele>424.0</ele><time>2026-04-26T08:27:58.999Z</time></trkpt><trkpt lat="43.46445988065606" lon="12.33878157174746"><ele>419.5</ele><time>2026-04-26T08:27:59.999Z</time></trkpt><trkpt lat="43.464299368973435" lon="12.339064089780512"><ele>415.0</ele><time>2026-04-26T08:28:00.999Z</time></trkpt><trkpt lat="43.464164814421416" lon="12.33943276147888"><ele>423.5</ele><time>2026-04-26T08:28:01.999Z</time></trkpt><trkpt lat="43.46400222854859" lon="12.339760221017867"><ele>432.0</ele><time>2026-04-26T08:28:02.999Z</time></trkpt><trkpt lat="43.46385226702258" lon="12.340025907022314"><ele>428.33333333333337</ele><time>2026-04-26T08:28:03.999Z</time></trkpt><trkpt lat="43.463722146289065" lon="12.340251217067243"><ele>424.6666666666667</ele><time>2026-04-26T08:28:04.999Z</time></trkpt><trkpt lat="43.46360430065013" lon="12.340453019196229"><ele>421.0</ele><time>2026-04-26T08:28:05.999Z</time></trkpt><trkpt lat="43.463545080280745" lon="12.340659570550919"><ele>421.0</ele><time>2026-04-26T08:28:06.999Z</time></trkpt><trkpt lat="43.463514438699846" lon="12.340837103666674"><ele>421.0</ele><time>2026-04-26T08:28:07.999Z</time></trkpt><trkpt lat="43.46351031332475" lon="12.341052875100646"><ele>421.0</ele><time>2026-04-26T08:28:08.999Z</time></trkpt><trkpt lat="43.46351329264805" lon="12.341327337679573"><ele>421.0</ele><time>2026-04-26T08:28:10Z</time></trkpt><trkpt lat="43.463526526324976" lon="12.341641618350751"><ele>421.0</ele><time>2026-04-26T08:28:11Z</time></trkpt><trkpt lat="43.463551645597455" lon="12.341938689928586"><ele>421.0</ele><time>2026-04-26T08:28:12Z</time></trkpt><trkpt lat="43.46358977662357" lon="12.342186541449037"><ele>421.33333333333337</ele><time>2026-04-26T08:28:13Z</time></trkpt><trkpt lat="43.463634316182386" lon="12.342432804735296"><ele>421.66666666666663</ele><time>2026-04-26T08:28:14Z</time></trkpt><trkpt lat="43.46362295555911" lon="12.342638341642825"><ele>422.0</ele><time>2026-04-26T08:28:15Z</time></trkpt><trkpt lat="43.463543458943846" lon="12.342830886548091"><ele>422.0</ele><time>2026-04-26T08:28:16Z</time></trkpt><trkpt lat="43.46341278498954" lon="12.343043099017397"><ele>422.0</ele><time>2026-04-26T08:28:17Z</time></trkpt><trkpt lat="43.46330010001019" lon="12.343279879244504"><ele>422.0</ele><time>2026-04-26T08:28:18Z</time></trkpt><trkpt lat="43.463188836278576" lon="12.343521880117233"><ele>424.0</ele><time>2026-04-26T08:28:19Z</time></trkpt><trkpt lat="43.46308628107654" lon="12.343734201965338"><ele>426.0</ele><time>2026-04-26T08:28:20Z</time></trkpt><trkpt lat="43.46297772663804" lon="12.343947953626365"><ele>428.0</ele><time>2026-04-26T08:28:21Z</time></trkpt><trkpt lat="43.46285914075847" lon="12.344164115680194"><ele>428.0</ele><time>2026-04-26T08:28:22Z</time></trkpt><trkpt lat="43.46274413525103" lon="12.344361664444465"><ele>428.0</ele><time>2026-04-26T08:28:23Z</time></trkpt><trkpt lat="43.46261623289806" lon="12.344557645978167"><ele>428.0</ele><time>2026-04-26T08:28:24Z</time></trkpt><trkpt lat="43.46248902519349" lon="12.344751055460089"><ele>434.3333333333333</ele><time>2026-04-26T08:28:25Z</time></trkpt><trkpt lat="43.46236189914949" lon="12.344909961715826"><ele>440.66666666666663</ele><time>2026-04-26T08:28:26Z</time></trkpt><trkpt lat="43.46225171308076" lon="12.345047006983137"><ele>447.0</ele><time>2026-04-26T08:28:27Z</time></trkpt><trkpt lat="43.46215368177773" lon="12.345167975408513"><ele>446.0</ele><time>2026-04-26T08:28:28Z</time></trkpt><trkpt lat="43.46208365986599" lon="12.345284803101366"><ele>445.00000000000006</ele><time>2026-04-26T08:28:29Z</time></trkpt><trkpt lat="43.4620363179171" lon="12.34540400012661"><ele>444.00000000000006</ele><time>2026-04-26T08:28:30Z</time></trkpt><trkpt lat="43.46204173747027" lon="12.345510969757227"><ele>443.0</ele><time>2026-04-26T08:28:31Z</time></trkpt><trkpt lat="43.46206210175671" lon="12.34563959103239"><ele>442.0</ele><time>2026-04-26T08:28:32Z</time></trkpt><trkpt lat="43.46210160686392" lon="12.345775393987147"><ele>445.25</ele><time>2026-04-26T08:28:33Z</time></trkpt><trkpt lat="43.46216234306429" lon="12.345914374194784"><ele>448.5</ele><time>2026-04-26T08:28:34Z</time></trkpt><trkpt lat="43.462242997721184" lon="12.346072537109077"><ele>451.75</ele><time>2026-04-26T08:28:35Z</time></trkpt><trkpt lat="43.462334170388736" lon="12.346226431216632"><ele>455.0</ele><time>2026-04-26T08:28:36Z</time></trkpt><trkpt lat="43.46242957185617" lon="12.3463591372675"><ele>453.75</ele><time>2026-04-26T08:28:37Z</time></trkpt><trkpt lat="43.46249839739369" lon="12.346473145745946"><ele>452.5</ele><time>2026-04-26T08:28:38Z</time></trkpt><trkpt lat="43.46254856788315" lon="12.346616808832884"><ele>451.25</ele><time>2026-04-26T08:28:39Z</time></trkpt><trkpt lat="43.46259290016429" lon="12.346781769773324"><ele>450.0</ele><time>2026-04-26T08:28:40Z</time></trkpt><trkpt lat="43.462629099424674" lon="12.346957257035797"><ele>450.0</ele><time>2026-04-26T08:28:41Z</time></trkpt><trkpt lat="43.46267346986431" lon="12.347111789163021"><ele>450.0</ele><time>2026-04-26T08:28:42Z</time></trkpt><trkpt lat="43.462735583725205" lon="12.347246988941"><ele>450.0</ele><time>2026-04-26T08:28:43Z</time></trkpt><trkpt lat="43.4628068408395" lon="12.3473731811459"><ele>450.0</ele><time>2026-04-26T08:28:44Z</time></trkpt><trkpt lat="43.46289004358533" lon="12.347538954056223"><ele>452.66666666666663</ele><time>2026-04-26T08:28:45Z</time></trkpt><trkpt lat="43.462988971080556" lon="12.34770801112658"><ele>455.3333333333333</ele><time>2026-04-26T08:28:46Z</time></trkpt><trkpt lat="43.46308918087779" lon="12.347893093891079"><ele>458.0</ele><time>2026-04-26T08:28:47Z</time></trkpt><trkpt lat="43.46317451648518" lon="12.348075675387793"><ele>458.0</ele><time>2026-04-26T08:28:48Z</time></trkpt><trkpt lat="43.46322031161452" lon="12.34824588425653"><ele>458.0</ele><time>2026-04-26T08:28:49Z</time></trkpt><trkpt lat="43.46322494849186" lon="12.348410317471002"><ele>458.0</ele><time>2026-04-26T08:28:50Z</time></trkpt><trkpt lat="43.463186833445555" lon="12.348587689040048"><ele>458.0</ele><time>2026-04-26T08:28:51Z</time></trkpt><trkpt lat="43.463130596651055" lon="12.348763655287591"><ele>460.0</ele><time>2026-04-26T08:28:52Z</time></trkpt><trkpt lat="43.46308327693507" lon="12.348981217650817"><ele>462.0</ele><time>2026-04-26T08:28:53Z</time></trkpt><trkpt lat="43.463086942698325" lon="12.349204748065489"><ele>464.0</ele><time>2026-04-26T08:28:54Z</time></trkpt><trkpt lat="43.463112860228236" lon="12.34942217585744"><ele>464.0</ele><time>2026-04-26T08:28:55Z</time></trkpt><trkpt lat="43.463158364427166" lon="12.349638850792445"><ele>464.0</ele><time>2026-04-26T08:28:56Z</time></trkpt><trkpt lat="43.46320785742781" lon="12.349841362979802"><ele>464.0</ele><time>2026-04-26T08:28:57Z</time></trkpt><trkpt lat="43.46325494518441" lon="12.350029183830818"><ele>463.5</ele><time>2026-04-26T08:28:58Z</time></trkpt><trkpt lat="43.46330453676265" lon="12.350218877341076"><ele>463.0</ele><time>2026-04-26T08:28:59Z</time></trkpt><trkpt lat="43.46334322172342" lon="12.3504231455694"><ele>462.5</ele><time>2026-04-26T08:29:00Z</time></trkpt><trkpt lat="43.46336110411972" lon="12.35062811528456"><ele>462.0</ele><time>2026-04-26T08:29:01Z</time></trkpt><trkpt lat="43.46335954559968" lon="12.350817258675754"><ele>462.25</ele><time>2026-04-26T08:29:01.999Z</time></trkpt><trkpt lat="43.46333308263305" lon="12.35100052903435"><ele>462.5</ele><time>2026-04-26T08:29:02.999Z</time></trkpt><trkpt lat="43.46329553809756" lon="12.351185416878417"><ele>462.75</ele><time>2026-04-26T08:29:03.999Z</time></trkpt><trkpt lat="43.463277813945204" lon="12.351371106041283"><ele>463.0</ele><time>2026-04-26T08:29:04.999Z</time></trkpt><trkpt lat="43.463283812057625" lon="12.351523944921876"><ele>463.0</ele><time>2026-04-26T08:29:05.999Z</time></trkpt><trkpt lat="43.46331541488346" lon="12.351654945541743"><ele>463.0</ele><time>2026-04-26T08:29:06.999Z</time></trkpt><trkpt lat="43.46337564054304" lon="12.351765809428837"><ele>463.0</ele><time>2026-04-26T08:29:07.999Z</time></trkpt><trkpt lat="43.46353095664263" lon="12.351831804516486"><ele>463.0</ele><time>2026-04-26T08:29:08.999Z</time></trkpt><trkpt lat="43.46372987939334" lon="12.35188285993964"><ele>465.6666666666667</ele><time>2026-04-26T08:29:09.999Z</time></trkpt><trkpt lat="43.463931693974516" lon="12.35196990406551"><ele>468.33333333333337</ele><time>2026-04-26T08:29:10.999Z</time></trkpt><trkpt lat="43.46414298655733" lon="12.35207363570843"><ele>471.0</ele><time>2026-04-26T08:29:11.999Z</time></trkpt><trkpt lat="43.46436067539368" lon="12.35219178886613"><ele>478.5</ele><time>2026-04-26T08:29:12.999Z</time></trkpt><trkpt lat="43.46455835781696" lon="12.35234131541383"><ele>486.0</ele><time>2026-04-26T08:29:13.999Z</time></trkpt><trkpt lat="43.46477020333504" lon="12.35249590396545"><ele>488.5</ele><time>2026-04-26T08:29:14.999Z</time></trkpt><trkpt lat="43.46498268312843" lon="12.352669264839843"><ele>491.0</ele><time>2026-04-26T08:29:15.999Z</time></trkpt><trkpt lat="43.46519707189155" lon="12.352826524382829"><ele>491.0</ele><time>2026-04-26T08:29:16.999Z</time></trkpt><trkpt lat="43.4654270309941" lon="12.352985059309338"><ele>491.0</ele><time>2026-04-26T08:29:17.999Z</time></trkpt><trkpt lat="43.46564563365695" lon="12.353132382287452"><ele>492.66666666666663</ele><time>2026-04-26T08:29:18.999Z</time></trkpt><trkpt lat="43.46583490580825" lon="12.353249010564396"><ele>494.33333333333337</ele><time>2026-04-26T08:29:19.999Z</time></trkpt><trkpt lat="43.46600571151028" lon="12.35336962117206"><ele>496.0</ele><time>2026-04-26T08:29:20.999Z</time></trkpt><trkpt lat="43.46615174109762" lon="12.353469183308109"><ele>497.25</ele><time>2026-04-26T08:29:21.999Z</time></trkpt><trkpt lat="43.466288681870516" lon="12.353613705161056"><ele>498.5</ele><time>2026-04-26T08:29:22.999Z</time></trkpt><trkpt lat="43.466393056307076" lon="12.353733043604654"><ele>499.75</ele><time>2026-04-26T08:29:23.999Z</time></trkpt><trkpt lat="43.46646063220548" lon="12.353833688377021"><ele>501.0</ele><time>2026-04-26T08:29:24.999Z</time></trkpt><trkpt lat="43.46649080061193" lon="12.353922916450934"><ele>502.25</ele><time>2026-04-26T08:29:25.999Z</time></trkpt><trkpt lat="43.46645024753847" lon="12.354012616661972"><ele>503.5</ele><time>2026-04-26T08:29:26.999Z</time></trkpt><trkpt lat="43.466334384836415" lon="12.354078762143619"><ele>504.75</ele><time>2026-04-26T08:29:27.999Z</time></trkpt><trkpt lat="43.466206488925096" lon="12.354061017063634"><ele>506.0</ele><time>2026-04-26T08:29:28.999Z</time></trkpt><trkpt lat="43.466078330975954" lon="12.353967798005627"><ele>503.5</ele><time>2026-04-26T08:29:29.999Z</time></trkpt><trkpt lat="43.46596014084309" lon="12.35383946738551"><ele>501.0</ele><time>2026-04-26T08:29:30.999Z</time></trkpt><trkpt lat="43.46583371598719" lon="12.353801757700579"><ele>498.5</ele><time>2026-04-26T08:29:31.999Z</time></trkpt><trkpt lat="43.46567463493986" lon="12.353807584134042"><ele>496.0</ele><time>2026-04-26T08:29:32.999Z</time></trkpt><trkpt lat="43.465515713740224" lon="12.353794451108117"><ele>500.6</ele><time>2026-04-26T08:29:33.999Z</time></trkpt><trkpt lat="43.46537970746474" lon="12.353727949050992"><ele>505.20000000000005</ele><time>2026-04-26T08:29:34.999Z</time></trkpt><trkpt lat="43.46527762951937" lon="12.353618774402404"><ele>509.79999999999995</ele><time>2026-04-26T08:29:35.999Z</time></trkpt><trkpt lat="43.465188972331795" lon="12.353542380364066"><ele>514.4</ele><time>2026-04-26T08:29:36.999Z</time></trkpt><trkpt lat="43.46511790480046" lon="12.353546242174161"><ele>519.0</ele><time>2026-04-26T08:29:37.999Z</time></trkpt><trkpt lat="43.46509531100435" lon="12.353716217027646"><ele>519.0</ele><time>2026-04-26T08:29:39.999Z</time></trkpt><trkpt lat="43.465124885484556" lon="12.353842931072407"><ele>519.0</ele><time>2026-04-26T08:29:40.999Z</time></trkpt><trkpt lat="43.46515127909459" lon="12.353978936288554"><ele>519.0</ele><time>2026-04-26T08:29:41.999Z</time></trkpt><trkpt lat="43.46519673144225" lon="12.35411213784208"><ele>519.0</ele><time>2026-04-26T08:29:42.999Z</time></trkpt><trkpt lat="43.46527050543466" lon="12.354265183971723"><ele>519.0</ele><time>2026-04-26T08:29:43.999Z</time></trkpt><trkpt lat="43.46534657736532" lon="12.35441179410133"><ele>521.0</ele><time>2026-04-26T08:29:44.999Z</time></trkpt><trkpt lat="43.46541961044054" lon="12.354567203272854"><ele>523.0</ele><time>2026-04-26T08:29:45.999Z</time></trkpt><trkpt lat="43.465496629845944" lon="12.3547234241651"><ele>525.0</ele><time>2026-04-26T08:29:46.999Z</time></trkpt><trkpt lat="43.465572522964784" lon="12.354878981318103"><ele>527.0</ele><time>2026-04-26T08:29:47.999Z</time></trkpt><trkpt lat="43.465647271286635" lon="12.355028893159307"><ele>527.0</ele><time>2026-04-26T08:29:48.999Z</time></trkpt><trkpt lat="43.46571518268722" lon="12.35515617919636"><ele>527.0</ele><time>2026-04-26T08:29:49.999Z</time></trkpt><trkpt lat="43.46578223167493" lon="12.355247481938008"><ele>527.0</ele><time>2026-04-26T08:29:50.999Z</time></trkpt><trkpt lat="43.465866716239" lon="12.355335914066435"><ele>527.0</ele><time>2026-04-26T08:29:51.999Z</time></trkpt><trkpt lat="43.46596636705927" lon="12.355425487712584"><ele>527.0</ele><time>2026-04-26T08:29:52.999Z</time></trkpt><trkpt lat="43.466068533459385" lon="12.355524585065845"><ele>529.8000000000001</ele><time>2026-04-26T08:29:53.999Z</time></trkpt><trkpt lat="43.46613751862203" lon="12.355637684900714"><ele>532.6</ele><time>2026-04-26T08:29:54.999Z</time></trkpt><trkpt lat="43.46615818344504" lon="12.355751368589287"><ele>535.4000000000001</ele><time>2026-04-26T08:29:55.999Z</time></trkpt><trkpt lat="43.46615879349696" lon="12.355891320183396"><ele>538.2</ele><time>2026-04-26T08:29:56.999Z</time></trkpt><trkpt lat="43.46609657474355" lon="12.35604573748175"><ele>541.0</ele><time>2026-04-26T08:29:57.999Z</time></trkpt><trkpt lat="43.465998185416844" lon="12.356157997630179"><ele>541.0</ele><time>2026-04-26T08:29:58.999Z</time></trkpt><trkpt lat="43.46587782126072" lon="12.356206635031928"><ele>541.0</ele><time>2026-04-26T08:29:59.999Z</time></trkpt><trkpt lat="43.465720195675374" lon="12.356173691785907"><ele>541.0</ele><time>2026-04-26T08:30:00.999Z</time></trkpt><trkpt lat="43.465558679915716" lon="12.356097874900176"><ele>546.3333333333334</ele><time>2026-04-26T08:30:01.999Z</time></trkpt><trkpt lat="43.46537672707353" lon="12.355981897412777"><ele>551.6666666666666</ele><time>2026-04-26T08:30:02.999Z</time></trkpt><trkpt lat="43.46519598160625" lon="12.355870456584512"><ele>557.0</ele><time>2026-04-26T08:30:03.999Z</time></trkpt><trkpt lat="43.46503141062212" lon="12.35575284171365"><ele>557.0</ele><time>2026-04-26T08:30:04.999Z</time></trkpt><trkpt lat="43.46494409925963" lon="12.355597007925429"><ele>557.0</ele><time>2026-04-26T08:30:05.999Z</time></trkpt><trkpt lat="43.46489304573787" lon="12.35542495917776"><ele>557.0</ele><time>2026-04-26T08:30:06.999Z</time></trkpt><trkpt lat="43.46487480030583" lon="12.355275659538515"><ele>557.0</ele><time>2026-04-26T08:30:07.999Z</time></trkpt><trkpt lat="43.46483505516804" lon="12.355186823799034"><ele>555.6</ele><time>2026-04-26T08:30:08.999Z</time></trkpt><trkpt lat="43.4647561849679" lon="12.355143867222779"><ele>554.2</ele><time>2026-04-26T08:30:09.999Z</time></trkpt><trkpt lat="43.464659828241196" lon="12.35521483470835"><ele>552.8</ele><time>2026-04-26T08:30:10.999Z</time></trkpt><trkpt lat="43.46458169061785" lon="12.355295572015146"><ele>551.4</ele><time>2026-04-26T08:30:11.999Z</time></trkpt><trkpt lat="43.46452631188334" lon="12.35538816812804"><ele>550.0</ele><time>2026-04-26T08:30:12.999Z</time></trkpt><trkpt lat="43.46451004079347" lon="12.35551201842822"><ele>549.0</ele><time>2026-04-26T08:30:13.999Z</time></trkpt><trkpt lat="43.46453331708973" lon="12.355673226891913"><ele>548.0</ele><time>2026-04-26T08:30:14.999Z</time></trkpt><trkpt lat="43.464577339883014" lon="12.355855918718868"><ele>547.0</ele><time>2026-04-26T08:30:16Z</time></trkpt><trkpt lat="43.46461385146309" lon="12.356088044190628"><ele>546.0</ele><time>2026-04-26T08:30:17Z</time></trkpt><trkpt lat="43.464627334483744" lon="12.356334446487946"><ele>549.3333333333334</ele><time>2026-04-26T08:30:18Z</time></trkpt><trkpt lat="43.46460463001624" lon="12.356581360710736"><ele>552.6666666666667</ele><time>2026-04-26T08:30:19Z</time></trkpt><trkpt lat="43.46458534383882" lon="12.356780291316412"><ele>556.0</ele><time>2026-04-26T08:30:20Z</time></trkpt><trkpt lat="43.46461319351074" lon="12.356976813269304"><ele>560.0</ele><time>2026-04-26T08:30:21Z</time></trkpt><trkpt lat="43.46468302507467" lon="12.357181501313997"><ele>564.0</ele><time>2026-04-26T08:30:22Z</time></trkpt><trkpt lat="43.46480709511272" lon="12.357377135822812"><ele>568.0</ele><time>2026-04-26T08:30:23Z</time></trkpt><trkpt lat="43.46497311835911" lon="12.357560728738184"><ele>573.6666666666667</ele><time>2026-04-26T08:30:24Z</time></trkpt><trkpt lat="43.465135038329294" lon="12.357762819243113"><ele>579.3333333333334</ele><time>2026-04-26T08:30:25Z</time></trkpt><trkpt lat="43.46526965847781" lon="12.357964726487106"><ele>585.0</ele><time>2026-04-26T08:30:26Z</time></trkpt><trkpt lat="43.46533420032393" lon="12.358121603991602"><ele>588.2</ele><time>2026-04-26T08:30:27Z</time></trkpt><trkpt lat="43.465349899149246" lon="12.35826346999204"><ele>591.4</ele><time>2026-04-26T08:30:28Z</time></trkpt><trkpt lat="43.46532507239943" lon="12.358361002063798"><ele>594.6</ele><time>2026-04-26T08:30:29Z</time></trkpt><trkpt lat="43.465220144068944" lon="12.358429436466375"><ele>597.8</ele><time>2026-04-26T08:30:31Z</time></trkpt><trkpt lat="43.4651217775828" lon="12.358411821140935"><ele>601.0</ele><time>2026-04-26T08:30:32Z</time></trkpt><trkpt lat="43.46501541122084" lon="12.358365092983453"><ele>601.0</ele><time>2026-04-26T08:30:33Z</time></trkpt><trkpt lat="43.46492909893715" lon="12.358339636466317"><ele>601.0</ele><time>2026-04-26T08:30:34Z</time></trkpt><trkpt lat="43.46486858336353" lon="12.35836677483634"><ele>601.0</ele><time>2026-04-26T08:30:35Z</time></trkpt><trkpt lat="43.46483969215574" lon="12.358470643967514"><ele>601.0</ele><time>2026-04-26T08:30:36Z</time></trkpt><trkpt lat="43.46480521754334" lon="12.35857677982971"><ele>601.0</ele><time>2026-04-26T08:30:37Z</time></trkpt><trkpt lat="43.46477357178089" lon="12.358735380304548"><ele>601.0</ele><time>2026-04-26T08:30:38Z</time></trkpt><trkpt lat="43.46472130604792" lon="12.3588872749746"><ele>604.0</ele><time>2026-04-26T08:30:39Z</time></trkpt><trkpt lat="43.464693544576626" lon="12.359044365280285"><ele>607.0</ele><time>2026-04-26T08:30:40Z</time></trkpt><trkpt lat="43.4647113015729" lon="12.35918045421681"><ele>610.0</ele><time>2026-04-26T08:30:41Z</time></trkpt><trkpt lat="43.464731463096115" lon="12.359297334625987"><ele>613.0</ele><time>2026-04-26T08:30:42Z</time></trkpt><trkpt lat="43.46478741484795" lon="12.359415379093328"><ele>616.0</ele><time>2026-04-26T08:30:43Z</time></trkpt><trkpt lat="43.46484807615613" lon="12.359533031194575"><ele>616.0</ele><time>2026-04-26T08:30:44Z</time></trkpt><trkpt lat="43.46490101217826" lon="12.359668226760897"><ele>616.0</ele><time>2026-04-26T08:30:45Z</time></trkpt><trkpt lat="43.46496447574251" lon="12.359818260468202"><ele>616.0</ele><time>2026-04-26T08:30:46Z</time></trkpt><trkpt lat="43.46503056080353" lon="12.359979950923611"><ele>616.0</ele><time>2026-04-26T08:30:47Z</time></trkpt><trkpt lat="43.46509297061789" lon="12.360143196402117"><ele>616.5</ele><time>2026-04-26T08:30:48Z</time></trkpt><trkpt lat="43.46513573042768" lon="12.360304088907407"><ele>617.0</ele><time>2026-04-26T08:30:49Z</time></trkpt><trkpt lat="43.46515801885354" lon="12.36045903983926"><ele>617.5</ele><time>2026-04-26T08:30:50Z</time></trkpt><trkpt lat="43.465150850245124" lon="12.360617348656657"><ele>618.0</ele><time>2026-04-26T08:30:51Z</time></trkpt><trkpt lat="43.46514081384077" lon="12.360789911472457"><ele>619.6</ele><time>2026-04-26T08:30:52Z</time></trkpt><trkpt lat="43.46512125601697" lon="12.360952353349008"><ele>621.1999999999999</ele><time>2026-04-26T08:30:53Z</time></trkpt><trkpt lat="43.46511147920983" lon="12.361103378731842"><ele>622.8</ele><time>2026-04-26T08:30:54Z</time></trkpt><trkpt lat="43.46505703517475" lon="12.36119931594173"><ele>624.4</ele><time>2026-04-26T08:30:55Z</time></trkpt><trkpt lat="43.46496778514404" lon="12.361259707572422"><ele>626.0</ele><time>2026-04-26T08:30:56Z</time></trkpt><trkpt lat="43.46485572117951" lon="12.361230589457486"><ele>626.0</ele><time>2026-04-26T08:30:57Z</time></trkpt><trkpt lat="43.464759299879844" lon="12.361247871102677"><ele>626.0</ele><time>2026-04-26T08:30:58Z</time></trkpt><trkpt lat="43.46465680473589" lon="12.361286210341234"><ele>626.0</ele><time>2026-04-26T08:30:59Z</time></trkpt><trkpt lat="43.46454343417086" lon="12.361301068233335"><ele>626.0</ele><time>2026-04-26T08:31:00Z</time></trkpt><trkpt lat="43.46445818653094" lon="12.361340119820385"><ele>626.0</ele><time>2026-04-26T08:31:01Z</time></trkpt><trkpt lat="43.46440141271839" lon="12.361418116035287"><ele>626.2</ele><time>2026-04-26T08:31:02Z</time></trkpt><trkpt lat="43.46437683095267" lon="12.361535833939437"><ele>626.4000000000001</ele><time>2026-04-26T08:31:03Z</time></trkpt><trkpt lat="43.464395134040565" lon="12.361659357519134"><ele>626.6</ele><time>2026-04-26T08:31:04Z</time></trkpt><trkpt lat="43.46443507961817" lon="12.361786152835041"><ele>626.8000000000001</ele><time>2026-04-26T08:31:05Z</time></trkpt><trkpt lat="43.46448944205993" lon="12.3619364019252"><ele>627.0</ele><time>2026-04-26T08:31:06Z</time></trkpt><trkpt lat="43.46455862220623" lon="12.362106999486533"><ele>632.0</ele><time>2026-04-26T08:31:06.999Z</time></trkpt><trkpt lat="43.46462350051345" lon="12.362307565749411"><ele>637.0</ele><time>2026-04-26T08:31:07.999Z</time></trkpt><trkpt lat="43.46469567201244" lon="12.362538458547194"><ele>642.0</ele><time>2026-04-26T08:31:08.999Z</time></trkpt><trkpt lat="43.46473568699326" lon="12.362812208025014"><ele>646.5</ele><time>2026-04-26T08:31:09.999Z</time></trkpt><trkpt lat="43.464789725421085" lon="12.363110477785764"><ele>651.0</ele><time>2026-04-26T08:31:10.999Z</time></trkpt><trkpt lat="43.46484179043798" lon="12.363437093436472"><ele>651.0</ele><time>2026-04-26T08:31:11.999Z</time></trkpt><trkpt lat="43.464884028752046" lon="12.363768661597101"><ele>651.0</ele><time>2026-04-26T08:31:12.999Z</time></trkpt><trkpt lat="43.46490738855945" lon="12.364090855413309"><ele>655.0</ele><time>2026-04-26T08:31:13.999Z</time></trkpt><trkpt lat="43.46491573646199" lon="12.364414745077179"><ele>659.0</ele><time>2026-04-26T08:31:14.999Z</time></trkpt><trkpt lat="43.46492991254273" lon="12.364725606746715"><ele>662.3333333333333</ele><time>2026-04-26T08:31:15.999Z</time></trkpt><trkpt lat="43.46492024163592" lon="12.36498458081497"><ele>665.6666666666666</ele><time>2026-04-26T08:31:16.999Z</time></trkpt><trkpt lat="43.46492191532352" lon="12.36521057215174"><ele>669.0</ele><time>2026-04-26T08:31:17.999Z</time></trkpt><trkpt lat="43.46495290374862" lon="12.365406569099104"><ele>668.3333333333334</ele><time>2026-04-26T08:31:18.999Z</time></trkpt><trkpt lat="43.4650151844077" lon="12.365575315776347"><ele>667.6666666666667</ele><time>2026-04-26T08:31:19.999Z</time></trkpt><trkpt lat="43.465106578379334" lon="12.365724614057472"><ele>667.0</ele><time>2026-04-26T08:31:20.999Z</time></trkpt><trkpt lat="43.46523916852109" lon="12.36588253711194"><ele>667.0</ele><time>2026-04-26T08:31:21.999Z</time></trkpt><trkpt lat="43.46540887491722" lon="12.366012207394999"><ele>667.0</ele><time>2026-04-26T08:31:22.999Z</time></trkpt><trkpt lat="43.465623858895576" lon="12.366081034686667"><ele>667.0</ele><time>2026-04-26T08:31:23.999Z</time></trkpt><trkpt lat="43.46581717510624" lon="12.366107395392548"><ele>671.75</ele><time>2026-04-26T08:31:24.999Z</time></trkpt><trkpt lat="43.46596713464923" lon="12.366155063095567"><ele>676.5</ele><time>2026-04-26T08:31:25.999Z</time></trkpt><trkpt lat="43.46607738387819" lon="12.366237721621982"><ele>681.25</ele><time>2026-04-26T08:31:26.999Z</time></trkpt><trkpt lat="43.46612985905208" lon="12.366377810685691"><ele>686.0</ele><time>2026-04-26T08:31:27.999Z</time></trkpt><trkpt lat="43.46608389207357" lon="12.366565220676812"><ele>686.3333333333333</ele><time>2026-04-26T08:31:28.999Z</time></trkpt><trkpt lat="43.46608278294096" lon="12.366808934165638"><ele>686.6666666666666</ele><time>2026-04-26T08:31:29.999Z</time></trkpt><trkpt lat="43.466101412403646" lon="12.367063403473864"><ele>687.0</ele><time>2026-04-26T08:31:30.999Z</time></trkpt><trkpt lat="43.466130450641884" lon="12.36731174201419"><ele>688.0</ele><time>2026-04-26T08:31:31.999Z</time></trkpt><trkpt lat="43.46617256372116" lon="12.367575880195437"><ele>689.0</ele><time>2026-04-26T08:31:32.999Z</time></trkpt><trkpt lat="43.46620497123471" lon="12.367823274047346"><ele>690.0</ele><time>2026-04-26T08:31:33.999Z</time></trkpt><trkpt lat="43.46623238059821" lon="12.368027743726671"><ele>693.5</ele><time>2026-04-26T08:31:34.999Z</time></trkpt><trkpt lat="43.466284430334944" lon="12.368200757796908"><ele>697.0</ele><time>2026-04-26T08:31:35.999Z</time></trkpt><trkpt lat="43.466319938945446" lon="12.368395049353417"><ele>700.5</ele><time>2026-04-26T08:31:36.999Z</time></trkpt><trkpt lat="43.46637853654319" lon="12.368564536137796"><ele>704.0</ele><time>2026-04-26T08:31:37.999Z</time></trkpt><trkpt lat="43.466459517657675" lon="12.368734575572267"><ele>704.3333333333333</ele><time>2026-04-26T08:31:38.999Z</time></trkpt><trkpt lat="43.46655855733944" lon="12.368905235253454"><ele>704.6666666666666</ele><time>2026-04-26T08:31:39.999Z</time></trkpt><trkpt lat="43.4666607107341" lon="12.36907291307882"><ele>705.0</ele><time>2026-04-26T08:31:40.999Z</time></trkpt><trkpt lat="43.46676323405067" lon="12.369239146701796"><ele>705.0</ele><time>2026-04-26T08:31:41.999Z</time></trkpt><trkpt lat="43.466831240197216" lon="12.36939545945665"><ele>705.0</ele><time>2026-04-26T08:31:42.999Z</time></trkpt><trkpt lat="43.466885122331945" lon="12.36957484513048"><ele>705.0</ele><time>2026-04-26T08:31:43.999Z</time></trkpt><trkpt lat="43.466888147577635" lon="12.36976994423259"><ele>705.0</ele><time>2026-04-26T08:31:44.999Z</time></trkpt><trkpt lat="43.46691218146885" lon="12.36996660728051"><ele>705.0</ele><time>2026-04-26T08:31:45.999Z</time></trkpt><trkpt lat="43.466900213039324" lon="12.370176590490868"><ele>705.0</ele><time>2026-04-26T08:31:46.999Z</time></trkpt><trkpt lat="43.466874184218035" lon="12.370388687584192"><ele>705.0</ele><time>2026-04-26T08:31:47.999Z</time></trkpt><trkpt lat="43.466832765697056" lon="12.370608749353186"><ele>708.3333333333334</ele><time>2026-04-26T08:31:48.999Z</time></trkpt><trkpt lat="43.466800719228694" lon="12.370815488989331"><ele>711.6666666666667</ele><time>2026-04-26T08:31:49.999Z</time></trkpt><trkpt lat="43.46674456222736" lon="12.371016440273896"><ele>715.0</ele><time>2026-04-26T08:31:50.999Z</time></trkpt><trkpt lat="43.46664422366451" lon="12.371192550581661"><ele>719.0</ele><time>2026-04-26T08:31:51.999Z</time></trkpt><trkpt lat="43.46655756433074" lon="12.371373616768457"><ele>723.0</ele><time>2026-04-26T08:31:52.999Z</time></trkpt><trkpt lat="43.4664830859182" lon="12.371505769582004"><ele>727.0</ele><time>2026-04-26T08:31:53.999Z</time></trkpt><trkpt lat="43.46641410070947" lon="12.37160703685746"><ele>731.0</ele><time>2026-04-26T08:31:54.999Z</time></trkpt><trkpt lat="43.46633472355035" lon="12.371669623867461"><ele>730.5999999999999</ele><time>2026-04-26T08:31:55.999Z</time></trkpt><trkpt lat="43.466242451852224" lon="12.371716863352212"><ele>730.2</ele><time>2026-04-26T08:31:56.999Z</time></trkpt><trkpt lat="43.466142596391435" lon="12.371732134522471"><ele>729.8</ele><time>2026-04-26T08:31:57.999Z</time></trkpt><trkpt lat="43.46603598982338" lon="12.37170939298319"><ele>729.4000000000001</ele><time>2026-04-26T08:31:58.999Z</time></trkpt><trkpt lat="43.4659349256261" lon="12.371650980236058"><ele>729.0</ele><time>2026-04-26T08:31:59.999Z</time></trkpt><trkpt lat="43.46580382786989" lon="12.371574212920587"><ele>729.0</ele><time>2026-04-26T08:32:00.999Z</time></trkpt><trkpt lat="43.46567403602391" lon="12.371483547493778"><ele>729.0</ele><time>2026-04-26T08:32:01.999Z</time></trkpt><trkpt lat="43.465539908646754" lon="12.371379719351056"><ele>729.0</ele><time>2026-04-26T08:32:02.999Z</time></trkpt><trkpt lat="43.465422503563744" lon="12.371316737822967"><ele>729.0</ele><time>2026-04-26T08:32:03.999Z</time></trkpt><trkpt lat="43.46532701929042" lon="12.37129357416849"><ele>729.0</ele><time>2026-04-26T08:32:04.999Z</time></trkpt><trkpt lat="43.46523698476947" lon="12.37129965850932"><ele>729.0</ele><time>2026-04-26T08:32:05.999Z</time></trkpt><trkpt lat="43.46516801078782" lon="12.371353427007605"><ele>729.0</ele><time>2026-04-26T08:32:06.999Z</time></trkpt><trkpt lat="43.46512657318234" lon="12.371431296171634"><ele>729.0</ele><time>2026-04-26T08:32:07.999Z</time></trkpt><trkpt lat="43.465117158257755" lon="12.371530837006539"><ele>729.0</ele><time>2026-04-26T08:32:08.999Z</time></trkpt><trkpt lat="43.46511492140328" lon="12.37165337522456"><ele>729.0</ele><time>2026-04-26T08:32:09.999Z</time></trkpt><trkpt lat="43.46515188918727" lon="12.37175669424702"><ele>729.2</ele><time>2026-04-26T08:32:10.999Z</time></trkpt><trkpt lat="43.46520449808574" lon="12.371867867708737"><ele>729.4000000000001</ele><time>2026-04-26T08:32:11.999Z</time></trkpt><trkpt lat="43.465264763845546" lon="12.371990243122601"><ele>729.6</ele><time>2026-04-26T08:32:12.999Z</time></trkpt><trkpt lat="43.46532420874055" lon="12.372127343517349"><ele>729.8</ele><time>2026-04-26T08:32:13.999Z</time></trkpt><trkpt lat="43.46538641580704" lon="12.372258890953761"><ele>730.0</ele><time>2026-04-26T08:32:14.999Z</time></trkpt><trkpt lat="43.46544549661189" lon="12.372397259539282"><ele>732.0</ele><time>2026-04-26T08:32:15.999Z</time></trkpt><trkpt lat="43.465503470903194" lon="12.372553893542982"><ele>734.0</ele><time>2026-04-26T08:32:16.999Z</time></trkpt><trkpt lat="43.465549657148145" lon="12.372732362855636"><ele>736.0</ele><time>2026-04-26T08:32:17.999Z</time></trkpt><trkpt lat="43.46558509877577" lon="12.372950819547349"><ele>738.0</ele><time>2026-04-26T08:32:18.998Z</time></trkpt><trkpt lat="43.4655910374749" lon="12.373202492246282"><ele>738.0</ele><time>2026-04-26T08:32:19.998Z</time></trkpt><trkpt lat="43.46561354652451" lon="12.373473357449763"><ele>738.0</ele><time>2026-04-26T08:32:20.998Z</time></trkpt><trkpt lat="43.465636698825364" lon="12.373763358105728"><ele>738.0</ele><time>2026-04-26T08:32:22Z</time></trkpt><trkpt lat="43.46565763850333" lon="12.37408173807902"><ele>740.0</ele><time>2026-04-26T08:32:23Z</time></trkpt><trkpt lat="43.46565308274426" lon="12.374389035151758"><ele>742.0</ele><time>2026-04-26T08:32:24Z</time></trkpt><trkpt lat="43.465588425313506" lon="12.374656915649329"><ele>744.0</ele><time>2026-04-26T08:32:25Z</time></trkpt><trkpt lat="43.46548059574577" lon="12.374909940929252"><ele>752.0</ele><time>2026-04-26T08:32:26Z</time></trkpt><trkpt lat="43.46533395056361" lon="12.375169226319322"><ele>760.0</ele><time>2026-04-26T08:32:27Z</time></trkpt><trkpt lat="43.46516570092656" lon="12.375424850028532"><ele>763.0</ele><time>2026-04-26T08:32:28Z</time></trkpt><trkpt lat="43.46501523528174" lon="12.375627965234425"><ele>766.0</ele><time>2026-04-26T08:32:29Z</time></trkpt><trkpt lat="43.46486233168703" lon="12.375754055715362"><ele>769.0</ele><time>2026-04-26T08:32:30Z</time></trkpt><trkpt lat="43.46471840195666" lon="12.375804159038427"><ele>770.0</ele><time>2026-04-26T08:32:31Z</time></trkpt><trkpt lat="43.46458403141336" lon="12.375811446808891"><ele>771.0</ele><time>2026-04-26T08:32:32Z</time></trkpt><trkpt lat="43.46446484316763" lon="12.375774857562746"><ele>772.0</ele><time>2026-04-26T08:32:33Z</time></trkpt><trkpt lat="43.46430303083917" lon="12.375688081410537"><ele>773.0</ele><time>2026-04-26T08:32:34Z</time></trkpt><trkpt lat="43.464085700877746" lon="12.37556551241486"><ele>771.3333333333334</ele><time>2026-04-26T08:32:35Z</time></trkpt><trkpt lat="43.463884569922996" lon="12.375441944387111"><ele>769.6666666666667</ele><time>2026-04-26T08:32:36Z</time></trkpt><trkpt lat="43.463730363074696" lon="12.375373034897148"><ele>768.0</ele><time>2026-04-26T08:32:37Z</time></trkpt><trkpt lat="43.46361486010649" lon="12.375367256554503"><ele>768.0</ele><time>2026-04-26T08:32:38Z</time></trkpt><trkpt lat="43.46350959775586" lon="12.375453024174288"><ele>768.0</ele><time>2026-04-26T08:32:39Z</time></trkpt><trkpt lat="43.463438299535426" lon="12.375588200706071"><ele>768.0</ele><time>2026-04-26T08:32:40Z</time></trkpt><trkpt lat="43.463393616435226" lon="12.375725636242924"><ele>768.0</ele><time>2026-04-26T08:32:41Z</time></trkpt><trkpt lat="43.46339146695335" lon="12.375902302953163"><ele>769.25</ele><time>2026-04-26T08:32:42Z</time></trkpt><trkpt lat="43.463445009183346" lon="12.376025739616207"><ele>770.5</ele><time>2026-04-26T08:32:43Z</time></trkpt><trkpt lat="43.463547094917594" lon="12.376067883398571"><ele>771.75</ele><time>2026-04-26T08:32:44Z</time></trkpt><trkpt lat="43.46364730629852" lon="12.37614872322179"><ele>773.0</ele><time>2026-04-26T08:32:45Z</time></trkpt><trkpt lat="43.46382202870328" lon="12.376227833472893"><ele>773.0</ele><time>2026-04-26T08:32:46Z</time></trkpt><trkpt lat="43.46395472536076" lon="12.3762929758193"><ele>773.0</ele><time>2026-04-26T08:32:47Z</time></trkpt><trkpt lat="43.464066809906704" lon="12.376381548589526"><ele>773.0</ele><time>2026-04-26T08:32:48Z</time></trkpt><trkpt lat="43.464150933077384" lon="12.376469976858422"><ele>773.0</ele><time>2026-04-26T08:32:49Z</time></trkpt><trkpt lat="43.46420417976676" lon="12.3765992944497"><ele>774.75</ele><time>2026-04-26T08:32:50Z</time></trkpt><trkpt lat="43.46426212089746" lon="12.376754015997895"><ele>776.5</ele><time>2026-04-26T08:32:51Z</time></trkpt><trkpt lat="43.464323520213455" lon="12.37690874965709"><ele>778.25</ele><time>2026-04-26T08:32:52Z</time></trkpt><trkpt lat="43.46438828560565" lon="12.377079150180446"><ele>780.0</ele><time>2026-04-26T08:32:53Z</time></trkpt><trkpt lat="43.46445194770542" lon="12.377264453056052"><ele>780.0</ele><time>2026-04-26T08:32:54Z</time></trkpt><trkpt lat="43.46450072421746" lon="12.377486338630069"><ele>780.0</ele><time>2026-04-26T08:32:55Z</time></trkpt><trkpt lat="43.46453906413345" lon="12.377735576058752"><ele>780.0</ele><time>2026-04-26T08:32:56Z</time></trkpt><trkpt lat="43.46454186028291" lon="12.378026169829129"><ele>774.5</ele><time>2026-04-26T08:32:57Z</time></trkpt><trkpt lat="43.464539235075115" lon="12.378325410011396"><ele>769.0</ele><time>2026-04-26T08:32:58Z</time></trkpt><trkpt lat="43.464538091075084" lon="12.378662772821935"><ele>769.0</ele><time>2026-04-26T08:32:59Z</time></trkpt><trkpt lat="43.464536758631844" lon="12.379000821276165"><ele>769.0</ele><time>2026-04-26T08:33:00Z</time></trkpt><trkpt lat="43.46452518572434" lon="12.379283473946831"><ele>769.0</ele><time>2026-04-26T08:33:01Z</time></trkpt><trkpt lat="43.46449297760434" lon="12.379528071353317"><ele>769.0</ele><time>2026-04-26T08:33:02Z</time></trkpt><trkpt lat="43.46440832500354" lon="12.379706740912527"><ele>769.0</ele><time>2026-04-26T08:33:03Z</time></trkpt><trkpt lat="43.4643119204915" lon="12.379862267285306"><ele>769.3333333333333</ele><time>2026-04-26T08:33:04Z</time></trkpt><trkpt lat="43.464178601889905" lon="12.3800112419032"><ele>769.6666666666667</ele><time>2026-04-26T08:33:05Z</time></trkpt><trkpt lat="43.464039513490825" lon="12.380120136701564"><ele>770.0</ele><time>2026-04-26T08:33:05.999Z</time></trkpt><trkpt lat="43.46395252210499" lon="12.380230412786558"><ele>770.0</ele><time>2026-04-26T08:33:06.999Z</time></trkpt><trkpt lat="43.4638697966815" lon="12.380339881392304"><ele>770.0</ele><time>2026-04-26T08:33:07.999Z</time></trkpt><trkpt lat="43.46382571502046" lon="12.380479339413933"><ele>770.0</ele><time>2026-04-26T08:33:08.999Z</time></trkpt><trkpt lat="43.463823539490996" lon="12.380626694333317"><ele>770.0</ele><time>2026-04-26T08:33:09.999Z</time></trkpt><trkpt lat="43.46385621294761" lon="12.380753990342226"><ele>770.0</ele><time>2026-04-26T08:33:10.999Z</time></trkpt><trkpt lat="43.463955707832355" lon="12.380878588960792"><ele>768.0</ele><time>2026-04-26T08:33:11.999Z</time></trkpt><trkpt lat="43.46410097862209" lon="12.380967081911045"><ele>766.0</ele><time>2026-04-26T08:33:12.999Z</time></trkpt><trkpt lat="43.464268847812235" lon="12.380987449794373"><ele>764.0</ele><time>2026-04-26T08:33:13.999Z</time></trkpt><trkpt lat="43.46445718009193" lon="12.380988036975479"><ele>769.0</ele><time>2026-04-26T08:33:14.999Z</time></trkpt><trkpt lat="43.46464025679926" lon="12.381008026232914"><ele>774.0</ele><time>2026-04-26T08:33:15.999Z</time></trkpt><trkpt lat="43.46480487715408" lon="12.381076536515812"><ele>779.0</ele><time>2026-04-26T08:33:16.999Z</time></trkpt><trkpt lat="43.46492358892898" lon="12.38121164526451"><ele>773.3333333333334</ele><time>2026-04-26T08:33:17.999Z</time></trkpt><trkpt lat="43.46499639942939" lon="12.381423695660562"><ele>767.6666666666667</ele><time>2026-04-26T08:33:18.999Z</time></trkpt><trkpt lat="43.46503132738689" lon="12.381630551270174"><ele>762.0</ele><time>2026-04-26T08:33:19.999Z</time></trkpt><trkpt lat="43.46503218374407" lon="12.381821963984901"><ele>762.0</ele><time>2026-04-26T08:33:20.999Z</time></trkpt><trkpt lat="43.4649910620231" lon="12.38202167791288"><ele>762.0</ele><time>2026-04-26T08:33:21.999Z</time></trkpt><trkpt lat="43.464894399469976" lon="12.382200720385939"><ele>762.0</ele><time>2026-04-26T08:33:22.999Z</time></trkpt><trkpt lat="43.46475710971256" lon="12.382375790728371"><ele>754.3333333333334</ele><time>2026-04-26T08:33:23.999Z</time></trkpt><trkpt lat="43.46461016604102" lon="12.382555734915913"><ele>746.6666666666667</ele><time>2026-04-26T08:33:24.999Z</time></trkpt><trkpt lat="43.46448699751658" lon="12.382719939714704"><ele>739.0</ele><time>2026-04-26T08:33:25.999Z</time></trkpt><trkpt lat="43.464396619798315" lon="12.38288913142583"><ele>738.3333333333334</ele><time>2026-04-26T08:33:26.999Z</time></trkpt><trkpt lat="43.46434573203492" lon="12.383079037275152"><ele>737.6666666666666</ele><time>2026-04-26T08:33:27.999Z</time></trkpt><trkpt lat="43.46432889126381" lon="12.383290035085382"><ele>737.0</ele><time>2026-04-26T08:33:28.999Z</time></trkpt><trkpt lat="43.464339563053926" lon="12.38352996178226"><ele>737.0</ele><time>2026-04-26T08:33:29.999Z</time></trkpt><trkpt lat="43.46435729370384" lon="12.383784246910874"><ele>737.0</ele><time>2026-04-26T08:33:30.999Z</time></trkpt><trkpt lat="43.464370487737646" lon="12.384016025848867"><ele>737.0</ele><time>2026-04-26T08:33:31.999Z</time></trkpt><trkpt lat="43.46439692131373" lon="12.384264291016683"><ele>736.0</ele><time>2026-04-26T08:33:32.999Z</time></trkpt><trkpt lat="43.46430291595752" lon="12.38443028055697"><ele>735.0</ele><time>2026-04-26T08:33:33.999Z</time></trkpt><trkpt lat="43.464174738300045" lon="12.384601907066006"><ele>734.0</ele><time>2026-04-26T08:33:34.999Z</time></trkpt><trkpt lat="43.46404239920941" lon="12.38478201088656"><ele>733.0</ele><time>2026-04-26T08:33:35.999Z</time></trkpt><trkpt lat="43.46391490905912" lon="12.3849746509692"><ele>732.0</ele><time>2026-04-26T08:33:36.999Z</time></trkpt><trkpt lat="43.46377978191409" lon="12.385180915948528"><ele>731.0</ele><time>2026-04-26T08:33:37.999Z</time></trkpt><trkpt lat="43.46365599096897" lon="12.385435763210369"><ele>735.0</ele><time>2026-04-26T08:33:38.999Z</time></trkpt><trkpt lat="43.463499433577816" lon="12.38574029159444"><ele>739.0</ele><time>2026-04-26T08:33:39.999Z</time></trkpt><trkpt lat="43.46331260714332" lon="12.385978267809177"><ele>739.0</ele><time>2026-04-26T08:33:40.999Z</time></trkpt><trkpt lat="43.463167191096346" lon="12.386156328041999"><ele>739.0</ele><time>2026-04-26T08:33:41.999Z</time></trkpt><trkpt lat="43.46306510772535" lon="12.38634837715723"><ele>739.0</ele><time>2026-04-26T08:33:42.999Z</time></trkpt><trkpt lat="43.462976517965856" lon="12.38652084183713"><ele>737.6666666666667</ele><time>2026-04-26T08:33:43.999Z</time></trkpt><trkpt lat="43.46294329775169" lon="12.386756906409854"><ele>736.3333333333334</ele><time>2026-04-26T08:33:44.999Z</time></trkpt><trkpt lat="43.46291995626996" lon="12.387059080541144"><ele>735.0</ele><time>2026-04-26T08:33:45.999Z</time></trkpt><trkpt lat="43.46287197551705" lon="12.387374330801812"><ele>735.0</ele><time>2026-04-26T08:33:46.999Z</time></trkpt><trkpt lat="43.462799291169695" lon="12.387694518845288"><ele>735.0</ele><time>2026-04-26T08:33:47.999Z</time></trkpt><trkpt lat="43.462697825083914" lon="12.388007698780177"><ele>729.5</ele><time>2026-04-26T08:33:48.999Z</time></trkpt><trkpt lat="43.46255645894368" lon="12.388298629246732"><ele>724.0</ele><time>2026-04-26T08:33:49.999Z</time></trkpt><trkpt lat="43.46237953394401" lon="12.388603161396388"><ele>729.0</ele><time>2026-04-26T08:33:50.999Z</time></trkpt><trkpt lat="43.46220979045237" lon="12.38889227447942"><ele>734.0</ele><time>2026-04-26T08:33:51.999Z</time></trkpt><trkpt lat="43.46204133325447" lon="12.38918185716464"><ele>725.5</ele><time>2026-04-26T08:33:52.999Z</time></trkpt><trkpt lat="43.461856634012165" lon="12.389495166600259"><ele>717.0</ele><time>2026-04-26T08:33:53.999Z</time></trkpt><trkpt lat="43.46169274026562" lon="12.389784857979393"><ele>717.0</ele><time>2026-04-26T08:33:54.999Z</time></trkpt><trkpt lat="43.46153016348859" lon="12.39001428889272"><ele>717.0</ele><time>2026-04-26T08:33:55.999Z</time></trkpt><trkpt lat="43.46134439981366" lon="12.390210587906486"><ele>713.0</ele><time>2026-04-26T08:33:56.999Z</time></trkpt><trkpt lat="43.46111422959916" lon="12.390351956455811"><ele>709.0</ele><time>2026-04-26T08:33:57.999Z</time></trkpt><trkpt lat="43.46087010671769" lon="12.390499070318418"><ele>712.5</ele><time>2026-04-26T08:33:58.999Z</time></trkpt><trkpt lat="43.46061394215572" lon="12.390651176343528"><ele>716.0</ele><time>2026-04-26T08:33:59.999Z</time></trkpt><trkpt lat="43.46035071439996" lon="12.390807429499128"><ele>720.5</ele><time>2026-04-26T08:34:00.999Z</time></trkpt><trkpt lat="43.46009890560376" lon="12.390960480241146"><ele>725.0</ele><time>2026-04-26T08:34:01.999Z</time></trkpt><trkpt lat="43.459866006719935" lon="12.39110279602573"><ele>725.0</ele><time>2026-04-26T08:34:02.999Z</time></trkpt><trkpt lat="43.45965478351517" lon="12.39123422698007"><ele>725.0</ele><time>2026-04-26T08:34:03.999Z</time></trkpt><trkpt lat="43.45948950608743" lon="12.39132006189372"><ele>725.0</ele><time>2026-04-26T08:34:04.999Z</time></trkpt><trkpt lat="43.45934719266429" lon="12.391424038848543"><ele>728.0</ele><time>2026-04-26T08:34:05.999Z</time></trkpt><trkpt lat="43.459206925300116" lon="12.391541129017728"><ele>731.0</ele><time>2026-04-26T08:34:06.999Z</time></trkpt><trkpt lat="43.45906010603011" lon="12.391682743297585"><ele>734.0</ele><time>2026-04-26T08:34:07.999Z</time></trkpt><trkpt lat="43.45891976286547" lon="12.391825115026817"><ele>734.0</ele><time>2026-04-26T08:34:08.999Z</time></trkpt><trkpt lat="43.458785137654125" lon="12.391961868215635"><ele>734.0</ele><time>2026-04-26T08:34:09.999Z</time></trkpt><trkpt lat="43.458661082606184" lon="12.392092549005724"><ele>734.0</ele><time>2026-04-26T08:34:10.999Z</time></trkpt><trkpt lat="43.45852709728327" lon="12.392218903626482"><ele>730.0</ele><time>2026-04-26T08:34:11.999Z</time></trkpt><trkpt lat="43.45838961567008" lon="12.392341300533722"><ele>726.0</ele><time>2026-04-26T08:34:12.999Z</time></trkpt><trkpt lat="43.458260900989934" lon="12.392471694754093"><ele>722.0</ele><time>2026-04-26T08:34:13.998Z</time></trkpt><trkpt lat="43.458142874068415" lon="12.392587657556884"><ele>722.0</ele><time>2026-04-26T08:34:14.998Z</time></trkpt><trkpt lat="43.45803467501798" lon="12.392698773276354"><ele>722.0</ele><time>2026-04-26T08:34:15.998Z</time></trkpt><trkpt lat="43.457946364657495" lon="12.392823369229744"><ele>722.0</ele><time>2026-04-26T08:34:16.998Z</time></trkpt><trkpt lat="43.45786944929668" lon="12.392956994531788"><ele>722.0</ele><time>2026-04-26T08:34:17.998Z</time></trkpt><trkpt lat="43.45781547524279" lon="12.393100774603154"><ele>725.0</ele><time>2026-04-26T08:34:18.998Z</time></trkpt><trkpt lat="43.45779070736277" lon="12.393259172833002"><ele>728.0</ele><time>2026-04-26T08:34:19.998Z</time></trkpt><trkpt lat="43.45780066027917" lon="12.393428845413993"><ele>731.0</ele><time>2026-04-26T08:34:20.998Z</time></trkpt><trkpt lat="43.45782446268086" lon="12.393619223490658"><ele>734.0</ele><time>2026-04-26T08:34:21.998Z</time></trkpt><trkpt lat="43.45787201353433" lon="12.393836989198142"><ele>738.0</ele><time>2026-04-26T08:34:22.998Z</time></trkpt><trkpt lat="43.4579129903073" lon="12.394056424961203"><ele>742.0</ele><time>2026-04-26T08:34:23.998Z</time></trkpt><trkpt lat="43.45794819544232" lon="12.394259127719817"><ele>746.0</ele><time>2026-04-26T08:34:24.998Z</time></trkpt><trkpt lat="43.45797671015871" lon="12.39444121896656"><ele>742.0</ele><time>2026-04-26T08:34:25.998Z</time></trkpt><trkpt lat="43.4579883703667" lon="12.394606220281753"><ele>738.0</ele><time>2026-04-26T08:34:26.998Z</time></trkpt><trkpt lat="43.457954114935006" lon="12.394767209564478"><ele>734.0</ele><time>2026-04-26T08:34:28Z</time></trkpt><trkpt lat="43.457879443628286" lon="12.394904369356496"><ele>730.0</ele><time>2026-04-26T08:34:29Z</time></trkpt><trkpt lat="43.457757986833684" lon="12.394968780665229"><ele>730.0</ele><time>2026-04-26T08:34:30Z</time></trkpt><trkpt lat="43.45761930345993" lon="12.395046552334557"><ele>730.0</ele><time>2026-04-26T08:34:31Z</time></trkpt><trkpt lat="43.45746230374591" lon="12.395121959657585"><ele>730.0</ele><time>2026-04-26T08:34:32Z</time></trkpt><trkpt lat="43.457308638028714" lon="12.39519983607124"><ele>730.0</ele><time>2026-04-26T08:34:33Z</time></trkpt><trkpt lat="43.457159028902915" lon="12.395258573516063"><ele>730.0</ele><time>2026-04-26T08:34:34Z</time></trkpt><trkpt lat="43.45701956727355" lon="12.395324391125646"><ele>730.0</ele><time>2026-04-26T08:34:35Z</time></trkpt><trkpt lat="43.45687817852503" lon="12.395396866236336"><ele>730.0</ele><time>2026-04-26T08:34:36Z</time></trkpt><trkpt lat="43.45673736672971" lon="12.395476142478737"><ele>730.0</ele><time>2026-04-26T08:34:37Z</time></trkpt><trkpt lat="43.45660756460661" lon="12.395560583425162"><ele>730.0</ele><time>2026-04-26T08:34:38Z</time></trkpt><trkpt lat="43.45647613807621" lon="12.395676113333774"><ele>722.3333333333334</ele><time>2026-04-26T08:34:39Z</time></trkpt><trkpt lat="43.45634612666092" lon="12.39583644502351"><ele>714.6666666666666</ele><time>2026-04-26T08:34:40Z</time></trkpt><trkpt lat="43.4562116244348" lon="12.396022085404937"><ele>707.0</ele><time>2026-04-26T08:34:41Z</time></trkpt><trkpt lat="43.45606216091708" lon="12.396219274079154"><ele>706.0</ele><time>2026-04-26T08:34:42Z</time></trkpt><trkpt lat="43.45589855632059" lon="12.396420492982585"><ele>705.0</ele><time>2026-04-26T08:34:43Z</time></trkpt><trkpt lat="43.45572523813571" lon="12.396628958793688"><ele>704.0</ele><time>2026-04-26T08:34:44Z</time></trkpt><trkpt lat="43.45555380061283" lon="12.396834128220574"><ele>702.3333333333333</ele><time>2026-04-26T08:34:45Z</time></trkpt><trkpt lat="43.45538649844229" lon="12.397031964128464"><ele>700.6666666666666</ele><time>2026-04-26T08:34:46Z</time></trkpt><trkpt lat="43.45524543112646" lon="12.397207165659232"><ele>699.0</ele><time>2026-04-26T08:34:47Z</time></trkpt><trkpt lat="43.455104602159516" lon="12.397383052870271"><ele>699.0</ele><time>2026-04-26T08:34:48Z</time></trkpt><trkpt lat="43.45496603752157" lon="12.397552516776765"><ele>699.0</ele><time>2026-04-26T08:34:49Z</time></trkpt><trkpt lat="43.454856269648154" lon="12.397709832686392"><ele>699.0</ele><time>2026-04-26T08:34:50Z</time></trkpt><trkpt lat="43.45475780746668" lon="12.39786772553553"><ele>702.6666666666666</ele><time>2026-04-26T08:34:51Z</time></trkpt><trkpt lat="43.45465085133798" lon="12.398063628986417"><ele>706.3333333333333</ele><time>2026-04-26T08:34:52Z</time></trkpt><trkpt lat="43.45455564368275" lon="12.398268294605167"><ele>710.0</ele><time>2026-04-26T08:34:53Z</time></trkpt><trkpt lat="43.45446489505474" lon="12.398503383133603"><ele>699.0</ele><time>2026-04-26T08:34:54Z</time></trkpt><trkpt lat="43.454365703406886" lon="12.398763997589697"><ele>688.0</ele><time>2026-04-26T08:34:55Z</time></trkpt><trkpt lat="43.45423843501103" lon="12.399040236012864"><ele>688.0</ele><time>2026-04-26T08:34:56Z</time></trkpt><trkpt lat="43.45406585146349" lon="12.399342679692506"><ele>688.0</ele><time>2026-04-26T08:34:57Z</time></trkpt><trkpt lat="43.45386605275322" lon="12.39960963631935"><ele>684.5</ele><time>2026-04-26T08:34:58Z</time></trkpt><trkpt lat="43.45364533478351" lon="12.399809655484118"><ele>681.0</ele><time>2026-04-26T08:34:59Z</time></trkpt><trkpt lat="43.453412256587434" lon="12.399999319433862"><ele>681.0</ele><time>2026-04-26T08:35:00Z</time></trkpt><trkpt lat="43.4531799196533" lon="12.400172950415897"><ele>681.0</ele><time>2026-04-26T08:35:01Z</time></trkpt><trkpt lat="43.452982028666085" lon="12.400338901937655"><ele>681.0</ele><time>2026-04-26T08:35:02Z</time></trkpt><trkpt lat="43.45281280647193" lon="12.40047949834593"><ele>681.0</ele><time>2026-04-26T08:35:03Z</time></trkpt><trkpt lat="43.452673376935785" lon="12.400661440701555"><ele>681.0</ele><time>2026-04-26T08:35:04Z</time></trkpt><trkpt lat="43.452559938215835" lon="12.400893259685821"><ele>681.0</ele><time>2026-04-26T08:35:05Z</time></trkpt><trkpt lat="43.452471263603236" lon="12.401181142525612"><ele>681.0</ele><time>2026-04-26T08:35:06Z</time></trkpt><trkpt lat="43.45239335224195" lon="12.401502373876852"><ele>678.6666666666666</ele><time>2026-04-26T08:35:06.999Z</time></trkpt><trkpt lat="43.45228906548255" lon="12.40177273973742"><ele>676.3333333333333</ele><time>2026-04-26T08:35:07.999Z</time></trkpt><trkpt lat="43.452153162198435" lon="12.401988094582489"><ele>674.0</ele><time>2026-04-26T08:35:08.999Z</time></trkpt><trkpt lat="43.452003118743065" lon="12.402199571757082"><ele>673.6666666666666</ele><time>2026-04-26T08:35:09.999Z</time></trkpt><trkpt lat="43.45186615947242" lon="12.402408040098036"><ele>673.3333333333334</ele><time>2026-04-26T08:35:10.999Z</time></trkpt><trkpt lat="43.45172190144389" lon="12.40259446111167"><ele>673.0</ele><time>2026-04-26T08:35:11.999Z</time></trkpt><trkpt lat="43.45159916082125" lon="12.40278634724869"><ele>672.0</ele><time>2026-04-26T08:35:12.999Z</time></trkpt><trkpt lat="43.451484582842276" lon="12.403012233350038"><ele>671.0</ele><time>2026-04-26T08:35:13.999Z</time></trkpt><trkpt lat="43.45137170693036" lon="12.403273654908421"><ele>670.0</ele><time>2026-04-26T08:35:14.999Z</time></trkpt><trkpt lat="43.45125733514857" lon="12.403561939654043"><ele>664.0</ele><time>2026-04-26T08:35:15.999Z</time></trkpt><trkpt lat="43.45112826063303" lon="12.403856891851653"><ele>658.0</ele><time>2026-04-26T08:35:16.999Z</time></trkpt><trkpt lat="43.45100007536669" lon="12.404125548030459"><ele>658.0</ele><time>2026-04-26T08:35:17.999Z</time></trkpt><trkpt lat="43.450879788871546" lon="12.404382229047695"><ele>658.0</ele><time>2026-04-26T08:35:18.999Z</time></trkpt><trkpt lat="43.45076494654522" lon="12.404655724640197"><ele>653.5</ele><time>2026-04-26T08:35:19.999Z</time></trkpt><trkpt lat="43.450633851611684" lon="12.404959485445346"><ele>649.0</ele><time>2026-04-26T08:35:20.999Z</time></trkpt><trkpt lat="43.45049461137872" lon="12.405277432641196"><ele>646.0</ele><time>2026-04-26T08:35:21.999Z</time></trkpt><trkpt lat="43.450359525592155" lon="12.405581633192446"><ele>643.0</ele><time>2026-04-26T08:35:22.999Z</time></trkpt><trkpt lat="43.450229707473724" lon="12.405867136354365"><ele>643.0</ele><time>2026-04-26T08:35:23.999Z</time></trkpt><trkpt lat="43.45010028212639" lon="12.40615823712767"><ele>643.0</ele><time>2026-04-26T08:35:24.999Z</time></trkpt><trkpt lat="43.4499567591349" lon="12.406461219489449"><ele>641.5</ele><time>2026-04-26T08:35:25.999Z</time></trkpt><trkpt lat="43.44980438735093" lon="12.406818964770844"><ele>640.0</ele><time>2026-04-26T08:35:26.999Z</time></trkpt><trkpt lat="43.44963473267023" lon="12.4071929755844"><ele>634.0</ele><time>2026-04-26T08:35:27.999Z</time></trkpt><trkpt lat="43.4494618566138" lon="12.407571610563178"><ele>628.0</ele><time>2026-04-26T08:35:28.999Z</time></trkpt><trkpt lat="43.44930136064793" lon="12.407930521542061"><ele>628.6666666666667</ele><time>2026-04-26T08:35:29.999Z</time></trkpt><trkpt lat="43.44916996452557" lon="12.40822413009417"><ele>629.3333333333334</ele><time>2026-04-26T08:35:30.999Z</time></trkpt><trkpt lat="43.449068255971305" lon="12.40844788316481"><ele>630.0</ele><time>2026-04-26T08:35:31.999Z</time></trkpt><trkpt lat="43.44896952003359" lon="12.408654842173625"><ele>630.0</ele><time>2026-04-26T08:35:32.999Z</time></trkpt><trkpt lat="43.44887633474444" lon="12.408815156874757"><ele>630.0</ele><time>2026-04-26T08:35:33.999Z</time></trkpt><trkpt lat="43.44877755700369" lon="12.408916908580268"><ele>630.0</ele><time>2026-04-26T08:35:34.999Z</time></trkpt><trkpt lat="43.44866579271834" lon="12.408960789706091"><ele>630.0</ele><time>2026-04-26T08:35:35.999Z</time></trkpt><trkpt lat="43.448544328004424" lon="12.408968625273967"><ele>627.0</ele><time>2026-04-26T08:35:36.999Z</time></trkpt><trkpt lat="43.44841064179664" lon="12.408879764929695"><ele>624.0</ele><time>2026-04-26T08:35:37.999Z</time></trkpt><trkpt lat="43.44822319064767" lon="12.408776962005984"><ele>621.0</ele><time>2026-04-26T08:35:38.999Z</time></trkpt><trkpt lat="43.44805789661303" lon="12.408696967096658"><ele>617.5</ele><time>2026-04-26T08:35:39.999Z</time></trkpt><trkpt lat="43.44792432695761" lon="12.408676128530763"><ele>614.0</ele><time>2026-04-26T08:35:40.999Z</time></trkpt><trkpt lat="43.44780522002976" lon="12.40871982283655"><ele>610.5</ele><time>2026-04-26T08:35:41.999Z</time></trkpt><trkpt lat="43.447709369903016" lon="12.408793023677953"><ele>607.0</ele><time>2026-04-26T08:35:42.999Z</time></trkpt><trkpt lat="43.4476586099698" lon="12.408935194212674"><ele>607.0</ele><time>2026-04-26T08:35:43.999Z</time></trkpt><trkpt lat="43.44763537143964" lon="12.409158563047766"><ele>607.0</ele><time>2026-04-26T08:35:44.999Z</time></trkpt><trkpt lat="43.44767239596045" lon="12.409398866419458"><ele>607.0</ele><time>2026-04-26T08:35:45.999Z</time></trkpt><trkpt lat="43.44776048352782" lon="12.409645043599811"><ele>606.0</ele><time>2026-04-26T08:35:46.999Z</time></trkpt><trkpt lat="43.44787409736929" lon="12.409939886182373"><ele>605.0</ele><time>2026-04-26T08:35:47.999Z</time></trkpt><trkpt lat="43.44804129859436" lon="12.410207743384813"><ele>605.0</ele><time>2026-04-26T08:35:48.999Z</time></trkpt><trkpt lat="43.44820403879966" lon="12.41047570833088"><ele>605.0</ele><time>2026-04-26T08:35:49.999Z</time></trkpt><trkpt lat="43.44831770574326" lon="12.410666105794284"><ele>605.0</ele><time>2026-04-26T08:35:50.999Z</time></trkpt><trkpt lat="43.44839941746454" lon="12.410794607158689"><ele>601.25</ele><time>2026-04-26T08:35:51.999Z</time></trkpt><trkpt lat="43.448487663964585" lon="12.410928630012197"><ele>597.5</ele><time>2026-04-26T08:35:52.999Z</time></trkpt><trkpt lat="43.44861200606223" lon="12.410983527197558"><ele>593.75</ele><time>2026-04-26T08:35:53.999Z</time></trkpt><trkpt lat="43.44873568575838" lon="12.410988793280373"><ele>590.0</ele><time>2026-04-26T08:35:54.999Z</time></trkpt><trkpt lat="43.44887336835293" lon="12.410981710785057"><ele>590.0</ele><time>2026-04-26T08:35:55.999Z</time></trkpt><trkpt lat="43.44903154371338" lon="12.410955242481034"><ele>590.0</ele><time>2026-04-26T08:35:56.999Z</time></trkpt><trkpt lat="43.44920000027592" lon="12.41094575364091"><ele>590.0</ele><time>2026-04-26T08:35:57.999Z</time></trkpt><trkpt lat="43.44934340312768" lon="12.41097367226583"><ele>590.0</ele><time>2026-04-26T08:35:58.999Z</time></trkpt><trkpt lat="43.44949238245273" lon="12.41103620891568"><ele>590.0</ele><time>2026-04-26T08:35:59.999Z</time></trkpt><trkpt lat="43.449642781239774" lon="12.411116500073945"><ele>590.0</ele><time>2026-04-26T08:36:00.999Z</time></trkpt><trkpt lat="43.44978814589146" lon="12.41120172561481"><ele>590.5</ele><time>2026-04-26T08:36:01.999Z</time></trkpt><trkpt lat="43.449924263733855" lon="12.411273026672358"><ele>591.0</ele><time>2026-04-26T08:36:02.999Z</time></trkpt><trkpt lat="43.450061065644654" lon="12.411346701517683"><ele>591.5</ele><time>2026-04-26T08:36:03.999Z</time></trkpt><trkpt lat="43.450193057146436" lon="12.41141396895124"><ele>592.0</ele><time>2026-04-26T08:36:04.999Z</time></trkpt><trkpt lat="43.45032271625584" lon="12.411459169449419"><ele>586.0</ele><time>2026-04-26T08:36:05.999Z</time></trkpt><trkpt lat="43.450452091627994" lon="12.411482082287533"><ele>580.0</ele><time>2026-04-26T08:36:06.999Z</time></trkpt><trkpt lat="43.45058438794329" lon="12.41147183397669"><ele>574.0</ele><time>2026-04-26T08:36:07.999Z</time></trkpt><trkpt lat="43.45071012120439" lon="12.411443010977324"><ele>568.0</ele><time>2026-04-26T08:36:08.999Z</time></trkpt><trkpt lat="43.45083963291152" lon="12.411393666080963"><ele>567.0</ele><time>2026-04-26T08:36:09.999Z</time></trkpt><trkpt lat="43.45096506890912" lon="12.411290863627647"><ele>566.0</ele><time>2026-04-26T08:36:10.999Z</time></trkpt><trkpt lat="43.45109836035123" lon="12.411200765508443"><ele>565.0</ele><time>2026-04-26T08:36:11.999Z</time></trkpt><trkpt lat="43.45122604861037" lon="12.411142004582945"><ele>564.0</ele><time>2026-04-26T08:36:12.998Z</time></trkpt><trkpt lat="43.451345237300174" lon="12.411085469021124"><ele>564.0</ele><time>2026-04-26T08:36:13.998Z</time></trkpt><trkpt lat="43.4514701674567" lon="12.411028144894246"><ele>564.0</ele><time>2026-04-26T08:36:14.998Z</time></trkpt><trkpt lat="43.45161090013248" lon="12.410960318976192"><ele>564.0</ele><time>2026-04-26T08:36:15.998Z</time></trkpt><trkpt lat="43.45175502548575" lon="12.410898825428825"><ele>564.0</ele><time>2026-04-26T08:36:16.998Z</time></trkpt><trkpt lat="43.45189550495979" lon="12.410822688415571"><ele>564.0</ele><time>2026-04-26T08:36:17.998Z</time></trkpt><trkpt lat="43.45204220128982" lon="12.41076138840865"><ele>564.0</ele><time>2026-04-26T08:36:18.998Z</time></trkpt><trkpt lat="43.452183247799994" lon="12.410735193637583"><ele>564.0</ele><time>2026-04-26T08:36:19.998Z</time></trkpt><trkpt lat="43.45231987682648" lon="12.410753187763735"><ele>564.0</ele><time>2026-04-26T08:36:20.998Z</time></trkpt><trkpt lat="43.45244861150998" lon="12.410814355972095"><ele>558.5</ele><time>2026-04-26T08:36:21.998Z</time></trkpt><trkpt lat="43.452565247858196" lon="12.410908906185485"><ele>553.0</ele><time>2026-04-26T08:36:22.998Z</time></trkpt><trkpt lat="43.452651545182796" lon="12.411061978002202"><ele>547.5</ele><time>2026-04-26T08:36:23.998Z</time></trkpt><trkpt lat="43.452750685210745" lon="12.411178129034901"><ele>542.0</ele><time>2026-04-26T08:36:24.998Z</time></trkpt><trkpt lat="43.45282169091785" lon="12.411329461407256"><ele>541.75</ele><time>2026-04-26T08:36:25.998Z</time></trkpt><trkpt lat="43.452860441755234" lon="12.411499687384586"><ele>541.5</ele><time>2026-04-26T08:36:26.998Z</time></trkpt><trkpt lat="43.45287225894187" lon="12.411672432648023"><ele>541.25</ele><time>2026-04-26T08:36:27.998Z</time></trkpt><trkpt lat="43.45288071842018" lon="12.411834573788719"><ele>541.0</ele><time>2026-04-26T08:36:28.998Z</time></trkpt><trkpt lat="43.45290592956335" lon="12.411988977655858"><ele>541.0</ele><time>2026-04-26T08:36:29.998Z</time></trkpt><trkpt lat="43.45295263721198" lon="12.41212970740012"><ele>541.0</ele><time>2026-04-26T08:36:30.998Z</time></trkpt><trkpt lat="43.45297496704664" lon="12.412279855060238"><ele>541.0</ele><time>2026-04-26T08:36:31.998Z</time></trkpt><trkpt lat="43.45308407190978" lon="12.412394791395473"><ele>541.0</ele><time>2026-04-26T08:36:32.998Z</time></trkpt><trkpt lat="43.45317079241019" lon="12.41250646454636"><ele>535.75</ele><time>2026-04-26T08:36:34Z</time></trkpt><trkpt lat="43.45325572739141" lon="12.412605324665002"><ele>530.5</ele><time>2026-04-26T08:36:35Z</time></trkpt><trkpt lat="43.453343309984625" lon="12.41272061294191"><ele>525.25</ele><time>2026-04-26T08:36:36Z</time></trkpt><trkpt lat="43.45339854850721" lon="12.412863072884338"><ele>520.0</ele><time>2026-04-26T08:36:37Z</time></trkpt><trkpt lat="43.4534293058866" lon="12.413043386473747"><ele>519.5</ele><time>2026-04-26T08:36:38Z</time></trkpt><trkpt lat="43.45342821994362" lon="12.413247550912313"><ele>519.0</ele><time>2026-04-26T08:36:39Z</time></trkpt><trkpt lat="43.45339588928949" lon="12.41345677765856"><ele>518.5</ele><time>2026-04-26T08:36:40Z</time></trkpt><trkpt lat="43.45336448056796" lon="12.413644993657995"><ele>518.0</ele><time>2026-04-26T08:36:41Z</time></trkpt><trkpt lat="43.45334900272696" lon="12.413841642490883"><ele>515.5</ele><time>2026-04-26T08:36:42Z</time></trkpt><trkpt lat="43.45332283253906" lon="12.414034989523696"><ele>513.0</ele><time>2026-04-26T08:36:43Z</time></trkpt><trkpt lat="43.45326849273677" lon="12.414179380792392"><ele>510.5</ele><time>2026-04-26T08:36:44Z</time></trkpt><trkpt lat="43.45317637905665" lon="12.414244564220091"><ele>508.0</ele><time>2026-04-26T08:36:45Z</time></trkpt><trkpt lat="43.45307056744817" lon="12.414255939819443"><ele>508.0</ele><time>2026-04-26T08:36:46Z</time></trkpt><trkpt lat="43.45295096383396" lon="12.414231040156807"><ele>508.0</ele><time>2026-04-26T08:36:47Z</time></trkpt><trkpt lat="43.452824854572015" lon="12.41410378852997"><ele>508.0</ele><time>2026-04-26T08:36:48Z</time></trkpt><trkpt lat="43.452700861481176" lon="12.413981758220507"><ele>508.0</ele><time>2026-04-26T08:36:49Z</time></trkpt><trkpt lat="43.452575232974056" lon="12.413948826662656"><ele>508.0</ele><time>2026-04-26T08:36:50Z</time></trkpt><trkpt lat="43.45243405299536" lon="12.413989907244769"><ele>508.0</ele><time>2026-04-26T08:36:51Z</time></trkpt><trkpt lat="43.45227820023808" lon="12.41410243995157"><ele>508.0</ele><time>2026-04-26T08:36:52Z</time></trkpt><trkpt lat="43.4521422151963" lon="12.414237956318784"><ele>507.25</ele><time>2026-04-26T08:36:53Z</time></trkpt><trkpt lat="43.452039382131495" lon="12.414360826649133"><ele>506.5</ele><time>2026-04-26T08:36:54Z</time></trkpt><trkpt lat="43.45200376006265" lon="12.414511399684534"><ele>505.75</ele><time>2026-04-26T08:36:55Z</time></trkpt><trkpt lat="43.452009143232495" lon="12.414668248282057"><ele>505.0</ele><time>2026-04-26T08:36:56Z</time></trkpt><trkpt lat="43.452067983842966" lon="12.414827224201305"><ele>501.0</ele><time>2026-04-26T08:36:57Z</time></trkpt><trkpt lat="43.45219680361933" lon="12.414934846534859"><ele>497.0</ele><time>2026-04-26T08:36:58Z</time></trkpt><trkpt lat="43.45232958014568" lon="12.415084639524304"><ele>493.0</ele><time>2026-04-26T08:36:59Z</time></trkpt><trkpt lat="43.45247157660007" lon="12.415198277990909"><ele>493.0</ele><time>2026-04-26T08:37:00Z</time></trkpt><trkpt lat="43.452626117437006" lon="12.415280975260204"><ele>493.0</ele><time>2026-04-26T08:37:01Z</time></trkpt><trkpt lat="43.45276957274607" lon="12.415347670658113"><ele>493.0</ele><time>2026-04-26T08:37:02Z</time></trkpt><trkpt lat="43.45292599050201" lon="12.415406740142913"><ele>493.33333333333337</ele><time>2026-04-26T08:37:03Z</time></trkpt><trkpt lat="43.45309223295262" lon="12.41545482400371"><ele>493.66666666666663</ele><time>2026-04-26T08:37:04Z</time></trkpt><trkpt lat="43.45325238920967" lon="12.415495947812548"><ele>494.0</ele><time>2026-04-26T08:37:05Z</time></trkpt><trkpt lat="43.45340168062752" lon="12.415521276031571"><ele>488.66666666666663</ele><time>2026-04-26T08:37:05.999Z</time></trkpt><trkpt lat="43.45354908915138" lon="12.415561373120772"><ele>483.33333333333337</ele><time>2026-04-26T08:37:06.999Z</time></trkpt><trkpt lat="43.453719705999994" lon="12.415530623450438"><ele>478.0</ele><time>2026-04-26T08:37:07.999Z</time></trkpt><trkpt lat="43.45391935216113" lon="12.415417188684794"><ele>478.0</ele><time>2026-04-26T08:37:08.999Z</time></trkpt><trkpt lat="43.45411564487031" lon="12.415313607171266"><ele>478.0</ele><time>2026-04-26T08:37:09.999Z</time></trkpt><trkpt lat="43.45429673783846" lon="12.415247268991347"><ele>478.0</ele><time>2026-04-26T08:37:10.999Z</time></trkpt><trkpt lat="43.4544797745781" lon="12.415191289101726"><ele>477.33333333333337</ele><time>2026-04-26T08:37:11.999Z</time></trkpt><trkpt lat="43.45465484043578" lon="12.415174003827401"><ele>476.66666666666663</ele><time>2026-04-26T08:37:12.999Z</time></trkpt><trkpt lat="43.45482900013935" lon="12.415203790851903"><ele>476.0</ele><time>2026-04-26T08:37:13.999Z</time></trkpt><trkpt lat="43.45498178268908" lon="12.415271710228094"><ele>476.0</ele><time>2026-04-26T08:37:14.999Z</time></trkpt><trkpt lat="43.45509173501794" lon="12.415429155455248"><ele>476.0</ele><time>2026-04-26T08:37:15.999Z</time></trkpt><trkpt lat="43.45521876318592" lon="12.415606475237865"><ele>476.0</ele><time>2026-04-26T08:37:16.999Z</time></trkpt><trkpt lat="43.45536134481793" lon="12.415780717929922"><ele>472.66666666666663</ele><time>2026-04-26T08:37:17.999Z</time></trkpt><trkpt lat="43.45549481568072" lon="12.415987186293854"><ele>469.33333333333337</ele><time>2026-04-26T08:37:18.999Z</time></trkpt><trkpt lat="43.45565138784676" lon="12.41619907556606"><ele>466.0</ele><time>2026-04-26T08:37:19.999Z</time></trkpt><trkpt lat="43.455848655932975" lon="12.416430422824433"><ele>466.0</ele><time>2026-04-26T08:37:20.999Z</time></trkpt><trkpt lat="43.45602600082176" lon="12.416684447314493"><ele>466.0</ele><time>2026-04-26T08:37:21.999Z</time></trkpt><trkpt lat="43.4561289309932" lon="12.41693639978524"><ele>468.33333333333337</ele><time>2026-04-26T08:37:22.999Z</time></trkpt><trkpt lat="43.4561619995084" lon="12.4171679484291"><ele>470.66666666666663</ele><time>2026-04-26T08:37:23.999Z</time></trkpt><trkpt lat="43.45616377196035" lon="12.41739113600877"><ele>473.0</ele><time>2026-04-26T08:37:24.999Z</time></trkpt><trkpt lat="43.456123948512506" lon="12.41761871557434"><ele>473.0</ele><time>2026-04-26T08:37:25.999Z</time></trkpt><trkpt lat="43.456048206952765" lon="12.417819224925312"><ele>473.0</ele><time>2026-04-26T08:37:26.999Z</time></trkpt><trkpt lat="43.455936108125044" lon="12.417959096507628"><ele>473.0</ele><time>2026-04-26T08:37:27.999Z</time></trkpt><trkpt lat="43.45578846846337" lon="12.418067716198632"><ele>475.5</ele><time>2026-04-26T08:37:28.999Z</time></trkpt><trkpt lat="43.455639140714304" lon="12.418153862999858"><ele>478.0</ele><time>2026-04-26T08:37:29.999Z</time></trkpt><trkpt lat="43.455516378511994" lon="12.418228904675079"><ele>480.5</ele><time>2026-04-26T08:37:30.999Z</time></trkpt><trkpt lat="43.45541825884225" lon="12.418287951081007"><ele>483.0</ele><time>2026-04-26T08:37:31.999Z</time></trkpt><trkpt lat="43.45534577624948" lon="12.418331569655418"><ele>483.0</ele><time>2026-04-26T08:37:32.999Z</time></trkpt><trkpt lat="43.45526470575493" lon="12.418380356280887"><ele>483.0</ele><time>2026-04-26T08:37:33.999Z</time></trkpt><trkpt lat="43.45514752966867" lon="12.418451226757965"><ele>483.0</ele><time>2026-04-26T08:37:34.999Z</time></trkpt><trkpt lat="43.45499683750429" lon="12.418561381967322"><ele>483.0</ele><time>2026-04-26T08:37:35.999Z</time></trkpt><trkpt lat="43.45480587141487" lon="12.418652703171137"><ele>480.33333333333337</ele><time>2026-04-26T08:37:36.999Z</time></trkpt><trkpt lat="43.45461137111926" lon="12.418749500722075"><ele>477.6666666666667</ele><time>2026-04-26T08:37:37.999Z</time></trkpt><trkpt lat="43.454437117039966" lon="12.418836907292363"><ele>475.0</ele><time>2026-04-26T08:37:38.999Z</time></trkpt><trkpt lat="43.45428007763147" lon="12.418889268403303"><ele>485.6666666666667</ele><time>2026-04-26T08:37:39.999Z</time></trkpt><trkpt lat="43.4541274393741" lon="12.418928211665724"><ele>496.33333333333337</ele><time>2026-04-26T08:37:40.999Z</time></trkpt><trkpt lat="43.453976335533454" lon="12.41896829601142"><ele>507.0</ele><time>2026-04-26T08:37:41.999Z</time></trkpt><trkpt lat="43.45382343658757" lon="12.41903042257612"><ele>503.0</ele><time>2026-04-26T08:37:42.999Z</time></trkpt><trkpt lat="43.45367414615578" lon="12.419107880594291"><ele>499.0</ele><time>2026-04-26T08:37:43.999Z</time></trkpt><trkpt lat="43.45351356779878" lon="12.419195940020945"><ele>495.0</ele><time>2026-04-26T08:37:44.999Z</time></trkpt><trkpt lat="43.45336810206503" lon="12.41927453958201"><ele>495.0</ele><time>2026-04-26T08:37:45.999Z</time></trkpt><trkpt lat="43.45323406971436" lon="12.41934067444341"><ele>495.0</ele><time>2026-04-26T08:37:46.999Z</time></trkpt><trkpt lat="43.45311785053124" lon="12.419404776141084"><ele>495.0</ele><time>2026-04-26T08:37:47.999Z</time></trkpt><trkpt lat="43.45300991569249" lon="12.419462022853581"><ele>495.0</ele><time>2026-04-26T08:37:48.999Z</time></trkpt><trkpt lat="43.452914302452555" lon="12.419537114599883"><ele>497.0</ele><time>2026-04-26T08:37:49.999Z</time></trkpt><trkpt lat="43.452825656084514" lon="12.419661299470954"><ele>499.0</ele><time>2026-04-26T08:37:50.999Z</time></trkpt><trkpt lat="43.45275139293282" lon="12.419837871434705"><ele>501.0</ele><time>2026-04-26T08:37:51.999Z</time></trkpt><trkpt lat="43.45267293395443" lon="12.420049058420918"><ele>503.0</ele><time>2026-04-26T08:37:52.999Z</time></trkpt><trkpt lat="43.45258193342654" lon="12.420211018246917"><ele>503.0</ele><time>2026-04-26T08:37:53.999Z</time></trkpt><trkpt lat="43.45244447874047" lon="12.420266964738056"><ele>503.0</ele><time>2026-04-26T08:37:54.999Z</time></trkpt><trkpt lat="43.45231192765219" lon="12.42029005115347"><ele>503.0</ele><time>2026-04-26T08:37:55.999Z</time></trkpt><trkpt lat="43.45214548172197" lon="12.420319048694743"><ele>503.0</ele><time>2026-04-26T08:37:56.999Z</time></trkpt><trkpt lat="43.4519556155825" lon="12.420373828961173"><ele>499.66666666666663</ele><time>2026-04-26T08:37:57.999Z</time></trkpt><trkpt lat="43.45178507508083" lon="12.420467052511308"><ele>496.33333333333337</ele><time>2026-04-26T08:37:58.999Z</time></trkpt><trkpt lat="43.45162715118169" lon="12.420621050326227"><ele>493.0</ele><time>2026-04-26T08:37:59.999Z</time></trkpt><trkpt lat="43.45146349306768" lon="12.420775138904483"><ele>501.0</ele><time>2026-04-26T08:38:00.999Z</time></trkpt><trkpt lat="43.45129310350822" lon="12.420868174324124"><ele>509.0</ele><time>2026-04-26T08:38:01.999Z</time></trkpt><trkpt lat="43.4511219262169" lon="12.420872858661847"><ele>517.0</ele><time>2026-04-26T08:38:02.999Z</time></trkpt><trkpt lat="43.4509252356337" lon="12.420868144559643"><ele>517.0</ele><time>2026-04-26T08:38:03.999Z</time></trkpt><trkpt lat="43.45070297420386" lon="12.420875603204196"><ele>517.0</ele><time>2026-04-26T08:38:04.999Z</time></trkpt><trkpt lat="43.45048205886729" lon="12.420935895641483"><ele>517.0</ele><time>2026-04-26T08:38:05.999Z</time></trkpt><trkpt lat="43.450253815823196" lon="12.421013001809007"><ele>517.3333333333334</ele><time>2026-04-26T08:38:06.999Z</time></trkpt><trkpt lat="43.45003074636207" lon="12.421092877973713"><ele>517.6666666666666</ele><time>2026-04-26T08:38:07.999Z</time></trkpt><trkpt lat="43.449820192202054" lon="12.421173296401589"><ele>518.0</ele><time>2026-04-26T08:38:08.999Z</time></trkpt><trkpt lat="43.44961109078625" lon="12.421239384030368"><ele>519.6666666666666</ele><time>2026-04-26T08:38:09.999Z</time></trkpt><trkpt lat="43.44940476714573" lon="12.421300293027898"><ele>521.3333333333334</ele><time>2026-04-26T08:38:10.999Z</time></trkpt><trkpt lat="43.44919727499025" lon="12.421281637299455"><ele>523.0</ele><time>2026-04-26T08:38:11.998Z</time></trkpt><trkpt lat="43.449004517694554" lon="12.421243126396554"><ele>527.5</ele><time>2026-04-26T08:38:12.998Z</time></trkpt><trkpt lat="43.448782333644196" lon="12.421193527417575"><ele>532.0</ele><time>2026-04-26T08:38:13.998Z</time></trkpt><trkpt lat="43.44854886341694" lon="12.421139948545179"><ele>532.0</ele><time>2026-04-26T08:38:14.998Z</time></trkpt><trkpt lat="43.448305295268575" lon="12.421072329276502"><ele>532.0</ele><time>2026-04-26T08:38:15.998Z</time></trkpt><trkpt lat="43.448067334240484" lon="12.42098796405778"><ele>533.6666666666667</ele><time>2026-04-26T08:38:16.998Z</time></trkpt><trkpt lat="43.44785741195306" lon="12.420922823609347"><ele>535.3333333333334</ele><time>2026-04-26T08:38:17.998Z</time></trkpt><trkpt lat="43.44766947109938" lon="12.420858020307254"><ele>537.0</ele><time>2026-04-26T08:38:18.998Z</time></trkpt><trkpt lat="43.44752200209927" lon="12.420824258922625"><ele>537.0</ele><time>2026-04-26T08:38:19.998Z</time></trkpt><trkpt lat="43.447407533144236" lon="12.420849280033755"><ele>537.0</ele><time>2026-04-26T08:38:20.998Z</time></trkpt><trkpt lat="43.44729106574851" lon="12.420900055433961"><ele>537.0</ele><time>2026-04-26T08:38:21.998Z</time></trkpt><trkpt lat="43.44718586686943" lon="12.42098904587239"><ele>537.0</ele><time>2026-04-26T08:38:22.998Z</time></trkpt><trkpt lat="43.44711796467382" lon="12.421150648833825"><ele>535.3333333333334</ele><time>2026-04-26T08:38:23.998Z</time></trkpt><trkpt lat="43.44707695790264" lon="12.421339961970682"><ele>533.6666666666667</ele><time>2026-04-26T08:38:24.998Z</time></trkpt><trkpt lat="43.44706568259828" lon="12.421567079863495"><ele>532.0</ele><time>2026-04-26T08:38:25.998Z</time></trkpt><trkpt lat="43.44708238539448" lon="12.42181774905697"><ele>532.0</ele><time>2026-04-26T08:38:26.998Z</time></trkpt><trkpt lat="43.44711231507834" lon="12.422061371296383"><ele>532.0</ele><time>2026-04-26T08:38:27.998Z</time></trkpt><trkpt lat="43.44715289536016" lon="12.422305980945312"><ele>532.0</ele><time>2026-04-26T08:38:28.998Z</time></trkpt><trkpt lat="43.44723120174258" lon="12.42253899991788"><ele>540.0</ele><time>2026-04-26T08:38:29.998Z</time></trkpt><trkpt lat="43.44731987995424" lon="12.422793402676058"><ele>548.0</ele><time>2026-04-26T08:38:30.998Z</time></trkpt><trkpt lat="43.44743322817142" lon="12.42300714940235"><ele>556.0</ele><time>2026-04-26T08:38:31.998Z</time></trkpt><trkpt lat="43.4474524933559" lon="12.42320606894016"><ele>557.0</ele><time>2026-04-26T08:38:32.998Z</time></trkpt><trkpt lat="43.447443049359144" lon="12.423387796444379"><ele>558.0</ele><time>2026-04-26T08:38:33.998Z</time></trkpt><trkpt lat="43.4474011605512" lon="12.423557346038784"><ele>559.0</ele><time>2026-04-26T08:38:34.998Z</time></trkpt><trkpt lat="43.44732373484335" lon="12.423708493523394"><ele>560.0</ele><time>2026-04-26T08:38:35.998Z</time></trkpt><trkpt lat="43.447218633047875" lon="12.423834947639586"><ele>560.5</ele><time>2026-04-26T08:38:36.998Z</time></trkpt><trkpt lat="43.44711171019296" lon="12.423966323830566"><ele>561.0</ele><time>2026-04-26T08:38:37.998Z</time></trkpt><trkpt lat="43.44702199857774" lon="12.424123432746656"><ele>561.5</ele><time>2026-04-26T08:38:38.998Z</time></trkpt><trkpt lat="43.446941227505846" lon="12.424279444731114"><ele>562.0</ele><time>2026-04-26T08:38:40Z</time></trkpt><trkpt lat="43.446893159363945" lon="12.424446278157175"><ele>562.0</ele><time>2026-04-26T08:38:41Z</time></trkpt><trkpt lat="43.44688344038366" lon="12.424642815093572"><ele>562.0</ele><time>2026-04-26T08:38:42Z</time></trkpt><trkpt lat="43.44686442261144" lon="12.424829106444994"><ele>562.0</ele><time>2026-04-26T08:38:43Z</time></trkpt><trkpt lat="43.44683824103513" lon="12.42501470845515"><ele>562.0</ele><time>2026-04-26T08:38:44Z</time></trkpt><trkpt lat="43.44681088149021" lon="12.425194394087697"><ele>564.0</ele><time>2026-04-26T08:38:45Z</time></trkpt><trkpt lat="43.4467913413258" lon="12.42536801145321"><ele>566.0</ele><time>2026-04-26T08:38:46Z</time></trkpt><trkpt lat="43.446779609217565" lon="12.425520886082477"><ele>568.0</ele><time>2026-04-26T08:38:47Z</time></trkpt><trkpt lat="43.44675777459968" lon="12.425645256651025"><ele>570.0</ele><time>2026-04-26T08:38:48Z</time></trkpt><trkpt lat="43.44674556557816" lon="12.425751431487091"><ele>572.0</ele><time>2026-04-26T08:38:49Z</time></trkpt><trkpt lat="43.44673142457538" lon="12.425840794249435"><ele>573.6</ele><time>2026-04-26T08:38:50Z</time></trkpt><trkpt lat="43.446711251772776" lon="12.42599602324427"><ele>575.2</ele><time>2026-04-26T08:38:52Z</time></trkpt><trkpt lat="43.44670739771276" lon="12.426098099301297"><ele>576.8</ele><time>2026-04-26T08:38:54Z</time></trkpt><trkpt lat="43.44675716922583" lon="12.426189149310959"><ele>578.4</ele><time>2026-04-26T08:38:56Z</time></trkpt><trkpt lat="43.4468456866448" lon="12.426275107238931"><ele>580.0</ele><time>2026-04-26T08:38:58Z</time></trkpt><trkpt lat="43.44698649680991" lon="12.426310534340962"><ele>580.25</ele><time>2026-04-26T08:39:00Z</time></trkpt><trkpt lat="43.447081685393144" lon="12.426312270574797"><ele>580.5</ele><time>2026-04-26T08:39:01Z</time></trkpt><trkpt lat="43.44720906410672" lon="12.426267928352958"><ele>580.75</ele><time>2026-04-26T08:39:02Z</time></trkpt><trkpt lat="43.44734755168285" lon="12.426190557177078"><ele>581.0</ele><time>2026-04-26T08:39:03Z</time></trkpt><trkpt lat="43.447497494100205" lon="12.42610450367612"><ele>580.3333333333333</ele><time>2026-04-26T08:39:04Z</time></trkpt><trkpt lat="43.44768362857186" lon="12.426037088936356"><ele>579.6666666666666</ele><time>2026-04-26T08:39:05Z</time></trkpt><trkpt lat="43.447870223017816" lon="12.425951945996712"><ele>579.0</ele><time>2026-04-26T08:39:06Z</time></trkpt><trkpt lat="43.4480758010111" lon="12.425881159448489"><ele>579.0</ele><time>2026-04-26T08:39:07Z</time></trkpt><trkpt lat="43.448272025095974" lon="12.425821227326098"><ele>579.0</ele><time>2026-04-26T08:39:08Z</time></trkpt><trkpt lat="43.44846378376806" lon="12.42584922764988"><ele>579.0</ele><time>2026-04-26T08:39:09Z</time></trkpt><trkpt lat="43.448688132407966" lon="12.425921475540724"><ele>579.5</ele><time>2026-04-26T08:39:09.999Z</time></trkpt><trkpt lat="43.448924119587325" lon="12.42601462671551"><ele>580.0</ele><time>2026-04-26T08:39:10.999Z</time></trkpt><trkpt lat="43.44917991880446" lon="12.426106380505772"><ele>580.0</ele><time>2026-04-26T08:39:11.999Z</time></trkpt><trkpt lat="43.44943528915856" lon="12.42617456731077"><ele>580.0</ele><time>2026-04-26T08:39:12.999Z</time></trkpt><trkpt lat="43.449644484178634" lon="12.42625975771605"><ele>577.5</ele><time>2026-04-26T08:39:13.999Z</time></trkpt><trkpt lat="43.44978206723577" lon="12.426391298292936"><ele>575.0</ele><time>2026-04-26T08:39:14.999Z</time></trkpt><trkpt lat="43.44988580932819" lon="12.426517642944507"><ele>572.5</ele><time>2026-04-26T08:39:15.999Z</time></trkpt><trkpt lat="43.44996748454939" lon="12.426678880870384"><ele>570.0</ele><time>2026-04-26T08:39:16.999Z</time></trkpt><trkpt lat="43.45000690977764" lon="12.426848208768261"><ele>570.0</ele><time>2026-04-26T08:39:17.999Z</time></trkpt><trkpt lat="43.44998117116186" lon="12.426997805054176"><ele>570.0</ele><time>2026-04-26T08:39:18.999Z</time></trkpt><trkpt lat="43.44994331550023" lon="12.427167132317747"><ele>570.0</ele><time>2026-04-26T08:39:19.999Z</time></trkpt><trkpt lat="43.44976716826297" lon="12.42725703510439"><ele>570.0</ele><time>2026-04-26T08:39:20.999Z</time></trkpt><trkpt lat="43.44960047850326" lon="12.427422880230193"><ele>563.6666666666666</ele><time>2026-04-26T08:39:21.999Z</time></trkpt><trkpt lat="43.449444678601985" lon="12.427601808257695"><ele>557.3333333333333</ele><time>2026-04-26T08:39:22.999Z</time></trkpt><trkpt lat="43.44929118460752" lon="12.427752125176157"><ele>551.0</ele><time>2026-04-26T08:39:23.999Z</time></trkpt><trkpt lat="43.44916335081907" lon="12.42791455535852"><ele>551.3333333333333</ele><time>2026-04-26T08:39:24.999Z</time></trkpt><trkpt lat="43.44904849756661" lon="12.428090074249404"><ele>551.6666666666666</ele><time>2026-04-26T08:39:25.999Z</time></trkpt><trkpt lat="43.448947060676026" lon="12.42830169317662"><ele>552.0</ele><time>2026-04-26T08:39:26.999Z</time></trkpt><trkpt lat="43.448841855120975" lon="12.428529694985993"><ele>546.0</ele><time>2026-04-26T08:39:27.999Z</time></trkpt><trkpt lat="43.44873223555739" lon="12.428789845450526"><ele>540.0</ele><time>2026-04-26T08:39:28.999Z</time></trkpt><trkpt lat="43.44863149937019" lon="12.429090562265726"><ele>540.6666666666666</ele><time>2026-04-26T08:39:29.999Z</time></trkpt><trkpt lat="43.44853293835321" lon="12.429372058949383"><ele>541.3333333333333</ele><time>2026-04-26T08:39:30.999Z</time></trkpt><trkpt lat="43.448430690117036" lon="12.429623974180329"><ele>542.0</ele><time>2026-04-26T08:39:31.999Z</time></trkpt><trkpt lat="43.448332571265" lon="12.429864150309808"><ele>542.0</ele><time>2026-04-26T08:39:32.999Z</time></trkpt><trkpt lat="43.44824650541005" lon="12.430093463577528"><ele>542.0</ele><time>2026-04-26T08:39:33.999Z</time></trkpt><trkpt lat="43.44817860843746" lon="12.430319651238687"><ele>542.0</ele><time>2026-04-26T08:39:34.999Z</time></trkpt><trkpt lat="43.44808889651188" lon="12.430534513658706"><ele>541.6666666666666</ele><time>2026-04-26T08:39:35.999Z</time></trkpt><trkpt lat="43.44800732190559" lon="12.430794813154487"><ele>541.3333333333334</ele><time>2026-04-26T08:39:36.999Z</time></trkpt><trkpt lat="43.44792707055336" lon="12.43105622868437"><ele>541.0</ele><time>2026-04-26T08:39:37.999Z</time></trkpt><trkpt lat="43.44784178683286" lon="12.431303399751698"><ele>534.3333333333334</ele><time>2026-04-26T08:39:38.999Z</time></trkpt><trkpt lat="43.447752833461294" lon="12.431517687906412"><ele>527.6666666666666</ele><time>2026-04-26T08:39:39.999Z</time></trkpt><trkpt lat="43.447628861133225" lon="12.431786718459376"><ele>521.0</ele><time>2026-04-26T08:39:40.999Z</time></trkpt><trkpt lat="43.447482565837106" lon="12.432089740764303"><ele>519.0</ele><time>2026-04-26T08:39:41.999Z</time></trkpt><trkpt lat="43.44733657672762" lon="12.432376613895759"><ele>517.0</ele><time>2026-04-26T08:39:42.999Z</time></trkpt><trkpt lat="43.447195746964525" lon="12.432642226219492"><ele>517.0</ele><time>2026-04-26T08:39:43.999Z</time></trkpt><trkpt lat="43.447070332899514" lon="12.43288251321656"><ele>517.0</ele><time>2026-04-26T08:39:44.999Z</time></trkpt><trkpt lat="43.446965456745865" lon="12.433122052834205"><ele>517.0</ele><time>2026-04-26T08:39:45.999Z</time></trkpt><trkpt lat="43.44685511057144" lon="12.433331695775122"><ele>515.3333333333334</ele><time>2026-04-26T08:39:46.999Z</time></trkpt><trkpt lat="43.44675579823867" lon="12.43351511911836"><ele>513.6666666666666</ele><time>2026-04-26T08:39:47.999Z</time></trkpt><trkpt lat="43.446660543265054" lon="12.433704227391866"><ele>512.0</ele><time>2026-04-26T08:39:48.999Z</time></trkpt><trkpt lat="43.44658222022652" lon="12.433885288294125"><ele>512.0</ele><time>2026-04-26T08:39:49.999Z</time></trkpt><trkpt lat="43.44652008293792" lon="12.434073882518188"><ele>512.0</ele><time>2026-04-26T08:39:50.999Z</time></trkpt><trkpt lat="43.44646805361658" lon="12.434282321618698"><ele>512.0</ele><time>2026-04-26T08:39:51.999Z</time></trkpt><trkpt lat="43.44642998405577" lon="12.434498985312603"><ele>512.5</ele><time>2026-04-26T08:39:52.999Z</time></trkpt><trkpt lat="43.446399468753086" lon="12.434703890545363"><ele>513.0</ele><time>2026-04-26T08:39:53.999Z</time></trkpt><trkpt lat="43.44638717031409" lon="12.434872942147631"><ele>513.5</ele><time>2026-04-26T08:39:54.999Z</time></trkpt><trkpt lat="43.446377966605816" lon="12.435027670513028"><ele>514.0</ele><time>2026-04-26T08:39:55.999Z</time></trkpt><trkpt lat="43.44637288528779" lon="12.435161357576094"><ele>514.0</ele><time>2026-04-26T08:39:56.999Z</time></trkpt><trkpt lat="43.446349006722336" lon="12.435294542428727"><ele>514.0</ele><time>2026-04-26T08:39:57.999Z</time></trkpt><trkpt lat="43.4463257611399" lon="12.435392763692525"><ele>514.0</ele><time>2026-04-26T08:39:58.999Z</time></trkpt><trkpt lat="43.446297154119726" lon="12.43549454449453"><ele>514.0</ele><time>2026-04-26T08:39:59.999Z</time></trkpt><trkpt lat="43.44626788991921" lon="12.435581777461824"><ele>514.0</ele><time>2026-04-26T08:40:00.999Z</time></trkpt><trkpt lat="43.446246635038925" lon="12.43566692585526"><ele>514.0</ele><time>2026-04-26T08:40:03.999Z</time></trkpt><trkpt lat="43.446135050754826" lon="12.435629567767812"><ele>516.2</ele><time>2026-04-26T08:40:07.999Z</time></trkpt><trkpt lat="43.44605143834196" lon="12.435617661150356"><ele>518.4</ele><time>2026-04-26T08:40:08.999Z</time></trkpt><trkpt lat="43.445941598177505" lon="12.435602019537594"><ele>520.6</ele><time>2026-04-26T08:40:09.999Z</time></trkpt><trkpt lat="43.445823532823496" lon="12.435581993982215"><ele>522.8</ele><time>2026-04-26T08:40:10.999Z</time></trkpt><trkpt lat="43.44569595152493" lon="12.435551385481713"><ele>525.0</ele><time>2026-04-26T08:40:11.999Z</time></trkpt><trkpt lat="43.445563458345404" lon="12.435512663402903"><ele>525.25</ele><time>2026-04-26T08:40:12.998Z</time></trkpt><trkpt lat="43.445430918390976" lon="12.435472646672098"><ele>525.5</ele><time>2026-04-26T08:40:13.998Z</time></trkpt><trkpt lat="43.44528851858453" lon="12.435460380622223"><ele>525.75</ele><time>2026-04-26T08:40:14.998Z</time></trkpt><trkpt lat="43.44514382457161" lon="12.435414988977959"><ele>526.0</ele><time>2026-04-26T08:40:15.998Z</time></trkpt><trkpt lat="43.44499768575851" lon="12.435362787635983"><ele>526.0</ele><time>2026-04-26T08:40:16.998Z</time></trkpt><trkpt lat="43.44485104123276" lon="12.435316535827008"><ele>526.0</ele><time>2026-04-26T08:40:17.998Z</time></trkpt><trkpt lat="43.44468952514678" lon="12.435240251513257"><ele>526.0</ele><time>2026-04-26T08:40:18.998Z</time></trkpt><trkpt lat="43.44453249792698" lon="12.435211988173638"><ele>526.0</ele><time>2026-04-26T08:40:19.998Z</time></trkpt><trkpt lat="43.44438966857502" lon="12.435159595470013"><ele>526.0</ele><time>2026-04-26T08:40:20.998Z</time></trkpt><trkpt lat="43.44425752386571" lon="12.435109372004469"><ele>526.0</ele><time>2026-04-26T08:40:21.998Z</time></trkpt><trkpt lat="43.444109464560505" lon="12.435057034115259"><ele>526.0</ele><time>2026-04-26T08:40:22.998Z</time></trkpt><trkpt lat="43.4439911573056" lon="12.435000992243038"><ele>526.0</ele><time>2026-04-26T08:40:23.998Z</time></trkpt><trkpt lat="43.44388662224288" lon="12.434938392603279"><ele>526.0</ele><time>2026-04-26T08:40:24.998Z</time></trkpt><trkpt lat="43.44377637988156" lon="12.43489988620152"><ele>526.0</ele><time>2026-04-26T08:40:25.998Z</time></trkpt><trkpt lat="43.443670492401374" lon="12.434868756830259"><ele>526.0</ele><time>2026-04-26T08:40:26.998Z</time></trkpt><trkpt lat="43.44356284008755" lon="12.434856448139751"><ele>526.0</ele><time>2026-04-26T08:40:27.998Z</time></trkpt><trkpt lat="43.44345017771874" lon="12.434831614870303"><ele>526.2</ele><time>2026-04-26T08:40:28.998Z</time></trkpt><trkpt lat="43.44332522406043" lon="12.434801377788133"><ele>526.4000000000001</ele><time>2026-04-26T08:40:29.998Z</time></trkpt><trkpt lat="43.443217719957545" lon="12.434770797098032"><ele>526.6</ele><time>2026-04-26T08:40:30.998Z</time></trkpt><trkpt lat="43.44311385548588" lon="12.43474143738085"><ele>526.8000000000001</ele><time>2026-04-26T08:40:31.998Z</time></trkpt><trkpt lat="43.44302506104523" lon="12.434716325666713"><ele>527.0</ele><time>2026-04-26T08:40:32.998Z</time></trkpt><trkpt lat="43.44294096049441" lon="12.434693048379849"><ele>528.4</ele><time>2026-04-26T08:40:33.998Z</time></trkpt><trkpt lat="43.44284984159799" lon="12.434674940733581"><ele>529.8000000000001</ele><time>2026-04-26T08:40:34.998Z</time></trkpt><trkpt lat="43.442772304344004" lon="12.434656803292999"><ele>531.2</ele><time>2026-04-26T08:40:35.998Z</time></trkpt><trkpt lat="43.442676044074524" lon="12.434635642380979"><ele>532.6</ele><time>2026-04-26T08:40:36.998Z</time></trkpt><trkpt lat="43.44257667025288" lon="12.434608835347209"><ele>534.0</ele><time>2026-04-26T08:40:37.998Z</time></trkpt><trkpt lat="43.44245762602803" lon="12.434538501774307"><ele>527.0</ele><time>2026-04-26T08:40:38.998Z</time></trkpt><trkpt lat="43.44230186841863" lon="12.434490479651032"><ele>520.0</ele><time>2026-04-26T08:40:39.998Z</time></trkpt><trkpt lat="43.44214085940761" lon="12.434440866300166"><ele>513.0</ele><time>2026-04-26T08:40:40.998Z</time></trkpt><trkpt lat="43.44196180473004" lon="12.434417316232942"><ele>512.6666666666666</ele><time>2026-04-26T08:40:41.998Z</time></trkpt><trkpt lat="43.4417817406393" lon="12.434404663807303"><ele>512.3333333333333</ele><time>2026-04-26T08:40:42.998Z</time></trkpt><trkpt lat="43.44157277076801" lon="12.434415415971824"><ele>512.0</ele><time>2026-04-26T08:40:43.998Z</time></trkpt><trkpt lat="43.44136860405219" lon="12.434420494539696"><ele>510.66666666666663</ele><time>2026-04-26T08:40:44.998Z</time></trkpt><trkpt lat="43.44118509876768" lon="12.434402816534512"><ele>509.33333333333337</ele><time>2026-04-26T08:40:45.998Z</time></trkpt><trkpt lat="43.44101084637185" lon="12.434404274160942"><ele>508.0</ele><time>2026-04-26T08:40:46.998Z</time></trkpt><trkpt lat="43.440852728353754" lon="12.434407252591212"><ele>508.0</ele><time>2026-04-26T08:40:47.998Z</time></trkpt><trkpt lat="43.44070198715164" lon="12.434410092069884"><ele>508.0</ele><time>2026-04-26T08:40:48.998Z</time></trkpt><trkpt lat="43.440552967997775" lon="12.434406796642206"><ele>508.0</ele><time>2026-04-26T08:40:49.998Z</time></trkpt><trkpt lat="43.4404031295282" lon="12.434410515853324"><ele>506.33333333333337</ele><time>2026-04-26T08:40:50.998Z</time></trkpt><trkpt lat="43.4402449901511" lon="12.434413130028764"><ele>504.66666666666663</ele><time>2026-04-26T08:40:51.998Z</time></trkpt><trkpt lat="43.44008136047211" lon="12.43441498057015"><ele>503.0</ele><time>2026-04-26T08:40:52.998Z</time></trkpt><trkpt lat="43.43992356967684" lon="12.434412095882513"><ele>503.0</ele><time>2026-04-26T08:40:53.998Z</time></trkpt><trkpt lat="43.43977524147672" lon="12.434408897363236"><ele>503.0</ele><time>2026-04-26T08:40:54.998Z</time></trkpt><trkpt lat="43.43964765601939" lon="12.434405612191776"><ele>503.0</ele><time>2026-04-26T08:40:55.998Z</time></trkpt><trkpt lat="43.43952302959703" lon="12.434410258178369"><ele>503.0</ele><time>2026-04-26T08:40:56.998Z</time></trkpt><trkpt lat="43.43941888530272" lon="12.434403360870123"><ele>502.66666666666663</ele><time>2026-04-26T08:40:57.998Z</time></trkpt><trkpt lat="43.439335011170535" lon="12.434408463665383"><ele>502.3333333333333</ele><time>2026-04-26T08:40:58.998Z</time></trkpt><trkpt lat="43.43926033067978" lon="12.434404392081959"><ele>502.0</ele><time>2026-04-26T08:40:59.998Z</time></trkpt><trkpt lat="43.43918956955549" lon="12.434375425345344"><ele>501.66666666666663</ele><time>2026-04-26T08:41:00.998Z</time></trkpt><trkpt lat="43.43910144034236" lon="12.434391320160485"><ele>501.3333333333333</ele><time>2026-04-26T08:41:01.998Z</time></trkpt><trkpt lat="43.43901651378908" lon="12.434385394121978"><ele>501.0</ele><time>2026-04-26T08:41:02.998Z</time></trkpt><trkpt lat="43.43892026372717" lon="12.43438034563244"><ele>501.0</ele><time>2026-04-26T08:41:03.998Z</time></trkpt><trkpt lat="43.43883545175189" lon="12.434387160008052"><ele>501.0</ele><time>2026-04-26T08:41:04.998Z</time></trkpt><trkpt lat="43.43875416736732" lon="12.434386877151637"><ele>501.0</ele><time>2026-04-26T08:41:05.998Z</time></trkpt><trkpt lat="43.43865629139791" lon="12.434383560827595"><ele>501.0</ele><time>2026-04-26T08:41:06.998Z</time></trkpt><trkpt lat="43.43854792719573" lon="12.434366938829081"><ele>501.0</ele><time>2026-04-26T08:41:07.998Z</time></trkpt><trkpt lat="43.43843400163471" lon="12.434336982692875"><ele>501.25</ele><time>2026-04-26T08:41:08.998Z</time></trkpt><trkpt lat="43.43831817917586" lon="12.43431496319744"><ele>501.5</ele><time>2026-04-26T08:41:09.998Z</time></trkpt><trkpt lat="43.43819356931362" lon="12.434287148454965"><ele>501.75</ele><time>2026-04-26T08:41:10.998Z</time></trkpt><trkpt lat="43.43806418484779" lon="12.434252025768384"><ele>502.0</ele><time>2026-04-26T08:41:11.998Z</time></trkpt><trkpt lat="43.43792741179071" lon="12.43421866284771"><ele>503.5</ele><time>2026-04-26T08:41:12.998Z</time></trkpt><trkpt lat="43.43778805137066" lon="12.434186056716774"><ele>505.0</ele><time>2026-04-26T08:41:13.998Z</time></trkpt><trkpt lat="43.4376456489135" lon="12.434149193466954"><ele>506.5</ele><time>2026-04-26T08:41:14.998Z</time></trkpt><trkpt lat="43.43749936680147" lon="12.43412280378449"><ele>508.0</ele><time>2026-04-26T08:41:15.998Z</time></trkpt><trkpt lat="43.4373492963219" lon="12.43408780755121"><ele>508.0</ele><time>2026-04-26T08:41:16.998Z</time></trkpt><trkpt lat="43.43721455491451" lon="12.434054066090916"><ele>508.0</ele><time>2026-04-26T08:41:17.998Z</time></trkpt><trkpt lat="43.43709335898593" lon="12.434025342711273"><ele>508.0</ele><time>2026-04-26T08:41:18.997Z</time></trkpt><trkpt lat="43.43698585013957" lon="12.433996220042625"><ele>508.0</ele><time>2026-04-26T08:41:19.997Z</time></trkpt><trkpt lat="43.43688674928043" lon="12.433978141613197"><ele>508.79999999999995</ele><time>2026-04-26T08:41:20.997Z</time></trkpt><trkpt lat="43.436794370972805" lon="12.43397412986414"><ele>509.59999999999997</ele><time>2026-04-26T08:41:21.997Z</time></trkpt><trkpt lat="43.43669014004406" lon="12.433970442669711"><ele>510.40000000000003</ele><time>2026-04-26T08:41:22.997Z</time></trkpt><trkpt lat="43.43659549836532" lon="12.433943844488718"><ele>511.20000000000005</ele><time>2026-04-26T08:41:23.997Z</time></trkpt><trkpt lat="43.436483119785905" lon="12.433943211212767"><ele>512.0</ele><time>2026-04-26T08:41:24.997Z</time></trkpt><trkpt lat="43.436370666997796" lon="12.433968988335279"><ele>511.8</ele><time>2026-04-26T08:41:25.997Z</time></trkpt><trkpt lat="43.436268173041206" lon="12.434001434446788"><ele>511.6</ele><time>2026-04-26T08:41:26.997Z</time></trkpt><trkpt lat="43.43618270255244" lon="12.434006000409385"><ele>511.40000000000003</ele><time>2026-04-26T08:41:27.997Z</time></trkpt><trkpt lat="43.43609637331844" lon="12.434015890422737"><ele>511.20000000000005</ele><time>2026-04-26T08:41:28.997Z</time></trkpt><trkpt lat="43.43600621384996" lon="12.43403584833822"><ele>511.0</ele><time>2026-04-26T08:41:29.997Z</time></trkpt><trkpt lat="43.4358899041692" lon="12.434010768215687"><ele>511.0</ele><time>2026-04-26T08:41:30.997Z</time></trkpt><trkpt lat="43.435757693727396" lon="12.434016882226993"><ele>511.0</ele><time>2026-04-26T08:41:31.997Z</time></trkpt><trkpt lat="43.43559785947774" lon="12.434048237915125"><ele>511.0</ele><time>2026-04-26T08:41:32.997Z</time></trkpt><trkpt lat="43.435444664039416" lon="12.4340268253466"><ele>511.0</ele><time>2026-04-26T08:41:33.997Z</time></trkpt><trkpt lat="43.43530135949911" lon="12.434028205960166"><ele>509.6666666666667</ele><time>2026-04-26T08:41:34.997Z</time></trkpt><trkpt lat="43.43513797138479" lon="12.434037072779985"><ele>508.33333333333337</ele><time>2026-04-26T08:41:35.997Z</time></trkpt><trkpt lat="43.434972866777805" lon="12.43403298895924"><ele>507.0</ele><time>2026-04-26T08:41:36.997Z</time></trkpt><trkpt lat="43.43481477849727" lon="12.43402204343531"><ele>507.0</ele><time>2026-04-26T08:41:37.997Z</time></trkpt><trkpt lat="43.43464966644919" lon="12.434003654203567"><ele>507.0</ele><time>2026-04-26T08:41:38.997Z</time></trkpt><trkpt lat="43.4344753519293" lon="12.433990164179388"><ele>507.0</ele><time>2026-04-26T08:41:39.997Z</time></trkpt><trkpt lat="43.43429984044051" lon="12.433970490521885"><ele>507.0</ele><time>2026-04-26T08:41:40.997Z</time></trkpt><trkpt lat="43.43414149653428" lon="12.433943373563675"><ele>507.0</ele><time>2026-04-26T08:41:41.997Z</time></trkpt><trkpt lat="43.43398043434706" lon="12.43392859005751"><ele>507.0</ele><time>2026-04-26T08:41:42.997Z</time></trkpt><trkpt lat="43.43382238226236" lon="12.433888774002776"><ele>508.0</ele><time>2026-04-26T08:41:43.997Z</time></trkpt><trkpt lat="43.433665746938935" lon="12.433868145640941"><ele>509.0</ele><time>2026-04-26T08:41:44.997Z</time></trkpt><trkpt lat="43.43351814736678" lon="12.433867408066888"><ele>510.0</ele><time>2026-04-26T08:41:45.997Z</time></trkpt><trkpt lat="43.43338789047145" lon="12.433847480630183"><ele>511.0</ele><time>2026-04-26T08:41:46.997Z</time></trkpt><trkpt lat="43.433250294275496" lon="12.433831828850337"><ele>511.0</ele><time>2026-04-26T08:41:47.997Z</time></trkpt><trkpt lat="43.433103635233756" lon="12.43381669132648"><ele>511.0</ele><time>2026-04-26T08:41:48.997Z</time></trkpt><trkpt lat="43.432940515945965" lon="12.43377020997196"><ele>511.0</ele><time>2026-04-26T08:41:49.997Z</time></trkpt><trkpt lat="43.4327840267828" lon="12.433747089530437"><ele>506.6666666666667</ele><time>2026-04-26T08:41:50.997Z</time></trkpt><trkpt lat="43.43261423170517" lon="12.43372200129412"><ele>502.33333333333337</ele><time>2026-04-26T08:41:51.997Z</time></trkpt><trkpt lat="43.43244462041435" lon="12.433693795654115"><ele>498.0</ele><time>2026-04-26T08:41:52.997Z</time></trkpt><trkpt lat="43.43227484440768" lon="12.433673963636425"><ele>497.33333333333337</ele><time>2026-04-26T08:41:53.997Z</time></trkpt><trkpt lat="43.432100188178346" lon="12.433659911511155"><ele>496.6666666666667</ele><time>2026-04-26T08:41:54.997Z</time></trkpt><trkpt lat="43.431939832334564" lon="12.43364714508717"><ele>496.0</ele><time>2026-04-26T08:41:55.997Z</time></trkpt><trkpt lat="43.43178268986637" lon="12.43365054608084"><ele>496.0</ele><time>2026-04-26T08:41:56.997Z</time></trkpt><trkpt lat="43.431630034024934" lon="12.433677938923505"><ele>496.0</ele><time>2026-04-26T08:41:57.997Z</time></trkpt><trkpt lat="43.43145735298226" lon="12.433702415461303"><ele>496.0</ele><time>2026-04-26T08:41:58.997Z</time></trkpt><trkpt lat="43.43129091696948" lon="12.433735650109007"><ele>495.0</ele><time>2026-04-26T08:41:59.997Z</time></trkpt><trkpt lat="43.43112737238245" lon="12.433790025513641"><ele>494.0</ele><time>2026-04-26T08:42:00.997Z</time></trkpt><trkpt lat="43.430945680166516" lon="12.43383685510341"><ele>493.0</ele><time>2026-04-26T08:42:01.997Z</time></trkpt><trkpt lat="43.430772497984435" lon="12.433887911074498"><ele>494.6666666666667</ele><time>2026-04-26T08:42:02.997Z</time></trkpt><trkpt lat="43.430605364035" lon="12.43394351495245"><ele>496.33333333333337</ele><time>2026-04-26T08:42:03.997Z</time></trkpt><trkpt lat="43.430435132010906" lon="12.434006429634096"><ele>498.0</ele><time>2026-04-26T08:42:04.997Z</time></trkpt><trkpt lat="43.43027885860444" lon="12.434077356940426"><ele>498.0</ele><time>2026-04-26T08:42:05.997Z</time></trkpt><trkpt lat="43.43014452352098" lon="12.434142874334617"><ele>498.0</ele><time>2026-04-26T08:42:06.997Z</time></trkpt><trkpt lat="43.430005855904994" lon="12.434202717138774"><ele>498.0</ele><time>2026-04-26T08:42:07.997Z</time></trkpt><trkpt lat="43.429867818476424" lon="12.43426774580342"><ele>498.0</ele><time>2026-04-26T08:42:08.997Z</time></trkpt><trkpt lat="43.429718635312454" lon="12.43436074661421"><ele>497.5</ele><time>2026-04-26T08:42:09.997Z</time></trkpt><trkpt lat="43.429582576685426" lon="12.434453861786084"><ele>497.0</ele><time>2026-04-26T08:42:10.997Z</time></trkpt><trkpt lat="43.42946665407431" lon="12.43456553173497"><ele>496.5</ele><time>2026-04-26T08:42:11.997Z</time></trkpt><trkpt lat="43.42938156434557" lon="12.434734985636767"><ele>496.0</ele><time>2026-04-26T08:42:12.997Z</time></trkpt><trkpt lat="43.42928967849722" lon="12.43486119964241"><ele>496.0</ele><time>2026-04-26T08:42:13.997Z</time></trkpt><trkpt lat="43.42920643202195" lon="12.434970674748847"><ele>496.0</ele><time>2026-04-26T08:42:14.997Z</time></trkpt><trkpt lat="43.42911863912039" lon="12.435050154827694"><ele>496.0</ele><time>2026-04-26T08:42:15.997Z</time></trkpt><trkpt lat="43.429040205612296" lon="12.435119071801445"><ele>496.0</ele><time>2026-04-26T08:42:16.997Z</time></trkpt><trkpt lat="43.428967104999174" lon="12.43518539090842"><ele>496.0</ele><time>2026-04-26T08:42:17.997Z</time></trkpt><trkpt lat="43.42890888716354" lon="12.435234879714185"><ele>496.0</ele><time>2026-04-26T08:42:18.997Z</time></trkpt><trkpt lat="43.42882757817486" lon="12.435297070191012"><ele>496.0</ele><time>2026-04-26T08:42:20.997Z</time></trkpt><trkpt lat="43.428885669732225" lon="12.435441620036881"><ele>496.0</ele><time>2026-04-26T08:42:22.997Z</time></trkpt><trkpt lat="43.42891762892095" lon="12.435516896992901"><ele>496.0</ele><time>2026-04-26T08:42:23.997Z</time></trkpt><trkpt lat="43.42896341791802" lon="12.43562143309273"><ele>496.0</ele><time>2026-04-26T08:42:24.996Z</time></trkpt><trkpt lat="43.429012680781376" lon="12.435754042885113"><ele>496.0</ele><time>2026-04-26T08:42:25.996Z</time></trkpt><trkpt lat="43.429061734054635" lon="12.43590292038134"><ele>496.0</ele><time>2026-04-26T08:42:26.996Z</time></trkpt><trkpt lat="43.42910793025733" lon="12.436085125788004"><ele>496.0</ele><time>2026-04-26T08:42:27.996Z</time></trkpt><trkpt lat="43.42917450145952" lon="12.436295044778037"><ele>496.0</ele><time>2026-04-26T08:42:28.996Z</time></trkpt><trkpt lat="43.429238661049304" lon="12.436501751486707"><ele>499.6666666666667</ele><time>2026-04-26T08:42:29.996Z</time></trkpt><trkpt lat="43.429317953438115" lon="12.436721843684767"><ele>503.33333333333337</ele><time>2026-04-26T08:42:30.996Z</time></trkpt><trkpt lat="43.42940870933799" lon="12.436939695979227"><ele>507.0</ele><time>2026-04-26T08:42:31.996Z</time></trkpt><trkpt lat="43.42950571830694" lon="12.437147566348525"><ele>507.5</ele><time>2026-04-26T08:42:32.996Z</time></trkpt><trkpt lat="43.42960371729036" lon="12.43732453427741"><ele>508.0</ele><time>2026-04-26T08:42:33.996Z</time></trkpt><trkpt lat="43.42968163289956" lon="12.437467748667359"><ele>508.5</ele><time>2026-04-26T08:42:34.996Z</time></trkpt><trkpt lat="43.4297509304682" lon="12.437600023076204"><ele>509.0</ele><time>2026-04-26T08:42:35.996Z</time></trkpt><trkpt lat="43.42977191158699" lon="12.437711372933293"><ele>509.0</ele><time>2026-04-26T08:42:36.996Z</time></trkpt><trkpt lat="43.42976775987434" lon="12.437872033804505"><ele>509.0</ele><time>2026-04-26T08:42:38.996Z</time></trkpt><trkpt lat="43.4296742509794" lon="12.437912775995207"><ele>509.0</ele><time>2026-04-26T08:42:39.996Z</time></trkpt><trkpt lat="43.42957847295757" lon="12.4378494738532"><ele>509.0</ele><time>2026-04-26T08:42:40.996Z</time></trkpt><trkpt lat="43.42950010294293" lon="12.437757179076696"><ele>509.0</ele><time>2026-04-26T08:42:41.996Z</time></trkpt><trkpt lat="43.429368279024494" lon="12.437627993035251"><ele>512.5</ele><time>2026-04-26T08:42:42.996Z</time></trkpt><trkpt lat="43.4292288422342" lon="12.437556140891475"><ele>516.0</ele><time>2026-04-26T08:42:43.996Z</time></trkpt><trkpt lat="43.42910209871723" lon="12.43746753341921"><ele>519.5</ele><time>2026-04-26T08:42:44.996Z</time></trkpt><trkpt lat="43.42895427098974" lon="12.437395105266884"><ele>523.0</ele><time>2026-04-26T08:42:45.996Z</time></trkpt><trkpt lat="43.42880723708276" lon="12.437329828542538"><ele>526.75</ele><time>2026-04-26T08:42:46.996Z</time></trkpt><trkpt lat="43.428668235252154" lon="12.437288103677078"><ele>530.5</ele><time>2026-04-26T08:42:47.996Z</time></trkpt><trkpt lat="43.42853198577639" lon="12.437278142650344"><ele>534.25</ele><time>2026-04-26T08:42:48.996Z</time></trkpt><trkpt lat="43.42840193197435" lon="12.437314338451602"><ele>538.0</ele><time>2026-04-26T08:42:49.996Z</time></trkpt><trkpt lat="43.428244370925896" lon="12.437347149966964"><ele>538.0</ele><time>2026-04-26T08:42:50.996Z</time></trkpt><trkpt lat="43.4280924564129" lon="12.437385113571176"><ele>538.0</ele><time>2026-04-26T08:42:51.996Z</time></trkpt><trkpt lat="43.42795405683633" lon="12.437432156769509"><ele>538.0</ele><time>2026-04-26T08:42:52.996Z</time></trkpt><trkpt lat="43.427816517391165" lon="12.43750132869924"><ele>538.0</ele><time>2026-04-26T08:42:53.996Z</time></trkpt><trkpt lat="43.427687944378775" lon="12.437588946952179"><ele>538.75</ele><time>2026-04-26T08:42:54.996Z</time></trkpt><trkpt lat="43.4275520021616" lon="12.437662287381428"><ele>539.5</ele><time>2026-04-26T08:42:55.996Z</time></trkpt><trkpt lat="43.42739586563923" lon="12.437626920784641"><ele>540.25</ele><time>2026-04-26T08:42:56.996Z</time></trkpt><trkpt lat="43.4272797301067" lon="12.43760254287187"><ele>541.0</ele><time>2026-04-26T08:42:57.996Z</time></trkpt><trkpt lat="43.427151682567974" lon="12.437560573299704"><ele>544.75</ele><time>2026-04-26T08:42:58.996Z</time></trkpt><trkpt lat="43.427034938475" lon="12.43748090078877"><ele>548.5</ele><time>2026-04-26T08:42:59.996Z</time></trkpt><trkpt lat="43.426928744082325" lon="12.437397843840907"><ele>552.25</ele><time>2026-04-26T08:43:00.996Z</time></trkpt><trkpt lat="43.426834639529886" lon="12.437351249619937"><ele>556.0</ele><time>2026-04-26T08:43:01.996Z</time></trkpt><trkpt lat="43.42673216228802" lon="12.437341564826845"><ele>556.0</ele><time>2026-04-26T08:43:02.996Z</time></trkpt><trkpt lat="43.42662369160878" lon="12.437336797676021"><ele>556.0</ele><time>2026-04-26T08:43:03.996Z</time></trkpt><trkpt lat="43.42649535485645" lon="12.437483856366201"><ele>556.0</ele><time>2026-04-26T08:43:04.996Z</time></trkpt><trkpt lat="43.42635307259821" lon="12.437536224945381"><ele>556.0</ele><time>2026-04-26T08:43:05.996Z</time></trkpt><trkpt lat="43.426205961555546" lon="12.437553614389602"><ele>554.0</ele><time>2026-04-26T08:43:06.996Z</time></trkpt><trkpt lat="43.42606353535973" lon="12.437596928905698"><ele>552.0</ele><time>2026-04-26T08:43:07.996Z</time></trkpt><trkpt lat="43.425943682959335" lon="12.43768749925355"><ele>550.0</ele><time>2026-04-26T08:43:08.996Z</time></trkpt><trkpt lat="43.42584313912183" lon="12.43776542687542"><ele>548.0</ele><time>2026-04-26T08:43:09.996Z</time></trkpt><trkpt lat="43.42574447655971" lon="12.437854805902491"><ele>550.6666666666666</ele><time>2026-04-26T08:43:10.996Z</time></trkpt><trkpt lat="43.42565255823068" lon="12.437984511942345"><ele>553.3333333333334</ele><time>2026-04-26T08:43:11.996Z</time></trkpt><trkpt lat="43.42553959715922" lon="12.438139452733543"><ele>556.0</ele><time>2026-04-26T08:43:12.996Z</time></trkpt><trkpt lat="43.42540776512623" lon="12.438260998764918"><ele>556.0</ele><time>2026-04-26T08:43:13.996Z</time></trkpt><trkpt lat="43.42528687083644" lon="12.43838905589323"><ele>556.0</ele><time>2026-04-26T08:43:14.996Z</time></trkpt><trkpt lat="43.42517081145609" lon="12.438534284747815"><ele>556.0</ele><time>2026-04-26T08:43:15.996Z</time></trkpt><trkpt lat="43.42509441091782" lon="12.438676819531917"><ele>556.0</ele><time>2026-04-26T08:43:16.996Z</time></trkpt><trkpt lat="43.42501596393585" lon="12.43881472172614"><ele>559.5</ele><time>2026-04-26T08:43:17.996Z</time></trkpt><trkpt lat="43.4249595791297" lon="12.43898280870349"><ele>563.0</ele><time>2026-04-26T08:43:18.996Z</time></trkpt><trkpt lat="43.424899968962606" lon="12.43916538779434"><ele>566.5</ele><time>2026-04-26T08:43:19.996Z</time></trkpt><trkpt lat="43.424857250222374" lon="12.439349513871928"><ele>570.0</ele><time>2026-04-26T08:43:20.996Z</time></trkpt><trkpt lat="43.424841831664246" lon="12.439564122381526"><ele>572.5</ele><time>2026-04-26T08:43:21.996Z</time></trkpt><trkpt lat="43.42480162960677" lon="12.43976645878811"><ele>575.0</ele><time>2026-04-26T08:43:22.996Z</time></trkpt><trkpt lat="43.42472809919549" lon="12.439915427863632"><ele>577.5</ele><time>2026-04-26T08:43:23.996Z</time></trkpt><trkpt lat="43.424645648025496" lon="12.440012784980247"><ele>580.0</ele><time>2026-04-26T08:43:24.996Z</time></trkpt><trkpt lat="43.4245656971241" lon="12.44009274962293"><ele>580.0</ele><time>2026-04-26T08:43:25.996Z</time></trkpt><trkpt lat="43.42447656992323" lon="12.440193902872767"><ele>580.0</ele><time>2026-04-26T08:43:26.996Z</time></trkpt><trkpt lat="43.424396263784345" lon="12.440298283995725"><ele>580.0</ele><time>2026-04-26T08:43:27.996Z</time></trkpt><trkpt lat="43.42429692054822" lon="12.440330284163766"><ele>580.0</ele><time>2026-04-26T08:43:28.996Z</time></trkpt><trkpt lat="43.42420146126405" lon="12.44031361875824"><ele>580.0</ele><time>2026-04-26T08:43:29.996Z</time></trkpt><trkpt lat="43.424104400824326" lon="12.440220741391421"><ele>580.0</ele><time>2026-04-26T08:43:30.995Z</time></trkpt><trkpt lat="43.424074868211335" lon="12.44007307181753"><ele>580.0</ele><time>2026-04-26T08:43:31.995Z</time></trkpt><trkpt lat="43.42400263150438" lon="12.439917987647435"><ele>580.0</ele><time>2026-04-26T08:43:32.995Z</time></trkpt><trkpt lat="43.423940862000215" lon="12.439776373376203"><ele>580.0</ele><time>2026-04-26T08:43:33.995Z</time></trkpt><trkpt lat="43.42387308091947" lon="12.439669365002752"><ele>578.5</ele><time>2026-04-26T08:43:34.995Z</time></trkpt><trkpt lat="43.423813769666744" lon="12.439542421491376"><ele>577.0</ele><time>2026-04-26T08:43:35.995Z</time></trkpt><trkpt lat="43.42373012632824" lon="12.439489888292592"><ele>575.5</ele><time>2026-04-26T08:43:36.995Z</time></trkpt><trkpt lat="43.423643548427805" lon="12.439431815494999"><ele>574.0</ele><time>2026-04-26T08:43:37.995Z</time></trkpt><trkpt lat="43.42348924369292" lon="12.439454384979953"><ele>578.25</ele><time>2026-04-26T08:43:38.995Z</time></trkpt><trkpt lat="43.42337996440266" lon="12.439416919664932"><ele>582.5</ele><time>2026-04-26T08:43:39.995Z</time></trkpt><trkpt lat="43.42330171242052" lon="12.439328971121784"><ele>586.75</ele><time>2026-04-26T08:43:40.995Z</time></trkpt><trkpt lat="43.42323420078164" lon="12.439188096803498"><ele>591.0</ele><time>2026-04-26T08:43:41.995Z</time></trkpt><trkpt lat="43.423158867559565" lon="12.439055612266383"><ele>591.0</ele><time>2026-04-26T08:43:42.995Z</time></trkpt><trkpt lat="43.423048128020895" lon="12.438948273037072"><ele>591.0</ele><time>2026-04-26T08:43:43.995Z</time></trkpt><trkpt lat="43.42291290212704" lon="12.438891667496597"><ele>591.0</ele><time>2026-04-26T08:43:44.995Z</time></trkpt><trkpt lat="43.42282446015932" lon="12.43875728097963"><ele>591.0</ele><time>2026-04-26T08:43:45.995Z</time></trkpt><trkpt lat="43.4227458404373" lon="12.438616070068482"><ele>591.4</ele><time>2026-04-26T08:43:46.995Z</time></trkpt><trkpt lat="43.42268018743324" lon="12.43851327463901"><ele>591.8</ele><time>2026-04-26T08:43:47.995Z</time></trkpt><trkpt lat="43.42261428749807" lon="12.438455900091567"><ele>592.1999999999999</ele><time>2026-04-26T08:43:48.995Z</time></trkpt><trkpt lat="43.422461939835536" lon="12.438416090690048"><ele>592.6</ele><time>2026-04-26T08:43:50.995Z</time></trkpt><trkpt lat="43.42237197267458" lon="12.438475192310639"><ele>593.0</ele><time>2026-04-26T08:43:51.995Z</time></trkpt><trkpt lat="43.42229171506988" lon="12.438614379661226"><ele>593.0</ele><time>2026-04-26T08:43:52.995Z</time></trkpt><trkpt lat="43.42220481201343" lon="12.43877800570541"><ele>593.0</ele><time>2026-04-26T08:43:53.995Z</time></trkpt><trkpt lat="43.42209268474579" lon="12.438954166082004"><ele>593.0</ele><time>2026-04-26T08:43:54.995Z</time></trkpt><trkpt lat="43.42196195707638" lon="12.439157186815494"><ele>596.3333333333333</ele><time>2026-04-26T08:43:55.995Z</time></trkpt><trkpt lat="43.42181753379038" lon="12.439324100655773"><ele>599.6666666666666</ele><time>2026-04-26T08:43:56.995Z</time></trkpt><trkpt lat="43.42167589377857" lon="12.439455693704705"><ele>603.0</ele><time>2026-04-26T08:43:57.995Z</time></trkpt><trkpt lat="43.42155327847301" lon="12.439557757833184"><ele>606.0</ele><time>2026-04-26T08:43:58.995Z</time></trkpt><trkpt lat="43.42146122032736" lon="12.439653908992852"><ele>609.0</ele><time>2026-04-26T08:43:59.995Z</time></trkpt><trkpt lat="43.42138638761501" lon="12.439757090691547"><ele>612.0</ele><time>2026-04-26T08:44:00.995Z</time></trkpt><trkpt lat="43.421348542456414" lon="12.439881193238415"><ele>615.0</ele><time>2026-04-26T08:44:01.995Z</time></trkpt><trkpt lat="43.421349884106675" lon="12.440065788589243"><ele>615.0</ele><time>2026-04-26T08:44:02.995Z</time></trkpt><trkpt lat="43.42139885062795" lon="12.440227321672312"><ele>615.0</ele><time>2026-04-26T08:44:03.995Z</time></trkpt><trkpt lat="43.42145798001946" lon="12.44037069693641"><ele>615.0</ele><time>2026-04-26T08:44:04.995Z</time></trkpt><trkpt lat="43.42152914721942" lon="12.440523050503478"><ele>615.0</ele><time>2026-04-26T08:44:05.995Z</time></trkpt><trkpt lat="43.42163694118835" lon="12.440703427428653"><ele>615.0</ele><time>2026-04-26T08:44:06.995Z</time></trkpt><trkpt lat="43.42176856149318" lon="12.440930886219425"><ele>615.0</ele><time>2026-04-26T08:44:07.995Z</time></trkpt><trkpt lat="43.421836632771694" lon="12.441101350774069"><ele>615.0</ele><time>2026-04-26T08:44:08.995Z</time></trkpt><trkpt lat="43.421813157327136" lon="12.441281736283438"><ele>617.0</ele><time>2026-04-26T08:44:09.995Z</time></trkpt><trkpt lat="43.42173699643015" lon="12.441412928806143"><ele>619.0</ele><time>2026-04-26T08:44:10.995Z</time></trkpt><trkpt lat="43.42165412550553" lon="12.441593293183779"><ele>621.0</ele><time>2026-04-26T08:44:11.995Z</time></trkpt><trkpt lat="43.42155327543809" lon="12.441788241188041"><ele>621.0</ele><time>2026-04-26T08:44:12.995Z</time></trkpt><trkpt lat="43.4214313309907" lon="12.44198346976867"><ele>621.0</ele><time>2026-04-26T08:44:13.995Z</time></trkpt><trkpt lat="43.421303402958245" lon="12.442138161060617"><ele>621.0</ele><time>2026-04-26T08:44:14.995Z</time></trkpt><trkpt lat="43.42116697814341" lon="12.442256033582423"><ele>623.3333333333334</ele><time>2026-04-26T08:44:15.995Z</time></trkpt><trkpt lat="43.42102946488126" lon="12.442348142032237"><ele>625.6666666666667</ele><time>2026-04-26T08:44:16.995Z</time></trkpt><trkpt lat="43.42091098234869" lon="12.44248448857978"><ele>628.0</ele><time>2026-04-26T08:44:17.995Z</time></trkpt><trkpt lat="43.42079921636904" lon="12.442614603604547"><ele>628.0</ele><time>2026-04-26T08:44:18.995Z</time></trkpt><trkpt lat="43.420693195573584" lon="12.442776992362642"><ele>628.0</ele><time>2026-04-26T08:44:19.995Z</time></trkpt><trkpt lat="43.42062790476925" lon="12.443010978688163"><ele>628.0</ele><time>2026-04-26T08:44:20.995Z</time></trkpt><trkpt lat="43.42051637495845" lon="12.443220901293104"><ele>631.0</ele><time>2026-04-26T08:44:21.995Z</time></trkpt><trkpt lat="43.42039811371554" lon="12.443326972883566"><ele>634.0</ele><time>2026-04-26T08:44:22.995Z</time></trkpt><trkpt lat="43.420261234297236" lon="12.443427878980899"><ele>637.0</ele><time>2026-04-26T08:44:23.995Z</time></trkpt><trkpt lat="43.420164096459" lon="12.443548771021392"><ele>640.0</ele><time>2026-04-26T08:44:24.995Z</time></trkpt><trkpt lat="43.42008906726888" lon="12.4436935730542"><ele>640.0</ele><time>2026-04-26T08:44:25.995Z</time></trkpt><trkpt lat="43.419960502848326" lon="12.443769710353623"><ele>640.0</ele><time>2026-04-26T08:44:26.995Z</time></trkpt><trkpt lat="43.41994707809025" lon="12.443995753855463"><ele>640.0</ele><time>2026-04-26T08:44:27.995Z</time></trkpt><trkpt lat="43.419893666760736" lon="12.444141070018722"><ele>640.0</ele><time>2026-04-26T08:44:28.995Z</time></trkpt><trkpt lat="43.41985881834475" lon="12.444247709285412"><ele>642.0</ele><time>2026-04-26T08:44:29.995Z</time></trkpt><trkpt lat="43.41982298685901" lon="12.44432601317557"><ele>644.0</ele><time>2026-04-26T08:44:31.995Z</time></trkpt><trkpt lat="43.41963670446079" lon="12.444378121681808"><ele>646.0</ele><time>2026-04-26T08:47:54.991Z</time></trkpt><trkpt lat="43.41952815610613" lon="12.444393167739957"><ele>648.0</ele><time>2026-04-26T08:47:55.991Z</time></trkpt><trkpt lat="43.4194089664865" lon="12.444366724238066"><ele>648.0</ele><time>2026-04-26T08:47:56.991Z</time></trkpt><trkpt lat="43.41929160442055" lon="12.444376962749672"><ele>648.0</ele><time>2026-04-26T08:47:57.991Z</time></trkpt><trkpt lat="43.41915426604704" lon="12.444351075315266"><ele>648.0</ele><time>2026-04-26T08:47:58.991Z</time></trkpt><trkpt lat="43.41901020881987" lon="12.444300431993806"><ele>648.0</ele><time>2026-04-26T08:47:59.991Z</time></trkpt><trkpt lat="43.41888991374523" lon="12.444277792398953"><ele>649.25</ele><time>2026-04-26T08:48:00.991Z</time></trkpt><trkpt lat="43.418774454777584" lon="12.444269032046442"><ele>650.5</ele><time>2026-04-26T08:48:01.991Z</time></trkpt><trkpt lat="43.41864331830149" lon="12.444283179471244"><ele>651.75</ele><time>2026-04-26T08:48:02.991Z</time></trkpt><trkpt lat="43.41849756402259" lon="12.444307536883574"><ele>653.0</ele><time>2026-04-26T08:48:03.991Z</time></trkpt><trkpt lat="43.418337364639996" lon="12.444335553653652"><ele>653.0</ele><time>2026-04-26T08:48:04.991Z</time></trkpt><trkpt lat="43.41816931349236" lon="12.44437402975575"><ele>653.0</ele><time>2026-04-26T08:48:05.991Z</time></trkpt><trkpt lat="43.418001361967356" lon="12.444389958509612"><ele>653.0</ele><time>2026-04-26T08:48:06.991Z</time></trkpt><trkpt lat="43.417828692743996" lon="12.444374159806419"><ele>656.3333333333333</ele><time>2026-04-26T08:48:07.991Z</time></trkpt><trkpt lat="43.41763397675379" lon="12.444358778683638"><ele>659.6666666666666</ele><time>2026-04-26T08:48:08.991Z</time></trkpt><trkpt lat="43.41742832467758" lon="12.444341474347947"><ele>663.0</ele><time>2026-04-26T08:48:09.991Z</time></trkpt><trkpt lat="43.41723175311179" lon="12.4443091767398"><ele>666.0</ele><time>2026-04-26T08:48:10.991Z</time></trkpt><trkpt lat="43.4170568928802" lon="12.444312632409433"><ele>669.0</ele><time>2026-04-26T08:48:11.991Z</time></trkpt><trkpt lat="43.41688872667319" lon="12.444294484433334"><ele>672.0</ele><time>2026-04-26T08:48:12.991Z</time></trkpt><trkpt lat="43.41672023222326" lon="12.444228452848542"><ele>672.0</ele><time>2026-04-26T08:48:13.991Z</time></trkpt><trkpt lat="43.41657603009339" lon="12.444135355966031"><ele>672.0</ele><time>2026-04-26T08:48:14.991Z</time></trkpt><trkpt lat="43.41645862247575" lon="12.444056181064298"><ele>672.0</ele><time>2026-04-26T08:48:15.991Z</time></trkpt><trkpt lat="43.41633759043996" lon="12.443999201923678"><ele>672.0</ele><time>2026-04-26T08:48:16.991Z</time></trkpt><trkpt lat="43.41621031456967" lon="12.44402198211217"><ele>671.3333333333334</ele><time>2026-04-26T08:48:17.991Z</time></trkpt><trkpt lat="43.41604127331674" lon="12.444072706089598"><ele>670.6666666666667</ele><time>2026-04-26T08:48:18.991Z</time></trkpt><trkpt lat="43.41585994677961" lon="12.444089501275858"><ele>670.0</ele><time>2026-04-26T08:48:19.991Z</time></trkpt><trkpt lat="43.415661686812456" lon="12.44409034419861"><ele>671.6666666666667</ele><time>2026-04-26T08:48:20.991Z</time></trkpt><trkpt lat="43.41547212795571" lon="12.444049172023071"><ele>673.3333333333334</ele><time>2026-04-26T08:48:21.991Z</time></trkpt><trkpt lat="43.415316343509204" lon="12.444041747609768"><ele>675.0</ele><time>2026-04-26T08:48:22.991Z</time></trkpt><trkpt lat="43.41517957897021" lon="12.444064309731402"><ele>675.0</ele><time>2026-04-26T08:48:23.991Z</time></trkpt><trkpt lat="43.41502577216443" lon="12.444151350215526"><ele>675.0</ele><time>2026-04-26T08:48:24.991Z</time></trkpt><trkpt lat="43.41488119015347" lon="12.444271846676303"><ele>675.0</ele><time>2026-04-26T08:48:25.991Z</time></trkpt><trkpt lat="43.41473833168371" lon="12.444380057926237"><ele>676.6666666666666</ele><time>2026-04-26T08:48:26.991Z</time></trkpt><trkpt lat="43.41459833433525" lon="12.444469015978134"><ele>678.3333333333333</ele><time>2026-04-26T08:48:27.991Z</time></trkpt><trkpt lat="43.41444775823792" lon="12.444508916001443"><ele>680.0</ele><time>2026-04-26T08:48:28.991Z</time></trkpt><trkpt lat="43.41428918994891" lon="12.444466650986618"><ele>680.0</ele><time>2026-04-26T08:48:29.991Z</time></trkpt><trkpt lat="43.41411023616249" lon="12.444448048727038"><ele>680.0</ele><time>2026-04-26T08:48:30.991Z</time></trkpt><trkpt lat="43.41392802551095" lon="12.44440327940473"><ele>680.0</ele><time>2026-04-26T08:48:31.991Z</time></trkpt><trkpt lat="43.41376117066406" lon="12.444359678437712"><ele>681.3333333333333</ele><time>2026-04-26T08:48:32.991Z</time></trkpt><trkpt lat="43.413600554479785" lon="12.444354006644696"><ele>682.6666666666666</ele><time>2026-04-26T08:48:33.991Z</time></trkpt><trkpt lat="43.41342814611031" lon="12.444407589696517"><ele>684.0</ele><time>2026-04-26T08:48:34.991Z</time></trkpt><trkpt lat="43.413267526019666" lon="12.444494515209735"><ele>684.0</ele><time>2026-04-26T08:48:35.991Z</time></trkpt><trkpt lat="43.413092346750524" lon="12.444586300143854"><ele>684.0</ele><time>2026-04-26T08:48:36.991Z</time></trkpt><trkpt lat="43.41290133493462" lon="12.444638541296289"><ele>684.0</ele><time>2026-04-26T08:48:37.991Z</time></trkpt><trkpt lat="43.41272061949789" lon="12.444619051470145"><ele>683.6666666666666</ele><time>2026-04-26T08:48:38.991Z</time></trkpt><trkpt lat="43.41255997145968" lon="12.44456845432881"><ele>683.3333333333333</ele><time>2026-04-26T08:48:39.991Z</time></trkpt><trkpt lat="43.412410076537746" lon="12.444485255131992"><ele>683.0</ele><time>2026-04-26T08:48:40.991Z</time></trkpt><trkpt lat="43.41224475246693" lon="12.444357634716294"><ele>682.3333333333333</ele><time>2026-04-26T08:48:41.991Z</time></trkpt><trkpt lat="43.41207024941472" lon="12.444231365782548"><ele>681.6666666666666</ele><time>2026-04-26T08:48:42.991Z</time></trkpt><trkpt lat="43.4118830319476" lon="12.44409181127073"><ele>681.0</ele><time>2026-04-26T08:48:43.991Z</time></trkpt><trkpt lat="43.41167765210795" lon="12.443971643215365"><ele>681.0</ele><time>2026-04-26T08:48:44.991Z</time></trkpt><trkpt lat="43.41146989785904" lon="12.44388197376047"><ele>681.0</ele><time>2026-04-26T08:48:45.991Z</time></trkpt><trkpt lat="43.411277069847245" lon="12.443824405979798"><ele>681.0</ele><time>2026-04-26T08:48:46.991Z</time></trkpt><trkpt lat="43.4110718786063" lon="12.443791744021317"><ele>681.0</ele><time>2026-04-26T08:48:47.991Z</time></trkpt><trkpt lat="43.41086871444374" lon="12.443786887952292"><ele>681.0</ele><time>2026-04-26T08:48:48.991Z</time></trkpt><trkpt lat="43.41064477137795" lon="12.443816700696189"><ele>681.0</ele><time>2026-04-26T08:48:49.991Z</time></trkpt><trkpt lat="43.41042050536236" lon="12.443850613963097"><ele>680.3333333333334</ele><time>2026-04-26T08:48:50.991Z</time></trkpt><trkpt lat="43.41021325784076" lon="12.443886508516844"><ele>679.6666666666667</ele><time>2026-04-26T08:48:51.991Z</time></trkpt><trkpt lat="43.4100413283597" lon="12.443908924178308"><ele>679.0</ele><time>2026-04-26T08:48:52.991Z</time></trkpt><trkpt lat="43.40987499258382" lon="12.443937349009344"><ele>679.0</ele><time>2026-04-26T08:48:53.991Z</time></trkpt><trkpt lat="43.40970367107642" lon="12.443996378361252"><ele>679.0</ele><time>2026-04-26T08:48:54.991Z</time></trkpt><trkpt lat="43.40952310984511" lon="12.44409288887465"><ele>679.0</ele><time>2026-04-26T08:48:55.991Z</time></trkpt><trkpt lat="43.409337279063344" lon="12.444217758456023"><ele>679.3333333333334</ele><time>2026-04-26T08:48:56.991Z</time></trkpt><trkpt lat="43.40914692725797" lon="12.444353311706006"><ele>679.6666666666666</ele><time>2026-04-26T08:48:57.991Z</time></trkpt><trkpt lat="43.40897219363624" lon="12.444501636120911"><ele>680.0</ele><time>2026-04-26T08:48:58.991Z</time></trkpt><trkpt lat="43.40881141184768" lon="12.444624275597576"><ele>681.0</ele><time>2026-04-26T08:48:59.99Z</time></trkpt><trkpt lat="43.408666566484" lon="12.444743025144644"><ele>682.0</ele><time>2026-04-26T08:49:00.99Z</time></trkpt><trkpt lat="43.40853509806769" lon="12.444874969146035"><ele>683.0</ele><time>2026-04-26T08:49:01.99Z</time></trkpt><trkpt lat="43.40841170680072" lon="12.44503567651974"><ele>683.0</ele><time>2026-04-26T08:49:02.99Z</time></trkpt><trkpt lat="43.40829518089584" lon="12.445192685153655"><ele>683.0</ele><time>2026-04-26T08:49:03.99Z</time></trkpt><trkpt lat="43.4081984481084" lon="12.445354729708056"><ele>683.0</ele><time>2026-04-26T08:49:04.99Z</time></trkpt><trkpt lat="43.40814714014434" lon="12.445521997795659"><ele>683.0</ele><time>2026-04-26T08:49:05.99Z</time></trkpt><trkpt lat="43.40815021564559" lon="12.445693178485362"><ele>682.75</ele><time>2026-04-26T08:49:06.99Z</time></trkpt><trkpt lat="43.408173856328304" lon="12.445883802836132"><ele>682.5</ele><time>2026-04-26T08:49:07.99Z</time></trkpt><trkpt lat="43.40819779653925" lon="12.446055687432665"><ele>682.25</ele><time>2026-04-26T08:49:08.99Z</time></trkpt><trkpt lat="43.40820379234621" lon="12.446202890524136"><ele>682.0</ele><time>2026-04-26T08:49:09.99Z</time></trkpt><trkpt lat="43.40817137519422" lon="12.446327057852479"><ele>682.75</ele><time>2026-04-26T08:49:10.99Z</time></trkpt><trkpt lat="43.40807476329876" lon="12.4464230437175"><ele>683.5</ele><time>2026-04-26T08:49:11.99Z</time></trkpt><trkpt lat="43.40794294514858" lon="12.446493112113243"><ele>684.25</ele><time>2026-04-26T08:49:12.99Z</time></trkpt><trkpt lat="43.4077792544821" lon="12.446511417003634"><ele>685.0</ele><time>2026-04-26T08:49:13.99Z</time></trkpt><trkpt lat="43.407592833723136" lon="12.446565762899397"><ele>685.0</ele><time>2026-04-26T08:49:14.99Z</time></trkpt><trkpt lat="43.40737307056083" lon="12.446629485204323"><ele>685.0</ele><time>2026-04-26T08:49:15.99Z</time></trkpt><trkpt lat="43.40712100377485" lon="12.446707874382763"><ele>690.0</ele><time>2026-04-26T08:49:16.99Z</time></trkpt><trkpt lat="43.40687383125856" lon="12.446761411233128"><ele>695.0</ele><time>2026-04-26T08:49:17.99Z</time></trkpt><trkpt lat="43.406661976323285" lon="12.446874423436306"><ele>695.0</ele><time>2026-04-26T08:49:18.99Z</time></trkpt><trkpt lat="43.406445931724036" lon="12.447028568189653"><ele>695.0</ele><time>2026-04-26T08:49:19.99Z</time></trkpt><trkpt lat="43.40626209608553" lon="12.447178064879935"><ele>693.6666666666666</ele><time>2026-04-26T08:49:20.99Z</time></trkpt><trkpt lat="43.40609220779834" lon="12.447287329287521"><ele>692.3333333333334</ele><time>2026-04-26T08:49:21.99Z</time></trkpt><trkpt lat="43.40592070402706" lon="12.4473087550971"><ele>691.0</ele><time>2026-04-26T08:49:22.99Z</time></trkpt><trkpt lat="43.40578484498559" lon="12.447378027554857"><ele>691.0</ele><time>2026-04-26T08:49:23.99Z</time></trkpt><trkpt lat="43.40566527178056" lon="12.447421998401705"><ele>691.0</ele><time>2026-04-26T08:49:24.99Z</time></trkpt><trkpt lat="43.4055787295379" lon="12.447613916909363"><ele>691.0</ele><time>2026-04-26T08:49:25.99Z</time></trkpt><trkpt lat="43.40551729297361" lon="12.447888363797874"><ele>690.25</ele><time>2026-04-26T08:49:26.99Z</time></trkpt><trkpt lat="43.405423058321624" lon="12.448100512639533"><ele>689.5</ele><time>2026-04-26T08:49:27.99Z</time></trkpt><trkpt lat="43.40531382834975" lon="12.44822390140691"><ele>688.75</ele><time>2026-04-26T08:49:28.99Z</time></trkpt><trkpt lat="43.405238621555256" lon="12.44827626384804"><ele>688.0</ele><time>2026-04-26T08:49:29.99Z</time></trkpt><trkpt lat="43.40512410030615" lon="12.448216108428017"><ele>688.0</ele><time>2026-04-26T08:49:30.99Z</time></trkpt><trkpt lat="43.40494200626714" lon="12.448195252113765"><ele>688.0</ele><time>2026-04-26T08:49:31.99Z</time></trkpt><trkpt lat="43.404850241489186" lon="12.448241463606273"><ele>688.0</ele><time>2026-04-26T08:49:32.99Z</time></trkpt><trkpt lat="43.404778016898014" lon="12.448266117407842"><ele>688.0</ele><time>2026-04-26T08:49:33.99Z</time></trkpt><trkpt lat="43.40475892499091" lon="12.44840336231785"><ele>688.0</ele><time>2026-04-26T08:49:34.99Z</time></trkpt><trkpt lat="43.40479729803829" lon="12.448621175412407"><ele>688.0</ele><time>2026-04-26T08:49:35.99Z</time></trkpt><trkpt lat="43.40480892654925" lon="12.448870611583848"><ele>688.0</ele><time>2026-04-26T08:49:36.99Z</time></trkpt><trkpt lat="43.404774357060425" lon="12.449039663718427"><ele>684.8</ele><time>2026-04-26T08:49:37.99Z</time></trkpt><trkpt lat="43.40471998095486" lon="12.449140455072424"><ele>681.5999999999999</ele><time>2026-04-26T08:49:38.99Z</time></trkpt><trkpt lat="43.404652553584974" lon="12.44917356795173"><ele>678.4000000000001</ele><time>2026-04-26T08:49:39.99Z</time></trkpt><trkpt lat="43.404571315060515" lon="12.449195346807283"><ele>675.2</ele><time>2026-04-26T08:49:40.99Z</time></trkpt><trkpt lat="43.40443532517156" lon="12.449080804730889"><ele>672.0</ele><time>2026-04-26T08:49:41.99Z</time></trkpt><trkpt lat="43.404248680566035" lon="12.449017693748786"><ele>672.0</ele><time>2026-04-26T08:49:42.99Z</time></trkpt><trkpt lat="43.4040714115689" lon="12.448968513073368"><ele>672.0</ele><time>2026-04-26T08:49:43.99Z</time></trkpt><trkpt lat="43.40391700574256" lon="12.448931597318756"><ele>672.0</ele><time>2026-04-26T08:49:44.99Z</time></trkpt><trkpt lat="43.403757731185955" lon="12.448895519637395"><ele>670.5</ele><time>2026-04-26T08:49:45.99Z</time></trkpt><trkpt lat="43.40360904556613" lon="12.448864196401408"><ele>669.0</ele><time>2026-04-26T08:49:46.99Z</time></trkpt><trkpt lat="43.403467015291916" lon="12.448849846226015"><ele>667.5</ele><time>2026-04-26T08:49:47.99Z</time></trkpt><trkpt lat="43.40333137322632" lon="12.44883633356522"><ele>666.0</ele><time>2026-04-26T08:49:48.99Z</time></trkpt><trkpt lat="43.403224173137104" lon="12.448863153668851"><ele>666.0</ele><time>2026-04-26T08:49:49.99Z</time></trkpt><trkpt lat="43.40313307972864" lon="12.448937483569697"><ele>666.0</ele><time>2026-04-26T08:49:50.99Z</time></trkpt><trkpt lat="43.40308058027708" lon="12.44906949095756"><ele>666.0</ele><time>2026-04-26T08:49:51.99Z</time></trkpt><trkpt lat="43.40304106526168" lon="12.449245916261566"><ele>666.0</ele><time>2026-04-26T08:49:52.99Z</time></trkpt><trkpt lat="43.40298314534727" lon="12.449447071571575"><ele>663.5</ele><time>2026-04-26T08:49:53.99Z</time></trkpt><trkpt lat="43.40294658343532" lon="12.449637637553645"><ele>661.0</ele><time>2026-04-26T08:49:54.99Z</time></trkpt><trkpt lat="43.40293857141921" lon="12.449818759941467"><ele>658.5</ele><time>2026-04-26T08:49:55.99Z</time></trkpt><trkpt lat="43.40298609612402" lon="12.450011888444584"><ele>656.0</ele><time>2026-04-26T08:49:56.99Z</time></trkpt><trkpt lat="43.40308972587672" lon="12.450221648676148"><ele>655.6666666666666</ele><time>2026-04-26T08:49:57.99Z</time></trkpt><trkpt lat="43.403202506743106" lon="12.450393503721816"><ele>655.3333333333334</ele><time>2026-04-26T08:49:58.99Z</time></trkpt><trkpt lat="43.403328941635856" lon="12.45059138342767"><ele>655.0</ele><time>2026-04-26T08:49:59.99Z</time></trkpt><trkpt lat="43.40337169558204" lon="12.450747515992184"><ele>653.25</ele><time>2026-04-26T08:50:00.99Z</time></trkpt><trkpt lat="43.40338060945006" lon="12.45088141206035"><ele>651.5</ele><time>2026-04-26T08:50:01.99Z</time></trkpt><trkpt lat="43.40337622163036" lon="12.450971080121702"><ele>649.75</ele><time>2026-04-26T08:50:02.99Z</time></trkpt><trkpt lat="43.40322226361081" lon="12.451021257282829"><ele>648.0</ele><time>2026-04-26T08:50:04.99Z</time></trkpt><trkpt lat="43.403091638568874" lon="12.450930801958448"><ele>646.0</ele><time>2026-04-26T08:50:05.989Z</time></trkpt><trkpt lat="43.40296984462599" lon="12.450795289177407"><ele>644.0</ele><time>2026-04-26T08:50:06.989Z</time></trkpt><trkpt lat="43.402847676838235" lon="12.450680686191369"><ele>642.0</ele><time>2026-04-26T08:50:07.989Z</time></trkpt><trkpt lat="43.402715714896246" lon="12.45059243639035"><ele>642.0</ele><time>2026-04-26T08:50:08.989Z</time></trkpt><trkpt lat="43.40255752872649" lon="12.450515268326248"><ele>642.0</ele><time>2026-04-26T08:50:09.989Z</time></trkpt><trkpt lat="43.402380353729114" lon="12.450463581355747"><ele>642.0</ele><time>2026-04-26T08:50:10.989Z</time></trkpt><trkpt lat="43.4021886030256" lon="12.450416106803347"><ele>644.0</ele><time>2026-04-26T08:50:11.989Z</time></trkpt><trkpt lat="43.40197373162048" lon="12.450380738488974"><ele>646.0</ele><time>2026-04-26T08:50:12.989Z</time></trkpt><trkpt lat="43.40172595036608" lon="12.450371429474636"><ele>646.0</ele><time>2026-04-26T08:50:13.989Z</time></trkpt><trkpt lat="43.40150127836417" lon="12.450366639487195"><ele>646.0</ele><time>2026-04-26T08:50:14.989Z</time></trkpt><trkpt lat="43.40131026924518" lon="12.450349096130784"><ele>646.0</ele><time>2026-04-26T08:50:15.989Z</time></trkpt><trkpt lat="43.40113145312414" lon="12.450266359005827"><ele>642.0</ele><time>2026-04-26T08:50:16.989Z</time></trkpt><trkpt lat="43.400973040871214" lon="12.450165712252293"><ele>638.0</ele><time>2026-04-26T08:50:17.989Z</time></trkpt><trkpt lat="43.40081774368399" lon="12.450071983502552"><ele>634.0</ele><time>2026-04-26T08:50:18.989Z</time></trkpt><trkpt lat="43.400669974547284" lon="12.45001505328922"><ele>634.0</ele><time>2026-04-26T08:50:19.989Z</time></trkpt><trkpt lat="43.40053700483021" lon="12.449964067915744"><ele>634.0</ele><time>2026-04-26T08:50:20.989Z</time></trkpt><trkpt lat="43.400399706270235" lon="12.44997849318245"><ele>634.0</ele><time>2026-04-26T08:50:21.989Z</time></trkpt><trkpt lat="43.40028078603737" lon="12.450041524071896"><ele>634.0</ele><time>2026-04-26T08:50:22.989Z</time></trkpt><trkpt lat="43.40014318806318" lon="12.450076017070407"><ele>632.5</ele><time>2026-04-26T08:50:23.989Z</time></trkpt><trkpt lat="43.40001831586931" lon="12.450122993142926"><ele>631.0</ele><time>2026-04-26T08:50:24.989Z</time></trkpt><trkpt lat="43.399887933902036" lon="12.450114476620149"><ele>629.5</ele><time>2026-04-26T08:50:25.989Z</time></trkpt><trkpt lat="43.39971364670198" lon="12.450011984804606"><ele>628.0</ele><time>2026-04-26T08:50:26.989Z</time></trkpt><trkpt lat="43.399533955952194" lon="12.449910542089661"><ele>626.1999999999999</ele><time>2026-04-26T08:50:27.989Z</time></trkpt><trkpt lat="43.3994198166868" lon="12.449841131535015"><ele>624.4</ele><time>2026-04-26T08:50:28.989Z</time></trkpt><trkpt lat="43.39937658079129" lon="12.449725637246415"><ele>622.5999999999999</ele><time>2026-04-26T08:50:29.989Z</time></trkpt><trkpt lat="43.399404441361554" lon="12.449571536423477"><ele>620.8</ele><time>2026-04-26T08:50:30.989Z</time></trkpt><trkpt lat="43.39945744443693" lon="12.449452448467143"><ele>619.0</ele><time>2026-04-26T08:50:31.989Z</time></trkpt><trkpt lat="43.39954344812417" lon="12.449365572075884"><ele>619.0</ele><time>2026-04-26T08:50:32.989Z</time></trkpt><trkpt lat="43.3996655171755" lon="12.449225581565768"><ele>619.0</ele><time>2026-04-26T08:50:33.989Z</time></trkpt><trkpt lat="43.39974172947425" lon="12.449076454880904"><ele>619.0</ele><time>2026-04-26T08:50:34.989Z</time></trkpt><trkpt lat="43.3997466007254" lon="12.448935502807684"><ele>619.0</ele><time>2026-04-26T08:50:35.989Z</time></trkpt><trkpt lat="43.39970243877961" lon="12.448808199507532"><ele>617.3333333333334</ele><time>2026-04-26T08:50:36.989Z</time></trkpt><trkpt lat="43.399667096445036" lon="12.448716521518204"><ele>615.6666666666666</ele><time>2026-04-26T08:50:37.989Z</time></trkpt><trkpt lat="43.39945193946552" lon="12.448634684334925"><ele>614.0</ele><time>2026-04-26T08:50:38.989Z</time></trkpt><trkpt lat="43.39925164981891" lon="12.44855591151166"><ele>609.0</ele><time>2026-04-26T08:50:39.989Z</time></trkpt><trkpt lat="43.399045962543475" lon="12.44847045047193"><ele>604.0</ele><time>2026-04-26T08:50:40.989Z</time></trkpt><trkpt lat="43.398777803174305" lon="12.448351453126094"><ele>604.0</ele><time>2026-04-26T08:50:41.989Z</time></trkpt><trkpt lat="43.39840282130645" lon="12.448185066277569"><ele>604.0</ele><time>2026-04-26T08:50:42.989Z</time></trkpt><trkpt lat="43.398120537777906" lon="12.448058665961819"><ele>601.0</ele><time>2026-04-26T08:50:43.989Z</time></trkpt><trkpt lat="43.39787565852962" lon="12.447977563071557"><ele>598.0</ele><time>2026-04-26T08:50:44.989Z</time></trkpt><trkpt lat="43.39767223608022" lon="12.447891944057462"><ele>592.0</ele><time>2026-04-26T08:50:45.989Z</time></trkpt><trkpt lat="43.397481416737875" lon="12.447835241433438"><ele>586.0</ele><time>2026-04-26T08:50:46.989Z</time></trkpt><trkpt lat="43.39732561332137" lon="12.447874598016657"><ele>580.0</ele><time>2026-04-26T08:50:47.989Z</time></trkpt><trkpt lat="43.39721205321011" lon="12.447941623979009"><ele>580.0</ele><time>2026-04-26T08:50:48.989Z</time></trkpt><trkpt lat="43.397093961956095" lon="12.448024584409257"><ele>580.0</ele><time>2026-04-26T08:50:49.989Z</time></trkpt><trkpt lat="43.39694812364973" lon="12.448142888579692"><ele>580.0</ele><time>2026-04-26T08:50:50.989Z</time></trkpt><trkpt lat="43.39682790102802" lon="12.448267581195362"><ele>580.0</ele><time>2026-04-26T08:50:51.989Z</time></trkpt><trkpt lat="43.39674876264833" lon="12.4484241134854"><ele>580.0</ele><time>2026-04-26T08:50:52.989Z</time></trkpt><trkpt lat="43.39672020519444" lon="12.448630747329247"><ele>580.0</ele><time>2026-04-26T08:50:53.989Z</time></trkpt><trkpt lat="43.39671403696183" lon="12.448865592379583"><ele>579.6666666666667</ele><time>2026-04-26T08:50:54.989Z</time></trkpt><trkpt lat="43.39678512877118" lon="12.449150519641858"><ele>579.3333333333334</ele><time>2026-04-26T08:50:55.989Z</time></trkpt><trkpt lat="43.396846876750274" lon="12.449425058573238"><ele>579.0</ele><time>2026-04-26T08:50:56.989Z</time></trkpt><trkpt lat="43.39693215204369" lon="12.449625208083946"><ele>576.3333333333334</ele><time>2026-04-26T08:50:57.989Z</time></trkpt><trkpt lat="43.39696938254915" lon="12.4498454959313"><ele>573.6666666666667</ele><time>2026-04-26T08:50:58.989Z</time></trkpt><trkpt lat="43.3969974915081" lon="12.450106104898241"><ele>571.0</ele><time>2026-04-26T08:50:59.989Z</time></trkpt><trkpt lat="43.39695316587281" lon="12.450361432500044"><ele>571.0</ele><time>2026-04-26T08:51:00.989Z</time></trkpt><trkpt lat="43.396870974264836" lon="12.450602625799185"><ele>571.0</ele><time>2026-04-26T08:51:01.989Z</time></trkpt><trkpt lat="43.396766295927804" lon="12.450799662046222"><ele>571.0</ele><time>2026-04-26T08:51:02.989Z</time></trkpt><trkpt lat="43.39663976957794" lon="12.450904350440782"><ele>571.0</ele><time>2026-04-26T08:51:03.989Z</time></trkpt><trkpt lat="43.396476039156774" lon="12.450961642812981"><ele>571.0</ele><time>2026-04-26T08:51:04.989Z</time></trkpt><trkpt lat="43.39624140616285" lon="12.451041801421699"><ele>571.0</ele><time>2026-04-26T08:51:05.989Z</time></trkpt><trkpt lat="43.395983994043" lon="12.45114026432373"><ele>566.6666666666667</ele><time>2026-04-26T08:51:06.989Z</time></trkpt><trkpt lat="43.39575243969896" lon="12.451200122871596"><ele>562.3333333333334</ele><time>2026-04-26T08:51:07.989Z</time></trkpt><trkpt lat="43.395579684956964" lon="12.451272304233495"><ele>558.0</ele><time>2026-04-26T08:51:08.989Z</time></trkpt><trkpt lat="43.39541524328073" lon="12.451370037513666"><ele>556.6666666666666</ele><time>2026-04-26T08:51:09.989Z</time></trkpt><trkpt lat="43.395262112062646" lon="12.451535703473203"><ele>555.3333333333333</ele><time>2026-04-26T08:51:10.989Z</time></trkpt><trkpt lat="43.39512011019598" lon="12.451702296275384"><ele>554.0</ele><time>2026-04-26T08:51:11.988Z</time></trkpt><trkpt lat="43.39502846254693" lon="12.451868558520099"><ele>554.0</ele><time>2026-04-26T08:51:12.989Z</time></trkpt><trkpt lat="43.39497864136141" lon="12.452071714592142"><ele>554.0</ele><time>2026-04-26T08:51:13.988Z</time></trkpt><trkpt lat="43.39492948693852" lon="12.452310770437288"><ele>554.0</ele><time>2026-04-26T08:51:14.988Z</time></trkpt><trkpt lat="43.39487646037811" lon="12.452560364618565"><ele>554.3333333333333</ele><time>2026-04-26T08:51:15.988Z</time></trkpt><trkpt lat="43.394800424177014" lon="12.4527323812902"><ele>554.6666666666666</ele><time>2026-04-26T08:51:16.988Z</time></trkpt><trkpt lat="43.394669189182714" lon="12.452895113533714"><ele>555.0</ele><time>2026-04-26T08:51:17.988Z</time></trkpt><trkpt lat="43.394518515073685" lon="12.453070526261502"><ele>552.0</ele><time>2026-04-26T08:51:18.988Z</time></trkpt><trkpt lat="43.39432729850376" lon="12.453304310451884"><ele>549.0</ele><time>2026-04-26T08:51:19.988Z</time></trkpt><trkpt lat="43.394135056614765" lon="12.453552317291676"><ele>552.0</ele><time>2026-04-26T08:51:20.988Z</time></trkpt><trkpt lat="43.393920404929915" lon="12.453819912834923"><ele>555.0</ele><time>2026-04-26T08:51:21.988Z</time></trkpt><trkpt lat="43.393729594375515" lon="12.454027356554183"><ele>548.6666666666666</ele><time>2026-04-26T08:51:22.988Z</time></trkpt><trkpt lat="43.393558724934934" lon="12.454195171441715"><ele>542.3333333333333</ele><time>2026-04-26T08:51:23.988Z</time></trkpt><trkpt lat="43.393442218833776" lon="12.454336342347471"><ele>536.0</ele><time>2026-04-26T08:51:24.988Z</time></trkpt><trkpt lat="43.39335054762474" lon="12.45447724005372"><ele>536.0</ele><time>2026-04-26T08:51:25.988Z</time></trkpt><trkpt lat="43.39329456977277" lon="12.454636023072004"><ele>536.0</ele><time>2026-04-26T08:51:26.988Z</time></trkpt><trkpt lat="43.39325738734618" lon="12.454807962796524"><ele>536.0</ele><time>2026-04-26T08:51:27.988Z</time></trkpt><trkpt lat="43.39324835590079" lon="12.454988560468392"><ele>536.0</ele><time>2026-04-26T08:51:28.988Z</time></trkpt><trkpt lat="43.393276288058345" lon="12.455201730889875"><ele>536.0</ele><time>2026-04-26T08:51:29.988Z</time></trkpt><trkpt lat="43.39330497427412" lon="12.455429538233705"><ele>536.0</ele><time>2026-04-26T08:51:30.988Z</time></trkpt><trkpt lat="43.39325736131174" lon="12.455581490012683"><ele>536.0</ele><time>2026-04-26T08:51:31.988Z</time></trkpt><trkpt lat="43.39318902050196" lon="12.4556871054273"><ele>536.0</ele><time>2026-04-26T08:51:32.988Z</time></trkpt><trkpt lat="43.393077386830704" lon="12.45573414822367"><ele>533.3333333333333</ele><time>2026-04-26T08:51:33.988Z</time></trkpt><trkpt lat="43.39292842086838" lon="12.455786535620053"><ele>530.6666666666666</ele><time>2026-04-26T08:51:34.988Z</time></trkpt><trkpt lat="43.39275468643369" lon="12.455813713374425"><ele>528.0</ele><time>2026-04-26T08:51:35.988Z</time></trkpt><trkpt lat="43.392548337460894" lon="12.455846175004186"><ele>528.0</ele><time>2026-04-26T08:51:36.988Z</time></trkpt><trkpt lat="43.39232868405274" lon="12.455884823052092"><ele>528.0</ele><time>2026-04-26T08:51:37.988Z</time></trkpt><trkpt lat="43.39213712236043" lon="12.455915897912343"><ele>528.0</ele><time>2026-04-26T08:51:38.988Z</time></trkpt><trkpt lat="43.39195959211825" lon="12.455941965261404"><ele>525.0</ele><time>2026-04-26T08:51:39.988Z</time></trkpt><trkpt lat="43.3917862542021" lon="12.455987441209476"><ele>522.0</ele><time>2026-04-26T08:51:40.988Z</time></trkpt><trkpt lat="43.39158730689531" lon="12.456001784841437"><ele>519.0</ele><time>2026-04-26T08:51:41.988Z</time></trkpt><trkpt lat="43.39136955524402" lon="12.456045115737101"><ele>512.0</ele><time>2026-04-26T08:51:42.988Z</time></trkpt><trkpt lat="43.3911417327038" lon="12.456092261973566"><ele>505.0</ele><time>2026-04-26T08:51:43.988Z</time></trkpt><trkpt lat="43.39092206764226" lon="12.456138580156159"><ele>505.0</ele><time>2026-04-26T08:51:44.988Z</time></trkpt><trkpt lat="43.390738692104186" lon="12.45618568929467"><ele>505.0</ele><time>2026-04-26T08:51:45.988Z</time></trkpt><trkpt lat="43.39058131363699" lon="12.456257253082963"><ele>505.0</ele><time>2026-04-26T08:51:46.988Z</time></trkpt><trkpt lat="43.39044783985305" lon="12.45633849032295"><ele>505.6666666666667</ele><time>2026-04-26T08:51:47.988Z</time></trkpt><trkpt lat="43.390319255667215" lon="12.456470312389682"><ele>506.33333333333337</ele><time>2026-04-26T08:51:48.988Z</time></trkpt><trkpt lat="43.390184274747284" lon="12.456663320427456"><ele>507.0</ele><time>2026-04-26T08:51:49.988Z</time></trkpt><trkpt lat="43.3899880749412" lon="12.456809817897007"><ele>507.0</ele><time>2026-04-26T08:51:50.988Z</time></trkpt><trkpt lat="43.3897438162665" lon="12.456971437118439"><ele>507.0</ele><time>2026-04-26T08:51:51.988Z</time></trkpt><trkpt lat="43.3894804042438" lon="12.457145726075733"><ele>506.33333333333337</ele><time>2026-04-26T08:51:52.988Z</time></trkpt><trkpt lat="43.38926550935705" lon="12.457310001304938"><ele>505.6666666666667</ele><time>2026-04-26T08:51:53.988Z</time></trkpt><trkpt lat="43.38908877173144" lon="12.457382106335409"><ele>505.0</ele><time>2026-04-26T08:51:54.988Z</time></trkpt><trkpt lat="43.38893509969331" lon="12.457427497599511"><ele>506.0</ele><time>2026-04-26T08:51:55.988Z</time></trkpt><trkpt lat="43.3887900894303" lon="12.457390947020665"><ele>507.0</ele><time>2026-04-26T08:51:56.988Z</time></trkpt><trkpt lat="43.38862153874645" lon="12.45732143175603"><ele>508.0</ele><time>2026-04-26T08:51:57.988Z</time></trkpt><trkpt lat="43.38842110819305" lon="12.45718865178152"><ele>502.6666666666667</ele><time>2026-04-26T08:51:58.988Z</time></trkpt><trkpt lat="43.388232701918135" lon="12.45701871796624"><ele>497.33333333333337</ele><time>2026-04-26T08:51:59.988Z</time></trkpt><trkpt lat="43.388071438114764" lon="12.45688674229956"><ele>492.0</ele><time>2026-04-26T08:52:00.988Z</time></trkpt><trkpt lat="43.387928614728864" lon="12.456796331171164"><ele>492.0</ele><time>2026-04-26T08:52:01.988Z</time></trkpt><trkpt lat="43.38778163466798" lon="12.456745207284824"><ele>492.0</ele><time>2026-04-26T08:52:02.988Z</time></trkpt><trkpt lat="43.38764275411915" lon="12.456729401268529"><ele>492.0</ele><time>2026-04-26T08:52:03.988Z</time></trkpt><trkpt lat="43.387473796730575" lon="12.456738663794368"><ele>492.0</ele><time>2026-04-26T08:52:04.988Z</time></trkpt><trkpt lat="43.387288609702075" lon="12.456771292641255"><ele>492.0</ele><time>2026-04-26T08:52:05.988Z</time></trkpt><trkpt lat="43.3870966116892" lon="12.456815855023162"><ele>492.0</ele><time>2026-04-26T08:52:06.988Z</time></trkpt><trkpt lat="43.38687873209582" lon="12.456852587500064"><ele>485.0</ele><time>2026-04-26T08:52:07.988Z</time></trkpt><trkpt lat="43.386625652525495" lon="12.456892746422676"><ele>478.0</ele><time>2026-04-26T08:52:08.988Z</time></trkpt><trkpt lat="43.386426591258065" lon="12.45692691565872"><ele>472.33333333333337</ele><time>2026-04-26T08:52:09.988Z</time></trkpt><trkpt lat="43.38624019413022" lon="12.456971762210184"><ele>466.66666666666663</ele><time>2026-04-26T08:52:10.988Z</time></trkpt><trkpt lat="43.38606344014047" lon="12.457023500439593"><ele>461.0</ele><time>2026-04-26T08:52:11.988Z</time></trkpt><trkpt lat="43.38590672897006" lon="12.457090702496568"><ele>462.75</ele><time>2026-04-26T08:52:12.988Z</time></trkpt><trkpt lat="43.38576273847295" lon="12.45716446082707"><ele>464.5</ele><time>2026-04-26T08:52:13.988Z</time></trkpt><trkpt lat="43.38563151018456" lon="12.4572204290659"><ele>466.25</ele><time>2026-04-26T08:52:14.988Z</time></trkpt><trkpt lat="43.385536363879204" lon="12.457322528151174"><ele>468.0</ele><time>2026-04-26T08:52:15.988Z</time></trkpt><trkpt lat="43.3854047679024" lon="12.457454729458561"><ele>468.0</ele><time>2026-04-26T08:52:16.988Z</time></trkpt><trkpt lat="43.38526962473163" lon="12.457587144077266"><ele>468.0</ele><time>2026-04-26T08:52:17.987Z</time></trkpt><trkpt lat="43.38516176092708" lon="12.457727410693535"><ele>468.0</ele><time>2026-04-26T08:52:18.987Z</time></trkpt><trkpt lat="43.385084786806324" lon="12.457863953059718"><ele>468.0</ele><time>2026-04-26T08:52:19.987Z</time></trkpt><trkpt lat="43.385030371550634" lon="12.45801176936638"><ele>469.0</ele><time>2026-04-26T08:52:20.987Z</time></trkpt><trkpt lat="43.38499791587479" lon="12.458172240714223"><ele>470.0</ele><time>2026-04-26T08:52:21.987Z</time></trkpt><trkpt lat="43.38496890010591" lon="12.458330766326647"><ele>471.0</ele><time>2026-04-26T08:52:22.987Z</time></trkpt><trkpt lat="43.38487348958036" lon="12.458437197416968"><ele>472.0</ele><time>2026-04-26T08:52:23.987Z</time></trkpt><trkpt lat="43.384763460565296" lon="12.458509587951916"><ele>468.0</ele><time>2026-04-26T08:52:24.987Z</time></trkpt><trkpt lat="43.384620360663845" lon="12.458553947402743"><ele>464.0</ele><time>2026-04-26T08:52:25.987Z</time></trkpt><trkpt lat="43.384463621790566" lon="12.458596873077665"><ele>460.0</ele><time>2026-04-26T08:52:26.987Z</time></trkpt><trkpt lat="43.384295739221606" lon="12.45865409401403"><ele>460.0</ele><time>2026-04-26T08:52:27.987Z</time></trkpt><trkpt lat="43.384120034984896" lon="12.458701216373242"><ele>460.0</ele><time>2026-04-26T08:52:28.987Z</time></trkpt><trkpt lat="43.38393896023284" lon="12.458754194470243"><ele>460.0</ele><time>2026-04-26T08:52:29.987Z</time></trkpt><trkpt lat="43.3837774303534" lon="12.458801339284872"><ele>459.5</ele><time>2026-04-26T08:52:30.987Z</time></trkpt><trkpt lat="43.38363212211071" lon="12.458844237994311"><ele>459.0</ele><time>2026-04-26T08:52:31.987Z</time></trkpt><trkpt lat="43.38350283208471" lon="12.458879665734516"><ele>458.5</ele><time>2026-04-26T08:52:32.987Z</time></trkpt><trkpt lat="43.38337815706236" lon="12.458907254739225"><ele>458.0</ele><time>2026-04-26T08:52:33.987Z</time></trkpt><trkpt lat="43.383263039445076" lon="12.458938026268122"><ele>458.0</ele><time>2026-04-26T08:52:34.987Z</time></trkpt><trkpt lat="43.383156630127864" lon="12.45897302847838"><ele>458.0</ele><time>2026-04-26T08:52:35.987Z</time></trkpt><trkpt lat="43.38304706168768" lon="12.459016585480587"><ele>458.0</ele><time>2026-04-26T08:52:36.987Z</time></trkpt><trkpt lat="43.38292378387613" lon="12.459076407475438"><ele>458.0</ele><time>2026-04-26T08:52:37.987Z</time></trkpt><trkpt lat="43.38280855112979" lon="12.459150318226136"><ele>458.5</ele><time>2026-04-26T08:52:38.987Z</time></trkpt><trkpt lat="43.38269734759592" lon="12.459250052811887"><ele>459.0</ele><time>2026-04-26T08:52:39.987Z</time></trkpt><trkpt lat="43.382597386616375" lon="12.459371400723553"><ele>459.5</ele><time>2026-04-26T08:52:40.987Z</time></trkpt><trkpt lat="43.382517883150186" lon="12.459522141869272"><ele>460.0</ele><time>2026-04-26T08:52:41.987Z</time></trkpt><trkpt lat="43.382447849323725" lon="12.459706319158109"><ele>460.0</ele><time>2026-04-26T08:52:42.987Z</time></trkpt><trkpt lat="43.382359352014085" lon="12.459883904727892"><ele>460.0</ele><time>2026-04-26T08:52:43.987Z</time></trkpt><trkpt lat="43.382245131470285" lon="12.459994002118927"><ele>460.0</ele><time>2026-04-26T08:52:44.987Z</time></trkpt><trkpt lat="43.38213056886659" lon="12.460092655665719"><ele>460.0</ele><time>2026-04-26T08:52:45.987Z</time></trkpt><trkpt lat="43.38200752970228" lon="12.4602049431973"><ele>461.6666666666667</ele><time>2026-04-26T08:52:46.987Z</time></trkpt><trkpt lat="43.381882530490635" lon="12.460333776286474"><ele>463.33333333333337</ele><time>2026-04-26T08:52:47.987Z</time></trkpt><trkpt lat="43.381767071635316" lon="12.460487246957832"><ele>465.0</ele><time>2026-04-26T08:52:48.987Z</time></trkpt><trkpt lat="43.38166150892992" lon="12.460670573603425"><ele>465.0</ele><time>2026-04-26T08:52:49.987Z</time></trkpt><trkpt lat="43.38157456629255" lon="12.460817740222934"><ele>465.0</ele><time>2026-04-26T08:52:50.987Z</time></trkpt><trkpt lat="43.38148277362788" lon="12.460954167001436"><ele>465.0</ele><time>2026-04-26T08:52:51.987Z</time></trkpt><trkpt lat="43.381388884381565" lon="12.46102901535877"><ele>465.0</ele><time>2026-04-26T08:52:52.987Z</time></trkpt><trkpt lat="43.38128576199879" lon="12.461004959409511"><ele>466.0</ele><time>2026-04-26T08:52:53.987Z</time></trkpt><trkpt lat="43.381129953695776" lon="12.460961264897406"><ele>467.0</ele><time>2026-04-26T08:52:54.987Z</time></trkpt><trkpt lat="43.380946683624224" lon="12.460917414848963"><ele>468.0</ele><time>2026-04-26T08:52:55.987Z</time></trkpt><trkpt lat="43.380770885629694" lon="12.46090838355485"><ele>468.0</ele><time>2026-04-26T08:52:56.987Z</time></trkpt><trkpt lat="43.38061688165251" lon="12.4609587520525"><ele>468.0</ele><time>2026-04-26T08:52:57.987Z</time></trkpt><trkpt lat="43.380470687417" lon="12.461054349898717"><ele>468.0</ele><time>2026-04-26T08:52:58.987Z</time></trkpt><trkpt lat="43.38031318368406" lon="12.461195309106083"><ele>464.33333333333337</ele><time>2026-04-26T08:52:59.987Z</time></trkpt><trkpt lat="43.38015780026171" lon="12.461353182512136"><ele>460.6666666666667</ele><time>2026-04-26T08:53:00.987Z</time></trkpt><trkpt lat="43.379990424364884" lon="12.461473592882728"><ele>457.0</ele><time>2026-04-26T08:53:01.987Z</time></trkpt><trkpt lat="43.379820367030426" lon="12.46159687247065"><ele>457.33333333333337</ele><time>2026-04-26T08:53:02.987Z</time></trkpt><trkpt lat="43.37963750329017" lon="12.461696480270826"><ele>457.66666666666663</ele><time>2026-04-26T08:53:03.987Z</time></trkpt><trkpt lat="43.37944500623951" lon="12.461739406019477"><ele>458.0</ele><time>2026-04-26T08:53:04.987Z</time></trkpt><trkpt lat="43.379272950687586" lon="12.461766335951904"><ele>458.0</ele><time>2026-04-26T08:53:05.987Z</time></trkpt><trkpt lat="43.37911225756799" lon="12.461739784203962"><ele>458.0</ele><time>2026-04-26T08:53:06.987Z</time></trkpt><trkpt lat="43.378950411129665" lon="12.46168118238233"><ele>458.0</ele><time>2026-04-26T08:53:07.987Z</time></trkpt><trkpt lat="43.378756415588136" lon="12.461579143564457"><ele>455.3333333333333</ele><time>2026-04-26T08:53:08.987Z</time></trkpt><trkpt lat="43.37855144585075" lon="12.461465495622416"><ele>452.66666666666663</ele><time>2026-04-26T08:53:09.987Z</time></trkpt><trkpt lat="43.378390310084946" lon="12.461358133796391"><ele>450.0</ele><time>2026-04-26T08:53:10.987Z</time></trkpt><trkpt lat="43.37825578882667" lon="12.461278811478063"><ele>450.0</ele><time>2026-04-26T08:53:11.987Z</time></trkpt><trkpt lat="43.37816896950426" lon="12.461207889492401"><ele>450.0</ele><time>2026-04-26T08:53:12.987Z</time></trkpt><trkpt lat="43.378136460307765" lon="12.461071735688048"><ele>450.0</ele><time>2026-04-26T08:53:13.987Z</time></trkpt><trkpt lat="43.37803795935077" lon="12.46071869681046"><ele>451.0</ele><time>2026-04-26T08:53:15.987Z</time></trkpt><trkpt lat="43.37795350577658" lon="12.460551682083791"><ele>452.0</ele><time>2026-04-26T08:53:16.987Z</time></trkpt><trkpt lat="43.37784951238472" lon="12.460407773475554"><ele>453.0</ele><time>2026-04-26T08:53:17.987Z</time></trkpt><trkpt lat="43.37772984897971" lon="12.460309781790613"><ele>454.0</ele><time>2026-04-26T08:53:18.987Z</time></trkpt><trkpt lat="43.377600810073" lon="12.46024127418527"><ele>449.75</ele><time>2026-04-26T08:53:19.987Z</time></trkpt><trkpt lat="43.37747353214593" lon="12.460215103988569"><ele>445.5</ele><time>2026-04-26T08:53:20.987Z</time></trkpt><trkpt lat="43.377348595002466" lon="12.460197529664876"><ele>441.25</ele><time>2026-04-26T08:53:21.987Z</time></trkpt><trkpt lat="43.377221751797805" lon="12.460219129952709"><ele>437.0</ele><time>2026-04-26T08:53:22.987Z</time></trkpt><trkpt lat="43.377083695928825" lon="12.46027746908504"><ele>437.0</ele><time>2026-04-26T08:53:23.986Z</time></trkpt><trkpt lat="43.37692547876663" lon="12.460341049284258"><ele>437.0</ele><time>2026-04-26T08:53:24.986Z</time></trkpt><trkpt lat="43.37673709182567" lon="12.460369528770695"><ele>437.0</ele><time>2026-04-26T08:53:25.986Z</time></trkpt><trkpt lat="43.376530924309336" lon="12.460348455889113"><ele>434.0</ele><time>2026-04-26T08:53:26.986Z</time></trkpt><trkpt lat="43.37628711104491" lon="12.460283583947039"><ele>431.0</ele><time>2026-04-26T08:53:27.986Z</time></trkpt><trkpt lat="43.37602218154599" lon="12.460227066997144"><ele>431.0</ele><time>2026-04-26T08:53:28.986Z</time></trkpt><trkpt lat="43.37574897791024" lon="12.460180404981282"><ele>431.0</ele><time>2026-04-26T08:53:29.986Z</time></trkpt><trkpt lat="43.375517298402606" lon="12.46013258758678"><ele>432.66666666666663</ele><time>2026-04-26T08:53:30.986Z</time></trkpt><trkpt lat="43.37531282489203" lon="12.460076764107534"><ele>434.33333333333337</ele><time>2026-04-26T08:53:31.986Z</time></trkpt><trkpt lat="43.375151573223285" lon="12.459982695147467"><ele>436.0</ele><time>2026-04-26T08:53:32.986Z</time></trkpt><trkpt lat="43.37505630768648" lon="12.45984024368274"><ele>436.0</ele><time>2026-04-26T08:53:33.986Z</time></trkpt><trkpt lat="43.3749230034252" lon="12.45967525212169"><ele>436.0</ele><time>2026-04-26T08:53:34.986Z</time></trkpt><trkpt lat="43.3748018433057" lon="12.459618264405643"><ele>436.0</ele><time>2026-04-26T08:53:35.986Z</time></trkpt><trkpt lat="43.37465795681066" lon="12.459524583970762"><ele>431.6666666666667</ele><time>2026-04-26T08:53:36.986Z</time></trkpt><trkpt lat="43.374466487124465" lon="12.459446113011094"><ele>427.33333333333337</ele><time>2026-04-26T08:53:37.986Z</time></trkpt><trkpt lat="43.37429183535463" lon="12.459299264396213"><ele>423.0</ele><time>2026-04-26T08:53:38.986Z</time></trkpt><trkpt lat="43.37413898346736" lon="12.45909773359941"><ele>423.0</ele><time>2026-04-26T08:53:39.986Z</time></trkpt><trkpt lat="43.3739818493723" lon="12.458896258159927"><ele>423.0</ele><time>2026-04-26T08:53:40.986Z</time></trkpt><trkpt lat="43.373827241729046" lon="12.458751102939587"><ele>423.0</ele><time>2026-04-26T08:53:41.986Z</time></trkpt><trkpt lat="43.3736471020552" lon="12.458612408307415"><ele>416.33333333333337</ele><time>2026-04-26T08:53:42.986Z</time></trkpt><trkpt lat="43.37346942123309" lon="12.458532448578934"><ele>409.6666666666667</ele><time>2026-04-26T08:53:43.986Z</time></trkpt><trkpt lat="43.37328445166247" lon="12.458468296581811"><ele>403.0</ele><time>2026-04-26T08:53:44.986Z</time></trkpt><trkpt lat="43.37309083554117" lon="12.45843507009574"><ele>401.0</ele><time>2026-04-26T08:53:45.986Z</time></trkpt><trkpt lat="43.37292150693209" lon="12.458441676380808"><ele>399.0</ele><time>2026-04-26T08:53:46.986Z</time></trkpt><trkpt lat="43.37282706153156" lon="12.45848028438805"><ele>397.0</ele><time>2026-04-26T08:53:47.986Z</time></trkpt><trkpt lat="43.37277282857934" lon="12.458548473436416"><ele>395.0</ele><time>2026-04-26T08:53:48.986Z</time></trkpt><trkpt lat="43.3726920072612" lon="12.458612796148433"><ele>393.0</ele><time>2026-04-26T08:53:49.986Z</time></trkpt><trkpt lat="43.37267987375519" lon="12.458769779154132"><ele>394.33333333333337</ele><time>2026-04-26T08:53:50.986Z</time></trkpt><trkpt lat="43.372672108019486" lon="12.458964678603271"><ele>395.6666666666667</ele><time>2026-04-26T08:53:51.986Z</time></trkpt><trkpt lat="43.372704822895464" lon="12.459232857986226"><ele>397.0</ele><time>2026-04-26T08:53:52.986Z</time></trkpt><trkpt lat="43.37273185409309" lon="12.459587528209802"><ele>396.0</ele><time>2026-04-26T08:53:53.986Z</time></trkpt><trkpt lat="43.37271981600919" lon="12.459896805884238"><ele>395.0</ele><time>2026-04-26T08:53:54.986Z</time></trkpt><trkpt lat="43.37269776882143" lon="12.460187809942939"><ele>394.0</ele><time>2026-04-26T08:53:55.986Z</time></trkpt><trkpt lat="43.37268853657143" lon="12.460465750778384"><ele>393.6666666666667</ele><time>2026-04-26T08:53:56.986Z</time></trkpt><trkpt lat="43.37265984324218" lon="12.460712929453736"><ele>393.33333333333337</ele><time>2026-04-26T08:53:57.986Z</time></trkpt><trkpt lat="43.372642329060454" lon="12.46095416974841"><ele>393.0</ele><time>2026-04-26T08:53:58.986Z</time></trkpt><trkpt lat="43.37262814681699" lon="12.461190868366073"><ele>391.33333333333337</ele><time>2026-04-26T08:53:59.986Z</time></trkpt><trkpt lat="43.37260788123311" lon="12.461430778206887"><ele>389.6666666666667</ele><time>2026-04-26T08:54:00.986Z</time></trkpt><trkpt lat="43.37263139225723" lon="12.461663105361165"><ele>388.0</ele><time>2026-04-26T08:54:01.986Z</time></trkpt><trkpt lat="43.3726560642246" lon="12.461935025181972"><ele>386.0</ele><time>2026-04-26T08:54:02.986Z</time></trkpt><trkpt lat="43.372709186718076" lon="12.462222725329651"><ele>384.0</ele><time>2026-04-26T08:54:03.986Z</time></trkpt><trkpt lat="43.37276658062472" lon="12.462447070382975"><ele>382.0</ele><time>2026-04-26T08:54:04.986Z</time></trkpt><trkpt lat="43.37282500997757" lon="12.462591396312298"><ele>382.0</ele><time>2026-04-26T08:54:05.986Z</time></trkpt><trkpt lat="43.372895931008074" lon="12.462727423113067"><ele>382.0</ele><time>2026-04-26T08:54:06.986Z</time></trkpt><trkpt lat="43.37299431111389" lon="12.462867371171905"><ele>382.0</ele><time>2026-04-26T08:54:07.986Z</time></trkpt><trkpt lat="43.37313995379279" lon="12.462970745108114"><ele>382.0</ele><time>2026-04-26T08:54:08.986Z</time></trkpt><trkpt lat="43.37332554471037" lon="12.463091142842591"><ele>382.3333333333333</ele><time>2026-04-26T08:54:09.986Z</time></trkpt><trkpt lat="43.373534813817734" lon="12.463205051600205"><ele>382.6666666666667</ele><time>2026-04-26T08:54:10.986Z</time></trkpt><trkpt lat="43.37371735063946" lon="12.463324241136435"><ele>383.0</ele><time>2026-04-26T08:54:11.986Z</time></trkpt><trkpt lat="43.373877962825105" lon="12.463432655749157"><ele>384.5</ele><time>2026-04-26T08:54:12.986Z</time></trkpt><trkpt lat="43.37401965103816" lon="12.46352886361611"><ele>386.0</ele><time>2026-04-26T08:54:13.986Z</time></trkpt><trkpt lat="43.37413970324951" lon="12.463605157335671"><ele>387.5</ele><time>2026-04-26T08:54:14.986Z</time></trkpt><trkpt lat="43.37424625035604" lon="12.463684672470334"><ele>389.0</ele><time>2026-04-26T08:54:15.986Z</time></trkpt><trkpt lat="43.37435980776939" lon="12.463860094505954"><ele>385.5</ele><time>2026-04-26T08:54:17.986Z</time></trkpt><trkpt lat="43.374397124441174" lon="12.463968958964383"><ele>382.0</ele><time>2026-04-26T08:54:19.986Z</time></trkpt><trkpt lat="43.37438909429956" lon="12.464180397832125"><ele>378.5</ele><time>2026-04-26T08:55:12.985Z</time></trkpt><trkpt lat="43.37443797609342" lon="12.46434960271488"><ele>375.0</ele><time>2026-04-26T08:55:13.985Z</time></trkpt><trkpt lat="43.37447697511605" lon="12.464546576568106"><ele>373.6666666666667</ele><time>2026-04-26T08:55:14.985Z</time></trkpt><trkpt lat="43.37451353529456" lon="12.464767424777369"><ele>372.33333333333337</ele><time>2026-04-26T08:55:15.985Z</time></trkpt><trkpt lat="43.37454990446888" lon="12.465003478589425"><ele>371.0</ele><time>2026-04-26T08:55:16.985Z</time></trkpt><trkpt lat="43.3746056111116" lon="12.465234054933298"><ele>371.33333333333337</ele><time>2026-04-26T08:55:17.985Z</time></trkpt><trkpt lat="43.374637270899385" lon="12.465474506871288"><ele>371.6666666666667</ele><time>2026-04-26T08:55:18.985Z</time></trkpt><trkpt lat="43.37467116109889" lon="12.465701911539346"><ele>372.0</ele><time>2026-04-26T08:55:19.985Z</time></trkpt><trkpt lat="43.37470498056713" lon="12.465935430077614"><ele>378.0</ele><time>2026-04-26T08:55:20.985Z</time></trkpt><trkpt lat="43.374747147290726" lon="12.466178900769595"><ele>384.0</ele><time>2026-04-26T08:55:21.985Z</time></trkpt><trkpt lat="43.37479014799356" lon="12.466433527418346"><ele>390.0</ele><time>2026-04-26T08:55:22.985Z</time></trkpt><trkpt lat="43.37482853269934" lon="12.466676736501968"><ele>390.0</ele><time>2026-04-26T08:55:23.985Z</time></trkpt><trkpt lat="43.37486969307623" lon="12.466913038237513"><ele>390.0</ele><time>2026-04-26T08:55:24.985Z</time></trkpt><trkpt lat="43.374909062382045" lon="12.467145148282206"><ele>390.0</ele><time>2026-04-26T08:55:25.985Z</time></trkpt><trkpt lat="43.37494628602152" lon="12.467392264410641"><ele>390.0</ele><time>2026-04-26T08:55:26.985Z</time></trkpt><trkpt lat="43.374981600557746" lon="12.467625872522348"><ele>390.0</ele><time>2026-04-26T08:55:27.985Z</time></trkpt><trkpt lat="43.37500712947085" lon="12.467844463692535"><ele>390.0</ele><time>2026-04-26T08:55:28.985Z</time></trkpt><trkpt lat="43.3750160297692" lon="12.46806315221341"><ele>391.0</ele><time>2026-04-26T08:55:29.985Z</time></trkpt><trkpt lat="43.374998701619454" lon="12.468284869082702"><ele>392.0</ele><time>2026-04-26T08:55:30.985Z</time></trkpt><trkpt lat="43.374964831422254" lon="12.468519167928557"><ele>393.0</ele><time>2026-04-26T08:55:31.985Z</time></trkpt><trkpt lat="43.37489572531917" lon="12.468740203489071"><ele>393.0</ele><time>2026-04-26T08:55:32.985Z</time></trkpt><trkpt lat="43.37487246114621" lon="12.46896709995744"><ele>393.0</ele><time>2026-04-26T08:55:33.985Z</time></trkpt><trkpt lat="43.37485520080162" lon="12.469187681472533"><ele>393.0</ele><time>2026-04-26T08:55:34.985Z</time></trkpt><trkpt lat="43.374875487430714" lon="12.469419699621783"><ele>390.33333333333337</ele><time>2026-04-26T08:55:35.984Z</time></trkpt><trkpt lat="43.374929150075154" lon="12.469645461057535"><ele>387.6666666666667</ele><time>2026-04-26T08:55:36.984Z</time></trkpt><trkpt lat="43.37501921274823" lon="12.469881784357074"><ele>385.0</ele><time>2026-04-26T08:55:37.984Z</time></trkpt><trkpt lat="43.37514038867739" lon="12.470096475117035"><ele>385.0</ele><time>2026-04-26T08:55:38.984Z</time></trkpt><trkpt lat="43.375288253764865" lon="12.47027788895638"><ele>385.0</ele><time>2026-04-26T08:55:39.984Z</time></trkpt><trkpt lat="43.37543141554786" lon="12.470438353228133"><ele>385.0</ele><time>2026-04-26T08:55:40.984Z</time></trkpt><trkpt lat="43.375567172998075" lon="12.470574170900052"><ele>386.5</ele><time>2026-04-26T08:55:41.984Z</time></trkpt><trkpt lat="43.37567996527771" lon="12.470714077881416"><ele>388.0</ele><time>2026-04-26T08:55:42.984Z</time></trkpt><trkpt lat="43.375742029933626" lon="12.470891898749326"><ele>389.5</ele><time>2026-04-26T08:55:43.984Z</time></trkpt><trkpt lat="43.3757672520577" lon="12.471071717896114"><ele>391.0</ele><time>2026-04-26T08:55:44.984Z</time></trkpt><trkpt lat="43.37576799990029" lon="12.471303587580387"><ele>391.0</ele><time>2026-04-26T08:55:45.984Z</time></trkpt><trkpt lat="43.37577232381019" lon="12.471574095062723"><ele>391.0</ele><time>2026-04-26T08:55:46.984Z</time></trkpt><trkpt lat="43.3757406990182" lon="12.471879804794552"><ele>391.0</ele><time>2026-04-26T08:55:47.984Z</time></trkpt><trkpt lat="43.37571896421225" lon="12.47218352818137"><ele>393.33333333333337</ele><time>2026-04-26T08:55:48.984Z</time></trkpt><trkpt lat="43.37569625995661" lon="12.472453816634191"><ele>395.66666666666663</ele><time>2026-04-26T08:55:49.984Z</time></trkpt><trkpt lat="43.37567206203431" lon="12.472725539905733"><ele>398.0</ele><time>2026-04-26T08:55:50.984Z</time></trkpt><trkpt lat="43.37565683577578" lon="12.473004414467418"><ele>399.3333333333333</ele><time>2026-04-26T08:55:51.984Z</time></trkpt><trkpt lat="43.375634943018554" lon="12.473306405516784"><ele>400.66666666666663</ele><time>2026-04-26T08:55:52.984Z</time></trkpt><trkpt lat="43.37561611823171" lon="12.473587894774218"><ele>402.0</ele><time>2026-04-26T08:55:53.984Z</time></trkpt><trkpt lat="43.375595481540515" lon="12.473859063102408"><ele>403.66666666666663</ele><time>2026-04-26T08:55:54.984Z</time></trkpt><trkpt lat="43.37557277334268" lon="12.474131927778703"><ele>405.3333333333333</ele><time>2026-04-26T08:55:55.984Z</time></trkpt><trkpt lat="43.37555554244308" lon="12.474415714389897"><ele>407.0</ele><time>2026-04-26T08:55:56.984Z</time></trkpt><trkpt lat="43.37553801568712" lon="12.474704846099282"><ele>399.3333333333333</ele><time>2026-04-26T08:55:57.984Z</time></trkpt><trkpt lat="43.37551726016248" lon="12.474996274323082"><ele>391.66666666666663</ele><time>2026-04-26T08:55:58.984Z</time></trkpt><trkpt lat="43.375500689236354" lon="12.475270260883548"><ele>384.0</ele><time>2026-04-26T08:55:59.984Z</time></trkpt><trkpt lat="43.37547801949121" lon="12.475491943765228"><ele>384.0</ele><time>2026-04-26T08:56:00.984Z</time></trkpt><trkpt lat="43.37546566219765" lon="12.475734264632361"><ele>384.0</ele><time>2026-04-26T08:56:01.984Z</time></trkpt><trkpt lat="43.37544842228403" lon="12.475981921520988"><ele>384.0</ele><time>2026-04-26T08:56:02.984Z</time></trkpt><trkpt lat="43.37542698128554" lon="12.47623318267393"><ele>384.0</ele><time>2026-04-26T08:56:03.984Z</time></trkpt><trkpt lat="43.37540577652496" lon="12.476474565548752"><ele>384.0</ele><time>2026-04-26T08:56:04.984Z</time></trkpt><trkpt lat="43.3753692361894" lon="12.476707393082762"><ele>384.0</ele><time>2026-04-26T08:56:05.984Z</time></trkpt><trkpt lat="43.375289567124604" lon="12.476921450596182"><ele>388.66666666666663</ele><time>2026-04-26T08:56:06.984Z</time></trkpt><trkpt lat="43.37520072134868" lon="12.477141264910381"><ele>393.3333333333333</ele><time>2026-04-26T08:56:07.984Z</time></trkpt><trkpt lat="43.37509553235025" lon="12.477361488456266"><ele>398.0</ele><time>2026-04-26T08:56:08.984Z</time></trkpt><trkpt lat="43.374972911555474" lon="12.477577567810686"><ele>398.0</ele><time>2026-04-26T08:56:09.984Z</time></trkpt><trkpt lat="43.374835127885284" lon="12.477779080370219"><ele>398.0</ele><time>2026-04-26T08:56:10.984Z</time></trkpt><trkpt lat="43.3746843532618" lon="12.477971484701419"><ele>398.0</ele><time>2026-04-26T08:56:11.984Z</time></trkpt><trkpt lat="43.37452566938459" lon="12.478161509004591"><ele>396.66666666666663</ele><time>2026-04-26T08:56:12.984Z</time></trkpt><trkpt lat="43.374357560322714" lon="12.478354884134276"><ele>395.33333333333337</ele><time>2026-04-26T08:56:13.984Z</time></trkpt><trkpt lat="43.37418717799573" lon="12.478546111354248"><ele>394.0</ele><time>2026-04-26T08:56:14.984Z</time></trkpt><trkpt lat="43.374022378466336" lon="12.47873083377495"><ele>393.0</ele><time>2026-04-26T08:56:15.984Z</time></trkpt><trkpt lat="43.373867497760735" lon="12.47891469121185"><ele>392.0</ele><time>2026-04-26T08:56:16.984Z</time></trkpt><trkpt lat="43.3737260904217" lon="12.479090140123496"><ele>391.0</ele><time>2026-04-26T08:56:17.984Z</time></trkpt><trkpt lat="43.37358806732983" lon="12.479282967356875"><ele>391.0</ele><time>2026-04-26T08:56:18.984Z</time></trkpt><trkpt lat="43.37344990391547" lon="12.479497621085105"><ele>391.0</ele><time>2026-04-26T08:56:19.984Z</time></trkpt><trkpt lat="43.37333154229452" lon="12.47972456035097"><ele>391.0</ele><time>2026-04-26T08:56:20.984Z</time></trkpt><trkpt lat="43.37322542453578" lon="12.479923534371089"><ele>394.6666666666667</ele><time>2026-04-26T08:56:21.984Z</time></trkpt><trkpt lat="43.3731584744333" lon="12.480130577687959"><ele>398.33333333333337</ele><time>2026-04-26T08:56:22.984Z</time></trkpt><trkpt lat="43.37312604049422" lon="12.480360909797476"><ele>402.0</ele><time>2026-04-26T08:56:23.984Z</time></trkpt><trkpt lat="43.37311723122526" lon="12.480593288285544"><ele>402.0</ele><time>2026-04-26T08:56:24.984Z</time></trkpt><trkpt lat="43.37314693212574" lon="12.48082529109862"><ele>402.0</ele><time>2026-04-26T08:56:25.984Z</time></trkpt><trkpt lat="43.37319915611073" lon="12.481070081727584"><ele>402.0</ele><time>2026-04-26T08:56:26.984Z</time></trkpt><trkpt lat="43.37328494605789" lon="12.48129513272554"><ele>400.0</ele><time>2026-04-26T08:56:27.984Z</time></trkpt><trkpt lat="43.373400383216655" lon="12.481504347946258"><ele>398.0</ele><time>2026-04-26T08:56:28.984Z</time></trkpt><trkpt lat="43.37357174900606" lon="12.481668809201121"><ele>396.0</ele><time>2026-04-26T08:56:29.984Z</time></trkpt><trkpt lat="43.373779878473954" lon="12.481824941322232"><ele>397.0</ele><time>2026-04-26T08:56:30.984Z</time></trkpt><trkpt lat="43.37398180368378" lon="12.481984619475952"><ele>398.0</ele><time>2026-04-26T08:56:31.984Z</time></trkpt><trkpt lat="43.37417590812573" lon="12.482148627904207"><ele>398.0</ele><time>2026-04-26T08:56:32.984Z</time></trkpt><trkpt lat="43.37434374234546" lon="12.48231571274354"><ele>398.0</ele><time>2026-04-26T08:56:33.984Z</time></trkpt><trkpt lat="43.37449985586366" lon="12.482478569394175"><ele>398.0</ele><time>2026-04-26T08:56:34.984Z</time></trkpt><trkpt lat="43.374612648848895" lon="12.482662402451481"><ele>399.3333333333333</ele><time>2026-04-26T08:56:35.984Z</time></trkpt><trkpt lat="43.37472842317679" lon="12.482828800506267"><ele>400.66666666666663</ele><time>2026-04-26T08:56:36.984Z</time></trkpt><trkpt lat="43.37484261721138" lon="12.483027403394821"><ele>402.0</ele><time>2026-04-26T08:56:37.984Z</time></trkpt><trkpt lat="43.374954371913596" lon="12.48323285650863"><ele>402.0</ele><time>2026-04-26T08:56:38.984Z</time></trkpt><trkpt lat="43.37506706630822" lon="12.48342358656551"><ele>402.0</ele><time>2026-04-26T08:56:39.984Z</time></trkpt><trkpt lat="43.3751761950467" lon="12.483612309915639"><ele>402.0</ele><time>2026-04-26T08:56:40.983Z</time></trkpt><trkpt lat="43.37528835872246" lon="12.483802719581963"><ele>403.0</ele><time>2026-04-26T08:56:41.983Z</time></trkpt><trkpt lat="43.37541059718408" lon="12.484002404769656"><ele>404.0</ele><time>2026-04-26T08:56:42.983Z</time></trkpt><trkpt lat="43.37554275587336" lon="12.484215091410428"><ele>405.0</ele><time>2026-04-26T08:56:43.983Z</time></trkpt><trkpt lat="43.37567503376618" lon="12.484429504575644"><ele>402.66666666666663</ele><time>2026-04-26T08:56:44.983Z</time></trkpt><trkpt lat="43.375798546768344" lon="12.484636174382542"><ele>400.3333333333333</ele><time>2026-04-26T08:56:45.983Z</time></trkpt><trkpt lat="43.37591856754486" lon="12.484839121529838"><ele>398.0</ele><time>2026-04-26T08:56:46.983Z</time></trkpt><trkpt lat="43.37601599797395" lon="12.485030731769625"><ele>398.0</ele><time>2026-04-26T08:56:47.983Z</time></trkpt><trkpt lat="43.37612429029015" lon="12.48521655591273"><ele>398.0</ele><time>2026-04-26T08:56:48.983Z</time></trkpt><trkpt lat="43.37623155842759" lon="12.485400164594028"><ele>398.0</ele><time>2026-04-26T08:56:49.983Z</time></trkpt><trkpt lat="43.37633726777222" lon="12.485583072811211"><ele>398.66666666666663</ele><time>2026-04-26T08:56:50.983Z</time></trkpt><trkpt lat="43.37643917158827" lon="12.485761614058077"><ele>399.33333333333337</ele><time>2026-04-26T08:56:51.983Z</time></trkpt><trkpt lat="43.3765420039866" lon="12.48592299678937"><ele>400.0</ele><time>2026-04-26T08:56:52.983Z</time></trkpt><trkpt lat="43.376643111327084" lon="12.486085490553652"><ele>400.0</ele><time>2026-04-26T08:56:53.983Z</time></trkpt><trkpt lat="43.37674390416299" lon="12.486247299626335"><ele>400.0</ele><time>2026-04-26T08:56:54.983Z</time></trkpt><trkpt lat="43.37684290350326" lon="12.486411779448641"><ele>400.0</ele><time>2026-04-26T08:56:55.983Z</time></trkpt><trkpt lat="43.3769427793956" lon="12.486575126875907"><ele>400.0</ele><time>2026-04-26T08:56:56.983Z</time></trkpt><trkpt lat="43.377039822767806" lon="12.486739707704206"><ele>400.0</ele><time>2026-04-26T08:56:57.983Z</time></trkpt><trkpt lat="43.377132747993876" lon="12.486895354680788"><ele>400.0</ele><time>2026-04-26T08:56:58.983Z</time></trkpt><trkpt lat="43.37721487093989" lon="12.48703841862922"><ele>400.0</ele><time>2026-04-26T08:56:59.983Z</time></trkpt><trkpt lat="43.377301647527446" lon="12.487190349581057"><ele>400.5</ele><time>2026-04-26T08:57:00.983Z</time></trkpt><trkpt lat="43.3773858602933" lon="12.487337018532804"><ele>401.0</ele><time>2026-04-26T08:57:01.983Z</time></trkpt><trkpt lat="43.377470313088395" lon="12.487490275831286"><ele>401.5</ele><time>2026-04-26T08:57:02.983Z</time></trkpt><trkpt lat="43.377547734739494" lon="12.48765017265726"><ele>402.0</ele><time>2026-04-26T08:57:03.983Z</time></trkpt><trkpt lat="43.37759712114599" lon="12.487830906193333"><ele>402.0</ele><time>2026-04-26T08:57:04.983Z</time></trkpt><trkpt lat="43.377625933031354" lon="12.488028693088651"><ele>402.0</ele><time>2026-04-26T08:57:05.983Z</time></trkpt><trkpt lat="43.37762306134513" lon="12.488234105611818"><ele>402.0</ele><time>2026-04-26T08:57:06.983Z</time></trkpt><trkpt lat="43.377596841225355" lon="12.488429447479941"><ele>402.0</ele><time>2026-04-26T08:57:07.983Z</time></trkpt><trkpt lat="43.37756320713602" lon="12.488609951646819"><ele>402.5</ele><time>2026-04-26T08:57:08.983Z</time></trkpt><trkpt lat="43.3775312703366" lon="12.488780104093827"><ele>403.0</ele><time>2026-04-26T08:57:09.983Z</time></trkpt><trkpt lat="43.377476236516245" lon="12.488956117841061"><ele>403.5</ele><time>2026-04-26T08:57:10.983Z</time></trkpt><trkpt lat="43.37744359241227" lon="12.489137593161955"><ele>404.0</ele><time>2026-04-26T08:57:11.983Z</time></trkpt><trkpt lat="43.377407996349795" lon="12.489326844204387"><ele>404.0</ele><time>2026-04-26T08:57:12.983Z</time></trkpt><trkpt lat="43.37737296446902" lon="12.489518894252807"><ele>404.0</ele><time>2026-04-26T08:57:13.983Z</time></trkpt><trkpt lat="43.377331704117694" lon="12.489721609791172"><ele>404.0</ele><time>2026-04-26T08:57:14.983Z</time></trkpt><trkpt lat="43.37729354156384" lon="12.489931326134192"><ele>405.0</ele><time>2026-04-26T08:57:15.983Z</time></trkpt><trkpt lat="43.37724952736911" lon="12.49013940685488"><ele>406.0</ele><time>2026-04-26T08:57:16.983Z</time></trkpt><trkpt lat="43.377212706689626" lon="12.490335686533786"><ele>407.0</ele><time>2026-04-26T08:57:17.983Z</time></trkpt><trkpt lat="43.37718194963165" lon="12.490504663019731"><ele>408.0</ele><time>2026-04-26T08:57:18.983Z</time></trkpt><trkpt lat="43.377157346893895" lon="12.490668641272604"><ele>409.0</ele><time>2026-04-26T08:57:19.983Z</time></trkpt><trkpt lat="43.377144169503914" lon="12.4908220512191"><ele>410.0</ele><time>2026-04-26T08:57:20.983Z</time></trkpt><trkpt lat="43.37714330117043" lon="12.490979830517068"><ele>411.0</ele><time>2026-04-26T08:57:21.983Z</time></trkpt><trkpt lat="43.37714868709399" lon="12.491142454479853"><ele>412.0</ele><time>2026-04-26T08:57:22.983Z</time></trkpt><trkpt lat="43.37716799981378" lon="12.49130247416888"><ele>411.6</ele><time>2026-04-26T08:57:23.983Z</time></trkpt><trkpt lat="43.37722069324872" lon="12.491457500686039"><ele>411.20000000000005</ele><time>2026-04-26T08:57:24.983Z</time></trkpt><trkpt lat="43.37727040993343" lon="12.491592421981123"><ele>410.8</ele><time>2026-04-26T08:57:25.983Z</time></trkpt><trkpt lat="43.37732040295049" lon="12.491708500378534"><ele>410.4</ele><time>2026-04-26T08:57:26.983Z</time></trkpt><trkpt lat="43.37736177243522" lon="12.491819646051344"><ele>410.0</ele><time>2026-04-26T08:57:27.983Z</time></trkpt><trkpt lat="43.377403381513915" lon="12.491945343681845"><ele>410.0</ele><time>2026-04-26T08:57:28.983Z</time></trkpt><trkpt lat="43.377453939132984" lon="12.492083743711518"><ele>410.0</ele><time>2026-04-26T08:57:29.983Z</time></trkpt><trkpt lat="43.37750200867933" lon="12.492221162566924"><ele>410.0</ele><time>2026-04-26T08:57:30.983Z</time></trkpt><trkpt lat="43.377546483809624" lon="12.492347380018236"><ele>410.0</ele><time>2026-04-26T08:57:31.983Z</time></trkpt><trkpt lat="43.37758400690499" lon="12.492464684204899"><ele>410.0</ele><time>2026-04-26T08:57:32.983Z</time></trkpt><trkpt lat="43.377618287227875" lon="12.492560165575732"><ele>410.0</ele><time>2026-04-26T08:57:33.983Z</time></trkpt><trkpt lat="43.3776624025786" lon="12.49266850323323"><ele>410.0</ele><time>2026-04-26T08:57:34.983Z</time></trkpt><trkpt lat="43.37769618573711" lon="12.492774719512232"><ele>410.0</ele><time>2026-04-26T08:57:35.983Z</time></trkpt><trkpt lat="43.377729775606504" lon="12.492893230039325"><ele>410.0</ele><time>2026-04-26T08:57:36.983Z</time></trkpt><trkpt lat="43.377743486182894" lon="12.492998462530215"><ele>410.0</ele><time>2026-04-26T08:57:37.983Z</time></trkpt><trkpt lat="43.377694589876555" lon="12.493167139196267"><ele>410.4</ele><time>2026-04-26T08:57:39.983Z</time></trkpt><trkpt lat="43.37765092996107" lon="12.493248736115648"><ele>410.8</ele><time>2026-04-26T08:57:40.983Z</time></trkpt><trkpt lat="43.3776128751745" lon="12.493323377386123"><ele>411.20000000000005</ele><time>2026-04-26T08:57:41.983Z</time></trkpt><trkpt lat="43.377428918799104" lon="12.493232574591485"><ele>411.6</ele><time>2026-04-26T08:57:42.983Z</time></trkpt><trkpt lat="43.37732712999876" lon="12.493203340269371"><ele>412.0</ele><time>2026-04-26T08:57:43.983Z</time></trkpt><trkpt lat="43.37721425724197" lon="12.493170714788093"><ele>411.75</ele><time>2026-04-26T08:57:44.983Z</time></trkpt><trkpt lat="43.37708798304939" lon="12.493143180572751"><ele>411.5</ele><time>2026-04-26T08:57:45.983Z</time></trkpt><trkpt lat="43.37696099263337" lon="12.49311325877993"><ele>411.25</ele><time>2026-04-26T08:57:46.982Z</time></trkpt><trkpt lat="43.37684141526272" lon="12.493081657445336"><ele>411.0</ele><time>2026-04-26T08:57:47.982Z</time></trkpt><trkpt lat="43.37672353850522" lon="12.493052279713188"><ele>411.0</ele><time>2026-04-26T08:57:48.982Z</time></trkpt><trkpt lat="43.37660730063352" lon="12.493032775205247"><ele>411.0</ele><time>2026-04-26T08:57:49.982Z</time></trkpt><trkpt lat="43.37649288232582" lon="12.493012354606266"><ele>411.0</ele><time>2026-04-26T08:57:50.982Z</time></trkpt><trkpt lat="43.376398944524276" lon="12.493025561244156"><ele>411.0</ele><time>2026-04-26T08:57:51.982Z</time></trkpt><trkpt lat="43.37629992915913" lon="12.493081515116051"><ele>411.0</ele><time>2026-04-26T08:57:52.982Z</time></trkpt><trkpt lat="43.376208792764714" lon="12.493158607234484"><ele>411.4</ele><time>2026-04-26T08:57:53.982Z</time></trkpt><trkpt lat="43.37613869603447" lon="12.493258033664626"><ele>411.8</ele><time>2026-04-26T08:57:54.982Z</time></trkpt><trkpt lat="43.37609288465125" lon="12.493389796479523"><ele>412.2</ele><time>2026-04-26T08:57:55.982Z</time></trkpt><trkpt lat="43.37606692916205" lon="12.493537943481657"><ele>412.59999999999997</ele><time>2026-04-26T08:57:56.982Z</time></trkpt><trkpt lat="43.37606022879973" lon="12.493686473994138"><ele>413.0</ele><time>2026-04-26T08:57:57.982Z</time></trkpt><trkpt lat="43.37609124637694" lon="12.49382405842572"><ele>413.0</ele><time>2026-04-26T08:57:58.982Z</time></trkpt><trkpt lat="43.37614009805493" lon="12.493953979178821"><ele>413.0</ele><time>2026-04-26T08:57:59.982Z</time></trkpt><trkpt lat="43.37621092040197" lon="12.494075609438626"><ele>413.0</ele><time>2026-04-26T08:58:00.982Z</time></trkpt><trkpt lat="43.37630189866346" lon="12.494165418845586"><ele>413.0</ele><time>2026-04-26T08:58:01.982Z</time></trkpt><trkpt lat="43.376407429505754" lon="12.494247651241952"><ele>412.75</ele><time>2026-04-26T08:58:02.982Z</time></trkpt><trkpt lat="43.37651082592607" lon="12.494335583685547"><ele>412.5</ele><time>2026-04-26T08:58:03.982Z</time></trkpt><trkpt lat="43.37660637146628" lon="12.494440749569552"><ele>412.25</ele><time>2026-04-26T08:58:04.982Z</time></trkpt><trkpt lat="43.37667170201809" lon="12.494562956838989"><ele>412.0</ele><time>2026-04-26T08:58:05.982Z</time></trkpt><trkpt lat="43.37671837620175" lon="12.4947269021935"><ele>412.0</ele><time>2026-04-26T08:58:06.982Z</time></trkpt><trkpt lat="43.37674315919594" lon="12.494916201987712"><ele>412.0</ele><time>2026-04-26T08:58:07.982Z</time></trkpt><trkpt lat="43.376739695957205" lon="12.495133852094572"><ele>412.0</ele><time>2026-04-26T08:58:08.982Z</time></trkpt><trkpt lat="43.37671899830888" lon="12.495357533397739"><ele>412.0</ele><time>2026-04-26T08:58:09.982Z</time></trkpt><trkpt lat="43.3766951823334" lon="12.495580860385216"><ele>412.0</ele><time>2026-04-26T08:58:10.982Z</time></trkpt><trkpt lat="43.376670492670314" lon="12.495819201042323"><ele>412.0</ele><time>2026-04-26T08:58:11.982Z</time></trkpt><trkpt lat="43.37664535308137" lon="12.496048819458213"><ele>411.6666666666667</ele><time>2026-04-26T08:58:12.982Z</time></trkpt><trkpt lat="43.37662490067696" lon="12.496294055897886"><ele>411.33333333333337</ele><time>2026-04-26T08:58:13.982Z</time></trkpt><trkpt lat="43.376600678674116" lon="12.49654483626897"><ele>411.0</ele><time>2026-04-26T08:58:14.982Z</time></trkpt><trkpt lat="43.376576567577004" lon="12.49678577545855"><ele>411.0</ele><time>2026-04-26T08:58:15.982Z</time></trkpt><trkpt lat="43.376545877969676" lon="12.497022279448489"><ele>411.0</ele><time>2026-04-26T08:58:16.982Z</time></trkpt><trkpt lat="43.37651777749153" lon="12.497259553628682"><ele>411.0</ele><time>2026-04-26T08:58:17.982Z</time></trkpt><trkpt lat="43.376490928179706" lon="12.497486151403809"><ele>410.66666666666663</ele><time>2026-04-26T08:58:18.982Z</time></trkpt><trkpt lat="43.37646586918088" lon="12.497703663661992"><ele>410.3333333333333</ele><time>2026-04-26T08:58:19.982Z</time></trkpt><trkpt lat="43.376432101582495" lon="12.49792593225399"><ele>410.0</ele><time>2026-04-26T08:58:20.982Z</time></trkpt><trkpt lat="43.37639044211834" lon="12.498160615986214"><ele>410.66666666666663</ele><time>2026-04-26T08:58:21.982Z</time></trkpt><trkpt lat="43.37634448416082" lon="12.49839356457798"><ele>411.33333333333337</ele><time>2026-04-26T08:58:22.982Z</time></trkpt><trkpt lat="43.3762931120241" lon="12.498616915083398"><ele>412.0</ele><time>2026-04-26T08:58:23.982Z</time></trkpt><trkpt lat="43.3762367841047" lon="12.498820091827708"><ele>412.0</ele><time>2026-04-26T08:58:24.982Z</time></trkpt><trkpt lat="43.37617808862547" lon="12.499024488725569"><ele>412.0</ele><time>2026-04-26T08:58:25.982Z</time></trkpt><trkpt lat="43.37610901476522" lon="12.499228537520494"><ele>412.0</ele><time>2026-04-26T08:58:26.982Z</time></trkpt><trkpt lat="43.37602609063453" lon="12.499442425331251"><ele>411.6666666666667</ele><time>2026-04-26T08:58:27.982Z</time></trkpt><trkpt lat="43.37593875858332" lon="12.499653088304393"><ele>411.33333333333337</ele><time>2026-04-26T08:58:28.982Z</time></trkpt><trkpt lat="43.375849178746165" lon="12.499866179332965"><ele>411.0</ele><time>2026-04-26T08:58:29.982Z</time></trkpt><trkpt lat="43.37574742393042" lon="12.500090123462822"><ele>411.0</ele><time>2026-04-26T08:58:30.982Z</time></trkpt><trkpt lat="43.37563875799487" lon="12.500318898513251"><ele>411.0</ele><time>2026-04-26T08:58:31.982Z</time></trkpt><trkpt lat="43.375534123008364" lon="12.500542637072552"><ele>411.0</ele><time>2026-04-26T08:58:32.982Z</time></trkpt><trkpt lat="43.375405205844665" lon="12.500755679860223"><ele>411.0</ele><time>2026-04-26T08:58:33.982Z</time></trkpt><trkpt lat="43.37529700645435" lon="12.500998936724367"><ele>411.0</ele><time>2026-04-26T08:58:34.982Z</time></trkpt><trkpt lat="43.37517909712389" lon="12.501220421469036"><ele>411.0</ele><time>2026-04-26T08:58:35.982Z</time></trkpt><trkpt lat="43.37506693987619" lon="12.501420976570195"><ele>411.0</ele><time>2026-04-26T08:58:36.982Z</time></trkpt><trkpt lat="43.374964755206854" lon="12.50160797848781"><ele>411.0</ele><time>2026-04-26T08:58:37.982Z</time></trkpt><trkpt lat="43.374862352594405" lon="12.501796108708355"><ele>411.0</ele><time>2026-04-26T08:58:38.982Z</time></trkpt><trkpt lat="43.37475870982722" lon="12.501997388495292"><ele>409.33333333333337</ele><time>2026-04-26T08:58:39.982Z</time></trkpt><trkpt lat="43.3746501436528" lon="12.50220820926353"><ele>407.6666666666667</ele><time>2026-04-26T08:58:40.982Z</time></trkpt><trkpt lat="43.374535821605285" lon="12.502428468274568"><ele>406.0</ele><time>2026-04-26T08:58:41.982Z</time></trkpt><trkpt lat="43.37442314416415" lon="12.502649570921244"><ele>406.0</ele><time>2026-04-26T08:58:42.982Z</time></trkpt><trkpt lat="43.37431992959324" lon="12.502867294291411"><ele>406.0</ele><time>2026-04-26T08:58:43.982Z</time></trkpt><trkpt lat="43.374201387019326" lon="12.50307274119694"><ele>406.0</ele><time>2026-04-26T08:58:44.982Z</time></trkpt><trkpt lat="43.37408924768714" lon="12.503304256216765"><ele>405.6666666666667</ele><time>2026-04-26T08:58:45.982Z</time></trkpt><trkpt lat="43.37395700078533" lon="12.503519340934469"><ele>405.33333333333337</ele><time>2026-04-26T08:58:46.982Z</time></trkpt><trkpt lat="43.37385301991296" lon="12.503755538777039"><ele>405.0</ele><time>2026-04-26T08:58:47.982Z</time></trkpt><trkpt lat="43.37372438431425" lon="12.503976159666857"><ele>404.66666666666663</ele><time>2026-04-26T08:58:48.982Z</time></trkpt><trkpt lat="43.37358789501745" lon="12.504220186817026"><ele>404.3333333333333</ele><time>2026-04-26T08:58:49.982Z</time></trkpt><trkpt lat="43.37347573831461" lon="12.50447232497225"><ele>404.0</ele><time>2026-04-26T08:58:50.982Z</time></trkpt><trkpt lat="43.37333356486646" lon="12.504710318298944"><ele>404.0</ele><time>2026-04-26T08:58:51.982Z</time></trkpt><trkpt lat="43.37319969570022" lon="12.504968303920027"><ele>404.0</ele><time>2026-04-26T08:58:52.999Z</time></trkpt><trkpt lat="43.373085263304255" lon="12.505221770146031"><ele>404.0</ele><time>2026-04-26T08:58:53.999Z</time></trkpt><trkpt lat="43.37294144166199" lon="12.505464296071288"><ele>402.0</ele><time>2026-04-26T08:58:54.999Z</time></trkpt><trkpt lat="43.372812566627644" lon="12.505737577673285"><ele>400.0</ele><time>2026-04-26T08:58:55.999Z</time></trkpt><trkpt lat="43.372670033592144" lon="12.505992345725486"><ele>400.0</ele><time>2026-04-26T08:58:56.999Z</time></trkpt><trkpt lat="43.37252959870486" lon="12.506244086551524"><ele>400.0</ele><time>2026-04-26T08:58:57.999Z</time></trkpt><trkpt lat="43.37239445365792" lon="12.506503192215101"><ele>399.5</ele><time>2026-04-26T08:58:58.999Z</time></trkpt><trkpt lat="43.37225626678504" lon="12.506765370743866"><ele>399.0</ele><time>2026-04-26T08:58:59.999Z</time></trkpt><trkpt lat="43.372119439195686" lon="12.507023566385401"><ele>398.5</ele><time>2026-04-26T08:59:00.999Z</time></trkpt><trkpt lat="43.3719803322801" lon="12.507292021830748"><ele>398.0</ele><time>2026-04-26T08:59:01.999Z</time></trkpt><trkpt lat="43.371827039037754" lon="12.507536306244438"><ele>398.0</ele><time>2026-04-26T08:59:02.999Z</time></trkpt><trkpt lat="43.37168770264803" lon="12.50778886895173"><ele>398.0</ele><time>2026-04-26T08:59:03.999Z</time></trkpt><trkpt lat="43.37155991441368" lon="12.508003559087726"><ele>398.0</ele><time>2026-04-26T08:59:04.999Z</time></trkpt><trkpt lat="43.37144402241935" lon="12.508217492981224"><ele>398.3333333333333</ele><time>2026-04-26T08:59:05.999Z</time></trkpt><trkpt lat="43.37130753622323" lon="12.508448694321332"><ele>398.66666666666663</ele><time>2026-04-26T08:59:06.999Z</time></trkpt><trkpt lat="43.37117247669882" lon="12.508672478350306"><ele>399.0</ele><time>2026-04-26T08:59:07.999Z</time></trkpt><trkpt lat="43.37103336445498" lon="12.508909141330973"><ele>399.0</ele><time>2026-04-26T08:59:08.999Z</time></trkpt><trkpt lat="43.37089603999779" lon="12.509134097616236"><ele>399.0</ele><time>2026-04-26T08:59:09.999Z</time></trkpt><trkpt lat="43.37075094685642" lon="12.50936821999584"><ele>399.0</ele><time>2026-04-26T08:59:10.999Z</time></trkpt><trkpt lat="43.37060517470027" lon="12.509604528113947"><ele>398.5</ele><time>2026-04-26T08:59:11.999Z</time></trkpt><trkpt lat="43.37045683638237" lon="12.509831360807219"><ele>398.0</ele><time>2026-04-26T08:59:12.999Z</time></trkpt><trkpt lat="43.370309049258914" lon="12.510086309774456"><ele>398.0</ele><time>2026-04-26T08:59:13.999Z</time></trkpt><trkpt lat="43.370168335391895" lon="12.5103188252719"><ele>398.0</ele><time>2026-04-26T08:59:14.999Z</time></trkpt><trkpt lat="43.37002381538902" lon="12.510556638518944"><ele>398.0</ele><time>2026-04-26T08:59:15.999Z</time></trkpt><trkpt lat="43.36987790942121" lon="12.510788052198146"><ele>399.0</ele><time>2026-04-26T08:59:16.999Z</time></trkpt><trkpt lat="43.36974328564037" lon="12.511007263286793"><ele>400.0</ele><time>2026-04-26T08:59:17.999Z</time></trkpt><trkpt lat="43.369620545359055" lon="12.511218141068781"><ele>401.0</ele><time>2026-04-26T08:59:18.999Z</time></trkpt><trkpt lat="43.369485436045736" lon="12.511443082461035"><ele>401.0</ele><time>2026-04-26T08:59:19.999Z</time></trkpt><trkpt lat="43.36935743559678" lon="12.511667020447113"><ele>401.0</ele><time>2026-04-26T08:59:20.999Z</time></trkpt><trkpt lat="43.36922465389137" lon="12.511889391136744"><ele>401.0</ele><time>2026-04-26T08:59:21.999Z</time></trkpt><trkpt lat="43.369102965164686" lon="12.512094227364358"><ele>401.0</ele><time>2026-04-26T08:59:22.999Z</time></trkpt><trkpt lat="43.36898215397139" lon="12.512307605770163"><ele>401.0</ele><time>2026-04-26T08:59:23.999Z</time></trkpt><trkpt lat="43.368863039211746" lon="12.512518010658782"><ele>401.0</ele><time>2026-04-26T08:59:24.999Z</time></trkpt><trkpt lat="43.36873999443184" lon="12.51273281490324"><ele>401.66666666666663</ele><time>2026-04-26T08:59:25.999Z</time></trkpt><trkpt lat="43.368625499234" lon="12.512941261572188"><ele>402.33333333333337</ele><time>2026-04-26T08:59:26.999Z</time></trkpt><trkpt lat="43.36851006266912" lon="12.51315731489506"><ele>403.0</ele><time>2026-04-26T08:59:27.999Z</time></trkpt><trkpt lat="43.36838953231916" lon="12.51337732749781"><ele>403.0</ele><time>2026-04-26T08:59:28.999Z</time></trkpt><trkpt lat="43.36826992778188" lon="12.513600569699197"><ele>403.0</ele><time>2026-04-26T08:59:29.999Z</time></trkpt><trkpt lat="43.368149354258584" lon="12.513823829280312"><ele>403.0</ele><time>2026-04-26T08:59:30.999Z</time></trkpt><trkpt lat="43.36802576928315" lon="12.514052425223623"><ele>403.33333333333337</ele><time>2026-04-26T08:59:31.999Z</time></trkpt><trkpt lat="43.36790359189446" lon="12.514284930352016"><ele>403.66666666666663</ele><time>2026-04-26T08:59:32.999Z</time></trkpt><trkpt lat="43.367783672179584" lon="12.514513033696643"><ele>404.0</ele><time>2026-04-26T08:59:33.999Z</time></trkpt><trkpt lat="43.367664239709676" lon="12.514741129469588"><ele>404.0</ele><time>2026-04-26T08:59:34.999Z</time></trkpt><trkpt lat="43.36754322268" lon="12.514966439735113"><ele>404.0</ele><time>2026-04-26T08:59:35.999Z</time></trkpt><trkpt lat="43.3674271249518" lon="12.515190921125324"><ele>404.0</ele><time>2026-04-26T08:59:36.999Z</time></trkpt><trkpt lat="43.367312509229606" lon="12.515420690761031"><ele>404.3333333333333</ele><time>2026-04-26T08:59:37.999Z</time></trkpt><trkpt lat="43.367208595198846" lon="12.515633460984933"><ele>404.66666666666663</ele><time>2026-04-26T08:59:38.999Z</time></trkpt><trkpt lat="43.36711009392863" lon="12.515830184138645"><ele>405.0</ele><time>2026-04-26T08:59:40Z</time></trkpt><trkpt lat="43.36701612381154" lon="12.516024265141892"><ele>405.0</ele><time>2026-04-26T08:59:41Z</time></trkpt><trkpt lat="43.36692265336438" lon="12.516219109198744"><ele>405.0</ele><time>2026-04-26T08:59:42Z</time></trkpt><trkpt lat="43.36683021503419" lon="12.516415355405902"><ele>405.0</ele><time>2026-04-26T08:59:43Z</time></trkpt><trkpt lat="43.36673518833588" lon="12.516608886829548"><ele>406.0</ele><time>2026-04-26T08:59:44Z</time></trkpt><trkpt lat="43.36663519983658" lon="12.516818175876434"><ele>407.0</ele><time>2026-04-26T08:59:45Z</time></trkpt><trkpt lat="43.366537508884086" lon="12.517032271184869"><ele>408.0</ele><time>2026-04-26T08:59:46Z</time></trkpt><trkpt lat="43.36643979625169" lon="12.517239093447511"><ele>408.66666666666663</ele><time>2026-04-26T08:59:47Z</time></trkpt><trkpt lat="43.36634381415414" lon="12.517442580992624"><ele>409.3333333333333</ele><time>2026-04-26T08:59:48Z</time></trkpt><trkpt lat="43.366247676198896" lon="12.517641113936769"><ele>410.0</ele><time>2026-04-26T08:59:48.999Z</time></trkpt><trkpt lat="43.36615031712803" lon="12.517840842046436"><ele>410.0</ele><time>2026-04-26T08:59:50Z</time></trkpt><trkpt lat="43.36604764464727" lon="12.518039350624727"><ele>410.0</ele><time>2026-04-26T08:59:51Z</time></trkpt><trkpt lat="43.36594682687726" lon="12.518242863519216"><ele>410.0</ele><time>2026-04-26T08:59:52Z</time></trkpt><trkpt lat="43.365838749359504" lon="12.518455694544"><ele>410.0</ele><time>2026-04-26T08:59:53Z</time></trkpt><trkpt lat="43.36573466360758" lon="12.518670245406403"><ele>410.0</ele><time>2026-04-26T08:59:54Z</time></trkpt><trkpt lat="43.365622987739755" lon="12.518884595165725"><ele>410.0</ele><time>2026-04-26T08:59:55Z</time></trkpt><trkpt lat="43.36550837119607" lon="12.51909782280195"><ele>410.3333333333333</ele><time>2026-04-26T08:59:56Z</time></trkpt><trkpt lat="43.3653872937602" lon="12.519318347125585"><ele>410.66666666666663</ele><time>2026-04-26T08:59:57Z</time></trkpt><trkpt lat="43.36526277142813" lon="12.519546123129022"><ele>411.0</ele><time>2026-04-26T08:59:58Z</time></trkpt><trkpt lat="43.36514205952194" lon="12.519775762507285"><ele>411.66666666666663</ele><time>2026-04-26T08:59:59Z</time></trkpt><trkpt lat="43.36502574190326" lon="12.520005290861906"><ele>412.3333333333333</ele><time>2026-04-26T09:00:00Z</time></trkpt><trkpt lat="43.36490466866917" lon="12.520231913836726"><ele>413.0</ele><time>2026-04-26T09:00:01Z</time></trkpt><trkpt lat="43.364785577546066" lon="12.520451530967438"><ele>413.3333333333333</ele><time>2026-04-26T09:00:02Z</time></trkpt><trkpt lat="43.364664645949745" lon="12.52067249275862"><ele>413.66666666666663</ele><time>2026-04-26T09:00:03Z</time></trkpt><trkpt lat="43.36454117680388" lon="12.520890173966318"><ele>414.0</ele><time>2026-04-26T09:00:04Z</time></trkpt><trkpt lat="43.364421080910645" lon="12.521105135834345"><ele>414.33333333333337</ele><time>2026-04-26T09:00:05Z</time></trkpt><trkpt lat="43.36429807063496" lon="12.52132637907664"><ele>414.6666666666667</ele><time>2026-04-26T09:00:06Z</time></trkpt><trkpt lat="43.36417275405172" lon="12.521550611154671"><ele>415.0</ele><time>2026-04-26T09:00:07Z</time></trkpt><trkpt lat="43.36405552040585" lon="12.52175816141051"><ele>415.0</ele><time>2026-04-26T09:00:08Z</time></trkpt><trkpt lat="43.36393874437085" lon="12.521968450656326"><ele>415.0</ele><time>2026-04-26T09:00:09Z</time></trkpt><trkpt lat="43.36381839389101" lon="12.522174847840239"><ele>415.0</ele><time>2026-04-26T09:00:10Z</time></trkpt><trkpt lat="43.36370007783285" lon="12.522379960867699"><ele>415.0</ele><time>2026-04-26T09:00:11Z</time></trkpt><trkpt lat="43.36358236525086" lon="12.522585570336899"><ele>415.0</ele><time>2026-04-26T09:00:12Z</time></trkpt><trkpt lat="43.36345459582237" lon="12.522811486061551"><ele>415.0</ele><time>2026-04-26T09:00:13Z</time></trkpt><trkpt lat="43.36332551364408" lon="12.523036472371919"><ele>416.0</ele><time>2026-04-26T09:00:14Z</time></trkpt><trkpt lat="43.363195021995615" lon="12.52326663528009"><ele>417.0</ele><time>2026-04-26T09:00:15Z</time></trkpt><trkpt lat="43.36306627318407" lon="12.52348981454789"><ele>418.0</ele><time>2026-04-26T09:00:16Z</time></trkpt><trkpt lat="43.36293611346225" lon="12.523715598799297"><ele>419.33333333333337</ele><time>2026-04-26T09:00:17Z</time></trkpt><trkpt lat="43.362807061948054" lon="12.523934214558519"><ele>420.66666666666663</ele><time>2026-04-26T09:00:18Z</time></trkpt><trkpt lat="43.36268285900374" lon="12.524158575824208"><ele>422.0</ele><time>2026-04-26T09:00:19Z</time></trkpt><trkpt lat="43.362553044264196" lon="12.52438432495374"><ele>421.66666666666663</ele><time>2026-04-26T09:00:20Z</time></trkpt><trkpt lat="43.36242878364608" lon="12.524609660326227"><ele>421.33333333333337</ele><time>2026-04-26T09:00:21Z</time></trkpt><trkpt lat="43.36229955982765" lon="12.524834998977274"><ele>421.0</ele><time>2026-04-26T09:00:22Z</time></trkpt><trkpt lat="43.36217779771963" lon="12.525065988540469"><ele>420.6666666666667</ele><time>2026-04-26T09:00:23Z</time></trkpt><trkpt lat="43.36204854801856" lon="12.5252879245758"><ele>420.33333333333337</ele><time>2026-04-26T09:00:23.999Z</time></trkpt><trkpt lat="43.36192588442351" lon="12.525505073246489"><ele>420.0</ele><time>2026-04-26T09:00:24.999Z</time></trkpt><trkpt lat="43.36180232629193" lon="12.525726449065946"><ele>420.66666666666663</ele><time>2026-04-26T09:00:25.999Z</time></trkpt><trkpt lat="43.361677907925554" lon="12.525946263087246"><ele>421.3333333333333</ele><time>2026-04-26T09:00:26.999Z</time></trkpt><trkpt lat="43.36155852644708" lon="12.526161333512178"><ele>422.0</ele><time>2026-04-26T09:00:27.999Z</time></trkpt><trkpt lat="43.36144319453444" lon="12.526369551893538"><ele>423.0</ele><time>2026-04-26T09:00:28.999Z</time></trkpt><trkpt lat="43.36131321442477" lon="12.526589361082427"><ele>424.0</ele><time>2026-04-26T09:00:29.999Z</time></trkpt><trkpt lat="43.361183102444706" lon="12.526817595493638"><ele>425.0</ele><time>2026-04-26T09:00:30.999Z</time></trkpt><trkpt lat="43.3610521359493" lon="12.52704206088098"><ele>425.3333333333333</ele><time>2026-04-26T09:00:31.999Z</time></trkpt><trkpt lat="43.360925098334306" lon="12.527257081946566"><ele>425.66666666666663</ele><time>2026-04-26T09:00:32.999Z</time></trkpt><trkpt lat="43.36079448223596" lon="12.527483402589835"><ele>426.0</ele><time>2026-04-26T09:00:33.999Z</time></trkpt><trkpt lat="43.360673199497256" lon="12.527705594169989"><ele>426.33333333333337</ele><time>2026-04-26T09:00:34.999Z</time></trkpt><trkpt lat="43.360544135818486" lon="12.527928840079316"><ele>426.6666666666667</ele><time>2026-04-26T09:00:35.999Z</time></trkpt><trkpt lat="43.36041305833157" lon="12.528162974748"><ele>427.0</ele><time>2026-04-26T09:00:36.999Z</time></trkpt><trkpt lat="43.360281104175286" lon="12.528394998118829"><ele>427.0</ele><time>2026-04-26T09:00:37.999Z</time></trkpt><trkpt lat="43.36014869731724" lon="12.528620170548887"><ele>427.0</ele><time>2026-04-26T09:00:38.999Z</time></trkpt><trkpt lat="43.360016244299025" lon="12.528849302185524"><ele>427.0</ele><time>2026-04-26T09:00:39.999Z</time></trkpt><trkpt lat="43.35988583428271" lon="12.529082216962783"><ele>427.33333333333337</ele><time>2026-04-26T09:00:40.999Z</time></trkpt><trkpt lat="43.35975082084782" lon="12.529318923893213"><ele>427.66666666666663</ele><time>2026-04-26T09:00:41.999Z</time></trkpt><trkpt lat="43.359618766042225" lon="12.529546531550363"><ele>428.0</ele><time>2026-04-26T09:00:42.999Z</time></trkpt><trkpt lat="43.359486480942486" lon="12.52976239908876"><ele>428.66666666666663</ele><time>2026-04-26T09:00:43.999Z</time></trkpt><trkpt lat="43.359361216805006" lon="12.529977166377806"><ele>429.33333333333337</ele><time>2026-04-26T09:00:44.999Z</time></trkpt><trkpt lat="43.359247132143615" lon="12.530205013140788"><ele>430.0</ele><time>2026-04-26T09:00:45.999Z</time></trkpt><trkpt lat="43.35913186730668" lon="12.530423225226745"><ele>429.6666666666667</ele><time>2026-04-26T09:00:46.999Z</time></trkpt><trkpt lat="43.35900215367375" lon="12.530642902523965"><ele>429.33333333333337</ele><time>2026-04-26T09:00:47.999Z</time></trkpt><trkpt lat="43.358874981743256" lon="12.530865446054047"><ele>429.0</ele><time>2026-04-26T09:00:48.999Z</time></trkpt><trkpt lat="43.35875162762272" lon="12.531085053223384"><ele>429.66666666666663</ele><time>2026-04-26T09:00:49.999Z</time></trkpt><trkpt lat="43.35863164507792" lon="12.531305952052737"><ele>430.3333333333333</ele><time>2026-04-26T09:00:50.999Z</time></trkpt><trkpt lat="43.358512443296846" lon="12.531511610484115"><ele>431.0</ele><time>2026-04-26T09:00:51.999Z</time></trkpt><trkpt lat="43.35840431302929" lon="12.531718564323334"><ele>431.0</ele><time>2026-04-26T09:00:52.999Z</time></trkpt><trkpt lat="43.35830107089808" lon="12.531932537440156"><ele>431.0</ele><time>2026-04-26T09:00:53.999Z</time></trkpt><trkpt lat="43.35819688834858" lon="12.532154822679741"><ele>431.0</ele><time>2026-04-26T09:00:54.999Z</time></trkpt><trkpt lat="43.358095891097264" lon="12.532398102282565"><ele>432.3333333333333</ele><time>2026-04-26T09:00:55.999Z</time></trkpt><trkpt lat="43.35800990855611" lon="12.532628064578422"><ele>433.66666666666663</ele><time>2026-04-26T09:00:56.999Z</time></trkpt><trkpt lat="43.35793599743095" lon="12.532879515611176"><ele>435.0</ele><time>2026-04-26T09:00:57.999Z</time></trkpt><trkpt lat="43.357870772810124" lon="12.533135329796801"><ele>435.0</ele><time>2026-04-26T09:00:58.999Z</time></trkpt><trkpt lat="43.35781124118974" lon="12.533387473827686"><ele>435.0</ele><time>2026-04-26T09:00:59.999Z</time></trkpt><trkpt lat="43.357760285905805" lon="12.53364049835864"><ele>435.0</ele><time>2026-04-26T09:01:00.999Z</time></trkpt><trkpt lat="43.35771564446066" lon="12.53389843468043"><ele>435.66666666666663</ele><time>2026-04-26T09:01:01.999Z</time></trkpt><trkpt lat="43.357675497687794" lon="12.53416204823385"><ele>436.3333333333333</ele><time>2026-04-26T09:01:02.999Z</time></trkpt><trkpt lat="43.35763771587496" lon="12.534435565184811"><ele>437.0</ele><time>2026-04-26T09:01:03.999Z</time></trkpt><trkpt lat="43.35760432853105" lon="12.534708217453325"><ele>437.0</ele><time>2026-04-26T09:01:04.999Z</time></trkpt><trkpt lat="43.357572014174394" lon="12.534983236696638"><ele>437.0</ele><time>2026-04-26T09:01:05.999Z</time></trkpt><trkpt lat="43.35754839894052" lon="12.535238617720573"><ele>437.0</ele><time>2026-04-26T09:01:06.999Z</time></trkpt><trkpt lat="43.3575169806489" lon="12.5354934262659"><ele>438.0</ele><time>2026-04-26T09:01:07.999Z</time></trkpt><trkpt lat="43.357481059224284" lon="12.53574822420778"><ele>439.0</ele><time>2026-04-26T09:01:08.999Z</time></trkpt><trkpt lat="43.35744813864165" lon="12.536025386429944"><ele>440.0</ele><time>2026-04-26T09:01:09.999Z</time></trkpt><trkpt lat="43.35741489592271" lon="12.536304884988972"><ele>440.3333333333333</ele><time>2026-04-26T09:01:10.999Z</time></trkpt><trkpt lat="43.35738425784051" lon="12.5365865209446"><ele>440.66666666666663</ele><time>2026-04-26T09:01:11.999Z</time></trkpt><trkpt lat="43.35735229828498" lon="12.536859845033764"><ele>441.0</ele><time>2026-04-26T09:01:12.999Z</time></trkpt><trkpt lat="43.35731696679486" lon="12.53713140483111"><ele>441.66666666666663</ele><time>2026-04-26T09:01:13.999Z</time></trkpt><trkpt lat="43.35727729735421" lon="12.537403531152071"><ele>442.3333333333333</ele><time>2026-04-26T09:01:14.999Z</time></trkpt><trkpt lat="43.35724458764366" lon="12.537684406229257"><ele>443.0</ele><time>2026-04-26T09:01:15.999Z</time></trkpt><trkpt lat="43.3572122368361" lon="12.537945755926263"><ele>443.66666666666663</ele><time>2026-04-26T09:01:16.999Z</time></trkpt><trkpt lat="43.357168955727644" lon="12.538208037884452"><ele>444.33333333333337</ele><time>2026-04-26T09:01:17.999Z</time></trkpt><trkpt lat="43.35713738871125" lon="12.538458346235174"><ele>445.0</ele><time>2026-04-26T09:01:18.999Z</time></trkpt><trkpt lat="43.35710604319521" lon="12.538706380059818"><ele>445.6666666666667</ele><time>2026-04-26T09:01:19.999Z</time></trkpt><trkpt lat="43.35707595502029" lon="12.538943971940194"><ele>446.33333333333337</ele><time>2026-04-26T09:01:20.999Z</time></trkpt><trkpt lat="43.35704483435996" lon="12.539189716892722"><ele>447.0</ele><time>2026-04-26T09:01:21.999Z</time></trkpt><trkpt lat="43.35702994495818" lon="12.539436490504325"><ele>446.66666666666663</ele><time>2026-04-26T09:01:22.999Z</time></trkpt><trkpt lat="43.35699505227439" lon="12.539689338523406"><ele>446.3333333333333</ele><time>2026-04-26T09:01:23.999Z</time></trkpt><trkpt lat="43.356956453635526" lon="12.539947637114723"><ele>446.0</ele><time>2026-04-26T09:01:24.999Z</time></trkpt><trkpt lat="43.356920853128734" lon="12.540219497017643"><ele>447.0</ele><time>2026-04-26T09:01:25.999Z</time></trkpt><trkpt lat="43.35688767466326" lon="12.540492050110503"><ele>448.0</ele><time>2026-04-26T09:01:26.999Z</time></trkpt><trkpt lat="43.35685346289052" lon="12.540765574559662"><ele>449.0</ele><time>2026-04-26T09:01:27.999Z</time></trkpt><trkpt lat="43.356819098616754" lon="12.541034382402167"><ele>449.3333333333333</ele><time>2026-04-26T09:01:28.999Z</time></trkpt><trkpt lat="43.35678411627912" lon="12.541300454839778"><ele>449.66666666666663</ele><time>2026-04-26T09:01:29.998Z</time></trkpt><trkpt lat="43.35675107789301" lon="12.541570233905988"><ele>450.0</ele><time>2026-04-26T09:01:30.998Z</time></trkpt><trkpt lat="43.35671538385069" lon="12.541837339354183"><ele>450.66666666666663</ele><time>2026-04-26T09:01:31.998Z</time></trkpt><trkpt lat="43.356680195531766" lon="12.542096315498679"><ele>451.3333333333333</ele><time>2026-04-26T09:01:32.998Z</time></trkpt><trkpt lat="43.3566425048574" lon="12.542355986334812"><ele>452.0</ele><time>2026-04-26T09:01:33.998Z</time></trkpt><trkpt lat="43.35661096863295" lon="12.54262680181865"><ele>452.3333333333333</ele><time>2026-04-26T09:01:34.998Z</time></trkpt><trkpt lat="43.356577150140524" lon="12.542895889019377"><ele>452.66666666666663</ele><time>2026-04-26T09:01:35.998Z</time></trkpt><trkpt lat="43.35654099732714" lon="12.543173230220987"><ele>453.0</ele><time>2026-04-26T09:01:36.998Z</time></trkpt><trkpt lat="43.356504238337926" lon="12.54343755582925"><ele>453.0</ele><time>2026-04-26T09:01:37.998Z</time></trkpt><trkpt lat="43.35647741775906" lon="12.543706941167676"><ele>453.0</ele><time>2026-04-26T09:01:38.998Z</time></trkpt><trkpt lat="43.35644905420579" lon="12.543971158335767"><ele>453.0</ele><time>2026-04-26T09:01:39.998Z</time></trkpt><trkpt lat="43.35641732031124" lon="12.544227112749573"><ele>453.0</ele><time>2026-04-26T09:01:40.998Z</time></trkpt><trkpt lat="43.35637158318853" lon="12.54446427962501"><ele>453.0</ele><time>2026-04-26T09:01:41.998Z</time></trkpt><trkpt lat="43.35635737976154" lon="12.54470860509102"><ele>453.0</ele><time>2026-04-26T09:01:42.998Z</time></trkpt><trkpt lat="43.35632350642529" lon="12.544937709975747"><ele>453.0</ele><time>2026-04-26T09:01:43.998Z</time></trkpt><trkpt lat="43.3562918962908" lon="12.545168167260991"><ele>453.0</ele><time>2026-04-26T09:01:44.998Z</time></trkpt><trkpt lat="43.35626308755174" lon="12.54540997645756"><ele>453.0</ele><time>2026-04-26T09:01:46Z</time></trkpt><trkpt lat="43.356232159928275" lon="12.545645195312431"><ele>454.0</ele><time>2026-04-26T09:01:47Z</time></trkpt><trkpt lat="43.356200439978004" lon="12.545888307986964"><ele>455.0</ele><time>2026-04-26T09:01:48Z</time></trkpt><trkpt lat="43.35616842529048" lon="12.546130602802112"><ele>456.0</ele><time>2026-04-26T09:01:49Z</time></trkpt><trkpt lat="43.35613948232901" lon="12.546383847854678"><ele>456.0</ele><time>2026-04-26T09:01:50Z</time></trkpt><trkpt lat="43.35610897190988" lon="12.546646747569323"><ele>456.0</ele><time>2026-04-26T09:01:51Z</time></trkpt><trkpt lat="43.35606004529563" lon="12.546923724699301"><ele>456.0</ele><time>2026-04-26T09:01:52Z</time></trkpt><trkpt lat="43.356021022644484" lon="12.547222984055335"><ele>456.5</ele><time>2026-04-26T09:01:53Z</time></trkpt><trkpt lat="43.35597618854785" lon="12.547554859965159"><ele>457.0</ele><time>2026-04-26T09:01:54Z</time></trkpt><trkpt lat="43.355927857927945" lon="12.547887174942877"><ele>459.0</ele><time>2026-04-26T09:01:55Z</time></trkpt><trkpt lat="43.35587007030157" lon="12.548231469529718"><ele>461.0</ele><time>2026-04-26T09:01:56Z</time></trkpt><trkpt lat="43.355803553375104" lon="12.548585219698479"><ele>461.5</ele><time>2026-04-26T09:01:57Z</time></trkpt><trkpt lat="43.355728305428386" lon="12.548911575312546"><ele>462.0</ele><time>2026-04-26T09:01:58Z</time></trkpt><trkpt lat="43.3556515011956" lon="12.549201137414546"><ele>462.0</ele><time>2026-04-26T09:01:59Z</time></trkpt><trkpt lat="43.355572729206635" lon="12.549473796619306"><ele>462.0</ele><time>2026-04-26T09:02:00Z</time></trkpt><trkpt lat="43.355487136390735" lon="12.549748982914693"><ele>462.0</ele><time>2026-04-26T09:02:01Z</time></trkpt><trkpt lat="43.355395574414494" lon="12.550024969397027"><ele>461.0</ele><time>2026-04-26T09:02:02Z</time></trkpt><trkpt lat="43.35531349856546" lon="12.55031442801382"><ele>460.0</ele><time>2026-04-26T09:02:03Z</time></trkpt><trkpt lat="43.35520390159758" lon="12.550576153264025"><ele>459.0</ele><time>2026-04-26T09:02:04Z</time></trkpt><trkpt lat="43.35509522914099" lon="12.550839201145196"><ele>458.66666666666663</ele><time>2026-04-26T09:02:05Z</time></trkpt><trkpt lat="43.354990973940616" lon="12.551083648791543"><ele>458.3333333333333</ele><time>2026-04-26T09:02:05.999Z</time></trkpt><trkpt lat="43.354866595641994" lon="12.551311925580794"><ele>458.0</ele><time>2026-04-26T09:02:06.999Z</time></trkpt><trkpt lat="43.35474956443074" lon="12.551541401726121"><ele>458.3333333333333</ele><time>2026-04-26T09:02:07.999Z</time></trkpt><trkpt lat="43.354624124488915" lon="12.55177005678665"><ele>458.66666666666663</ele><time>2026-04-26T09:02:08.999Z</time></trkpt><trkpt lat="43.35449568944217" lon="12.551997805588197"><ele>459.0</ele><time>2026-04-26T09:02:09.999Z</time></trkpt><trkpt lat="43.35435991127587" lon="12.552236260593762"><ele>459.5</ele><time>2026-04-26T09:02:10.999Z</time></trkpt><trkpt lat="43.354223335309186" lon="12.552478939475717"><ele>460.0</ele><time>2026-04-26T09:02:11.999Z</time></trkpt><trkpt lat="43.35408605307668" lon="12.552728007210293"><ele>459.6666666666667</ele><time>2026-04-26T09:02:12.999Z</time></trkpt><trkpt lat="43.353947962249606" lon="12.552978529814492"><ele>459.33333333333337</ele><time>2026-04-26T09:02:13.999Z</time></trkpt><trkpt lat="43.35381852830166" lon="12.553216251408351"><ele>459.0</ele><time>2026-04-26T09:02:14.999Z</time></trkpt><trkpt lat="43.35370035570094" lon="12.553443918979934"><ele>458.66666666666663</ele><time>2026-04-26T09:02:15.999Z</time></trkpt><trkpt lat="43.35359023575525" lon="12.553684602622772"><ele>458.3333333333333</ele><time>2026-04-26T09:02:16.999Z</time></trkpt><trkpt lat="43.35345826199415" lon="12.553914422346507"><ele>458.0</ele><time>2026-04-26T09:02:17.999Z</time></trkpt><trkpt lat="43.3533348465348" lon="12.554143463230444"><ele>458.0</ele><time>2026-04-26T09:02:18.999Z</time></trkpt><trkpt lat="43.35320949643181" lon="12.554368692996935"><ele>458.0</ele><time>2026-04-26T09:02:19.999Z</time></trkpt><trkpt lat="43.35309275250278" lon="12.554592040241262"><ele>458.0</ele><time>2026-04-26T09:02:20.999Z</time></trkpt><trkpt lat="43.3529661391686" lon="12.554826174968484"><ele>458.3333333333333</ele><time>2026-04-26T09:02:21.999Z</time></trkpt><trkpt lat="43.352841658205605" lon="12.555051601327477"><ele>458.66666666666663</ele><time>2026-04-26T09:02:22.999Z</time></trkpt><trkpt lat="43.352725491295345" lon="12.55526872536709"><ele>459.0</ele><time>2026-04-26T09:02:23.999Z</time></trkpt><trkpt lat="43.35260180837132" lon="12.555501902959927"><ele>459.33333333333337</ele><time>2026-04-26T09:02:24.999Z</time></trkpt><trkpt lat="43.35247553517239" lon="12.555717886178183"><ele>459.6666666666667</ele><time>2026-04-26T09:02:25.999Z</time></trkpt><trkpt lat="43.352339844349096" lon="12.555954499373147"><ele>460.0</ele><time>2026-04-26T09:02:26.999Z</time></trkpt><trkpt lat="43.352211949246694" lon="12.556181692035725"><ele>458.6666666666667</ele><time>2026-04-26T09:02:27.999Z</time></trkpt><trkpt lat="43.352085782956635" lon="12.556409627633146"><ele>457.33333333333337</ele><time>2026-04-26T09:02:28.999Z</time></trkpt><trkpt lat="43.35196464088652" lon="12.556631059152284"><ele>456.0</ele><time>2026-04-26T09:02:29.999Z</time></trkpt><trkpt lat="43.35183914168885" lon="12.556851134976718"><ele>456.66666666666663</ele><time>2026-04-26T09:02:30.999Z</time></trkpt><trkpt lat="43.351714042220735" lon="12.557069213828493"><ele>457.3333333333333</ele><time>2026-04-26T09:02:31.999Z</time></trkpt><trkpt lat="43.351586818910896" lon="12.557289430307977"><ele>458.0</ele><time>2026-04-26T09:02:32.999Z</time></trkpt><trkpt lat="43.35145435086876" lon="12.557503039922302"><ele>458.66666666666663</ele><time>2026-04-26T09:02:33.999Z</time></trkpt><trkpt lat="43.35132615101986" lon="12.557711991049974"><ele>459.33333333333337</ele><time>2026-04-26T09:02:34.999Z</time></trkpt><trkpt lat="43.35119430286337" lon="12.557912298282913"><ele>460.0</ele><time>2026-04-26T09:02:35.999Z</time></trkpt><trkpt lat="43.35106238887437" lon="12.558110036214034"><ele>460.0</ele><time>2026-04-26T09:02:36.999Z</time></trkpt><trkpt lat="43.35092668189869" lon="12.558311997537267"><ele>460.0</ele><time>2026-04-26T09:02:37.999Z</time></trkpt><trkpt lat="43.35078194121738" lon="12.558522315855017"><ele>460.0</ele><time>2026-04-26T09:02:38.999Z</time></trkpt><trkpt lat="43.35063199062337" lon="12.55873086968963"><ele>461.0</ele><time>2026-04-26T09:02:39.999Z</time></trkpt><trkpt lat="43.3504860949445" lon="12.558935784980552"><ele>462.0</ele><time>2026-04-26T09:02:40.999Z</time></trkpt><trkpt lat="43.35035213078747" lon="12.559115702487901"><ele>463.0</ele><time>2026-04-26T09:02:41.999Z</time></trkpt><trkpt lat="43.350219723019265" lon="12.559295475888312"><ele>463.0</ele><time>2026-04-26T09:02:42.999Z</time></trkpt><trkpt lat="43.350079117349416" lon="12.559474417067738"><ele>463.0</ele><time>2026-04-26T09:02:43.999Z</time></trkpt><trkpt lat="43.34993742570067" lon="12.5596663209904"><ele>463.0</ele><time>2026-04-26T09:02:44.999Z</time></trkpt><trkpt lat="43.34979158557452" lon="12.559849405763426"><ele>462.33333333333337</ele><time>2026-04-26T09:02:45.999Z</time></trkpt><trkpt lat="43.34965075767089" lon="12.560024499760685"><ele>461.66666666666663</ele><time>2026-04-26T09:02:46.999Z</time></trkpt><trkpt lat="43.349508268772034" lon="12.560199483368542"><ele>461.0</ele><time>2026-04-26T09:02:47.999Z</time></trkpt><trkpt lat="43.349361401789196" lon="12.560362899746387"><ele>461.3333333333333</ele><time>2026-04-26T09:02:48.999Z</time></trkpt><trkpt lat="43.34921962622253" lon="12.560533369918598"><ele>461.66666666666663</ele><time>2026-04-26T09:02:49.999Z</time></trkpt><trkpt lat="43.34907700761176" lon="12.560688519822817"><ele>462.0</ele><time>2026-04-26T09:02:50.999Z</time></trkpt><trkpt lat="43.34894129910527" lon="12.560831480310897"><ele>462.33333333333337</ele><time>2026-04-26T09:02:51.999Z</time></trkpt><trkpt lat="43.3488050341889" lon="12.560957882710362"><ele>462.6666666666667</ele><time>2026-04-26T09:02:52.999Z</time></trkpt><trkpt lat="43.348677791847656" lon="12.561070582342719"><ele>463.0</ele><time>2026-04-26T09:02:53.999Z</time></trkpt><trkpt lat="43.348568177102486" lon="12.561178191360838"><ele>463.59999999999997</ele><time>2026-04-26T09:02:54.999Z</time></trkpt><trkpt lat="43.34847024634751" lon="12.561279718197305"><ele>464.19999999999993</ele><time>2026-04-26T09:02:55.999Z</time></trkpt><trkpt lat="43.348387491472074" lon="12.561354313947039"><ele>464.8</ele><time>2026-04-26T09:02:56.999Z</time></trkpt><trkpt lat="43.34832447018257" lon="12.561410727804445"><ele>465.4</ele><time>2026-04-26T09:02:57.999Z</time></trkpt><trkpt lat="43.34822157670075" lon="12.56141795452126"><ele>466.0</ele><time>2026-04-26T09:02:59.999Z</time></trkpt><trkpt lat="43.34815622719279" lon="12.561398335981195"><ele>466.00000000000006</ele><time>2026-04-26T09:03:01.999Z</time></trkpt><trkpt lat="43.34806805645031" lon="12.561395209944651"><ele>466.0</ele><time>2026-04-26T09:03:04.999Z</time></trkpt><trkpt lat="43.34799052395168" lon="12.561440802884496"><ele>466.0</ele><time>2026-04-26T09:03:07.999Z</time></trkpt><trkpt lat="43.347923296415274" lon="12.561412505924606"><ele>466.0</ele><time>2026-04-26T09:06:33Z</time></trkpt><trkpt lat="43.34789087461021" lon="12.561566211984703"><ele>466.00000000000006</ele><time>2026-04-26T09:10:32.999Z</time></trkpt><trkpt lat="43.347941224894804" lon="12.561485925770468"><ele>466.0</ele><time>2026-04-26T09:11:13.998Z</time></trkpt><trkpt lat="43.347905897204235" lon="12.561609143107145"><ele>465.6</ele><time>2026-04-26T09:14:46.999Z</time></trkpt><trkpt lat="43.34785053723483" lon="12.561832252200482"><ele>465.20000000000005</ele><time>2026-04-26T09:17:12.997Z</time></trkpt><trkpt lat="43.34785339193286" lon="12.56171852317171"><ele>464.79999999999995</ele><time>2026-04-26T09:19:08.996Z</time></trkpt><trkpt lat="43.34790013909397" lon="12.561650363608358"><ele>464.4</ele><time>2026-04-26T09:20:42.995Z</time></trkpt><trkpt lat="43.347961551392274" lon="12.561689657023914"><ele>464.0</ele><time>2026-04-26T09:21:02.995Z</time></trkpt><trkpt lat="43.347993015943274" lon="12.561772767012071"><ele>464.0</ele><time>2026-04-26T09:21:04.995Z</time></trkpt><trkpt lat="43.34797673790699" lon="12.561861106578071"><ele>464.0</ele><time>2026-04-26T09:21:09.995Z</time></trkpt><trkpt lat="43.347814651018915" lon="12.562058434876597"><ele>464.0</ele><time>2026-04-26T09:21:14.995Z</time></trkpt><trkpt lat="43.34771433285742" lon="12.562165897440664"><ele>464.0</ele><time>2026-04-26T09:21:15.995Z</time></trkpt><trkpt lat="43.3476191944" lon="12.562269263278814"><ele>464.25</ele><time>2026-04-26T09:21:16.995Z</time></trkpt><trkpt lat="43.34751025308934" lon="12.562380563145396"><ele>464.5</ele><time>2026-04-26T09:21:17.995Z</time></trkpt><trkpt lat="43.34740492272402" lon="12.562497720012633"><ele>464.75</ele><time>2026-04-26T09:21:18.995Z</time></trkpt><trkpt lat="43.347292472575" lon="12.562589979085095"><ele>465.0</ele><time>2026-04-26T09:21:19.995Z</time></trkpt><trkpt lat="43.34718684014348" lon="12.562713584738901"><ele>465.0</ele><time>2026-04-26T09:21:20.995Z</time></trkpt><trkpt lat="43.34706727704979" lon="12.562826625263943"><ele>465.0</ele><time>2026-04-26T09:21:21.995Z</time></trkpt><trkpt lat="43.34694513767833" lon="12.5629444203497"><ele>465.0</ele><time>2026-04-26T09:21:22.995Z</time></trkpt><trkpt lat="43.34681747053802" lon="12.563074944973112"><ele>465.0</ele><time>2026-04-26T09:21:23.995Z</time></trkpt><trkpt lat="43.34668848156741" lon="12.563189482312215"><ele>465.0</ele><time>2026-04-26T09:21:24.995Z</time></trkpt><trkpt lat="43.346567662347965" lon="12.563285352357573"><ele>465.0</ele><time>2026-04-26T09:21:25.995Z</time></trkpt><trkpt lat="43.34645968043555" lon="12.563368598676394"><ele>465.0</ele><time>2026-04-26T09:21:26.995Z</time></trkpt><trkpt lat="43.34635322228453" lon="12.563431342422016"><ele>464.8</ele><time>2026-04-26T09:21:27.995Z</time></trkpt><trkpt lat="43.34625723772259" lon="12.56349827092685"><ele>464.6</ele><time>2026-04-26T09:21:28.995Z</time></trkpt><trkpt lat="43.346172707495136" lon="12.563565390081713"><ele>464.4</ele><time>2026-04-26T09:21:29.995Z</time></trkpt><trkpt lat="43.346089192983975" lon="12.563630974775636"><ele>464.2</ele><time>2026-04-26T09:21:30.995Z</time></trkpt><trkpt lat="43.34601127654019" lon="12.56369165759908"><ele>464.0</ele><time>2026-04-26T09:21:31.995Z</time></trkpt><trkpt lat="43.34595337367165" lon="12.563750990369536"><ele>464.0</ele><time>2026-04-26T09:21:32.995Z</time></trkpt><trkpt lat="43.34595855804128" lon="12.563837879075638"><ele>464.0</ele><time>2026-04-26T09:21:54.994Z</time></trkpt><trkpt lat="43.345988595689505" lon="12.563985985527827"><ele>464.0</ele><time>2026-04-26T09:21:56.994Z</time></trkpt><trkpt lat="43.34603744365058" lon="12.564083664759393"><ele>464.0</ele><time>2026-04-26T09:21:57.994Z</time></trkpt><trkpt lat="43.34610928020245" lon="12.564208141406313"><ele>464.0</ele><time>2026-04-26T09:21:58.994Z</time></trkpt><trkpt lat="43.346198521606205" lon="12.564343450407604"><ele>464.0</ele><time>2026-04-26T09:21:59.994Z</time></trkpt><trkpt lat="43.34628079893347" lon="12.564491394731364"><ele>464.0</ele><time>2026-04-26T09:22:00.994Z</time></trkpt><trkpt lat="43.3463640348865" lon="12.564620597929585"><ele>464.0</ele><time>2026-04-26T09:22:01.994Z</time></trkpt><trkpt lat="43.34643859429611" lon="12.564745979399696"><ele>464.0</ele><time>2026-04-26T09:22:02.994Z</time></trkpt><trkpt lat="43.34652486798934" lon="12.564894145153763"><ele>465.3333333333333</ele><time>2026-04-26T09:22:03.994Z</time></trkpt><trkpt lat="43.346618928902586" lon="12.565052248455054"><ele>466.66666666666663</ele><time>2026-04-26T09:22:04.994Z</time></trkpt><trkpt lat="43.34673209878807" lon="12.565233955693298"><ele>468.0</ele><time>2026-04-26T09:22:05.994Z</time></trkpt><trkpt lat="43.34684129355399" lon="12.565416827840915"><ele>468.0</ele><time>2026-04-26T09:22:06.994Z</time></trkpt><trkpt lat="43.34693402971071" lon="12.565574430039693"><ele>468.0</ele><time>2026-04-26T09:22:07.994Z</time></trkpt><trkpt lat="43.347009365496234" lon="12.565698850398544"><ele>468.0</ele><time>2026-04-26T09:22:08.994Z</time></trkpt><trkpt lat="43.34707665314459" lon="12.565804539582656"><ele>468.0</ele><time>2026-04-26T09:22:09.994Z</time></trkpt><trkpt lat="43.34713049669628" lon="12.56589008386331"><ele>468.0</ele><time>2026-04-26T09:22:10.994Z</time></trkpt><trkpt lat="43.34717785904752" lon="12.565979291383805"><ele>468.0</ele><time>2026-04-26T09:22:11.994Z</time></trkpt><trkpt lat="43.34721059004809" lon="12.566079518909508"><ele>468.0</ele><time>2026-04-26T09:22:12.994Z</time></trkpt><trkpt lat="43.34725359141512" lon="12.566171799769906"><ele>468.0</ele><time>2026-04-26T09:22:13.994Z</time></trkpt><trkpt lat="43.3473267547713" lon="12.566249407155274"><ele>468.0</ele><time>2026-04-26T09:22:14.994Z</time></trkpt><trkpt lat="43.34740714693572" lon="12.566345607235547"><ele>468.0</ele><time>2026-04-26T09:22:15.994Z</time></trkpt><trkpt lat="43.34749037147798" lon="12.566475197369805"><ele>468.75</ele><time>2026-04-26T09:22:16.994Z</time></trkpt><trkpt lat="43.347574961378896" lon="12.566625462575336"><ele>469.5</ele><time>2026-04-26T09:22:17.994Z</time></trkpt><trkpt lat="43.34766840949354" lon="12.566780820582027"><ele>470.25</ele><time>2026-04-26T09:22:18.994Z</time></trkpt><trkpt lat="43.34776709512349" lon="12.56693435800837"><ele>471.0</ele><time>2026-04-26T09:22:19.994Z</time></trkpt><trkpt lat="43.34786456872901" lon="12.567071005121027"><ele>471.25</ele><time>2026-04-26T09:22:20.994Z</time></trkpt><trkpt lat="43.34795964290118" lon="12.567180488689347"><ele>471.5</ele><time>2026-04-26T09:22:21.994Z</time></trkpt><trkpt lat="43.348054860204" lon="12.567284587509203"><ele>471.75</ele><time>2026-04-26T09:22:22.994Z</time></trkpt><trkpt lat="43.34815250250448" lon="12.56739322023068"><ele>472.0</ele><time>2026-04-26T09:22:23.994Z</time></trkpt><trkpt lat="43.3482526883172" lon="12.567504376058249"><ele>472.5</ele><time>2026-04-26T09:22:24.994Z</time></trkpt><trkpt lat="43.34836006214278" lon="12.567616095537193"><ele>473.0</ele><time>2026-04-26T09:22:25.994Z</time></trkpt><trkpt lat="43.34846699568274" lon="12.567715229943074"><ele>473.5</ele><time>2026-04-26T09:22:26.994Z</time></trkpt><trkpt lat="43.34856612945458" lon="12.567803460158542"><ele>474.0</ele><time>2026-04-26T09:22:27.994Z</time></trkpt><trkpt lat="43.34865616011986" lon="12.567876445096557"><ele>474.1666666666667</ele><time>2026-04-26T09:22:28.994Z</time></trkpt><trkpt lat="43.34873122582462" lon="12.567942411989417"><ele>474.33333333333337</ele><time>2026-04-26T09:22:29.994Z</time></trkpt><trkpt lat="43.34882998166516" lon="12.56801834909107"><ele>474.5</ele><time>2026-04-26T09:22:31.994Z</time></trkpt><trkpt lat="43.348860393274244" lon="12.568096500833454"><ele>474.6666666666667</ele><time>2026-04-26T09:22:32.994Z</time></trkpt><trkpt lat="43.3489176290138" lon="12.568157604612034"><ele>474.83333333333337</ele><time>2026-04-26T09:22:34.994Z</time></trkpt><trkpt lat="43.34897557959591" lon="12.568255729738691"><ele>475.0</ele><time>2026-04-26T09:22:37.994Z</time></trkpt><trkpt lat="43.349041167021525" lon="12.56831708830447"><ele>475.8</ele><time>2026-04-26T09:22:39.994Z</time></trkpt><trkpt lat="43.34916926891199" lon="12.568390100050577"><ele>476.6</ele><time>2026-04-26T09:22:41.994Z</time></trkpt><trkpt lat="43.34924255869874" lon="12.568437745048096"><ele>477.4</ele><time>2026-04-26T09:22:42.994Z</time></trkpt><trkpt lat="43.34931785566234" lon="12.568489707365682"><ele>478.2</ele><time>2026-04-26T09:22:43.994Z</time></trkpt><trkpt lat="43.34938359707623" lon="12.568537087306616"><ele>479.0</ele><time>2026-04-26T09:22:44.994Z</time></trkpt><trkpt lat="43.34945961998681" lon="12.568604144235222"><ele>479.0</ele><time>2026-04-26T09:22:45.995Z</time></trkpt><trkpt lat="43.34953112355286" lon="12.568661963640386"><ele>479.0</ele><time>2026-04-26T09:22:46.995Z</time></trkpt><trkpt lat="43.34960659483143" lon="12.568728331333556"><ele>479.0</ele><time>2026-04-26T09:22:47.995Z</time></trkpt><trkpt lat="43.349686808025076" lon="12.568804606471335"><ele>479.0</ele><time>2026-04-26T09:22:48.994Z</time></trkpt><trkpt lat="43.34978100198124" lon="12.568882906250519"><ele>479.0</ele><time>2026-04-26T09:22:49.995Z</time></trkpt><trkpt lat="43.349869335761866" lon="12.568973655669412"><ele>479.4</ele><time>2026-04-26T09:22:50.995Z</time></trkpt><trkpt lat="43.349959137528565" lon="12.56905464968905"><ele>479.79999999999995</ele><time>2026-04-26T09:22:51.994Z</time></trkpt><trkpt lat="43.35004937351618" lon="12.569134294435148"><ele>480.20000000000005</ele><time>2026-04-26T09:22:52.994Z</time></trkpt><trkpt lat="43.35012765370792" lon="12.569202304288417"><ele>480.6</ele><time>2026-04-26T09:22:53.994Z</time></trkpt><trkpt lat="43.350202993726356" lon="12.569265456558515"><ele>481.0</ele><time>2026-04-26T09:22:54.994Z</time></trkpt><trkpt lat="43.350268457114886" lon="12.569322823104113"><ele>481.00000000000006</ele><time>2026-04-26T09:22:55.995Z</time></trkpt><trkpt lat="43.35032784584817" lon="12.569378230091033"><ele>481.0</ele><time>2026-04-26T09:22:56.995Z</time></trkpt><trkpt lat="43.350433017276465" lon="12.569471853598023"><ele>481.0</ele><time>2026-04-26T09:22:58.994Z</time></trkpt><trkpt lat="43.35049149717478" lon="12.569525833104445"><ele>481.0</ele><time>2026-04-26T09:22:59.994Z</time></trkpt><trkpt lat="43.35056406660434" lon="12.569588305708168"><ele>481.00000000000006</ele><time>2026-04-26T09:23:00.994Z</time></trkpt><trkpt lat="43.350640979246684" lon="12.569651479486444"><ele>481.0</ele><time>2026-04-26T09:23:01.994Z</time></trkpt><trkpt lat="43.350726027355606" lon="12.569718220141127"><ele>481.4</ele><time>2026-04-26T09:23:02.994Z</time></trkpt><trkpt lat="43.35080787551422" lon="12.56978832338885"><ele>481.8</ele><time>2026-04-26T09:23:03.994Z</time></trkpt><trkpt lat="43.35089256283488" lon="12.569865924020625"><ele>482.19999999999993</ele><time>2026-04-26T09:23:04.994Z</time></trkpt><trkpt lat="43.35097958845271" lon="12.569943076737575"><ele>482.59999999999997</ele><time>2026-04-26T09:23:05.994Z</time></trkpt><trkpt lat="43.35106359793432" lon="12.570010729431647"><ele>483.0</ele><time>2026-04-26T09:23:06.994Z</time></trkpt><trkpt lat="43.35115039825513" lon="12.57007848963344"><ele>483.0</ele><time>2026-04-26T09:23:07.994Z</time></trkpt><trkpt lat="43.35123736711845" lon="12.570150917429883"><ele>482.99999999999994</ele><time>2026-04-26T09:23:08.994Z</time></trkpt><trkpt lat="43.35130661329778" lon="12.57025948565298"><ele>482.99999999999994</ele><time>2026-04-26T09:23:09.994Z</time></trkpt><trkpt lat="43.35139344294967" lon="12.570329291614524"><ele>483.0</ele><time>2026-04-26T09:23:10.994Z</time></trkpt><trkpt lat="43.351472017419624" lon="12.570400147236368"><ele>483.0</ele><time>2026-04-26T09:23:11.994Z</time></trkpt><trkpt lat="43.351554939764625" lon="12.570467260294766"><ele>484.59999999999997</ele><time>2026-04-26T09:23:12.994Z</time></trkpt><trkpt lat="43.35163589967046" lon="12.57053432604476"><ele>486.19999999999993</ele><time>2026-04-26T09:23:13.994Z</time></trkpt><trkpt lat="43.351719717885466" lon="12.570607112187995"><ele>487.8</ele><time>2026-04-26T09:23:14.994Z</time></trkpt><trkpt lat="43.351801955475544" lon="12.570683364364792"><ele>489.4</ele><time>2026-04-26T09:23:15.994Z</time></trkpt><trkpt lat="43.35189056285215" lon="12.570759872714781"><ele>491.0</ele><time>2026-04-26T09:23:16.994Z</time></trkpt><trkpt lat="43.35198323271336" lon="12.570834318211558"><ele>491.0</ele><time>2026-04-26T09:23:17.994Z</time></trkpt><trkpt lat="43.35207163944411" lon="12.570910138526921"><ele>491.0</ele><time>2026-04-26T09:23:18.994Z</time></trkpt><trkpt lat="43.352162891712645" lon="12.5709871847679"><ele>491.0</ele><time>2026-04-26T09:23:19.994Z</time></trkpt><trkpt lat="43.35225542603155" lon="12.571061212096733"><ele>491.0</ele><time>2026-04-26T09:23:20.994Z</time></trkpt><trkpt lat="43.352337354793164" lon="12.571130133156023"><ele>491.0</ele><time>2026-04-26T09:23:21.994Z</time></trkpt><trkpt lat="43.35241629548192" lon="12.571198452342529"><ele>491.3333333333333</ele><time>2026-04-26T09:23:22.994Z</time></trkpt><trkpt lat="43.35248615938875" lon="12.571256011646257"><ele>491.66666666666663</ele><time>2026-04-26T09:23:23.994Z</time></trkpt><trkpt lat="43.35255612138343" lon="12.57132382458089"><ele>492.0</ele><time>2026-04-26T09:23:24.994Z</time></trkpt><trkpt lat="43.352633910821005" lon="12.57138478351599"><ele>492.33333333333337</ele><time>2026-04-26T09:23:25.994Z</time></trkpt><trkpt lat="43.352708004033104" lon="12.571451982146256"><ele>492.6666666666667</ele><time>2026-04-26T09:23:26.994Z</time></trkpt><trkpt lat="43.35279341310179" lon="12.57152398600356"><ele>493.0</ele><time>2026-04-26T09:23:27.994Z</time></trkpt><trkpt lat="43.3528738404241" lon="12.57159353295185"><ele>493.00000000000006</ele><time>2026-04-26T09:23:28.994Z</time></trkpt><trkpt lat="43.35295755602416" lon="12.571664817632572"><ele>493.0</ele><time>2026-04-26T09:23:29.994Z</time></trkpt><trkpt lat="43.3530372940827" lon="12.571734510256993"><ele>493.0</ele><time>2026-04-26T09:23:30.994Z</time></trkpt><trkpt lat="43.35310414971437" lon="12.57179929334297"><ele>493.0</ele><time>2026-04-26T09:23:31.994Z</time></trkpt><trkpt lat="43.35316064791002" lon="12.571868549720532"><ele>493.00000000000006</ele><time>2026-04-26T09:23:32.994Z</time></trkpt><trkpt lat="43.353214886" lon="12.571944510283236"><ele>493.0</ele><time>2026-04-26T09:23:33.994Z</time></trkpt><trkpt lat="43.35326795980507" lon="12.572033607065555"><ele>493.1666666666667</ele><time>2026-04-26T09:23:34.994Z</time></trkpt><trkpt lat="43.35332003198204" lon="12.572118349594954"><ele>493.33333333333337</ele><time>2026-04-26T09:23:35.994Z</time></trkpt><trkpt lat="43.35341886676479" lon="12.572245811309003"><ele>493.5</ele><time>2026-04-26T09:23:37.994Z</time></trkpt><trkpt lat="43.35345403617345" lon="12.572335840154457"><ele>493.66666666666663</ele><time>2026-04-26T09:23:38.994Z</time></trkpt><trkpt lat="43.35350381678622" lon="12.572416443642195"><ele>493.8333333333333</ele><time>2026-04-26T09:23:39.994Z</time></trkpt><trkpt lat="43.35356427030122" lon="12.57248001059408"><ele>494.0</ele><time>2026-04-26T09:23:40.994Z</time></trkpt><trkpt lat="43.35360679419963" lon="12.57254879034595"><ele>493.99999999999994</ele><time>2026-04-26T09:23:41.994Z</time></trkpt><trkpt lat="43.353649870038126" lon="12.572619860658778"><ele>494.0</ele><time>2026-04-26T09:23:42.993Z</time></trkpt><trkpt lat="43.353695037329054" lon="12.572692375099866"><ele>494.0</ele><time>2026-04-26T09:23:43.993Z</time></trkpt><trkpt lat="43.35375882723217" lon="12.572768128075847"><ele>494.0</ele><time>2026-04-26T09:23:45.993Z</time></trkpt><trkpt lat="43.35380314109197" lon="12.572832281189774"><ele>493.99999999999994</ele><time>2026-04-26T09:23:47.993Z</time></trkpt><trkpt lat="43.35383482481433" lon="12.572952483345368"><ele>494.0</ele><time>2026-04-26T09:23:50.993Z</time></trkpt><trkpt lat="43.35387925353761" lon="12.573038623389223"><ele>494.79999999999995</ele><time>2026-04-26T09:23:52.993Z</time></trkpt><trkpt lat="43.35392602437299" lon="12.573124953976734"><ele>495.59999999999997</ele><time>2026-04-26T09:23:54.993Z</time></trkpt><trkpt lat="43.353954815279195" lon="12.573239940297945"><ele>496.4</ele><time>2026-04-26T09:23:56.993Z</time></trkpt><trkpt lat="43.353974291899185" lon="12.573359111124951"><ele>497.2</ele><time>2026-04-26T09:23:58.993Z</time></trkpt><trkpt lat="43.35405090072022" lon="12.573405035639976"><ele>498.0</ele><time>2026-04-26T09:24:01.993Z</time></trkpt><trkpt lat="43.3541406700386" lon="12.573294106296679"><ele>498.0</ele><time>2026-04-26T09:24:03.993Z</time></trkpt><trkpt lat="43.35418924318934" lon="12.573238418733503"><ele>498.0</ele><time>2026-04-26T09:24:04.993Z</time></trkpt><trkpt lat="43.35424635097265" lon="12.573185600410296"><ele>498.0</ele><time>2026-04-26T09:24:05.993Z</time></trkpt><trkpt lat="43.35430930054843" lon="12.573132551400866"><ele>498.0</ele><time>2026-04-26T09:24:06.993Z</time></trkpt><trkpt lat="43.35436914272141" lon="12.573069471716364"><ele>498.0</ele><time>2026-04-26T09:24:07.993Z</time></trkpt><trkpt lat="43.354428375288485" lon="12.573017531980334"><ele>498.0</ele><time>2026-04-26T09:24:08.993Z</time></trkpt><trkpt lat="43.35454245452694" lon="12.572918235914779"><ele>498.0</ele><time>2026-04-26T09:24:10.993Z</time></trkpt><trkpt lat="43.3546039947182" lon="12.572874744702148"><ele>497.99999999999994</ele><time>2026-04-26T09:24:11.993Z</time></trkpt><trkpt lat="43.35466842251792" lon="12.57283104088361"><ele>498.0</ele><time>2026-04-26T09:24:12.993Z</time></trkpt><trkpt lat="43.354734838562514" lon="12.572804038655384"><ele>498.0</ele><time>2026-04-26T09:24:13.993Z</time></trkpt><trkpt lat="43.3548028115159" lon="12.572793673079747"><ele>497.99999999999994</ele><time>2026-04-26T09:24:14.993Z</time></trkpt><trkpt lat="43.35487937323229" lon="12.57277858397567"><ele>498.0</ele><time>2026-04-26T09:24:15.993Z</time></trkpt><trkpt lat="43.35495411576957" lon="12.572769613955117"><ele>498.0</ele><time>2026-04-26T09:24:16.993Z</time></trkpt><trkpt lat="43.355023336833284" lon="12.572763108323468"><ele>499.0</ele><time>2026-04-26T09:24:17.993Z</time></trkpt><trkpt lat="43.35508978096259" lon="12.572765189043094"><ele>500.0</ele><time>2026-04-26T09:24:18.993Z</time></trkpt><trkpt lat="43.3551861095221" lon="12.572792017494812"><ele>501.0</ele><time>2026-04-26T09:24:20.993Z</time></trkpt><trkpt lat="43.35525003177701" lon="12.572786868141774"><ele>502.0</ele><time>2026-04-26T09:24:37.993Z</time></trkpt><trkpt lat="43.35528763133822" lon="12.572871406116866"><ele>503.0</ele><time>2026-04-26T09:24:39.993Z</time></trkpt><trkpt lat="43.355320348916365" lon="12.572957189275666"><ele>504.0</ele><time>2026-04-26T09:24:43.993Z</time></trkpt><trkpt lat="43.35537618201321" lon="12.573069599384434"><ele>504.0</ele><time>2026-04-26T09:24:45.992Z</time></trkpt><trkpt lat="43.35541377268259" lon="12.573160615076668"><ele>504.0</ele><time>2026-04-26T09:24:47.992Z</time></trkpt><trkpt lat="43.355440431992044" lon="12.57324128182746"><ele>504.0</ele><time>2026-04-26T09:24:49.992Z</time></trkpt><trkpt lat="43.35547091566687" lon="12.573330790649171"><ele>504.0</ele><time>2026-04-26T09:24:51.994Z</time></trkpt><trkpt lat="43.35551098313085" lon="12.573408362871147"><ele>504.0</ele><time>2026-04-26T09:24:53.993Z</time></trkpt><trkpt lat="43.35555178668512" lon="12.573483303157591"><ele>504.0</ele><time>2026-04-26T09:24:55.994Z</time></trkpt><trkpt lat="43.35562316637283" lon="12.573570130940166"><ele>504.0</ele><time>2026-04-26T09:24:58.994Z</time></trkpt><trkpt lat="43.355660307541115" lon="12.573643897528095"><ele>505.25</ele><time>2026-04-26T09:24:59.994Z</time></trkpt><trkpt lat="43.35569191566816" lon="12.573742611297497"><ele>506.5</ele><time>2026-04-26T09:25:01.994Z</time></trkpt><trkpt lat="43.35582382236755" lon="12.573900670645187"><ele>507.75</ele><time>2026-04-26T09:25:03.994Z</time></trkpt><trkpt lat="43.35593758033085" lon="12.573981290293089"><ele>509.0</ele><time>2026-04-26T09:25:05.994Z</time></trkpt><trkpt lat="43.3560054305974" lon="12.57407650127338"><ele>509.0</ele><time>2026-04-26T09:25:06.994Z</time></trkpt><trkpt lat="43.35604820875699" lon="12.574178216907606"><ele>509.0</ele><time>2026-04-26T09:25:07.994Z</time></trkpt><trkpt lat="43.35609703546721" lon="12.574321607818806"><ele>509.0</ele><time>2026-04-26T09:25:08.994Z</time></trkpt><trkpt lat="43.35615559705798" lon="12.5744608099195"><ele>509.0</ele><time>2026-04-26T09:25:09.994Z</time></trkpt><trkpt lat="43.35621751269722" lon="12.574606452971302"><ele>509.0</ele><time>2026-04-26T09:25:10.994Z</time></trkpt><trkpt lat="43.356280257559156" lon="12.574756051002579"><ele>509.75</ele><time>2026-04-26T09:25:11.994Z</time></trkpt><trkpt lat="43.35632995523602" lon="12.574914432100556"><ele>510.5</ele><time>2026-04-26T09:25:12.994Z</time></trkpt><trkpt lat="43.35638280624121" lon="12.575082738287469"><ele>511.25</ele><time>2026-04-26T09:25:13.994Z</time></trkpt><trkpt lat="43.35643847983119" lon="12.575276482371503"><ele>512.0</ele><time>2026-04-26T09:25:14.993Z</time></trkpt><trkpt lat="43.35649079145707" lon="12.575488657530128"><ele>513.6</ele><time>2026-04-26T09:25:15.993Z</time></trkpt><trkpt lat="43.35652621883438" lon="12.575654679928483"><ele>515.2</ele><time>2026-04-26T09:25:16.993Z</time></trkpt><trkpt lat="43.35655911629542" lon="12.575785672371481"><ele>516.8</ele><time>2026-04-26T09:25:17.993Z</time></trkpt><trkpt lat="43.35658856576372" lon="12.575904389955431"><ele>518.4</ele><time>2026-04-26T09:25:18.993Z</time></trkpt><trkpt lat="43.35662571487461" lon="12.57598713029476"><ele>520.0</ele><time>2026-04-26T09:25:19.993Z</time></trkpt><trkpt lat="43.356737015173174" lon="12.576105758586397"><ele>520.0</ele><time>2026-04-26T09:25:21.993Z</time></trkpt><trkpt lat="43.35681529739396" lon="12.576123190470899"><ele>520.0</ele><time>2026-04-26T09:25:22.993Z</time></trkpt><trkpt lat="43.35690562683508" lon="12.576170751139633"><ele>520.0</ele><time>2026-04-26T09:25:23.993Z</time></trkpt><trkpt lat="43.35703918025502" lon="12.576287848556316"><ele>520.0</ele><time>2026-04-26T09:25:24.993Z</time></trkpt><trkpt lat="43.35721998297081" lon="12.57639728497873"><ele>521.0</ele><time>2026-04-26T09:25:25.993Z</time></trkpt><trkpt lat="43.357402558462255" lon="12.576512452657585"><ele>522.0</ele><time>2026-04-26T09:25:26.993Z</time></trkpt><trkpt lat="43.35756968092697" lon="12.576613681743726"><ele>523.0</ele><time>2026-04-26T09:25:27.993Z</time></trkpt><trkpt lat="43.35770924433092" lon="12.576694951246242"><ele>523.0</ele><time>2026-04-26T09:25:28.993Z</time></trkpt><trkpt lat="43.35782036184515" lon="12.576806072068882"><ele>523.0</ele><time>2026-04-26T09:25:29.993Z</time></trkpt><trkpt lat="43.35793607450314" lon="12.57692733167459"><ele>523.0</ele><time>2026-04-26T09:25:30.993Z</time></trkpt><trkpt lat="43.35804468923517" lon="12.577158819192853"><ele>525.5</ele><time>2026-04-26T09:25:31.993Z</time></trkpt><trkpt lat="43.35816552627664" lon="12.577390109213837"><ele>528.0</ele><time>2026-04-26T09:25:32.993Z</time></trkpt><trkpt lat="43.35829795491723" lon="12.57770404048753"><ele>528.0</ele><time>2026-04-26T09:25:33.993Z</time></trkpt><trkpt lat="43.3584197788774" lon="12.577929081463417"><ele>528.0</ele><time>2026-04-26T09:25:34.993Z</time></trkpt><trkpt lat="43.35854661182737" lon="12.578128235899337"><ele>528.0</ele><time>2026-04-26T09:25:35.993Z</time></trkpt><trkpt lat="43.3586596000967" lon="12.578313289103273"><ele>528.0</ele><time>2026-04-26T09:25:36.993Z</time></trkpt><trkpt lat="43.358732770544755" lon="12.578504328164556"><ele>528.0</ele><time>2026-04-26T09:25:37.993Z</time></trkpt><trkpt lat="43.358817878368995" lon="12.578690752286162"><ele>528.0</ele><time>2026-04-26T09:25:38.993Z</time></trkpt><trkpt lat="43.35888504129854" lon="12.578856843185266"><ele>529.25</ele><time>2026-04-26T09:25:39.993Z</time></trkpt><trkpt lat="43.35895561052107" lon="12.579004354944303"><ele>530.5</ele><time>2026-04-26T09:25:40.993Z</time></trkpt><trkpt lat="43.35901659927736" lon="12.579160655764822"><ele>531.75</ele><time>2026-04-26T09:25:41.993Z</time></trkpt><trkpt lat="43.359081596614416" lon="12.579334826049719"><ele>533.0</ele><time>2026-04-26T09:25:42.993Z</time></trkpt><trkpt lat="43.35914945016879" lon="12.579514330039688"><ele>546.5</ele><time>2026-04-26T09:25:43.993Z</time></trkpt><trkpt lat="43.35923077975998" lon="12.579666308059219"><ele>560.0</ele><time>2026-04-26T09:25:44.993Z</time></trkpt><trkpt lat="43.3593342894083" lon="12.579804810768826"><ele>573.5</ele><time>2026-04-26T09:25:45.993Z</time></trkpt><trkpt lat="43.359474553771086" lon="12.579877562236874"><ele>587.0</ele><time>2026-04-26T09:25:46.993Z</time></trkpt><trkpt lat="43.35966629441715" lon="12.579951805502333"><ele>576.25</ele><time>2026-04-26T09:25:47.993Z</time></trkpt><trkpt lat="43.359815745223926" lon="12.580041352368157"><ele>565.5</ele><time>2026-04-26T09:25:48.993Z</time></trkpt><trkpt lat="43.35994704136809" lon="12.58014416096648"><ele>554.75</ele><time>2026-04-26T09:25:49.993Z</time></trkpt><trkpt lat="43.360077434680605" lon="12.580191712931216"><ele>544.0</ele><time>2026-04-26T09:25:50.993Z</time></trkpt><trkpt lat="43.36021174887633" lon="12.58026825958007"><ele>551.25</ele><time>2026-04-26T09:25:51.993Z</time></trkpt><trkpt lat="43.360305779518896" lon="12.5803924562156"><ele>558.5</ele><time>2026-04-26T09:25:52.993Z</time></trkpt><trkpt lat="43.360381294185636" lon="12.580525815226693"><ele>565.75</ele><time>2026-04-26T09:25:53.993Z</time></trkpt><trkpt lat="43.36044806112508" lon="12.580672699560063"><ele>573.0</ele><time>2026-04-26T09:25:54.993Z</time></trkpt><trkpt lat="43.36053106463868" lon="12.580855271099841"><ele>572.75</ele><time>2026-04-26T09:25:55.993Z</time></trkpt><trkpt lat="43.360600457078505" lon="12.580981675751689"><ele>572.5</ele><time>2026-04-26T09:25:56.993Z</time></trkpt><trkpt lat="43.360684968237685" lon="12.58108814458697"><ele>572.25</ele><time>2026-04-26T09:25:57.993Z</time></trkpt><trkpt lat="43.360789003681816" lon="12.581177276405615"><ele>572.0</ele><time>2026-04-26T09:25:58.993Z</time></trkpt><trkpt lat="43.360903617901066" lon="12.581268125679378"><ele>572.0</ele><time>2026-04-26T09:25:59.993Z</time></trkpt><trkpt lat="43.3610507912077" lon="12.581357433037537"><ele>572.0</ele><time>2026-04-26T09:26:00.993Z</time></trkpt><trkpt lat="43.36115741333613" lon="12.581501499968123"><ele>572.0</ele><time>2026-04-26T09:26:01.993Z</time></trkpt><trkpt lat="43.361300479140745" lon="12.58161040676814"><ele>573.5</ele><time>2026-04-26T09:26:02.993Z</time></trkpt><trkpt lat="43.36141944710317" lon="12.581711936300625"><ele>575.0</ele><time>2026-04-26T09:26:03.993Z</time></trkpt><trkpt lat="43.361537594791436" lon="12.58180851365873"><ele>576.5</ele><time>2026-04-26T09:26:04.993Z</time></trkpt><trkpt lat="43.361661781637956" lon="12.581925221652092"><ele>578.0</ele><time>2026-04-26T09:26:05.993Z</time></trkpt><trkpt lat="43.361788094891814" lon="12.582048426868361"><ele>578.0</ele><time>2026-04-26T09:26:06.993Z</time></trkpt><trkpt lat="43.361901414376916" lon="12.582204070542552"><ele>578.0</ele><time>2026-04-26T09:26:07.993Z</time></trkpt><trkpt lat="43.36201526998422" lon="12.582349808882432"><ele>578.0</ele><time>2026-04-26T09:26:08.993Z</time></trkpt><trkpt lat="43.36212060603923" lon="12.58246590074894"><ele>572.3333333333333</ele><time>2026-04-26T09:26:09.993Z</time></trkpt><trkpt lat="43.362236510191366" lon="12.582565560167337"><ele>566.6666666666666</ele><time>2026-04-26T09:26:10.993Z</time></trkpt><trkpt lat="43.36237098532704" lon="12.582679843880692"><ele>561.0</ele><time>2026-04-26T09:26:11.993Z</time></trkpt><trkpt lat="43.3625453878125" lon="12.582804989138108"><ele>575.0</ele><time>2026-04-26T09:26:12.993Z</time></trkpt><trkpt lat="43.3627452332431" lon="12.582957030031231"><ele>589.0</ele><time>2026-04-26T09:26:13.993Z</time></trkpt><trkpt lat="43.36295547625178" lon="12.58309558136744"><ele>584.0</ele><time>2026-04-26T09:26:14.993Z</time></trkpt><trkpt lat="43.363150027186734" lon="12.583221131724388"><ele>579.0</ele><time>2026-04-26T09:26:15.993Z</time></trkpt><trkpt lat="43.36334629036089" lon="12.583320785875705"><ele>574.0</ele><time>2026-04-26T09:26:16.992Z</time></trkpt><trkpt lat="43.363506478586146" lon="12.583335568655079"><ele>574.0</ele><time>2026-04-26T09:26:17.992Z</time></trkpt><trkpt lat="43.36362997392539" lon="12.583300943466211"><ele>574.0</ele><time>2026-04-26T09:26:18.992Z</time></trkpt><trkpt lat="43.36373734308527" lon="12.58314884328706"><ele>574.0</ele><time>2026-04-26T09:26:19.992Z</time></trkpt><trkpt lat="43.36386357133602" lon="12.583010657751734"><ele>574.0</ele><time>2026-04-26T09:26:20.992Z</time></trkpt><trkpt lat="43.363995253031774" lon="12.582886962876922"><ele>572.75</ele><time>2026-04-26T09:26:21.992Z</time></trkpt><trkpt lat="43.3641271379217" lon="12.582840451626407"><ele>571.5</ele><time>2026-04-26T09:26:22.992Z</time></trkpt><trkpt lat="43.364259144022576" lon="12.582837603753363"><ele>570.25</ele><time>2026-04-26T09:26:23.992Z</time></trkpt><trkpt lat="43.364387453155935" lon="12.582868248938107"><ele>569.0</ele><time>2026-04-26T09:26:24.992Z</time></trkpt><trkpt lat="43.364560139327814" lon="12.582913268851476"><ele>572.6666666666666</ele><time>2026-04-26T09:26:25.992Z</time></trkpt><trkpt lat="43.36473667947349" lon="12.582919783781998"><ele>576.3333333333334</ele><time>2026-04-26T09:26:26.992Z</time></trkpt><trkpt lat="43.36491496765678" lon="12.582883437606979"><ele>580.0</ele><time>2026-04-26T09:26:27.992Z</time></trkpt><trkpt lat="43.365092865910135" lon="12.582780606679833"><ele>580.0</ele><time>2026-04-26T09:26:28.992Z</time></trkpt><trkpt lat="43.3652818354148" lon="12.582687408898245"><ele>580.0</ele><time>2026-04-26T09:26:29.992Z</time></trkpt><trkpt lat="43.36546826074292" lon="12.582589495858134"><ele>580.0</ele><time>2026-04-26T09:26:30.992Z</time></trkpt><trkpt lat="43.365631095491516" lon="12.582546835549625"><ele>582.0</ele><time>2026-04-26T09:26:31.992Z</time></trkpt><trkpt lat="43.36577077088761" lon="12.58257311106931"><ele>584.0</ele><time>2026-04-26T09:26:32.992Z</time></trkpt><trkpt lat="43.36590536691712" lon="12.582640609284471"><ele>586.0</ele><time>2026-04-26T09:26:33.992Z</time></trkpt><trkpt lat="43.36603361710305" lon="12.582740445336126"><ele>588.0</ele><time>2026-04-26T09:26:34.992Z</time></trkpt><trkpt lat="43.36614126055134" lon="12.582879647139514"><ele>593.0</ele><time>2026-04-26T09:26:35.992Z</time></trkpt><trkpt lat="43.36627662882818" lon="12.583040527990407"><ele>598.0</ele><time>2026-04-26T09:26:36.992Z</time></trkpt><trkpt lat="43.36642188644699" lon="12.583163658716233"><ele>603.0</ele><time>2026-04-26T09:26:37.992Z</time></trkpt><trkpt lat="43.36656959047476" lon="12.583242461020419"><ele>603.0</ele><time>2026-04-26T09:26:38.992Z</time></trkpt><trkpt lat="43.36672432685772" lon="12.5832530148021"><ele>603.0</ele><time>2026-04-26T09:26:39.992Z</time></trkpt><trkpt lat="43.36688847830557" lon="12.58329145898777"><ele>603.0</ele><time>2026-04-26T09:26:40.992Z</time></trkpt><trkpt lat="43.36711749614983" lon="12.58333769727529"><ele>602.0</ele><time>2026-04-26T09:26:41.992Z</time></trkpt><trkpt lat="43.36733621814934" lon="12.583330003112254"><ele>601.0</ele><time>2026-04-26T09:26:42.992Z</time></trkpt><trkpt lat="43.36753571978009" lon="12.583417142429804"><ele>600.0</ele><time>2026-04-26T09:26:43.992Z</time></trkpt><trkpt lat="43.367716765028966" lon="12.58352380032202"><ele>600.0</ele><time>2026-04-26T09:26:44.992Z</time></trkpt><trkpt lat="43.367873141864905" lon="12.58362961954252"><ele>600.0</ele><time>2026-04-26T09:26:45.992Z</time></trkpt><trkpt lat="43.36794877455692" lon="12.583876718882733"><ele>600.0</ele><time>2026-04-26T09:26:46.992Z</time></trkpt><trkpt lat="43.36796434591762" lon="12.584096936541103"><ele>607.3333333333334</ele><time>2026-04-26T09:26:47.992Z</time></trkpt><trkpt lat="43.36804637833002" lon="12.584360742528773"><ele>614.6666666666667</ele><time>2026-04-26T09:26:48.992Z</time></trkpt><trkpt lat="43.36812178944708" lon="12.58463167302828"><ele>622.0</ele><time>2026-04-26T09:26:49.992Z</time></trkpt><trkpt lat="43.36816270796036" lon="12.584886205488816"><ele>622.3333333333334</ele><time>2026-04-26T09:26:50.992Z</time></trkpt><trkpt lat="43.36816684990198" lon="12.585112006210839"><ele>622.6666666666666</ele><time>2026-04-26T09:26:51.992Z</time></trkpt><trkpt lat="43.368131039583574" lon="12.585427534049973"><ele>623.0</ele><time>2026-04-26T09:26:52.992Z</time></trkpt><trkpt lat="43.36807267137664" lon="12.58572902674141"><ele>619.0</ele><time>2026-04-26T09:26:53.992Z</time></trkpt><trkpt lat="43.36797518287559" lon="12.586065854446181"><ele>615.0</ele><time>2026-04-26T09:26:54.992Z</time></trkpt><trkpt lat="43.36787723178375" lon="12.586334002358395"><ele>615.0</ele><time>2026-04-26T09:26:55.992Z</time></trkpt><trkpt lat="43.36778456883814" lon="12.586614634767951"><ele>615.0</ele><time>2026-04-26T09:26:56.992Z</time></trkpt><trkpt lat="43.36774696665952" lon="12.586870766364937"><ele>615.0</ele><time>2026-04-26T09:26:57.993Z</time></trkpt><trkpt lat="43.367763467507146" lon="12.587094747234145"><ele>622.6666666666666</ele><time>2026-04-26T09:26:58.993Z</time></trkpt><trkpt lat="43.36781295762054" lon="12.587299682961905"><ele>630.3333333333333</ele><time>2026-04-26T09:26:59.993Z</time></trkpt><trkpt lat="43.36791487867969" lon="12.587461115160508"><ele>638.0</ele><time>2026-04-26T09:27:00.993Z</time></trkpt><trkpt lat="43.36799992205248" lon="12.58762753776723"><ele>634.3333333333333</ele><time>2026-04-26T09:27:01.993Z</time></trkpt><trkpt lat="43.36815795228458" lon="12.587738994672396"><ele>630.6666666666666</ele><time>2026-04-26T09:27:02.993Z</time></trkpt><trkpt lat="43.36836727005974" lon="12.58790393806726"><ele>627.0</ele><time>2026-04-26T09:27:03.993Z</time></trkpt><trkpt lat="43.36858954288525" lon="12.588015431660168"><ele>627.0</ele><time>2026-04-26T09:27:04.992Z</time></trkpt><trkpt lat="43.36876229369067" lon="12.588126471020242"><ele>627.0</ele><time>2026-04-26T09:27:05.992Z</time></trkpt><trkpt lat="43.36896173498151" lon="12.588126080920917"><ele>627.0</ele><time>2026-04-26T09:27:06.993Z</time></trkpt><trkpt lat="43.3691822729564" lon="12.58812579719546"><ele>623.6666666666666</ele><time>2026-04-26T09:27:07.993Z</time></trkpt><trkpt lat="43.36941740094937" lon="12.58816675219954"><ele>620.3333333333333</ele><time>2026-04-26T09:27:08.993Z</time></trkpt><trkpt lat="43.369614569710016" lon="12.588198929047183"><ele>617.0</ele><time>2026-04-26T09:27:09.992Z</time></trkpt><trkpt lat="43.36978324460955" lon="12.58812484470358"><ele>616.6666666666666</ele><time>2026-04-26T09:27:10.993Z</time></trkpt><trkpt lat="43.36994255972363" lon="12.588229153386505"><ele>616.3333333333334</ele><time>2026-04-26T09:27:11.993Z</time></trkpt><trkpt lat="43.3699925159525" lon="12.58859022391523"><ele>616.0</ele><time>2026-04-26T09:27:12.993Z</time></trkpt><trkpt lat="43.37013113788361" lon="12.588757568761167"><ele>619.3333333333334</ele><time>2026-04-26T09:27:13.993Z</time></trkpt><trkpt lat="43.37028863610917" lon="12.588918092884366"><ele>622.6666666666666</ele><time>2026-04-26T09:27:14.993Z</time></trkpt><trkpt lat="43.3704925317509" lon="12.589066033974014"><ele>626.0</ele><time>2026-04-26T09:27:15.993Z</time></trkpt><trkpt lat="43.37072479388924" lon="12.589198871527167"><ele>626.0</ele><time>2026-04-26T09:27:16.993Z</time></trkpt><trkpt lat="43.37094834477236" lon="12.589191287491055"><ele>626.0</ele><time>2026-04-26T09:27:17.993Z</time></trkpt><trkpt lat="43.371151713871505" lon="12.589162978238265"><ele>626.0</ele><time>2026-04-26T09:27:18.993Z</time></trkpt><trkpt lat="43.371332948643584" lon="12.58923255065866"><ele>625.0</ele><time>2026-04-26T09:27:19.993Z</time></trkpt><trkpt lat="43.37146865946435" lon="12.589346813179347"><ele>624.0</ele><time>2026-04-26T09:27:20.993Z</time></trkpt><trkpt lat="43.371641417964184" lon="12.589502013611783"><ele>623.0</ele><time>2026-04-26T09:27:21.993Z</time></trkpt><trkpt lat="43.371829506042204" lon="12.589670015058172"><ele>626.0</ele><time>2026-04-26T09:27:22.993Z</time></trkpt><trkpt lat="43.37202638956912" lon="12.589845899587786"><ele>629.0</ele><time>2026-04-26T09:27:23.993Z</time></trkpt><trkpt lat="43.37222489003227" lon="12.59001998214232"><ele>629.0</ele><time>2026-04-26T09:27:24.993Z</time></trkpt><trkpt lat="43.372446446634356" lon="12.590199912282761"><ele>629.0</ele><time>2026-04-26T09:27:25.993Z</time></trkpt><trkpt lat="43.37258018355825" lon="12.590356432372586"><ele>629.0</ele><time>2026-04-26T09:27:26.993Z</time></trkpt><trkpt lat="43.37270268686655" lon="12.590537127726655"><ele>634.3333333333333</ele><time>2026-04-26T09:27:27.993Z</time></trkpt><trkpt lat="43.37284724650193" lon="12.590667791613589"><ele>639.6666666666666</ele><time>2026-04-26T09:27:28.993Z</time></trkpt><trkpt lat="43.372999224781" lon="12.59072340009741"><ele>645.0</ele><time>2026-04-26T09:27:29.993Z</time></trkpt><trkpt lat="43.37315903853257" lon="12.590699672901847"><ele>645.0</ele><time>2026-04-26T09:27:30.993Z</time></trkpt><trkpt lat="43.373120827717116" lon="12.590887727537838"><ele>645.0</ele><time>2026-04-26T09:27:32.993Z</time></trkpt><trkpt lat="43.37300288886998" lon="12.590921310207376"><ele>645.0</ele><time>2026-04-26T09:27:33.993Z</time></trkpt><trkpt lat="43.372852128673" lon="12.590878951711746"><ele>645.0</ele><time>2026-04-26T09:27:34.993Z</time></trkpt><trkpt lat="43.372693061512976" lon="12.590817959656793"><ele>645.0</ele><time>2026-04-26T09:27:35.993Z</time></trkpt><trkpt lat="43.372531616082995" lon="12.590735619567349"><ele>645.0</ele><time>2026-04-26T09:27:36.993Z</time></trkpt><trkpt lat="43.37233979674079" lon="12.590739220793624"><ele>645.0</ele><time>2026-04-26T09:27:37.993Z</time></trkpt><trkpt lat="43.37224779178207" lon="12.590748775734395"><ele>645.25</ele><time>2026-04-26T09:27:38.993Z</time></trkpt><trkpt lat="43.37217249365234" lon="12.590815290911593"><ele>645.5</ele><time>2026-04-26T09:27:39.993Z</time></trkpt><trkpt lat="43.3721105234845" lon="12.590931251902044"><ele>645.75</ele><time>2026-04-26T09:27:40.992Z</time></trkpt><trkpt lat="43.372052589225916" lon="12.591075157332325"><ele>646.0</ele><time>2026-04-26T09:27:41.992Z</time></trkpt><trkpt lat="43.3720239940701" lon="12.591331645056563"><ele>646.0</ele><time>2026-04-26T09:27:42.992Z</time></trkpt><trkpt lat="43.372017256367066" lon="12.591649737567586"><ele>646.0</ele><time>2026-04-26T09:27:43.992Z</time></trkpt><trkpt lat="43.3720061285954" lon="12.592013892989419"><ele>646.6666666666667</ele><time>2026-04-26T09:27:44.992Z</time></trkpt><trkpt lat="43.37200575888769" lon="12.592378942117909"><ele>647.3333333333334</ele><time>2026-04-26T09:27:45.992Z</time></trkpt><trkpt lat="43.37200512261647" lon="12.592585130256776"><ele>648.0</ele><time>2026-04-26T09:27:46.992Z</time></trkpt><trkpt lat="43.37201822261576" lon="12.59274780186177"><ele>651.3333333333334</ele><time>2026-04-26T09:27:47.992Z</time></trkpt><trkpt lat="43.37206054502503" lon="12.592924485725234"><ele>654.6666666666667</ele><time>2026-04-26T09:27:48.992Z</time></trkpt><trkpt lat="43.37211387233045" lon="12.593140418235052"><ele>658.0</ele><time>2026-04-26T09:27:49.992Z</time></trkpt><trkpt lat="43.37220607136753" lon="12.593359812400214"><ele>665.0</ele><time>2026-04-26T09:27:50.992Z</time></trkpt><trkpt lat="43.37234130339366" lon="12.593556031448976"><ele>672.0</ele><time>2026-04-26T09:27:51.992Z</time></trkpt><trkpt lat="43.37240221455738" lon="12.593783168909278"><ele>679.0</ele><time>2026-04-26T09:27:52.992Z</time></trkpt><trkpt lat="43.372387719491186" lon="12.594050843228718"><ele>679.0</ele><time>2026-04-26T09:27:53.992Z</time></trkpt><trkpt lat="43.3723720445495" lon="12.594310244938479"><ele>679.0</ele><time>2026-04-26T09:27:54.992Z</time></trkpt><trkpt lat="43.372397133804306" lon="12.59453672906005"><ele>679.0</ele><time>2026-04-26T09:27:55.992Z</time></trkpt><trkpt lat="43.37246150306519" lon="12.5947722141831"><ele>680.0</ele><time>2026-04-26T09:27:56.992Z</time></trkpt><trkpt lat="43.37254771248038" lon="12.595006177736822"><ele>681.0</ele><time>2026-04-26T09:27:57.992Z</time></trkpt><trkpt lat="43.372664961081504" lon="12.595279982163296"><ele>682.0</ele><time>2026-04-26T09:27:58.992Z</time></trkpt><trkpt lat="43.37275828589628" lon="12.595508224117218"><ele>683.6666666666667</ele><time>2026-04-26T09:27:59.992Z</time></trkpt><trkpt lat="43.37285290160659" lon="12.595715326261534"><ele>685.3333333333334</ele><time>2026-04-26T09:28:00.992Z</time></trkpt><trkpt lat="43.37297386537348" lon="12.595923717683565"><ele>687.0</ele><time>2026-04-26T09:28:01.992Z</time></trkpt><trkpt lat="43.37316453152513" lon="12.596140582234714"><ele>690.5</ele><time>2026-04-26T09:28:02.992Z</time></trkpt><trkpt lat="43.37336943485909" lon="12.59640724546205"><ele>694.0</ele><time>2026-04-26T09:28:03.992Z</time></trkpt><trkpt lat="43.37354336749249" lon="12.596705479668753"><ele>698.0</ele><time>2026-04-26T09:28:04.992Z</time></trkpt><trkpt lat="43.3737023984678" lon="12.597020439986927"><ele>702.0</ele><time>2026-04-26T09:28:05.992Z</time></trkpt><trkpt lat="43.37388578437367" lon="12.597341948482436"><ele>702.5</ele><time>2026-04-26T09:28:06.992Z</time></trkpt><trkpt lat="43.374065022049145" lon="12.59769941796663"><ele>703.0</ele><time>2026-04-26T09:28:07.992Z</time></trkpt><trkpt lat="43.374209297456204" lon="12.598056130519023"><ele>703.0</ele><time>2026-04-26T09:28:08.992Z</time></trkpt><trkpt lat="43.37435005735818" lon="12.598390906693304"><ele>703.0</ele><time>2026-04-26T09:28:09.992Z</time></trkpt><trkpt lat="43.37447005746019" lon="12.59870984704424"><ele>704.5</ele><time>2026-04-26T09:28:10.992Z</time></trkpt><trkpt lat="43.37459858568715" lon="12.59900603782928"><ele>706.0</ele><time>2026-04-26T09:28:11.992Z</time></trkpt><trkpt lat="43.37476464495634" lon="12.599291052087207"><ele>711.0</ele><time>2026-04-26T09:28:12.992Z</time></trkpt><trkpt lat="43.374955354854336" lon="12.599550961498258"><ele>716.0</ele><time>2026-04-26T09:28:13.992Z</time></trkpt><trkpt lat="43.37508796121419" lon="12.59977876906149"><ele>716.0</ele><time>2026-04-26T09:28:14.992Z</time></trkpt><trkpt lat="43.37520697869771" lon="12.600009743627652"><ele>716.0</ele><time>2026-04-26T09:28:15.992Z</time></trkpt><trkpt lat="43.37531786855958" lon="12.60025127813836"><ele>716.0</ele><time>2026-04-26T09:28:16.992Z</time></trkpt><trkpt lat="43.375470253487" lon="12.60048814494858"><ele>720.5</ele><time>2026-04-26T09:28:17.992Z</time></trkpt><trkpt lat="43.375671356792104" lon="12.600704476840333"><ele>725.0</ele><time>2026-04-26T09:28:18.992Z</time></trkpt><trkpt lat="43.37589349734522" lon="12.600929885431112"><ele>728.0</ele><time>2026-04-26T09:28:19.992Z</time></trkpt><trkpt lat="43.376048839464524" lon="12.601183731041841"><ele>731.0</ele><time>2026-04-26T09:28:20.992Z</time></trkpt><trkpt lat="43.376162986350565" lon="12.601426286558135"><ele>731.0</ele><time>2026-04-26T09:28:21.992Z</time></trkpt><trkpt lat="43.3762291433304" lon="12.601660163160243"><ele>731.0</ele><time>2026-04-26T09:28:22.992Z</time></trkpt><trkpt lat="43.376212190545466" lon="12.601868364128821"><ele>731.0</ele><time>2026-04-26T09:28:23.992Z</time></trkpt><trkpt lat="43.37610840423565" lon="12.602076048939539"><ele>733.25</ele><time>2026-04-26T09:28:24.992Z</time></trkpt><trkpt lat="43.376015767893605" lon="12.602263493390586"><ele>735.5</ele><time>2026-04-26T09:28:25.992Z</time></trkpt><trkpt lat="43.375980698672144" lon="12.602444400338102"><ele>737.75</ele><time>2026-04-26T09:28:26.992Z</time></trkpt><trkpt lat="43.37597251083839" lon="12.602608829514601"><ele>740.0</ele><time>2026-04-26T09:28:27.992Z</time></trkpt><trkpt lat="43.3760904820655" lon="12.602667019759874"><ele>740.0</ele><time>2026-04-26T09:28:29.992Z</time></trkpt><trkpt lat="43.37626999726588" lon="12.60263050157191"><ele>740.0</ele><time>2026-04-26T09:28:30.992Z</time></trkpt><trkpt lat="43.37645142131547" lon="12.602580933320048"><ele>740.0</ele><time>2026-04-26T09:28:31.992Z</time></trkpt><trkpt lat="43.37662845992941" lon="12.602568588595458"><ele>740.25</ele><time>2026-04-26T09:28:32.992Z</time></trkpt><trkpt lat="43.37680707339566" lon="12.60254509235643"><ele>740.5</ele><time>2026-04-26T09:28:33.992Z</time></trkpt><trkpt lat="43.37687800974771" lon="12.602616070861286"><ele>740.75</ele><time>2026-04-26T09:28:34.992Z</time></trkpt><trkpt lat="43.376908067852405" lon="12.602734588740326"><ele>741.0</ele><time>2026-04-26T09:28:35.992Z</time></trkpt><trkpt lat="43.37685242496578" lon="12.602902688309177"><ele>744.6666666666666</ele><time>2026-04-26T09:28:36.992Z</time></trkpt><trkpt lat="43.37671071936101" lon="12.603031267479567"><ele>748.3333333333333</ele><time>2026-04-26T09:28:37.992Z</time></trkpt><trkpt lat="43.37648954429521" lon="12.603103829610362"><ele>752.0</ele><time>2026-04-26T09:28:38.992Z</time></trkpt><trkpt lat="43.37628889721725" lon="12.603185947523533"><ele>752.0</ele><time>2026-04-26T09:28:39.992Z</time></trkpt><trkpt lat="43.37614140506656" lon="12.603243462644325"><ele>752.0</ele><time>2026-04-26T09:28:40.992Z</time></trkpt><trkpt lat="43.37604064200808" lon="12.603330338646199"><ele>752.0</ele><time>2026-04-26T09:28:41.992Z</time></trkpt><trkpt lat="43.3759908494328" lon="12.603477579751138"><ele>752.0</ele><time>2026-04-26T09:28:42.991Z</time></trkpt><trkpt lat="43.37601360636853" lon="12.603643970425274"><ele>756.25</ele><time>2026-04-26T09:28:43.991Z</time></trkpt><trkpt lat="43.376070078819396" lon="12.603805367817356"><ele>760.5</ele><time>2026-04-26T09:28:44.991Z</time></trkpt><trkpt lat="43.376159658099134" lon="12.603902694523889"><ele>764.75</ele><time>2026-04-26T09:28:45.991Z</time></trkpt><trkpt lat="43.376305361378556" lon="12.603894421017616"><ele>769.0</ele><time>2026-04-26T09:28:46.991Z</time></trkpt><trkpt lat="43.37647591218692" lon="12.60383313330889"><ele>771.0</ele><time>2026-04-26T09:28:47.991Z</time></trkpt><trkpt lat="43.376696337010614" lon="12.603773559268198"><ele>773.0</ele><time>2026-04-26T09:28:48.991Z</time></trkpt><trkpt lat="43.376916946242915" lon="12.603718827686249"><ele>775.0</ele><time>2026-04-26T09:28:49.991Z</time></trkpt><trkpt lat="43.37709390907959" lon="12.603700227607403"><ele>775.75</ele><time>2026-04-26T09:28:50.991Z</time></trkpt><trkpt lat="43.3772494885488" lon="12.60374638908727"><ele>776.5</ele><time>2026-04-26T09:28:51.991Z</time></trkpt><trkpt lat="43.377366927644225" lon="12.603859884681318"><ele>777.25</ele><time>2026-04-26T09:28:52.991Z</time></trkpt><trkpt lat="43.377491769806106" lon="12.60391470132743"><ele>778.0</ele><time>2026-04-26T09:28:53.991Z</time></trkpt><trkpt lat="43.37763091767127" lon="12.603948198566039"><ele>778.0</ele><time>2026-04-26T09:28:54.991Z</time></trkpt><trkpt lat="43.37780316070566" lon="12.603928173716792"><ele>778.0</ele><time>2026-04-26T09:28:55.991Z</time></trkpt><trkpt lat="43.37800800895241" lon="12.603905246074582"><ele>778.0</ele><time>2026-04-26T09:28:56.991Z</time></trkpt><trkpt lat="43.378226326735124" lon="12.603897793783137"><ele>778.5</ele><time>2026-04-26T09:28:57.991Z</time></trkpt><trkpt lat="43.37839965374991" lon="12.603945477974962"><ele>779.0</ele><time>2026-04-26T09:28:58.991Z</time></trkpt><trkpt lat="43.37850883776722" lon="12.60399379289319"><ele>779.5</ele><time>2026-04-26T09:28:59.991Z</time></trkpt><trkpt lat="43.37857174128005" lon="12.604049151975293"><ele>780.0</ele><time>2026-04-26T09:29:00.991Z</time></trkpt><trkpt lat="43.378621165537474" lon="12.604183571897476"><ele>780.0</ele><time>2026-04-26T09:29:01.991Z</time></trkpt><trkpt lat="43.37864736086231" lon="12.60434468363346"><ele>780.0</ele><time>2026-04-26T09:29:02.991Z</time></trkpt><trkpt lat="43.378651698260455" lon="12.604543412798375"><ele>780.0</ele><time>2026-04-26T09:29:03.992Z</time></trkpt><trkpt lat="43.37864346389819" lon="12.604720053492544"><ele>780.0</ele><time>2026-04-26T09:29:04.992Z</time></trkpt><trkpt lat="43.378617933867126" lon="12.604879538911954"><ele>778.25</ele><time>2026-04-26T09:29:05.992Z</time></trkpt><trkpt lat="43.37856561402009" lon="12.605000433148005"><ele>776.5</ele><time>2026-04-26T09:29:06.993Z</time></trkpt><trkpt lat="43.37848915731946" lon="12.605101440449449"><ele>774.75</ele><time>2026-04-26T09:29:07.992Z</time></trkpt><trkpt lat="43.37839592000963" lon="12.605200714646035"><ele>773.0</ele><time>2026-04-26T09:29:08.992Z</time></trkpt><trkpt lat="43.378287778407106" lon="12.605283613813588"><ele>773.0</ele><time>2026-04-26T09:29:09.992Z</time></trkpt><trkpt lat="43.37815000807432" lon="12.60531253299173"><ele>773.0</ele><time>2026-04-26T09:29:10.992Z</time></trkpt><trkpt lat="43.37800605285597" lon="12.605341004900625"><ele>773.0</ele><time>2026-04-26T09:29:11.992Z</time></trkpt><trkpt lat="43.377864645674165" lon="12.605340286298098"><ele>773.0</ele><time>2026-04-26T09:29:12.992Z</time></trkpt><trkpt lat="43.37773663202443" lon="12.605359442266346"><ele>771.5</ele><time>2026-04-26T09:29:13.992Z</time></trkpt><trkpt lat="43.377630190918914" lon="12.605388380812405"><ele>770.0</ele><time>2026-04-26T09:29:14.992Z</time></trkpt><trkpt lat="43.37753181575364" lon="12.605472525573678"><ele>768.5</ele><time>2026-04-26T09:29:15.992Z</time></trkpt><trkpt lat="43.3774443995482" lon="12.605599785645124"><ele>767.0</ele><time>2026-04-26T09:29:16.992Z</time></trkpt><trkpt lat="43.377362854875095" lon="12.605761360551336"><ele>767.0</ele><time>2026-04-26T09:29:17.992Z</time></trkpt><trkpt lat="43.377267046509154" lon="12.605964145510871"><ele>767.0</ele><time>2026-04-26T09:29:18.992Z</time></trkpt><trkpt lat="43.37717015326267" lon="12.606192382218351"><ele>767.0</ele><time>2026-04-26T09:29:19.992Z</time></trkpt><trkpt lat="43.37710982538896" lon="12.606383637834119"><ele>771.25</ele><time>2026-04-26T09:29:20.992Z</time></trkpt><trkpt lat="43.377082545730076" lon="12.606566198328078"><ele>775.5</ele><time>2026-04-26T09:29:21.992Z</time></trkpt><trkpt lat="43.37710344942018" lon="12.606746969140959"><ele>779.75</ele><time>2026-04-26T09:29:22.992Z</time></trkpt><trkpt lat="43.377170916263644" lon="12.60690782240264"><ele>784.0</ele><time>2026-04-26T09:29:23.992Z</time></trkpt><trkpt lat="43.37727283436685" lon="12.60700665521485"><ele>784.0</ele><time>2026-04-26T09:29:24.992Z</time></trkpt><trkpt lat="43.377387430671625" lon="12.607059607412177"><ele>784.0</ele><time>2026-04-26T09:29:25.992Z</time></trkpt><trkpt lat="43.37756794901033" lon="12.60702797108343"><ele>784.0</ele><time>2026-04-26T09:29:26.992Z</time></trkpt><trkpt lat="43.37780160362712" lon="12.606938218285986"><ele>771.0</ele><time>2026-04-26T09:29:27.992Z</time></trkpt><trkpt lat="43.37808517642329" lon="12.60684742689326"><ele>758.0</ele><time>2026-04-26T09:29:28.992Z</time></trkpt><trkpt lat="43.378371304749464" lon="12.606750067234143"><ele>758.0</ele><time>2026-04-26T09:29:29.992Z</time></trkpt><trkpt lat="43.37865235144562" lon="12.606665242326356"><ele>758.0</ele><time>2026-04-26T09:29:30.992Z</time></trkpt><trkpt lat="43.378938879670294" lon="12.606574680906975"><ele>755.0</ele><time>2026-04-26T09:29:31.992Z</time></trkpt><trkpt lat="43.379194516533666" lon="12.606540841307561"><ele>752.0</ele><time>2026-04-26T09:29:32.992Z</time></trkpt><trkpt lat="43.37943011170223" lon="12.60651468905515"><ele>752.0</ele><time>2026-04-26T09:29:33.992Z</time></trkpt><trkpt lat="43.37965507002313" lon="12.606510269107964"><ele>752.0</ele><time>2026-04-26T09:29:34.992Z</time></trkpt><trkpt lat="43.379858505599316" lon="12.606498609694457"><ele>752.0</ele><time>2026-04-26T09:29:35.992Z</time></trkpt><trkpt lat="43.38002923197832" lon="12.606584422024653"><ele>748.5</ele><time>2026-04-26T09:29:36.992Z</time></trkpt><trkpt lat="43.380221215031696" lon="12.606718945815595"><ele>745.0</ele><time>2026-04-26T09:29:37.992Z</time></trkpt><trkpt lat="43.38044541706443" lon="12.60691035119955"><ele>741.0</ele><time>2026-04-26T09:29:38.992Z</time></trkpt><trkpt lat="43.38067079874641" lon="12.607128381952268"><ele>737.0</ele><time>2026-04-26T09:29:39.992Z</time></trkpt><trkpt lat="43.38088951805506" lon="12.607357178894409"><ele>737.0</ele><time>2026-04-26T09:29:40.992Z</time></trkpt><trkpt lat="43.38109822017847" lon="12.607577582218877"><ele>737.0</ele><time>2026-04-26T09:29:41.992Z</time></trkpt><trkpt lat="43.38129974425202" lon="12.607838404695377"><ele>731.5</ele><time>2026-04-26T09:29:42.992Z</time></trkpt><trkpt lat="43.3815199696496" lon="12.608123582208506"><ele>726.0</ele><time>2026-04-26T09:29:43.992Z</time></trkpt><trkpt lat="43.38171833421917" lon="12.608413071561431"><ele>731.0</ele><time>2026-04-26T09:29:44.992Z</time></trkpt><trkpt lat="43.3818936483349" lon="12.608677056348602"><ele>736.0</ele><time>2026-04-26T09:29:45.992Z</time></trkpt><trkpt lat="43.382064497932134" lon="12.608923090977612"><ele>729.3333333333334</ele><time>2026-04-26T09:29:46.992Z</time></trkpt><trkpt lat="43.38222014426114" lon="12.609139605621893"><ele>722.6666666666666</ele><time>2026-04-26T09:29:47.992Z</time></trkpt><trkpt lat="43.382354933367374" lon="12.60931489418416"><ele>716.0</ele><time>2026-04-26T09:29:48.992Z</time></trkpt><trkpt lat="43.38244882163184" lon="12.609450857738851"><ele>716.0</ele><time>2026-04-26T09:29:49.992Z</time></trkpt><trkpt lat="43.38253846521104" lon="12.609548337507002"><ele>716.0</ele><time>2026-04-26T09:29:50.992Z</time></trkpt><trkpt lat="43.382669154530205" lon="12.609596785011208"><ele>716.0</ele><time>2026-04-26T09:29:51.992Z</time></trkpt><trkpt lat="43.382787405942864" lon="12.609505567554915"><ele>716.0</ele><time>2026-04-26T09:29:52.992Z</time></trkpt><trkpt lat="43.38292358508169" lon="12.609364796617731"><ele>716.5</ele><time>2026-04-26T09:29:53.992Z</time></trkpt><trkpt lat="43.38307470447009" lon="12.609191916763182"><ele>717.0</ele><time>2026-04-26T09:29:54.992Z</time></trkpt><trkpt lat="43.38318304740307" lon="12.60912961889099"><ele>717.5</ele><time>2026-04-26T09:29:55.992Z</time></trkpt><trkpt lat="43.38329128995087" lon="12.609139227479682"><ele>718.0</ele><time>2026-04-26T09:29:56.992Z</time></trkpt><trkpt lat="43.38340554874884" lon="12.609247138705474"><ele>718.0</ele><time>2026-04-26T09:29:57.992Z</time></trkpt><trkpt lat="43.38355375232403" lon="12.60947567162773"><ele>718.0</ele><time>2026-04-26T09:29:58.992Z</time></trkpt><trkpt lat="43.383702546116375" lon="12.609670122155812"><ele>718.0</ele><time>2026-04-26T09:29:59.992Z</time></trkpt><trkpt lat="43.38384774648947" lon="12.609863444537924"><ele>715.0</ele><time>2026-04-26T09:30:00.992Z</time></trkpt><trkpt lat="43.3840003149601" lon="12.610048169044028"><ele>712.0</ele><time>2026-04-26T09:30:01.992Z</time></trkpt><trkpt lat="43.38418534524104" lon="12.610225360565334"><ele>709.0</ele><time>2026-04-26T09:30:02.992Z</time></trkpt><trkpt lat="43.384436818662685" lon="12.610310596796024"><ele>707.3333333333334</ele><time>2026-04-26T09:30:03.992Z</time></trkpt><trkpt lat="43.38466933246057" lon="12.610378819642138"><ele>705.6666666666666</ele><time>2026-04-26T09:30:04.992Z</time></trkpt><trkpt lat="43.38481345203377" lon="12.610514164736509"><ele>704.0</ele><time>2026-04-26T09:30:05.992Z</time></trkpt><trkpt lat="43.38491761069718" lon="12.610697414594007"><ele>704.0</ele><time>2026-04-26T09:30:06.992Z</time></trkpt><trkpt lat="43.38499875215839" lon="12.610964599880985"><ele>704.0</ele><time>2026-04-26T09:30:07.992Z</time></trkpt><trkpt lat="43.385114217893644" lon="12.611250402056827"><ele>704.0</ele><time>2026-04-26T09:30:08.992Z</time></trkpt><trkpt lat="43.385254993443645" lon="12.61152916089547"><ele>700.0</ele><time>2026-04-26T09:30:09.992Z</time></trkpt><trkpt lat="43.38540679330037" lon="12.611827085209711"><ele>696.0</ele><time>2026-04-26T09:30:10.992Z</time></trkpt><trkpt lat="43.38554703293106" lon="12.612100278853323"><ele>696.0</ele><time>2026-04-26T09:30:11.992Z</time></trkpt><trkpt lat="43.38566467876068" lon="12.612299378357868"><ele>696.0</ele><time>2026-04-26T09:30:12.991Z</time></trkpt><trkpt lat="43.38577361355932" lon="12.612454723799237"><ele>696.0</ele><time>2026-04-26T09:30:13.991Z</time></trkpt><trkpt lat="43.38591766019054" lon="12.61257778529287"><ele>696.0</ele><time>2026-04-26T09:30:14.991Z</time></trkpt><trkpt lat="43.38607346235767" lon="12.612643171833346"><ele>696.0</ele><time>2026-04-26T09:30:15.991Z</time></trkpt><trkpt lat="43.386265998196805" lon="12.612644996399638"><ele>696.0</ele><time>2026-04-26T09:30:16.991Z</time></trkpt><trkpt lat="43.38649326982571" lon="12.612561349914076"><ele>703.5</ele><time>2026-04-26T09:30:17.991Z</time></trkpt><trkpt lat="43.38673843014541" lon="12.61249897450235"><ele>711.0</ele><time>2026-04-26T09:30:18.991Z</time></trkpt><trkpt lat="43.386987932109655" lon="12.61243474818686"><ele>713.5</ele><time>2026-04-26T09:30:19.991Z</time></trkpt><trkpt lat="43.387240978766044" lon="12.612363380221822"><ele>716.0</ele><time>2026-04-26T09:30:20.991Z</time></trkpt><trkpt lat="43.387455683702306" lon="12.612322451596567"><ele>716.0</ele><time>2026-04-26T09:30:21.991Z</time></trkpt><trkpt lat="43.38761647002836" lon="12.612322111959822"><ele>716.0</ele><time>2026-04-26T09:30:22.991Z</time></trkpt><trkpt lat="43.38774130278079" lon="12.612376338269309"><ele>716.0</ele><time>2026-04-26T09:30:23.991Z</time></trkpt><trkpt lat="43.3878434104187" lon="12.612513894858939"><ele>716.0</ele><time>2026-04-26T09:30:24.991Z</time></trkpt><trkpt lat="43.38792297661741" lon="12.612680186379338"><ele>711.5</ele><time>2026-04-26T09:30:25.991Z</time></trkpt><trkpt lat="43.387961700335126" lon="12.612950766236773"><ele>707.0</ele><time>2026-04-26T09:30:26.991Z</time></trkpt><trkpt lat="43.3879559269127" lon="12.613296620140344"><ele>706.0</ele><time>2026-04-26T09:30:27.991Z</time></trkpt><trkpt lat="43.38791176712209" lon="12.613660345743035"><ele>705.0</ele><time>2026-04-26T09:30:28.991Z</time></trkpt><trkpt lat="43.38783778362961" lon="12.61399141100239"><ele>705.0</ele><time>2026-04-26T09:30:29.991Z</time></trkpt><trkpt lat="43.38777118715501" lon="12.61422504073727"><ele>705.0</ele><time>2026-04-26T09:30:30.991Z</time></trkpt><trkpt lat="43.387732601168146" lon="12.614390257836414"><ele>705.0</ele><time>2026-04-26T09:30:31.991Z</time></trkpt><trkpt lat="43.387727909372366" lon="12.61454249926125"><ele>705.0</ele><time>2026-04-26T09:30:32.991Z</time></trkpt><trkpt lat="43.387799152690285" lon="12.614699015969894"><ele>706.6666666666666</ele><time>2026-04-26T09:30:33.991Z</time></trkpt><trkpt lat="43.38791903748116" lon="12.614843541429101"><ele>708.3333333333333</ele><time>2026-04-26T09:30:34.991Z</time></trkpt><trkpt lat="43.38809005988088" lon="12.614997098919257"><ele>710.0</ele><time>2026-04-26T09:30:35.991Z</time></trkpt><trkpt lat="43.388288818113956" lon="12.615177635433998"><ele>703.5</ele><time>2026-04-26T09:30:36.991Z</time></trkpt><trkpt lat="43.388509240364584" lon="12.615329550266704"><ele>697.0</ele><time>2026-04-26T09:30:37.991Z</time></trkpt><trkpt lat="43.388708143026754" lon="12.615474724692"><ele>698.6666666666667</ele><time>2026-04-26T09:30:38.991Z</time></trkpt><trkpt lat="43.388879788852215" lon="12.615595031671122"><ele>700.3333333333334</ele><time>2026-04-26T09:30:39.991Z</time></trkpt><trkpt lat="43.38906359236889" lon="12.615687065015422"><ele>702.0</ele><time>2026-04-26T09:30:40.991Z</time></trkpt><trkpt lat="43.389265571235555" lon="12.615756789136224"><ele>702.0</ele><time>2026-04-26T09:30:41.991Z</time></trkpt><trkpt lat="43.38948532448052" lon="12.6158071128745"><ele>702.0</ele><time>2026-04-26T09:30:42.991Z</time></trkpt><trkpt lat="43.38969328905921" lon="12.615851373836499"><ele>702.0</ele><time>2026-04-26T09:30:43.991Z</time></trkpt><trkpt lat="43.3898716951852" lon="12.61588893946159"><ele>701.5</ele><time>2026-04-26T09:30:44.991Z</time></trkpt><trkpt lat="43.390014446417354" lon="12.615901635450658"><ele>701.0</ele><time>2026-04-26T09:30:45.991Z</time></trkpt><trkpt lat="43.390132750886416" lon="12.615892436518266"><ele>700.5</ele><time>2026-04-26T09:30:46.991Z</time></trkpt><trkpt lat="43.390238409876645" lon="12.615844930953797"><ele>700.0</ele><time>2026-04-26T09:30:47.991Z</time></trkpt><trkpt lat="43.39031454576509" lon="12.615810215477183"><ele>700.0</ele><time>2026-04-26T09:30:48.991Z</time></trkpt><trkpt lat="43.39038826930218" lon="12.61578088023796"><ele>700.0</ele><time>2026-04-26T09:30:49.991Z</time></trkpt><trkpt lat="43.39046715934224" lon="12.615754060684315"><ele>700.0</ele><time>2026-04-26T09:30:50.991Z</time></trkpt><trkpt lat="43.39056539311291" lon="12.615713486547131"><ele>700.0</ele><time>2026-04-26T09:30:51.991Z</time></trkpt><trkpt lat="43.390669098631236" lon="12.615674188053019"><ele>700.0</ele><time>2026-04-26T09:30:52.991Z</time></trkpt><trkpt lat="43.39077399564252" lon="12.615645195680928"><ele>697.75</ele><time>2026-04-26T09:30:53.991Z</time></trkpt><trkpt lat="43.3908847201412" lon="12.615612170337215"><ele>695.5</ele><time>2026-04-26T09:30:54.991Z</time></trkpt><trkpt lat="43.390995424426585" lon="12.615577250897621"><ele>693.25</ele><time>2026-04-26T09:30:55.991Z</time></trkpt><trkpt lat="43.391101993010416" lon="12.615553364369317"><ele>691.0</ele><time>2026-04-26T09:30:56.991Z</time></trkpt><trkpt lat="43.39121839230526" lon="12.615554221104688"><ele>691.0</ele><time>2026-04-26T09:30:57.991Z</time></trkpt><trkpt lat="43.39133695980162" lon="12.61557691151225"><ele>691.0</ele><time>2026-04-26T09:30:58.991Z</time></trkpt><trkpt lat="43.39145395371612" lon="12.615607558266394"><ele>691.0</ele><time>2026-04-26T09:30:59.991Z</time></trkpt><trkpt lat="43.39155075049365" lon="12.615670976544513"><ele>691.0</ele><time>2026-04-26T09:31:00.991Z</time></trkpt><trkpt lat="43.391663699892" lon="12.615745046433233"><ele>691.0</ele><time>2026-04-26T09:31:01.991Z</time></trkpt><trkpt lat="43.391768274044935" lon="12.615854425066955"><ele>691.0</ele><time>2026-04-26T09:31:02.991Z</time></trkpt><trkpt lat="43.391884725256176" lon="12.615984445789852"><ele>691.0</ele><time>2026-04-26T09:31:03.991Z</time></trkpt><trkpt lat="43.392033065308105" lon="12.616152194333628"><ele>690.5</ele><time>2026-04-26T09:31:04.991Z</time></trkpt><trkpt lat="43.39221475980652" lon="12.616355030380884"><ele>690.0</ele><time>2026-04-26T09:31:05.991Z</time></trkpt><trkpt lat="43.392396619522835" lon="12.616558050909061"><ele>690.0</ele><time>2026-04-26T09:31:06.991Z</time></trkpt><trkpt lat="43.39255882907852" lon="12.616738234225856"><ele>690.0</ele><time>2026-04-26T09:31:07.991Z</time></trkpt><trkpt lat="43.392709264312714" lon="12.616913228088288"><ele>690.0</ele><time>2026-04-26T09:31:08.991Z</time></trkpt><trkpt lat="43.39285836047972" lon="12.617083455951478"><ele>691.6666666666666</ele><time>2026-04-26T09:31:09.992Z</time></trkpt><trkpt lat="43.39299048346119" lon="12.61726726220357"><ele>693.3333333333333</ele><time>2026-04-26T09:31:10.991Z</time></trkpt><trkpt lat="43.3930944377363" lon="12.617482835857524"><ele>695.0</ele><time>2026-04-26T09:31:11.991Z</time></trkpt><trkpt lat="43.39317448821343" lon="12.617729625238"><ele>693.3333333333333</ele><time>2026-04-26T09:31:12.991Z</time></trkpt><trkpt lat="43.393188489524114" lon="12.618015433633666"><ele>691.6666666666666</ele><time>2026-04-26T09:31:13.991Z</time></trkpt><trkpt lat="43.3932102892858" lon="12.618294807185721"><ele>690.0</ele><time>2026-04-26T09:31:14.991Z</time></trkpt><trkpt lat="43.39320409293095" lon="12.61854506815481"><ele>688.6666666666666</ele><time>2026-04-26T09:31:15.991Z</time></trkpt><trkpt lat="43.39317008608953" lon="12.618778135142463"><ele>687.3333333333333</ele><time>2026-04-26T09:31:16.991Z</time></trkpt><trkpt lat="43.393114903734876" lon="12.61901881379921"><ele>686.0</ele><time>2026-04-26T09:31:17.991Z</time></trkpt><trkpt lat="43.39302274230183" lon="12.619241340868866"><ele>683.6666666666666</ele><time>2026-04-26T09:31:18.991Z</time></trkpt><trkpt lat="43.39291605891475" lon="12.619490215000129"><ele>681.3333333333334</ele><time>2026-04-26T09:31:19.991Z</time></trkpt><trkpt lat="43.39279959151926" lon="12.619754851960145"><ele>679.0</ele><time>2026-04-26T09:31:20.991Z</time></trkpt><trkpt lat="43.39268100477281" lon="12.620027159364911"><ele>679.0</ele><time>2026-04-26T09:31:21.991Z</time></trkpt><trkpt lat="43.39255972188485" lon="12.620307178306902"><ele>679.0</ele><time>2026-04-26T09:31:22.991Z</time></trkpt><trkpt lat="43.39243901230497" lon="12.620585873561604"><ele>681.0</ele><time>2026-04-26T09:31:23.991Z</time></trkpt><trkpt lat="43.3923217688628" lon="12.620857768768595"><ele>683.0</ele><time>2026-04-26T09:31:24.991Z</time></trkpt><trkpt lat="43.39221946585189" lon="12.621095200687165"><ele>685.0</ele><time>2026-04-26T09:31:25.991Z</time></trkpt><trkpt lat="43.39212759322727" lon="12.621307469350176"><ele>679.0</ele><time>2026-04-26T09:31:26.991Z</time></trkpt><trkpt lat="43.392054700002774" lon="12.621518427145254"><ele>673.0</ele><time>2026-04-26T09:31:27.991Z</time></trkpt><trkpt lat="43.39200278618696" lon="12.621707305504664"><ele>667.0</ele><time>2026-04-26T09:31:28.991Z</time></trkpt><trkpt lat="43.39198881383462" lon="12.621916346183724"><ele>668.5</ele><time>2026-04-26T09:31:29.991Z</time></trkpt><trkpt lat="43.392009254865684" lon="12.622107615817642"><ele>670.0</ele><time>2026-04-26T09:31:30.991Z</time></trkpt><trkpt lat="43.39207334822493" lon="12.622296589584524"><ele>671.5</ele><time>2026-04-26T09:31:31.991Z</time></trkpt><trkpt lat="43.39215181643972" lon="12.622476872928347"><ele>673.0</ele><time>2026-04-26T09:31:32.991Z</time></trkpt><trkpt lat="43.39225625260132" lon="12.622642974152345"><ele>666.6666666666667</ele><time>2026-04-26T09:31:33.991Z</time></trkpt><trkpt lat="43.392372255232544" lon="12.62283471075107"><ele>660.3333333333334</ele><time>2026-04-26T09:31:34.991Z</time></trkpt><trkpt lat="43.39252835696596" lon="12.6230136128697"><ele>654.0</ele><time>2026-04-26T09:31:35.991Z</time></trkpt><trkpt lat="43.39266891223739" lon="12.623192577532171"><ele>654.0</ele><time>2026-04-26T09:31:36.991Z</time></trkpt><trkpt lat="43.39278321230154" lon="12.623370698909174"><ele>654.0</ele><time>2026-04-26T09:31:37.991Z</time></trkpt><trkpt lat="43.392875106185066" lon="12.623551193619456"><ele>654.0</ele><time>2026-04-26T09:31:38.991Z</time></trkpt><trkpt lat="43.392937535150324" lon="12.623740070601327"><ele>654.3333333333334</ele><time>2026-04-26T09:31:39.991Z</time></trkpt><trkpt lat="43.393022581100944" lon="12.623903521637727"><ele>654.6666666666667</ele><time>2026-04-26T09:31:40.991Z</time></trkpt><trkpt lat="43.39307300483611" lon="12.624168488273263"><ele>655.0</ele><time>2026-04-26T09:31:41.991Z</time></trkpt><trkpt lat="43.39315295976185" lon="12.624411135833158"><ele>653.3333333333334</ele><time>2026-04-26T09:31:42.991Z</time></trkpt><trkpt lat="43.393169386875975" lon="12.624667427995144"><ele>651.6666666666666</ele><time>2026-04-26T09:31:43.991Z</time></trkpt><trkpt lat="43.39315440691384" lon="12.624916624272963"><ele>650.0</ele><time>2026-04-26T09:31:44.991Z</time></trkpt><trkpt lat="43.393142482107734" lon="12.62519365467859"><ele>647.3333333333333</ele><time>2026-04-26T09:31:45.991Z</time></trkpt><trkpt lat="43.39313730254828" lon="12.625454366907128"><ele>644.6666666666666</ele><time>2026-04-26T09:31:46.991Z</time></trkpt><trkpt lat="43.39313554684963" lon="12.625715647119222"><ele>642.0</ele><time>2026-04-26T09:31:47.991Z</time></trkpt><trkpt lat="43.39313787666482" lon="12.625981307983642"><ele>639.6666666666666</ele><time>2026-04-26T09:31:48.991Z</time></trkpt><trkpt lat="43.393146143339855" lon="12.62625784587467"><ele>637.3333333333333</ele><time>2026-04-26T09:31:49.991Z</time></trkpt><trkpt lat="43.39316228075439" lon="12.626556519886678"><ele>635.0</ele><time>2026-04-26T09:31:50.991Z</time></trkpt><trkpt lat="43.39317797174905" lon="12.626855538095029"><ele>635.0</ele><time>2026-04-26T09:31:51.991Z</time></trkpt><trkpt lat="43.39319352024573" lon="12.627150561534854"><ele>635.0</ele><time>2026-04-26T09:31:52.991Z</time></trkpt><trkpt lat="43.39320865833431" lon="12.627429968331361"><ele>635.0</ele><time>2026-04-26T09:31:53.991Z</time></trkpt><trkpt lat="43.39321621727251" lon="12.627702845358655"><ele>636.6666666666666</ele><time>2026-04-26T09:31:54.991Z</time></trkpt><trkpt lat="43.393227090957815" lon="12.627969613164344"><ele>638.3333333333334</ele><time>2026-04-26T09:31:55.991Z</time></trkpt><trkpt lat="43.39323642178856" lon="12.628226800140375"><ele>640.0</ele><time>2026-04-26T09:31:56.991Z</time></trkpt><trkpt lat="43.39322240877248" lon="12.628486329528169"><ele>640.0</ele><time>2026-04-26T09:31:57.991Z</time></trkpt><trkpt lat="43.393187599616354" lon="12.628732671209494"><ele>640.0</ele><time>2026-04-26T09:31:58.991Z</time></trkpt><trkpt lat="43.39311976346121" lon="12.628992657892363"><ele>640.0</ele><time>2026-04-26T09:31:59.991Z</time></trkpt><trkpt lat="43.39303808522058" lon="12.629247842439904"><ele>638.3333333333334</ele><time>2026-04-26T09:32:00.991Z</time></trkpt><trkpt lat="43.392948996398346" lon="12.629511218662627"><ele>636.6666666666666</ele><time>2026-04-26T09:32:01.991Z</time></trkpt><trkpt lat="43.39286531018197" lon="12.629777023418264"><ele>635.0</ele><time>2026-04-26T09:32:02.991Z</time></trkpt><trkpt lat="43.39278238734288" lon="12.63003350000914"><ele>635.0</ele><time>2026-04-26T09:32:03.991Z</time></trkpt><trkpt lat="43.39270776427343" lon="12.630280325236543"><ele>635.0</ele><time>2026-04-26T09:32:04.991Z</time></trkpt><trkpt lat="43.39263501652497" lon="12.630528545599487"><ele>635.0</ele><time>2026-04-26T09:32:05.99Z</time></trkpt><trkpt lat="43.392559890154715" lon="12.630796064447132"><ele>634.3333333333333</ele><time>2026-04-26T09:32:06.99Z</time></trkpt><trkpt lat="43.39248493609058" lon="12.631073234073925"><ele>633.6666666666666</ele><time>2026-04-26T09:32:07.99Z</time></trkpt><trkpt lat="43.392405058617356" lon="12.631363376415344"><ele>633.0</ele><time>2026-04-26T09:32:08.99Z</time></trkpt><trkpt lat="43.392322597614665" lon="12.63165558492429"><ele>632.3333333333334</ele><time>2026-04-26T09:32:09.99Z</time></trkpt><trkpt lat="43.392239983525435" lon="12.631937840110009"><ele>631.6666666666667</ele><time>2026-04-26T09:32:10.99Z</time></trkpt><trkpt lat="43.39215511391809" lon="12.632207937540823"><ele>631.0</ele><time>2026-04-26T09:32:11.99Z</time></trkpt><trkpt lat="43.39207264665696" lon="12.632480515573262"><ele>631.0</ele><time>2026-04-26T09:32:12.99Z</time></trkpt><trkpt lat="43.39199182546954" lon="12.632753170781704"><ele>631.0</ele><time>2026-04-26T09:32:13.99Z</time></trkpt><trkpt lat="43.39191357153227" lon="12.633021485895476"><ele>631.0</ele><time>2026-04-26T09:32:14.99Z</time></trkpt><trkpt lat="43.391840383742355" lon="12.633271747505836"><ele>631.6666666666667</ele><time>2026-04-26T09:32:15.99Z</time></trkpt><trkpt lat="43.391782750342045" lon="12.633501157573978"><ele>632.3333333333334</ele><time>2026-04-26T09:32:16.99Z</time></trkpt><trkpt lat="43.391751845307894" lon="12.63369280357243"><ele>633.0</ele><time>2026-04-26T09:32:17.99Z</time></trkpt><trkpt lat="43.391752241545056" lon="12.633881934351537"><ele>633.0</ele><time>2026-04-26T09:32:18.99Z</time></trkpt><trkpt lat="43.39178817348157" lon="12.634103323298234"><ele>633.0</ele><time>2026-04-26T09:32:19.99Z</time></trkpt><trkpt lat="43.39183574401591" lon="12.634353922799763"><ele>633.0</ele><time>2026-04-26T09:32:20.99Z</time></trkpt><trkpt lat="43.391887541898605" lon="12.63461195986156"><ele>629.0</ele><time>2026-04-26T09:32:21.99Z</time></trkpt><trkpt lat="43.3919529126548" lon="12.634912763877955"><ele>625.0</ele><time>2026-04-26T09:32:22.99Z</time></trkpt><trkpt lat="43.392012162193986" lon="12.635211917491999"><ele>623.0</ele><time>2026-04-26T09:32:23.99Z</time></trkpt><trkpt lat="43.39208353798636" lon="12.63553657938755"><ele>621.0</ele><time>2026-04-26T09:32:24.99Z</time></trkpt><trkpt lat="43.392142381541355" lon="12.63584945778243"><ele>625.0</ele><time>2026-04-26T09:32:25.99Z</time></trkpt><trkpt lat="43.3922144082867" lon="12.636170030192233"><ele>629.0</ele><time>2026-04-26T09:32:26.99Z</time></trkpt><trkpt lat="43.39229552737569" lon="12.636507761565548"><ele>629.0</ele><time>2026-04-26T09:32:27.99Z</time></trkpt><trkpt lat="43.39239423988889" lon="12.636848996097584"><ele>629.0</ele><time>2026-04-26T09:32:28.99Z</time></trkpt><trkpt lat="43.39250023658022" lon="12.637185472067836"><ele>623.5</ele><time>2026-04-26T09:32:29.99Z</time></trkpt><trkpt lat="43.392617538205265" lon="12.637516114878213"><ele>618.0</ele><time>2026-04-26T09:32:30.99Z</time></trkpt><trkpt lat="43.392707304475586" lon="12.63780577702481"><ele>617.6666666666666</ele><time>2026-04-26T09:32:31.99Z</time></trkpt><trkpt lat="43.39279565037812" lon="12.638064848004642"><ele>617.3333333333333</ele><time>2026-04-26T09:32:32.99Z</time></trkpt><trkpt lat="43.39288871975585" lon="12.638285454443412"><ele>617.0</ele><time>2026-04-26T09:32:33.99Z</time></trkpt><trkpt lat="43.39299908785992" lon="12.638487787731709"><ele>619.3333333333333</ele><time>2026-04-26T09:32:34.99Z</time></trkpt><trkpt lat="43.39315156612642" lon="12.638671407155625"><ele>621.6666666666666</ele><time>2026-04-26T09:32:35.99Z</time></trkpt><trkpt lat="43.39330930940887" lon="12.638874274969591"><ele>624.0</ele><time>2026-04-26T09:32:36.99Z</time></trkpt><trkpt lat="43.393495592573146" lon="12.639079183823268"><ele>624.0</ele><time>2026-04-26T09:32:37.99Z</time></trkpt><trkpt lat="43.39367513578194" lon="12.639310594006481"><ele>624.0</ele><time>2026-04-26T09:32:38.99Z</time></trkpt><trkpt lat="43.39385951950831" lon="12.63956877984013"><ele>622.5</ele><time>2026-04-26T09:32:39.99Z</time></trkpt><trkpt lat="43.39407163166321" lon="12.639841877329088"><ele>621.0</ele><time>2026-04-26T09:32:40.99Z</time></trkpt><trkpt lat="43.394292954515734" lon="12.640129609682184"><ele>621.5</ele><time>2026-04-26T09:32:41.99Z</time></trkpt><trkpt lat="43.39451847135307" lon="12.640427939246193"><ele>622.0</ele><time>2026-04-26T09:32:42.99Z</time></trkpt><trkpt lat="43.3947421563936" lon="12.640719212226012"><ele>622.0</ele><time>2026-04-26T09:32:43.99Z</time></trkpt><trkpt lat="43.39495194743372" lon="12.64098910518303"><ele>622.0</ele><time>2026-04-26T09:32:44.99Z</time></trkpt><trkpt lat="43.39514545328667" lon="12.641246536167028"><ele>618.5</ele><time>2026-04-26T09:32:45.99Z</time></trkpt><trkpt lat="43.395319792061564" lon="12.641476624056773"><ele>615.0</ele><time>2026-04-26T09:32:46.99Z</time></trkpt><trkpt lat="43.39549357936953" lon="12.641708567866377"><ele>615.5</ele><time>2026-04-26T09:32:47.99Z</time></trkpt><trkpt lat="43.3956821473967" lon="12.641952043301181"><ele>616.0</ele><time>2026-04-26T09:32:48.99Z</time></trkpt><trkpt lat="43.39586496010339" lon="12.642184106314707"><ele>616.0</ele><time>2026-04-26T09:32:49.99Z</time></trkpt><trkpt lat="43.39602492134046" lon="12.64239965195066"><ele>616.0</ele><time>2026-04-26T09:32:50.99Z</time></trkpt><trkpt lat="43.39616854921586" lon="12.642605626916179"><ele>616.0</ele><time>2026-04-26T09:32:51.99Z</time></trkpt><trkpt lat="43.39630571273767" lon="12.64283145067885"><ele>620.5</ele><time>2026-04-26T09:32:52.99Z</time></trkpt><trkpt lat="43.39644235576356" lon="12.643069793022779"><ele>625.0</ele><time>2026-04-26T09:32:53.99Z</time></trkpt><trkpt lat="43.396586014216574" lon="12.643315887677872"><ele>625.0</ele><time>2026-04-26T09:32:54.99Z</time></trkpt><trkpt lat="43.396709152860225" lon="12.643550575602692"><ele>625.0</ele><time>2026-04-26T09:32:55.99Z</time></trkpt><trkpt lat="43.39683762754103" lon="12.643784178263626"><ele>625.0</ele><time>2026-04-26T09:32:56.99Z</time></trkpt><trkpt lat="43.39695469700868" lon="12.644012620813342"><ele>625.0</ele><time>2026-04-26T09:32:57.99Z</time></trkpt><trkpt lat="43.397017029521166" lon="12.64426614215621"><ele>625.0</ele><time>2026-04-26T09:32:58.99Z</time></trkpt><trkpt lat="43.397106510354256" lon="12.644491068955341"><ele>625.0</ele><time>2026-04-26T09:32:59.99Z</time></trkpt><trkpt lat="43.39718730987987" lon="12.644697212606546"><ele>625.0</ele><time>2026-04-26T09:33:00.99Z</time></trkpt><trkpt lat="43.39725829356711" lon="12.64488103627428"><ele>625.0</ele><time>2026-04-26T09:33:01.99Z</time></trkpt><trkpt lat="43.39732623246777" lon="12.64505697497565"><ele>625.0</ele><time>2026-04-26T09:33:02.99Z</time></trkpt><trkpt lat="43.39739489035254" lon="12.645234775595902"><ele>625.0</ele><time>2026-04-26T09:33:03.99Z</time></trkpt><trkpt lat="43.39746563458179" lon="12.645417743415216"><ele>623.5</ele><time>2026-04-26T09:33:04.99Z</time></trkpt><trkpt lat="43.39753592656784" lon="12.645599476963563"><ele>622.0</ele><time>2026-04-26T09:33:05.99Z</time></trkpt><trkpt lat="43.397603316681355" lon="12.64577220585327"><ele>620.5</ele><time>2026-04-26T09:33:06.99Z</time></trkpt><trkpt lat="43.3976661057494" lon="12.645930689483695"><ele>619.0</ele><time>2026-04-26T09:33:07.99Z</time></trkpt><trkpt lat="43.39772766507522" lon="12.646082652620475"><ele>620.25</ele><time>2026-04-26T09:33:08.99Z</time></trkpt><trkpt lat="43.39780600748343" lon="12.64622645173909"><ele>621.5</ele><time>2026-04-26T09:33:09.99Z</time></trkpt><trkpt lat="43.397886547049715" lon="12.64638442069511"><ele>622.75</ele><time>2026-04-26T09:33:10.989Z</time></trkpt><trkpt lat="43.39797979402237" lon="12.646524659813668"><ele>624.0</ele><time>2026-04-26T09:33:11.989Z</time></trkpt><trkpt lat="43.398079214537034" lon="12.646643028314674"><ele>624.0</ele><time>2026-04-26T09:33:12.989Z</time></trkpt><trkpt lat="43.398156681347174" lon="12.646776410083707"><ele>624.0</ele><time>2026-04-26T09:33:13.989Z</time></trkpt><trkpt lat="43.398218746786405" lon="12.646924750265125"><ele>624.0</ele><time>2026-04-26T09:33:14.989Z</time></trkpt><trkpt lat="43.39828342566032" lon="12.647079575549864"><ele>624.0</ele><time>2026-04-26T09:33:15.99Z</time></trkpt><trkpt lat="43.39835017375999" lon="12.647239715526327"><ele>623.3333333333334</ele><time>2026-04-26T09:33:16.991Z</time></trkpt><trkpt lat="43.39842296116191" lon="12.647420095271652"><ele>622.6666666666667</ele><time>2026-04-26T09:33:17.991Z</time></trkpt><trkpt lat="43.39850428325872" lon="12.647624979370175"><ele>622.0</ele><time>2026-04-26T09:33:18.99Z</time></trkpt><trkpt lat="43.39859598835569" lon="12.647815203392017"><ele>620.0</ele><time>2026-04-26T09:33:19.991Z</time></trkpt><trkpt lat="43.398654108875206" lon="12.64805511321783"><ele>618.0</ele><time>2026-04-26T09:33:20.991Z</time></trkpt><trkpt lat="43.39867859621573" lon="12.64831468749734"><ele>616.0</ele><time>2026-04-26T09:33:21.99Z</time></trkpt><trkpt lat="43.39869924871077" lon="12.648583763644321"><ele>617.3333333333334</ele><time>2026-04-26T09:33:22.991Z</time></trkpt><trkpt lat="43.39874970534072" lon="12.648824900079699"><ele>618.6666666666666</ele><time>2026-04-26T09:33:23.991Z</time></trkpt><trkpt lat="43.39879730298981" lon="12.649069776333894"><ele>620.0</ele><time>2026-04-26T09:33:24.99Z</time></trkpt><trkpt lat="43.39888254068565" lon="12.649306830143239"><ele>614.6666666666666</ele><time>2026-04-26T09:33:25.99Z</time></trkpt><trkpt lat="43.39899920403878" lon="12.649508948568148"><ele>609.3333333333334</ele><time>2026-04-26T09:33:26.99Z</time></trkpt><trkpt lat="43.39915265564331" lon="12.649692821560878"><ele>604.0</ele><time>2026-04-26T09:33:27.991Z</time></trkpt><trkpt lat="43.39932997046381" lon="12.649879221722825"><ele>604.0</ele><time>2026-04-26T09:33:28.99Z</time></trkpt><trkpt lat="43.399510080157825" lon="12.650092611704864"><ele>604.0</ele><time>2026-04-26T09:33:29.99Z</time></trkpt><trkpt lat="43.39970186789916" lon="12.65030935294883"><ele>602.5</ele><time>2026-04-26T09:33:30.99Z</time></trkpt><trkpt lat="43.399905813722306" lon="12.650504144021209"><ele>601.0</ele><time>2026-04-26T09:33:31.99Z</time></trkpt><trkpt lat="43.40012234178123" lon="12.65068771507955"><ele>601.0</ele><time>2026-04-26T09:33:32.99Z</time></trkpt><trkpt lat="43.40033953477457" lon="12.650861966825305"><ele>601.0</ele><time>2026-04-26T09:33:33.99Z</time></trkpt><trkpt lat="43.400543814361214" lon="12.65103089842924"><ele>599.0</ele><time>2026-04-26T09:33:34.99Z</time></trkpt><trkpt lat="43.40074220885144" lon="12.651191879785413"><ele>597.0</ele><time>2026-04-26T09:33:35.99Z</time></trkpt><trkpt lat="43.40088519479928" lon="12.651362353584512"><ele>595.0</ele><time>2026-04-26T09:33:36.99Z</time></trkpt><trkpt lat="43.40102275232716" lon="12.651544884201414"><ele>595.0</ele><time>2026-04-26T09:33:37.99Z</time></trkpt><trkpt lat="43.401155079021976" lon="12.651746298096633"><ele>595.0</ele><time>2026-04-26T09:33:38.99Z</time></trkpt><trkpt lat="43.40127677719936" lon="12.651953106685244"><ele>595.0</ele><time>2026-04-26T09:33:39.99Z</time></trkpt><trkpt lat="43.40138502383449" lon="12.652182193895978"><ele>594.3333333333334</ele><time>2026-04-26T09:33:40.99Z</time></trkpt><trkpt lat="43.40148763932996" lon="12.65243392197193"><ele>593.6666666666666</ele><time>2026-04-26T09:33:41.99Z</time></trkpt><trkpt lat="43.40157806069862" lon="12.652694946923543"><ele>593.0</ele><time>2026-04-26T09:33:42.99Z</time></trkpt><trkpt lat="43.40167453424767" lon="12.652952498987892"><ele>593.0</ele><time>2026-04-26T09:33:43.99Z</time></trkpt><trkpt lat="43.40176103880165" lon="12.653197341441661"><ele>593.0</ele><time>2026-04-26T09:33:44.99Z</time></trkpt><trkpt lat="43.40184719859481" lon="12.65342116719161"><ele>593.0</ele><time>2026-04-26T09:33:45.99Z</time></trkpt><trkpt lat="43.401933294008124" lon="12.653639539643516"><ele>591.3333333333333</ele><time>2026-04-26T09:33:46.99Z</time></trkpt><trkpt lat="43.40200682929478" lon="12.653845681714254"><ele>589.6666666666666</ele><time>2026-04-26T09:33:47.99Z</time></trkpt><trkpt lat="43.402091821822545" lon="12.654061714371194"><ele>588.0</ele><time>2026-04-26T09:33:48.99Z</time></trkpt><trkpt lat="43.402176953192175" lon="12.654252735800585"><ele>588.5</ele><time>2026-04-26T09:33:49.99Z</time></trkpt><trkpt lat="43.402257997637655" lon="12.65441734779266"><ele>589.0</ele><time>2026-04-26T09:33:50.99Z</time></trkpt><trkpt lat="43.40233951977192" lon="12.654581818434371"><ele>589.5</ele><time>2026-04-26T09:33:51.99Z</time></trkpt><trkpt lat="43.402414823438434" lon="12.654722759167775"><ele>590.0</ele><time>2026-04-26T09:33:52.99Z</time></trkpt><trkpt lat="43.40251133383195" lon="12.654871390774368"><ele>590.0</ele><time>2026-04-26T09:33:53.99Z</time></trkpt><trkpt lat="43.402599632502685" lon="12.655036668541"><ele>590.0</ele><time>2026-04-26T09:33:54.99Z</time></trkpt><trkpt lat="43.40270328880488" lon="12.655170580968868"><ele>590.0</ele><time>2026-04-26T09:33:55.99Z</time></trkpt><trkpt lat="43.40276200263277" lon="12.65531150649917"><ele>590.0</ele><time>2026-04-26T09:33:56.99Z</time></trkpt><trkpt lat="43.40283100095283" lon="12.655461061114659"><ele>590.25</ele><time>2026-04-26T09:33:57.99Z</time></trkpt><trkpt lat="43.40287621122201" lon="12.655625275242674"><ele>590.5</ele><time>2026-04-26T09:33:58.99Z</time></trkpt><trkpt lat="43.402877245294654" lon="12.655812413660716"><ele>590.75</ele><time>2026-04-26T09:33:59.99Z</time></trkpt><trkpt lat="43.40282464210491" lon="12.656005734531444"><ele>591.0</ele><time>2026-04-26T09:34:00.99Z</time></trkpt><trkpt lat="43.40275334793465" lon="12.656249523566293"><ele>591.0</ele><time>2026-04-26T09:34:01.99Z</time></trkpt><trkpt lat="43.402677287226275" lon="12.656515084602095"><ele>591.0</ele><time>2026-04-26T09:34:02.99Z</time></trkpt><trkpt lat="43.40262608186813" lon="12.656792858909585"><ele>591.0</ele><time>2026-04-26T09:34:03.99Z</time></trkpt><trkpt lat="43.402607534515184" lon="12.657070850209147"><ele>590.3333333333334</ele><time>2026-04-26T09:34:04.99Z</time></trkpt><trkpt lat="43.402632593932594" lon="12.657336734018687"><ele>589.6666666666667</ele><time>2026-04-26T09:34:05.99Z</time></trkpt><trkpt lat="43.40269083056832" lon="12.657600583587334"><ele>589.0</ele><time>2026-04-26T09:34:06.99Z</time></trkpt><trkpt lat="43.40271098289532" lon="12.657839476285503"><ele>589.25</ele><time>2026-04-26T09:34:07.99Z</time></trkpt><trkpt lat="43.40270251658687" lon="12.658059660095613"><ele>589.5</ele><time>2026-04-26T09:34:08.989Z</time></trkpt><trkpt lat="43.40269148861376" lon="12.658263910147365"><ele>589.75</ele><time>2026-04-26T09:34:09.989Z</time></trkpt><trkpt lat="43.402680979111175" lon="12.658452795192472"><ele>590.0</ele><time>2026-04-26T09:34:10.989Z</time></trkpt><trkpt lat="43.40266704311259" lon="12.658674580508869"><ele>590.0</ele><time>2026-04-26T09:34:11.989Z</time></trkpt><trkpt lat="43.40265727506905" lon="12.65891638771367"><ele>590.0</ele><time>2026-04-26T09:34:12.989Z</time></trkpt><trkpt lat="43.40264648807617" lon="12.659166722346653"><ele>590.0</ele><time>2026-04-26T09:34:13.989Z</time></trkpt><trkpt lat="43.402635992803695" lon="12.659392018652522"><ele>589.75</ele><time>2026-04-26T09:34:14.989Z</time></trkpt><trkpt lat="43.4026219382001" lon="12.659583762196847"><ele>589.5</ele><time>2026-04-26T09:34:15.989Z</time></trkpt><trkpt lat="43.402609211196186" lon="12.659746254911287"><ele>589.25</ele><time>2026-04-26T09:34:16.989Z</time></trkpt><trkpt lat="43.40260130120893" lon="12.659895508490457"><ele>589.0</ele><time>2026-04-26T09:34:17.989Z</time></trkpt><trkpt lat="43.40257941532295" lon="12.660029290595567"><ele>589.0</ele><time>2026-04-26T09:34:18.989Z</time></trkpt><trkpt lat="43.40257818044425" lon="12.66017687817856"><ele>589.0</ele><time>2026-04-26T09:34:19.989Z</time></trkpt><trkpt lat="43.402571339767434" lon="12.660332097714063"><ele>589.0</ele><time>2026-04-26T09:34:20.989Z</time></trkpt><trkpt lat="43.40256570397385" lon="12.660486598167134"><ele>589.0</ele><time>2026-04-26T09:34:21.989Z</time></trkpt><trkpt lat="43.40255807583046" lon="12.660631711424447"><ele>589.0</ele><time>2026-04-26T09:34:22.989Z</time></trkpt><trkpt lat="43.402536974511065" lon="12.660779500588779"><ele>588.75</ele><time>2026-04-26T09:34:23.989Z</time></trkpt><trkpt lat="43.40252688882448" lon="12.660951147390602"><ele>588.5</ele><time>2026-04-26T09:34:24.989Z</time></trkpt><trkpt lat="43.40250946579514" lon="12.661155315715593"><ele>588.25</ele><time>2026-04-26T09:34:25.989Z</time></trkpt><trkpt lat="43.402501360424615" lon="12.661378313691305"><ele>588.0</ele><time>2026-04-26T09:34:26.989Z</time></trkpt><trkpt lat="43.40249229148856" lon="12.661611801601357"><ele>588.0</ele><time>2026-04-26T09:34:27.989Z</time></trkpt><trkpt lat="43.402482001075136" lon="12.661859015299266"><ele>588.0</ele><time>2026-04-26T09:34:28.989Z</time></trkpt><trkpt lat="43.402466806202426" lon="12.662113225853721"><ele>588.0</ele><time>2026-04-26T09:34:29.989Z</time></trkpt><trkpt lat="43.40245586988347" lon="12.662360857800927"><ele>587.3333333333334</ele><time>2026-04-26T09:34:30.989Z</time></trkpt><trkpt lat="43.40244214998798" lon="12.662601870030421"><ele>586.6666666666667</ele><time>2026-04-26T09:34:31.989Z</time></trkpt><trkpt lat="43.402432953718986" lon="12.662839876077948"><ele>586.0</ele><time>2026-04-26T09:34:32.989Z</time></trkpt><trkpt lat="43.4024260726499" lon="12.66304857965407"><ele>585.6666666666667</ele><time>2026-04-26T09:34:33.989Z</time></trkpt><trkpt lat="43.40242712152915" lon="12.663259292607664"><ele>585.3333333333334</ele><time>2026-04-26T09:34:34.989Z</time></trkpt><trkpt lat="43.40243009866846" lon="12.663463329205435"><ele>585.0</ele><time>2026-04-26T09:34:35.989Z</time></trkpt><trkpt lat="43.40243802516583" lon="12.66367326094122"><ele>585.6666666666666</ele><time>2026-04-26T09:34:36.989Z</time></trkpt><trkpt lat="43.40246076469736" lon="12.663898699435824"><ele>586.3333333333333</ele><time>2026-04-26T09:34:37.989Z</time></trkpt><trkpt lat="43.4024887688183" lon="12.664105496564165"><ele>587.0</ele><time>2026-04-26T09:34:38.989Z</time></trkpt><trkpt lat="43.40250608239537" lon="12.664298227331674"><ele>586.75</ele><time>2026-04-26T09:34:39.989Z</time></trkpt><trkpt lat="43.40252329365218" lon="12.664467488888954"><ele>586.5</ele><time>2026-04-26T09:34:40.989Z</time></trkpt><trkpt lat="43.402538469907704" lon="12.66465185914868"><ele>586.25</ele><time>2026-04-26T09:34:41.989Z</time></trkpt><trkpt lat="43.4025605716912" lon="12.664865964397366"><ele>586.0</ele><time>2026-04-26T09:34:42.989Z</time></trkpt><trkpt lat="43.40259960095997" lon="12.665104583569478"><ele>585.3333333333334</ele><time>2026-04-26T09:34:43.989Z</time></trkpt><trkpt lat="43.40262840744521" lon="12.66535655305121"><ele>584.6666666666666</ele><time>2026-04-26T09:34:44.989Z</time></trkpt><trkpt lat="43.40265836620021" lon="12.665592469449379"><ele>584.0</ele><time>2026-04-26T09:34:45.989Z</time></trkpt><trkpt lat="43.40265974498949" lon="12.665796716539406"><ele>584.0</ele><time>2026-04-26T09:34:46.989Z</time></trkpt><trkpt lat="43.40269234610949" lon="12.665945570569058"><ele>584.0</ele><time>2026-04-26T09:34:47.989Z</time></trkpt><trkpt lat="43.402729303500884" lon="12.666080010624961"><ele>584.0</ele><time>2026-04-26T09:34:48.989Z</time></trkpt><trkpt lat="43.40275410790407" lon="12.666181973838684"><ele>584.0</ele><time>2026-04-26T09:34:49.989Z</time></trkpt><trkpt lat="43.40279062076752" lon="12.666285692735702"><ele>584.0</ele><time>2026-04-26T09:34:51.989Z</time></trkpt><trkpt lat="43.402886167408546" lon="12.66625258260019"><ele>584.0</ele><time>2026-04-26T09:34:55.989Z</time></trkpt><trkpt lat="43.40294934616275" lon="12.66621812644"><ele>584.0</ele><time>2026-04-26T09:36:26.989Z</time></trkpt><trkpt lat="43.40298192942506" lon="12.666102418040202"><ele>584.0</ele><time>2026-04-26T09:36:28.989Z</time></trkpt><trkpt lat="43.402977561147516" lon="12.665942952744588"><ele>584.0</ele><time>2026-04-26T09:36:30.989Z</time></trkpt><trkpt lat="43.40297970783269" lon="12.665848370096136"><ele>584.0</ele><time>2026-04-26T09:36:31.989Z</time></trkpt><trkpt lat="43.40298297183668" lon="12.66574614559094"><ele>584.0</ele><time>2026-04-26T09:36:32.989Z</time></trkpt><trkpt lat="43.403007018766864" lon="12.665646886181822"><ele>586.8</ele><time>2026-04-26T09:36:33.989Z</time></trkpt><trkpt lat="43.40303322329335" lon="12.665538927828601"><ele>589.5999999999999</ele><time>2026-04-26T09:36:34.989Z</time></trkpt><trkpt lat="43.40307140579647" lon="12.66541750374041"><ele>592.4</ele><time>2026-04-26T09:36:35.989Z</time></trkpt><trkpt lat="43.403107683897375" lon="12.665311585476138"><ele>595.1999999999999</ele><time>2026-04-26T09:36:36.989Z</time></trkpt><trkpt lat="43.40314890468073" lon="12.665199822309546"><ele>598.0</ele><time>2026-04-26T09:36:37.989Z</time></trkpt><trkpt lat="43.403195142825595" lon="12.665073617899084"><ele>598.5</ele><time>2026-04-26T09:36:38.989Z</time></trkpt><trkpt lat="43.40324570549755" lon="12.66494429189605"><ele>599.0</ele><time>2026-04-26T09:36:39.989Z</time></trkpt><trkpt lat="43.40330829365859" lon="12.664804604989694"><ele>599.5</ele><time>2026-04-26T09:36:40.989Z</time></trkpt><trkpt lat="43.40338637654892" lon="12.664682460288125"><ele>600.0</ele><time>2026-04-26T09:36:41.989Z</time></trkpt><trkpt lat="43.40348088511115" lon="12.664586109504278"><ele>600.0</ele><time>2026-04-26T09:36:42.989Z</time></trkpt><trkpt lat="43.4035777295865" lon="12.664501214577918"><ele>600.0</ele><time>2026-04-26T09:36:43.989Z</time></trkpt><trkpt lat="43.40369083974431" lon="12.664428770906998"><ele>600.0</ele><time>2026-04-26T09:36:44.989Z</time></trkpt><trkpt lat="43.40380892112257" lon="12.6643685081608"><ele>600.0</ele><time>2026-04-26T09:36:45.989Z</time></trkpt><trkpt lat="43.403935125885035" lon="12.664328528851593"><ele>600.0</ele><time>2026-04-26T09:36:46.989Z</time></trkpt><trkpt lat="43.40406618281677" lon="12.664288521960398"><ele>600.0</ele><time>2026-04-26T09:36:47.988Z</time></trkpt><trkpt lat="43.40420046737656" lon="12.664236723362539"><ele>600.0</ele><time>2026-04-26T09:36:48.988Z</time></trkpt><trkpt lat="43.4043315294049" lon="12.6641634950128"><ele>600.0</ele><time>2026-04-26T09:36:49.988Z</time></trkpt><trkpt lat="43.40445958390834" lon="12.664078014896374"><ele>600.0</ele><time>2026-04-26T09:36:50.988Z</time></trkpt><trkpt lat="43.40457838601252" lon="12.66396399428297"><ele>600.0</ele><time>2026-04-26T09:36:51.988Z</time></trkpt><trkpt lat="43.40471328161345" lon="12.66387565884325"><ele>600.0</ele><time>2026-04-26T09:36:52.988Z</time></trkpt><trkpt lat="43.40483908648378" lon="12.663751505384726"><ele>600.0</ele><time>2026-04-26T09:36:53.988Z</time></trkpt><trkpt lat="43.404972508860396" lon="12.66364411805176"><ele>600.0</ele><time>2026-04-26T09:36:54.988Z</time></trkpt><trkpt lat="43.405118884750166" lon="12.663532624141727"><ele>600.0</ele><time>2026-04-26T09:36:55.988Z</time></trkpt><trkpt lat="43.40526647888639" lon="12.663410051569908"><ele>600.0</ele><time>2026-04-26T09:36:56.988Z</time></trkpt><trkpt lat="43.405424783641024" lon="12.663277204926967"><ele>605.3333333333334</ele><time>2026-04-26T09:36:57.988Z</time></trkpt><trkpt lat="43.405582451224234" lon="12.663150806476423"><ele>610.6666666666667</ele><time>2026-04-26T09:36:58.988Z</time></trkpt><trkpt lat="43.40574302928484" lon="12.663025428282715"><ele>616.0</ele><time>2026-04-26T09:36:59.988Z</time></trkpt><trkpt lat="43.40590453531501" lon="12.662901832842076"><ele>615.6666666666667</ele><time>2026-04-26T09:37:00.988Z</time></trkpt><trkpt lat="43.406058695420235" lon="12.662774837631176"><ele>615.3333333333334</ele><time>2026-04-26T09:37:01.988Z</time></trkpt><trkpt lat="43.40621296882142" lon="12.662650196778038"><ele>615.0</ele><time>2026-04-26T09:37:02.988Z</time></trkpt><trkpt lat="43.40636450281619" lon="12.662524788282479"><ele>615.0</ele><time>2026-04-26T09:37:03.988Z</time></trkpt><trkpt lat="43.40651754676779" lon="12.662398527673984"><ele>615.0</ele><time>2026-04-26T09:37:04.988Z</time></trkpt><trkpt lat="43.40667239715437" lon="12.662267543799441"><ele>615.0</ele><time>2026-04-26T09:37:05.988Z</time></trkpt><trkpt lat="43.40682550756054" lon="12.662137426309204"><ele>615.0</ele><time>2026-04-26T09:37:06.988Z</time></trkpt><trkpt lat="43.40696456500245" lon="12.66201255042839"><ele>615.0</ele><time>2026-04-26T09:37:07.988Z</time></trkpt><trkpt lat="43.40708785763278" lon="12.661919136737751"><ele>615.0</ele><time>2026-04-26T09:37:08.988Z</time></trkpt><trkpt lat="43.40720945800501" lon="12.661823031357882"><ele>615.0</ele><time>2026-04-26T09:37:09.988Z</time></trkpt><trkpt lat="43.40733079004568" lon="12.661736177838733"><ele>616.3333333333334</ele><time>2026-04-26T09:37:10.988Z</time></trkpt><trkpt lat="43.40746315835863" lon="12.661622895420575"><ele>617.6666666666667</ele><time>2026-04-26T09:37:11.988Z</time></trkpt><trkpt lat="43.40759668636832" lon="12.661522674554123"><ele>619.0</ele><time>2026-04-26T09:37:12.988Z</time></trkpt><trkpt lat="43.40773944172609" lon="12.661454783411195"><ele>619.0</ele><time>2026-04-26T09:37:13.988Z</time></trkpt><trkpt lat="43.407892174644125" lon="12.661393178416464"><ele>619.0</ele><time>2026-04-26T09:37:14.988Z</time></trkpt><trkpt lat="43.4080543903294" lon="12.66133076406447"><ele>619.0</ele><time>2026-04-26T09:37:15.988Z</time></trkpt><trkpt lat="43.4082265600716" lon="12.661265525778022"><ele>619.0</ele><time>2026-04-26T09:37:16.988Z</time></trkpt><trkpt lat="43.40840474837734" lon="12.66119993815936"><ele>619.0</ele><time>2026-04-26T09:37:17.988Z</time></trkpt><trkpt lat="43.408582679304494" lon="12.661133941539793"><ele>619.0</ele><time>2026-04-26T09:37:18.988Z</time></trkpt><trkpt lat="43.40876173054064" lon="12.661066516996591"><ele>622.3333333333334</ele><time>2026-04-26T09:37:19.988Z</time></trkpt><trkpt lat="43.40893716257364" lon="12.661000455303009"><ele>625.6666666666666</ele><time>2026-04-26T09:37:20.988Z</time></trkpt><trkpt lat="43.40910308982108" lon="12.660938644714522"><ele>629.0</ele><time>2026-04-26T09:37:21.988Z</time></trkpt><trkpt lat="43.40927213891359" lon="12.660876041150267"><ele>629.0</ele><time>2026-04-26T09:37:22.988Z</time></trkpt><trkpt lat="43.40943844669604" lon="12.660813534273716"><ele>629.0</ele><time>2026-04-26T09:37:23.988Z</time></trkpt><trkpt lat="43.40961727678448" lon="12.660745584149417"><ele>629.0</ele><time>2026-04-26T09:37:24.988Z</time></trkpt><trkpt lat="43.40980142129344" lon="12.660676861462637"><ele>632.3333333333333</ele><time>2026-04-26T09:37:25.988Z</time></trkpt><trkpt lat="43.40997393747789" lon="12.660615158233686"><ele>635.6666666666666</ele><time>2026-04-26T09:37:26.988Z</time></trkpt><trkpt lat="43.410112723048165" lon="12.660563948127873"><ele>639.0</ele><time>2026-04-26T09:37:27.989Z</time></trkpt><trkpt lat="43.41023498997759" lon="12.660507021615723"><ele>639.0</ele><time>2026-04-26T09:37:28.989Z</time></trkpt><trkpt lat="43.410340966044515" lon="12.660419594698812"><ele>639.0</ele><time>2026-04-26T09:37:29.989Z</time></trkpt><trkpt lat="43.410443155648245" lon="12.660324220829002"><ele>639.0</ele><time>2026-04-26T09:37:30.989Z</time></trkpt><trkpt lat="43.410533226093555" lon="12.660203570384907"><ele>639.0</ele><time>2026-04-26T09:37:31.989Z</time></trkpt><trkpt lat="43.41061607484789" lon="12.660045578352415"><ele>638.75</ele><time>2026-04-26T09:37:32.989Z</time></trkpt><trkpt lat="43.410716807987285" lon="12.65988511111876"><ele>638.5</ele><time>2026-04-26T09:37:33.989Z</time></trkpt><trkpt lat="43.4108209921824" lon="12.659744189220998"><ele>638.25</ele><time>2026-04-26T09:37:34.989Z</time></trkpt><trkpt lat="43.4109073509199" lon="12.659600233668757"><ele>638.0</ele><time>2026-04-26T09:37:35.989Z</time></trkpt><trkpt lat="43.41099000668621" lon="12.65946945475516"><ele>638.75</ele><time>2026-04-26T09:37:36.989Z</time></trkpt><trkpt lat="43.411072801734846" lon="12.65934147409541"><ele>639.5</ele><time>2026-04-26T09:37:37.989Z</time></trkpt><trkpt lat="43.41116911560575" lon="12.659195541998987"><ele>640.25</ele><time>2026-04-26T09:37:38.989Z</time></trkpt><trkpt lat="43.41126099831601" lon="12.659046129322144"><ele>641.0</ele><time>2026-04-26T09:37:39.989Z</time></trkpt><trkpt lat="43.41135547964616" lon="12.658886554644248"><ele>641.6666666666666</ele><time>2026-04-26T09:37:40.989Z</time></trkpt><trkpt lat="43.41147287763994" lon="12.658723388905914"><ele>642.3333333333334</ele><time>2026-04-26T09:37:41.989Z</time></trkpt><trkpt lat="43.411601259133555" lon="12.658553547642166"><ele>643.0</ele><time>2026-04-26T09:37:42.989Z</time></trkpt><trkpt lat="43.41172771125688" lon="12.658380894285873"><ele>642.3333333333334</ele><time>2026-04-26T09:37:43.989Z</time></trkpt><trkpt lat="43.41188238848019" lon="12.658242737652241"><ele>641.6666666666666</ele><time>2026-04-26T09:37:44.989Z</time></trkpt><trkpt lat="43.412036532747145" lon="12.658088565633935"><ele>641.0</ele><time>2026-04-26T09:37:45.989Z</time></trkpt><trkpt lat="43.41219491063826" lon="12.657931337992835"><ele>635.6666666666666</ele><time>2026-04-26T09:37:46.989Z</time></trkpt><trkpt lat="43.41235319073311" lon="12.657775550459863"><ele>630.3333333333334</ele><time>2026-04-26T09:37:47.989Z</time></trkpt><trkpt lat="43.41249987015248" lon="12.65760613269119"><ele>625.0</ele><time>2026-04-26T09:37:48.989Z</time></trkpt><trkpt lat="43.41264923332281" lon="12.65745690433254"><ele>625.0</ele><time>2026-04-26T09:37:49.989Z</time></trkpt><trkpt lat="43.41281185975028" lon="12.657312211745039"><ele>625.0</ele><time>2026-04-26T09:37:50.989Z</time></trkpt><trkpt lat="43.41297562334097" lon="12.65713855187056"><ele>625.0</ele><time>2026-04-26T09:37:51.988Z</time></trkpt><trkpt lat="43.41315312696383" lon="12.656951080780313"><ele>623.0</ele><time>2026-04-26T09:37:52.988Z</time></trkpt><trkpt lat="43.41333267606741" lon="12.65676091732544"><ele>621.0</ele><time>2026-04-26T09:37:53.988Z</time></trkpt><trkpt lat="43.41350810325378" lon="12.656577085268868"><ele>619.0</ele><time>2026-04-26T09:37:54.988Z</time></trkpt><trkpt lat="43.41367923830856" lon="12.65639918210094"><ele>617.0</ele><time>2026-04-26T09:37:55.988Z</time></trkpt><trkpt lat="43.41384433373672" lon="12.656234596575398"><ele>615.0</ele><time>2026-04-26T09:37:56.988Z</time></trkpt><trkpt lat="43.41402600395234" lon="12.65607574623202"><ele>613.0</ele><time>2026-04-26T09:37:57.988Z</time></trkpt><trkpt lat="43.414203754362674" lon="12.655935318047561"><ele>613.0</ele><time>2026-04-26T09:37:58.988Z</time></trkpt><trkpt lat="43.41437303642539" lon="12.655815035189558"><ele>613.0</ele><time>2026-04-26T09:37:59.988Z</time></trkpt><trkpt lat="43.41452330596163" lon="12.655738681394126"><ele>613.0</ele><time>2026-04-26T09:38:00.988Z</time></trkpt><trkpt lat="43.41466339249779" lon="12.655713125243544"><ele>612.25</ele><time>2026-04-26T09:38:01.988Z</time></trkpt><trkpt lat="43.41481605980836" lon="12.65569763927413"><ele>611.5</ele><time>2026-04-26T09:38:02.988Z</time></trkpt><trkpt lat="43.414956489934134" lon="12.655691151346389"><ele>610.75</ele><time>2026-04-26T09:38:03.988Z</time></trkpt><trkpt lat="43.41509689442027" lon="12.655684234293723"><ele>610.0</ele><time>2026-04-26T09:38:04.988Z</time></trkpt><trkpt lat="43.41520100799503" lon="12.655742732363025"><ele>610.0</ele><time>2026-04-26T09:38:05.988Z</time></trkpt><trkpt lat="43.415286721852404" lon="12.655825791943398"><ele>610.0</ele><time>2026-04-26T09:38:06.988Z</time></trkpt><trkpt lat="43.41535411335986" lon="12.65597440826901"><ele>610.0</ele><time>2026-04-26T09:38:07.988Z</time></trkpt><trkpt lat="43.41543681564804" lon="12.656130743530897"><ele>610.0</ele><time>2026-04-26T09:38:08.988Z</time></trkpt><trkpt lat="43.415522257103675" lon="12.656283957245533"><ele>612.2</ele><time>2026-04-26T09:38:09.988Z</time></trkpt><trkpt lat="43.415595218468546" lon="12.656386512627593"><ele>614.4</ele><time>2026-04-26T09:38:10.988Z</time></trkpt><trkpt lat="43.41564482716582" lon="12.656449190460556"><ele>616.6</ele><time>2026-04-26T09:38:11.988Z</time></trkpt><trkpt lat="43.41578321325835" lon="12.65643653936769"><ele>618.8</ele><time>2026-04-26T09:38:13.988Z</time></trkpt><trkpt lat="43.41583972569449" lon="12.656311890863952"><ele>621.0</ele><time>2026-04-26T09:38:14.988Z</time></trkpt><trkpt lat="43.415869173738066" lon="12.656214733146836"><ele>615.6</ele><time>2026-04-26T09:38:15.988Z</time></trkpt><trkpt lat="43.41584394956047" lon="12.656073570850948"><ele>610.2</ele><time>2026-04-26T09:38:16.988Z</time></trkpt><trkpt lat="43.415810480454894" lon="12.655969257768083"><ele>604.8</ele><time>2026-04-26T09:38:17.988Z</time></trkpt><trkpt lat="43.415744472646765" lon="12.655883776605817"><ele>599.4</ele><time>2026-04-26T09:38:18.988Z</time></trkpt><trkpt lat="43.41566447456256" lon="12.655767571273342"><ele>594.0</ele><time>2026-04-26T09:38:19.988Z</time></trkpt><trkpt lat="43.41556980739142" lon="12.655649828859955"><ele>598.0</ele><time>2026-04-26T09:38:20.988Z</time></trkpt><trkpt lat="43.41546912047948" lon="12.65554843939379"><ele>602.0</ele><time>2026-04-26T09:38:21.988Z</time></trkpt><trkpt lat="43.41536595767187" lon="12.65545830947253"><ele>606.0</ele><time>2026-04-26T09:38:22.988Z</time></trkpt><trkpt lat="43.41524585227415" lon="12.65538312227726"><ele>610.0</ele><time>2026-04-26T09:38:23.988Z</time></trkpt><trkpt lat="43.415125163184385" lon="12.655333754569938"><ele>610.0</ele><time>2026-04-26T09:38:24.988Z</time></trkpt><trkpt lat="43.414982689098665" lon="12.655289265198453"><ele>610.0</ele><time>2026-04-26T09:38:25.988Z</time></trkpt><trkpt lat="43.41485148221523" lon="12.655256903144139"><ele>610.0</ele><time>2026-04-26T09:38:26.988Z</time></trkpt><trkpt lat="43.41472387897997" lon="12.655227392746326"><ele>610.0</ele><time>2026-04-26T09:38:27.988Z</time></trkpt><trkpt lat="43.414601484085864" lon="12.65517658284296"><ele>604.25</ele><time>2026-04-26T09:38:28.988Z</time></trkpt><trkpt lat="43.41446960464387" lon="12.65516800206828"><ele>598.5</ele><time>2026-04-26T09:38:29.988Z</time></trkpt><trkpt lat="43.414324585533045" lon="12.655141295470008"><ele>592.75</ele><time>2026-04-26T09:38:30.988Z</time></trkpt><trkpt lat="43.41417296484224" lon="12.655120112961646"><ele>587.0</ele><time>2026-04-26T09:38:31.988Z</time></trkpt><trkpt lat="43.41404560541881" lon="12.655106942595259"><ele>587.0</ele><time>2026-04-26T09:38:32.988Z</time></trkpt><trkpt lat="43.413907914699955" lon="12.655119492016718"><ele>587.0</ele><time>2026-04-26T09:38:33.988Z</time></trkpt><trkpt lat="43.41376876484833" lon="12.655186740642964"><ele>587.0</ele><time>2026-04-26T09:38:34.988Z</time></trkpt><trkpt lat="43.413632878728976" lon="12.655255777771261"><ele>587.0</ele><time>2026-04-26T09:38:35.988Z</time></trkpt><trkpt lat="43.41351959461785" lon="12.65529797393224"><ele>584.8000000000001</ele><time>2026-04-26T09:38:36.988Z</time></trkpt><trkpt lat="43.413410418552964" lon="12.655286835950736"><ele>582.6</ele><time>2026-04-26T09:38:37.988Z</time></trkpt><trkpt lat="43.41333344995229" lon="12.655229469395556"><ele>580.4000000000001</ele><time>2026-04-26T09:38:38.988Z</time></trkpt><trkpt lat="43.41331277911086" lon="12.655112619662258"><ele>578.2</ele><time>2026-04-26T09:38:39.988Z</time></trkpt><trkpt lat="43.41336122861944" lon="12.65501219328378"><ele>576.0</ele><time>2026-04-26T09:38:40.988Z</time></trkpt><trkpt lat="43.41342983201894" lon="12.654905496766158"><ele>576.0</ele><time>2026-04-26T09:38:41.988Z</time></trkpt><trkpt lat="43.41356635328426" lon="12.65491782245508"><ele>576.0</ele><time>2026-04-26T09:38:42.988Z</time></trkpt><trkpt lat="43.41371410020967" lon="12.654918332828435"><ele>576.0</ele><time>2026-04-26T09:38:43.988Z</time></trkpt><trkpt lat="43.41386686491998" lon="12.654921074828232"><ele>576.0</ele><time>2026-04-26T09:38:44.988Z</time></trkpt><trkpt lat="43.4140488238855" lon="12.654926635658734"><ele>579.6666666666666</ele><time>2026-04-26T09:38:45.988Z</time></trkpt><trkpt lat="43.41422773044143" lon="12.654909619383087"><ele>583.3333333333333</ele><time>2026-04-26T09:38:46.988Z</time></trkpt><trkpt lat="43.414379586986264" lon="12.654809036124668"><ele>587.0</ele><time>2026-04-26T09:38:47.988Z</time></trkpt><trkpt lat="43.41455173671346" lon="12.654709857335826"><ele>587.0</ele><time>2026-04-26T09:38:48.988Z</time></trkpt><trkpt lat="43.4147327598326" lon="12.654651615000121"><ele>587.0</ele><time>2026-04-26T09:38:49.988Z</time></trkpt><trkpt lat="43.41492246164906" lon="12.654586770741979"><ele>587.0</ele><time>2026-04-26T09:38:50.988Z</time></trkpt><trkpt lat="43.415101565791936" lon="12.654542993142822"><ele>587.0</ele><time>2026-04-26T09:38:51.988Z</time></trkpt><trkpt lat="43.415239978234155" lon="12.654597883015484"><ele>587.0</ele><time>2026-04-26T09:38:52.988Z</time></trkpt><trkpt lat="43.415344752460385" lon="12.654705546463806"><ele>587.0</ele><time>2026-04-26T09:38:53.988Z</time></trkpt><trkpt lat="43.415444842848814" lon="12.654815124103187"><ele>587.0</ele><time>2026-04-26T09:38:54.987Z</time></trkpt><trkpt lat="43.41556993945212" lon="12.654937774875346"><ele>584.25</ele><time>2026-04-26T09:38:55.987Z</time></trkpt><trkpt lat="43.41568212868778" lon="12.655018108785423"><ele>581.5</ele><time>2026-04-26T09:38:56.987Z</time></trkpt><trkpt lat="43.415809742112934" lon="12.655025924646074"><ele>578.75</ele><time>2026-04-26T09:38:57.987Z</time></trkpt><trkpt lat="43.415968577687146" lon="12.654976060158223"><ele>576.0</ele><time>2026-04-26T09:38:58.987Z</time></trkpt><trkpt lat="43.41613988197692" lon="12.65499119996016"><ele>576.0</ele><time>2026-04-26T09:38:59.987Z</time></trkpt><trkpt lat="43.41630612346026" lon="12.655085131552497"><ele>576.0</ele><time>2026-04-26T09:39:00.987Z</time></trkpt><trkpt lat="43.416492702701156" lon="12.655157995704023"><ele>576.0</ele><time>2026-04-26T09:39:01.987Z</time></trkpt><trkpt lat="43.41665636040067" lon="12.655159085479964"><ele>576.75</ele><time>2026-04-26T09:39:02.987Z</time></trkpt><trkpt lat="43.41678805943769" lon="12.655223275474722"><ele>577.5</ele><time>2026-04-26T09:39:03.987Z</time></trkpt><trkpt lat="43.4168569953467" lon="12.655309191023793"><ele>578.25</ele><time>2026-04-26T09:39:04.987Z</time></trkpt><trkpt lat="43.416904188718895" lon="12.655439529816194"><ele>579.0</ele><time>2026-04-26T09:39:05.987Z</time></trkpt><trkpt lat="43.41696366389278" lon="12.655602474034803"><ele>579.0</ele><time>2026-04-26T09:39:06.987Z</time></trkpt><trkpt lat="43.417071680500825" lon="12.655701865439816"><ele>579.0</ele><time>2026-04-26T09:39:07.987Z</time></trkpt><trkpt lat="43.41718010450048" lon="12.655709787531077"><ele>579.0</ele><time>2026-04-26T09:39:08.987Z</time></trkpt><trkpt lat="43.41727226596972" lon="12.655709519361876"><ele>579.0</ele><time>2026-04-26T09:39:09.987Z</time></trkpt><trkpt lat="43.41737319274574" lon="12.655705555140305"><ele>579.0</ele><time>2026-04-26T09:39:10.987Z</time></trkpt><trkpt lat="43.41747285410599" lon="12.655690534281021"><ele>576.0</ele><time>2026-04-26T09:39:11.987Z</time></trkpt><trkpt lat="43.41754227105983" lon="12.65566649724809"><ele>573.0</ele><time>2026-04-26T09:39:12.987Z</time></trkpt><trkpt lat="43.41760789055498" lon="12.655626944594152"><ele>570.0</ele><time>2026-04-26T09:39:14.987Z</time></trkpt><trkpt lat="43.41768650975746" lon="12.655558392313099"><ele>567.0</ele><time>2026-04-26T09:39:34.988Z</time></trkpt><trkpt lat="43.41774722682859" lon="12.655521308416011"><ele>564.0</ele><time>2026-04-26T09:39:35.988Z</time></trkpt><trkpt lat="43.41782469079822" lon="12.655480525774406"><ele>561.0</ele><time>2026-04-26T09:39:37.989Z</time></trkpt><trkpt lat="43.41791134388635" lon="12.655504955999954"><ele>561.0</ele><time>2026-04-26T09:43:41.986Z</time></trkpt><trkpt lat="43.41798170641253" lon="12.655411156735203"><ele>561.0</ele><time>2026-04-26T09:46:23.983Z</time></trkpt><trkpt lat="43.418042715027305" lon="12.655282718017226"><ele>561.0</ele><time>2026-04-26T09:46:25.983Z</time></trkpt><trkpt lat="43.41807506877213" lon="12.655202657651783"><ele>561.0</ele><time>2026-04-26T09:46:26.983Z</time></trkpt><trkpt lat="43.418121705705126" lon="12.655099883268404"><ele>561.0</ele><time>2026-04-26T09:46:27.983Z</time></trkpt><trkpt lat="43.41817991526228" lon="12.65499324888578"><ele>562.6</ele><time>2026-04-26T09:46:28.983Z</time></trkpt><trkpt lat="43.41823546254724" lon="12.65486385961663"><ele>564.2</ele><time>2026-04-26T09:46:29.983Z</time></trkpt><trkpt lat="43.41827946271203" lon="12.65473122886695"><ele>565.8</ele><time>2026-04-26T09:46:30.983Z</time></trkpt><trkpt lat="43.41830356397065" lon="12.654596311186973"><ele>567.4</ele><time>2026-04-26T09:46:31.983Z</time></trkpt><trkpt lat="43.41832193670229" lon="12.65445939291785"><ele>569.0</ele><time>2026-04-26T09:46:32.983Z</time></trkpt><trkpt lat="43.41835547952977" lon="12.654296753711344"><ele>564.5</ele><time>2026-04-26T09:46:33.983Z</time></trkpt><trkpt lat="43.41839601639876" lon="12.654148199984979"><ele>560.0</ele><time>2026-04-26T09:46:34.983Z</time></trkpt><trkpt lat="43.41845958032898" lon="12.654005136284324"><ele>555.5</ele><time>2026-04-26T09:46:35.983Z</time></trkpt><trkpt lat="43.41855760520931" lon="12.65387786609252"><ele>551.0</ele><time>2026-04-26T09:46:36.983Z</time></trkpt><trkpt lat="43.418683765892986" lon="12.653745469048447"><ele>552.6666666666666</ele><time>2026-04-26T09:46:37.983Z</time></trkpt><trkpt lat="43.41882315927399" lon="12.653590167165518"><ele>554.3333333333334</ele><time>2026-04-26T09:46:38.983Z</time></trkpt><trkpt lat="43.41895087949959" lon="12.65340013732118"><ele>556.0</ele><time>2026-04-26T09:46:39.983Z</time></trkpt><trkpt lat="43.41907568420969" lon="12.653189458469331"><ele>556.0</ele><time>2026-04-26T09:46:40.983Z</time></trkpt><trkpt lat="43.41918931218086" lon="12.652984013992908"><ele>556.0</ele><time>2026-04-26T09:46:41.983Z</time></trkpt><trkpt lat="43.41930648161008" lon="12.652790117122223"><ele>556.0</ele><time>2026-04-26T09:46:42.983Z</time></trkpt><trkpt lat="43.419432156873604" lon="12.652592382193493"><ele>556.6666666666667</ele><time>2026-04-26T09:46:43.983Z</time></trkpt><trkpt lat="43.419599477251154" lon="12.6524018211371"><ele>557.3333333333334</ele><time>2026-04-26T09:46:44.983Z</time></trkpt><trkpt lat="43.419768417770044" lon="12.652244956551659"><ele>558.0</ele><time>2026-04-26T09:46:45.983Z</time></trkpt><trkpt lat="43.419952272580915" lon="12.652111607433651"><ele>558.0</ele><time>2026-04-26T09:46:46.983Z</time></trkpt><trkpt lat="43.420147292019706" lon="12.651969243182386"><ele>558.0</ele><time>2026-04-26T09:46:47.983Z</time></trkpt><trkpt lat="43.420318736929524" lon="12.651843912803498"><ele>558.0</ele><time>2026-04-26T09:46:48.983Z</time></trkpt><trkpt lat="43.420509335050035" lon="12.651694940511307"><ele>556.0</ele><time>2026-04-26T09:46:49.983Z</time></trkpt><trkpt lat="43.42067564952644" lon="12.651492001297754"><ele>554.0</ele><time>2026-04-26T09:46:50.983Z</time></trkpt><trkpt lat="43.420826434340725" lon="12.651294966771712"><ele>552.0</ele><time>2026-04-26T09:46:51.983Z</time></trkpt><trkpt lat="43.42096699560696" lon="12.651096521357168"><ele>551.0</ele><time>2026-04-26T09:46:52.983Z</time></trkpt><trkpt lat="43.42111633703122" lon="12.650914635769459"><ele>550.0</ele><time>2026-04-26T09:46:53.983Z</time></trkpt><trkpt lat="43.421302037853266" lon="12.65079715249707"><ele>549.0</ele><time>2026-04-26T09:46:54.983Z</time></trkpt><trkpt lat="43.421500245432085" lon="12.650635888992541"><ele>549.0</ele><time>2026-04-26T09:46:55.983Z</time></trkpt><trkpt lat="43.421721656534814" lon="12.650455946663472"><ele>549.0</ele><time>2026-04-26T09:46:56.983Z</time></trkpt><trkpt lat="43.42194177727165" lon="12.650279119108767"><ele>545.0</ele><time>2026-04-26T09:46:57.983Z</time></trkpt><trkpt lat="43.42213995547622" lon="12.650120385030128"><ele>541.0</ele><time>2026-04-26T09:46:58.983Z</time></trkpt><trkpt lat="43.42233182962811" lon="12.649961792571775"><ele>541.0</ele><time>2026-04-26T09:46:59.983Z</time></trkpt><trkpt lat="43.422476138324285" lon="12.649779906430847"><ele>541.0</ele><time>2026-04-26T09:47:00.983Z</time></trkpt><trkpt lat="43.422584668843804" lon="12.649578722994251"><ele>541.0</ele><time>2026-04-26T09:47:01.983Z</time></trkpt><trkpt lat="43.42269163364307" lon="12.64935871328099"><ele>537.3333333333334</ele><time>2026-04-26T09:47:02.983Z</time></trkpt><trkpt lat="43.422794026860096" lon="12.649096765968212"><ele>533.6666666666666</ele><time>2026-04-26T09:47:03.983Z</time></trkpt><trkpt lat="43.42289716790385" lon="12.648822096978119"><ele>530.0</ele><time>2026-04-26T09:47:04.983Z</time></trkpt><trkpt lat="43.423007951366884" lon="12.648581479672359"><ele>530.0</ele><time>2026-04-26T09:47:05.983Z</time></trkpt><trkpt lat="43.42310323912495" lon="12.64835160497674"><ele>530.0</ele><time>2026-04-26T09:47:06.983Z</time></trkpt><trkpt lat="43.423219395331934" lon="12.648153718754651"><ele>530.0</ele><time>2026-04-26T09:47:07.983Z</time></trkpt><trkpt lat="43.423364996204114" lon="12.647989234967204"><ele>530.0</ele><time>2026-04-26T09:47:08.983Z</time></trkpt><trkpt lat="43.42352532062502" lon="12.647812432948319"><ele>530.0</ele><time>2026-04-26T09:47:09.983Z</time></trkpt><trkpt lat="43.423698349670666" lon="12.647625597109437"><ele>530.0</ele><time>2026-04-26T09:47:10.983Z</time></trkpt><trkpt lat="43.42384873491734" lon="12.647439723919964"><ele>527.5</ele><time>2026-04-26T09:47:11.983Z</time></trkpt><trkpt lat="43.42398463049595" lon="12.647304306176165"><ele>525.0</ele><time>2026-04-26T09:47:12.983Z</time></trkpt><trkpt lat="43.424126593142155" lon="12.647251313586228"><ele>522.5</ele><time>2026-04-26T09:47:13.982Z</time></trkpt><trkpt lat="43.4242453257155" lon="12.647260540552233"><ele>520.0</ele><time>2026-04-26T09:47:14.982Z</time></trkpt><trkpt lat="43.42439955350423" lon="12.647288951080874"><ele>520.0</ele><time>2026-04-26T09:47:15.982Z</time></trkpt><trkpt lat="43.42462166658875" lon="12.64732777700073"><ele>520.0</ele><time>2026-04-26T09:47:16.982Z</time></trkpt><trkpt lat="43.42486001575909" lon="12.647358725361306"><ele>520.6666666666667</ele><time>2026-04-26T09:47:17.982Z</time></trkpt><trkpt lat="43.42507736670674" lon="12.647341770206149"><ele>521.3333333333334</ele><time>2026-04-26T09:47:18.982Z</time></trkpt><trkpt lat="43.425283604334844" lon="12.647256300190332"><ele>522.0</ele><time>2026-04-26T09:47:19.982Z</time></trkpt><trkpt lat="43.425474322440934" lon="12.647119679741198"><ele>528.0</ele><time>2026-04-26T09:47:20.982Z</time></trkpt><trkpt lat="43.42570872666144" lon="12.646986635018857"><ele>534.0</ele><time>2026-04-26T09:47:21.982Z</time></trkpt><trkpt lat="43.425906288006" lon="12.646768465413313"><ele>515.5</ele><time>2026-04-26T09:47:22.982Z</time></trkpt><trkpt lat="43.4261070238863" lon="12.646561408364486"><ele>497.0</ele><time>2026-04-26T09:47:23.982Z</time></trkpt><trkpt lat="43.42627951977243" lon="12.646343381300468"><ele>501.66666666666663</ele><time>2026-04-26T09:47:24.982Z</time></trkpt><trkpt lat="43.42643697638232" lon="12.646205895439287"><ele>506.33333333333337</ele><time>2026-04-26T09:47:25.982Z</time></trkpt><trkpt lat="43.42655952217559" lon="12.646166926967114"><ele>511.0</ele><time>2026-04-26T09:47:26.982Z</time></trkpt><trkpt lat="43.426711285254186" lon="12.646194424284968"><ele>503.0</ele><time>2026-04-26T09:47:27.982Z</time></trkpt><trkpt lat="43.42685753097957" lon="12.646124215028834"><ele>495.0</ele><time>2026-04-26T09:47:28.982Z</time></trkpt><trkpt lat="43.426991183437146" lon="12.646017278043129"><ele>487.0</ele><time>2026-04-26T09:47:29.982Z</time></trkpt><trkpt lat="43.42710533748522" lon="12.645879180328148"><ele>495.0</ele><time>2026-04-26T09:47:30.982Z</time></trkpt><trkpt lat="43.427216400093705" lon="12.645708065141891"><ele>503.0</ele><time>2026-04-26T09:47:31.982Z</time></trkpt><trkpt lat="43.42737262215363" lon="12.645558519657207"><ele>511.0</ele><time>2026-04-26T09:47:32.982Z</time></trkpt><trkpt lat="43.42755240961324" lon="12.645407859309541"><ele>501.6666666666667</ele><time>2026-04-26T09:47:33.982Z</time></trkpt><trkpt lat="43.42769646976868" lon="12.645179214279016"><ele>492.33333333333337</ele><time>2026-04-26T09:47:34.982Z</time></trkpt><trkpt lat="43.427829276984006" lon="12.644975308316086"><ele>483.0</ele><time>2026-04-26T09:47:35.982Z</time></trkpt><trkpt lat="43.42794194014698" lon="12.644809566612299"><ele>489.25</ele><time>2026-04-26T09:47:36.982Z</time></trkpt><trkpt lat="43.428035392763306" lon="12.64467956973242"><ele>495.5</ele><time>2026-04-26T09:47:37.982Z</time></trkpt><trkpt lat="43.42811165169823" lon="12.644623810551243"><ele>501.75</ele><time>2026-04-26T09:47:38.982Z</time></trkpt><trkpt lat="43.428218957178125" lon="12.644630510485225"><ele>508.0</ele><time>2026-04-26T09:47:39.982Z</time></trkpt><trkpt lat="43.42834259781879" lon="12.644621598005273"><ele>508.0</ele><time>2026-04-26T09:47:40.982Z</time></trkpt><trkpt lat="43.42845879690834" lon="12.644561482478066"><ele>508.0</ele><time>2026-04-26T09:47:41.982Z</time></trkpt><trkpt lat="43.428553160994376" lon="12.644445851360313"><ele>508.0</ele><time>2026-04-26T09:47:42.982Z</time></trkpt><trkpt lat="43.4286328523104" lon="12.644364246322144"><ele>508.0</ele><time>2026-04-26T09:47:43.982Z</time></trkpt><trkpt lat="43.42853599494897" lon="12.644304159687959"><ele>501.75</ele><time>2026-04-26T09:47:44.982Z</time></trkpt><trkpt lat="43.42845858079291" lon="12.644237872669416"><ele>495.5</ele><time>2026-04-26T09:47:45.982Z</time></trkpt><trkpt lat="43.42835148949019" lon="12.644149790888205"><ele>489.25</ele><time>2026-04-26T09:47:46.982Z</time></trkpt><trkpt lat="43.42821016234963" lon="12.644082387197196"><ele>483.0</ele><time>2026-04-26T09:47:47.982Z</time></trkpt><trkpt lat="43.4280731610651" lon="12.644054870018055"><ele>483.0</ele><time>2026-04-26T09:47:48.982Z</time></trkpt><trkpt lat="43.42798003338707" lon="12.644065260817994"><ele>482.99999999999994</ele><time>2026-04-26T09:47:49.982Z</time></trkpt><trkpt lat="43.427904961669014" lon="12.644130227992308"><ele>482.99999999999994</ele><time>2026-04-26T09:47:50.982Z</time></trkpt><trkpt lat="43.42782627152462" lon="12.644254933414386"><ele>483.0</ele><time>2026-04-26T09:47:51.982Z</time></trkpt><trkpt lat="43.427770670609874" lon="12.644432776695112"><ele>483.0</ele><time>2026-04-26T09:47:52.982Z</time></trkpt><trkpt lat="43.42770965868918" lon="12.644665945109994"><ele>483.0</ele><time>2026-04-26T09:47:53.982Z</time></trkpt><trkpt lat="43.42761131648121" lon="12.644978160548346"><ele>483.0</ele><time>2026-04-26T09:47:54.982Z</time></trkpt><trkpt lat="43.427496569726095" lon="12.645210903543518"><ele>484.33333333333337</ele><time>2026-04-26T09:47:55.982Z</time></trkpt><trkpt lat="43.42738742923865" lon="12.645374974425872"><ele>485.6666666666667</ele><time>2026-04-26T09:47:56.982Z</time></trkpt><trkpt lat="43.42721642751138" lon="12.645453991053014"><ele>487.0</ele><time>2026-04-26T09:47:57.982Z</time></trkpt><trkpt lat="43.4270174820628" lon="12.645516956426807"><ele>487.0</ele><time>2026-04-26T09:47:58.982Z</time></trkpt><trkpt lat="43.42680575537452" lon="12.645618037719112"><ele>487.0</ele><time>2026-04-26T09:47:59.982Z</time></trkpt><trkpt lat="43.42660514343239" lon="12.645730407402766"><ele>487.0</ele><time>2026-04-26T09:48:00.982Z</time></trkpt><trkpt lat="43.426402409149325" lon="12.645754429037641"><ele>482.6666666666667</ele><time>2026-04-26T09:48:01.982Z</time></trkpt><trkpt lat="43.426250675795835" lon="12.645814604290878"><ele>478.33333333333337</ele><time>2026-04-26T09:48:02.982Z</time></trkpt><trkpt lat="43.426123168578535" lon="12.64592966023742"><ele>474.0</ele><time>2026-04-26T09:48:03.982Z</time></trkpt><trkpt lat="43.42596144309208" lon="12.646077280504288"><ele>481.66666666666663</ele><time>2026-04-26T09:48:04.982Z</time></trkpt><trkpt lat="43.42579092763637" lon="12.646203019056276"><ele>489.3333333333333</ele><time>2026-04-26T09:48:05.982Z</time></trkpt><trkpt lat="43.425658274075495" lon="12.64629826817124"><ele>497.0</ele><time>2026-04-26T09:48:06.982Z</time></trkpt><trkpt lat="43.42555692573083" lon="12.646343494118977"><ele>495.6</ele><time>2026-04-26T09:48:07.982Z</time></trkpt><trkpt lat="43.425461983480304" lon="12.646364690280764"><ele>494.20000000000005</ele><time>2026-04-26T09:48:08.982Z</time></trkpt><trkpt lat="43.42537606154351" lon="12.64633576837176"><ele>492.8</ele><time>2026-04-26T09:48:09.982Z</time></trkpt><trkpt lat="43.425308678320604" lon="12.646239716151904"><ele>491.4</ele><time>2026-04-26T09:48:10.982Z</time></trkpt><trkpt lat="43.42529382778118" lon="12.6460635891338"><ele>490.0</ele><time>2026-04-26T09:48:11.982Z</time></trkpt><trkpt lat="43.425272173624094" lon="12.645869727659376"><ele>486.0</ele><time>2026-04-26T09:48:12.981Z</time></trkpt><trkpt lat="43.42525205532521" lon="12.645689112599364"><ele>482.0</ele><time>2026-04-26T09:48:13.981Z</time></trkpt><trkpt lat="43.42525235801801" lon="12.645547598382985"><ele>478.0</ele><time>2026-04-26T09:48:14.981Z</time></trkpt><trkpt lat="43.425262286204955" lon="12.645415804438132"><ele>474.0</ele><time>2026-04-26T09:48:15.981Z</time></trkpt><trkpt lat="43.425310260156486" lon="12.645276555336261"><ele>470.0</ele><time>2026-04-26T09:48:16.981Z</time></trkpt><trkpt lat="43.42538813360121" lon="12.645175027763933"><ele>470.3333333333333</ele><time>2026-04-26T09:48:17.981Z</time></trkpt><trkpt lat="43.42552332609924" lon="12.645151760683456"><ele>470.66666666666663</ele><time>2026-04-26T09:48:18.981Z</time></trkpt><trkpt lat="43.425686925541875" lon="12.645137008551096"><ele>471.0</ele><time>2026-04-26T09:48:19.981Z</time></trkpt><trkpt lat="43.42588228226391" lon="12.645106568021362"><ele>471.0</ele><time>2026-04-26T09:48:20.981Z</time></trkpt><trkpt lat="43.426080789945935" lon="12.645076702096276"><ele>471.0</ele><time>2026-04-26T09:48:21.981Z</time></trkpt><trkpt lat="43.426269246594224" lon="12.645050213872375"><ele>471.0</ele><time>2026-04-26T09:48:22.981Z</time></trkpt><trkpt lat="43.42645760758952" lon="12.645011901840025"><ele>470.75</ele><time>2026-04-26T09:48:23.981Z</time></trkpt><trkpt lat="43.426646026379395" lon="12.645011034178143"><ele>470.5</ele><time>2026-04-26T09:48:24.981Z</time></trkpt><trkpt lat="43.4267724324618" lon="12.644975871695616"><ele>470.25</ele><time>2026-04-26T09:48:25.981Z</time></trkpt><trkpt lat="43.42686493592544" lon="12.644933544895958"><ele>470.0</ele><time>2026-04-26T09:48:26.981Z</time></trkpt><trkpt lat="43.42695990568005" lon="12.644864733708753"><ele>470.0</ele><time>2026-04-26T09:48:27.981Z</time></trkpt><trkpt lat="43.42705007888746" lon="12.644765249198493"><ele>470.0</ele><time>2026-04-26T09:48:28.981Z</time></trkpt><trkpt lat="43.427122223097534" lon="12.644640263475589"><ele>470.0</ele><time>2026-04-26T09:48:29.981Z</time></trkpt><trkpt lat="43.42714597346771" lon="12.644496536578542"><ele>470.0</ele><time>2026-04-26T09:48:30.981Z</time></trkpt><trkpt lat="43.42711611648009" lon="12.644329765429292"><ele>469.3333333333333</ele><time>2026-04-26T09:48:31.981Z</time></trkpt><trkpt lat="43.42705846828569" lon="12.644131732300147"><ele>468.66666666666663</ele><time>2026-04-26T09:48:32.981Z</time></trkpt><trkpt lat="43.426969246368365" lon="12.643931876860215"><ele>468.0</ele><time>2026-04-26T09:48:33.981Z</time></trkpt><trkpt lat="43.42688057053387" lon="12.64370888115092"><ele>466.33333333333337</ele><time>2026-04-26T09:48:34.981Z</time></trkpt><trkpt lat="43.42681998108297" lon="12.643517803616897"><ele>464.6666666666667</ele><time>2026-04-26T09:48:35.981Z</time></trkpt><trkpt lat="43.426784470593816" lon="12.643334486659677"><ele>463.0</ele><time>2026-04-26T09:48:36.981Z</time></trkpt><trkpt lat="43.426779037057884" lon="12.643088774642926"><ele>463.0</ele><time>2026-04-26T09:48:37.981Z</time></trkpt><trkpt lat="43.42681277072402" lon="12.642839749561633"><ele>463.0</ele><time>2026-04-26T09:48:38.981Z</time></trkpt><trkpt lat="43.42684561587432" lon="12.642595396628142"><ele>463.0</ele><time>2026-04-26T09:48:39.981Z</time></trkpt><trkpt lat="43.426865430697504" lon="12.642386088550365"><ele>463.25</ele><time>2026-04-26T09:48:40.981Z</time></trkpt><trkpt lat="43.42691712133157" lon="12.642212015001896"><ele>463.5</ele><time>2026-04-26T09:48:41.981Z</time></trkpt><trkpt lat="43.426958958975575" lon="12.642034649504678"><ele>463.75</ele><time>2026-04-26T09:48:42.981Z</time></trkpt><trkpt lat="43.42707792192433" lon="12.641904320517838"><ele>464.0</ele><time>2026-04-26T09:48:43.981Z</time></trkpt><trkpt lat="43.427211741140496" lon="12.64174464882471"><ele>459.3333333333333</ele><time>2026-04-26T09:48:44.981Z</time></trkpt><trkpt lat="43.42734346496638" lon="12.641597403095943"><ele>454.66666666666663</ele><time>2026-04-26T09:48:45.981Z</time></trkpt><trkpt lat="43.42747783580087" lon="12.641480865002476"><ele>450.0</ele><time>2026-04-26T09:48:46.981Z</time></trkpt><trkpt lat="43.427663871250154" lon="12.64135074120771"><ele>450.0</ele><time>2026-04-26T09:48:47.981Z</time></trkpt><trkpt lat="43.42787110898132" lon="12.641199978066156"><ele>450.0</ele><time>2026-04-26T09:48:48.981Z</time></trkpt><trkpt lat="43.42806464150249" lon="12.641043350277716"><ele>450.0</ele><time>2026-04-26T09:48:49.981Z</time></trkpt><trkpt lat="43.42821706257106" lon="12.64092762185556"><ele>450.0</ele><time>2026-04-26T09:48:50.981Z</time></trkpt><trkpt lat="43.42835470755431" lon="12.640840602247888"><ele>450.0</ele><time>2026-04-26T09:48:51.981Z</time></trkpt><trkpt lat="43.42847511850719" lon="12.64074827158651"><ele>450.0</ele><time>2026-04-26T09:48:52.981Z</time></trkpt><trkpt lat="43.42859558437909" lon="12.64067936879977"><ele>450.0</ele><time>2026-04-26T09:48:53.981Z</time></trkpt><trkpt lat="43.42872935102632" lon="12.64058980077005"><ele>450.0</ele><time>2026-04-26T09:48:54.981Z</time></trkpt><trkpt lat="43.42887927080762" lon="12.640524575998468"><ele>450.0</ele><time>2026-04-26T09:48:55.981Z</time></trkpt><trkpt lat="43.429016819533565" lon="12.640444461619973"><ele>449.0</ele><time>2026-04-26T09:48:56.981Z</time></trkpt><trkpt lat="43.42914202538971" lon="12.640350368914643"><ele>448.0</ele><time>2026-04-26T09:48:57.981Z</time></trkpt><trkpt lat="43.42928220543029" lon="12.640290925326768"><ele>447.0</ele><time>2026-04-26T09:48:58.981Z</time></trkpt><trkpt lat="43.429426689607816" lon="12.640207335481948"><ele>446.0</ele><time>2026-04-26T09:48:59.981Z</time></trkpt><trkpt lat="43.42958924378571" lon="12.640112248549325"><ele>446.66666666666663</ele><time>2026-04-26T09:49:00.981Z</time></trkpt><trkpt lat="43.429775824195225" lon="12.640007206368653"><ele>447.33333333333337</ele><time>2026-04-26T09:49:01.981Z</time></trkpt><trkpt lat="43.429986851538146" lon="12.639887534803865"><ele>448.0</ele><time>2026-04-26T09:49:02.981Z</time></trkpt><trkpt lat="43.43018693869185" lon="12.639773409802373"><ele>448.0</ele><time>2026-04-26T09:49:03.981Z</time></trkpt><trkpt lat="43.43037969507857" lon="12.639682107913922"><ele>448.0</ele><time>2026-04-26T09:49:04.981Z</time></trkpt><trkpt lat="43.43054873754926" lon="12.639647637554742"><ele>448.0</ele><time>2026-04-26T09:49:05.981Z</time></trkpt><trkpt lat="43.43069876934681" lon="12.639659984405695"><ele>447.6666666666667</ele><time>2026-04-26T09:49:06.981Z</time></trkpt><trkpt lat="43.43087267761737" lon="12.63970235786444"><ele>447.33333333333337</ele><time>2026-04-26T09:49:07.981Z</time></trkpt><trkpt lat="43.43108929489813" lon="12.639769572433611"><ele>447.0</ele><time>2026-04-26T09:49:08.981Z</time></trkpt><trkpt lat="43.43130407040248" lon="12.639842397432309"><ele>448.66666666666663</ele><time>2026-04-26T09:49:09.981Z</time></trkpt><trkpt lat="43.43147768137776" lon="12.639936805647658"><ele>450.3333333333333</ele><time>2026-04-26T09:49:10.981Z</time></trkpt><trkpt lat="43.43162271828627" lon="12.640057318578547"><ele>452.0</ele><time>2026-04-26T09:49:11.981Z</time></trkpt><trkpt lat="43.431747653869195" lon="12.640218078737247"><ele>452.3333333333333</ele><time>2026-04-26T09:49:12.981Z</time></trkpt><trkpt lat="43.43189882767912" lon="12.640390579598895"><ele>452.66666666666663</ele><time>2026-04-26T09:49:13.981Z</time></trkpt><trkpt lat="43.4320747755774" lon="12.640510477678326"><ele>453.0</ele><time>2026-04-26T09:49:14.98Z</time></trkpt><trkpt lat="43.432194048966615" lon="12.640520711527712"><ele>455.33333333333337</ele><time>2026-04-26T09:49:15.98Z</time></trkpt><trkpt lat="43.432338974433975" lon="12.640545560574598"><ele>457.6666666666667</ele><time>2026-04-26T09:49:16.98Z</time></trkpt><trkpt lat="43.432547581467794" lon="12.64056639000691"><ele>460.0</ele><time>2026-04-26T09:49:17.98Z</time></trkpt><trkpt lat="43.432728625543994" lon="12.640580152197115"><ele>460.0</ele><time>2026-04-26T09:49:18.98Z</time></trkpt><trkpt lat="43.43287585148764" lon="12.640582646694874"><ele>460.0</ele><time>2026-04-26T09:49:19.98Z</time></trkpt><trkpt lat="43.432973010427524" lon="12.640537511585627"><ele>460.0</ele><time>2026-04-26T09:49:20.98Z</time></trkpt><trkpt lat="43.43306979114264" lon="12.640477882287865"><ele>460.0</ele><time>2026-04-26T09:49:21.98Z</time></trkpt><trkpt lat="43.433173672827245" lon="12.640342479098752"><ele>459.0</ele><time>2026-04-26T09:49:22.98Z</time></trkpt><trkpt lat="43.433287205418885" lon="12.64014240225911"><ele>458.0</ele><time>2026-04-26T09:49:23.98Z</time></trkpt><trkpt lat="43.433416891104265" lon="12.639969715419044"><ele>457.0</ele><time>2026-04-26T09:49:24.98Z</time></trkpt><trkpt lat="43.43352986157723" lon="12.639917308075855"><ele>457.0</ele><time>2026-04-26T09:49:25.98Z</time></trkpt><trkpt lat="43.43362109179223" lon="12.63992636678849"><ele>457.0</ele><time>2026-04-26T09:49:26.98Z</time></trkpt><trkpt lat="43.4337451555897" lon="12.63994702503028"><ele>457.0</ele><time>2026-04-26T09:49:27.98Z</time></trkpt><trkpt lat="43.433895850919214" lon="12.640014978975104"><ele>457.0</ele><time>2026-04-26T09:49:28.98Z</time></trkpt><trkpt lat="43.43404478237907" lon="12.640043169471442"><ele>455.75</ele><time>2026-04-26T09:49:29.98Z</time></trkpt><trkpt lat="43.43416504475949" lon="12.64001355817913"><ele>454.5</ele><time>2026-04-26T09:49:30.98Z</time></trkpt><trkpt lat="43.43424385544748" lon="12.639928477767537"><ele>453.25</ele><time>2026-04-26T09:49:31.98Z</time></trkpt><trkpt lat="43.434348963598666" lon="12.639836317411998"><ele>452.0</ele><time>2026-04-26T09:49:32.98Z</time></trkpt><trkpt lat="43.43446127823458" lon="12.639678294722259"><ele>452.0</ele><time>2026-04-26T09:49:33.98Z</time></trkpt><trkpt lat="43.43456955162872" lon="12.639491537200838"><ele>452.0</ele><time>2026-04-26T09:49:34.98Z</time></trkpt><trkpt lat="43.434710751095714" lon="12.639354201038183"><ele>452.0</ele><time>2026-04-26T09:49:35.98Z</time></trkpt><trkpt lat="43.4348120373621" lon="12.639190450918425"><ele>450.25</ele><time>2026-04-26T09:49:36.98Z</time></trkpt><trkpt lat="43.434891203545284" lon="12.639050290344802"><ele>448.5</ele><time>2026-04-26T09:49:37.98Z</time></trkpt><trkpt lat="43.43496917137456" lon="12.638903061445095"><ele>446.75</ele><time>2026-04-26T09:49:38.98Z</time></trkpt><trkpt lat="43.43506322233247" lon="12.638784349568915"><ele>445.0</ele><time>2026-04-26T09:49:39.98Z</time></trkpt><trkpt lat="43.43515013047651" lon="12.638697707599075"><ele>445.0</ele><time>2026-04-26T09:49:40.98Z</time></trkpt><trkpt lat="43.435239395113456" lon="12.638634774687343"><ele>445.0</ele><time>2026-04-26T09:49:41.98Z</time></trkpt><trkpt lat="43.43534206352141" lon="12.638605771810523"><ele>445.0</ele><time>2026-04-26T09:49:42.98Z</time></trkpt><trkpt lat="43.43539913805961" lon="12.63855717272868"><ele>445.0</ele><time>2026-04-26T09:49:43.98Z</time></trkpt><trkpt lat="43.4354487145903" lon="12.638385983714725"><ele>445.0</ele><time>2026-04-26T09:49:45.98Z</time></trkpt><trkpt lat="43.43543619233284" lon="12.638253680232424"><ele>446.5</ele><time>2026-04-26T09:49:46.98Z</time></trkpt><trkpt lat="43.43540377489045" lon="12.638101135802405"><ele>448.0</ele><time>2026-04-26T09:49:47.98Z</time></trkpt><trkpt lat="43.43535628908717" lon="12.637946018016295"><ele>449.5</ele><time>2026-04-26T09:49:48.98Z</time></trkpt><trkpt lat="43.435298378397725" lon="12.637749247800057"><ele>451.0</ele><time>2026-04-26T09:49:49.98Z</time></trkpt><trkpt lat="43.43526985120433" lon="12.637604820708715"><ele>451.0</ele><time>2026-04-26T09:49:50.98Z</time></trkpt><trkpt lat="43.43523078480687" lon="12.637476133439131"><ele>451.0</ele><time>2026-04-26T09:49:51.98Z</time></trkpt><trkpt lat="43.435190843930854" lon="12.637361230409482"><ele>451.0</ele><time>2026-04-26T09:49:52.98Z</time></trkpt><trkpt lat="43.43511164999384" lon="12.637259531852164"><ele>451.0</ele><time>2026-04-26T09:49:53.98Z</time></trkpt><trkpt lat="43.43503142618544" lon="12.637161502281701"><ele>451.0</ele><time>2026-04-26T09:49:54.98Z</time></trkpt><trkpt lat="43.434922369647055" lon="12.63707513563756"><ele>451.00000000000006</ele><time>2026-04-26T09:49:55.98Z</time></trkpt><trkpt lat="43.43483382704216" lon="12.63702339595101"><ele>451.0</ele><time>2026-04-26T09:49:56.98Z</time></trkpt><trkpt lat="43.43478707903573" lon="12.636962504814607"><ele>451.0</ele><time>2026-04-26T09:49:57.98Z</time></trkpt><trkpt lat="43.434747332312604" lon="12.636884764539467"><ele>451.0</ele><time>2026-04-26T09:49:58.98Z</time></trkpt><trkpt lat="43.43473261204985" lon="12.6367981108594"><ele>451.00000000000006</ele><time>2026-04-26T09:49:59.98Z</time></trkpt><trkpt lat="43.434779990073885" lon="12.636709789462936"><ele>451.0</ele><time>2026-04-26T09:50:00.98Z</time></trkpt><trkpt lat="43.43483037466477" lon="12.636580914885004"><ele>446.75</ele><time>2026-04-26T09:50:01.98Z</time></trkpt><trkpt lat="43.43487105787015" lon="12.636439835559633"><ele>442.5</ele><time>2026-04-26T09:50:02.98Z</time></trkpt><trkpt lat="43.434952599084674" lon="12.63629483834208"><ele>438.25</ele><time>2026-04-26T09:50:03.98Z</time></trkpt><trkpt lat="43.435066381344065" lon="12.636132624296664"><ele>434.0</ele><time>2026-04-26T09:50:04.98Z</time></trkpt><trkpt lat="43.43522235393923" lon="12.635930052701356"><ele>429.5</ele><time>2026-04-26T09:50:05.98Z</time></trkpt><trkpt lat="43.435400141531105" lon="12.63571375682838"><ele>425.0</ele><time>2026-04-26T09:50:06.98Z</time></trkpt><trkpt lat="43.43560563414375" lon="12.63547722976981"><ele>425.0</ele><time>2026-04-26T09:50:07.98Z</time></trkpt><trkpt lat="43.43582688117932" lon="12.635226349333974"><ele>425.0</ele><time>2026-04-26T09:50:08.98Z</time></trkpt><trkpt lat="43.43605058089762" lon="12.634980195615622"><ele>425.0</ele><time>2026-04-26T09:50:09.98Z</time></trkpt><trkpt lat="43.43625497968369" lon="12.634771200663714"><ele>425.0</ele><time>2026-04-26T09:50:10.98Z</time></trkpt><trkpt lat="43.43644045616904" lon="12.634574714092967"><ele>425.66666666666663</ele><time>2026-04-26T09:50:11.98Z</time></trkpt><trkpt lat="43.43660263060682" lon="12.634396340144509"><ele>426.33333333333337</ele><time>2026-04-26T09:50:12.98Z</time></trkpt><trkpt lat="43.436759728340924" lon="12.634217362168584"><ele>427.0</ele><time>2026-04-26T09:50:13.98Z</time></trkpt><trkpt lat="43.4369262654982" lon="12.634025190665012"><ele>427.0</ele><time>2026-04-26T09:50:14.98Z</time></trkpt><trkpt lat="43.437090265338576" lon="12.633864656943954"><ele>427.0</ele><time>2026-04-26T09:50:15.981Z</time></trkpt><trkpt lat="43.43725961830994" lon="12.633721752377559"><ele>427.0</ele><time>2026-04-26T09:50:16.98Z</time></trkpt><trkpt lat="43.437438194754804" lon="12.633602892962225"><ele>423.33333333333337</ele><time>2026-04-26T09:50:17.98Z</time></trkpt><trkpt lat="43.43762152130439" lon="12.63352292934096"><ele>419.66666666666663</ele><time>2026-04-26T09:50:18.98Z</time></trkpt><trkpt lat="43.43779930292933" lon="12.633472649668729"><ele>416.0</ele><time>2026-04-26T09:50:19.98Z</time></trkpt><trkpt lat="43.4379763774443" lon="12.633433747139943"><ele>416.0</ele><time>2026-04-26T09:50:20.98Z</time></trkpt><trkpt lat="43.438161553478324" lon="12.63341124212795"><ele>416.0</ele><time>2026-04-26T09:50:21.98Z</time></trkpt><trkpt lat="43.43836148619434" lon="12.633407051763951"><ele>416.0</ele><time>2026-04-26T09:50:22.98Z</time></trkpt><trkpt lat="43.43855940037545" lon="12.633386307388351"><ele>416.0</ele><time>2026-04-26T09:50:23.98Z</time></trkpt><trkpt lat="43.43875808185112" lon="12.633350412047632"><ele>416.0</ele><time>2026-04-26T09:50:24.98Z</time></trkpt><trkpt lat="43.43895433746737" lon="12.633311169618585"><ele>416.0</ele><time>2026-04-26T09:50:25.98Z</time></trkpt><trkpt lat="43.43914960451881" lon="12.633253572491784"><ele>418.0</ele><time>2026-04-26T09:50:26.98Z</time></trkpt><trkpt lat="43.439338848151806" lon="12.63318232772877"><ele>420.0</ele><time>2026-04-26T09:50:27.98Z</time></trkpt><trkpt lat="43.43952777069596" lon="12.633090137012507"><ele>422.0</ele><time>2026-04-26T09:50:28.98Z</time></trkpt><trkpt lat="43.43972858232628" lon="12.633006303765347"><ele>423.66666666666663</ele><time>2026-04-26T09:50:29.98Z</time></trkpt><trkpt lat="43.43992407576758" lon="12.632929916154364"><ele>425.33333333333337</ele><time>2026-04-26T09:50:30.98Z</time></trkpt><trkpt lat="43.44010076731182" lon="12.632852951101277"><ele>427.0</ele><time>2026-04-26T09:50:31.98Z</time></trkpt><trkpt lat="43.44025945788849" lon="12.632767575888305"><ele>421.33333333333337</ele><time>2026-04-26T09:50:32.98Z</time></trkpt><trkpt lat="43.44041323525965" lon="12.632684273886058"><ele>415.66666666666663</ele><time>2026-04-26T09:50:33.98Z</time></trkpt><trkpt lat="43.44056557104986" lon="12.632608832129623"><ele>410.0</ele><time>2026-04-26T09:50:34.98Z</time></trkpt><trkpt lat="43.44072325405997" lon="12.632534773525602"><ele>410.0</ele><time>2026-04-26T09:50:35.98Z</time></trkpt><trkpt lat="43.44088491677148" lon="12.632453166551203"><ele>410.0</ele><time>2026-04-26T09:50:36.98Z</time></trkpt><trkpt lat="43.441041695053194" lon="12.632378629485721"><ele>410.0</ele><time>2026-04-26T09:50:37.98Z</time></trkpt><trkpt lat="43.44118857475333" lon="12.632329879661901"><ele>410.5</ele><time>2026-04-26T09:50:38.98Z</time></trkpt><trkpt lat="43.44133373674359" lon="12.632291167194207"><ele>411.0</ele><time>2026-04-26T09:50:39.98Z</time></trkpt><trkpt lat="43.44147519826374" lon="12.632265058073648"><ele>411.5</ele><time>2026-04-26T09:50:40.98Z</time></trkpt><trkpt lat="43.441594598350484" lon="12.632267758026185"><ele>412.0</ele><time>2026-04-26T09:50:41.98Z</time></trkpt><trkpt lat="43.44171372349054" lon="12.632298984406164"><ele>412.0</ele><time>2026-04-26T09:50:42.98Z</time></trkpt><trkpt lat="43.44181237715552" lon="12.632342500062862"><ele>412.0</ele><time>2026-04-26T09:50:43.98Z</time></trkpt><trkpt lat="43.44192596361071" lon="12.632412227824977"><ele>412.0</ele><time>2026-04-26T09:50:44.98Z</time></trkpt><trkpt lat="43.44204188751025" lon="12.632492697947065"><ele>412.0</ele><time>2026-04-26T09:50:45.98Z</time></trkpt><trkpt lat="43.44214333158666" lon="12.632612620206906"><ele>412.1666666666667</ele><time>2026-04-26T09:50:46.979Z</time></trkpt><trkpt lat="43.442226926545494" lon="12.632705228649655"><ele>412.33333333333337</ele><time>2026-04-26T09:50:47.979Z</time></trkpt><trkpt lat="43.44229498807887" lon="12.632811287463536"><ele>412.5</ele><time>2026-04-26T09:50:48.979Z</time></trkpt><trkpt lat="43.4423532919609" lon="12.632887015465927"><ele>412.66666666666663</ele><time>2026-04-26T09:50:49.979Z</time></trkpt><trkpt lat="43.44240246759068" lon="12.632949354322053"><ele>412.8333333333333</ele><time>2026-04-26T09:50:50.979Z</time></trkpt><trkpt lat="43.44244715745972" lon="12.633015378554045"><ele>413.0</ele><time>2026-04-26T09:50:51.979Z</time></trkpt><trkpt lat="43.44252945788573" lon="12.633116350016508"><ele>412.99999999999994</ele><time>2026-04-26T09:50:53.979Z</time></trkpt><trkpt lat="43.442594753247775" lon="12.633152027864089"><ele>413.0</ele><time>2026-04-26T09:50:55.979Z</time></trkpt><trkpt lat="43.442665407064474" lon="12.633174507125176"><ele>413.0</ele><time>2026-04-26T09:51:24.979Z</time></trkpt><trkpt lat="43.44271576221843" lon="12.633111364871157"><ele>413.0</ele><time>2026-04-26T09:52:42.978Z</time></trkpt><trkpt lat="43.442742475039836" lon="12.632965997919426"><ele>412.99999999999994</ele><time>2026-04-26T09:52:44.978Z</time></trkpt><trkpt lat="43.44272671881482" lon="12.632844798099029"><ele>413.0</ele><time>2026-04-26T09:52:45.978Z</time></trkpt><trkpt lat="43.44271448717005" lon="12.632687320122047"><ele>411.75</ele><time>2026-04-26T09:52:46.978Z</time></trkpt><trkpt lat="43.44269023364143" lon="12.632510919040808"><ele>410.5</ele><time>2026-04-26T09:52:47.978Z</time></trkpt><trkpt lat="43.442652239703" lon="12.632327539893353"><ele>409.25</ele><time>2026-04-26T09:52:48.978Z</time></trkpt><trkpt lat="43.44260970834801" lon="12.632104044553937"><ele>408.0</ele><time>2026-04-26T09:52:49.978Z</time></trkpt><trkpt lat="43.44257059686953" lon="12.631862246156725"><ele>408.0</ele><time>2026-04-26T09:52:50.978Z</time></trkpt><trkpt lat="43.442521443857295" lon="12.631629993549199"><ele>408.0</ele><time>2026-04-26T09:52:51.978Z</time></trkpt><trkpt lat="43.4424994155108" lon="12.63137725943988"><ele>408.0</ele><time>2026-04-26T09:52:52.978Z</time></trkpt><trkpt lat="43.44246529995646" lon="12.631122538707029"><ele>407.0</ele><time>2026-04-26T09:52:53.978Z</time></trkpt><trkpt lat="43.44242688335683" lon="12.630846762936288"><ele>406.0</ele><time>2026-04-26T09:52:54.978Z</time></trkpt><trkpt lat="43.442387907257626" lon="12.630568097041397"><ele>405.0</ele><time>2026-04-26T09:52:55.978Z</time></trkpt><trkpt lat="43.44235349723739" lon="12.630291319869764"><ele>404.33333333333337</ele><time>2026-04-26T09:52:56.978Z</time></trkpt><trkpt lat="43.442302626642515" lon="12.630006035603515"><ele>403.6666666666667</ele><time>2026-04-26T09:52:57.978Z</time></trkpt><trkpt lat="43.442252863823136" lon="12.62975496204447"><ele>403.0</ele><time>2026-04-26T09:52:58.978Z</time></trkpt><trkpt lat="43.44218726207315" lon="12.629494667293791"><ele>404.0</ele><time>2026-04-26T09:52:59.978Z</time></trkpt><trkpt lat="43.442097408929044" lon="12.629262216895151"><ele>405.0</ele><time>2026-04-26T09:53:00.978Z</time></trkpt><trkpt lat="43.44196939419934" lon="12.62904663026319"><ele>406.0</ele><time>2026-04-26T09:53:01.978Z</time></trkpt><trkpt lat="43.44182428289252" lon="12.628853238214965"><ele>406.0</ele><time>2026-04-26T09:53:02.978Z</time></trkpt><trkpt lat="43.44165145061021" lon="12.62867278060681"><ele>406.0</ele><time>2026-04-26T09:53:03.978Z</time></trkpt><trkpt lat="43.44146788665471" lon="12.628523506295034"><ele>406.0</ele><time>2026-04-26T09:53:04.978Z</time></trkpt><trkpt lat="43.441276134633696" lon="12.628356235285562"><ele>405.0</ele><time>2026-04-26T09:53:05.978Z</time></trkpt><trkpt lat="43.44107091825055" lon="12.628238622985798"><ele>404.0</ele><time>2026-04-26T09:53:06.978Z</time></trkpt><trkpt lat="43.44085372245799" lon="12.628103932129028"><ele>404.0</ele><time>2026-04-26T09:53:07.978Z</time></trkpt><trkpt lat="43.440664506991766" lon="12.627951390164743"><ele>404.0</ele><time>2026-04-26T09:53:08.978Z</time></trkpt><trkpt lat="43.44050436188006" lon="12.627772474873955"><ele>404.0</ele><time>2026-04-26T09:53:09.977Z</time></trkpt><trkpt lat="43.440370253375775" lon="12.62756432198668"><ele>405.3333333333333</ele><time>2026-04-26T09:53:10.977Z</time></trkpt><trkpt lat="43.44025685132878" lon="12.627344880223111"><ele>406.66666666666663</ele><time>2026-04-26T09:53:11.977Z</time></trkpt><trkpt lat="43.44021359152553" lon="12.627093606263015"><ele>408.0</ele><time>2026-04-26T09:53:12.977Z</time></trkpt><trkpt lat="43.440182815214904" lon="12.626842442105724"><ele>409.0</ele><time>2026-04-26T09:53:13.977Z</time></trkpt><trkpt lat="43.44017385496182" lon="12.62656447629121"><ele>410.0</ele><time>2026-04-26T09:53:14.977Z</time></trkpt><trkpt lat="43.440168758113636" lon="12.626272088461015"><ele>411.0</ele><time>2026-04-26T09:53:15.977Z</time></trkpt><trkpt lat="43.44014912020202" lon="12.62597911537584"><ele>411.33333333333337</ele><time>2026-04-26T09:53:16.977Z</time></trkpt><trkpt lat="43.440129298317686" lon="12.625698842668026"><ele>411.6666666666667</ele><time>2026-04-26T09:53:17.977Z</time></trkpt><trkpt lat="43.44008441634616" lon="12.62540589906822"><ele>412.0</ele><time>2026-04-26T09:53:18.977Z</time></trkpt><trkpt lat="43.43999944883106" lon="12.625119610212675"><ele>415.0</ele><time>2026-04-26T09:53:19.977Z</time></trkpt><trkpt lat="43.43989666816602" lon="12.624830751222111"><ele>418.0</ele><time>2026-04-26T09:53:20.977Z</time></trkpt><trkpt lat="43.439798705303815" lon="12.624548925196152"><ele>415.0</ele><time>2026-04-26T09:53:21.977Z</time></trkpt><trkpt lat="43.43970576451017" lon="12.624258082057064"><ele>412.0</ele><time>2026-04-26T09:53:22.977Z</time></trkpt><trkpt lat="43.43961382949565" lon="12.623968101823152"><ele>412.0</ele><time>2026-04-26T09:53:23.977Z</time></trkpt><trkpt lat="43.43953185769127" lon="12.623668156878034"><ele>412.0</ele><time>2026-04-26T09:53:24.977Z</time></trkpt><trkpt lat="43.4394486845602" lon="12.623385989787229"><ele>414.33333333333337</ele><time>2026-04-26T09:53:25.977Z</time></trkpt><trkpt lat="43.43936610558353" lon="12.623103949569769"><ele>416.66666666666663</ele><time>2026-04-26T09:53:26.977Z</time></trkpt><trkpt lat="43.439285568059866" lon="12.622830803915145"><ele>419.0</ele><time>2026-04-26T09:53:27.977Z</time></trkpt><trkpt lat="43.43921588245183" lon="12.622573016158757"><ele>420.66666666666663</ele><time>2026-04-26T09:53:28.977Z</time></trkpt><trkpt lat="43.43913346710888" lon="12.62234026432677"><ele>422.33333333333337</ele><time>2026-04-26T09:53:29.977Z</time></trkpt><trkpt lat="43.43903997856321" lon="12.622123261375206"><ele>424.0</ele><time>2026-04-26T09:53:30.977Z</time></trkpt><trkpt lat="43.438914211698425" lon="12.621927200860377"><ele>421.33333333333337</ele><time>2026-04-26T09:53:31.977Z</time></trkpt><trkpt lat="43.438758408498494" lon="12.621736360922101"><ele>418.66666666666663</ele><time>2026-04-26T09:53:32.977Z</time></trkpt><trkpt lat="43.43858149545203" lon="12.62155788055865"><ele>416.0</ele><time>2026-04-26T09:53:33.977Z</time></trkpt><trkpt lat="43.43839408671931" lon="12.621397188551848"><ele>416.0</ele><time>2026-04-26T09:53:34.977Z</time></trkpt><trkpt lat="43.43820521861353" lon="12.621238429307189"><ele>416.0</ele><time>2026-04-26T09:53:35.977Z</time></trkpt><trkpt lat="43.43801525760788" lon="12.621063722713162"><ele>418.0</ele><time>2026-04-26T09:53:36.977Z</time></trkpt><trkpt lat="43.43782301394938" lon="12.620881767668212"><ele>420.0</ele><time>2026-04-26T09:53:37.977Z</time></trkpt><trkpt lat="43.43762179385366" lon="12.620691442239123"><ele>420.0</ele><time>2026-04-26T09:53:38.977Z</time></trkpt><trkpt lat="43.43742486801874" lon="12.620493554355695"><ele>420.0</ele><time>2026-04-26T09:53:39.977Z</time></trkpt><trkpt lat="43.437223033952264" lon="12.62032086518028"><ele>419.0</ele><time>2026-04-26T09:53:40.977Z</time></trkpt><trkpt lat="43.437027381302855" lon="12.620141316254365"><ele>418.0</ele><time>2026-04-26T09:53:41.977Z</time></trkpt><trkpt lat="43.43683030861231" lon="12.619951005388323"><ele>418.0</ele><time>2026-04-26T09:53:42.977Z</time></trkpt><trkpt lat="43.436637106720816" lon="12.619770936088308"><ele>418.0</ele><time>2026-04-26T09:53:43.977Z</time></trkpt><trkpt lat="43.436453016814916" lon="12.619602403723833"><ele>420.33333333333337</ele><time>2026-04-26T09:53:44.977Z</time></trkpt><trkpt lat="43.43627727866409" lon="12.61943588168359"><ele>422.66666666666663</ele><time>2026-04-26T09:53:45.977Z</time></trkpt><trkpt lat="43.43610436930061" lon="12.619278220615273"><ele>425.0</ele><time>2026-04-26T09:53:46.977Z</time></trkpt><trkpt lat="43.43594472325855" lon="12.619113713105673"><ele>425.0</ele><time>2026-04-26T09:53:47.977Z</time></trkpt><trkpt lat="43.43580151271457" lon="12.618950628893721"><ele>425.0</ele><time>2026-04-26T09:53:48.977Z</time></trkpt><trkpt lat="43.43567086753239" lon="12.618772828845799"><ele>425.0</ele><time>2026-04-26T09:53:49.977Z</time></trkpt><trkpt lat="43.435552788863596" lon="12.618566457108598"><ele>425.0</ele><time>2026-04-26T09:53:50.977Z</time></trkpt><trkpt lat="43.43545202456492" lon="12.618334811182859"><ele>425.0</ele><time>2026-04-26T09:53:51.977Z</time></trkpt><trkpt lat="43.43539141709648" lon="12.618068854250946"><ele>425.0</ele><time>2026-04-26T09:53:52.977Z</time></trkpt><trkpt lat="43.4353435011029" lon="12.617793472250693"><ele>425.66666666666663</ele><time>2026-04-26T09:53:53.977Z</time></trkpt><trkpt lat="43.43529026601278" lon="12.617514855869286"><ele>426.33333333333337</ele><time>2026-04-26T09:53:54.977Z</time></trkpt><trkpt lat="43.43526640637353" lon="12.617223130928144"><ele>427.0</ele><time>2026-04-26T09:53:55.977Z</time></trkpt><trkpt lat="43.43523171569513" lon="12.61693861332858"><ele>428.0</ele><time>2026-04-26T09:53:56.977Z</time></trkpt><trkpt lat="43.43519171239971" lon="12.616634293040201"><ele>429.0</ele><time>2026-04-26T09:53:57.977Z</time></trkpt><trkpt lat="43.43514739535431" lon="12.61634857858949"><ele>430.0</ele><time>2026-04-26T09:53:58.977Z</time></trkpt><trkpt lat="43.43511272259309" lon="12.616062491876349"><ele>432.33333333333337</ele><time>2026-04-26T09:53:59.977Z</time></trkpt><trkpt lat="43.43508516504666" lon="12.615776769417145"><ele>434.66666666666663</ele><time>2026-04-26T09:54:00.977Z</time></trkpt><trkpt lat="43.435043816316806" lon="12.615494468848427"><ele>437.0</ele><time>2026-04-26T09:54:01.977Z</time></trkpt><trkpt lat="43.43500565419564" lon="12.61522617651041"><ele>439.3333333333333</ele><time>2026-04-26T09:54:02.977Z</time></trkpt><trkpt lat="43.43497257717386" lon="12.614955695140688"><ele>441.66666666666663</ele><time>2026-04-26T09:54:03.977Z</time></trkpt><trkpt lat="43.434931271139426" lon="12.614695539239369"><ele>444.0</ele><time>2026-04-26T09:54:04.977Z</time></trkpt><trkpt lat="43.43489430571359" lon="12.614458495165488"><ele>447.66666666666663</ele><time>2026-04-26T09:54:05.977Z</time></trkpt><trkpt lat="43.43483350365536" lon="12.614235751903879"><ele>451.3333333333333</ele><time>2026-04-26T09:54:06.977Z</time></trkpt><trkpt lat="43.43475387906706" lon="12.6140213521715"><ele>455.0</ele><time>2026-04-26T09:54:07.977Z</time></trkpt><trkpt lat="43.434668443397435" lon="12.613822653220641"><ele>449.66666666666663</ele><time>2026-04-26T09:54:08.977Z</time></trkpt><trkpt lat="43.434570046534716" lon="12.613608026696312"><ele>444.33333333333337</ele><time>2026-04-26T09:54:09.977Z</time></trkpt><trkpt lat="43.43447148321802" lon="12.613385806635527"><ele>439.0</ele><time>2026-04-26T09:54:10.977Z</time></trkpt><trkpt lat="43.43437793477973" lon="12.613154473700606"><ele>439.0</ele><time>2026-04-26T09:54:11.977Z</time></trkpt><trkpt lat="43.43428377585203" lon="12.612916926770145"><ele>439.0</ele><time>2026-04-26T09:54:12.976Z</time></trkpt><trkpt lat="43.43418522675555" lon="12.612683490271564"><ele>439.0</ele><time>2026-04-26T09:54:13.976Z</time></trkpt><trkpt lat="43.434097466801646" lon="12.612462013992964"><ele>440.6666666666667</ele><time>2026-04-26T09:54:14.977Z</time></trkpt><trkpt lat="43.434017477306114" lon="12.612240839177241"><ele>442.33333333333337</ele><time>2026-04-26T09:54:15.977Z</time></trkpt><trkpt lat="43.43393347063249" lon="12.612052843284172"><ele>444.0</ele><time>2026-04-26T09:54:16.977Z</time></trkpt><trkpt lat="43.43385759819273" lon="12.611872163312091"><ele>443.75</ele><time>2026-04-26T09:54:17.978Z</time></trkpt><trkpt lat="43.43376839089524" lon="12.611697009833616"><ele>443.5</ele><time>2026-04-26T09:54:18.978Z</time></trkpt><trkpt lat="43.43368539391945" lon="12.611543448572503"><ele>443.25</ele><time>2026-04-26T09:54:19.978Z</time></trkpt><trkpt lat="43.43358028465147" lon="12.611408115421632"><ele>443.0</ele><time>2026-04-26T09:54:20.977Z</time></trkpt><trkpt lat="43.43345742374735" lon="12.6113088754485"><ele>443.0</ele><time>2026-04-26T09:54:21.977Z</time></trkpt><trkpt lat="43.43331464217425" lon="12.611233002615961"><ele>443.0</ele><time>2026-04-26T09:54:22.977Z</time></trkpt><trkpt lat="43.43316054704667" lon="12.61117519614917"><ele>443.0</ele><time>2026-04-26T09:54:23.977Z</time></trkpt><trkpt lat="43.432997986015195" lon="12.611126240593817"><ele>444.66666666666663</ele><time>2026-04-26T09:54:24.977Z</time></trkpt><trkpt lat="43.432834378708456" lon="12.611064355160671"><ele>446.33333333333337</ele><time>2026-04-26T09:54:25.977Z</time></trkpt><trkpt lat="43.432668565786976" lon="12.610990712864073"><ele>448.0</ele><time>2026-04-26T09:54:26.977Z</time></trkpt><trkpt lat="43.43249990220951" lon="12.610903143661556"><ele>448.0</ele><time>2026-04-26T09:54:27.977Z</time></trkpt><trkpt lat="43.4323459591979" lon="12.610799360661398"><ele>448.0</ele><time>2026-04-26T09:54:28.977Z</time></trkpt><trkpt lat="43.432213267746555" lon="12.610658729918175"><ele>448.0</ele><time>2026-04-26T09:54:29.977Z</time></trkpt><trkpt lat="43.43210368631932" lon="12.610534098095215"><ele>448.75</ele><time>2026-04-26T09:54:30.977Z</time></trkpt><trkpt lat="43.43199132674791" lon="12.610454295997101"><ele>449.5</ele><time>2026-04-26T09:54:31.977Z</time></trkpt><trkpt lat="43.43188480277252" lon="12.610398204658408"><ele>450.25</ele><time>2026-04-26T09:54:32.977Z</time></trkpt><trkpt lat="43.43175685967339" lon="12.610349147997232"><ele>451.0</ele><time>2026-04-26T09:54:33.977Z</time></trkpt><trkpt lat="43.43162054318278" lon="12.61030985769959"><ele>451.0</ele><time>2026-04-26T09:54:34.977Z</time></trkpt><trkpt lat="43.431471368086456" lon="12.6102609624184"><ele>451.0</ele><time>2026-04-26T09:54:35.977Z</time></trkpt><trkpt lat="43.43131482166207" lon="12.610211929509793"><ele>451.0</ele><time>2026-04-26T09:54:36.977Z</time></trkpt><trkpt lat="43.43115229588787" lon="12.610146479107216"><ele>454.5</ele><time>2026-04-26T09:54:37.977Z</time></trkpt><trkpt lat="43.43102351824462" lon="12.610064452628142"><ele>458.0</ele><time>2026-04-26T09:54:38.977Z</time></trkpt><trkpt lat="43.430917271820725" lon="12.609979700825201"><ele>461.5</ele><time>2026-04-26T09:54:39.977Z</time></trkpt><trkpt lat="43.430804956636024" lon="12.609873493529468"><ele>465.0</ele><time>2026-04-26T09:54:40.977Z</time></trkpt><trkpt lat="43.43069264782091" lon="12.609767799630124"><ele>465.0</ele><time>2026-04-26T09:54:41.977Z</time></trkpt><trkpt lat="43.43057289619179" lon="12.609638636473324"><ele>465.0</ele><time>2026-04-26T09:54:42.977Z</time></trkpt><trkpt lat="43.430444018087975" lon="12.609527895569592"><ele>465.0</ele><time>2026-04-26T09:54:43.977Z</time></trkpt><trkpt lat="43.43032512118845" lon="12.609398536715382"><ele>466.33333333333337</ele><time>2026-04-26T09:54:44.977Z</time></trkpt><trkpt lat="43.43020895912415" lon="12.6092576689291"><ele>467.6666666666667</ele><time>2026-04-26T09:54:45.977Z</time></trkpt><trkpt lat="43.4300941745398" lon="12.609120130139445"><ele>469.0</ele><time>2026-04-26T09:54:46.977Z</time></trkpt><trkpt lat="43.42998481010953" lon="12.6089770105359"><ele>469.0</ele><time>2026-04-26T09:54:47.977Z</time></trkpt><trkpt lat="43.42987646250301" lon="12.608838749437986"><ele>469.0</ele><time>2026-04-26T09:54:48.977Z</time></trkpt><trkpt lat="43.4297709597741" lon="12.60870050345137"><ele>469.0</ele><time>2026-04-26T09:54:49.977Z</time></trkpt><trkpt lat="43.42967744221198" lon="12.608561729184588"><ele>469.0</ele><time>2026-04-26T09:54:50.977Z</time></trkpt><trkpt lat="43.42958713534447" lon="12.60843457857379"><ele>471.1666666666667</ele><time>2026-04-26T09:54:51.977Z</time></trkpt><trkpt lat="43.42951414266881" lon="12.608321422450404"><ele>473.33333333333337</ele><time>2026-04-26T09:54:52.977Z</time></trkpt><trkpt lat="43.42944524074796" lon="12.608210894722898"><ele>475.5</ele><time>2026-04-26T09:54:53.977Z</time></trkpt><trkpt lat="43.42938918243486" lon="12.608127950534596"><ele>477.66666666666663</ele><time>2026-04-26T09:54:54.977Z</time></trkpt><trkpt lat="43.42934717389438" lon="12.608051230669048"><ele>479.8333333333333</ele><time>2026-04-26T09:54:55.977Z</time></trkpt><trkpt lat="43.429309624455335" lon="12.607979210049693"><ele>482.0</ele><time>2026-04-26T09:54:56.977Z</time></trkpt><trkpt lat="43.42925636408325" lon="12.607907774823428"><ele>481.99999999999994</ele><time>2026-04-26T09:54:58.977Z</time></trkpt><trkpt lat="43.42917782357352" lon="12.607875174708361"><ele>482.0</ele><time>2026-04-26T09:59:04.974Z</time></trkpt><trkpt lat="43.42912106283147" lon="12.607816577291802"><ele>482.0</ele><time>2026-04-26T09:59:06.974Z</time></trkpt><trkpt lat="43.429051422006026" lon="12.60774795104062"><ele>482.0</ele><time>2026-04-26T09:59:16.974Z</time></trkpt><trkpt lat="43.428976672682495" lon="12.6076896582589"><ele>481.99999999999994</ele><time>2026-04-26T09:59:18.974Z</time></trkpt><trkpt lat="43.42892128804501" lon="12.60764148743195"><ele>482.0</ele><time>2026-04-26T09:59:19.974Z</time></trkpt><trkpt lat="43.4288612929169" lon="12.607586172221506"><ele>482.20000000000005</ele><time>2026-04-26T09:59:20.974Z</time></trkpt><trkpt lat="43.42878631749377" lon="12.607517031151634"><ele>482.40000000000003</ele><time>2026-04-26T09:59:21.974Z</time></trkpt><trkpt lat="43.42870454291657" lon="12.607435879668506"><ele>482.59999999999997</ele><time>2026-04-26T09:59:22.974Z</time></trkpt><trkpt lat="43.42862092946304" lon="12.607339995657792"><ele>482.79999999999995</ele><time>2026-04-26T09:59:23.974Z</time></trkpt><trkpt lat="43.428531472412836" lon="12.607223246359098"><ele>483.0</ele><time>2026-04-26T09:59:24.974Z</time></trkpt><trkpt lat="43.42843388853331" lon="12.607094359915825"><ele>476.33333333333337</ele><time>2026-04-26T09:59:25.974Z</time></trkpt><trkpt lat="43.428328490126134" lon="12.60694777996607"><ele>469.6666666666667</ele><time>2026-04-26T09:59:26.974Z</time></trkpt><trkpt lat="43.42821099358541" lon="12.606784439555618"><ele>463.0</ele><time>2026-04-26T09:59:27.974Z</time></trkpt><trkpt lat="43.42809671498763" lon="12.606607967369145"><ele>463.0</ele><time>2026-04-26T09:59:28.974Z</time></trkpt><trkpt lat="43.42798327957211" lon="12.606420825590973"><ele>463.0</ele><time>2026-04-26T09:59:29.974Z</time></trkpt><trkpt lat="43.42786506831403" lon="12.606209319587265"><ele>463.0</ele><time>2026-04-26T09:59:30.974Z</time></trkpt><trkpt lat="43.427727207362224" lon="12.605981972099219"><ele>465.6666666666667</ele><time>2026-04-26T09:59:31.974Z</time></trkpt><trkpt lat="43.427584680523296" lon="12.605777632631451"><ele>468.33333333333337</ele><time>2026-04-26T09:59:32.974Z</time></trkpt><trkpt lat="43.42743579196812" lon="12.60559168876992"><ele>471.0</ele><time>2026-04-26T09:59:33.974Z</time></trkpt><trkpt lat="43.4272841485803" lon="12.605398063646103"><ele>471.66666666666663</ele><time>2026-04-26T09:59:34.974Z</time></trkpt><trkpt lat="43.42712967467066" lon="12.605189844784"><ele>472.3333333333333</ele><time>2026-04-26T09:59:35.974Z</time></trkpt><trkpt lat="43.42696895863868" lon="12.604986216674584"><ele>473.0</ele><time>2026-04-26T09:59:36.974Z</time></trkpt><trkpt lat="43.426803441520384" lon="12.604784665871865"><ele>473.0</ele><time>2026-04-26T09:59:37.974Z</time></trkpt><trkpt lat="43.426634503851595" lon="12.604579970693374"><ele>473.0</ele><time>2026-04-26T09:59:38.973Z</time></trkpt><trkpt lat="43.4264742551896" lon="12.604382270510088"><ele>473.0</ele><time>2026-04-26T09:59:39.973Z</time></trkpt><trkpt lat="43.42633065685538" lon="12.604189295098758"><ele>473.0</ele><time>2026-04-26T09:59:40.973Z</time></trkpt><trkpt lat="43.42620743733913" lon="12.60399404659513"><ele>473.0</ele><time>2026-04-26T09:59:41.973Z</time></trkpt><trkpt lat="43.42609821784154" lon="12.60379815508023"><ele>473.0</ele><time>2026-04-26T09:59:42.973Z</time></trkpt><trkpt lat="43.42600714860611" lon="12.603561922912156"><ele>471.3333333333333</ele><time>2026-04-26T09:59:43.973Z</time></trkpt><trkpt lat="43.42593100647482" lon="12.603292934204696"><ele>469.66666666666663</ele><time>2026-04-26T09:59:44.973Z</time></trkpt><trkpt lat="43.42584762524948" lon="12.603023230205634"><ele>468.0</ele><time>2026-04-26T09:59:45.973Z</time></trkpt><trkpt lat="43.425769948667934" lon="12.602744842099826"><ele>468.0</ele><time>2026-04-26T09:59:46.973Z</time></trkpt><trkpt lat="43.42567623049061" lon="12.602464114042345"><ele>468.0</ele><time>2026-04-26T09:59:47.973Z</time></trkpt><trkpt lat="43.42557955359833" lon="12.602170150756272"><ele>465.0</ele><time>2026-04-26T09:59:48.973Z</time></trkpt><trkpt lat="43.425482574053305" lon="12.60186977765108"><ele>462.0</ele><time>2026-04-26T09:59:49.973Z</time></trkpt><trkpt lat="43.425384679692314" lon="12.601566862357513"><ele>462.0</ele><time>2026-04-26T09:59:50.973Z</time></trkpt><trkpt lat="43.425279266438004" lon="12.601259759734681"><ele>462.0</ele><time>2026-04-26T09:59:51.973Z</time></trkpt><trkpt lat="43.42518786780285" lon="12.600966566430756"><ele>462.0</ele><time>2026-04-26T09:59:52.973Z</time></trkpt><trkpt lat="43.42508757862916" lon="12.600673104276803"><ele>462.0</ele><time>2026-04-26T09:59:53.973Z</time></trkpt><trkpt lat="43.424983847315055" lon="12.6003610811248"><ele>465.0</ele><time>2026-04-26T09:59:54.973Z</time></trkpt><trkpt lat="43.42487557208949" lon="12.600054214816243"><ele>468.0</ele><time>2026-04-26T09:59:55.973Z</time></trkpt><trkpt lat="43.424780286392036" lon="12.599750118734848"><ele>467.5</ele><time>2026-04-26T09:59:56.973Z</time></trkpt><trkpt lat="43.424680643177695" lon="12.599443050517841"><ele>467.0</ele><time>2026-04-26T09:59:57.973Z</time></trkpt><trkpt lat="43.42457839771159" lon="12.599140466437962"><ele>467.0</ele><time>2026-04-26T09:59:58.973Z</time></trkpt><trkpt lat="43.424479051764365" lon="12.598838590133393"><ele>467.0</ele><time>2026-04-26T09:59:59.973Z</time></trkpt><trkpt lat="43.424375077399624" lon="12.598527188068157"><ele>467.0</ele><time>2026-04-26T10:00:00.973Z</time></trkpt><trkpt lat="43.42427302986721" lon="12.598214241092155"><ele>467.0</ele><time>2026-04-26T10:00:01.973Z</time></trkpt><trkpt lat="43.424166355053636" lon="12.597900774233244"><ele>468.5</ele><time>2026-04-26T10:00:02.973Z</time></trkpt><trkpt lat="43.42405892272304" lon="12.597576430206136"><ele>470.0</ele><time>2026-04-26T10:00:03.973Z</time></trkpt><trkpt lat="43.42394973490235" lon="12.59724805276415"><ele>469.0</ele><time>2026-04-26T10:00:04.973Z</time></trkpt><trkpt lat="43.42384217159927" lon="12.596934006890784"><ele>468.0</ele><time>2026-04-26T10:00:05.973Z</time></trkpt><trkpt lat="43.42375875623046" lon="12.596641083081117"><ele>468.0</ele><time>2026-04-26T10:00:06.973Z</time></trkpt><trkpt lat="43.423673600399724" lon="12.59638699265741"><ele>468.0</ele><time>2026-04-26T10:00:07.973Z</time></trkpt><trkpt lat="43.42361502001623" lon="12.59614918316954"><ele>468.0</ele><time>2026-04-26T10:00:08.973Z</time></trkpt><trkpt lat="43.423536382691644" lon="12.595953269868959"><ele>468.66666666666663</ele><time>2026-04-26T10:00:09.973Z</time></trkpt><trkpt lat="43.42346421173813" lon="12.595751972263214"><ele>469.3333333333333</ele><time>2026-04-26T10:00:10.973Z</time></trkpt><trkpt lat="43.423392956052226" lon="12.595522632352782"><ele>470.0</ele><time>2026-04-26T10:00:11.973Z</time></trkpt><trkpt lat="43.42332623954253" lon="12.595301203711422"><ele>471.3333333333333</ele><time>2026-04-26T10:00:12.973Z</time></trkpt><trkpt lat="43.423256836838874" lon="12.595085260734697"><ele>472.66666666666663</ele><time>2026-04-26T10:00:13.973Z</time></trkpt><trkpt lat="43.42319325167266" lon="12.594882092931137"><ele>474.0</ele><time>2026-04-26T10:00:14.973Z</time></trkpt><trkpt lat="43.42312709483111" lon="12.594699884310426"><ele>474.0</ele><time>2026-04-26T10:00:15.973Z</time></trkpt><trkpt lat="43.423070631590015" lon="12.594541954813657"><ele>474.0</ele><time>2026-04-26T10:00:16.973Z</time></trkpt><trkpt lat="43.42302273445527" lon="12.594397386957391"><ele>474.0</ele><time>2026-04-26T10:00:17.973Z</time></trkpt><trkpt lat="43.42298178254716" lon="12.594273820712054"><ele>474.0</ele><time>2026-04-26T10:00:18.973Z</time></trkpt><trkpt lat="43.42294852119731" lon="12.594169530118538"><ele>474.0</ele><time>2026-04-26T10:00:19.973Z</time></trkpt><trkpt lat="43.42292524398237" lon="12.59407075125404"><ele>473.79999999999995</ele><time>2026-04-26T10:00:20.973Z</time></trkpt><trkpt lat="43.42290475182035" lon="12.593910100480759"><ele>473.59999999999997</ele><time>2026-04-26T10:00:22.973Z</time></trkpt><trkpt lat="43.422898545003285" lon="12.593786974081029"><ele>473.4</ele><time>2026-04-26T10:00:24.973Z</time></trkpt><trkpt lat="43.422921770092586" lon="12.59368265024218"><ele>473.2</ele><time>2026-04-26T10:00:27.973Z</time></trkpt><trkpt lat="43.42293854378191" lon="12.593585119067491"><ele>473.0</ele><time>2026-04-26T10:00:29.973Z</time></trkpt><trkpt lat="43.42294151737139" lon="12.593417838408026"><ele>473.79999999999995</ele><time>2026-04-26T10:00:31.973Z</time></trkpt><trkpt lat="43.42294837158144" lon="12.593322226047505"><ele>474.59999999999997</ele><time>2026-04-26T10:00:32.973Z</time></trkpt><trkpt lat="43.42295631237473" lon="12.593165540714393"><ele>475.40000000000003</ele><time>2026-04-26T10:00:34.973Z</time></trkpt><trkpt lat="43.42297599438554" lon="12.59305227757029"><ele>476.20000000000005</ele><time>2026-04-26T10:00:36.972Z</time></trkpt><trkpt lat="43.42297718445219" lon="12.59290243737316"><ele>477.0</ele><time>2026-04-26T10:01:40.972Z</time></trkpt><trkpt lat="43.42299820778134" lon="12.592773607629331"><ele>477.0</ele><time>2026-04-26T10:02:06.971Z</time></trkpt><trkpt lat="43.42300832797143" lon="12.592673091400593"><ele>477.0</ele><time>2026-04-26T10:02:07.971Z</time></trkpt><trkpt lat="43.423038960511015" lon="12.592524254523136"><ele>477.0</ele><time>2026-04-26T10:02:08.971Z</time></trkpt><trkpt lat="43.42309312776392" lon="12.592367087412962"><ele>477.0</ele><time>2026-04-26T10:02:09.971Z</time></trkpt><trkpt lat="43.42315859469701" lon="12.59219858086853"><ele>477.66666666666663</ele><time>2026-04-26T10:02:10.971Z</time></trkpt><trkpt lat="43.423236097866955" lon="12.592001531798731"><ele>478.3333333333333</ele><time>2026-04-26T10:02:11.971Z</time></trkpt><trkpt lat="43.42332727790308" lon="12.591785722583642"><ele>479.0</ele><time>2026-04-26T10:02:12.971Z</time></trkpt><trkpt lat="43.42343625836863" lon="12.59150630844517"><ele>479.0</ele><time>2026-04-26T10:02:13.971Z</time></trkpt><trkpt lat="43.423560319651585" lon="12.591209127484728"><ele>479.0</ele><time>2026-04-26T10:02:14.971Z</time></trkpt><trkpt lat="43.42369058071344" lon="12.590910662249033"><ele>481.3333333333333</ele><time>2026-04-26T10:02:15.971Z</time></trkpt><trkpt lat="43.423833584176656" lon="12.590584735532977"><ele>483.66666666666663</ele><time>2026-04-26T10:02:16.971Z</time></trkpt><trkpt lat="43.4238842288292" lon="12.59041774098985"><ele>486.0</ele><time>2026-04-26T10:02:18.971Z</time></trkpt><trkpt lat="43.42391440339188" lon="12.590231163851328"><ele>487.75</ele><time>2026-04-26T10:02:19.971Z</time></trkpt><trkpt lat="43.423906797068206" lon="12.590061635758104"><ele>489.5</ele><time>2026-04-26T10:02:20.971Z</time></trkpt><trkpt lat="43.42384569964588" lon="12.589910361136935"><ele>491.25</ele><time>2026-04-26T10:02:21.971Z</time></trkpt><trkpt lat="43.423735782383034" lon="12.589757814471144"><ele>493.0</ele><time>2026-04-26T10:02:22.971Z</time></trkpt><trkpt lat="43.42361640235642" lon="12.589585906363704"><ele>490.25</ele><time>2026-04-26T10:02:23.971Z</time></trkpt><trkpt lat="43.42350848914306" lon="12.58941923975573"><ele>487.5</ele><time>2026-04-26T10:02:24.971Z</time></trkpt><trkpt lat="43.42342634760871" lon="12.589262855896516"><ele>484.75</ele><time>2026-04-26T10:02:25.971Z</time></trkpt><trkpt lat="43.42335557240237" lon="12.589090124517247"><ele>482.0</ele><time>2026-04-26T10:02:26.971Z</time></trkpt><trkpt lat="43.4232902575916" lon="12.588873758481165"><ele>484.3333333333333</ele><time>2026-04-26T10:02:27.971Z</time></trkpt><trkpt lat="43.42321469132372" lon="12.588620669092075"><ele>486.66666666666663</ele><time>2026-04-26T10:02:28.971Z</time></trkpt><trkpt lat="43.4231352154825" lon="12.58833871898652"><ele>489.0</ele><time>2026-04-26T10:02:29.971Z</time></trkpt><trkpt lat="43.423074206303134" lon="12.588092202977315"><ele>489.0</ele><time>2026-04-26T10:02:30.971Z</time></trkpt><trkpt lat="43.423036581329676" lon="12.587868438923229"><ele>489.0</ele><time>2026-04-26T10:02:31.971Z</time></trkpt><trkpt lat="43.423016726936844" lon="12.587668419104551"><ele>489.0</ele><time>2026-04-26T10:02:32.971Z</time></trkpt><trkpt lat="43.423018325450606" lon="12.58745029847005"><ele>490.0</ele><time>2026-04-26T10:02:33.971Z</time></trkpt><trkpt lat="43.423060769370544" lon="12.587237974515352"><ele>491.0</ele><time>2026-04-26T10:02:34.971Z</time></trkpt><trkpt lat="43.42314969727525" lon="12.587037818437501"><ele>492.0</ele><time>2026-04-26T10:02:35.971Z</time></trkpt><trkpt lat="43.42325935335713" lon="12.586853746203811"><ele>489.33333333333337</ele><time>2026-04-26T10:02:36.971Z</time></trkpt><trkpt lat="43.42339923307191" lon="12.58673100008572"><ele>486.6666666666667</ele><time>2026-04-26T10:02:37.971Z</time></trkpt><trkpt lat="43.423542700952844" lon="12.586644814656378"><ele>484.0</ele><time>2026-04-26T10:02:38.972Z</time></trkpt><trkpt lat="43.42369247775305" lon="12.586598238105376"><ele>486.6666666666667</ele><time>2026-04-26T10:02:39.971Z</time></trkpt><trkpt lat="43.42387263846643" lon="12.586538531213511"><ele>489.33333333333337</ele><time>2026-04-26T10:02:40.971Z</time></trkpt><trkpt lat="43.42404997125261" lon="12.586524496170679"><ele>492.0</ele><time>2026-04-26T10:02:41.971Z</time></trkpt><trkpt lat="43.42421576380545" lon="12.58650541836976"><ele>492.0</ele><time>2026-04-26T10:02:42.972Z</time></trkpt><trkpt lat="43.42435534951117" lon="12.586459452601032"><ele>492.0</ele><time>2026-04-26T10:02:43.972Z</time></trkpt><trkpt lat="43.42448552725351" lon="12.586375504288913"><ele>492.0</ele><time>2026-04-26T10:02:44.972Z</time></trkpt><trkpt lat="43.42460257647448" lon="12.58627718400741"><ele>492.0</ele><time>2026-04-26T10:02:45.972Z</time></trkpt><trkpt lat="43.424745390445786" lon="12.586178060845604"><ele>490.66666666666663</ele><time>2026-04-26T10:02:46.971Z</time></trkpt><trkpt lat="43.424886802437" lon="12.586056361737558"><ele>489.3333333333333</ele><time>2026-04-26T10:02:47.971Z</time></trkpt><trkpt lat="43.42504059494054" lon="12.585921465526226"><ele>488.0</ele><time>2026-04-26T10:02:48.971Z</time></trkpt><trkpt lat="43.42520539015449" lon="12.585755809173932"><ele>488.0</ele><time>2026-04-26T10:02:49.971Z</time></trkpt><trkpt lat="43.42535371137359" lon="12.58558587234886"><ele>488.0</ele><time>2026-04-26T10:02:50.971Z</time></trkpt><trkpt lat="43.42550008477083" lon="12.585417618794763"><ele>488.0</ele><time>2026-04-26T10:02:51.971Z</time></trkpt><trkpt lat="43.42565325292122" lon="12.585227035774555"><ele>490.3333333333333</ele><time>2026-04-26T10:02:52.971Z</time></trkpt><trkpt lat="43.42578938575168" lon="12.58501065271729"><ele>492.66666666666663</ele><time>2026-04-26T10:02:53.971Z</time></trkpt><trkpt lat="43.425920398192886" lon="12.584792136116189"><ele>495.0</ele><time>2026-04-26T10:02:54.971Z</time></trkpt><trkpt lat="43.42604417902257" lon="12.58458605741759"><ele>494.0</ele><time>2026-04-26T10:02:55.971Z</time></trkpt><trkpt lat="43.42616005892281" lon="12.584416597651005"><ele>493.0</ele><time>2026-04-26T10:02:56.971Z</time></trkpt><trkpt lat="43.42625141628578" lon="12.584290805414408"><ele>492.0</ele><time>2026-04-26T10:02:57.971Z</time></trkpt><trkpt lat="43.42632850890472" lon="12.58422587970314"><ele>491.0</ele><time>2026-04-26T10:02:58.971Z</time></trkpt><trkpt lat="43.42644087154612" lon="12.584286320941091"><ele>492.0</ele><time>2026-04-26T10:03:00.971Z</time></trkpt><trkpt lat="43.4264901917633" lon="12.584418636440336"><ele>493.0</ele><time>2026-04-26T10:03:01.971Z</time></trkpt><trkpt lat="43.42644424813984" lon="12.584601900065007"><ele>494.0</ele><time>2026-04-26T10:03:02.971Z</time></trkpt><trkpt lat="43.42637458400594" lon="12.584741849941945"><ele>495.0</ele><time>2026-04-26T10:03:03.971Z</time></trkpt><trkpt lat="43.426293006219744" lon="12.584867153531745"><ele>495.0</ele><time>2026-04-26T10:03:04.971Z</time></trkpt><trkpt lat="43.42620526486034" lon="12.584981763571223"><ele>495.0</ele><time>2026-04-26T10:03:05.971Z</time></trkpt><trkpt lat="43.42615233180593" lon="12.58510461158298"><ele>495.0</ele><time>2026-04-26T10:03:06.971Z</time></trkpt><trkpt lat="43.42613314673002" lon="12.58525062017798"><ele>495.0</ele><time>2026-04-26T10:03:07.971Z</time></trkpt><trkpt lat="43.42613704458907" lon="12.585428837546626"><ele>497.33333333333337</ele><time>2026-04-26T10:03:08.971Z</time></trkpt><trkpt lat="43.426170522942776" lon="12.585619481650749"><ele>499.6666666666667</ele><time>2026-04-26T10:03:09.971Z</time></trkpt><trkpt lat="43.42624687328025" lon="12.58581391494648"><ele>502.0</ele><time>2026-04-26T10:03:10.971Z</time></trkpt><trkpt lat="43.426344672082664" lon="12.586040171272623"><ele>504.20000000000005</ele><time>2026-04-26T10:03:11.971Z</time></trkpt><trkpt lat="43.42636884787847" lon="12.586188042832987"><ele>506.40000000000003</ele><time>2026-04-26T10:03:12.971Z</time></trkpt><trkpt lat="43.42632998361149" lon="12.586279542369114"><ele>508.59999999999997</ele><time>2026-04-26T10:03:13.971Z</time></trkpt><trkpt lat="43.42625252678382" lon="12.586365884667137"><ele>510.79999999999995</ele><time>2026-04-26T10:03:14.971Z</time></trkpt><trkpt lat="43.42613318232664" lon="12.58645370600137"><ele>513.0</ele><time>2026-04-26T10:03:15.971Z</time></trkpt><trkpt lat="43.42601410200233" lon="12.586527897785324"><ele>513.0</ele><time>2026-04-26T10:03:16.971Z</time></trkpt><trkpt lat="43.425935392449674" lon="12.58662023487389"><ele>513.0</ele><time>2026-04-26T10:03:17.971Z</time></trkpt><trkpt lat="43.42589419981637" lon="12.58671522977087"><ele>513.0</ele><time>2026-04-26T10:03:18.971Z</time></trkpt><trkpt lat="43.42591703854056" lon="12.586811629292505"><ele>513.0</ele><time>2026-04-26T10:03:19.971Z</time></trkpt><trkpt lat="43.42601145116227" lon="12.586866056169812"><ele>513.0</ele><time>2026-04-26T10:03:21.971Z</time></trkpt><trkpt lat="43.42610251853401" lon="12.586791727855207"><ele>513.0</ele><time>2026-04-26T10:03:22.971Z</time></trkpt><trkpt lat="43.426217040785225" lon="12.586696793036802"><ele>513.0</ele><time>2026-04-26T10:03:23.971Z</time></trkpt><trkpt lat="43.42633918630897" lon="12.586618185112084"><ele>513.0</ele><time>2026-04-26T10:03:24.971Z</time></trkpt><trkpt lat="43.426474807067805" lon="12.5865624293719"><ele>513.0</ele><time>2026-04-26T10:03:25.971Z</time></trkpt><trkpt lat="43.42661915913331" lon="12.586529337341496"><ele>516.5</ele><time>2026-04-26T10:03:26.97Z</time></trkpt><trkpt lat="43.42677482310498" lon="12.586494638066895"><ele>520.0</ele><time>2026-04-26T10:03:27.97Z</time></trkpt><trkpt lat="43.42691076649152" lon="12.586460073396879"><ele>523.5</ele><time>2026-04-26T10:03:28.97Z</time></trkpt><trkpt lat="43.42700792874041" lon="12.58636132840251"><ele>527.0</ele><time>2026-04-26T10:03:29.97Z</time></trkpt><trkpt lat="43.42707503916936" lon="12.586201765519212"><ele>525.5</ele><time>2026-04-26T10:03:30.97Z</time></trkpt><trkpt lat="43.42709789471924" lon="12.586007819763596"><ele>524.0</ele><time>2026-04-26T10:03:31.97Z</time></trkpt><trkpt lat="43.427073116566994" lon="12.585836928926538"><ele>522.5</ele><time>2026-04-26T10:03:32.97Z</time></trkpt><trkpt lat="43.426999903523516" lon="12.585716711426722"><ele>521.0</ele><time>2026-04-26T10:03:33.97Z</time></trkpt><trkpt lat="43.426962258399804" lon="12.585584494386797"><ele>521.0</ele><time>2026-04-26T10:03:34.97Z</time></trkpt><trkpt lat="43.426955381089215" lon="12.585483852596688"><ele>521.0</ele><time>2026-04-26T10:03:35.97Z</time></trkpt><trkpt lat="43.427048819845275" lon="12.585397618341936"><ele>521.0</ele><time>2026-04-26T10:03:37.97Z</time></trkpt><trkpt lat="43.42715967509083" lon="12.58538507372767"><ele>521.0</ele><time>2026-04-26T10:03:38.97Z</time></trkpt><trkpt lat="43.427299630645855" lon="12.585387567962567"><ele>521.0</ele><time>2026-04-26T10:03:39.97Z</time></trkpt><trkpt lat="43.42746246522919" lon="12.58537412507679"><ele>524.0</ele><time>2026-04-26T10:03:40.97Z</time></trkpt><trkpt lat="43.427633163524135" lon="12.585358301955067"><ele>527.0</ele><time>2026-04-26T10:03:41.97Z</time></trkpt><trkpt lat="43.42779523644886" lon="12.58534590998052"><ele>530.0</ele><time>2026-04-26T10:03:42.97Z</time></trkpt><trkpt lat="43.427931949116356" lon="12.585312493935335"><ele>535.5</ele><time>2026-04-26T10:03:43.97Z</time></trkpt><trkpt lat="43.428030159807356" lon="12.585230179149583"><ele>541.0</ele><time>2026-04-26T10:03:44.97Z</time></trkpt><trkpt lat="43.42810257755119" lon="12.585076538417601"><ele>546.5</ele><time>2026-04-26T10:03:45.97Z</time></trkpt><trkpt lat="43.42814037394416" lon="12.584879620727895"><ele>552.0</ele><time>2026-04-26T10:03:46.97Z</time></trkpt><trkpt lat="43.42813824224512" lon="12.584713084304012"><ele>552.0</ele><time>2026-04-26T10:03:47.97Z</time></trkpt><trkpt lat="43.42808145429218" lon="12.584618276423415"><ele>552.0</ele><time>2026-04-26T10:03:48.97Z</time></trkpt><trkpt lat="43.42803523333525" lon="12.584532338568858"><ele>552.0</ele><time>2026-04-26T10:03:49.97Z</time></trkpt><trkpt lat="43.42798532059339" lon="12.584395010295655"><ele>552.0</ele><time>2026-04-26T10:03:50.97Z</time></trkpt><trkpt lat="43.42798049213274" lon="12.584297299972539"><ele>552.0</ele><time>2026-04-26T10:03:51.97Z</time></trkpt><trkpt lat="43.4280879447712" lon="12.584253735433276"><ele>552.0</ele><time>2026-04-26T10:03:53.97Z</time></trkpt><trkpt lat="43.42815918241371" lon="12.58427861025323"><ele>552.0</ele><time>2026-04-26T10:03:54.97Z</time></trkpt><trkpt lat="43.42824384128406" lon="12.584365681571036"><ele>552.0</ele><time>2026-04-26T10:03:55.97Z</time></trkpt><trkpt lat="43.428319092768156" lon="12.584489832331393"><ele>552.0</ele><time>2026-04-26T10:03:56.97Z</time></trkpt><trkpt lat="43.42840191461682" lon="12.584598670345532"><ele>552.0</ele><time>2026-04-26T10:03:57.97Z</time></trkpt><trkpt lat="43.428491506448594" lon="12.584710365713393"><ele>552.0</ele><time>2026-04-26T10:03:58.97Z</time></trkpt><trkpt lat="43.42857666872973" lon="12.584816214238465"><ele>552.0</ele><time>2026-04-26T10:03:59.97Z</time></trkpt><trkpt lat="43.428662938259045" lon="12.584930868348563"><ele>552.0</ele><time>2026-04-26T10:04:00.97Z</time></trkpt><trkpt lat="43.42875450818734" lon="12.585032589643715"><ele>552.0</ele><time>2026-04-26T10:04:01.97Z</time></trkpt><trkpt lat="43.428857142707116" lon="12.585109229258578"><ele>557.0</ele><time>2026-04-26T10:04:02.97Z</time></trkpt><trkpt lat="43.42894845553946" lon="12.585174422292976"><ele>562.0</ele><time>2026-04-26T10:04:03.97Z</time></trkpt><trkpt lat="43.42902046372904" lon="12.585271784653953"><ele>567.0</ele><time>2026-04-26T10:04:04.97Z</time></trkpt><trkpt lat="43.429060983471146" lon="12.585392670496457"><ele>572.0</ele><time>2026-04-26T10:04:05.97Z</time></trkpt><trkpt lat="43.42903963893015" lon="12.585545134918673"><ele>577.0</ele><time>2026-04-26T10:04:06.97Z</time></trkpt><trkpt lat="43.428989081289224" lon="12.585713638521602"><ele>577.2</ele><time>2026-04-26T10:04:07.97Z</time></trkpt><trkpt lat="43.42894427061592" lon="12.58583057827372"><ele>577.4000000000001</ele><time>2026-04-26T10:04:08.97Z</time></trkpt><trkpt lat="43.428877603171344" lon="12.585930583728905"><ele>577.5999999999999</ele><time>2026-04-26T10:04:09.97Z</time></trkpt><trkpt lat="43.42879336654505" lon="12.586014953021573"><ele>577.8</ele><time>2026-04-26T10:04:10.97Z</time></trkpt><trkpt lat="43.42870417612927" lon="12.586085256932002"><ele>578.0</ele><time>2026-04-26T10:04:11.97Z</time></trkpt><trkpt lat="43.42860209775287" lon="12.586110599527998"><ele>576.4</ele><time>2026-04-26T10:04:12.97Z</time></trkpt><trkpt lat="43.42849357725838" lon="12.586104020100116"><ele>574.8</ele><time>2026-04-26T10:04:13.97Z</time></trkpt><trkpt lat="43.428391309088994" lon="12.586074503630286"><ele>573.2</ele><time>2026-04-26T10:04:14.97Z</time></trkpt><trkpt lat="43.42829716070853" lon="12.586070809717011"><ele>571.6</ele><time>2026-04-26T10:04:15.97Z</time></trkpt><trkpt lat="43.42818187318609" lon="12.586102555028521"><ele>570.0</ele><time>2026-04-26T10:04:17.97Z</time></trkpt><trkpt lat="43.42811932356084" lon="12.586207347610491"><ele>570.0</ele><time>2026-04-26T10:04:19.97Z</time></trkpt><trkpt lat="43.428118529776" lon="12.586302846346635"><ele>570.0</ele><time>2026-04-26T10:04:20.97Z</time></trkpt><trkpt lat="43.4281394961451" lon="12.586410086732887"><ele>570.0</ele><time>2026-04-26T10:04:21.97Z</time></trkpt><trkpt lat="43.428174267616" lon="12.586514579063127"><ele>570.0</ele><time>2026-04-26T10:04:22.97Z</time></trkpt><trkpt lat="43.42823075519945" lon="12.586636485784354"><ele>570.0</ele><time>2026-04-26T10:04:23.97Z</time></trkpt><trkpt lat="43.42831038831489" lon="12.586778444965173"><ele>570.0</ele><time>2026-04-26T10:04:24.97Z</time></trkpt><trkpt lat="43.428407611150504" lon="12.58693400907075"><ele>570.0</ele><time>2026-04-26T10:04:25.97Z</time></trkpt><trkpt lat="43.42848774364847" lon="12.587068467806796"><ele>570.0</ele><time>2026-04-26T10:04:26.97Z</time></trkpt><trkpt lat="43.42856662657809" lon="12.587207880629533"><ele>570.0</ele><time>2026-04-26T10:04:27.97Z</time></trkpt><trkpt lat="43.4286505295964" lon="12.587341583751778"><ele>568.8</ele><time>2026-04-26T10:04:28.969Z</time></trkpt><trkpt lat="43.42872495526656" lon="12.587463738009449"><ele>567.6</ele><time>2026-04-26T10:04:29.969Z</time></trkpt><trkpt lat="43.42878323341972" lon="12.587584755470102"><ele>566.4</ele><time>2026-04-26T10:04:30.969Z</time></trkpt><trkpt lat="43.428825598024865" lon="12.587707791223247"><ele>565.2</ele><time>2026-04-26T10:04:31.969Z</time></trkpt><trkpt lat="43.4288563040186" lon="12.587849109311776"><ele>564.0</ele><time>2026-04-26T10:04:32.969Z</time></trkpt><trkpt lat="43.42887092627201" lon="12.588007928797868"><ele>568.4</ele><time>2026-04-26T10:04:33.969Z</time></trkpt><trkpt lat="43.42888604233757" lon="12.588167214462931"><ele>572.8</ele><time>2026-04-26T10:04:34.969Z</time></trkpt><trkpt lat="43.42889564101426" lon="12.58831694549246"><ele>577.2</ele><time>2026-04-26T10:04:35.969Z</time></trkpt><trkpt lat="43.42890552461756" lon="12.588449157665709"><ele>581.6</ele><time>2026-04-26T10:04:36.969Z</time></trkpt><trkpt lat="43.428905469905246" lon="12.588575398965656"><ele>586.0</ele><time>2026-04-26T10:04:37.969Z</time></trkpt><trkpt lat="43.42890193406641" lon="12.588696413905526"><ele>587.2</ele><time>2026-04-26T10:04:38.969Z</time></trkpt><trkpt lat="43.42889373285896" lon="12.588819983782694"><ele>588.4000000000001</ele><time>2026-04-26T10:04:39.969Z</time></trkpt><trkpt lat="43.428854418883255" lon="12.58894861844729"><ele>589.6</ele><time>2026-04-26T10:04:40.969Z</time></trkpt><trkpt lat="43.42880118522366" lon="12.58907159418858"><ele>590.8000000000001</ele><time>2026-04-26T10:04:41.969Z</time></trkpt><trkpt lat="43.4287416383221" lon="12.589192428453341"><ele>592.0</ele><time>2026-04-26T10:04:42.969Z</time></trkpt><trkpt lat="43.42869681080866" lon="12.58930329591685"><ele>591.2</ele><time>2026-04-26T10:04:43.969Z</time></trkpt><trkpt lat="43.428641303919875" lon="12.589406991853094"><ele>590.4000000000001</ele><time>2026-04-26T10:04:44.971Z</time></trkpt><trkpt lat="43.42856855058787" lon="12.589519713300115"><ele>589.5999999999999</ele><time>2026-04-26T10:04:45.971Z</time></trkpt><trkpt lat="43.4284938125606" lon="12.589626586656602"><ele>588.8</ele><time>2026-04-26T10:04:46.971Z</time></trkpt><trkpt lat="43.428434389676546" lon="12.589709971132063"><ele>588.0</ele><time>2026-04-26T10:04:47.97Z</time></trkpt><trkpt lat="43.428380785788804" lon="12.58979724503074"><ele>588.0</ele><time>2026-04-26T10:04:48.97Z</time></trkpt><trkpt lat="43.428343005528546" lon="12.589892832868218"><ele>588.0</ele><time>2026-04-26T10:04:49.97Z</time></trkpt><trkpt lat="43.42832217554904" lon="12.589996373837085"><ele>588.0</ele><time>2026-04-26T10:04:50.97Z</time></trkpt><trkpt lat="43.428365403166055" lon="12.590101843141039"><ele>588.0</ele><time>2026-04-26T10:04:52.97Z</time></trkpt><trkpt lat="43.428548551722756" lon="12.590115417241329"><ele>588.0</ele><time>2026-04-26T10:04:54.97Z</time></trkpt><trkpt lat="43.42864923550139" lon="12.590044699595293"><ele>588.0</ele><time>2026-04-26T10:04:55.97Z</time></trkpt><trkpt lat="43.428788294316746" lon="12.589973558499825"><ele>588.0</ele><time>2026-04-26T10:04:56.97Z</time></trkpt><trkpt lat="43.428936577777066" lon="12.589885552560538"><ele>588.0</ele><time>2026-04-26T10:04:57.97Z</time></trkpt><trkpt lat="43.42907061301061" lon="12.58979778711541"><ele>589.3333333333334</ele><time>2026-04-26T10:04:58.97Z</time></trkpt><trkpt lat="43.429206988486676" lon="12.589707973752585"><ele>590.6666666666667</ele><time>2026-04-26T10:04:59.97Z</time></trkpt><trkpt lat="43.42934405246176" lon="12.5896034618925"><ele>592.0</ele><time>2026-04-26T10:05:00.97Z</time></trkpt><trkpt lat="43.429505118112246" lon="12.589506270391967"><ele>596.3333333333334</ele><time>2026-04-26T10:05:01.97Z</time></trkpt><trkpt lat="43.429658645005944" lon="12.589404217148306"><ele>600.6666666666666</ele><time>2026-04-26T10:05:02.97Z</time></trkpt><trkpt lat="43.429807191175904" lon="12.589275986695654"><ele>605.0</ele><time>2026-04-26T10:05:03.97Z</time></trkpt><trkpt lat="43.429930595600965" lon="12.58909457890968"><ele>605.0</ele><time>2026-04-26T10:05:04.97Z</time></trkpt><trkpt lat="43.43005162066028" lon="12.588895347712297"><ele>605.0</ele><time>2026-04-26T10:05:05.97Z</time></trkpt><trkpt lat="43.43016702856107" lon="12.588690843194636"><ele>605.0</ele><time>2026-04-26T10:05:06.97Z</time></trkpt><trkpt lat="43.43025845511927" lon="12.588527095297225"><ele>604.3333333333333</ele><time>2026-04-26T10:05:07.97Z</time></trkpt><trkpt lat="43.43033287077407" lon="12.588347816905328"><ele>603.6666666666666</ele><time>2026-04-26T10:05:08.97Z</time></trkpt><trkpt lat="43.43036345865281" lon="12.588121875500295"><ele>603.0</ele><time>2026-04-26T10:05:09.97Z</time></trkpt><trkpt lat="43.4303749411749" lon="12.587880883379208"><ele>605.0</ele><time>2026-04-26T10:05:10.97Z</time></trkpt><trkpt lat="43.430360473790586" lon="12.58767326536712"><ele>607.0</ele><time>2026-04-26T10:05:11.97Z</time></trkpt><trkpt lat="43.43031899368391" lon="12.587488333414239"><ele>609.0</ele><time>2026-04-26T10:05:12.97Z</time></trkpt><trkpt lat="43.4302667862083" lon="12.587344031768122"><ele>611.0</ele><time>2026-04-26T10:05:13.97Z</time></trkpt><trkpt lat="43.430140279588784" lon="12.587265403598298"><ele>611.0</ele><time>2026-04-26T10:05:14.97Z</time></trkpt><trkpt lat="43.43002015125399" lon="12.587184828806222"><ele>611.0</ele><time>2026-04-26T10:05:15.97Z</time></trkpt><trkpt lat="43.429913410053295" lon="12.587091374588594"><ele>611.0</ele><time>2026-04-26T10:05:16.97Z</time></trkpt><trkpt lat="43.429864911677754" lon="12.58698702867575"><ele>611.0</ele><time>2026-04-26T10:05:17.97Z</time></trkpt><trkpt lat="43.42986248269184" lon="12.586853110142739"><ele>611.0</ele><time>2026-04-26T10:05:18.97Z</time></trkpt><trkpt lat="43.42992814394793" lon="12.586678681036718"><ele>613.3333333333333</ele><time>2026-04-26T10:05:19.97Z</time></trkpt><trkpt lat="43.43001836967436" lon="12.58647858569706"><ele>615.6666666666666</ele><time>2026-04-26T10:05:20.97Z</time></trkpt><trkpt lat="43.43008272294072" lon="12.586262833497367"><ele>618.0</ele><time>2026-04-26T10:05:21.97Z</time></trkpt><trkpt lat="43.43013113937346" lon="12.586047781868125"><ele>618.0</ele><time>2026-04-26T10:05:22.97Z</time></trkpt><trkpt lat="43.43018202039257" lon="12.585814877190344"><ele>618.0</ele><time>2026-04-26T10:05:23.97Z</time></trkpt><trkpt lat="43.43021580065336" lon="12.58562803444859"><ele>618.0</ele><time>2026-04-26T10:05:24.97Z</time></trkpt><trkpt lat="43.430260482741694" lon="12.585505056575055"><ele>618.0</ele><time>2026-04-26T10:05:25.97Z</time></trkpt><trkpt lat="43.43032143982118" lon="12.585443400700298"><ele>618.0</ele><time>2026-04-26T10:05:26.97Z</time></trkpt><trkpt lat="43.43042468561017" lon="12.58540198568645"><ele>618.0</ele><time>2026-04-26T10:05:27.97Z</time></trkpt><trkpt lat="43.43054461321498" lon="12.585377811725357"><ele>618.0</ele><time>2026-04-26T10:05:28.97Z</time></trkpt><trkpt lat="43.43069148798348" lon="12.585392300051915"><ele>618.0</ele><time>2026-04-26T10:05:29.97Z</time></trkpt><trkpt lat="43.43083742308879" lon="12.585404058119625"><ele>621.75</ele><time>2026-04-26T10:05:30.97Z</time></trkpt><trkpt lat="43.43099906421745" lon="12.58544608278514"><ele>625.5</ele><time>2026-04-26T10:05:31.97Z</time></trkpt><trkpt lat="43.43113046170069" lon="12.585444181905153"><ele>629.25</ele><time>2026-04-26T10:05:32.97Z</time></trkpt><trkpt lat="43.4312488761043" lon="12.585373897315726"><ele>633.0</ele><time>2026-04-26T10:05:33.97Z</time></trkpt><trkpt lat="43.43137492709906" lon="12.585246410272813"><ele>633.0</ele><time>2026-04-26T10:05:34.969Z</time></trkpt><trkpt lat="43.43150442089929" lon="12.585116099010085"><ele>633.0</ele><time>2026-04-26T10:05:35.969Z</time></trkpt><trkpt lat="43.43162996716074" lon="12.585059048417268"><ele>633.0</ele><time>2026-04-26T10:05:36.969Z</time></trkpt><trkpt lat="43.43174929678531" lon="12.585054936422434"><ele>633.0</ele><time>2026-04-26T10:05:37.969Z</time></trkpt><trkpt lat="43.431887934908914" lon="12.585130900156646"><ele>633.0</ele><time>2026-04-26T10:05:38.969Z</time></trkpt><trkpt lat="43.43200890438848" lon="12.585212520999614"><ele>633.0</ele><time>2026-04-26T10:05:39.969Z</time></trkpt><trkpt lat="43.43212692361702" lon="12.585305944206516"><ele>633.0</ele><time>2026-04-26T10:05:40.969Z</time></trkpt><trkpt lat="43.43224372816345" lon="12.585371061249907"><ele>633.0</ele><time>2026-04-26T10:05:41.969Z</time></trkpt><trkpt lat="43.43235400558587" lon="12.58541480978953"><ele>634.75</ele><time>2026-04-26T10:05:42.969Z</time></trkpt><trkpt lat="43.43247495950321" lon="12.585430155643728"><ele>636.5</ele><time>2026-04-26T10:05:43.969Z</time></trkpt><trkpt lat="43.432590605348004" lon="12.585397719212507"><ele>638.25</ele><time>2026-04-26T10:05:44.969Z</time></trkpt><trkpt lat="43.432706616878406" lon="12.58535213957045"><ele>640.0</ele><time>2026-04-26T10:05:45.969Z</time></trkpt><trkpt lat="43.4328192552209" lon="12.585270045855115"><ele>640.0</ele><time>2026-04-26T10:05:46.969Z</time></trkpt><trkpt lat="43.43293283250028" lon="12.58518090327717"><ele>640.0</ele><time>2026-04-26T10:05:47.969Z</time></trkpt><trkpt lat="43.43304294825757" lon="12.58503639875096"><ele>640.0</ele><time>2026-04-26T10:05:48.969Z</time></trkpt><trkpt lat="43.433148476812995" lon="12.58488469248082"><ele>640.0</ele><time>2026-04-26T10:05:49.969Z</time></trkpt><trkpt lat="43.433259103517976" lon="12.584799247393134"><ele>643.0</ele><time>2026-04-26T10:05:50.969Z</time></trkpt><trkpt lat="43.43336132777111" lon="12.584747916603392"><ele>646.0</ele><time>2026-04-26T10:05:51.969Z</time></trkpt><trkpt lat="43.43345561943713" lon="12.58469101062662"><ele>649.0</ele><time>2026-04-26T10:05:52.969Z</time></trkpt><trkpt lat="43.43353122412702" lon="12.584614608529744"><ele>652.0</ele><time>2026-04-26T10:05:53.969Z</time></trkpt><trkpt lat="43.43354596763712" lon="12.584474750678389"><ele>655.0</ele><time>2026-04-26T10:05:54.969Z</time></trkpt><trkpt lat="43.433546483578404" lon="12.584344810285351"><ele>655.0</ele><time>2026-04-26T10:05:55.969Z</time></trkpt><trkpt lat="43.43353493151911" lon="12.584223903298165"><ele>655.0</ele><time>2026-04-26T10:05:56.969Z</time></trkpt><trkpt lat="43.43349510072809" lon="12.584097413330232"><ele>655.0</ele><time>2026-04-26T10:05:57.969Z</time></trkpt><trkpt lat="43.43346148768893" lon="12.583936958223022"><ele>655.0</ele><time>2026-04-26T10:05:58.969Z</time></trkpt><trkpt lat="43.43343986206754" lon="12.58377919725736"><ele>655.0</ele><time>2026-04-26T10:05:59.969Z</time></trkpt><trkpt lat="43.43342902653705" lon="12.583627080074642"><ele>653.4</ele><time>2026-04-26T10:06:00.969Z</time></trkpt><trkpt lat="43.43346612496865" lon="12.583513833689969"><ele>651.8</ele><time>2026-04-26T10:06:01.969Z</time></trkpt><trkpt lat="43.43352885313502" lon="12.583453649437901"><ele>650.2</ele><time>2026-04-26T10:06:02.969Z</time></trkpt><trkpt lat="43.4336087437943" lon="12.583469146999395"><ele>648.6</ele><time>2026-04-26T10:06:03.969Z</time></trkpt><trkpt lat="43.43373162388171" lon="12.583609224138813"><ele>647.0</ele><time>2026-04-26T10:06:04.969Z</time></trkpt><trkpt lat="43.433832201276005" lon="12.583758735840277"><ele>652.6666666666666</ele><time>2026-04-26T10:06:05.969Z</time></trkpt><trkpt lat="43.43390487925438" lon="12.583924192856385"><ele>658.3333333333334</ele><time>2026-04-26T10:06:06.969Z</time></trkpt><trkpt lat="43.4339749477585" lon="12.584118045521164"><ele>664.0</ele><time>2026-04-26T10:06:07.969Z</time></trkpt><trkpt lat="43.434067551718016" lon="12.584290485535156"><ele>664.0</ele><time>2026-04-26T10:06:08.969Z</time></trkpt><trkpt lat="43.434173901581374" lon="12.584446404560035"><ele>664.0</ele><time>2026-04-26T10:06:09.969Z</time></trkpt><trkpt lat="43.434288983649324" lon="12.584592296468077"><ele>664.0</ele><time>2026-04-26T10:06:10.969Z</time></trkpt><trkpt lat="43.434413453831496" lon="12.584718226120673"><ele>668.0</ele><time>2026-04-26T10:06:11.969Z</time></trkpt><trkpt lat="43.43456771158357" lon="12.584814223359421"><ele>672.0</ele><time>2026-04-26T10:06:12.969Z</time></trkpt><trkpt lat="43.43472186425999" lon="12.584900534635894"><ele>676.0</ele><time>2026-04-26T10:06:13.969Z</time></trkpt><trkpt lat="43.43484661013294" lon="12.585013052158482"><ele>676.0</ele><time>2026-04-26T10:06:14.969Z</time></trkpt><trkpt lat="43.43495749717609" lon="12.585119616785013"><ele>676.0</ele><time>2026-04-26T10:06:15.969Z</time></trkpt><trkpt lat="43.43506588543031" lon="12.585198898290468"><ele>676.0</ele><time>2026-04-26T10:06:16.969Z</time></trkpt><trkpt lat="43.43517370445244" lon="12.585221183959698"><ele>676.0</ele><time>2026-04-26T10:06:17.969Z</time></trkpt><trkpt lat="43.435272449826115" lon="12.58515944498753"><ele>676.0</ele><time>2026-04-26T10:06:18.969Z</time></trkpt><trkpt lat="43.43536449482295" lon="12.585074879087111"><ele>676.0</ele><time>2026-04-26T10:06:19.969Z</time></trkpt><trkpt lat="43.435479144769864" lon="12.584928794666848"><ele>676.0</ele><time>2026-04-26T10:06:20.969Z</time></trkpt><trkpt lat="43.43560130162002" lon="12.58480792971664"><ele>676.0</ele><time>2026-04-26T10:06:21.969Z</time></trkpt><trkpt lat="43.43572608929928" lon="12.584679035729918"><ele>676.3333333333334</ele><time>2026-04-26T10:06:22.969Z</time></trkpt><trkpt lat="43.435841605252826" lon="12.584535093136488"><ele>676.6666666666666</ele><time>2026-04-26T10:06:23.969Z</time></trkpt><trkpt lat="43.435946246541526" lon="12.584366816696585"><ele>677.0</ele><time>2026-04-26T10:06:24.969Z</time></trkpt><trkpt lat="43.43605806833971" lon="12.584191500693946"><ele>677.0</ele><time>2026-04-26T10:06:25.969Z</time></trkpt><trkpt lat="43.43617558100404" lon="12.584018463424982"><ele>677.0</ele><time>2026-04-26T10:06:26.969Z</time></trkpt><trkpt lat="43.436302866334735" lon="12.583847647240155"><ele>677.0</ele><time>2026-04-26T10:06:27.969Z</time></trkpt><trkpt lat="43.43641914432355" lon="12.583670046873912"><ele>679.3333333333333</ele><time>2026-04-26T10:06:28.969Z</time></trkpt><trkpt lat="43.43653129633869" lon="12.583485301819902"><ele>681.6666666666666</ele><time>2026-04-26T10:06:29.969Z</time></trkpt><trkpt lat="43.43661770796392" lon="12.583291667860125"><ele>684.0</ele><time>2026-04-26T10:06:30.969Z</time></trkpt><trkpt lat="43.4366941489508" lon="12.58310711488906"><ele>684.0</ele><time>2026-04-26T10:06:31.969Z</time></trkpt><trkpt lat="43.436770629302046" lon="12.582940045833276"><ele>684.0</ele><time>2026-04-26T10:06:32.969Z</time></trkpt><trkpt lat="43.436848131741414" lon="12.582775548465303"><ele>684.0</ele><time>2026-04-26T10:06:33.969Z</time></trkpt><trkpt lat="43.436941236733375" lon="12.58262081197904"><ele>684.0</ele><time>2026-04-26T10:06:34.969Z</time></trkpt><trkpt lat="43.43705605380263" lon="12.582467912108504"><ele>686.3333333333334</ele><time>2026-04-26T10:06:35.969Z</time></trkpt><trkpt lat="43.43719683704309" lon="12.582308533402415"><ele>688.6666666666667</ele><time>2026-04-26T10:06:36.968Z</time></trkpt><trkpt lat="43.437349853107186" lon="12.582138706052685"><ele>691.0</ele><time>2026-04-26T10:06:37.968Z</time></trkpt><trkpt lat="43.437490636393846" lon="12.581966344044098"><ele>691.0</ele><time>2026-04-26T10:06:38.968Z</time></trkpt><trkpt lat="43.437619865926145" lon="12.581832756529666"><ele>691.0</ele><time>2026-04-26T10:06:39.968Z</time></trkpt><trkpt lat="43.4377279855783" lon="12.581739064671149"><ele>691.0</ele><time>2026-04-26T10:06:40.968Z</time></trkpt><trkpt lat="43.43782286415809" lon="12.581685627497988"><ele>691.0</ele><time>2026-04-26T10:06:41.968Z</time></trkpt><trkpt lat="43.43790750225762" lon="12.581659135291195"><ele>692.5</ele><time>2026-04-26T10:06:42.968Z</time></trkpt><trkpt lat="43.43799292336346" lon="12.581648068733495"><ele>694.0</ele><time>2026-04-26T10:06:43.968Z</time></trkpt><trkpt lat="43.43808136181628" lon="12.581646210511543"><ele>695.5</ele><time>2026-04-26T10:06:44.968Z</time></trkpt><trkpt lat="43.438159597624235" lon="12.581635556187914"><ele>697.0</ele><time>2026-04-26T10:06:45.968Z</time></trkpt><trkpt lat="43.43824332043957" lon="12.58160277587124"><ele>698.5</ele><time>2026-04-26T10:06:46.968Z</time></trkpt><trkpt lat="43.43834538702094" lon="12.581548607073895"><ele>700.0</ele><time>2026-04-26T10:06:47.968Z</time></trkpt><trkpt lat="43.4384557158325" lon="12.581476213877433"><ele>700.0</ele><time>2026-04-26T10:06:48.968Z</time></trkpt><trkpt lat="43.4385657472335" lon="12.581403897237308"><ele>700.0</ele><time>2026-04-26T10:06:49.968Z</time></trkpt><trkpt lat="43.43866420508719" lon="12.581323975770008"><ele>700.0</ele><time>2026-04-26T10:06:50.968Z</time></trkpt><trkpt lat="43.438748302175334" lon="12.58122537789474"><ele>700.0</ele><time>2026-04-26T10:06:51.969Z</time></trkpt><trkpt lat="43.43879940969304" lon="12.581110733544003"><ele>700.0</ele><time>2026-04-26T10:06:52.969Z</time></trkpt><trkpt lat="43.4388259434936" lon="12.580982173048135"><ele>696.0</ele><time>2026-04-26T10:06:53.969Z</time></trkpt><trkpt lat="43.43879463702118" lon="12.580831222361235"><ele>692.0</ele><time>2026-04-26T10:06:54.969Z</time></trkpt><trkpt lat="43.43876879096057" lon="12.580673401422127"><ele>688.0</ele><time>2026-04-26T10:06:55.969Z</time></trkpt><trkpt lat="43.43874374801848" lon="12.580480933584571"><ele>684.0</ele><time>2026-04-26T10:06:56.968Z</time></trkpt><trkpt lat="43.438723815990386" lon="12.580279682640002"><ele>683.0</ele><time>2026-04-26T10:06:57.969Z</time></trkpt><trkpt lat="43.43869288368061" lon="12.580074249952206"><ele>682.0</ele><time>2026-04-26T10:06:58.968Z</time></trkpt><trkpt lat="43.438662749736324" lon="12.579877700963358"><ele>681.0</ele><time>2026-04-26T10:06:59.969Z</time></trkpt><trkpt lat="43.43864452231427" lon="12.57968483337847"><ele>680.0</ele><time>2026-04-26T10:07:00.969Z</time></trkpt><trkpt lat="43.438650744609085" lon="12.579504933126646"><ele>679.4</ele><time>2026-04-26T10:07:01.969Z</time></trkpt><trkpt lat="43.43867479104324" lon="12.579342632932478"><ele>678.8</ele><time>2026-04-26T10:07:02.968Z</time></trkpt><trkpt lat="43.43870943663734" lon="12.579214835453165"><ele>678.2</ele><time>2026-04-26T10:07:03.969Z</time></trkpt><trkpt lat="43.43876269268678" lon="12.579128670947387"><ele>677.6</ele><time>2026-04-26T10:07:04.969Z</time></trkpt><trkpt lat="43.43884338397843" lon="12.579082948715048"><ele>677.0</ele><time>2026-04-26T10:07:05.969Z</time></trkpt><trkpt lat="43.438927899780516" lon="12.579067932310773"><ele>680.0</ele><time>2026-04-26T10:07:06.969Z</time></trkpt><trkpt lat="43.439046607543204" lon="12.579096741789932"><ele>683.0</ele><time>2026-04-26T10:07:07.969Z</time></trkpt><trkpt lat="43.43917215312314" lon="12.57911580172586"><ele>686.0</ele><time>2026-04-26T10:07:08.969Z</time></trkpt><trkpt lat="43.43931117304889" lon="12.579137242826915"><ele>689.0</ele><time>2026-04-26T10:07:09.969Z</time></trkpt><trkpt lat="43.43947060980469" lon="12.579152357072864"><ele>689.0</ele><time>2026-04-26T10:07:10.969Z</time></trkpt><trkpt lat="43.4396126940311" lon="12.579153195385617"><ele>689.0</ele><time>2026-04-26T10:07:11.969Z</time></trkpt><trkpt lat="43.43974665682314" lon="12.579155202872972"><ele>689.0</ele><time>2026-04-26T10:07:12.969Z</time></trkpt><trkpt lat="43.43986297525227" lon="12.579147095061055"><ele>689.0</ele><time>2026-04-26T10:07:13.969Z</time></trkpt><trkpt lat="43.43996387603852" lon="12.579166315903448"><ele>689.6</ele><time>2026-04-26T10:07:14.969Z</time></trkpt><trkpt lat="43.44005887090936" lon="12.579191151997797"><ele>690.2</ele><time>2026-04-26T10:07:15.969Z</time></trkpt><trkpt lat="43.44014506038783" lon="12.579217849121243"><ele>690.8000000000001</ele><time>2026-04-26T10:07:16.969Z</time></trkpt><trkpt lat="43.44022455775388" lon="12.579248318046844"><ele>691.4000000000001</ele><time>2026-04-26T10:07:17.969Z</time></trkpt><trkpt lat="43.44030871254261" lon="12.579305894240838"><ele>692.0</ele><time>2026-04-26T10:07:18.969Z</time></trkpt><trkpt lat="43.440389442937246" lon="12.579359901983857"><ele>692.0</ele><time>2026-04-26T10:07:19.969Z</time></trkpt><trkpt lat="43.440463169584675" lon="12.579370816642758"><ele>692.0</ele><time>2026-04-26T10:07:20.969Z</time></trkpt><trkpt lat="43.44054260203814" lon="12.5793523601811"><ele>692.0</ele><time>2026-04-26T10:07:21.969Z</time></trkpt><trkpt lat="43.44060159617998" lon="12.579295913428881"><ele>692.0</ele><time>2026-04-26T10:07:22.969Z</time></trkpt><trkpt lat="43.440665370809825" lon="12.579151064809995"><ele>692.0</ele><time>2026-04-26T10:07:24.969Z</time></trkpt><trkpt lat="43.44073162114439" lon="12.579027027816316"><ele>691.6</ele><time>2026-04-26T10:07:26.968Z</time></trkpt><trkpt lat="43.440823676844865" lon="12.578906102515374"><ele>691.2</ele><time>2026-04-26T10:07:28.968Z</time></trkpt><trkpt lat="43.44088815667473" lon="12.578839522644055"><ele>690.8</ele><time>2026-04-26T10:07:29.968Z</time></trkpt><trkpt lat="43.440957865532425" lon="12.578776951684576"><ele>690.4</ele><time>2026-04-26T10:07:30.968Z</time></trkpt><trkpt lat="43.44103532220696" lon="12.578727777575612"><ele>690.0</ele><time>2026-04-26T10:07:31.968Z</time></trkpt><trkpt lat="43.44110456258932" lon="12.578693907372577"><ele>688.3333333333334</ele><time>2026-04-26T10:07:32.968Z</time></trkpt><trkpt lat="43.44115312801813" lon="12.57863385110374"><ele>686.6666666666666</ele><time>2026-04-26T10:07:33.968Z</time></trkpt><trkpt lat="43.44118919405862" lon="12.578559014743051"><ele>685.0</ele><time>2026-04-26T10:07:34.968Z</time></trkpt><trkpt lat="43.44119352715599" lon="12.57847088080682"><ele>683.3333333333333</ele><time>2026-04-26T10:07:35.968Z</time></trkpt><trkpt lat="43.44116577899338" lon="12.578340806134907"><ele>681.6666666666666</ele><time>2026-04-26T10:07:37.968Z</time></trkpt><trkpt lat="43.441148983634044" lon="12.578244170782531"><ele>680.0</ele><time>2026-04-26T10:07:38.968Z</time></trkpt><trkpt lat="43.441122255897014" lon="12.578116782624075"><ele>680.0</ele><time>2026-04-26T10:07:39.968Z</time></trkpt><trkpt lat="43.441093032945744" lon="12.577991710576683"><ele>680.0</ele><time>2026-04-26T10:07:40.968Z</time></trkpt><trkpt lat="43.44107038477773" lon="12.57787632060928"><ele>680.0</ele><time>2026-04-26T10:07:41.968Z</time></trkpt><trkpt lat="43.44105850393111" lon="12.577783064832387"><ele>680.0</ele><time>2026-04-26T10:07:42.968Z</time></trkpt><trkpt lat="43.44104876735718" lon="12.577582870932803"><ele>680.0</ele><time>2026-04-26T10:07:44.968Z</time></trkpt><trkpt lat="43.44109024629442" lon="12.57745513642024"><ele>679.8</ele><time>2026-04-26T10:07:45.968Z</time></trkpt><trkpt lat="43.441142710227" lon="12.577320006307199"><ele>679.6</ele><time>2026-04-26T10:07:46.968Z</time></trkpt><trkpt lat="43.441197249277586" lon="12.57718298304657"><ele>679.4000000000001</ele><time>2026-04-26T10:07:47.968Z</time></trkpt><trkpt lat="43.441248836851884" lon="12.577030787255305"><ele>679.2</ele><time>2026-04-26T10:07:48.968Z</time></trkpt><trkpt lat="43.44130357977185" lon="12.576911744684741"><ele>679.0</ele><time>2026-04-26T10:07:49.968Z</time></trkpt><trkpt lat="43.44136840603405" lon="12.576830592138721"><ele>680.4000000000001</ele><time>2026-04-26T10:07:50.968Z</time></trkpt><trkpt lat="43.44145594897814" lon="12.57676461225329"><ele>681.8</ele><time>2026-04-26T10:07:51.968Z</time></trkpt><trkpt lat="43.44154065820843" lon="12.576702044697855"><ele>683.2</ele><time>2026-04-26T10:07:52.968Z</time></trkpt><trkpt lat="43.4416290643642" lon="12.576646583963015"><ele>684.5999999999999</ele><time>2026-04-26T10:07:53.968Z</time></trkpt><trkpt lat="43.44171417345337" lon="12.576610900653268"><ele>686.0</ele><time>2026-04-26T10:07:54.968Z</time></trkpt><trkpt lat="43.44179258610423" lon="12.576578942057798"><ele>686.0</ele><time>2026-04-26T10:07:55.968Z</time></trkpt><trkpt lat="43.4418605503721" lon="12.576550305680973"><ele>686.0</ele><time>2026-04-26T10:07:56.968Z</time></trkpt><trkpt lat="43.441947584597536" lon="12.576428197311989"><ele>686.0</ele><time>2026-04-26T10:07:58.968Z</time></trkpt><trkpt lat="43.441983109847854" lon="12.5763464575817"><ele>686.0</ele><time>2026-04-26T10:07:59.968Z</time></trkpt><trkpt lat="43.44200764013538" lon="12.57625944066757"><ele>686.0</ele><time>2026-04-26T10:08:00.968Z</time></trkpt><trkpt lat="43.44202005569318" lon="12.576165349336557"><ele>686.0</ele><time>2026-04-26T10:08:01.968Z</time></trkpt><trkpt lat="43.44203265039917" lon="12.576064611491168"><ele>686.2857142857143</ele><time>2026-04-26T10:08:02.968Z</time></trkpt><trkpt lat="43.44204702767886" lon="12.57595816719613"><ele>686.5714285714286</ele><time>2026-04-26T10:08:03.968Z</time></trkpt><trkpt lat="43.442063081135416" lon="12.575840918698077"><ele>686.8571428571429</ele><time>2026-04-26T10:08:04.968Z</time></trkpt><trkpt lat="43.44207479126246" lon="12.575742463174484"><ele>687.1428571428571</ele><time>2026-04-26T10:08:05.968Z</time></trkpt><trkpt lat="43.442103492837646" lon="12.575661119853011"><ele>687.4285714285714</ele><time>2026-04-26T10:08:06.968Z</time></trkpt><trkpt lat="43.44214571256623" lon="12.575590229661485"><ele>687.7142857142858</ele><time>2026-04-26T10:08:07.968Z</time></trkpt><trkpt lat="43.442203306100474" lon="12.575544671318315"><ele>688.0</ele><time>2026-04-26T10:08:08.968Z</time></trkpt><trkpt lat="43.442310394095074" lon="12.575533794293415"><ele>688.0</ele><time>2026-04-26T10:08:10.968Z</time></trkpt><trkpt lat="43.442419445349636" lon="12.5756164980562"><ele>688.0</ele><time>2026-04-26T10:08:12.968Z</time></trkpt><trkpt lat="43.44248925530764" lon="12.575684838948131"><ele>688.0</ele><time>2026-04-26T10:08:13.968Z</time></trkpt><trkpt lat="43.44257567340662" lon="12.575749616023662"><ele>688.0</ele><time>2026-04-26T10:08:14.968Z</time></trkpt><trkpt lat="43.44267472849656" lon="12.575793175891969"><ele>688.0</ele><time>2026-04-26T10:08:15.968Z</time></trkpt><trkpt lat="43.442769366260656" lon="12.575799610646257"><ele>688.0</ele><time>2026-04-26T10:08:16.968Z</time></trkpt><trkpt lat="43.44284348945299" lon="12.575763071214746"><ele>688.0</ele><time>2026-04-26T10:08:17.968Z</time></trkpt><trkpt lat="43.44290114233345" lon="12.575681983809698"><ele>688.0</ele><time>2026-04-26T10:08:18.968Z</time></trkpt><trkpt lat="43.442958636114284" lon="12.575588710173832"><ele>688.0</ele><time>2026-04-26T10:08:19.968Z</time></trkpt><trkpt lat="43.44300589017994" lon="12.575489882283211"><ele>688.0</ele><time>2026-04-26T10:08:20.968Z</time></trkpt><trkpt lat="43.44304311956674" lon="12.575377919165819"><ele>688.0</ele><time>2026-04-26T10:08:21.968Z</time></trkpt><trkpt lat="43.44308723542023" lon="12.57529124221193"><ele>687.6666666666667</ele><time>2026-04-26T10:08:22.968Z</time></trkpt><trkpt lat="43.44312260555487" lon="12.575193061687827"><ele>687.3333333333334</ele><time>2026-04-26T10:08:23.968Z</time></trkpt><trkpt lat="43.44316417795231" lon="12.575091416206424"><ele>687.0</ele><time>2026-04-26T10:08:24.968Z</time></trkpt><trkpt lat="43.44322005424066" lon="12.575012788403978"><ele>686.6666666666666</ele><time>2026-04-26T10:08:25.968Z</time></trkpt><trkpt lat="43.44328909373598" lon="12.574951968721745"><ele>686.3333333333333</ele><time>2026-04-26T10:08:26.968Z</time></trkpt><trkpt lat="43.44338424350491" lon="12.57488929282399"><ele>686.0</ele><time>2026-04-26T10:08:27.968Z</time></trkpt><trkpt lat="43.44348512023161" lon="12.57483180278908"><ele>686.0</ele><time>2026-04-26T10:08:28.967Z</time></trkpt><trkpt lat="43.44360352696744" lon="12.574778578515453"><ele>686.0</ele><time>2026-04-26T10:08:29.967Z</time></trkpt><trkpt lat="43.443741544428995" lon="12.574729217643936"><ele>686.0</ele><time>2026-04-26T10:08:30.967Z</time></trkpt><trkpt lat="43.44387927203402" lon="12.574660165036557"><ele>686.0</ele><time>2026-04-26T10:08:31.967Z</time></trkpt><trkpt lat="43.44400969779187" lon="12.574597765766677"><ele>687.75</ele><time>2026-04-26T10:08:32.967Z</time></trkpt><trkpt lat="43.44413416344353" lon="12.574537676167838"><ele>689.5</ele><time>2026-04-26T10:08:33.967Z</time></trkpt><trkpt lat="43.44424946250016" lon="12.574480957375236"><ele>691.25</ele><time>2026-04-26T10:08:34.967Z</time></trkpt><trkpt lat="43.44434812484385" lon="12.574430586333742"><ele>693.0</ele><time>2026-04-26T10:08:35.967Z</time></trkpt><trkpt lat="43.444438630684886" lon="12.574378700590907"><ele>694.8333333333334</ele><time>2026-04-26T10:08:36.967Z</time></trkpt><trkpt lat="43.4445320178395" lon="12.574322862739676"><ele>696.6666666666666</ele><time>2026-04-26T10:08:37.967Z</time></trkpt><trkpt lat="43.44460616842444" lon="12.574250039813387"><ele>698.5</ele><time>2026-04-26T10:08:38.967Z</time></trkpt><trkpt lat="43.44466524090048" lon="12.57415987474468"><ele>700.3333333333333</ele><time>2026-04-26T10:08:39.967Z</time></trkpt><trkpt lat="43.44469112963416" lon="12.574058386150377"><ele>702.1666666666666</ele><time>2026-04-26T10:08:40.967Z</time></trkpt><trkpt lat="43.44469597675372" lon="12.57395830475597"><ele>704.0</ele><time>2026-04-26T10:08:41.967Z</time></trkpt><trkpt lat="43.44469219003643" lon="12.573858448175718"><ele>704.0</ele><time>2026-04-26T10:08:42.967Z</time></trkpt><trkpt lat="43.44468879272471" lon="12.573751068857792"><ele>704.0</ele><time>2026-04-26T10:08:43.967Z</time></trkpt><trkpt lat="43.44469528252821" lon="12.57363924443074"><ele>704.0</ele><time>2026-04-26T10:08:44.967Z</time></trkpt><trkpt lat="43.44469864169264" lon="12.573514920055331"><ele>704.0</ele><time>2026-04-26T10:08:45.967Z</time></trkpt><trkpt lat="43.44470635685372" lon="12.573387073257743"><ele>704.0</ele><time>2026-04-26T10:08:46.967Z</time></trkpt><trkpt lat="43.444719548351884" lon="12.573245250571478"><ele>704.0</ele><time>2026-04-26T10:08:47.967Z</time></trkpt><trkpt lat="43.4447239049201" lon="12.573137953460042"><ele>702.5714285714286</ele><time>2026-04-26T10:08:48.967Z</time></trkpt><trkpt lat="43.444756395890444" lon="12.573037569325686"><ele>701.1428571428571</ele><time>2026-04-26T10:08:49.967Z</time></trkpt><trkpt lat="43.444790508023154" lon="12.572945718879016"><ele>699.7142857142858</ele><time>2026-04-26T10:08:50.967Z</time></trkpt><trkpt lat="43.44482272012802" lon="12.572859904668103"><ele>698.2857142857142</ele><time>2026-04-26T10:08:51.967Z</time></trkpt><trkpt lat="43.444853045466544" lon="12.572778096888568"><ele>696.8571428571428</ele><time>2026-04-26T10:08:52.967Z</time></trkpt><trkpt lat="43.44488935021299" lon="12.572697811813791"><ele>695.4285714285714</ele><time>2026-04-26T10:08:53.967Z</time></trkpt><trkpt lat="43.44493715311656" lon="12.57263935865775"><ele>694.0</ele><time>2026-04-26T10:08:54.967Z</time></trkpt><trkpt lat="43.445049468673254" lon="12.572587245421428"><ele>693.8000000000001</ele><time>2026-04-26T10:08:56.967Z</time></trkpt><trkpt lat="43.44512401473592" lon="12.572557785976993"><ele>693.6</ele><time>2026-04-26T10:08:57.967Z</time></trkpt><trkpt lat="43.44520565912077" lon="12.572528758509883"><ele>693.4</ele><time>2026-04-26T10:08:58.967Z</time></trkpt><trkpt lat="43.445299134023195" lon="12.572487665025733"><ele>693.2</ele><time>2026-04-26T10:08:59.967Z</time></trkpt><trkpt lat="43.44541463470386" lon="12.572451492592771"><ele>693.0</ele><time>2026-04-26T10:09:00.968Z</time></trkpt><trkpt lat="43.44552500810507" lon="12.572414795972646"><ele>693.0</ele><time>2026-04-26T10:09:01.968Z</time></trkpt><trkpt lat="43.44561399224605" lon="12.572376820755334"><ele>693.0</ele><time>2026-04-26T10:09:02.968Z</time></trkpt><trkpt lat="43.445697842747755" lon="12.572343117946424"><ele>693.0</ele><time>2026-04-26T10:09:03.968Z</time></trkpt><trkpt lat="43.445770239352186" lon="12.572299812949813"><ele>693.0</ele><time>2026-04-26T10:09:04.968Z</time></trkpt><trkpt lat="43.445838344043196" lon="12.572270894654286"><ele>693.0</ele><time>2026-04-26T10:09:05.968Z</time></trkpt><trkpt lat="43.445899784261655" lon="12.572243971447074"><ele>693.0</ele><time>2026-04-26T10:09:06.967Z</time></trkpt><trkpt lat="43.44600799732834" lon="12.572185209906282"><ele>693.0</ele><time>2026-04-26T10:09:08.967Z</time></trkpt><trkpt lat="43.44610262944445" lon="12.572147294449492"><ele>693.0</ele><time>2026-04-26T10:09:10.968Z</time></trkpt><trkpt lat="43.44601410140215" lon="12.57216245353031"><ele>693.0</ele><time>2026-04-26T10:10:16.967Z</time></trkpt><trkpt lat="43.445934044762" lon="12.572199591218114"><ele>693.0</ele><time>2026-04-26T10:10:17.967Z</time></trkpt><trkpt lat="43.44582382953467" lon="12.572268980934526"><ele>693.0</ele><time>2026-04-26T10:10:18.967Z</time></trkpt><trkpt lat="43.44572092640189" lon="12.572338157401282"><ele>693.0</ele><time>2026-04-26T10:10:19.967Z</time></trkpt><trkpt lat="43.44559959002734" lon="12.57239461258983"><ele>693.0</ele><time>2026-04-26T10:10:20.967Z</time></trkpt><trkpt lat="43.44547831574405" lon="12.572448818926427"><ele>693.0</ele><time>2026-04-26T10:10:21.967Z</time></trkpt><trkpt lat="43.44534973249605" lon="12.572493572671128"><ele>693.0</ele><time>2026-04-26T10:10:22.967Z</time></trkpt><trkpt lat="43.445238757170166" lon="12.572535037114095"><ele>693.2</ele><time>2026-04-26T10:10:23.967Z</time></trkpt><trkpt lat="43.44513689035912" lon="12.572584855349351"><ele>693.4</ele><time>2026-04-26T10:10:24.967Z</time></trkpt><trkpt lat="43.445036701201275" lon="12.572631388186833"><ele>693.6</ele><time>2026-04-26T10:10:25.967Z</time></trkpt><trkpt lat="43.444939529494846" lon="12.572688439097327"><ele>693.8000000000001</ele><time>2026-04-26T10:10:26.967Z</time></trkpt><trkpt lat="43.44486577599125" lon="12.572770976812043"><ele>694.0</ele><time>2026-04-26T10:10:27.967Z</time></trkpt><trkpt lat="43.44480324866526" lon="12.572872345089099"><ele>694.0</ele><time>2026-04-26T10:10:28.967Z</time></trkpt><trkpt lat="43.444758171000686" lon="12.573021576354613"><ele>694.0</ele><time>2026-04-26T10:10:29.967Z</time></trkpt><trkpt lat="43.444709479909555" lon="12.573176339369871"><ele>694.0</ele><time>2026-04-26T10:10:30.967Z</time></trkpt><trkpt lat="43.44468090979589" lon="12.573344491335229"><ele>694.0</ele><time>2026-04-26T10:10:31.967Z</time></trkpt><trkpt lat="43.44466517028012" lon="12.573511960504465"><ele>696.5</ele><time>2026-04-26T10:10:32.967Z</time></trkpt><trkpt lat="43.4446564375666" lon="12.573699133515555"><ele>699.0</ele><time>2026-04-26T10:10:33.967Z</time></trkpt><trkpt lat="43.444661694077" lon="12.573865163115187"><ele>701.5</ele><time>2026-04-26T10:10:34.966Z</time></trkpt><trkpt lat="43.444660681890234" lon="12.57400762748961"><ele>704.0</ele><time>2026-04-26T10:10:35.966Z</time></trkpt><trkpt lat="43.44464241282874" lon="12.574151151997283"><ele>701.25</ele><time>2026-04-26T10:10:36.966Z</time></trkpt><trkpt lat="43.44460064487496" lon="12.574279643181894"><ele>698.5</ele><time>2026-04-26T10:10:37.966Z</time></trkpt><trkpt lat="43.444540439119805" lon="12.574390768808161"><ele>695.75</ele><time>2026-04-26T10:10:38.966Z</time></trkpt><trkpt lat="43.444447114482195" lon="12.574471469186316"><ele>693.0</ele><time>2026-04-26T10:10:39.966Z</time></trkpt><trkpt lat="43.44431083981246" lon="12.574532515820048"><ele>693.0</ele><time>2026-04-26T10:10:40.966Z</time></trkpt><trkpt lat="43.44416099749873" lon="12.574604520004891"><ele>693.0</ele><time>2026-04-26T10:10:41.966Z</time></trkpt><trkpt lat="43.44401489525316" lon="12.57467394832978"><ele>693.0</ele><time>2026-04-26T10:10:42.966Z</time></trkpt><trkpt lat="43.443854625779906" lon="12.574753269599128"><ele>690.6666666666666</ele><time>2026-04-26T10:10:43.966Z</time></trkpt><trkpt lat="43.44368057690468" lon="12.574843417645633"><ele>688.3333333333333</ele><time>2026-04-26T10:10:44.966Z</time></trkpt><trkpt lat="43.44351023236464" lon="12.574906656729574"><ele>686.0</ele><time>2026-04-26T10:10:45.966Z</time></trkpt><trkpt lat="43.44336996778904" lon="12.574959534534456"><ele>686.0</ele><time>2026-04-26T10:10:46.966Z</time></trkpt><trkpt lat="43.44325201062292" lon="12.575025884095437"><ele>686.0</ele><time>2026-04-26T10:10:47.966Z</time></trkpt><trkpt lat="43.443153943227784" lon="12.575113502297459"><ele>686.0</ele><time>2026-04-26T10:10:48.966Z</time></trkpt><trkpt lat="43.443070758692365" lon="12.57523564008323"><ele>686.0</ele><time>2026-04-26T10:10:49.966Z</time></trkpt><trkpt lat="43.44298650624794" lon="12.575387533838418"><ele>686.5</ele><time>2026-04-26T10:10:50.966Z</time></trkpt><trkpt lat="43.44293527144644" lon="12.575596924467039"><ele>687.0</ele><time>2026-04-26T10:10:51.966Z</time></trkpt><trkpt lat="43.44285504856198" lon="12.575750536693059"><ele>687.5</ele><time>2026-04-26T10:10:52.966Z</time></trkpt><trkpt lat="43.4427772727932" lon="12.575833313072161"><ele>688.0</ele><time>2026-04-26T10:10:53.966Z</time></trkpt><trkpt lat="43.44268415243372" lon="12.575867580020082"><ele>688.0</ele><time>2026-04-26T10:10:54.966Z</time></trkpt><trkpt lat="43.44258761000562" lon="12.575862735672295"><ele>688.0</ele><time>2026-04-26T10:10:55.966Z</time></trkpt><trkpt lat="43.44247690958946" lon="12.575777434726618"><ele>688.0</ele><time>2026-04-26T10:10:56.966Z</time></trkpt><trkpt lat="43.442368722205636" lon="12.575693116351811"><ele>688.0</ele><time>2026-04-26T10:10:57.966Z</time></trkpt><trkpt lat="43.44227236765837" lon="12.575640658577925"><ele>688.0</ele><time>2026-04-26T10:10:58.966Z</time></trkpt><trkpt lat="43.44218480633434" lon="12.57558260927943"><ele>688.0</ele><time>2026-04-26T10:10:59.966Z</time></trkpt><trkpt lat="43.44211900466077" lon="12.575582913164096"><ele>688.0</ele><time>2026-04-26T10:11:00.966Z</time></trkpt><trkpt lat="43.442058634020675" lon="12.575644941122135"><ele>688.0</ele><time>2026-04-26T10:11:01.966Z</time></trkpt><trkpt lat="43.44202193709928" lon="12.575868643856365"><ele>688.0</ele><time>2026-04-26T10:11:03.966Z</time></trkpt><trkpt lat="43.442011680367536" lon="12.57603973346856"><ele>687.5</ele><time>2026-04-26T10:11:04.966Z</time></trkpt><trkpt lat="43.44199116813189" lon="12.576218565179278"><ele>687.0</ele><time>2026-04-26T10:11:05.966Z</time></trkpt><trkpt lat="43.44196085516691" lon="12.576387194659793"><ele>686.5</ele><time>2026-04-26T10:11:06.966Z</time></trkpt><trkpt lat="43.441919628166914" lon="12.576517771329083"><ele>686.0</ele><time>2026-04-26T10:11:07.966Z</time></trkpt><trkpt lat="43.44184683770746" lon="12.576613713882985"><ele>686.0</ele><time>2026-04-26T10:11:08.967Z</time></trkpt><trkpt lat="43.44175596056931" lon="12.57668118699056"><ele>686.0</ele><time>2026-04-26T10:11:09.966Z</time></trkpt><trkpt lat="43.441637196743706" lon="12.576719741643359"><ele>686.0</ele><time>2026-04-26T10:11:10.966Z</time></trkpt><trkpt lat="43.44151244911249" lon="12.576779339146668"><ele>686.0</ele><time>2026-04-26T10:11:11.966Z</time></trkpt><trkpt lat="43.4413798315679" lon="12.576848938720309"><ele>684.25</ele><time>2026-04-26T10:11:12.967Z</time></trkpt><trkpt lat="43.44127073114083" lon="12.576963532432572"><ele>682.5</ele><time>2026-04-26T10:11:13.967Z</time></trkpt><trkpt lat="43.44118485817659" lon="12.577114722056525"><ele>680.75</ele><time>2026-04-26T10:11:14.966Z</time></trkpt><trkpt lat="43.441112211414975" lon="12.57729581522431"><ele>679.0</ele><time>2026-04-26T10:11:15.967Z</time></trkpt><trkpt lat="43.44105356111153" lon="12.57749100960926"><ele>679.0</ele><time>2026-04-26T10:11:16.967Z</time></trkpt><trkpt lat="43.44100353701162" lon="12.57766026214182"><ele>679.0</ele><time>2026-04-26T10:11:17.967Z</time></trkpt><trkpt lat="43.44098606764128" lon="12.577828593818353"><ele>679.0</ele><time>2026-04-26T10:11:18.967Z</time></trkpt><trkpt lat="43.441008167602355" lon="12.57797981972797"><ele>679.0</ele><time>2026-04-26T10:11:19.967Z</time></trkpt><trkpt lat="43.44104479765234" lon="12.578128365522131"><ele>679.2</ele><time>2026-04-26T10:11:20.966Z</time></trkpt><trkpt lat="43.44109667235335" lon="12.578301570871057"><ele>679.4000000000001</ele><time>2026-04-26T10:11:21.966Z</time></trkpt><trkpt lat="43.441143609383865" lon="12.578481755345534"><ele>679.6</ele><time>2026-04-26T10:11:22.966Z</time></trkpt><trkpt lat="43.44116043961877" lon="12.57860766143203"><ele>679.8</ele><time>2026-04-26T10:11:23.966Z</time></trkpt><trkpt lat="43.44113715636443" lon="12.578710077555934"><ele>680.0</ele><time>2026-04-26T10:11:24.966Z</time></trkpt><trkpt lat="43.441071567717" lon="12.578789014213777"><ele>681.6666666666666</ele><time>2026-04-26T10:11:25.966Z</time></trkpt><trkpt lat="43.4409789936374" lon="12.578840024745135"><ele>683.3333333333333</ele><time>2026-04-26T10:11:26.966Z</time></trkpt><trkpt lat="43.44091080706083" lon="12.578873865564299"><ele>685.0</ele><time>2026-04-26T10:11:27.966Z</time></trkpt><trkpt lat="43.4408544672341" lon="12.578925385814747"><ele>686.6666666666666</ele><time>2026-04-26T10:11:30.966Z</time></trkpt><trkpt lat="43.440758613332555" lon="12.579007432548106"><ele>688.3333333333334</ele><time>2026-04-26T10:11:32.966Z</time></trkpt><trkpt lat="43.44070023206229" lon="12.579082881569727"><ele>690.0</ele><time>2026-04-26T10:11:33.966Z</time></trkpt><trkpt lat="43.440640622114216" lon="12.579196992267917"><ele>690.0</ele><time>2026-04-26T10:11:34.966Z</time></trkpt><trkpt lat="43.44056137063718" lon="12.579326611537338"><ele>690.0</ele><time>2026-04-26T10:11:35.966Z</time></trkpt><trkpt lat="43.44046188172789" lon="12.579416072140384"><ele>690.0</ele><time>2026-04-26T10:11:36.966Z</time></trkpt><trkpt lat="43.44037294456135" lon="12.579428237595481"><ele>690.0</ele><time>2026-04-26T10:11:37.966Z</time></trkpt><trkpt lat="43.440274218261564" lon="12.57939091640282"><ele>690.0</ele><time>2026-04-26T10:11:38.966Z</time></trkpt><trkpt lat="43.440167383941564" lon="12.57932370157759"><ele>689.75</ele><time>2026-04-26T10:11:39.966Z</time></trkpt><trkpt lat="43.440034157500925" lon="12.579253452378463"><ele>689.5</ele><time>2026-04-26T10:11:40.966Z</time></trkpt><trkpt lat="43.43989954329008" lon="12.57922648697386"><ele>689.25</ele><time>2026-04-26T10:11:41.966Z</time></trkpt><trkpt lat="43.43974002196479" lon="12.579212098858177"><ele>689.0</ele><time>2026-04-26T10:11:42.966Z</time></trkpt><trkpt lat="43.43959451721001" lon="12.579226469327395"><ele>689.0</ele><time>2026-04-26T10:11:43.966Z</time></trkpt><trkpt lat="43.439416732047945" lon="12.57923903988494"><ele>689.0</ele><time>2026-04-26T10:11:44.966Z</time></trkpt><trkpt lat="43.4392535176359" lon="12.579227270522024"><ele>689.0</ele><time>2026-04-26T10:11:45.966Z</time></trkpt><trkpt lat="43.4390897685623" lon="12.57920751031978"><ele>689.0</ele><time>2026-04-26T10:11:46.966Z</time></trkpt><trkpt lat="43.438949249077204" lon="12.579191687467752"><ele>689.0</ele><time>2026-04-26T10:11:47.966Z</time></trkpt><trkpt lat="43.43884510741084" lon="12.579183785489372"><ele>689.0</ele><time>2026-04-26T10:11:48.966Z</time></trkpt><trkpt lat="43.43876733719005" lon="12.579195334517042"><ele>689.0</ele><time>2026-04-26T10:11:49.966Z</time></trkpt><trkpt lat="43.43870814239633" lon="12.57924550287161"><ele>689.0</ele><time>2026-04-26T10:11:50.966Z</time></trkpt><trkpt lat="43.43865823888797" lon="12.579308563469985"><ele>686.75</ele><time>2026-04-26T10:11:51.966Z</time></trkpt><trkpt lat="43.43862443017317" lon="12.579404822332286"><ele>684.5</ele><time>2026-04-26T10:11:52.966Z</time></trkpt><trkpt lat="43.43859942966058" lon="12.579530858114"><ele>682.25</ele><time>2026-04-26T10:11:53.966Z</time></trkpt><trkpt lat="43.43860276758551" lon="12.579751841743597"><ele>680.0</ele><time>2026-04-26T10:11:54.966Z</time></trkpt><trkpt lat="43.43862749509234" lon="12.579971923093057"><ele>680.0</ele><time>2026-04-26T10:11:55.966Z</time></trkpt><trkpt lat="43.43865903110391" lon="12.58018217347447"><ele>680.0</ele><time>2026-04-26T10:11:56.966Z</time></trkpt><trkpt lat="43.43870972939925" lon="12.580410985010303"><ele>680.0</ele><time>2026-04-26T10:11:57.966Z</time></trkpt><trkpt lat="43.438734098139626" lon="12.580620293309778"><ele>681.0</ele><time>2026-04-26T10:11:58.966Z</time></trkpt><trkpt lat="43.43874050935679" lon="12.580810832092617"><ele>682.0</ele><time>2026-04-26T10:11:59.966Z</time></trkpt><trkpt lat="43.43875122884692" lon="12.580978883869358"><ele>683.0</ele><time>2026-04-26T10:12:00.966Z</time></trkpt><trkpt lat="43.43874732134759" lon="12.581141261485909"><ele>684.0</ele><time>2026-04-26T10:12:01.966Z</time></trkpt><trkpt lat="43.438710386674984" lon="12.581277275445697"><ele>688.0</ele><time>2026-04-26T10:12:02.966Z</time></trkpt><trkpt lat="43.43866069951244" lon="12.581392186392002"><ele>692.0</ele><time>2026-04-26T10:12:03.966Z</time></trkpt><trkpt lat="43.438590740676794" lon="12.581496700134387"><ele>696.0</ele><time>2026-04-26T10:12:04.966Z</time></trkpt><trkpt lat="43.438493494929965" lon="12.581587709500269"><ele>700.0</ele><time>2026-04-26T10:12:05.966Z</time></trkpt><trkpt lat="43.43836046819995" lon="12.58165149460943"><ele>700.0</ele><time>2026-04-26T10:12:06.966Z</time></trkpt><trkpt lat="43.43822908653209" lon="12.581718423296984"><ele>700.0</ele><time>2026-04-26T10:12:07.966Z</time></trkpt><trkpt lat="43.4380946000649" lon="12.581773982898467"><ele>700.0</ele><time>2026-04-26T10:12:08.966Z</time></trkpt><trkpt lat="43.43796869835181" lon="12.581797905531818"><ele>700.0</ele><time>2026-04-26T10:12:09.966Z</time></trkpt><trkpt lat="43.437852585178064" lon="12.581796742040375"><ele>699.25</ele><time>2026-04-26T10:12:10.966Z</time></trkpt><trkpt lat="43.43774428712011" lon="12.581810269121117"><ele>698.5</ele><time>2026-04-26T10:12:11.966Z</time></trkpt><trkpt lat="43.437638288831174" lon="12.581845393366683"><ele>697.75</ele><time>2026-04-26T10:12:12.966Z</time></trkpt><trkpt lat="43.4375387977727" lon="12.581918556379518"><ele>697.0</ele><time>2026-04-26T10:12:13.966Z</time></trkpt><trkpt lat="43.43742894471597" lon="12.582028776627443"><ele>697.0</ele><time>2026-04-26T10:12:14.966Z</time></trkpt><trkpt lat="43.43734142986919" lon="12.582154154841602"><ele>697.0</ele><time>2026-04-26T10:12:15.966Z</time></trkpt><trkpt lat="43.437261848026864" lon="12.582255556752845"><ele>697.0</ele><time>2026-04-26T10:12:16.966Z</time></trkpt><trkpt lat="43.4371958340777" lon="12.582323117985409"><ele>697.0</ele><time>2026-04-26T10:12:17.966Z</time></trkpt><trkpt lat="43.437141643239954" lon="12.58237732621348"><ele>697.0</ele><time>2026-04-26T10:12:18.966Z</time></trkpt><trkpt lat="43.43707002295111" lon="12.582448781315033"><ele>697.0</ele><time>2026-04-26T10:12:20.966Z</time></trkpt><trkpt lat="43.4371448009964" lon="12.582406809847553"><ele>697.0</ele><time>2026-04-26T10:12:29.965Z</time></trkpt><trkpt lat="43.43720818542443" lon="12.582331907140297"><ele>697.0</ele><time>2026-04-26T10:12:30.965Z</time></trkpt><trkpt lat="43.43727949458224" lon="12.58223835104444"><ele>697.0</ele><time>2026-04-26T10:12:31.965Z</time></trkpt><trkpt lat="43.4373453619313" lon="12.582154094382581"><ele>697.0</ele><time>2026-04-26T10:12:32.965Z</time></trkpt><trkpt lat="43.437409418831734" lon="12.582085394620405"><ele>697.0</ele><time>2026-04-26T10:12:33.965Z</time></trkpt><trkpt lat="43.43748616560584" lon="12.581992676108465"><ele>697.0</ele><time>2026-04-26T10:12:35.965Z</time></trkpt><trkpt lat="43.4375259892188" lon="12.581880854834969"><ele>697.0</ele><time>2026-04-26T10:12:38.965Z</time></trkpt><trkpt lat="43.43754646522165" lon="12.58178648659042"><ele>697.0</ele><time>2026-04-26T10:12:41.965Z</time></trkpt><trkpt lat="43.43757920391166" lon="12.581861030475034"><ele>697.0</ele><time>2026-04-26T10:13:49.965Z</time></trkpt><trkpt lat="43.43751951960372" lon="12.581922877820464"><ele>697.0</ele><time>2026-04-26T10:13:51.965Z</time></trkpt><trkpt lat="43.437412413925884" lon="12.58198382096293"><ele>697.0</ele><time>2026-04-26T10:13:53.965Z</time></trkpt><trkpt lat="43.43730069408245" lon="12.582106535902652"><ele>697.0</ele><time>2026-04-26T10:13:55.964Z</time></trkpt><trkpt lat="43.43725273287388" lon="12.582167121460714"><ele>697.0</ele><time>2026-04-26T10:13:56.964Z</time></trkpt><trkpt lat="43.43720356162453" lon="12.582225453236731"><ele>697.0</ele><time>2026-04-26T10:13:57.964Z</time></trkpt><trkpt lat="43.43715108908066" lon="12.582279413485848"><ele>697.0</ele><time>2026-04-26T10:13:58.964Z</time></trkpt><trkpt lat="43.437097446088025" lon="12.582345162590961"><ele>697.0</ele><time>2026-04-26T10:13:59.964Z</time></trkpt><trkpt lat="43.43704959331721" lon="12.582403564441131"><ele>697.0</ele><time>2026-04-26T10:14:00.964Z</time></trkpt><trkpt lat="43.43700289978601" lon="12.58246928797465"><ele>697.0</ele><time>2026-04-26T10:14:01.964Z</time></trkpt><trkpt lat="43.4369456813448" lon="12.582553135213224"><ele>693.75</ele><time>2026-04-26T10:14:02.964Z</time></trkpt><trkpt lat="43.43687256685664" lon="12.582660971627437"><ele>690.5</ele><time>2026-04-26T10:14:03.964Z</time></trkpt><trkpt lat="43.43680493239071" lon="12.582769681867308"><ele>687.25</ele><time>2026-04-26T10:14:04.964Z</time></trkpt><trkpt lat="43.436729647031676" lon="12.582905550964453"><ele>684.0</ele><time>2026-04-26T10:14:05.964Z</time></trkpt><trkpt lat="43.43665263431466" lon="12.583085871553319"><ele>684.0</ele><time>2026-04-26T10:14:06.964Z</time></trkpt><trkpt lat="43.43657352590403" lon="12.583276193469837"><ele>684.0</ele><time>2026-04-26T10:14:07.964Z</time></trkpt><trkpt lat="43.436494556608615" lon="12.583461190640888"><ele>684.0</ele><time>2026-04-26T10:14:08.964Z</time></trkpt><trkpt lat="43.43639628413391" lon="12.58362782319622"><ele>681.6666666666666</ele><time>2026-04-26T10:14:09.964Z</time></trkpt><trkpt lat="43.43629729794264" lon="12.583799201468448"><ele>679.3333333333333</ele><time>2026-04-26T10:14:10.964Z</time></trkpt><trkpt lat="43.436178795599744" lon="12.583966366124635"><ele>677.0</ele><time>2026-04-26T10:14:11.964Z</time></trkpt><trkpt lat="43.436063982668855" lon="12.584125945310277"><ele>677.0</ele><time>2026-04-26T10:14:12.964Z</time></trkpt><trkpt lat="43.435949317995615" lon="12.584278713783275"><ele>677.0</ele><time>2026-04-26T10:14:13.964Z</time></trkpt><trkpt lat="43.43584697255832" lon="12.584429734620251"><ele>677.0</ele><time>2026-04-26T10:14:14.964Z</time></trkpt><trkpt lat="43.43574886764085" lon="12.58458323336505"><ele>676.75</ele><time>2026-04-26T10:14:15.964Z</time></trkpt><trkpt lat="43.43565533302419" lon="12.584715692030475"><ele>676.5</ele><time>2026-04-26T10:14:16.964Z</time></trkpt><trkpt lat="43.43555935086132" lon="12.58481917353983"><ele>676.25</ele><time>2026-04-26T10:14:17.964Z</time></trkpt><trkpt lat="43.435451444246624" lon="12.584899650857643"><ele>676.0</ele><time>2026-04-26T10:14:18.964Z</time></trkpt><trkpt lat="43.43533287008284" lon="12.58498279182404"><ele>676.0</ele><time>2026-04-26T10:14:19.964Z</time></trkpt><trkpt lat="43.43521064830633" lon="12.585082888474059"><ele>676.0</ele><time>2026-04-26T10:14:20.964Z</time></trkpt><trkpt lat="43.435092519085856" lon="12.58516526352184"><ele>676.0</ele><time>2026-04-26T10:14:21.964Z</time></trkpt><trkpt lat="43.43498862886294" lon="12.585198591403609"><ele>676.0</ele><time>2026-04-26T10:14:22.964Z</time></trkpt><trkpt lat="43.43489039105218" lon="12.585147916615965"><ele>676.0</ele><time>2026-04-26T10:14:23.964Z</time></trkpt><trkpt lat="43.434781920580654" lon="12.58505974699685"><ele>676.0</ele><time>2026-04-26T10:14:24.964Z</time></trkpt><trkpt lat="43.43466799940548" lon="12.584910289771567"><ele>676.0</ele><time>2026-04-26T10:14:25.964Z</time></trkpt><trkpt lat="43.43455108457728" lon="12.584761217844859"><ele>676.0</ele><time>2026-04-26T10:14:26.964Z</time></trkpt><trkpt lat="43.434407502066676" lon="12.58464206528538"><ele>678.6666666666667</ele><time>2026-04-26T10:14:27.964Z</time></trkpt><trkpt lat="43.43426254708381" lon="12.58452430853579"><ele>681.3333333333334</ele><time>2026-04-26T10:14:28.964Z</time></trkpt><trkpt lat="43.43412325543026" lon="12.584389886242658"><ele>684.0</ele><time>2026-04-26T10:14:29.964Z</time></trkpt><trkpt lat="43.4340056499309" lon="12.584230478841114"><ele>677.3333333333334</ele><time>2026-04-26T10:14:30.964Z</time></trkpt><trkpt lat="43.43389965829451" lon="12.5840511827988"><ele>670.6666666666667</ele><time>2026-04-26T10:14:31.964Z</time></trkpt><trkpt lat="43.4338084335067" lon="12.583871500582058"><ele>664.0</ele><time>2026-04-26T10:14:32.964Z</time></trkpt><trkpt lat="43.433733116042454" lon="12.58371521185179"><ele>662.5</ele><time>2026-04-26T10:14:33.964Z</time></trkpt><trkpt lat="43.43366032590767" lon="12.58359491251917"><ele>661.0</ele><time>2026-04-26T10:14:34.964Z</time></trkpt><trkpt lat="43.43358909746146" lon="12.583531138919817"><ele>659.5</ele><time>2026-04-26T10:14:35.964Z</time></trkpt><trkpt lat="43.43351559796933" lon="12.583517300674414"><ele>658.0</ele><time>2026-04-26T10:14:36.964Z</time></trkpt><trkpt lat="43.43344637848661" lon="12.583531728710794"><ele>656.5</ele><time>2026-04-26T10:14:37.964Z</time></trkpt><trkpt lat="43.433394879896746" lon="12.583598848658628"><ele>655.0</ele><time>2026-04-26T10:14:38.964Z</time></trkpt><trkpt lat="43.43337215745938" lon="12.58373810090086"><ele>655.0</ele><time>2026-04-26T10:14:39.964Z</time></trkpt><trkpt lat="43.433386567236845" lon="12.583914846539487"><ele>655.0</ele><time>2026-04-26T10:14:40.964Z</time></trkpt><trkpt lat="43.43340374757719" lon="12.584069461697357"><ele>655.0</ele><time>2026-04-26T10:14:41.964Z</time></trkpt><trkpt lat="43.43344483343404" lon="12.584263224286886"><ele>655.0</ele><time>2026-04-26T10:14:42.964Z</time></trkpt><trkpt lat="43.433475031565344" lon="12.584463594388566"><ele>657.25</ele><time>2026-04-26T10:14:43.964Z</time></trkpt><trkpt lat="43.433448434012305" lon="12.584625805616652"><ele>659.5</ele><time>2026-04-26T10:14:44.964Z</time></trkpt><trkpt lat="43.4333762758627" lon="12.584765300377024"><ele>661.75</ele><time>2026-04-26T10:14:45.964Z</time></trkpt><trkpt lat="43.43326961511759" lon="12.584862704760967"><ele>664.0</ele><time>2026-04-26T10:14:46.964Z</time></trkpt><trkpt lat="43.43312963516284" lon="12.584927186834229"><ele>664.0</ele><time>2026-04-26T10:14:47.964Z</time></trkpt><trkpt lat="43.43301479700055" lon="12.584994889475073"><ele>664.0</ele><time>2026-04-26T10:14:48.964Z</time></trkpt><trkpt lat="43.432911637171" lon="12.585087597497687"><ele>664.0</ele><time>2026-04-26T10:14:49.964Z</time></trkpt><trkpt lat="43.43281271600509" lon="12.585198453265965"><ele>664.0</ele><time>2026-04-26T10:14:50.964Z</time></trkpt><trkpt lat="43.43270914185937" lon="12.58531657891098"><ele>667.0</ele><time>2026-04-26T10:14:51.964Z</time></trkpt><trkpt lat="43.432569748243274" lon="12.58541481727611"><ele>670.0</ele><time>2026-04-26T10:14:52.964Z</time></trkpt><trkpt lat="43.43240717839144" lon="12.585460049262219"><ele>673.0</ele><time>2026-04-26T10:14:53.964Z</time></trkpt><trkpt lat="43.43225674344124" lon="12.585463743969335"><ele>671.75</ele><time>2026-04-26T10:14:54.964Z</time></trkpt><trkpt lat="43.432106617664054" lon="12.585412461428877"><ele>670.5</ele><time>2026-04-26T10:14:55.964Z</time></trkpt><trkpt lat="43.43196370061222" lon="12.585324916328922"><ele>669.25</ele><time>2026-04-26T10:14:56.963Z</time></trkpt><trkpt lat="43.43185993945873" lon="12.585220982202175"><ele>668.0</ele><time>2026-04-26T10:14:57.963Z</time></trkpt><trkpt lat="43.4317537875234" lon="12.585117959363817"><ele>659.25</ele><time>2026-04-26T10:14:58.963Z</time></trkpt><trkpt lat="43.43163832969561" lon="12.585070242850051"><ele>650.5</ele><time>2026-04-26T10:14:59.963Z</time></trkpt><trkpt lat="43.43152856640654" lon="12.585066704518521"><ele>641.75</ele><time>2026-04-26T10:15:00.963Z</time></trkpt><trkpt lat="43.43142930252533" lon="12.585155349543736"><ele>633.0</ele><time>2026-04-26T10:15:01.963Z</time></trkpt><trkpt lat="43.43131842381287" lon="12.585241454457407"><ele>637.0</ele><time>2026-04-26T10:15:02.963Z</time></trkpt><trkpt lat="43.431202685653666" lon="12.585332666732478"><ele>641.0</ele><time>2026-04-26T10:15:03.963Z</time></trkpt><trkpt lat="43.43107254747475" lon="12.585441554391267"><ele>645.0</ele><time>2026-04-26T10:15:04.963Z</time></trkpt><trkpt lat="43.43092216745491" lon="12.585522504324576"><ele>649.0</ele><time>2026-04-26T10:15:05.963Z</time></trkpt><trkpt lat="43.430784932959654" lon="12.585533576439063"><ele>649.0</ele><time>2026-04-26T10:15:06.963Z</time></trkpt><trkpt lat="43.43065501670812" lon="12.585510517053653"><ele>649.0</ele><time>2026-04-26T10:15:07.963Z</time></trkpt><trkpt lat="43.43053014341596" lon="12.585472671897227"><ele>649.0</ele><time>2026-04-26T10:15:08.963Z</time></trkpt><trkpt lat="43.43041448924442" lon="12.585469567386292"><ele>649.0</ele><time>2026-04-26T10:15:09.963Z</time></trkpt><trkpt lat="43.43030608540778" lon="12.585502594317116"><ele>641.25</ele><time>2026-04-26T10:15:10.963Z</time></trkpt><trkpt lat="43.43021773076153" lon="12.585574097280219"><ele>633.5</ele><time>2026-04-26T10:15:11.963Z</time></trkpt><trkpt lat="43.43017024154924" lon="12.585681916298286"><ele>625.75</ele><time>2026-04-26T10:15:12.963Z</time></trkpt><trkpt lat="43.43014141668822" lon="12.585842553722877"><ele>618.0</ele><time>2026-04-26T10:15:13.963Z</time></trkpt><trkpt lat="43.43011576768374" lon="12.586051844416433"><ele>619.6666666666666</ele><time>2026-04-26T10:15:14.964Z</time></trkpt><trkpt lat="43.430088979202814" lon="12.586273572589912"><ele>621.3333333333333</ele><time>2026-04-26T10:15:15.964Z</time></trkpt><trkpt lat="43.43004779966047" lon="12.586488125940956"><ele>623.0</ele><time>2026-04-26T10:15:16.964Z</time></trkpt><trkpt lat="43.429995557209004" lon="12.58667707257249"><ele>623.0</ele><time>2026-04-26T10:15:17.964Z</time></trkpt><trkpt lat="43.42993609982434" lon="12.5868397885579"><ele>623.0</ele><time>2026-04-26T10:15:18.964Z</time></trkpt><trkpt lat="43.429888791452385" lon="12.58696208180178"><ele>623.0</ele><time>2026-04-26T10:15:19.964Z</time></trkpt><trkpt lat="43.42986459839895" lon="12.587063834440757"><ele>623.0</ele><time>2026-04-26T10:15:20.964Z</time></trkpt><trkpt lat="43.42987780900098" lon="12.587149274388501"><ele>623.0</ele><time>2026-04-26T10:15:21.965Z</time></trkpt><trkpt lat="43.42990398492072" lon="12.587245285145793"><ele>623.0</ele><time>2026-04-26T10:15:22.965Z</time></trkpt><trkpt lat="43.43000875140318" lon="12.587366282670088"><ele>620.6</ele><time>2026-04-26T10:15:24.964Z</time></trkpt><trkpt lat="43.43007855320603" lon="12.587429380711683"><ele>618.1999999999999</ele><time>2026-04-26T10:15:25.964Z</time></trkpt><trkpt lat="43.43016354263058" lon="12.587500199898951"><ele>615.8</ele><time>2026-04-26T10:15:26.964Z</time></trkpt><trkpt lat="43.430239979445105" lon="12.5875927924056"><ele>613.4</ele><time>2026-04-26T10:15:27.964Z</time></trkpt><trkpt lat="43.43029514309178" lon="12.587699353802766"><ele>611.0</ele><time>2026-04-26T10:15:28.964Z</time></trkpt><trkpt lat="43.43032489494941" lon="12.587831303665867"><ele>609.4</ele><time>2026-04-26T10:15:29.964Z</time></trkpt><trkpt lat="43.43032496491734" lon="12.58796495709279"><ele>607.8</ele><time>2026-04-26T10:15:30.964Z</time></trkpt><trkpt lat="43.43031170975673" lon="12.588099628884878"><ele>606.1999999999999</ele><time>2026-04-26T10:15:31.964Z</time></trkpt><trkpt lat="43.430286406750696" lon="12.588232144142589"><ele>604.6</ele><time>2026-04-26T10:15:32.964Z</time></trkpt><trkpt lat="43.430263194363114" lon="12.58836268112152"><ele>603.0</ele><time>2026-04-26T10:15:33.964Z</time></trkpt><trkpt lat="43.43022147258336" lon="12.588490992298022"><ele>603.0</ele><time>2026-04-26T10:15:34.964Z</time></trkpt><trkpt lat="43.430171504781406" lon="12.588616470076715"><ele>603.0</ele><time>2026-04-26T10:15:35.964Z</time></trkpt><trkpt lat="43.43011268070921" lon="12.588729626998376"><ele>603.0</ele><time>2026-04-26T10:15:36.964Z</time></trkpt><trkpt lat="43.43003846934975" lon="12.588826393148294"><ele>603.0</ele><time>2026-04-26T10:15:37.964Z</time></trkpt><trkpt lat="43.429965979390296" lon="12.5889267054644"><ele>603.0</ele><time>2026-04-26T10:15:38.964Z</time></trkpt><trkpt lat="43.42989504085563" lon="12.589029594854756"><ele>603.4</ele><time>2026-04-26T10:15:39.964Z</time></trkpt><trkpt lat="43.42982200767394" lon="12.589142498107872"><ele>603.8</ele><time>2026-04-26T10:15:40.964Z</time></trkpt><trkpt lat="43.42974698154102" lon="12.589254433772064"><ele>604.2</ele><time>2026-04-26T10:15:41.964Z</time></trkpt><trkpt lat="43.429673088419605" lon="12.589359266242484"><ele>604.6</ele><time>2026-04-26T10:15:42.964Z</time></trkpt><trkpt lat="43.429592562214374" lon="12.589454706348489"><ele>605.0</ele><time>2026-04-26T10:15:43.964Z</time></trkpt><trkpt lat="43.4294960587798" lon="12.589540586564759"><ele>604.0</ele><time>2026-04-26T10:15:44.964Z</time></trkpt><trkpt lat="43.42940546964533" lon="12.5896155572031"><ele>603.0</ele><time>2026-04-26T10:15:45.964Z</time></trkpt><trkpt lat="43.429306572359344" lon="12.589679947244523"><ele>602.0</ele><time>2026-04-26T10:15:46.964Z</time></trkpt><trkpt lat="43.429202221413995" lon="12.589745761527254"><ele>601.0</ele><time>2026-04-26T10:15:47.964Z</time></trkpt><trkpt lat="43.42909979347346" lon="12.589807719556651"><ele>600.0</ele><time>2026-04-26T10:15:48.964Z</time></trkpt><trkpt lat="43.429007587442655" lon="12.5898704652939"><ele>600.0</ele><time>2026-04-26T10:15:49.964Z</time></trkpt><trkpt lat="43.42891971961458" lon="12.589915681028637"><ele>600.0</ele><time>2026-04-26T10:15:50.964Z</time></trkpt><trkpt lat="43.428819772710774" lon="12.589976064810031"><ele>600.0</ele><time>2026-04-26T10:15:51.964Z</time></trkpt><trkpt lat="43.42871618892685" lon="12.59004630428467"><ele>600.0</ele><time>2026-04-26T10:15:52.964Z</time></trkpt><trkpt lat="43.428622840312165" lon="12.590099729517963"><ele>600.0</ele><time>2026-04-26T10:15:53.964Z</time></trkpt><trkpt lat="43.428536341482015" lon="12.590129477299197"><ele>597.6</ele><time>2026-04-26T10:15:54.964Z</time></trkpt><trkpt lat="43.428446665059624" lon="12.590124185588014"><ele>595.2</ele><time>2026-04-26T10:15:55.964Z</time></trkpt><trkpt lat="43.42836901616321" lon="12.590095166491336"><ele>592.8</ele><time>2026-04-26T10:15:56.964Z</time></trkpt><trkpt lat="43.42833324099442" lon="12.589936305298698"><ele>590.4</ele><time>2026-04-26T10:15:58.964Z</time></trkpt><trkpt lat="43.428382038648344" lon="12.589812712800123"><ele>588.0</ele><time>2026-04-26T10:15:59.964Z</time></trkpt><trkpt lat="43.428456126675506" lon="12.589691997204486"><ele>588.0</ele><time>2026-04-26T10:16:00.964Z</time></trkpt><trkpt lat="43.42852749994597" lon="12.589572684759737"><ele>588.0</ele><time>2026-04-26T10:16:01.964Z</time></trkpt><trkpt lat="43.42860725389339" lon="12.589454417672455"><ele>588.0</ele><time>2026-04-26T10:16:02.964Z</time></trkpt><trkpt lat="43.42868663278388" lon="12.589326366357705"><ele>588.0</ele><time>2026-04-26T10:16:03.964Z</time></trkpt><trkpt lat="43.428753437440896" lon="12.5891935794742"><ele>587.6</ele><time>2026-04-26T10:16:04.964Z</time></trkpt><trkpt lat="43.42880491579608" lon="12.589062840368442"><ele>587.1999999999999</ele><time>2026-04-26T10:16:05.964Z</time></trkpt><trkpt lat="43.42884100052156" lon="12.588932335382848"><ele>586.8</ele><time>2026-04-26T10:16:06.964Z</time></trkpt><trkpt lat="43.42887632881169" lon="12.588798439633809"><ele>586.4</ele><time>2026-04-26T10:16:07.964Z</time></trkpt><trkpt lat="43.42890580419844" lon="12.588665146548625"><ele>586.0</ele><time>2026-04-26T10:16:08.964Z</time></trkpt><trkpt lat="43.42892751735813" lon="12.588513713605435"><ele>586.0</ele><time>2026-04-26T10:16:09.964Z</time></trkpt><trkpt lat="43.42894546774692" lon="12.588334367630905"><ele>586.0</ele><time>2026-04-26T10:16:10.964Z</time></trkpt><trkpt lat="43.42891953621805" lon="12.588119038996345"><ele>586.0</ele><time>2026-04-26T10:16:11.964Z</time></trkpt><trkpt lat="43.42888043980061" lon="12.587875183737518"><ele>587.6666666666667</ele><time>2026-04-26T10:16:12.964Z</time></trkpt><trkpt lat="43.42883161125003" lon="12.587668106769339"><ele>589.3333333333334</ele><time>2026-04-26T10:16:13.964Z</time></trkpt><trkpt lat="43.42876414961101" lon="12.587472296552251"><ele>591.0</ele><time>2026-04-26T10:16:14.964Z</time></trkpt><trkpt lat="43.428656523942514" lon="12.587281555304124"><ele>584.0</ele><time>2026-04-26T10:16:15.964Z</time></trkpt><trkpt lat="43.428538494674015" lon="12.58708291102012"><ele>577.0</ele><time>2026-04-26T10:16:16.964Z</time></trkpt><trkpt lat="43.428436053698356" lon="12.586886264013717"><ele>570.0</ele><time>2026-04-26T10:16:17.964Z</time></trkpt><trkpt lat="43.42833127718199" lon="12.586703974668087"><ele>570.0</ele><time>2026-04-26T10:16:18.964Z</time></trkpt><trkpt lat="43.42823926013489" lon="12.58653865758872"><ele>570.0</ele><time>2026-04-26T10:16:19.964Z</time></trkpt><trkpt lat="43.42817595628638" lon="12.586393563764208"><ele>570.0</ele><time>2026-04-26T10:16:20.964Z</time></trkpt><trkpt lat="43.42814341750771" lon="12.586268915396774"><ele>570.0</ele><time>2026-04-26T10:16:21.964Z</time></trkpt><trkpt lat="43.42813456965999" lon="12.586175007215303"><ele>570.0</ele><time>2026-04-26T10:16:22.964Z</time></trkpt><trkpt lat="43.4281601795861" lon="12.586092898441846"><ele>566.25</ele><time>2026-04-26T10:16:23.964Z</time></trkpt><trkpt lat="43.428217947377156" lon="12.586027485992425"><ele>562.5</ele><time>2026-04-26T10:16:24.963Z</time></trkpt><trkpt lat="43.42831859881762" lon="12.58599071577252"><ele>558.75</ele><time>2026-04-26T10:16:25.963Z</time></trkpt><trkpt lat="43.428457788338186" lon="12.58598686414483"><ele>555.0</ele><time>2026-04-26T10:16:26.963Z</time></trkpt><trkpt lat="43.42859589361921" lon="12.585996106078454"><ele>555.0</ele><time>2026-04-26T10:16:27.963Z</time></trkpt><trkpt lat="43.42871556539368" lon="12.585997690929188"><ele>555.0</ele><time>2026-04-26T10:16:28.963Z</time></trkpt><trkpt lat="43.4288171366448" lon="12.585967899269418"><ele>555.0</ele><time>2026-04-26T10:16:29.963Z</time></trkpt><trkpt lat="43.428909910283835" lon="12.585911764843146"><ele>555.0</ele><time>2026-04-26T10:16:30.963Z</time></trkpt><trkpt lat="43.428972716651195" lon="12.585808752610395"><ele>555.0</ele><time>2026-04-26T10:16:31.963Z</time></trkpt><trkpt lat="43.42902167293247" lon="12.585694844657825"><ele>560.5</ele><time>2026-04-26T10:16:32.963Z</time></trkpt><trkpt lat="43.42903849796389" lon="12.585526726341595"><ele>566.0</ele><time>2026-04-26T10:16:33.963Z</time></trkpt><trkpt lat="43.42905023177049" lon="12.585355147184517"><ele>571.5</ele><time>2026-04-26T10:16:34.963Z</time></trkpt><trkpt lat="43.4290269526411" lon="12.585215213183247"><ele>577.0</ele><time>2026-04-26T10:16:35.963Z</time></trkpt><trkpt lat="43.428965542845056" lon="12.585090982175021"><ele>577.0</ele><time>2026-04-26T10:16:36.963Z</time></trkpt><trkpt lat="43.428862083173" lon="12.585003946907626"><ele>577.0</ele><time>2026-04-26T10:16:37.963Z</time></trkpt><trkpt lat="43.42873604816006" lon="12.584927814525027"><ele>577.0</ele><time>2026-04-26T10:16:38.963Z</time></trkpt><trkpt lat="43.42858993231968" lon="12.584775955907082"><ele>577.0</ele><time>2026-04-26T10:16:39.963Z</time></trkpt><trkpt lat="43.42847029424485" lon="12.584667365666506"><ele>573.0</ele><time>2026-04-26T10:16:40.963Z</time></trkpt><trkpt lat="43.428363491842376" lon="12.584547773174634"><ele>569.0</ele><time>2026-04-26T10:16:41.963Z</time></trkpt><trkpt lat="43.42826499917471" lon="12.584422591006781"><ele>565.0</ele><time>2026-04-26T10:16:42.963Z</time></trkpt><trkpt lat="43.42817255557649" lon="12.584319926527694"><ele>561.0</ele><time>2026-04-26T10:16:43.963Z</time></trkpt><trkpt lat="43.428074860924276" lon="12.584248030478886"><ele>561.0</ele><time>2026-04-26T10:16:44.963Z</time></trkpt><trkpt lat="43.42800202710561" lon="12.584228789239853"><ele>561.0</ele><time>2026-04-26T10:16:45.963Z</time></trkpt><trkpt lat="43.42793908994434" lon="12.584247201078405"><ele>561.0</ele><time>2026-04-26T10:16:46.963Z</time></trkpt><trkpt lat="43.42790298316018" lon="12.58432134433515"><ele>561.0</ele><time>2026-04-26T10:16:47.963Z</time></trkpt><trkpt lat="43.42791325524181" lon="12.584504845782357"><ele>561.0</ele><time>2026-04-26T10:16:49.963Z</time></trkpt><trkpt lat="43.427964510132945" lon="12.584603401038395"><ele>561.0</ele><time>2026-04-26T10:16:50.963Z</time></trkpt><trkpt lat="43.42800085381159" lon="12.584745464564197"><ele>559.5</ele><time>2026-04-26T10:16:51.963Z</time></trkpt><trkpt lat="43.42803627679125" lon="12.58486560788304"><ele>558.0</ele><time>2026-04-26T10:16:52.963Z</time></trkpt><trkpt lat="43.42805931435249" lon="12.58498218762303"><ele>556.5</ele><time>2026-04-26T10:16:53.963Z</time></trkpt><trkpt lat="43.42802968870159" lon="12.585094741173698"><ele>555.0</ele><time>2026-04-26T10:16:54.963Z</time></trkpt><trkpt lat="43.427991255667166" lon="12.585189559557405"><ele>553.5</ele><time>2026-04-26T10:16:55.963Z</time></trkpt><trkpt lat="43.42794949150032" lon="12.585264720329373"><ele>552.0</ele><time>2026-04-26T10:16:56.963Z</time></trkpt><trkpt lat="43.42785913401783" lon="12.585369826442726"><ele>550.1666666666666</ele><time>2026-04-26T10:16:58.963Z</time></trkpt><trkpt lat="43.427761411331815" lon="12.585424210076036"><ele>548.3333333333334</ele><time>2026-04-26T10:17:00.963Z</time></trkpt><trkpt lat="43.427698206844276" lon="12.585429964551706"><ele>546.5</ele><time>2026-04-26T10:17:01.963Z</time></trkpt><trkpt lat="43.42762202956225" lon="12.585422711162632"><ele>544.6666666666667</ele><time>2026-04-26T10:17:02.963Z</time></trkpt><trkpt lat="43.427540781509414" lon="12.585420370478516"><ele>542.8333333333334</ele><time>2026-04-26T10:17:03.963Z</time></trkpt><trkpt lat="43.42746332426468" lon="12.585423485114282"><ele>541.0</ele><time>2026-04-26T10:17:04.963Z</time></trkpt><trkpt lat="43.42738637669059" lon="12.585432102295082"><ele>541.0</ele><time>2026-04-26T10:17:05.963Z</time></trkpt><trkpt lat="43.42730712548497" lon="12.585447289108016"><ele>541.0</ele><time>2026-04-26T10:17:06.963Z</time></trkpt><trkpt lat="43.427216087932564" lon="12.585454873208674"><ele>541.0</ele><time>2026-04-26T10:17:07.963Z</time></trkpt><trkpt lat="43.427130867578995" lon="12.585453537908348"><ele>541.0</ele><time>2026-04-26T10:17:08.963Z</time></trkpt><trkpt lat="43.4270540224152" lon="12.585445688408324"><ele>541.0</ele><time>2026-04-26T10:17:09.963Z</time></trkpt><trkpt lat="43.42698034902211" lon="12.585450643866585"><ele>541.0</ele><time>2026-04-26T10:17:10.963Z</time></trkpt><trkpt lat="43.42691961933443" lon="12.585482248501803"><ele>537.6666666666667</ele><time>2026-04-26T10:17:11.963Z</time></trkpt><trkpt lat="43.42688089048091" lon="12.585559739100187"><ele>534.3333333333334</ele><time>2026-04-26T10:17:12.963Z</time></trkpt><trkpt lat="43.42689072014361" lon="12.585653924949924"><ele>531.0</ele><time>2026-04-26T10:17:13.963Z</time></trkpt><trkpt lat="43.42693867873818" lon="12.585774241268906"><ele>527.6666666666666</ele><time>2026-04-26T10:17:14.963Z</time></trkpt><trkpt lat="43.42697325391187" lon="12.585893673445947"><ele>524.3333333333333</ele><time>2026-04-26T10:17:15.963Z</time></trkpt><trkpt lat="43.4270139646264" lon="12.586026734729653"><ele>521.0</ele><time>2026-04-26T10:17:16.963Z</time></trkpt><trkpt lat="43.42704936677053" lon="12.586162861097455"><ele>522.2</ele><time>2026-04-26T10:17:17.963Z</time></trkpt><trkpt lat="43.42702984957191" lon="12.586276430049939"><ele>523.4000000000001</ele><time>2026-04-26T10:17:18.963Z</time></trkpt><trkpt lat="43.426962015752935" lon="12.58639179115279"><ele>524.6</ele><time>2026-04-26T10:17:19.963Z</time></trkpt><trkpt lat="43.42688815328485" lon="12.586491605471595"><ele>525.8000000000001</ele><time>2026-04-26T10:17:20.963Z</time></trkpt><trkpt lat="43.426802624630334" lon="12.586587220931916"><ele>527.0</ele><time>2026-04-26T10:17:21.963Z</time></trkpt><trkpt lat="43.42665383001081" lon="12.586646266690963"><ele>527.0</ele><time>2026-04-26T10:17:22.963Z</time></trkpt><trkpt lat="43.426487905117966" lon="12.586655584101136"><ele>527.0</ele><time>2026-04-26T10:17:23.964Z</time></trkpt><trkpt lat="43.42635368916284" lon="12.586671878407957"><ele>527.0</ele><time>2026-04-26T10:17:24.963Z</time></trkpt><trkpt lat="43.426219890891566" lon="12.586699967281744"><ele>527.0</ele><time>2026-04-26T10:17:25.963Z</time></trkpt><trkpt lat="43.42609949726076" lon="12.586759862821312"><ele>524.2</ele><time>2026-04-26T10:17:26.963Z</time></trkpt><trkpt lat="43.42600123654612" lon="12.586823244781883"><ele>521.4000000000001</ele><time>2026-04-26T10:17:27.963Z</time></trkpt><trkpt lat="43.42594015087252" lon="12.586847463575243"><ele>518.5999999999999</ele><time>2026-04-26T10:17:28.963Z</time></trkpt><trkpt lat="43.42591394204092" lon="12.586716012718263"><ele>515.8</ele><time>2026-04-26T10:17:30.963Z</time></trkpt><trkpt lat="43.42594065119173" lon="12.586598052157838"><ele>513.0</ele><time>2026-04-26T10:17:31.963Z</time></trkpt><trkpt lat="43.42602136517799" lon="12.5864794143308"><ele>513.0</ele><time>2026-04-26T10:17:32.963Z</time></trkpt><trkpt lat="43.426117013336885" lon="12.58639941486067"><ele>513.0</ele><time>2026-04-26T10:17:33.963Z</time></trkpt><trkpt lat="43.426218761467766" lon="12.5863136081117"><ele>513.0</ele><time>2026-04-26T10:17:34.963Z</time></trkpt><trkpt lat="43.42631258468694" lon="12.586227300649833"><ele>513.0</ele><time>2026-04-26T10:17:35.963Z</time></trkpt><trkpt lat="43.42638164652981" lon="12.586126010138475"><ele>513.0</ele><time>2026-04-26T10:17:36.963Z</time></trkpt><trkpt lat="43.426411762539125" lon="12.586005119002253"><ele>515.0</ele><time>2026-04-26T10:17:37.963Z</time></trkpt><trkpt lat="43.42639804941249" lon="12.585865815292307"><ele>517.0</ele><time>2026-04-26T10:17:38.963Z</time></trkpt><trkpt lat="43.42636925832415" lon="12.585744398229712"><ele>519.0</ele><time>2026-04-26T10:17:39.963Z</time></trkpt><trkpt lat="43.42629979135279" lon="12.585586970565686"><ele>521.0</ele><time>2026-04-26T10:17:40.963Z</time></trkpt><trkpt lat="43.42622868076899" lon="12.585433887939804"><ele>514.5</ele><time>2026-04-26T10:17:41.963Z</time></trkpt><trkpt lat="43.42617894960625" lon="12.585287600126625"><ele>508.0</ele><time>2026-04-26T10:17:42.963Z</time></trkpt><trkpt lat="43.426162291828554" lon="12.585138284881658"><ele>501.5</ele><time>2026-04-26T10:17:43.963Z</time></trkpt><trkpt lat="43.426186922391864" lon="12.584982895479856"><ele>495.0</ele><time>2026-04-26T10:17:44.963Z</time></trkpt><trkpt lat="43.42626230026227" lon="12.5848388486326"><ele>498.1666666666667</ele><time>2026-04-26T10:17:45.963Z</time></trkpt><trkpt lat="43.426331874941134" lon="12.584726548398878"><ele>501.33333333333337</ele><time>2026-04-26T10:17:46.963Z</time></trkpt><trkpt lat="43.42640526499988" lon="12.58462964573745"><ele>504.5</ele><time>2026-04-26T10:17:47.963Z</time></trkpt><trkpt lat="43.426460677525654" lon="12.584519761879308"><ele>507.6666666666667</ele><time>2026-04-26T10:17:48.963Z</time></trkpt><trkpt lat="43.426496738601394" lon="12.58443082242866"><ele>510.83333333333337</ele><time>2026-04-26T10:17:49.963Z</time></trkpt><trkpt lat="43.426494379047526" lon="12.584341474644974"><ele>514.0</ele><time>2026-04-26T10:17:50.963Z</time></trkpt><trkpt lat="43.42646078518025" lon="12.584249072048083"><ele>514.0</ele><time>2026-04-26T10:17:51.963Z</time></trkpt><trkpt lat="43.426348955852646" lon="12.58421606473425"><ele>514.0</ele><time>2026-04-26T10:17:53.963Z</time></trkpt><trkpt lat="43.42627534853645" lon="12.584287646675337"><ele>514.0</ele><time>2026-04-26T10:17:54.963Z</time></trkpt><trkpt lat="43.42620593489878" lon="12.584366417950191"><ele>514.0</ele><time>2026-04-26T10:17:55.963Z</time></trkpt><trkpt lat="43.426123331119456" lon="12.584474648137675"><ele>514.0</ele><time>2026-04-26T10:17:56.963Z</time></trkpt><trkpt lat="43.42602542452201" lon="12.584639568564022"><ele>507.6666666666667</ele><time>2026-04-26T10:17:57.963Z</time></trkpt><trkpt lat="43.425893767037095" lon="12.584864619606876"><ele>501.33333333333337</ele><time>2026-04-26T10:17:58.963Z</time></trkpt><trkpt lat="43.42576490896509" lon="12.585088411875438"><ele>495.0</ele><time>2026-04-26T10:17:59.963Z</time></trkpt><trkpt lat="43.425640612807" lon="12.58527675505222"><ele>497.33333333333337</ele><time>2026-04-26T10:18:00.963Z</time></trkpt><trkpt lat="43.42551514263435" lon="12.585440447068548"><ele>499.6666666666667</ele><time>2026-04-26T10:18:01.963Z</time></trkpt><trkpt lat="43.425389112090635" lon="12.585586258671851"><ele>502.0</ele><time>2026-04-26T10:18:02.963Z</time></trkpt><trkpt lat="43.42527609084489" lon="12.585716772606405"><ele>497.33333333333337</ele><time>2026-04-26T10:18:03.963Z</time></trkpt><trkpt lat="43.4251489148184" lon="12.58585293327911"><ele>492.66666666666663</ele><time>2026-04-26T10:18:04.963Z</time></trkpt><trkpt lat="43.42501779579263" lon="12.58598777169343"><ele>488.0</ele><time>2026-04-26T10:18:05.963Z</time></trkpt><trkpt lat="43.424868834942636" lon="12.586123221540511"><ele>489.3333333333333</ele><time>2026-04-26T10:18:06.963Z</time></trkpt><trkpt lat="43.424731703683854" lon="12.586245233924982"><ele>490.66666666666663</ele><time>2026-04-26T10:18:07.963Z</time></trkpt><trkpt lat="43.424589782436705" lon="12.586372115673745"><ele>492.0</ele><time>2026-04-26T10:18:08.963Z</time></trkpt><trkpt lat="43.42445198969191" lon="12.586482236162178"><ele>492.0</ele><time>2026-04-26T10:18:09.963Z</time></trkpt><trkpt lat="43.42431837255497" lon="12.586579203723275"><ele>492.0</ele><time>2026-04-26T10:18:10.963Z</time></trkpt><trkpt lat="43.42417464922847" lon="12.586652126068836"><ele>492.0</ele><time>2026-04-26T10:18:11.963Z</time></trkpt><trkpt lat="43.42401575301386" lon="12.58672659834689"><ele>492.0</ele><time>2026-04-26T10:18:12.963Z</time></trkpt><trkpt lat="43.423849495467465" lon="12.586759336168567"><ele>492.0</ele><time>2026-04-26T10:18:13.962Z</time></trkpt><trkpt lat="43.4236900665088" lon="12.586798582468388"><ele>492.0</ele><time>2026-04-26T10:18:14.962Z</time></trkpt><trkpt lat="43.42353616903712" lon="12.586830612346125"><ele>492.0</ele><time>2026-04-26T10:18:15.962Z</time></trkpt><trkpt lat="43.42340809242523" lon="12.586870789342063"><ele>492.0</ele><time>2026-04-26T10:18:16.962Z</time></trkpt><trkpt lat="43.42330149859373" lon="12.586963174405412"><ele>492.0</ele><time>2026-04-26T10:18:17.962Z</time></trkpt><trkpt lat="43.42321488645819" lon="12.58708682545901"><ele>492.0</ele><time>2026-04-26T10:18:18.962Z</time></trkpt><trkpt lat="43.42312516241072" lon="12.587249977846547"><ele>492.0</ele><time>2026-04-26T10:18:19.962Z</time></trkpt><trkpt lat="43.42305923215407" lon="12.587430409737102"><ele>492.0</ele><time>2026-04-26T10:18:20.962Z</time></trkpt><trkpt lat="43.423012325384406" lon="12.587625483637808"><ele>492.0</ele><time>2026-04-26T10:18:21.962Z</time></trkpt><trkpt lat="43.42301254094641" lon="12.587855538304932"><ele>491.0</ele><time>2026-04-26T10:18:22.962Z</time></trkpt><trkpt lat="43.42303644034729" lon="12.588078169740482"><ele>490.0</ele><time>2026-04-26T10:18:23.962Z</time></trkpt><trkpt lat="43.423095218662546" lon="12.588309721976294"><ele>489.0</ele><time>2026-04-26T10:18:24.962Z</time></trkpt><trkpt lat="43.423157770476806" lon="12.588526577149828"><ele>486.66666666666663</ele><time>2026-04-26T10:18:25.962Z</time></trkpt><trkpt lat="43.42322900757503" lon="12.588748242933608"><ele>484.3333333333333</ele><time>2026-04-26T10:18:26.962Z</time></trkpt><trkpt lat="43.423305161651726" lon="12.588979631400505"><ele>482.0</ele><time>2026-04-26T10:18:27.962Z</time></trkpt><trkpt lat="43.4233856363595" lon="12.58921301614091"><ele>482.0</ele><time>2026-04-26T10:18:28.962Z</time></trkpt><trkpt lat="43.42346793252745" lon="12.58943914191069"><ele>482.0</ele><time>2026-04-26T10:18:29.962Z</time></trkpt><trkpt lat="43.42356279418811" lon="12.589660053269863"><ele>482.0</ele><time>2026-04-26T10:18:30.962Z</time></trkpt><trkpt lat="43.42367033864299" lon="12.589867338487513"><ele>481.0</ele><time>2026-04-26T10:18:31.962Z</time></trkpt><trkpt lat="43.42378604397001" lon="12.590057630640567"><ele>480.0</ele><time>2026-04-26T10:18:32.962Z</time></trkpt><trkpt lat="43.42386341348437" lon="12.590211070591163"><ele>479.0</ele><time>2026-04-26T10:18:33.962Z</time></trkpt><trkpt lat="43.423889348046686" lon="12.590372109756162"><ele>478.0</ele><time>2026-04-26T10:18:34.962Z</time></trkpt><trkpt lat="43.42390255677801" lon="12.590527205570963"><ele>478.25</ele><time>2026-04-26T10:18:35.962Z</time></trkpt><trkpt lat="43.42384034733634" lon="12.590695160402536"><ele>478.5</ele><time>2026-04-26T10:18:36.962Z</time></trkpt><trkpt lat="43.42376795573962" lon="12.590871611028238"><ele>478.75</ele><time>2026-04-26T10:18:37.962Z</time></trkpt><trkpt lat="43.42369754379379" lon="12.591049163074379"><ele>479.0</ele><time>2026-04-26T10:18:38.962Z</time></trkpt><trkpt lat="43.42359526948717" lon="12.591225162187124"><ele>479.0</ele><time>2026-04-26T10:18:39.962Z</time></trkpt><trkpt lat="43.4235095299095" lon="12.591410002024876"><ele>479.0</ele><time>2026-04-26T10:18:40.962Z</time></trkpt><trkpt lat="43.42341478155965" lon="12.591617173086807"><ele>479.0</ele><time>2026-04-26T10:18:41.962Z</time></trkpt><trkpt lat="43.42331876996218" lon="12.591831827118598"><ele>478.3333333333333</ele><time>2026-04-26T10:18:42.962Z</time></trkpt><trkpt lat="43.423237380729255" lon="12.592028816212485"><ele>477.66666666666663</ele><time>2026-04-26T10:18:43.962Z</time></trkpt><trkpt lat="43.4231611277771" lon="12.592211729636361"><ele>477.0</ele><time>2026-04-26T10:18:44.962Z</time></trkpt><trkpt lat="43.423099021084525" lon="12.592377462384837"><ele>477.0</ele><time>2026-04-26T10:18:45.962Z</time></trkpt><trkpt lat="43.42303372314925" lon="12.592541579214075"><ele>477.0</ele><time>2026-04-26T10:18:46.962Z</time></trkpt><trkpt lat="43.422981798069934" lon="12.592694540116229"><ele>477.0</ele><time>2026-04-26T10:18:47.962Z</time></trkpt><trkpt lat="43.42294883743808" lon="12.592840115742492"><ele>477.0</ele><time>2026-04-26T10:18:48.962Z</time></trkpt><trkpt lat="43.42293123944524" lon="12.592980834208012"><ele>477.20000000000005</ele><time>2026-04-26T10:18:49.962Z</time></trkpt><trkpt lat="43.42292450022173" lon="12.593121982310262"><ele>477.40000000000003</ele><time>2026-04-26T10:18:50.962Z</time></trkpt><trkpt lat="43.422918304321826" lon="12.593252406205442"><ele>477.59999999999997</ele><time>2026-04-26T10:18:51.962Z</time></trkpt><trkpt lat="43.42291354206118" lon="12.59337516403214"><ele>477.79999999999995</ele><time>2026-04-26T10:18:52.962Z</time></trkpt><trkpt lat="43.422919465685375" lon="12.593495832991458"><ele>478.0</ele><time>2026-04-26T10:18:53.962Z</time></trkpt><trkpt lat="43.42290903576661" lon="12.593618084062888"><ele>477.1666666666667</ele><time>2026-04-26T10:18:54.962Z</time></trkpt><trkpt lat="43.422889907746196" lon="12.593714592680964"><ele>476.33333333333337</ele><time>2026-04-26T10:18:55.962Z</time></trkpt><trkpt lat="43.42284398791007" lon="12.593843423756752"><ele>475.5</ele><time>2026-04-26T10:18:57.962Z</time></trkpt><trkpt lat="43.42278988006713" lon="12.593916246827161"><ele>474.66666666666663</ele><time>2026-04-26T10:20:03.962Z</time></trkpt><trkpt lat="43.42279128619442" lon="12.59401585673087"><ele>473.8333333333333</ele><time>2026-04-26T10:20:05.962Z</time></trkpt><trkpt lat="43.42280616159065" lon="12.594126012439215"><ele>473.0</ele><time>2026-04-26T10:20:06.962Z</time></trkpt><trkpt lat="43.42284305157524" lon="12.594254251752107"><ele>473.0</ele><time>2026-04-26T10:20:07.962Z</time></trkpt><trkpt lat="43.42289969656329" lon="12.594416263015773"><ele>473.0</ele><time>2026-04-26T10:20:08.962Z</time></trkpt><trkpt lat="43.42297056698156" lon="12.594596291745804"><ele>473.0</ele><time>2026-04-26T10:20:09.962Z</time></trkpt><trkpt lat="43.42304795809569" lon="12.594791567349612"><ele>473.0</ele><time>2026-04-26T10:20:10.962Z</time></trkpt><trkpt lat="43.42313490004942" lon="12.594995536120658"><ele>473.3333333333333</ele><time>2026-04-26T10:20:11.962Z</time></trkpt><trkpt lat="43.423217449529545" lon="12.595218379759345"><ele>473.66666666666663</ele><time>2026-04-26T10:20:12.962Z</time></trkpt><trkpt lat="43.42330520721344" lon="12.595442682274799"><ele>474.0</ele><time>2026-04-26T10:20:13.962Z</time></trkpt><trkpt lat="43.42339216635212" lon="12.59569935364088"><ele>472.66666666666663</ele><time>2026-04-26T10:20:14.962Z</time></trkpt><trkpt lat="43.42348004828326" lon="12.59595827388655"><ele>471.3333333333333</ele><time>2026-04-26T10:20:15.962Z</time></trkpt><trkpt lat="43.423569608122264" lon="12.596213965040235"><ele>470.0</ele><time>2026-04-26T10:20:16.962Z</time></trkpt><trkpt lat="43.423654663125006" lon="12.596468316661968"><ele>470.0</ele><time>2026-04-26T10:20:17.962Z</time></trkpt><trkpt lat="43.423735715457845" lon="12.596703049332636"><ele>470.0</ele><time>2026-04-26T10:20:18.962Z</time></trkpt><trkpt lat="43.4238122125998" lon="12.596936377953497"><ele>470.0</ele><time>2026-04-26T10:20:19.962Z</time></trkpt><trkpt lat="43.42389239284815" lon="12.597168471974829"><ele>470.0</ele><time>2026-04-26T10:20:20.962Z</time></trkpt><trkpt lat="43.423967481099204" lon="12.597377159016105"><ele>470.0</ele><time>2026-04-26T10:20:21.962Z</time></trkpt><trkpt lat="43.42403122334805" lon="12.597566638213111"><ele>470.0</ele><time>2026-04-26T10:20:22.962Z</time></trkpt><trkpt lat="43.4240932602692" lon="12.59776128059224"><ele>469.25</ele><time>2026-04-26T10:20:23.962Z</time></trkpt><trkpt lat="43.42415277904178" lon="12.597938591719666"><ele>468.5</ele><time>2026-04-26T10:20:24.962Z</time></trkpt><trkpt lat="43.42421224818837" lon="12.598110586732103"><ele>467.75</ele><time>2026-04-26T10:20:25.962Z</time></trkpt><trkpt lat="43.4242699980247" lon="12.59828928904957"><ele>467.0</ele><time>2026-04-26T10:20:26.962Z</time></trkpt><trkpt lat="43.424323177508164" lon="12.59846235895098"><ele>467.0</ele><time>2026-04-26T10:20:27.962Z</time></trkpt><trkpt lat="43.42437356323297" lon="12.598614295078947"><ele>467.0</ele><time>2026-04-26T10:20:28.962Z</time></trkpt><trkpt lat="43.424425175299554" lon="12.598760249900774"><ele>467.0</ele><time>2026-04-26T10:20:29.962Z</time></trkpt><trkpt lat="43.4244730239546" lon="12.59890910323729"><ele>467.0</ele><time>2026-04-26T10:20:30.962Z</time></trkpt><trkpt lat="43.424522859176165" lon="12.599039187930874"><ele>467.0</ele><time>2026-04-26T10:20:31.962Z</time></trkpt><trkpt lat="43.42456874111366" lon="12.599173277011515"><ele>467.0</ele><time>2026-04-26T10:20:32.962Z</time></trkpt><trkpt lat="43.42461765681803" lon="12.599298381342892"><ele>467.0</ele><time>2026-04-26T10:20:33.962Z</time></trkpt><trkpt lat="43.42466922604363" lon="12.599441245703348"><ele>467.0</ele><time>2026-04-26T10:20:34.962Z</time></trkpt><trkpt lat="43.42472230184063" lon="12.59959803722929"><ele>467.25</ele><time>2026-04-26T10:20:35.962Z</time></trkpt><trkpt lat="43.42477019355823" lon="12.599748882650063"><ele>467.5</ele><time>2026-04-26T10:20:36.962Z</time></trkpt><trkpt lat="43.424815969943005" lon="12.599897337044025"><ele>467.75</ele><time>2026-04-26T10:20:37.962Z</time></trkpt><trkpt lat="43.424859894002175" lon="12.600042570430642"><ele>468.0</ele><time>2026-04-26T10:20:38.962Z</time></trkpt><trkpt lat="43.4249113472941" lon="12.60018933757918"><ele>466.5</ele><time>2026-04-26T10:20:39.962Z</time></trkpt><trkpt lat="43.42496219223417" lon="12.600345532779324"><ele>465.0</ele><time>2026-04-26T10:20:40.962Z</time></trkpt><trkpt lat="43.42501885802814" lon="12.600486734564456"><ele>463.5</ele><time>2026-04-26T10:20:41.962Z</time></trkpt><trkpt lat="43.42507441054096" lon="12.600643931568802"><ele>462.0</ele><time>2026-04-26T10:20:42.962Z</time></trkpt><trkpt lat="43.42513744659859" lon="12.600831440730309"><ele>462.0</ele><time>2026-04-26T10:20:43.962Z</time></trkpt><trkpt lat="43.42521206546483" lon="12.60104988382311"><ele>462.0</ele><time>2026-04-26T10:20:44.962Z</time></trkpt><trkpt lat="43.42528300312753" lon="12.601279623064316"><ele>462.0</ele><time>2026-04-26T10:20:45.962Z</time></trkpt><trkpt lat="43.42536662745716" lon="12.601529171258868"><ele>462.0</ele><time>2026-04-26T10:20:46.961Z</time></trkpt><trkpt lat="43.42544331938908" lon="12.601777204167492"><ele>462.0</ele><time>2026-04-26T10:20:47.961Z</time></trkpt><trkpt lat="43.42552517790268" lon="12.60204176998321"><ele>462.0</ele><time>2026-04-26T10:20:48.961Z</time></trkpt><trkpt lat="43.42560283553567" lon="12.602307239764132"><ele>462.66666666666663</ele><time>2026-04-26T10:20:49.961Z</time></trkpt><trkpt lat="43.425686233275684" lon="12.602575205823554"><ele>463.3333333333333</ele><time>2026-04-26T10:20:50.961Z</time></trkpt><trkpt lat="43.425778182047765" lon="12.602849212851357"><ele>464.0</ele><time>2026-04-26T10:20:51.961Z</time></trkpt><trkpt lat="43.425869380615005" lon="12.603120628530748"><ele>464.0</ele><time>2026-04-26T10:20:52.961Z</time></trkpt><trkpt lat="43.425960074474176" lon="12.60336400927775"><ele>464.0</ele><time>2026-04-26T10:20:53.961Z</time></trkpt><trkpt lat="43.42603821009834" lon="12.603607225881428"><ele>464.0</ele><time>2026-04-26T10:20:54.961Z</time></trkpt><trkpt lat="43.42611966244584" lon="12.603817696494076"><ele>464.0</ele><time>2026-04-26T10:20:55.961Z</time></trkpt><trkpt lat="43.42620102496137" lon="12.60404472575734"><ele>464.0</ele><time>2026-04-26T10:20:56.961Z</time></trkpt><trkpt lat="43.42630563396019" lon="12.604250983583512"><ele>464.0</ele><time>2026-04-26T10:20:57.961Z</time></trkpt><trkpt lat="43.42643855297438" lon="12.60445450104401"><ele>467.0</ele><time>2026-04-26T10:20:58.961Z</time></trkpt><trkpt lat="43.426588540004346" lon="12.604656575403263"><ele>470.0</ele><time>2026-04-26T10:20:59.961Z</time></trkpt><trkpt lat="43.42675388619568" lon="12.604836079796982"><ele>473.0</ele><time>2026-04-26T10:21:00.961Z</time></trkpt><trkpt lat="43.42690919108738" lon="12.605014808447061"><ele>473.0</ele><time>2026-04-26T10:21:01.961Z</time></trkpt><trkpt lat="43.4270682443567" lon="12.605215227860835"><ele>473.0</ele><time>2026-04-26T10:21:02.961Z</time></trkpt><trkpt lat="43.427218103667734" lon="12.605413225772105"><ele>473.0</ele><time>2026-04-26T10:21:03.961Z</time></trkpt><trkpt lat="43.42735849943726" lon="12.605612699085073"><ele>472.3333333333333</ele><time>2026-04-26T10:21:04.961Z</time></trkpt><trkpt lat="43.42751421515127" lon="12.605816695792841"><ele>471.66666666666663</ele><time>2026-04-26T10:21:05.961Z</time></trkpt><trkpt lat="43.4276509869338" lon="12.606027892845018"><ele>471.0</ele><time>2026-04-26T10:21:06.961Z</time></trkpt><trkpt lat="43.4278011350208" lon="12.606249968927434"><ele>467.0</ele><time>2026-04-26T10:21:07.961Z</time></trkpt><trkpt lat="43.427957159105475" lon="12.606483633716305"><ele>463.0</ele><time>2026-04-26T10:21:08.961Z</time></trkpt><trkpt lat="43.42811456503696" lon="12.60673479096545"><ele>463.0</ele><time>2026-04-26T10:21:09.961Z</time></trkpt><trkpt lat="43.428265807398" lon="12.606979544182805"><ele>463.0</ele><time>2026-04-26T10:21:10.961Z</time></trkpt><trkpt lat="43.42843217164314" lon="12.607190574364518"><ele>464.0</ele><time>2026-04-26T10:21:11.961Z</time></trkpt><trkpt lat="43.42860110462332" lon="12.6073839901544"><ele>465.0</ele><time>2026-04-26T10:21:12.961Z</time></trkpt><trkpt lat="43.428766899365954" lon="12.607565108834962"><ele>466.0</ele><time>2026-04-26T10:21:13.961Z</time></trkpt><trkpt lat="43.42896530071886" lon="12.60771503117539"><ele>471.33333333333337</ele><time>2026-04-26T10:21:14.961Z</time></trkpt><trkpt lat="43.42913952226825" lon="12.607897802736725"><ele>476.66666666666663</ele><time>2026-04-26T10:21:15.961Z</time></trkpt><trkpt lat="43.429291331880755" lon="12.608090240618475"><ele>482.0</ele><time>2026-04-26T10:21:16.961Z</time></trkpt><trkpt lat="43.42944251888371" lon="12.608282439355028"><ele>482.0</ele><time>2026-04-26T10:21:17.961Z</time></trkpt><trkpt lat="43.42959152539996" lon="12.60850503019842"><ele>482.0</ele><time>2026-04-26T10:21:18.961Z</time></trkpt><trkpt lat="43.42973861952423" lon="12.608723224926631"><ele>482.0</ele><time>2026-04-26T10:21:19.961Z</time></trkpt><trkpt lat="43.42989701379429" lon="12.608927979780928"><ele>477.66666666666663</ele><time>2026-04-26T10:21:20.961Z</time></trkpt><trkpt lat="43.43005428214654" lon="12.60914916558442"><ele>473.33333333333337</ele><time>2026-04-26T10:21:21.961Z</time></trkpt><trkpt lat="43.430209542592756" lon="12.609337714683267"><ele>469.0</ele><time>2026-04-26T10:21:22.961Z</time></trkpt><trkpt lat="43.43038140029755" lon="12.609513065666494"><ele>467.6666666666667</ele><time>2026-04-26T10:21:23.961Z</time></trkpt><trkpt lat="43.43054811927254" lon="12.609693055126534"><ele>466.33333333333337</ele><time>2026-04-26T10:21:24.961Z</time></trkpt><trkpt lat="43.43070377091678" lon="12.609855777357092"><ele>465.0</ele><time>2026-04-26T10:21:25.961Z</time></trkpt><trkpt lat="43.43086884415235" lon="12.61000983983531"><ele>465.0</ele><time>2026-04-26T10:21:26.961Z</time></trkpt><trkpt lat="43.431035723587556" lon="12.610142718808738"><ele>465.0</ele><time>2026-04-26T10:21:27.961Z</time></trkpt><trkpt lat="43.43121336528909" lon="12.610246646252936"><ele>465.0</ele><time>2026-04-26T10:21:28.961Z</time></trkpt><trkpt lat="43.431390915997305" lon="12.610326815995435"><ele>465.33333333333337</ele><time>2026-04-26T10:21:29.961Z</time></trkpt><trkpt lat="43.431561625537675" lon="12.610375201175772"><ele>465.6666666666667</ele><time>2026-04-26T10:21:30.961Z</time></trkpt><trkpt lat="43.43172788797931" lon="12.610405723131748"><ele>466.0</ele><time>2026-04-26T10:21:31.961Z</time></trkpt><trkpt lat="43.431887196793085" lon="12.610449032387677"><ele>466.0</ele><time>2026-04-26T10:21:32.961Z</time></trkpt><trkpt lat="43.43203877014938" lon="12.610514447823276"><ele>466.0</ele><time>2026-04-26T10:21:33.961Z</time></trkpt><trkpt lat="43.432189785093954" lon="12.61061064494732"><ele>466.0</ele><time>2026-04-26T10:21:34.961Z</time></trkpt><trkpt lat="43.4323420951942" lon="12.610751461413713"><ele>460.0</ele><time>2026-04-26T10:21:35.961Z</time></trkpt><trkpt lat="43.432509679593146" lon="12.610904909606734"><ele>454.0</ele><time>2026-04-26T10:21:36.962Z</time></trkpt><trkpt lat="43.43268961651491" lon="12.611022200202587"><ele>448.0</ele><time>2026-04-26T10:21:37.962Z</time></trkpt><trkpt lat="43.432883765156475" lon="12.611113153436863"><ele>446.33333333333337</ele><time>2026-04-26T10:21:38.962Z</time></trkpt><trkpt lat="43.433064377937406" lon="12.611193894908476"><ele>444.66666666666663</ele><time>2026-04-26T10:21:39.962Z</time></trkpt><trkpt lat="43.433254388069756" lon="12.611248173852985"><ele>443.0</ele><time>2026-04-26T10:21:40.962Z</time></trkpt><trkpt lat="43.433415917797525" lon="12.61132859858449"><ele>443.0</ele><time>2026-04-26T10:21:41.961Z</time></trkpt><trkpt lat="43.43355465785957" lon="12.611413974660234"><ele>443.0</ele><time>2026-04-26T10:21:42.962Z</time></trkpt><trkpt lat="43.43367453302065" lon="12.61153317326667"><ele>443.0</ele><time>2026-04-26T10:21:43.962Z</time></trkpt><trkpt lat="43.43376324957571" lon="12.611704410597342"><ele>443.3333333333333</ele><time>2026-04-26T10:21:44.961Z</time></trkpt><trkpt lat="43.433845449489596" lon="12.611933210103288"><ele>443.66666666666663</ele><time>2026-04-26T10:21:45.961Z</time></trkpt><trkpt lat="43.43393930873153" lon="12.612175063454211"><ele>444.0</ele><time>2026-04-26T10:21:46.961Z</time></trkpt><trkpt lat="43.43404173093378" lon="12.612410403729745"><ele>444.0</ele><time>2026-04-26T10:21:47.961Z</time></trkpt><trkpt lat="43.4341316687824" lon="12.612652705613051"><ele>444.0</ele><time>2026-04-26T10:21:48.961Z</time></trkpt><trkpt lat="43.43423520872923" lon="12.612889643497397"><ele>444.0</ele><time>2026-04-26T10:21:49.961Z</time></trkpt><trkpt lat="43.43434143324894" lon="12.613143207852431"><ele>442.33333333333337</ele><time>2026-04-26T10:21:50.961Z</time></trkpt><trkpt lat="43.43445261462559" lon="12.61339637421766"><ele>440.6666666666667</ele><time>2026-04-26T10:21:51.961Z</time></trkpt><trkpt lat="43.43455665859333" lon="12.613670962722736"><ele>439.0</ele><time>2026-04-26T10:21:52.961Z</time></trkpt><trkpt lat="43.43466948549372" lon="12.61394216531697"><ele>440.6666666666667</ele><time>2026-04-26T10:21:53.961Z</time></trkpt><trkpt lat="43.43477016895762" lon="12.614214016218407"><ele>442.33333333333337</ele><time>2026-04-26T10:21:54.961Z</time></trkpt><trkpt lat="43.43484718506633" lon="12.614477851327441"><ele>444.0</ele><time>2026-04-26T10:21:55.961Z</time></trkpt><trkpt lat="43.434911886944725" lon="12.614731784137748"><ele>444.0</ele><time>2026-04-26T10:21:56.961Z</time></trkpt><trkpt lat="43.43495323983591" lon="12.615009112382594"><ele>444.0</ele><time>2026-04-26T10:21:57.961Z</time></trkpt><trkpt lat="43.4349895331917" lon="12.615323762507732"><ele>444.0</ele><time>2026-04-26T10:21:58.961Z</time></trkpt><trkpt lat="43.43501914492099" lon="12.615624122608745"><ele>440.5</ele><time>2026-04-26T10:21:59.961Z</time></trkpt><trkpt lat="43.43505554779761" lon="12.615926626075568"><ele>437.0</ele><time>2026-04-26T10:22:00.961Z</time></trkpt><trkpt lat="43.4350976347611" lon="12.616238163715282"><ele>433.5</ele><time>2026-04-26T10:22:01.961Z</time></trkpt><trkpt lat="43.43514330941472" lon="12.616558804565711"><ele>430.0</ele><time>2026-04-26T10:22:02.961Z</time></trkpt><trkpt lat="43.43519087600459" lon="12.616853176472121"><ele>429.0</ele><time>2026-04-26T10:22:03.961Z</time></trkpt><trkpt lat="43.435234438295" lon="12.617149831160695"><ele>428.0</ele><time>2026-04-26T10:22:04.961Z</time></trkpt><trkpt lat="43.43527342346359" lon="12.617427542596463"><ele>427.0</ele><time>2026-04-26T10:22:05.961Z</time></trkpt><trkpt lat="43.435304195695416" lon="12.617696649280395"><ele>426.33333333333337</ele><time>2026-04-26T10:22:06.961Z</time></trkpt><trkpt lat="43.43534073214779" lon="12.617965755480666"><ele>425.66666666666663</ele><time>2026-04-26T10:22:07.961Z</time></trkpt><trkpt lat="43.43538697337487" lon="12.6182215764713"><ele>425.0</ele><time>2026-04-26T10:22:08.961Z</time></trkpt><trkpt lat="43.435451300267346" lon="12.618484498633299"><ele>425.0</ele><time>2026-04-26T10:22:09.961Z</time></trkpt><trkpt lat="43.43555378533476" lon="12.618710569565014"><ele>425.0</ele><time>2026-04-26T10:22:10.961Z</time></trkpt><trkpt lat="43.43567519788266" lon="12.618908011476705"><ele>425.0</ele><time>2026-04-26T10:22:11.961Z</time></trkpt><trkpt lat="43.43582258070722" lon="12.619095789491533"><ele>425.0</ele><time>2026-04-26T10:22:12.961Z</time></trkpt><trkpt lat="43.43598656645274" lon="12.619267258542983"><ele>425.0</ele><time>2026-04-26T10:22:13.961Z</time></trkpt><trkpt lat="43.43614913388368" lon="12.6194229953806"><ele>425.0</ele><time>2026-04-26T10:22:14.961Z</time></trkpt><trkpt lat="43.43632907126885" lon="12.619562101762977"><ele>422.66666666666663</ele><time>2026-04-26T10:22:15.961Z</time></trkpt><trkpt lat="43.43651175920888" lon="12.619716063745102"><ele>420.33333333333337</ele><time>2026-04-26T10:22:16.961Z</time></trkpt><trkpt lat="43.43669461771864" lon="12.619889012497204"><ele>418.0</ele><time>2026-04-26T10:22:17.961Z</time></trkpt><trkpt lat="43.4368665222283" lon="12.620056447467093"><ele>418.0</ele><time>2026-04-26T10:22:18.961Z</time></trkpt><trkpt lat="43.43704381914083" lon="12.62022476001785"><ele>418.0</ele><time>2026-04-26T10:22:19.961Z</time></trkpt><trkpt lat="43.437224757659685" lon="12.620389543933088"><ele>418.0</ele><time>2026-04-26T10:22:20.96Z</time></trkpt><trkpt lat="43.43740391019972" lon="12.62056239540614"><ele>418.6666666666667</ele><time>2026-04-26T10:22:21.96Z</time></trkpt><trkpt lat="43.43758663581078" lon="12.620732819957729"><ele>419.33333333333337</ele><time>2026-04-26T10:22:22.96Z</time></trkpt><trkpt lat="43.43777052315755" lon="12.620905524820833"><ele>420.0</ele><time>2026-04-26T10:22:23.96Z</time></trkpt><trkpt lat="43.43796400546151" lon="12.621078279620328"><ele>418.66666666666663</ele><time>2026-04-26T10:22:24.96Z</time></trkpt><trkpt lat="43.43814624021465" lon="12.621252699346925"><ele>417.3333333333333</ele><time>2026-04-26T10:22:25.96Z</time></trkpt><trkpt lat="43.43832190250455" lon="12.621415846108171"><ele>416.0</ele><time>2026-04-26T10:22:26.96Z</time></trkpt><trkpt lat="43.438497914504836" lon="12.621582645386832"><ele>416.0</ele><time>2026-04-26T10:22:27.96Z</time></trkpt><trkpt lat="43.43866453617824" lon="12.621732795458062"><ele>416.0</ele><time>2026-04-26T10:22:28.96Z</time></trkpt><trkpt lat="43.438815639901016" lon="12.621894881370592"><ele>416.0</ele><time>2026-04-26T10:22:29.96Z</time></trkpt><trkpt lat="43.43895439415118" lon="12.622074175174593"><ele>418.66666666666663</ele><time>2026-04-26T10:22:30.96Z</time></trkpt><trkpt lat="43.43907073039672" lon="12.62227149137632"><ele>421.33333333333337</ele><time>2026-04-26T10:22:31.96Z</time></trkpt><trkpt lat="43.43915042695331" lon="12.622506146325732"><ele>424.0</ele><time>2026-04-26T10:22:32.96Z</time></trkpt><trkpt lat="43.439225995703005" lon="12.622751268819407"><ele>422.33333333333337</ele><time>2026-04-26T10:22:33.96Z</time></trkpt><trkpt lat="43.43931709018918" lon="12.622997503833833"><ele>420.66666666666663</ele><time>2026-04-26T10:22:34.96Z</time></trkpt><trkpt lat="43.439376559921755" lon="12.623270630541969"><ele>419.0</ele><time>2026-04-26T10:22:35.96Z</time></trkpt><trkpt lat="43.43946172879526" lon="12.623545493577964"><ele>416.66666666666663</ele><time>2026-04-26T10:22:36.96Z</time></trkpt><trkpt lat="43.43955051131064" lon="12.623827491777357"><ele>414.33333333333337</ele><time>2026-04-26T10:22:37.96Z</time></trkpt><trkpt lat="43.43963390431404" lon="12.62411636964969"><ele>412.0</ele><time>2026-04-26T10:22:38.96Z</time></trkpt><trkpt lat="43.43971637789003" lon="12.624390461750302"><ele>414.0</ele><time>2026-04-26T10:22:39.96Z</time></trkpt><trkpt lat="43.43979878801157" lon="12.624659634815592"><ele>416.0</ele><time>2026-04-26T10:22:40.96Z</time></trkpt><trkpt lat="43.43987980090052" lon="12.62491026439701"><ele>418.0</ele><time>2026-04-26T10:22:41.96Z</time></trkpt><trkpt lat="43.43995012717479" lon="12.625154839608886"><ele>416.0</ele><time>2026-04-26T10:22:42.96Z</time></trkpt><trkpt lat="43.440012873878075" lon="12.62538061570183"><ele>414.0</ele><time>2026-04-26T10:22:43.96Z</time></trkpt><trkpt lat="43.44007445788506" lon="12.625608024091516"><ele>412.0</ele><time>2026-04-26T10:22:44.96Z</time></trkpt><trkpt lat="43.44012708285281" lon="12.625850677824205"><ele>412.0</ele><time>2026-04-26T10:22:45.96Z</time></trkpt><trkpt lat="43.44014367919174" lon="12.626109187017414"><ele>412.0</ele><time>2026-04-26T10:22:46.96Z</time></trkpt><trkpt lat="43.44013762329224" lon="12.626363515914356"><ele>412.0</ele><time>2026-04-26T10:22:47.96Z</time></trkpt><trkpt lat="43.440145731831095" lon="12.626625551725164"><ele>411.6666666666667</ele><time>2026-04-26T10:22:48.96Z</time></trkpt><trkpt lat="43.44015143920037" lon="12.626876314165717"><ele>411.33333333333337</ele><time>2026-04-26T10:22:49.96Z</time></trkpt><trkpt lat="43.440174353651415" lon="12.627096957493544"><ele>411.0</ele><time>2026-04-26T10:22:50.96Z</time></trkpt><trkpt lat="43.44020848007512" lon="12.627312667992154"><ele>410.0</ele><time>2026-04-26T10:22:51.96Z</time></trkpt><trkpt lat="43.44028191595419" lon="12.62751270303138"><ele>409.0</ele><time>2026-04-26T10:22:52.96Z</time></trkpt><trkpt lat="43.440376346534855" lon="12.627707231393828"><ele>408.0</ele><time>2026-04-26T10:22:53.96Z</time></trkpt><trkpt lat="43.440499714555365" lon="12.627881434934515"><ele>406.66666666666663</ele><time>2026-04-26T10:22:54.96Z</time></trkpt><trkpt lat="43.44064388842474" lon="12.628039239561732"><ele>405.3333333333333</ele><time>2026-04-26T10:22:55.96Z</time></trkpt><trkpt lat="43.44080401407943" lon="12.628178401774077"><ele>404.0</ele><time>2026-04-26T10:22:56.96Z</time></trkpt><trkpt lat="43.440963866021576" lon="12.628286195075257"><ele>404.0</ele><time>2026-04-26T10:22:57.96Z</time></trkpt><trkpt lat="43.441139684531336" lon="12.628376461752666"><ele>404.0</ele><time>2026-04-26T10:22:58.96Z</time></trkpt><trkpt lat="43.44130947849999" lon="12.628481857017189"><ele>404.0</ele><time>2026-04-26T10:22:59.96Z</time></trkpt><trkpt lat="43.441479350457506" lon="12.628593312446426"><ele>404.66666666666663</ele><time>2026-04-26T10:23:00.96Z</time></trkpt><trkpt lat="43.44164877031919" lon="12.628723047809169"><ele>405.33333333333337</ele><time>2026-04-26T10:23:01.96Z</time></trkpt><trkpt lat="43.44180536128226" lon="12.628870483999957"><ele>406.0</ele><time>2026-04-26T10:23:02.96Z</time></trkpt><trkpt lat="43.44194023887178" lon="12.629038938486127"><ele>406.0</ele><time>2026-04-26T10:23:03.96Z</time></trkpt><trkpt lat="43.442046254652546" lon="12.629243230978235"><ele>406.0</ele><time>2026-04-26T10:23:04.96Z</time></trkpt><trkpt lat="43.4421562682252" lon="12.629434380714686"><ele>406.0</ele><time>2026-04-26T10:23:05.96Z</time></trkpt><trkpt lat="43.44221157520451" lon="12.62966526042198"><ele>405.6666666666667</ele><time>2026-04-26T10:23:06.96Z</time></trkpt><trkpt lat="43.442259576286894" lon="12.62990062708608"><ele>405.33333333333337</ele><time>2026-04-26T10:23:07.96Z</time></trkpt><trkpt lat="43.44229765984878" lon="12.630132289520258"><ele>405.0</ele><time>2026-04-26T10:23:08.96Z</time></trkpt><trkpt lat="43.442330055560554" lon="12.63037485446326"><ele>405.0</ele><time>2026-04-26T10:23:09.96Z</time></trkpt><trkpt lat="43.44237438160386" lon="12.630620944243901"><ele>405.0</ele><time>2026-04-26T10:23:10.96Z</time></trkpt><trkpt lat="43.44239897480067" lon="12.630861583875275"><ele>405.0</ele><time>2026-04-26T10:23:11.96Z</time></trkpt><trkpt lat="43.44242880190691" lon="12.631083714662967"><ele>406.0</ele><time>2026-04-26T10:23:12.96Z</time></trkpt><trkpt lat="43.44245979103417" lon="12.631291704109838"><ele>407.0</ele><time>2026-04-26T10:23:13.96Z</time></trkpt><trkpt lat="43.442491476518285" lon="12.63151296567162"><ele>408.0</ele><time>2026-04-26T10:23:14.96Z</time></trkpt><trkpt lat="43.44251973210271" lon="12.631736732811136"><ele>408.0</ele><time>2026-04-26T10:23:15.96Z</time></trkpt><trkpt lat="43.442552851548704" lon="12.631945690595684"><ele>408.0</ele><time>2026-04-26T10:23:16.96Z</time></trkpt><trkpt lat="43.442569451791755" lon="12.632157792906224"><ele>408.0</ele><time>2026-04-26T10:23:17.96Z</time></trkpt><trkpt lat="43.44259497212638" lon="12.632351374810039"><ele>407.25</ele><time>2026-04-26T10:23:18.96Z</time></trkpt><trkpt lat="43.44261982496082" lon="12.63253989384832"><ele>406.5</ele><time>2026-04-26T10:23:19.96Z</time></trkpt><trkpt lat="43.44263568731404" lon="12.632721384113774"><ele>405.75</ele><time>2026-04-26T10:23:20.96Z</time></trkpt><trkpt lat="43.44265076070541" lon="12.632895115147845"><ele>405.0</ele><time>2026-04-26T10:23:21.96Z</time></trkpt><trkpt lat="43.44269132083171" lon="12.633053318864823"><ele>407.0</ele><time>2026-04-26T10:23:22.96Z</time></trkpt><trkpt lat="43.442701950313605" lon="12.633208037063337"><ele>409.0</ele><time>2026-04-26T10:23:23.959Z</time></trkpt><trkpt lat="43.44273326679297" lon="12.633361716498076"><ele>411.0</ele><time>2026-04-26T10:23:24.959Z</time></trkpt><trkpt lat="43.44277779470588" lon="12.63350435080113"><ele>413.0</ele><time>2026-04-26T10:23:25.959Z</time></trkpt><trkpt lat="43.44284708158346" lon="12.633636009090473"><ele>410.75</ele><time>2026-04-26T10:23:26.959Z</time></trkpt><trkpt lat="43.44293363783332" lon="12.633753424812376"><ele>408.5</ele><time>2026-04-26T10:23:27.959Z</time></trkpt><trkpt lat="43.443050088840955" lon="12.633851761170682"><ele>406.25</ele><time>2026-04-26T10:23:28.959Z</time></trkpt><trkpt lat="43.44316529307999" lon="12.633948652086717"><ele>404.0</ele><time>2026-04-26T10:23:29.959Z</time></trkpt><trkpt lat="43.443278795367064" lon="12.634050688113442"><ele>404.0</ele><time>2026-04-26T10:23:30.959Z</time></trkpt><trkpt lat="43.44338854793232" lon="12.6341550352511"><ele>404.0</ele><time>2026-04-26T10:23:31.959Z</time></trkpt><trkpt lat="43.44351060432541" lon="12.634238554821346"><ele>404.0</ele><time>2026-04-26T10:23:32.959Z</time></trkpt><trkpt lat="43.443643022828795" lon="12.63431293774676"><ele>404.0</ele><time>2026-04-26T10:23:33.959Z</time></trkpt><trkpt lat="43.44379627531414" lon="12.634371985461438"><ele>402.0</ele><time>2026-04-26T10:23:34.959Z</time></trkpt><trkpt lat="43.44395582770163" lon="12.634415948757594"><ele>400.0</ele><time>2026-04-26T10:23:35.959Z</time></trkpt><trkpt lat="43.44411494553896" lon="12.634453820455938"><ele>398.0</ele><time>2026-04-26T10:23:36.959Z</time></trkpt><trkpt lat="43.444293597262266" lon="12.634467043970252"><ele>398.0</ele><time>2026-04-26T10:23:37.959Z</time></trkpt><trkpt lat="43.44446552251177" lon="12.634469934787768"><ele>398.0</ele><time>2026-04-26T10:23:38.96Z</time></trkpt><trkpt lat="43.44464101602839" lon="12.634431135768146"><ele>398.0</ele><time>2026-04-26T10:23:39.96Z</time></trkpt><trkpt lat="43.444813047412595" lon="12.634379061157121"><ele>397.66666666666663</ele><time>2026-04-26T10:23:40.96Z</time></trkpt><trkpt lat="43.44498959099552" lon="12.634313812623681"><ele>397.33333333333337</ele><time>2026-04-26T10:23:41.961Z</time></trkpt><trkpt lat="43.445167084113976" lon="12.63422060691194"><ele>397.0</ele><time>2026-04-26T10:23:42.96Z</time></trkpt><trkpt lat="43.44534121374068" lon="12.634120295160722"><ele>397.6666666666667</ele><time>2026-04-26T10:23:43.96Z</time></trkpt><trkpt lat="43.445519338716515" lon="12.634006567998975"><ele>398.33333333333337</ele><time>2026-04-26T10:23:44.96Z</time></trkpt><trkpt lat="43.44570256442996" lon="12.633906732485851"><ele>399.0</ele><time>2026-04-26T10:23:45.96Z</time></trkpt><trkpt lat="43.445895609760996" lon="12.633887544863558"><ele>399.0</ele><time>2026-04-26T10:23:46.96Z</time></trkpt><trkpt lat="43.44609439903808" lon="12.633848533416561"><ele>399.0</ele><time>2026-04-26T10:23:47.96Z</time></trkpt><trkpt lat="43.446288211010845" lon="12.633892386326123"><ele>399.0</ele><time>2026-04-26T10:23:48.96Z</time></trkpt><trkpt lat="43.44648561129155" lon="12.633936105571971"><ele>399.0</ele><time>2026-04-26T10:23:49.96Z</time></trkpt><trkpt lat="43.44668872820224" lon="12.633989664848947"><ele>399.0</ele><time>2026-04-26T10:23:50.96Z</time></trkpt><trkpt lat="43.446899640789624" lon="12.63404088255746"><ele>399.0</ele><time>2026-04-26T10:23:51.96Z</time></trkpt><trkpt lat="43.44709826858879" lon="12.634110205320804"><ele>398.0</ele><time>2026-04-26T10:23:52.96Z</time></trkpt><trkpt lat="43.44729923160962" lon="12.634173636650035"><ele>397.0</ele><time>2026-04-26T10:23:53.96Z</time></trkpt><trkpt lat="43.447490619916046" lon="12.634221075273395"><ele>396.0</ele><time>2026-04-26T10:23:54.96Z</time></trkpt><trkpt lat="43.44767549688753" lon="12.634248644128906"><ele>396.0</ele><time>2026-04-26T10:23:55.96Z</time></trkpt><trkpt lat="43.4478451586719" lon="12.634257745687473"><ele>396.0</ele><time>2026-04-26T10:23:56.96Z</time></trkpt><trkpt lat="43.448003505948286" lon="12.634267652477956"><ele>396.0</ele><time>2026-04-26T10:23:57.96Z</time></trkpt><trkpt lat="43.44816288519631" lon="12.63426046183921"><ele>394.25</ele><time>2026-04-26T10:23:58.96Z</time></trkpt><trkpt lat="43.44830890687934" lon="12.63424440863724"><ele>392.5</ele><time>2026-04-26T10:23:59.96Z</time></trkpt><trkpt lat="43.44844839812908" lon="12.634220777174242"><ele>390.75</ele><time>2026-04-26T10:24:00.96Z</time></trkpt><trkpt lat="43.448579020702354" lon="12.634207521707731"><ele>389.0</ele><time>2026-04-26T10:24:01.96Z</time></trkpt><trkpt lat="43.448708287515316" lon="12.63420861871701"><ele>388.5</ele><time>2026-04-26T10:24:02.96Z</time></trkpt><trkpt lat="43.448828892852774" lon="12.634218251553904"><ele>388.0</ele><time>2026-04-26T10:24:03.96Z</time></trkpt><trkpt lat="43.44894375062137" lon="12.634231612696185"><ele>387.5</ele><time>2026-04-26T10:24:04.96Z</time></trkpt><trkpt lat="43.44907645790585" lon="12.634241757941172"><ele>387.0</ele><time>2026-04-26T10:24:05.96Z</time></trkpt><trkpt lat="43.44922291063388" lon="12.634261852559835"><ele>387.0</ele><time>2026-04-26T10:24:06.959Z</time></trkpt><trkpt lat="43.449375482657885" lon="12.634275716187977"><ele>387.0</ele><time>2026-04-26T10:24:07.959Z</time></trkpt><trkpt lat="43.449534673285406" lon="12.634290230859271"><ele>387.0</ele><time>2026-04-26T10:24:08.959Z</time></trkpt><trkpt lat="43.449695825201566" lon="12.634273806224636"><ele>386.66666666666663</ele><time>2026-04-26T10:24:09.959Z</time></trkpt><trkpt lat="43.4498737370257" lon="12.634244742309162"><ele>386.3333333333333</ele><time>2026-04-26T10:24:10.959Z</time></trkpt><trkpt lat="43.45005208476006" lon="12.634219088543777"><ele>386.0</ele><time>2026-04-26T10:24:11.959Z</time></trkpt><trkpt lat="43.45022909979929" lon="12.63418645530502"><ele>386.0</ele><time>2026-04-26T10:24:12.959Z</time></trkpt><trkpt lat="43.45041816231528" lon="12.634131150101739"><ele>386.0</ele><time>2026-04-26T10:24:13.959Z</time></trkpt><trkpt lat="43.45060955606598" lon="12.6340651951861"><ele>386.0</ele><time>2026-04-26T10:24:14.959Z</time></trkpt><trkpt lat="43.450790945825304" lon="12.63399023801123"><ele>388.0</ele><time>2026-04-26T10:24:15.959Z</time></trkpt><trkpt lat="43.45097591474437" lon="12.633908289450284"><ele>390.0</ele><time>2026-04-26T10:24:16.959Z</time></trkpt><trkpt lat="43.45116117524943" lon="12.633807209261205"><ele>392.0</ele><time>2026-04-26T10:24:17.959Z</time></trkpt><trkpt lat="43.45134694213082" lon="12.63369336304754"><ele>390.0</ele><time>2026-04-26T10:24:18.959Z</time></trkpt><trkpt lat="43.45153505625961" lon="12.633572195380607"><ele>388.0</ele><time>2026-04-26T10:24:19.959Z</time></trkpt><trkpt lat="43.45172237117973" lon="12.633444690211777"><ele>386.0</ele><time>2026-04-26T10:24:20.959Z</time></trkpt><trkpt lat="43.451907753717805" lon="12.633315756945233"><ele>386.0</ele><time>2026-04-26T10:24:21.959Z</time></trkpt><trkpt lat="43.45208039627637" lon="12.633186201933558"><ele>386.0</ele><time>2026-04-26T10:24:22.959Z</time></trkpt><trkpt lat="43.45224276570007" lon="12.633050652755413"><ele>386.0</ele><time>2026-04-26T10:24:23.959Z</time></trkpt><trkpt lat="43.452389944371504" lon="12.632907276781403"><ele>386.0</ele><time>2026-04-26T10:24:24.959Z</time></trkpt><trkpt lat="43.452539492086466" lon="12.632763539911132"><ele>386.0</ele><time>2026-04-26T10:24:25.959Z</time></trkpt><trkpt lat="43.45269407455923" lon="12.632613996041167"><ele>386.0</ele><time>2026-04-26T10:24:26.959Z</time></trkpt><trkpt lat="43.452846912997806" lon="12.632459790354112"><ele>385.66666666666663</ele><time>2026-04-26T10:24:27.959Z</time></trkpt><trkpt lat="43.45300112400843" lon="12.632302211217429"><ele>385.33333333333337</ele><time>2026-04-26T10:24:28.959Z</time></trkpt><trkpt lat="43.45315460570441" lon="12.632136902927062"><ele>385.0</ele><time>2026-04-26T10:24:29.959Z</time></trkpt><trkpt lat="43.45331129833018" lon="12.631959468107382"><ele>385.0</ele><time>2026-04-26T10:24:30.959Z</time></trkpt><trkpt lat="43.453456809260544" lon="12.63178594834552"><ele>385.0</ele><time>2026-04-26T10:24:31.959Z</time></trkpt><trkpt lat="43.4535933844728" lon="12.631624780777983"><ele>385.0</ele><time>2026-04-26T10:24:32.959Z</time></trkpt><trkpt lat="43.45372603521402" lon="12.631468373817363"><ele>383.6666666666667</ele><time>2026-04-26T10:24:33.959Z</time></trkpt><trkpt lat="43.453849820149856" lon="12.631316305633897"><ele>382.33333333333337</ele><time>2026-04-26T10:24:34.959Z</time></trkpt><trkpt lat="43.453983786053314" lon="12.631154551620531"><ele>381.0</ele><time>2026-04-26T10:24:35.959Z</time></trkpt><trkpt lat="43.45412638028626" lon="12.630989496902066"><ele>381.0</ele><time>2026-04-26T10:24:36.959Z</time></trkpt><trkpt lat="43.45427617943408" lon="12.630821831438821"><ele>381.0</ele><time>2026-04-26T10:24:37.959Z</time></trkpt><trkpt lat="43.45442804014279" lon="12.630643080658745"><ele>381.0</ele><time>2026-04-26T10:24:38.959Z</time></trkpt><trkpt lat="43.45457962599039" lon="12.630472025151766"><ele>380.3333333333333</ele><time>2026-04-26T10:24:39.959Z</time></trkpt><trkpt lat="43.45472400880024" lon="12.63031098519341"><ele>379.66666666666663</ele><time>2026-04-26T10:24:40.959Z</time></trkpt><trkpt lat="43.4548672968546" lon="12.630147283607792"><ele>379.0</ele><time>2026-04-26T10:24:41.959Z</time></trkpt><trkpt lat="43.45501927554265" lon="12.629984945416359"><ele>379.0</ele><time>2026-04-26T10:24:42.959Z</time></trkpt><trkpt lat="43.45516900054577" lon="12.629831379837212"><ele>379.0</ele><time>2026-04-26T10:24:43.959Z</time></trkpt><trkpt lat="43.45532248544794" lon="12.629674157068168"><ele>379.0</ele><time>2026-04-26T10:24:44.959Z</time></trkpt><trkpt lat="43.455479464945086" lon="12.629521344819203"><ele>379.3333333333333</ele><time>2026-04-26T10:24:45.959Z</time></trkpt><trkpt lat="43.45564686709106" lon="12.629376962201478"><ele>379.6666666666667</ele><time>2026-04-26T10:24:46.959Z</time></trkpt><trkpt lat="43.455817393704635" lon="12.629226960278974"><ele>380.0</ele><time>2026-04-26T10:24:47.959Z</time></trkpt><trkpt lat="43.45598466631155" lon="12.629083701669177"><ele>380.0</ele><time>2026-04-26T10:24:48.959Z</time></trkpt><trkpt lat="43.456158500229975" lon="12.628950825177057"><ele>380.0</ele><time>2026-04-26T10:24:49.959Z</time></trkpt><trkpt lat="43.45633080645858" lon="12.628831004304258"><ele>380.0</ele><time>2026-04-26T10:24:50.959Z</time></trkpt><trkpt lat="43.45650372716563" lon="12.628720077454455"><ele>382.6666666666667</ele><time>2026-04-26T10:24:51.959Z</time></trkpt><trkpt lat="43.45667009367726" lon="12.628616498562858"><ele>385.33333333333337</ele><time>2026-04-26T10:24:52.959Z</time></trkpt><trkpt lat="43.45683736382766" lon="12.628516941122962"><ele>388.0</ele><time>2026-04-26T10:24:53.959Z</time></trkpt><trkpt lat="43.45701293910361" lon="12.628423457738679"><ele>386.0</ele><time>2026-04-26T10:24:54.959Z</time></trkpt><trkpt lat="43.45719341966461" lon="12.6283303928248"><ele>384.0</ele><time>2026-04-26T10:24:55.959Z</time></trkpt><trkpt lat="43.45738034915542" lon="12.628242954972931"><ele>382.0</ele><time>2026-04-26T10:24:56.959Z</time></trkpt><trkpt lat="43.45757655756991" lon="12.628159583223315"><ele>382.0</ele><time>2026-04-26T10:24:57.959Z</time></trkpt><trkpt lat="43.45777180316636" lon="12.628093786416668"><ele>382.0</ele><time>2026-04-26T10:24:58.959Z</time></trkpt><trkpt lat="43.457955973886655" lon="12.62802713271002"><ele>382.0</ele><time>2026-04-26T10:24:59.959Z</time></trkpt><trkpt lat="43.45815517412726" lon="12.627974412260729"><ele>381.0</ele><time>2026-04-26T10:25:00.959Z</time></trkpt><trkpt lat="43.45836503588898" lon="12.627917892287064"><ele>380.0</ele><time>2026-04-26T10:25:01.959Z</time></trkpt><trkpt lat="43.45856995488539" lon="12.627873103009502"><ele>379.0</ele><time>2026-04-26T10:25:02.959Z</time></trkpt><trkpt lat="43.45877220835107" lon="12.627834157328794"><ele>377.66666666666663</ele><time>2026-04-26T10:25:03.959Z</time></trkpt><trkpt lat="43.458982237468035" lon="12.62780462850216"><ele>376.3333333333333</ele><time>2026-04-26T10:25:04.959Z</time></trkpt><trkpt lat="43.45919182414726" lon="12.627786692699582"><ele>375.0</ele><time>2026-04-26T10:25:05.959Z</time></trkpt><trkpt lat="43.45939737109099" lon="12.627798003415057"><ele>375.0</ele><time>2026-04-26T10:25:06.959Z</time></trkpt><trkpt lat="43.45958038500993" lon="12.627773029746825"><ele>375.0</ele><time>2026-04-26T10:25:07.959Z</time></trkpt><trkpt lat="43.45977604779247" lon="12.627778863100406"><ele>375.0</ele><time>2026-04-26T10:25:08.959Z</time></trkpt><trkpt lat="43.459974118886166" lon="12.627807963886317"><ele>375.6666666666667</ele><time>2026-04-26T10:25:09.959Z</time></trkpt><trkpt lat="43.46018766193387" lon="12.62782917008019"><ele>376.33333333333337</ele><time>2026-04-26T10:25:10.958Z</time></trkpt><trkpt lat="43.46040764377934" lon="12.62783475366355"><ele>377.0</ele><time>2026-04-26T10:25:11.958Z</time></trkpt><trkpt lat="43.4606297463248" lon="12.627877816557183"><ele>377.0</ele><time>2026-04-26T10:25:12.958Z</time></trkpt><trkpt lat="43.46083064651986" lon="12.627922027550124"><ele>377.0</ele><time>2026-04-26T10:25:13.958Z</time></trkpt><trkpt lat="43.46102228467622" lon="12.627948812762096"><ele>377.0</ele><time>2026-04-26T10:25:14.958Z</time></trkpt><trkpt lat="43.46120799206308" lon="12.62798628984949"><ele>377.6666666666667</ele><time>2026-04-26T10:25:15.958Z</time></trkpt><trkpt lat="43.46139465362471" lon="12.628040713548877"><ele>378.3333333333333</ele><time>2026-04-26T10:25:16.958Z</time></trkpt><trkpt lat="43.46159324373142" lon="12.628070194507762"><ele>379.0</ele><time>2026-04-26T10:25:17.958Z</time></trkpt><trkpt lat="43.46179017747082" lon="12.62810445717307"><ele>379.0</ele><time>2026-04-26T10:25:18.958Z</time></trkpt><trkpt lat="43.46197440631529" lon="12.628129604071821"><ele>379.0</ele><time>2026-04-26T10:25:19.958Z</time></trkpt><trkpt lat="43.46216405925433" lon="12.628166174041583"><ele>379.0</ele><time>2026-04-26T10:25:20.958Z</time></trkpt><trkpt lat="43.46235549353779" lon="12.628204451787107"><ele>378.3333333333333</ele><time>2026-04-26T10:25:21.958Z</time></trkpt><trkpt lat="43.462552385256366" lon="12.62822793880807"><ele>377.6666666666667</ele><time>2026-04-26T10:25:22.958Z</time></trkpt><trkpt lat="43.46275058140898" lon="12.628250276457397"><ele>377.0</ele><time>2026-04-26T10:25:23.958Z</time></trkpt><trkpt lat="43.46295285239591" lon="12.628266475037119"><ele>377.0</ele><time>2026-04-26T10:25:24.958Z</time></trkpt><trkpt lat="43.46315235768156" lon="12.628280089771922"><ele>377.0</ele><time>2026-04-26T10:25:25.958Z</time></trkpt><trkpt lat="43.46335248759974" lon="12.628290187640577"><ele>377.0</ele><time>2026-04-26T10:25:26.958Z</time></trkpt><trkpt lat="43.46354850819746" lon="12.628292541445612"><ele>377.0</ele><time>2026-04-26T10:25:27.958Z</time></trkpt><trkpt lat="43.46375198238533" lon="12.628291084216444"><ele>377.0</ele><time>2026-04-26T10:25:28.958Z</time></trkpt><trkpt lat="43.46394821792785" lon="12.628289130975812"><ele>377.0</ele><time>2026-04-26T10:25:29.958Z</time></trkpt><trkpt lat="43.46414976357056" lon="12.628328025640178"><ele>375.0</ele><time>2026-04-26T10:25:30.958Z</time></trkpt><trkpt lat="43.46434256942229" lon="12.628311209517937"><ele>373.0</ele><time>2026-04-26T10:25:31.958Z</time></trkpt><trkpt lat="43.4645310062538" lon="12.628290326033499"><ele>371.0</ele><time>2026-04-26T10:25:32.958Z</time></trkpt><trkpt lat="43.46472651855736" lon="12.628262767838955"><ele>370.6666666666667</ele><time>2026-04-26T10:25:33.958Z</time></trkpt><trkpt lat="43.46491040457311" lon="12.628227584410583"><ele>370.3333333333333</ele><time>2026-04-26T10:25:34.958Z</time></trkpt><trkpt lat="43.46508235249829" lon="12.628190361777769"><ele>370.0</ele><time>2026-04-26T10:25:35.958Z</time></trkpt><trkpt lat="43.46525683058336" lon="12.628151875652376"><ele>370.0</ele><time>2026-04-26T10:25:36.958Z</time></trkpt><trkpt lat="43.46542813407234" lon="12.628116274985631"><ele>370.0</ele><time>2026-04-26T10:25:37.958Z</time></trkpt><trkpt lat="43.46559729922313" lon="12.628049311359463"><ele>370.0</ele><time>2026-04-26T10:25:38.958Z</time></trkpt><trkpt lat="43.46577200810377" lon="12.627988311163495"><ele>370.3333333333333</ele><time>2026-04-26T10:25:39.958Z</time></trkpt><trkpt lat="43.465990845022226" lon="12.628112356623982"><ele>370.6666666666667</ele><time>2026-04-26T10:25:40.958Z</time></trkpt><trkpt lat="43.46616141315107" lon="12.628036713033127"><ele>371.0</ele><time>2026-04-26T10:25:41.958Z</time></trkpt><trkpt lat="43.46634047208556" lon="12.627957303939734"><ele>374.33333333333337</ele><time>2026-04-26T10:25:42.958Z</time></trkpt><trkpt lat="43.46651768228915" lon="12.627878714719909"><ele>377.6666666666667</ele><time>2026-04-26T10:25:43.958Z</time></trkpt><trkpt lat="43.46665937388078" lon="12.627611812397465"><ele>381.0</ele><time>2026-04-26T10:25:44.959Z</time></trkpt><trkpt lat="43.466837075056304" lon="12.627531874090549"><ele>381.3333333333333</ele><time>2026-04-26T10:25:45.959Z</time></trkpt><trkpt lat="43.467012001208055" lon="12.627441637956546"><ele>381.66666666666663</ele><time>2026-04-26T10:25:46.959Z</time></trkpt><trkpt lat="43.4671858959926" lon="12.627342978207626"><ele>382.0</ele><time>2026-04-26T10:25:47.959Z</time></trkpt><trkpt lat="43.46735399382723" lon="12.627237141904839"><ele>384.0</ele><time>2026-04-26T10:25:48.959Z</time></trkpt><trkpt lat="43.467514367229235" lon="12.627146703951002"><ele>386.0</ele><time>2026-04-26T10:25:49.959Z</time></trkpt><trkpt lat="43.467670659207286" lon="12.62705036800243"><ele>388.0</ele><time>2026-04-26T10:25:50.958Z</time></trkpt><trkpt lat="43.46783208605053" lon="12.626949280138282"><ele>392.5</ele><time>2026-04-26T10:25:51.959Z</time></trkpt><trkpt lat="43.468168328077155" lon="12.62675578570027"><ele>397.0</ele><time>2026-04-26T10:25:53.959Z</time></trkpt><trkpt lat="43.468337327003496" lon="12.626657896223893"><ele>397.0</ele><time>2026-04-26T10:25:54.959Z</time></trkpt><trkpt lat="43.46850847343129" lon="12.62655901116837"><ele>397.0</ele><time>2026-04-26T10:25:55.959Z</time></trkpt><trkpt lat="43.46867794125867" lon="12.626460792219053"><ele>397.0</ele><time>2026-04-26T10:25:56.959Z</time></trkpt><trkpt lat="43.46884351505969" lon="12.626367981104417"><ele>394.0</ele><time>2026-04-26T10:25:57.959Z</time></trkpt><trkpt lat="43.46900653817807" lon="12.626274468383777"><ele>391.0</ele><time>2026-04-26T10:25:58.959Z</time></trkpt><trkpt lat="43.47223187623017" lon="12.624391955228283"><ele>378.5</ele><time>2026-04-26T10:26:15.959Z</time></trkpt><trkpt lat="43.472610585748946" lon="12.624292492887536"><ele>366.0</ele><time>2026-04-26T10:26:17.959Z</time></trkpt><trkpt lat="43.47281406245094" lon="12.624223207593836"><ele>366.3333333333333</ele><time>2026-04-26T10:26:18.959Z</time></trkpt><trkpt lat="43.47303297190977" lon="12.624180879690494"><ele>366.66666666666663</ele><time>2026-04-26T10:26:19.959Z</time></trkpt><trkpt lat="43.4732441074155" lon="12.624153929193788"><ele>367.0</ele><time>2026-04-26T10:26:20.959Z</time></trkpt><trkpt lat="43.47344776788117" lon="12.624152943947838"><ele>367.0</ele><time>2026-04-26T10:26:21.959Z</time></trkpt><trkpt lat="43.47364753512068" lon="12.624149704201724"><ele>367.0</ele><time>2026-04-26T10:26:22.959Z</time></trkpt><trkpt lat="43.47384360684472" lon="12.624161597368655"><ele>367.0</ele><time>2026-04-26T10:26:23.959Z</time></trkpt><trkpt lat="43.47403565883919" lon="12.624162286573771"><ele>371.0</ele><time>2026-04-26T10:26:24.958Z</time></trkpt><trkpt lat="43.47422543188325" lon="12.624164384097174"><ele>375.0</ele><time>2026-04-26T10:26:25.958Z</time></trkpt><trkpt lat="43.47440999339534" lon="12.624178932836687"><ele>379.0</ele><time>2026-04-26T10:26:26.958Z</time></trkpt><trkpt lat="43.47459988658065" lon="12.624192563894082"><ele>376.3333333333333</ele><time>2026-04-26T10:26:27.958Z</time></trkpt><trkpt lat="43.47479399534996" lon="12.62420938799066"><ele>373.6666666666667</ele><time>2026-04-26T10:26:28.958Z</time></trkpt><trkpt lat="43.47499055764034" lon="12.624231755055803"><ele>371.0</ele><time>2026-04-26T10:26:29.958Z</time></trkpt><trkpt lat="43.475830282968545" lon="12.624288874549812"><ele>367.33333333333337</ele><time>2026-04-26T10:26:33.958Z</time></trkpt><trkpt lat="43.476016027577536" lon="12.624187465106987"><ele>363.6666666666667</ele><time>2026-04-26T10:26:34.958Z</time></trkpt><trkpt lat="43.47621406166926" lon="12.62413232735917"><ele>360.0</ele><time>2026-04-26T10:26:35.958Z</time></trkpt><trkpt lat="43.47640366028409" lon="12.624100367497315"><ele>358.3333333333333</ele><time>2026-04-26T10:26:36.958Z</time></trkpt><trkpt lat="43.476595798545816" lon="12.624051516529361"><ele>356.66666666666663</ele><time>2026-04-26T10:26:37.958Z</time></trkpt><trkpt lat="43.47677378803108" lon="12.623950728977208"><ele>355.0</ele><time>2026-04-26T10:26:38.958Z</time></trkpt><trkpt lat="43.476959907911755" lon="12.623846176051437"><ele>355.0</ele><time>2026-04-26T10:26:39.958Z</time></trkpt><trkpt lat="43.47715606819898" lon="12.623716057937663"><ele>355.0</ele><time>2026-04-26T10:26:40.958Z</time></trkpt><trkpt lat="43.47734128259558" lon="12.623574397944742"><ele>355.0</ele><time>2026-04-26T10:26:41.958Z</time></trkpt><trkpt lat="43.477520392989234" lon="12.623416894816307"><ele>355.0</ele><time>2026-04-26T10:26:42.958Z</time></trkpt><trkpt lat="43.47769875480578" lon="12.623269745249024"><ele>355.0</ele><time>2026-04-26T10:26:43.958Z</time></trkpt><trkpt lat="43.47787618679727" lon="12.623134670994318"><ele>355.0</ele><time>2026-04-26T10:26:44.958Z</time></trkpt><trkpt lat="43.47805665071259" lon="12.622986784451797"><ele>354.3333333333333</ele><time>2026-04-26T10:26:45.958Z</time></trkpt><trkpt lat="43.478248789861134" lon="12.622845330849843"><ele>353.6666666666667</ele><time>2026-04-26T10:26:46.958Z</time></trkpt><trkpt lat="43.478435558134706" lon="12.622707814806489"><ele>353.0</ele><time>2026-04-26T10:26:47.958Z</time></trkpt><trkpt lat="43.47862167492318" lon="12.622552571713241"><ele>352.6666666666667</ele><time>2026-04-26T10:26:48.958Z</time></trkpt><trkpt lat="43.47879790197857" lon="12.62240401868951"><ele>352.3333333333333</ele><time>2026-04-26T10:26:49.958Z</time></trkpt><trkpt lat="43.47896593368515" lon="12.622266418196034"><ele>352.0</ele><time>2026-04-26T10:26:50.958Z</time></trkpt><trkpt lat="43.479124322480615" lon="12.622144164848237"><ele>352.0</ele><time>2026-04-26T10:26:51.958Z</time></trkpt><trkpt lat="43.479283063802974" lon="12.622036081121719"><ele>352.0</ele><time>2026-04-26T10:26:52.958Z</time></trkpt><trkpt lat="43.479441710401574" lon="12.621929328573858"><ele>352.0</ele><time>2026-04-26T10:26:53.958Z</time></trkpt><trkpt lat="43.47961778291047" lon="12.6218191328266"><ele>351.3333333333333</ele><time>2026-04-26T10:26:54.958Z</time></trkpt><trkpt lat="43.47979946280137" lon="12.621704373690855"><ele>350.6666666666667</ele><time>2026-04-26T10:26:55.958Z</time></trkpt><trkpt lat="43.479989995938446" lon="12.621597544176055"><ele>350.0</ele><time>2026-04-26T10:26:56.958Z</time></trkpt><trkpt lat="43.48016058410058" lon="12.62149820490855"><ele>350.0</ele><time>2026-04-26T10:26:57.958Z</time></trkpt><trkpt lat="43.48033521458294" lon="12.62140942835052"><ele>350.0</ele><time>2026-04-26T10:26:58.958Z</time></trkpt><trkpt lat="43.480514893174536" lon="12.621332298480182"><ele>350.0</ele><time>2026-04-26T10:26:59.958Z</time></trkpt><trkpt lat="43.48069194750687" lon="12.621262789950576"><ele>349.33333333333337</ele><time>2026-04-26T10:27:00.958Z</time></trkpt><trkpt lat="43.480858614908435" lon="12.621200323362864"><ele>348.6666666666667</ele><time>2026-04-26T10:27:01.958Z</time></trkpt><trkpt lat="43.48100614295919" lon="12.62115270630109"><ele>348.0</ele><time>2026-04-26T10:27:02.958Z</time></trkpt><trkpt lat="43.48114965910204" lon="12.621119748676593"><ele>349.0</ele><time>2026-04-26T10:27:03.958Z</time></trkpt><trkpt lat="43.481294256776735" lon="12.62108952034335"><ele>350.0</ele><time>2026-04-26T10:27:04.958Z</time></trkpt><trkpt lat="43.48141859719702" lon="12.621053091256679"><ele>351.0</ele><time>2026-04-26T10:27:05.958Z</time></trkpt><trkpt lat="43.48153433921091" lon="12.621026219635759"><ele>352.0</ele><time>2026-04-26T10:27:06.958Z</time></trkpt><trkpt lat="43.48163487895885" lon="12.621007637725196"><ele>352.0</ele><time>2026-04-26T10:27:07.958Z</time></trkpt><trkpt lat="43.4817287155241" lon="12.621003307607769"><ele>352.0</ele><time>2026-04-26T10:27:08.958Z</time></trkpt><trkpt lat="43.4818084548364" lon="12.621026570087276"><ele>352.0</ele><time>2026-04-26T10:27:09.958Z</time></trkpt><trkpt lat="43.48191579029611" lon="12.621193543728745"><ele>352.0</ele><time>2026-04-26T10:27:11.958Z</time></trkpt><trkpt lat="43.48190336866602" lon="12.621317129154342"><ele>352.0</ele><time>2026-04-26T10:27:12.958Z</time></trkpt><trkpt lat="43.48187222846984" lon="12.621412946476312"><ele>351.0</ele><time>2026-04-26T10:27:13.958Z</time></trkpt><trkpt lat="43.481825631867736" lon="12.621496791673028"><ele>350.0</ele><time>2026-04-26T10:27:14.958Z</time></trkpt><trkpt lat="43.48175370035932" lon="12.621536898719599"><ele>349.0</ele><time>2026-04-26T10:27:15.958Z</time></trkpt><trkpt lat="43.481691967615056" lon="12.62167770553148"><ele>348.0</ele><time>2026-04-26T10:27:17.958Z</time></trkpt><trkpt lat="43.481584167545336" lon="12.621694800367017"><ele>347.0</ele><time>2026-04-26T10:27:18.958Z</time></trkpt><trkpt lat="43.481488566398276" lon="12.621786229796392"><ele>347.0</ele><time>2026-04-26T10:27:19.958Z</time></trkpt><trkpt lat="43.48136885612744" lon="12.621881983283442"><ele>347.0</ele><time>2026-04-26T10:27:20.958Z</time></trkpt><trkpt lat="43.48125403413007" lon="12.621958994896904"><ele>347.0</ele><time>2026-04-26T10:27:21.958Z</time></trkpt><trkpt lat="43.481150972180956" lon="12.622022932060291"><ele>347.0</ele><time>2026-04-26T10:27:22.958Z</time></trkpt><trkpt lat="43.48104303984124" lon="12.622072843639515"><ele>347.40000000000003</ele><time>2026-04-26T10:27:23.958Z</time></trkpt><trkpt lat="43.480937093617065" lon="12.622121907795577"><ele>347.8</ele><time>2026-04-26T10:27:24.958Z</time></trkpt><trkpt lat="43.480867302934676" lon="12.622221326253511"><ele>348.2</ele><time>2026-04-26T10:27:25.958Z</time></trkpt><trkpt lat="43.48080923201449" lon="12.622313698148362"><ele>348.6</ele><time>2026-04-26T10:27:26.957Z</time></trkpt><trkpt lat="43.480767613426224" lon="12.622437865534252"><ele>349.0</ele><time>2026-04-26T10:27:27.957Z</time></trkpt><trkpt lat="43.48075885852082" lon="12.62257009992376"><ele>349.0</ele><time>2026-04-26T10:27:28.957Z</time></trkpt><trkpt lat="43.48077002359154" lon="12.622685747479348"><ele>349.0</ele><time>2026-04-26T10:27:29.957Z</time></trkpt><trkpt lat="43.48080592170856" lon="12.62284373556536"><ele>349.0</ele><time>2026-04-26T10:27:30.957Z</time></trkpt><trkpt lat="43.480876516993334" lon="12.6230491610133"><ele>349.0</ele><time>2026-04-26T10:27:31.957Z</time></trkpt><trkpt lat="43.48097456490394" lon="12.623252450647552"><ele>349.25</ele><time>2026-04-26T10:27:32.957Z</time></trkpt><trkpt lat="43.48105635981348" lon="12.623447321240226"><ele>349.5</ele><time>2026-04-26T10:27:33.957Z</time></trkpt><trkpt lat="43.481125316044945" lon="12.623612269922901"><ele>349.75</ele><time>2026-04-26T10:27:34.957Z</time></trkpt><trkpt lat="43.481191250690166" lon="12.623763109709046"><ele>350.0</ele><time>2026-04-26T10:27:35.957Z</time></trkpt><trkpt lat="43.48124386157352" lon="12.623908328249618"><ele>349.5</ele><time>2026-04-26T10:27:36.957Z</time></trkpt><trkpt lat="43.481298087644625" lon="12.624050807079692"><ele>349.0</ele><time>2026-04-26T10:27:37.957Z</time></trkpt><trkpt lat="43.481349899740025" lon="12.624209134756283"><ele>348.5</ele><time>2026-04-26T10:27:38.957Z</time></trkpt><trkpt lat="43.48140202343573" lon="12.624351741678602"><ele>348.0</ele><time>2026-04-26T10:27:39.957Z</time></trkpt><trkpt lat="43.481447600270364" lon="12.62447778441899"><ele>348.4</ele><time>2026-04-26T10:27:40.957Z</time></trkpt><trkpt lat="43.48148999144969" lon="12.624604663472406"><ele>348.79999999999995</ele><time>2026-04-26T10:27:41.957Z</time></trkpt><trkpt lat="43.48153017476132" lon="12.624734582256217"><ele>349.2</ele><time>2026-04-26T10:27:42.957Z</time></trkpt><trkpt lat="43.48156135465467" lon="12.624853474262446"><ele>349.6</ele><time>2026-04-26T10:27:43.957Z</time></trkpt><trkpt lat="43.48159156475249" lon="12.62496225871093"><ele>350.0</ele><time>2026-04-26T10:27:44.957Z</time></trkpt><trkpt lat="43.48161016287763" lon="12.62507993980842"><ele>350.0</ele><time>2026-04-26T10:27:46.957Z</time></trkpt><trkpt lat="43.481616845095765" lon="12.625216485710249"><ele>350.0</ele><time>2026-04-26T10:27:49.957Z</time></trkpt><trkpt lat="43.4816730584891" lon="12.625323168583225"><ele>350.0</ele><time>2026-04-26T10:27:51.958Z</time></trkpt><trkpt lat="43.48183620687546" lon="12.625341837954794"><ele>350.0</ele><time>2026-04-26T10:27:53.958Z</time></trkpt><trkpt lat="43.48193427924075" lon="12.625297432533833"><ele>350.0</ele><time>2026-04-26T10:27:54.958Z</time></trkpt><trkpt lat="43.482029609342604" lon="12.625224950792116"><ele>350.0</ele><time>2026-04-26T10:27:55.958Z</time></trkpt><trkpt lat="43.482128607453596" lon="12.625155188814295"><ele>350.0</ele><time>2026-04-26T10:27:56.957Z</time></trkpt><trkpt lat="43.48225214129715" lon="12.625121572674864"><ele>350.0</ele><time>2026-04-26T10:27:57.958Z</time></trkpt><trkpt lat="43.482367055532805" lon="12.625055493367054"><ele>350.25</ele><time>2026-04-26T10:27:58.958Z</time></trkpt><trkpt lat="43.48248889489581" lon="12.624983237284093"><ele>350.5</ele><time>2026-04-26T10:27:59.958Z</time></trkpt><trkpt lat="43.48260948818414" lon="12.624910936883625"><ele>350.75</ele><time>2026-04-26T10:28:00.958Z</time></trkpt><trkpt lat="43.48273665145922" lon="12.624832207766575"><ele>351.0</ele><time>2026-04-26T10:28:01.958Z</time></trkpt><trkpt lat="43.482863652184875" lon="12.6247534330396"><ele>351.5</ele><time>2026-04-26T10:28:02.958Z</time></trkpt><trkpt lat="43.482984585002534" lon="12.624648305985488"><ele>352.0</ele><time>2026-04-26T10:28:03.957Z</time></trkpt><trkpt lat="43.48312045724493" lon="12.624566373329854"><ele>352.5</ele><time>2026-04-26T10:28:04.957Z</time></trkpt><trkpt lat="43.48325730233849" lon="12.624490814442897"><ele>353.0</ele><time>2026-04-26T10:28:05.957Z</time></trkpt><trkpt lat="43.48339219064084" lon="12.624405347117"><ele>352.0</ele><time>2026-04-26T10:28:06.957Z</time></trkpt><trkpt lat="43.48351989013966" lon="12.624310587861288"><ele>351.0</ele><time>2026-04-26T10:28:07.957Z</time></trkpt><trkpt lat="43.48366151853914" lon="12.624220804843969"><ele>350.0</ele><time>2026-04-26T10:28:08.957Z</time></trkpt><trkpt lat="43.48380213565264" lon="12.6241386513069"><ele>350.0</ele><time>2026-04-26T10:28:09.957Z</time></trkpt><trkpt lat="43.483948954107106" lon="12.624043510569912"><ele>350.0</ele><time>2026-04-26T10:28:10.957Z</time></trkpt><trkpt lat="43.48407894883686" lon="12.623949151771464"><ele>350.0</ele><time>2026-04-26T10:28:11.957Z</time></trkpt><trkpt lat="43.48420848059188" lon="12.62385747610163"><ele>350.0</ele><time>2026-04-26T10:28:12.957Z</time></trkpt><trkpt lat="43.48433808028491" lon="12.62376301470227"><ele>350.0</ele><time>2026-04-26T10:28:13.957Z</time></trkpt><trkpt lat="43.48446650537072" lon="12.623667068421158"><ele>350.0</ele><time>2026-04-26T10:28:14.957Z</time></trkpt><trkpt lat="43.4845797578137" lon="12.623583833121756"><ele>350.0</ele><time>2026-04-26T10:28:15.957Z</time></trkpt><trkpt lat="43.48468810057928" lon="12.623494812555826"><ele>349.5</ele><time>2026-04-26T10:28:16.957Z</time></trkpt><trkpt lat="43.48479122144063" lon="12.623410831236317"><ele>349.0</ele><time>2026-04-26T10:28:17.957Z</time></trkpt><trkpt lat="43.48489880570505" lon="12.623329866240462"><ele>348.5</ele><time>2026-04-26T10:28:18.957Z</time></trkpt><trkpt lat="43.485010128799324" lon="12.623240095025475"><ele>348.0</ele><time>2026-04-26T10:28:19.957Z</time></trkpt><trkpt lat="43.48512980926136" lon="12.623158051784088"><ele>348.0</ele><time>2026-04-26T10:28:20.957Z</time></trkpt><trkpt lat="43.48524923783817" lon="12.623068310691185"><ele>348.0</ele><time>2026-04-26T10:28:21.957Z</time></trkpt><trkpt lat="43.48535462702033" lon="12.622982920505835"><ele>348.0</ele><time>2026-04-26T10:28:22.957Z</time></trkpt><trkpt lat="43.485457188324155" lon="12.6229103014029"><ele>348.0</ele><time>2026-04-26T10:28:23.957Z</time></trkpt><trkpt lat="43.48555319699049" lon="12.622832511981594"><ele>347.79999999999995</ele><time>2026-04-26T10:28:24.957Z</time></trkpt><trkpt lat="43.485645518684855" lon="12.622749494033066"><ele>347.6</ele><time>2026-04-26T10:28:25.957Z</time></trkpt><trkpt lat="43.4857361812929" lon="12.622688625265914"><ele>347.4</ele><time>2026-04-26T10:28:26.957Z</time></trkpt><trkpt lat="43.48581937752452" lon="12.62262900266225"><ele>347.20000000000005</ele><time>2026-04-26T10:28:27.957Z</time></trkpt><trkpt lat="43.48590823555305" lon="12.62254980444009"><ele>347.0</ele><time>2026-04-26T10:28:28.957Z</time></trkpt><trkpt lat="43.48599949483129" lon="12.622481209498112"><ele>347.0</ele><time>2026-04-26T10:28:29.957Z</time></trkpt><trkpt lat="43.486077442085595" lon="12.622422359128048"><ele>347.0</ele><time>2026-04-26T10:28:30.957Z</time></trkpt><trkpt lat="43.48615947958181" lon="12.622383484803402"><ele>347.0</ele><time>2026-04-26T10:28:31.957Z</time></trkpt><trkpt lat="43.48624713037192" lon="12.622332717895308"><ele>347.0</ele><time>2026-04-26T10:28:32.957Z</time></trkpt><trkpt lat="43.486340848802975" lon="12.622272218602824"><ele>347.0</ele><time>2026-04-26T10:28:33.957Z</time></trkpt><trkpt lat="43.48643021449031" lon="12.622210713303264"><ele>349.5</ele><time>2026-04-26T10:28:34.957Z</time></trkpt><trkpt lat="43.486498803453735" lon="12.622165806973573"><ele>352.0</ele><time>2026-04-26T10:28:35.957Z</time></trkpt><trkpt lat="43.48657288715298" lon="12.622136029078042"><ele>354.5</ele><time>2026-04-26T10:28:36.957Z</time></trkpt><trkpt lat="43.48665560513297" lon="12.622105442624488"><ele>357.0</ele><time>2026-04-26T10:28:37.957Z</time></trkpt><trkpt lat="43.48675638670101" lon="12.622094941638196"><ele>359.5</ele><time>2026-04-26T10:28:38.957Z</time></trkpt><trkpt lat="43.48684552098127" lon="12.622081020968462"><ele>362.0</ele><time>2026-04-26T10:28:39.957Z</time></trkpt><trkpt lat="43.486928449455284" lon="12.622074867370385"><ele>362.0</ele><time>2026-04-26T10:28:40.957Z</time></trkpt><trkpt lat="43.4870205077429" lon="12.622061290577518"><ele>362.0</ele><time>2026-04-26T10:28:41.957Z</time></trkpt><trkpt lat="43.48711822498426" lon="12.622047729035902"><ele>362.0</ele><time>2026-04-26T10:28:42.957Z</time></trkpt><trkpt lat="43.487216926769484" lon="12.622022168773546"><ele>362.0</ele><time>2026-04-26T10:28:43.957Z</time></trkpt><trkpt lat="43.487311329208595" lon="12.621985699418586"><ele>362.0</ele><time>2026-04-26T10:28:44.957Z</time></trkpt><trkpt lat="43.48740378496114" lon="12.62194289759545"><ele>359.83333333333337</ele><time>2026-04-26T10:28:45.957Z</time></trkpt><trkpt lat="43.487486341061654" lon="12.621902045097235"><ele>357.6666666666667</ele><time>2026-04-26T10:28:46.957Z</time></trkpt><trkpt lat="43.48755993091195" lon="12.621861190571368"><ele>355.5</ele><time>2026-04-26T10:28:47.957Z</time></trkpt><trkpt lat="43.48762779623339" lon="12.621849143472911"><ele>353.3333333333333</ele><time>2026-04-26T10:28:48.957Z</time></trkpt><trkpt lat="43.48773649817132" lon="12.62177919427503"><ele>351.16666666666663</ele><time>2026-04-26T10:28:50.957Z</time></trkpt><trkpt lat="43.487797655869635" lon="12.621752874273469"><ele>349.0</ele><time>2026-04-26T10:28:52.957Z</time></trkpt><trkpt lat="43.487745260259246" lon="12.621457621988975"><ele>349.0</ele><time>2026-04-26T10:28:54.957Z</time></trkpt><trkpt lat="43.48774841452064" lon="12.621351362038121"><ele>349.0</ele><time>2026-04-26T10:28:55.957Z</time></trkpt><trkpt lat="43.487775371928095" lon="12.621271733467976"><ele>349.0</ele><time>2026-04-26T10:28:56.957Z</time></trkpt><trkpt lat="43.4878166648163" lon="12.621185381968141"><ele>349.0</ele><time>2026-04-26T10:28:57.957Z</time></trkpt><trkpt lat="43.487877530911774" lon="12.621115139634275"><ele>349.0</ele><time>2026-04-26T10:28:58.957Z</time></trkpt><trkpt lat="43.48796951181244" lon="12.621076198284532"><ele>349.0</ele><time>2026-04-26T10:28:59.957Z</time></trkpt><trkpt lat="43.48806987650258" lon="12.621069656412054"><ele>347.4</ele><time>2026-04-26T10:29:00.957Z</time></trkpt><trkpt lat="43.48816583979901" lon="12.621108758281114"><ele>345.79999999999995</ele><time>2026-04-26T10:29:01.957Z</time></trkpt><trkpt lat="43.48825702053995" lon="12.621146152901554"><ele>344.20000000000005</ele><time>2026-04-26T10:29:02.957Z</time></trkpt><trkpt lat="43.4883555020179" lon="12.621185281562063"><ele>342.6</ele><time>2026-04-26T10:29:03.957Z</time></trkpt><trkpt lat="43.48845236941555" lon="12.62115939329533"><ele>341.0</ele><time>2026-04-26T10:29:04.956Z</time></trkpt><trkpt lat="43.4885370937715" lon="12.621077834081499"><ele>341.0</ele><time>2026-04-26T10:29:05.956Z</time></trkpt><trkpt lat="43.48862509880757" lon="12.620981594268065"><ele>341.0</ele><time>2026-04-26T10:29:06.956Z</time></trkpt><trkpt lat="43.48872128258299" lon="12.620894071266651"><ele>341.0</ele><time>2026-04-26T10:29:07.956Z</time></trkpt><trkpt lat="43.488805880026355" lon="12.620811255100577"><ele>341.0</ele><time>2026-04-26T10:29:08.956Z</time></trkpt><trkpt lat="43.48887257550374" lon="12.620736235846769"><ele>341.0</ele><time>2026-04-26T10:29:09.956Z</time></trkpt><trkpt lat="43.48892305855844" lon="12.620639806170951"><ele>341.25</ele><time>2026-04-26T10:29:10.956Z</time></trkpt><trkpt lat="43.4889734419678" lon="12.62051779725969"><ele>341.5</ele><time>2026-04-26T10:29:11.956Z</time></trkpt><trkpt lat="43.48900977840979" lon="12.620378114225108"><ele>341.75</ele><time>2026-04-26T10:29:12.956Z</time></trkpt><trkpt lat="43.4890578890839" lon="12.620225309576515"><ele>342.0</ele><time>2026-04-26T10:29:13.956Z</time></trkpt><trkpt lat="43.48912410542883" lon="12.620083483610834"><ele>343.20000000000005</ele><time>2026-04-26T10:29:14.956Z</time></trkpt><trkpt lat="43.48921221325666" lon="12.619978983130967"><ele>344.4</ele><time>2026-04-26T10:29:15.956Z</time></trkpt><trkpt lat="43.48929408913696" lon="12.619884887522986"><ele>345.6</ele><time>2026-04-26T10:29:16.956Z</time></trkpt><trkpt lat="43.48937595908976" lon="12.619797528614045"><ele>346.79999999999995</ele><time>2026-04-26T10:29:17.956Z</time></trkpt><trkpt lat="43.48944152375685" lon="12.619683899260005"><ele>348.0</ele><time>2026-04-26T10:29:18.956Z</time></trkpt><trkpt lat="43.4895111754523" lon="12.619599341912021"><ele>348.0</ele><time>2026-04-26T10:29:19.956Z</time></trkpt><trkpt lat="43.48957306007363" lon="12.619520560540135"><ele>348.0</ele><time>2026-04-26T10:29:20.956Z</time></trkpt><trkpt lat="43.4896509508486" lon="12.619448841030994"><ele>348.0</ele><time>2026-04-26T10:29:21.956Z</time></trkpt><trkpt lat="43.489751897728965" lon="12.619396263710119"><ele>348.0</ele><time>2026-04-26T10:29:22.956Z</time></trkpt><trkpt lat="43.48987655654178" lon="12.619349554377361"><ele>348.0</ele><time>2026-04-26T10:29:23.956Z</time></trkpt><trkpt lat="43.49001143745682" lon="12.619273103619506"><ele>351.3333333333333</ele><time>2026-04-26T10:29:24.956Z</time></trkpt><trkpt lat="43.49013174363338" lon="12.619155544051932"><ele>354.66666666666663</ele><time>2026-04-26T10:29:25.956Z</time></trkpt><trkpt lat="43.49026830658061" lon="12.619012082525735"><ele>358.0</ele><time>2026-04-26T10:29:26.956Z</time></trkpt><trkpt lat="43.49041122962594" lon="12.618835632598044"><ele>364.0</ele><time>2026-04-26T10:29:27.956Z</time></trkpt><trkpt lat="43.49054956408689" lon="12.618629960808223"><ele>370.0</ele><time>2026-04-26T10:29:28.956Z</time></trkpt><trkpt lat="43.49068264468213" lon="12.618420735774839"><ele>376.0</ele><time>2026-04-26T10:29:29.956Z</time></trkpt><trkpt lat="43.49083875163413" lon="12.618185567643822"><ele>376.0</ele><time>2026-04-26T10:29:30.956Z</time></trkpt><trkpt lat="43.491001247738915" lon="12.617942874774132"><ele>376.0</ele><time>2026-04-26T10:29:31.956Z</time></trkpt><trkpt lat="43.49113699863415" lon="12.617730251003524"><ele>376.0</ele><time>2026-04-26T10:29:32.956Z</time></trkpt><trkpt lat="43.491258261173044" lon="12.617551178078392"><ele>383.0</ele><time>2026-04-26T10:29:33.956Z</time></trkpt><trkpt lat="43.49137783904766" lon="12.617379259571301"><ele>390.0</ele><time>2026-04-26T10:29:34.956Z</time></trkpt><trkpt lat="43.49150997518947" lon="12.617227628638785"><ele>397.0</ele><time>2026-04-26T10:29:35.956Z</time></trkpt><trkpt lat="43.49159934843772" lon="12.61706303508236"><ele>392.25</ele><time>2026-04-26T10:29:36.956Z</time></trkpt><trkpt lat="43.49165503161255" lon="12.616873336205101"><ele>387.5</ele><time>2026-04-26T10:29:37.956Z</time></trkpt><trkpt lat="43.49170823127804" lon="12.616692006526277"><ele>382.75</ele><time>2026-04-26T10:29:38.956Z</time></trkpt><trkpt lat="43.49175864586024" lon="12.616495386120516"><ele>378.0</ele><time>2026-04-26T10:29:39.956Z</time></trkpt><trkpt lat="43.49184033959216" lon="12.616278620033382"><ele>377.3333333333333</ele><time>2026-04-26T10:29:40.956Z</time></trkpt><trkpt lat="43.4919668928402" lon="12.616068522474263"><ele>376.66666666666663</ele><time>2026-04-26T10:29:41.956Z</time></trkpt><trkpt lat="43.49210586481829" lon="12.61582676984238"><ele>376.0</ele><time>2026-04-26T10:29:42.956Z</time></trkpt><trkpt lat="43.492266496160354" lon="12.615605364263084"><ele>379.5</ele><time>2026-04-26T10:29:43.956Z</time></trkpt><trkpt lat="43.49244153973411" lon="12.615399518234945"><ele>383.0</ele><time>2026-04-26T10:29:44.956Z</time></trkpt><trkpt lat="43.49260611874926" lon="12.61517547811777"><ele>383.0</ele><time>2026-04-26T10:29:45.956Z</time></trkpt><trkpt lat="43.4927457076988" lon="12.614962049214329"><ele>383.0</ele><time>2026-04-26T10:29:46.956Z</time></trkpt><trkpt lat="43.49288463963999" lon="12.614800816883317"><ele>383.0</ele><time>2026-04-26T10:29:47.956Z</time></trkpt><trkpt lat="43.493027523355174" lon="12.614685045817648"><ele>387.33333333333337</ele><time>2026-04-26T10:29:48.956Z</time></trkpt><trkpt lat="43.493194610386006" lon="12.614550993289516"><ele>391.6666666666667</ele><time>2026-04-26T10:29:49.956Z</time></trkpt><trkpt lat="43.49336856378468" lon="12.61440843320571"><ele>396.0</ele><time>2026-04-26T10:29:50.956Z</time></trkpt><trkpt lat="43.493535519318044" lon="12.614264286099067"><ele>396.0</ele><time>2026-04-26T10:29:51.956Z</time></trkpt><trkpt lat="43.4936706531217" lon="12.614127446866231"><ele>396.0</ele><time>2026-04-26T10:29:52.956Z</time></trkpt><trkpt lat="43.49376637893369" lon="12.61399078610039"><ele>396.0</ele><time>2026-04-26T10:29:53.956Z</time></trkpt><trkpt lat="43.493854318226944" lon="12.613817713326863"><ele>404.0</ele><time>2026-04-26T10:29:54.956Z</time></trkpt><trkpt lat="43.49391452329112" lon="12.613599822640069"><ele>412.0</ele><time>2026-04-26T10:29:55.956Z</time></trkpt><trkpt lat="43.49398436324687" lon="12.613360993767841"><ele>420.0</ele><time>2026-04-26T10:29:56.957Z</time></trkpt><trkpt lat="43.494059825155766" lon="12.613102513911917"><ele>420.0</ele><time>2026-04-26T10:29:57.957Z</time></trkpt><trkpt lat="43.494118836062896" lon="12.612828780991624"><ele>420.0</ele><time>2026-04-26T10:29:58.957Z</time></trkpt><trkpt lat="43.49416634542251" lon="12.612538746164075"><ele>420.0</ele><time>2026-04-26T10:29:59.957Z</time></trkpt><trkpt lat="43.49421891124573" lon="12.612236356022272"><ele>416.33333333333337</ele><time>2026-04-26T10:30:00.956Z</time></trkpt><trkpt lat="43.49427575443307" lon="12.611944560865503"><ele>412.6666666666667</ele><time>2026-04-26T10:30:01.956Z</time></trkpt><trkpt lat="43.494346556364135" lon="12.611704340789954"><ele>409.0</ele><time>2026-04-26T10:30:02.957Z</time></trkpt><trkpt lat="43.49437854536776" lon="12.611494683778188"><ele>409.0</ele><time>2026-04-26T10:30:03.956Z</time></trkpt><trkpt lat="43.494376240019086" lon="12.61129986092091"><ele>409.0</ele><time>2026-04-26T10:30:04.956Z</time></trkpt><trkpt lat="43.494345929330876" lon="12.61116146031303"><ele>409.0</ele><time>2026-04-26T10:30:05.956Z</time></trkpt><trkpt lat="43.494260870291164" lon="12.611064150087095"><ele>409.0</ele><time>2026-04-26T10:30:06.956Z</time></trkpt><trkpt lat="43.494172449535114" lon="12.610974867899387"><ele>411.5</ele><time>2026-04-26T10:30:07.956Z</time></trkpt><trkpt lat="43.49409296976411" lon="12.61082670039988"><ele>414.0</ele><time>2026-04-26T10:30:08.957Z</time></trkpt><trkpt lat="43.49406995133417" lon="12.610662488533611"><ele>416.5</ele><time>2026-04-26T10:30:09.956Z</time></trkpt><trkpt lat="43.494031241463716" lon="12.610484621318122"><ele>419.0</ele><time>2026-04-26T10:30:10.956Z</time></trkpt><trkpt lat="43.494041381127744" lon="12.610247449940356"><ele>421.0</ele><time>2026-04-26T10:30:11.956Z</time></trkpt><trkpt lat="43.494072502080606" lon="12.609989799632201"><ele>423.0</ele><time>2026-04-26T10:30:12.956Z</time></trkpt><trkpt lat="43.49407865370687" lon="12.609739615297446"><ele>425.0</ele><time>2026-04-26T10:30:13.956Z</time></trkpt><trkpt lat="43.494110118684176" lon="12.609505030827275"><ele>425.0</ele><time>2026-04-26T10:30:14.956Z</time></trkpt><trkpt lat="43.49413887693709" lon="12.609298368636715"><ele>425.0</ele><time>2026-04-26T10:30:15.956Z</time></trkpt><trkpt lat="43.494137618050004" lon="12.609092577193243"><ele>425.0</ele><time>2026-04-26T10:30:16.956Z</time></trkpt><trkpt lat="43.494245975992776" lon="12.608903626404773"><ele>425.0</ele><time>2026-04-26T10:30:17.956Z</time></trkpt><trkpt lat="43.49434466357703" lon="12.608674099045832"><ele>425.0</ele><time>2026-04-26T10:30:18.956Z</time></trkpt><trkpt lat="43.494453595241026" lon="12.608462200975655"><ele>425.0</ele><time>2026-04-26T10:30:19.956Z</time></trkpt><trkpt lat="43.49458000992477" lon="12.608250267209113"><ele>430.66666666666663</ele><time>2026-04-26T10:30:20.956Z</time></trkpt><trkpt lat="43.49471847049888" lon="12.608044047092116"><ele>436.33333333333337</ele><time>2026-04-26T10:30:21.956Z</time></trkpt><trkpt lat="43.49478650408738" lon="12.607810085025324"><ele>442.0</ele><time>2026-04-26T10:30:22.956Z</time></trkpt><trkpt lat="43.49485513437834" lon="12.607590031248069"><ele>442.0</ele><time>2026-04-26T10:30:23.956Z</time></trkpt><trkpt lat="43.49488283033242" lon="12.607391423751002"><ele>442.0</ele><time>2026-04-26T10:30:24.956Z</time></trkpt><trkpt lat="43.494982885217205" lon="12.607267070372627"><ele>442.0</ele><time>2026-04-26T10:30:25.956Z</time></trkpt><trkpt lat="43.49507877873864" lon="12.607130544443706"><ele>442.0</ele><time>2026-04-26T10:30:26.956Z</time></trkpt><trkpt lat="43.495172177343655" lon="12.607001712349359"><ele>441.0</ele><time>2026-04-26T10:30:27.956Z</time></trkpt><trkpt lat="43.495223223388585" lon="12.606846058446402"><ele>440.00000000000006</ele><time>2026-04-26T10:30:28.956Z</time></trkpt><trkpt lat="43.49524856988825" lon="12.60669934221297"><ele>439.00000000000006</ele><time>2026-04-26T10:30:29.956Z</time></trkpt><trkpt lat="43.49520982414692" lon="12.606575831812185"><ele>438.0</ele><time>2026-04-26T10:30:30.956Z</time></trkpt><trkpt lat="43.495163845595464" lon="12.606443624715729"><ele>437.0</ele><time>2026-04-26T10:30:31.956Z</time></trkpt><trkpt lat="43.495129634015846" lon="12.606349058551045"><ele>437.0</ele><time>2026-04-26T10:30:32.956Z</time></trkpt><trkpt lat="43.49517039706265" lon="12.606254975824402"><ele>437.00000000000006</ele><time>2026-04-26T10:30:33.956Z</time></trkpt><trkpt lat="43.49529603594851" lon="12.60620772538821"><ele>437.00000000000006</ele><time>2026-04-26T10:30:35.956Z</time></trkpt><trkpt lat="43.49537202900951" lon="12.606322573144078"><ele>437.0</ele><time>2026-04-26T10:30:36.956Z</time></trkpt><trkpt lat="43.49541351074238" lon="12.606475062661236"><ele>437.0</ele><time>2026-04-26T10:30:37.956Z</time></trkpt><trkpt lat="43.495479863129304" lon="12.606648694190008"><ele>438.66666666666663</ele><time>2026-04-26T10:30:38.956Z</time></trkpt><trkpt lat="43.49550160890661" lon="12.60686960457706"><ele>440.33333333333337</ele><time>2026-04-26T10:30:39.956Z</time></trkpt><trkpt lat="43.49546460211312" lon="12.607083352684624"><ele>442.0</ele><time>2026-04-26T10:30:40.956Z</time></trkpt><trkpt lat="43.4954101984837" lon="12.607311753988897"><ele>442.0</ele><time>2026-04-26T10:30:41.956Z</time></trkpt><trkpt lat="43.49535053992952" lon="12.607552295316083"><ele>442.0</ele><time>2026-04-26T10:30:42.956Z</time></trkpt><trkpt lat="43.49529004469785" lon="12.607792254627071"><ele>442.0</ele><time>2026-04-26T10:30:43.956Z</time></trkpt><trkpt lat="43.49523700980706" lon="12.608055777458013"><ele>444.25</ele><time>2026-04-26T10:30:44.956Z</time></trkpt><trkpt lat="43.49522921380086" lon="12.608288039973834"><ele>446.5</ele><time>2026-04-26T10:30:45.956Z</time></trkpt><trkpt lat="43.4952181284915" lon="12.608476832685705"><ele>448.75</ele><time>2026-04-26T10:30:46.956Z</time></trkpt><trkpt lat="43.49524387075085" lon="12.60866575174914"><ele>451.0</ele><time>2026-04-26T10:30:47.956Z</time></trkpt><trkpt lat="43.49523914108033" lon="12.608862678491914"><ele>451.8</ele><time>2026-04-26T10:30:48.956Z</time></trkpt><trkpt lat="43.49528040791414" lon="12.609024781609204"><ele>452.6</ele><time>2026-04-26T10:30:49.956Z</time></trkpt><trkpt lat="43.49525973178515" lon="12.609148702276645"><ele>453.4</ele><time>2026-04-26T10:30:50.956Z</time></trkpt><trkpt lat="43.495261688434745" lon="12.609259970582983"><ele>454.2</ele><time>2026-04-26T10:30:51.956Z</time></trkpt><trkpt lat="43.49524248441848" lon="12.609356814141575"><ele>455.0</ele><time>2026-04-26T10:30:52.956Z</time></trkpt><trkpt lat="43.495221819012045" lon="12.609480229920218"><ele>455.0</ele><time>2026-04-26T10:30:53.956Z</time></trkpt><trkpt lat="43.49520456291787" lon="12.609627927523517"><ele>455.0</ele><time>2026-04-26T10:30:54.956Z</time></trkpt><trkpt lat="43.49519356481167" lon="12.609785282274562"><ele>455.0</ele><time>2026-04-26T10:30:55.955Z</time></trkpt><trkpt lat="43.49521742171607" lon="12.609918938668756"><ele>455.0</ele><time>2026-04-26T10:30:56.955Z</time></trkpt><trkpt lat="43.49525305027061" lon="12.610034668184138"><ele>455.0</ele><time>2026-04-26T10:30:57.955Z</time></trkpt><trkpt lat="43.49530193563527" lon="12.610140821745318"><ele>454.99999999999994</ele><time>2026-04-26T10:30:58.955Z</time></trkpt><trkpt lat="43.495378624400516" lon="12.610204326330217"><ele>455.0</ele><time>2026-04-26T10:30:59.955Z</time></trkpt><trkpt lat="43.49545589650507" lon="12.610287026332253"><ele>455.0</ele><time>2026-04-26T10:31:00.955Z</time></trkpt><trkpt lat="43.49552509163778" lon="12.61034319661063"><ele>455.0</ele><time>2026-04-26T10:31:01.955Z</time></trkpt><trkpt lat="43.49559322352669" lon="12.610352834928587"><ele>454.99999999999994</ele><time>2026-04-26T10:31:02.955Z</time></trkpt><trkpt lat="43.49566961452589" lon="12.610257851792571"><ele>455.0</ele><time>2026-04-26T10:31:05.955Z</time></trkpt><trkpt lat="43.4956837364154" lon="12.610122519402864"><ele>464.0</ele><time>2026-04-26T10:31:06.955Z</time></trkpt><trkpt lat="43.49569253346594" lon="12.609969209079557"><ele>473.0</ele><time>2026-04-26T10:31:07.955Z</time></trkpt><trkpt lat="43.495639178305126" lon="12.609774278510374"><ele>482.0</ele><time>2026-04-26T10:31:08.955Z</time></trkpt><trkpt lat="43.495567114792294" lon="12.609623009087935"><ele>491.0</ele><time>2026-04-26T10:31:09.955Z</time></trkpt><trkpt lat="43.49555801319482" lon="12.609453156829721"><ele>491.0</ele><time>2026-04-26T10:31:10.955Z</time></trkpt><trkpt lat="43.49557331995099" lon="12.609294646502164"><ele>491.0</ele><time>2026-04-26T10:31:11.955Z</time></trkpt><trkpt lat="43.495595872534714" lon="12.609142738126215"><ele>491.0</ele><time>2026-04-26T10:31:12.955Z</time></trkpt><trkpt lat="43.49565866181652" lon="12.609050678451254"><ele>491.0</ele><time>2026-04-26T10:31:13.955Z</time></trkpt><trkpt lat="43.49566282942491" lon="12.608911964417395"><ele>491.0</ele><time>2026-04-26T10:31:15.955Z</time></trkpt><trkpt lat="43.49569762850222" lon="12.608833808177517"><ele>488.5</ele><time>2026-04-26T10:31:17.955Z</time></trkpt><trkpt lat="43.49570436228987" lon="12.608645329317529"><ele>486.0</ele><time>2026-04-26T10:31:20.955Z</time></trkpt><trkpt lat="43.49572522022401" lon="12.608467715274175"><ele>483.5</ele><time>2026-04-26T10:31:22.955Z</time></trkpt><trkpt lat="43.495777791697435" lon="12.608367015942763"><ele>481.0</ele><time>2026-04-26T10:31:23.955Z</time></trkpt><trkpt lat="43.495871137581865" lon="12.608358588754603"><ele>481.0</ele><time>2026-04-26T10:31:24.955Z</time></trkpt><trkpt lat="43.495973902424026" lon="12.608355487013071"><ele>481.0</ele><time>2026-04-26T10:31:25.955Z</time></trkpt><trkpt lat="43.496092900346724" lon="12.608378264831924"><ele>481.0</ele><time>2026-04-26T10:31:26.955Z</time></trkpt><trkpt lat="43.49621528038964" lon="12.608386770246613"><ele>481.0</ele><time>2026-04-26T10:31:27.955Z</time></trkpt><trkpt lat="43.49633377126227" lon="12.608366578665281"><ele>487.20000000000005</ele><time>2026-04-26T10:31:28.955Z</time></trkpt><trkpt lat="43.49644007320199" lon="12.608306057400345"><ele>493.40000000000003</ele><time>2026-04-26T10:31:29.955Z</time></trkpt><trkpt lat="43.49653895426738" lon="12.608241475942096"><ele>499.6</ele><time>2026-04-26T10:31:30.955Z</time></trkpt><trkpt lat="43.4966284957964" lon="12.60815183807184"><ele>505.8</ele><time>2026-04-26T10:31:31.955Z</time></trkpt><trkpt lat="43.496704094073586" lon="12.608055320405152"><ele>512.0</ele><time>2026-04-26T10:31:32.955Z</time></trkpt><trkpt lat="43.49677641854868" lon="12.607966690272528"><ele>512.0</ele><time>2026-04-26T10:31:33.955Z</time></trkpt><trkpt lat="43.49683555319181" lon="12.607885382815228"><ele>512.0</ele><time>2026-04-26T10:31:34.955Z</time></trkpt><trkpt lat="43.49686845793745" lon="12.607782057703774"><ele>512.0</ele><time>2026-04-26T10:31:35.955Z</time></trkpt><trkpt lat="43.4968791781469" lon="12.607650775292873"><ele>512.0</ele><time>2026-04-26T10:31:36.955Z</time></trkpt><trkpt lat="43.49682044042097" lon="12.607509185827354"><ele>512.0</ele><time>2026-04-26T10:31:37.955Z</time></trkpt><trkpt lat="43.49680667290131" lon="12.607366481614969"><ele>509.5</ele><time>2026-04-26T10:31:38.955Z</time></trkpt><trkpt lat="43.49676643668024" lon="12.607215988296296"><ele>507.0</ele><time>2026-04-26T10:31:39.955Z</time></trkpt><trkpt lat="43.49675425107074" lon="12.607037601759295"><ele>504.5</ele><time>2026-04-26T10:31:40.955Z</time></trkpt><trkpt lat="43.49676909366749" lon="12.606854243900095"><ele>502.0</ele><time>2026-04-26T10:31:41.955Z</time></trkpt><trkpt lat="43.49678677538677" lon="12.606700513511088"><ele>502.0</ele><time>2026-04-26T10:31:42.955Z</time></trkpt><trkpt lat="43.496799824690854" lon="12.606543642175204"><ele>502.00000000000006</ele><time>2026-04-26T10:31:43.955Z</time></trkpt><trkpt lat="43.49680715323653" lon="12.606384582415327"><ele>502.00000000000006</ele><time>2026-04-26T10:31:44.955Z</time></trkpt><trkpt lat="43.496816909191566" lon="12.606238910758043"><ele>502.0</ele><time>2026-04-26T10:31:45.955Z</time></trkpt><trkpt lat="43.49682837915282" lon="12.606110748813565"><ele>502.0</ele><time>2026-04-26T10:31:46.955Z</time></trkpt><trkpt lat="43.49685481263802" lon="12.605973801215857"><ele>501.40000000000003</ele><time>2026-04-26T10:31:47.955Z</time></trkpt><trkpt lat="43.49692179310537" lon="12.605849929562401"><ele>500.80000000000007</ele><time>2026-04-26T10:31:48.955Z</time></trkpt><trkpt lat="43.49701754488601" lon="12.605746930511607"><ele>500.2</ele><time>2026-04-26T10:31:49.955Z</time></trkpt><trkpt lat="43.497102820805175" lon="12.605667711283926"><ele>499.6</ele><time>2026-04-26T10:31:50.955Z</time></trkpt><trkpt lat="43.497194869502685" lon="12.605599900701053"><ele>499.0</ele><time>2026-04-26T10:31:51.955Z</time></trkpt><trkpt lat="43.49728179041009" lon="12.605535019406627"><ele>505.79999999999995</ele><time>2026-04-26T10:31:52.955Z</time></trkpt><trkpt lat="43.497365665973014" lon="12.605462046623026"><ele>512.5999999999999</ele><time>2026-04-26T10:31:53.955Z</time></trkpt><trkpt lat="43.497442856062825" lon="12.605381274370844"><ele>519.4</ele><time>2026-04-26T10:31:54.955Z</time></trkpt><trkpt lat="43.49748077578301" lon="12.605266031377706"><ele>526.1999999999999</ele><time>2026-04-26T10:31:55.955Z</time></trkpt><trkpt lat="43.49746931618327" lon="12.605140289647789"><ele>533.0</ele><time>2026-04-26T10:31:56.955Z</time></trkpt><trkpt lat="43.49743930743577" lon="12.604997790318974"><ele>533.0</ele><time>2026-04-26T10:31:57.954Z</time></trkpt><trkpt lat="43.49741318246765" lon="12.604820329070735"><ele>533.0</ele><time>2026-04-26T10:31:58.954Z</time></trkpt><trkpt lat="43.49739865094574" lon="12.604675071730204"><ele>533.0</ele><time>2026-04-26T10:31:59.954Z</time></trkpt><trkpt lat="43.49737888511801" lon="12.604528536471538"><ele>533.0</ele><time>2026-04-26T10:32:00.954Z</time></trkpt><trkpt lat="43.49738074220561" lon="12.60436389029079"><ele>533.0</ele><time>2026-04-26T10:32:01.954Z</time></trkpt><trkpt lat="43.497398773846996" lon="12.604199830148055"><ele>533.0</ele><time>2026-04-26T10:32:02.955Z</time></trkpt><trkpt lat="43.49743429906846" lon="12.604042630480576"><ele>533.0</ele><time>2026-04-26T10:32:03.955Z</time></trkpt><trkpt lat="43.4974707920305" lon="12.603879609562505"><ele>533.0</ele><time>2026-04-26T10:32:04.955Z</time></trkpt><trkpt lat="43.497515992554646" lon="12.603701906231112"><ele>534.0</ele><time>2026-04-26T10:32:05.955Z</time></trkpt><trkpt lat="43.49755216005498" lon="12.603543279739833"><ele>535.0</ele><time>2026-04-26T10:32:06.955Z</time></trkpt><trkpt lat="43.49754694859015" lon="12.603389656910455"><ele>536.0</ele><time>2026-04-26T10:32:07.955Z</time></trkpt><trkpt lat="43.49752712344459" lon="12.603254225532952"><ele>537.0</ele><time>2026-04-26T10:32:08.955Z</time></trkpt><trkpt lat="43.497474779921646" lon="12.603127763040824"><ele>538.0</ele><time>2026-04-26T10:32:09.955Z</time></trkpt><trkpt lat="43.497459404541644" lon="12.603025602734101"><ele>538.0</ele><time>2026-04-26T10:32:10.955Z</time></trkpt><trkpt lat="43.497413323001645" lon="12.60291169332122"><ele>538.0</ele><time>2026-04-26T10:32:11.955Z</time></trkpt><trkpt lat="43.49738584913373" lon="12.602812468957056"><ele>538.0</ele><time>2026-04-26T10:32:12.955Z</time></trkpt><trkpt lat="43.49738889625871" lon="12.60264261233149"><ele>538.0</ele><time>2026-04-26T10:32:14.955Z</time></trkpt><trkpt lat="43.49742301651948" lon="12.602542803307138"><ele>538.0</ele><time>2026-04-26T10:32:15.955Z</time></trkpt><trkpt lat="43.49749184792245" lon="12.602455494499385"><ele>538.1999999999999</ele><time>2026-04-26T10:32:16.955Z</time></trkpt><trkpt lat="43.497586774650344" lon="12.602452261973086"><ele>538.4</ele><time>2026-04-26T10:32:17.955Z</time></trkpt><trkpt lat="43.497668142929015" lon="12.602399612287106"><ele>538.5999999999999</ele><time>2026-04-26T10:32:18.955Z</time></trkpt><trkpt lat="43.49775805834162" lon="12.602327934108025"><ele>538.8</ele><time>2026-04-26T10:32:19.955Z</time></trkpt><trkpt lat="43.497842456606534" lon="12.602227991053018"><ele>539.0</ele><time>2026-04-26T10:32:20.955Z</time></trkpt><trkpt lat="43.49796883043124" lon="12.602146598832777"><ele>545.5</ele><time>2026-04-26T10:32:21.955Z</time></trkpt><trkpt lat="43.4980776907041" lon="12.602096529650016"><ele>552.0</ele><time>2026-04-26T10:32:22.955Z</time></trkpt><trkpt lat="43.49819896129762" lon="12.602052182238264"><ele>558.5</ele><time>2026-04-26T10:32:23.955Z</time></trkpt><trkpt lat="43.4983244787536" lon="12.602029949277586"><ele>565.0</ele><time>2026-04-26T10:32:24.955Z</time></trkpt><trkpt lat="43.49844885032656" lon="12.602003116204598"><ele>565.25</ele><time>2026-04-26T10:32:25.955Z</time></trkpt><trkpt lat="43.49857171634888" lon="12.60196710629001"><ele>565.5</ele><time>2026-04-26T10:32:26.955Z</time></trkpt><trkpt lat="43.49869325608841" lon="12.601940060851097"><ele>565.75</ele><time>2026-04-26T10:32:27.955Z</time></trkpt><trkpt lat="43.4988185443442" lon="12.60190685963718"><ele>566.0</ele><time>2026-04-26T10:32:28.955Z</time></trkpt><trkpt lat="43.49893686931449" lon="12.601866691264433"><ele>566.0</ele><time>2026-04-26T10:32:29.955Z</time></trkpt><trkpt lat="43.499054768169124" lon="12.601825044362439"><ele>566.0</ele><time>2026-04-26T10:32:30.955Z</time></trkpt><trkpt lat="43.49912428754385" lon="12.601746933450187"><ele>566.0</ele><time>2026-04-26T10:32:31.955Z</time></trkpt><trkpt lat="43.49920629617518" lon="12.601653814405529"><ele>566.0</ele><time>2026-04-26T10:32:32.955Z</time></trkpt><trkpt lat="43.49928073678961" lon="12.601561017029637"><ele>566.0</ele><time>2026-04-26T10:32:33.955Z</time></trkpt><trkpt lat="43.499379230133144" lon="12.601443023647311"><ele>566.0</ele><time>2026-04-26T10:32:34.955Z</time></trkpt><trkpt lat="43.499454622238375" lon="12.601323231170198"><ele>566.0</ele><time>2026-04-26T10:32:35.955Z</time></trkpt><trkpt lat="43.49952763292664" lon="12.601212961059531"><ele>566.0</ele><time>2026-04-26T10:32:36.955Z</time></trkpt><trkpt lat="43.499591074153585" lon="12.601123618783767"><ele>566.0</ele><time>2026-04-26T10:32:37.955Z</time></trkpt><trkpt lat="43.49965404424625" lon="12.601037209122497"><ele>566.0</ele><time>2026-04-26T10:32:38.955Z</time></trkpt><trkpt lat="43.4997052788438" lon="12.600947595103552"><ele>567.4</ele><time>2026-04-26T10:32:39.955Z</time></trkpt><trkpt lat="43.49975569101293" lon="12.600859715310374"><ele>568.8</ele><time>2026-04-26T10:32:40.955Z</time></trkpt><trkpt lat="43.499807233076254" lon="12.600741631735614"><ele>570.1999999999999</ele><time>2026-04-26T10:32:41.955Z</time></trkpt><trkpt lat="43.49986070197125" lon="12.600604492916567"><ele>571.6</ele><time>2026-04-26T10:32:42.955Z</time></trkpt><trkpt lat="43.49991765535083" lon="12.600425001843297"><ele>573.0</ele><time>2026-04-26T10:32:43.955Z</time></trkpt><trkpt lat="43.499976555138474" lon="12.600234712401797"><ele>573.0</ele><time>2026-04-26T10:32:44.955Z</time></trkpt><trkpt lat="43.500027914534996" lon="12.600057842642668"><ele>573.0</ele><time>2026-04-26T10:32:45.955Z</time></trkpt><trkpt lat="43.50007170093696" lon="12.599897154439445"><ele>573.0</ele><time>2026-04-26T10:32:46.955Z</time></trkpt><trkpt lat="43.50012275989737" lon="12.599728465958647"><ele>573.0</ele><time>2026-04-26T10:32:47.955Z</time></trkpt><trkpt lat="43.500159922383254" lon="12.599547417210077"><ele>571.25</ele><time>2026-04-26T10:32:48.955Z</time></trkpt><trkpt lat="43.50017701106718" lon="12.599355538090013"><ele>569.5</ele><time>2026-04-26T10:32:49.955Z</time></trkpt><trkpt lat="43.50019495674059" lon="12.599208549633223"><ele>567.75</ele><time>2026-04-26T10:32:50.955Z</time></trkpt><trkpt lat="43.50021897930859" lon="12.59906278682115"><ele>566.0</ele><time>2026-04-26T10:32:51.955Z</time></trkpt><trkpt lat="43.500262334040585" lon="12.598915529859111"><ele>566.0</ele><time>2026-04-26T10:32:52.955Z</time></trkpt><trkpt lat="43.500304125300204" lon="12.598770844136189"><ele>566.0</ele><time>2026-04-26T10:32:53.955Z</time></trkpt><trkpt lat="43.5003616370283" lon="12.598646353508967"><ele>566.0</ele><time>2026-04-26T10:32:54.955Z</time></trkpt><trkpt lat="43.50040287850225" lon="12.59849644891969"><ele>566.0</ele><time>2026-04-26T10:32:55.955Z</time></trkpt><trkpt lat="43.50048317082337" lon="12.598376297424174"><ele>570.25</ele><time>2026-04-26T10:32:56.954Z</time></trkpt><trkpt lat="43.500569410301324" lon="12.598256460754312"><ele>574.5</ele><time>2026-04-26T10:32:57.954Z</time></trkpt><trkpt lat="43.50067656800224" lon="12.598162501982266"><ele>578.75</ele><time>2026-04-26T10:32:58.954Z</time></trkpt><trkpt lat="43.500789605491434" lon="12.598080738849427"><ele>583.0</ele><time>2026-04-26T10:32:59.954Z</time></trkpt><trkpt lat="43.500912027318364" lon="12.598014334118952"><ele>583.0</ele><time>2026-04-26T10:33:00.954Z</time></trkpt><trkpt lat="43.5010281557754" lon="12.597942567772034"><ele>583.0</ele><time>2026-04-26T10:33:01.954Z</time></trkpt><trkpt lat="43.50112546415122" lon="12.59785372493811"><ele>583.0</ele><time>2026-04-26T10:33:02.954Z</time></trkpt><trkpt lat="43.50121708563145" lon="12.597760900408078"><ele>583.0</ele><time>2026-04-26T10:33:03.954Z</time></trkpt><trkpt lat="43.50129520474614" lon="12.597662168866517"><ele>584.0</ele><time>2026-04-26T10:33:04.954Z</time></trkpt><trkpt lat="43.50137191457325" lon="12.597557619717163"><ele>585.0</ele><time>2026-04-26T10:33:05.954Z</time></trkpt><trkpt lat="43.501451910218464" lon="12.597472244521759"><ele>586.0</ele><time>2026-04-26T10:33:06.954Z</time></trkpt><trkpt lat="43.501518923672926" lon="12.597381485185895"><ele>587.0</ele><time>2026-04-26T10:33:07.954Z</time></trkpt><trkpt lat="43.50161233921159" lon="12.597317232656525"><ele>588.0</ele><time>2026-04-26T10:33:08.954Z</time></trkpt><trkpt lat="43.50168204727866" lon="12.597256812315743"><ele>588.0</ele><time>2026-04-26T10:33:09.954Z</time></trkpt><trkpt lat="43.50174288727693" lon="12.597177535672547"><ele>588.0</ele><time>2026-04-26T10:33:10.954Z</time></trkpt><trkpt lat="43.50178139887108" lon="12.597059260101023"><ele>588.0</ele><time>2026-04-26T10:33:11.954Z</time></trkpt><trkpt lat="43.501787300431026" lon="12.59691865604184"><ele>588.0</ele><time>2026-04-26T10:33:12.954Z</time></trkpt><trkpt lat="43.50177179483557" lon="12.596773075713097"><ele>588.0</ele><time>2026-04-26T10:33:13.954Z</time></trkpt><trkpt lat="43.501742831693875" lon="12.596608037482083"><ele>586.0</ele><time>2026-04-26T10:33:14.954Z</time></trkpt><trkpt lat="43.50170982870526" lon="12.596453862690781"><ele>584.0</ele><time>2026-04-26T10:33:15.954Z</time></trkpt><trkpt lat="43.50168228983287" lon="12.596310386429899"><ele>582.0</ele><time>2026-04-26T10:33:16.954Z</time></trkpt><trkpt lat="43.50169891986151" lon="12.596195733815632"><ele>580.0</ele><time>2026-04-26T10:33:17.954Z</time></trkpt><trkpt lat="43.50171745601378" lon="12.596077253102647"><ele>578.0</ele><time>2026-04-26T10:33:18.954Z</time></trkpt><trkpt lat="43.50176015822765" lon="12.595953983105552"><ele>577.6</ele><time>2026-04-26T10:33:19.954Z</time></trkpt><trkpt lat="43.501816855015676" lon="12.595805836837304"><ele>577.1999999999999</ele><time>2026-04-26T10:33:20.954Z</time></trkpt><trkpt lat="43.50188112606814" lon="12.595675093055636"><ele>576.8</ele><time>2026-04-26T10:33:21.954Z</time></trkpt><trkpt lat="43.50193546673423" lon="12.59558369685482"><ele>576.4</ele><time>2026-04-26T10:33:22.954Z</time></trkpt><trkpt lat="43.50197268537343" lon="12.595501816837297"><ele>576.0</ele><time>2026-04-26T10:33:23.954Z</time></trkpt><trkpt lat="43.50199520712975" lon="12.595395307279215"><ele>576.1666666666666</ele><time>2026-04-26T10:33:24.954Z</time></trkpt><trkpt lat="43.50201973937173" lon="12.595275387885222"><ele>576.3333333333334</ele><time>2026-04-26T10:33:25.954Z</time></trkpt><trkpt lat="43.502029808493766" lon="12.595140109792624"><ele>576.5</ele><time>2026-04-26T10:33:26.954Z</time></trkpt><trkpt lat="43.502020168483135" lon="12.595027209417124"><ele>576.6666666666667</ele><time>2026-04-26T10:33:27.954Z</time></trkpt><trkpt lat="43.502010417811135" lon="12.594922240898832"><ele>576.8333333333334</ele><time>2026-04-26T10:33:28.954Z</time></trkpt><trkpt lat="43.50200393850267" lon="12.5948219703327"><ele>577.0</ele><time>2026-04-26T10:33:29.954Z</time></trkpt><trkpt lat="43.50201576251602" lon="12.594698601526163"><ele>577.0</ele><time>2026-04-26T10:33:30.954Z</time></trkpt><trkpt lat="43.502049913748756" lon="12.594588273388052"><ele>577.0</ele><time>2026-04-26T10:33:31.954Z</time></trkpt><trkpt lat="43.502119391061264" lon="12.594486272463952"><ele>577.0</ele><time>2026-04-26T10:33:32.954Z</time></trkpt><trkpt lat="43.50218859721539" lon="12.594409628273688"><ele>577.0</ele><time>2026-04-26T10:33:33.954Z</time></trkpt><trkpt lat="43.502277073162844" lon="12.594349102584513"><ele>577.0</ele><time>2026-04-26T10:33:34.954Z</time></trkpt><trkpt lat="43.50238321240616" lon="12.594289837188422"><ele>582.0</ele><time>2026-04-26T10:33:35.954Z</time></trkpt><trkpt lat="43.50247461303755" lon="12.594217154312119"><ele>587.0</ele><time>2026-04-26T10:33:36.954Z</time></trkpt><trkpt lat="43.502581578329114" lon="12.594182323033928"><ele>592.0</ele><time>2026-04-26T10:33:37.954Z</time></trkpt><trkpt lat="43.50267205550167" lon="12.594136600624289"><ele>597.0</ele><time>2026-04-26T10:33:38.954Z</time></trkpt><trkpt lat="43.50272025273784" lon="12.594040900835765"><ele>602.0</ele><time>2026-04-26T10:33:39.954Z</time></trkpt><trkpt lat="43.50277952174968" lon="12.593949692781939"><ele>602.0</ele><time>2026-04-26T10:33:40.954Z</time></trkpt><trkpt lat="43.50282259227039" lon="12.59386378981185"><ele>602.0</ele><time>2026-04-26T10:33:41.954Z</time></trkpt><trkpt lat="43.502834629692536" lon="12.593777437682112"><ele>602.0</ele><time>2026-04-26T10:33:42.954Z</time></trkpt><trkpt lat="43.502846485284245" lon="12.593636800855293"><ele>602.0</ele><time>2026-04-26T10:33:43.954Z</time></trkpt><trkpt lat="43.502770192055685" lon="12.593479659129608"><ele>602.0</ele><time>2026-04-26T10:33:44.954Z</time></trkpt><trkpt lat="43.50271662881469" lon="12.59335047902323"><ele>601.2</ele><time>2026-04-26T10:33:45.954Z</time></trkpt><trkpt lat="43.50262203324066" lon="12.593245725214903"><ele>600.4000000000001</ele><time>2026-04-26T10:33:46.954Z</time></trkpt><trkpt lat="43.502559625611056" lon="12.593163995456523"><ele>599.5999999999999</ele><time>2026-04-26T10:33:47.954Z</time></trkpt><trkpt lat="43.502505447897555" lon="12.593064318586613"><ele>598.8</ele><time>2026-04-26T10:33:48.954Z</time></trkpt><trkpt lat="43.502461115869025" lon="12.592935960121924"><ele>598.0</ele><time>2026-04-26T10:33:49.954Z</time></trkpt><trkpt lat="43.50246380903629" lon="12.592795192603681"><ele>598.0</ele><time>2026-04-26T10:33:50.954Z</time></trkpt><trkpt lat="43.502469374377114" lon="12.592651997817317"><ele>598.0</ele><time>2026-04-26T10:33:51.954Z</time></trkpt><trkpt lat="43.50246734700024" lon="12.592503964656634"><ele>598.0</ele><time>2026-04-26T10:33:52.954Z</time></trkpt><trkpt lat="43.50246573574256" lon="12.592356068635516"><ele>598.0</ele><time>2026-04-26T10:33:53.954Z</time></trkpt><trkpt lat="43.50247289183817" lon="12.592220851256927"><ele>598.0</ele><time>2026-04-26T10:33:54.954Z</time></trkpt><trkpt lat="43.50248953937799" lon="12.592078635582281"><ele>598.75</ele><time>2026-04-26T10:33:55.954Z</time></trkpt><trkpt lat="43.502519562718874" lon="12.591914666924394"><ele>599.5</ele><time>2026-04-26T10:33:56.954Z</time></trkpt><trkpt lat="43.50256879856901" lon="12.591757024761662"><ele>600.25</ele><time>2026-04-26T10:33:57.954Z</time></trkpt><trkpt lat="43.502649455757094" lon="12.591644682790363"><ele>601.0</ele><time>2026-04-26T10:33:58.954Z</time></trkpt><trkpt lat="43.502763527568966" lon="12.5915338724734"><ele>601.0</ele><time>2026-04-26T10:33:59.953Z</time></trkpt><trkpt lat="43.50280920001059" lon="12.591386717202353"><ele>601.0</ele><time>2026-04-26T10:34:00.953Z</time></trkpt><trkpt lat="43.502871305315686" lon="12.591228694005402"><ele>601.0</ele><time>2026-04-26T10:34:01.953Z</time></trkpt><trkpt lat="43.502919397322984" lon="12.5910496256235"><ele>601.0</ele><time>2026-04-26T10:34:02.953Z</time></trkpt><trkpt lat="43.502957123395916" lon="12.590861650105362"><ele>602.2</ele><time>2026-04-26T10:34:03.953Z</time></trkpt><trkpt lat="43.503015179169935" lon="12.590684837193384"><ele>603.4000000000001</ele><time>2026-04-26T10:34:04.953Z</time></trkpt><trkpt lat="43.50307389172016" lon="12.59056113617846"><ele>604.6</ele><time>2026-04-26T10:34:05.953Z</time></trkpt><trkpt lat="43.503150984199344" lon="12.590491694975832"><ele>605.8000000000001</ele><time>2026-04-26T10:34:06.953Z</time></trkpt><trkpt lat="43.503253745861706" lon="12.59047033290496"><ele>607.0</ele><time>2026-04-26T10:34:07.953Z</time></trkpt><trkpt lat="43.503364557784764" lon="12.590435466145633"><ele>607.0</ele><time>2026-04-26T10:34:08.954Z</time></trkpt><trkpt lat="43.503482989459876" lon="12.590374510909436"><ele>607.0</ele><time>2026-04-26T10:34:09.953Z</time></trkpt><trkpt lat="43.503600774040855" lon="12.590357931459758"><ele>607.0</ele><time>2026-04-26T10:34:10.953Z</time></trkpt><trkpt lat="43.50372340509658" lon="12.590333139251808"><ele>607.0</ele><time>2026-04-26T10:34:11.954Z</time></trkpt><trkpt lat="43.503832912974744" lon="12.590276487544923"><ele>607.8000000000001</ele><time>2026-04-26T10:34:12.954Z</time></trkpt><trkpt lat="43.503919928382345" lon="12.590195765124074"><ele>608.6</ele><time>2026-04-26T10:34:13.954Z</time></trkpt><trkpt lat="43.504010026899365" lon="12.59010782664885"><ele>609.4000000000001</ele><time>2026-04-26T10:34:14.954Z</time></trkpt><trkpt lat="43.50409284729435" lon="12.589998478244693"><ele>610.2</ele><time>2026-04-26T10:34:15.953Z</time></trkpt><trkpt lat="43.50417147122664" lon="12.5898915188163"><ele>611.0</ele><time>2026-04-26T10:34:16.953Z</time></trkpt><trkpt lat="43.50423935164213" lon="12.58976415384958"><ele>611.0</ele><time>2026-04-26T10:34:17.954Z</time></trkpt><trkpt lat="43.50429773709427" lon="12.589622768015309"><ele>611.0</ele><time>2026-04-26T10:34:18.954Z</time></trkpt><trkpt lat="43.5043537944818" lon="12.589497814233306"><ele>611.0</ele><time>2026-04-26T10:34:19.954Z</time></trkpt><trkpt lat="43.50440872134591" lon="12.589382997415079"><ele>611.0</ele><time>2026-04-26T10:34:20.954Z</time></trkpt><trkpt lat="43.50446862427274" lon="12.589261750385331"><ele>611.0</ele><time>2026-04-26T10:34:21.954Z</time></trkpt><trkpt lat="43.50454374608313" lon="12.589111008604508"><ele>606.2</ele><time>2026-04-26T10:34:22.954Z</time></trkpt><trkpt lat="43.50462641853802" lon="12.58898546839997"><ele>601.4000000000001</ele><time>2026-04-26T10:34:23.954Z</time></trkpt><trkpt lat="43.50470546026828" lon="12.58890239355431"><ele>596.6</ele><time>2026-04-26T10:34:24.954Z</time></trkpt><trkpt lat="43.50476282021396" lon="12.588866590249465"><ele>591.8000000000001</ele><time>2026-04-26T10:34:25.954Z</time></trkpt><trkpt lat="43.50486741072998" lon="12.58893142143081"><ele>587.0</ele><time>2026-04-26T10:34:27.954Z</time></trkpt><trkpt lat="43.50489320171746" lon="12.589124744249945"><ele>587.0</ele><time>2026-04-26T10:34:28.954Z</time></trkpt><trkpt lat="43.50495086457957" lon="12.589271466697092"><ele>587.0</ele><time>2026-04-26T10:34:29.954Z</time></trkpt><trkpt lat="43.50501464596864" lon="12.58939200046212"><ele>587.0</ele><time>2026-04-26T10:34:30.954Z</time></trkpt><trkpt lat="43.50508758151953" lon="12.589484927605792"><ele>587.0</ele><time>2026-04-26T10:34:31.954Z</time></trkpt><trkpt lat="43.50517721688618" lon="12.589547470935072"><ele>587.0</ele><time>2026-04-26T10:34:32.954Z</time></trkpt><trkpt lat="43.505274736859434" lon="12.589566092504466"><ele>585.8333333333333</ele><time>2026-04-26T10:34:33.954Z</time></trkpt><trkpt lat="43.50535717854172" lon="12.589548383051364"><ele>584.6666666666666</ele><time>2026-04-26T10:34:34.954Z</time></trkpt><trkpt lat="43.50543330972939" lon="12.58954578981186"><ele>583.5</ele><time>2026-04-26T10:34:35.954Z</time></trkpt><trkpt lat="43.50551223998116" lon="12.589507771444621"><ele>582.3333333333334</ele><time>2026-04-26T10:34:36.954Z</time></trkpt><trkpt lat="43.505572036765486" lon="12.589462595367467"><ele>581.1666666666667</ele><time>2026-04-26T10:34:37.954Z</time></trkpt><trkpt lat="43.50559201203711" lon="12.589364633982854"><ele>580.0</ele><time>2026-04-26T10:34:39.954Z</time></trkpt><trkpt lat="43.50550004357288" lon="12.589278331021017"><ele>581.75</ele><time>2026-04-26T10:34:42.954Z</time></trkpt><trkpt lat="43.505370675471724" lon="12.589261474936954"><ele>583.5</ele><time>2026-04-26T10:34:43.954Z</time></trkpt><trkpt lat="43.505253572453576" lon="12.589229628683793"><ele>585.25</ele><time>2026-04-26T10:34:44.954Z</time></trkpt><trkpt lat="43.50518311276991" lon="12.589139749419266"><ele>587.0</ele><time>2026-04-26T10:34:45.954Z</time></trkpt><trkpt lat="43.505137468055956" lon="12.589006468825641"><ele>587.0</ele><time>2026-04-26T10:34:46.954Z</time></trkpt><trkpt lat="43.5050805497336" lon="12.58885302382709"><ele>587.0</ele><time>2026-04-26T10:34:47.954Z</time></trkpt><trkpt lat="43.50505758255748" lon="12.588699775422027"><ele>587.0</ele><time>2026-04-26T10:34:48.954Z</time></trkpt><trkpt lat="43.50503528365208" lon="12.588554190650216"><ele>587.0</ele><time>2026-04-26T10:34:49.954Z</time></trkpt><trkpt lat="43.50502125261125" lon="12.588418991375958"><ele>587.0</ele><time>2026-04-26T10:34:50.954Z</time></trkpt><trkpt lat="43.505064790927726" lon="12.588293907944212"><ele>582.75</ele><time>2026-04-26T10:34:51.954Z</time></trkpt><trkpt lat="43.50515216423341" lon="12.588223432388693"><ele>578.5</ele><time>2026-04-26T10:34:52.954Z</time></trkpt><trkpt lat="43.50524190107126" lon="12.588124752218334"><ele>574.25</ele><time>2026-04-26T10:34:53.954Z</time></trkpt><trkpt lat="43.50534824541907" lon="12.5880079007485"><ele>570.0</ele><time>2026-04-26T10:34:54.954Z</time></trkpt><trkpt lat="43.50546822821466" lon="12.587904157137244"><ele>569.2</ele><time>2026-04-26T10:34:55.954Z</time></trkpt><trkpt lat="43.505574082322944" lon="12.58780757611181"><ele>568.4</ele><time>2026-04-26T10:34:56.954Z</time></trkpt><trkpt lat="43.50566102045301" lon="12.587718030636891"><ele>567.6</ele><time>2026-04-26T10:34:57.954Z</time></trkpt><trkpt lat="43.505729504890645" lon="12.58763952098357"><ele>566.8</ele><time>2026-04-26T10:34:58.954Z</time></trkpt><trkpt lat="43.50578030125883" lon="12.58752516038543"><ele>566.0</ele><time>2026-04-26T10:34:59.954Z</time></trkpt><trkpt lat="43.505804667841254" lon="12.58737269292932"><ele>566.0</ele><time>2026-04-26T10:35:00.954Z</time></trkpt><trkpt lat="43.50582603443594" lon="12.587193164759869"><ele>566.0</ele><time>2026-04-26T10:35:01.954Z</time></trkpt><trkpt lat="43.50587358887675" lon="12.586999267775923"><ele>566.0</ele><time>2026-04-26T10:35:02.954Z</time></trkpt><trkpt lat="43.505937564985146" lon="12.586799764271792"><ele>566.0</ele><time>2026-04-26T10:35:03.954Z</time></trkpt><trkpt lat="43.505992287590146" lon="12.58661291305963"><ele>567.25</ele><time>2026-04-26T10:35:04.954Z</time></trkpt><trkpt lat="43.50605337938189" lon="12.586466982801193"><ele>568.5</ele><time>2026-04-26T10:35:05.953Z</time></trkpt><trkpt lat="43.50609848551512" lon="12.586330555498643"><ele>569.75</ele><time>2026-04-26T10:35:06.953Z</time></trkpt><trkpt lat="43.50612996989911" lon="12.586160170086366"><ele>571.0</ele><time>2026-04-26T10:35:07.953Z</time></trkpt><trkpt lat="43.50615404694134" lon="12.585963607485805"><ele>571.0</ele><time>2026-04-26T10:35:08.953Z</time></trkpt><trkpt lat="43.5061921639265" lon="12.585761184510215"><ele>571.0</ele><time>2026-04-26T10:35:09.953Z</time></trkpt><trkpt lat="43.50624748637677" lon="12.585587512018897"><ele>571.0</ele><time>2026-04-26T10:35:10.953Z</time></trkpt><trkpt lat="43.50628998687235" lon="12.585437013904922"><ele>571.0</ele><time>2026-04-26T10:35:11.953Z</time></trkpt><trkpt lat="43.50632932492034" lon="12.585289861765975"><ele>570.75</ele><time>2026-04-26T10:35:12.953Z</time></trkpt><trkpt lat="43.50642394781422" lon="12.585151700000717"><ele>570.5</ele><time>2026-04-26T10:35:13.953Z</time></trkpt><trkpt lat="43.506523602095115" lon="12.58500972236018"><ele>570.25</ele><time>2026-04-26T10:35:14.953Z</time></trkpt><trkpt lat="43.50662601638707" lon="12.584895609117524"><ele>570.0</ele><time>2026-04-26T10:35:15.953Z</time></trkpt><trkpt lat="43.50673197122712" lon="12.58482347655732"><ele>570.0</ele><time>2026-04-26T10:35:16.953Z</time></trkpt><trkpt lat="43.506852233167784" lon="12.584776777467383"><ele>570.0</ele><time>2026-04-26T10:35:17.953Z</time></trkpt><trkpt lat="43.506996291937305" lon="12.584729698834812"><ele>570.0</ele><time>2026-04-26T10:35:18.953Z</time></trkpt><trkpt lat="43.50714367072011" lon="12.58470472640745"><ele>570.0</ele><time>2026-04-26T10:35:19.953Z</time></trkpt><trkpt lat="43.50728975799188" lon="12.584709653630782"><ele>574.25</ele><time>2026-04-26T10:35:20.953Z</time></trkpt><trkpt lat="43.50742924733081" lon="12.584730018781647"><ele>578.5</ele><time>2026-04-26T10:35:21.953Z</time></trkpt><trkpt lat="43.50753402071985" lon="12.58475718369105"><ele>582.75</ele><time>2026-04-26T10:35:22.953Z</time></trkpt><trkpt lat="43.507635276556464" lon="12.584748964383339"><ele>587.0</ele><time>2026-04-26T10:35:23.953Z</time></trkpt><trkpt lat="43.507746464891746" lon="12.584680333901897"><ele>587.0</ele><time>2026-04-26T10:35:24.953Z</time></trkpt><trkpt lat="43.507862236576166" lon="12.58458215168578"><ele>587.0</ele><time>2026-04-26T10:35:25.953Z</time></trkpt><trkpt lat="43.50797705743347" lon="12.58448230047067"><ele>587.0</ele><time>2026-04-26T10:35:26.953Z</time></trkpt><trkpt lat="43.50811493931594" lon="12.584436502549064"><ele>587.0</ele><time>2026-04-26T10:35:27.953Z</time></trkpt><trkpt lat="43.50824480595334" lon="12.584378675883803"><ele>587.0</ele><time>2026-04-26T10:35:28.953Z</time></trkpt><trkpt lat="43.5083632927544" lon="12.584283568548443"><ele>587.0</ele><time>2026-04-26T10:35:29.953Z</time></trkpt><trkpt lat="43.50848594319655" lon="12.58416344954612"><ele>587.0</ele><time>2026-04-26T10:35:30.953Z</time></trkpt><trkpt lat="43.50860310858986" lon="12.58402250492465"><ele>587.0</ele><time>2026-04-26T10:35:31.953Z</time></trkpt><trkpt lat="43.508730383590496" lon="12.583888482297628"><ele>588.0</ele><time>2026-04-26T10:35:32.953Z</time></trkpt><trkpt lat="43.50885549597646" lon="12.583774263745557"><ele>589.0</ele><time>2026-04-26T10:35:33.953Z</time></trkpt><trkpt lat="43.50897904138282" lon="12.583688017523476"><ele>590.0</ele><time>2026-04-26T10:35:34.953Z</time></trkpt><trkpt lat="43.50908610481497" lon="12.583617899038035"><ele>591.0</ele><time>2026-04-26T10:35:35.953Z</time></trkpt><trkpt lat="43.50918205770375" lon="12.583551836194927"><ele>591.0</ele><time>2026-04-26T10:35:36.953Z</time></trkpt><trkpt lat="43.509256392977605" lon="12.58347235214097"><ele>591.0</ele><time>2026-04-26T10:35:37.953Z</time></trkpt><trkpt lat="43.5093036688344" lon="12.583403666987971"><ele>591.0</ele><time>2026-04-26T10:35:38.953Z</time></trkpt><trkpt lat="43.50935166318123" lon="12.583323862336892"><ele>591.0</ele><time>2026-04-26T10:35:39.953Z</time></trkpt><trkpt lat="43.50940916033488" lon="12.583225784978962"><ele>591.0</ele><time>2026-04-26T10:35:40.953Z</time></trkpt><trkpt lat="43.5094753517173" lon="12.583102437378605"><ele>591.0</ele><time>2026-04-26T10:35:41.953Z</time></trkpt><trkpt lat="43.50954845605208" lon="12.582967607421068"><ele>599.0</ele><time>2026-04-26T10:35:42.953Z</time></trkpt><trkpt lat="43.50962277090537" lon="12.582825645815213"><ele>607.0</ele><time>2026-04-26T10:35:43.953Z</time></trkpt><trkpt lat="43.50968414179654" lon="12.582679549919359"><ele>615.0</ele><time>2026-04-26T10:35:44.953Z</time></trkpt><trkpt lat="43.50973973959784" lon="12.582524668309562"><ele>623.0</ele><time>2026-04-26T10:35:45.953Z</time></trkpt><trkpt lat="43.50976733374406" lon="12.582354272461549"><ele>623.0</ele><time>2026-04-26T10:35:46.953Z</time></trkpt><trkpt lat="43.50978758399629" lon="12.582173597273657"><ele>623.0</ele><time>2026-04-26T10:35:47.953Z</time></trkpt><trkpt lat="43.50980873306886" lon="12.581995196130729"><ele>623.0</ele><time>2026-04-26T10:35:48.953Z</time></trkpt><trkpt lat="43.50984000804316" lon="12.581804617031374"><ele>623.0</ele><time>2026-04-26T10:35:49.953Z</time></trkpt><trkpt lat="43.509873345562966" lon="12.581604483673008"><ele>620.0</ele><time>2026-04-26T10:35:50.953Z</time></trkpt><trkpt lat="43.50991554806548" lon="12.581395182924666"><ele>617.0</ele><time>2026-04-26T10:35:51.953Z</time></trkpt><trkpt lat="43.50995363591082" lon="12.581172082605304"><ele>614.0</ele><time>2026-04-26T10:35:52.953Z</time></trkpt><trkpt lat="43.50998616144805" lon="12.580932302620509"><ele>608.6666666666666</ele><time>2026-04-26T10:35:53.953Z</time></trkpt><trkpt lat="43.5100154432792" lon="12.580714597356538"><ele>603.3333333333334</ele><time>2026-04-26T10:35:54.953Z</time></trkpt><trkpt lat="43.51004246223136" lon="12.580507995792"><ele>598.0</ele><time>2026-04-26T10:35:55.953Z</time></trkpt><trkpt lat="43.51007180697781" lon="12.580309196732548"><ele>594.75</ele><time>2026-04-26T10:35:56.953Z</time></trkpt><trkpt lat="43.51010091132596" lon="12.580125281042525"><ele>591.5</ele><time>2026-04-26T10:35:57.953Z</time></trkpt><trkpt lat="43.51013059266927" lon="12.579955921351516"><ele>588.25</ele><time>2026-04-26T10:35:58.953Z</time></trkpt><trkpt lat="43.5101647589929" lon="12.579765652279464"><ele>585.0</ele><time>2026-04-26T10:35:59.953Z</time></trkpt><trkpt lat="43.51019541260412" lon="12.579543216189519"><ele>582.3333333333334</ele><time>2026-04-26T10:36:00.953Z</time></trkpt><trkpt lat="43.51022817932995" lon="12.579312987682636"><ele>579.6666666666667</ele><time>2026-04-26T10:36:01.953Z</time></trkpt><trkpt lat="43.510263974155876" lon="12.579094304975994"><ele>577.0</ele><time>2026-04-26T10:36:02.953Z</time></trkpt><trkpt lat="43.51029447616937" lon="12.578895198760064"><ele>577.0</ele><time>2026-04-26T10:36:03.953Z</time></trkpt><trkpt lat="43.510323486662855" lon="12.578724059150169"><ele>577.0</ele><time>2026-04-26T10:36:04.953Z</time></trkpt><trkpt lat="43.510358739320516" lon="12.57855698953446"><ele>577.0</ele><time>2026-04-26T10:36:05.953Z</time></trkpt><trkpt lat="43.51038843674316" lon="12.578401647889727"><ele>577.0</ele><time>2026-04-26T10:36:06.953Z</time></trkpt><trkpt lat="43.51040393799478" lon="12.578248167154996"><ele>575.6</ele><time>2026-04-26T10:36:07.952Z</time></trkpt><trkpt lat="43.510411779895236" lon="12.578105983935371"><ele>574.2</ele><time>2026-04-26T10:36:08.952Z</time></trkpt><trkpt lat="43.51039999179431" lon="12.577967443332346"><ele>572.8</ele><time>2026-04-26T10:36:09.952Z</time></trkpt><trkpt lat="43.510400428557546" lon="12.577850732491187"><ele>571.4</ele><time>2026-04-26T10:36:10.952Z</time></trkpt><trkpt lat="43.51040540176348" lon="12.577733017552486"><ele>570.0</ele><time>2026-04-26T10:36:11.952Z</time></trkpt><trkpt lat="43.510426465683324" lon="12.577633007635306"><ele>576.2</ele><time>2026-04-26T10:36:12.952Z</time></trkpt><trkpt lat="43.51043749630913" lon="12.577542118044732"><ele>582.4</ele><time>2026-04-26T10:36:13.952Z</time></trkpt><trkpt lat="43.510458218659494" lon="12.577388009681316"><ele>588.6</ele><time>2026-04-26T10:36:15.953Z</time></trkpt><trkpt lat="43.510481913875154" lon="12.577275328593457"><ele>594.8</ele><time>2026-04-26T10:36:17.953Z</time></trkpt><trkpt lat="43.510537434886935" lon="12.577192534380055"><ele>601.0</ele><time>2026-04-26T10:36:19.953Z</time></trkpt><trkpt lat="43.510608618196876" lon="12.577089570511886"><ele>601.0</ele><time>2026-04-26T10:36:21.953Z</time></trkpt><trkpt lat="43.5106567755282" lon="12.577030727699608"><ele>601.0</ele><time>2026-04-26T10:36:22.889Z</time></trkpt><trkpt lat="43.51070381324411" lon="12.576970959562738"><ele>601.0</ele><time>2026-04-26T10:36:23.889Z</time></trkpt><trkpt lat="43.51079610876669" lon="12.576860700307035"><ele>601.0</ele><time>2026-04-26T10:36:25.89Z</time></trkpt><trkpt lat="43.51087420208035" lon="12.5767444605277"><ele>601.0</ele><time>2026-04-26T10:36:27.889Z</time></trkpt><trkpt lat="43.51094604105364" lon="12.576617883848531"><ele>599.5</ele><time>2026-04-26T10:36:29.889Z</time></trkpt><trkpt lat="43.511029318742416" lon="12.5764991180324"><ele>598.0</ele><time>2026-04-26T10:36:31.889Z</time></trkpt><trkpt lat="43.51107560850321" lon="12.576435216845368"><ele>596.5</ele><time>2026-04-26T10:36:32.889Z</time></trkpt><trkpt lat="43.51111690322721" lon="12.576368938807148"><ele>595.0</ele><time>2026-04-26T10:36:33.889Z</time></trkpt><trkpt lat="43.511175059253546" lon="12.576298451882314"><ele>593.5</ele><time>2026-04-26T10:36:34.89Z</time></trkpt><trkpt lat="43.51123203101059" lon="12.576230007581437"><ele>592.0</ele><time>2026-04-26T10:36:35.89Z</time></trkpt><trkpt lat="43.511298340326675" lon="12.576176839095227"><ele>590.8333333333334</ele><time>2026-04-26T10:36:36.89Z</time></trkpt><trkpt lat="43.51136913105856" lon="12.576121999936625"><ele>589.6666666666667</ele><time>2026-04-26T10:36:37.89Z</time></trkpt><trkpt lat="43.51144007816438" lon="12.576074131535206"><ele>588.5</ele><time>2026-04-26T10:36:38.89Z</time></trkpt><trkpt lat="43.5115139143436" lon="12.57598902597027"><ele>587.3333333333334</ele><time>2026-04-26T10:36:40.89Z</time></trkpt><trkpt lat="43.51151384216596" lon="12.575901939162087"><ele>586.1666666666666</ele><time>2026-04-26T10:36:42.89Z</time></trkpt><trkpt lat="43.51140850146819" lon="12.575850325135505"><ele>585.0</ele><time>2026-04-26T10:36:43.89Z</time></trkpt><trkpt lat="43.511308330979965" lon="12.5758749867797"><ele>580.75</ele><time>2026-04-26T10:36:44.89Z</time></trkpt><trkpt lat="43.51118642351272" lon="12.57590893702067"><ele>576.5</ele><time>2026-04-26T10:36:45.89Z</time></trkpt><trkpt lat="43.51106649596771" lon="12.57593233302205"><ele>572.25</ele><time>2026-04-26T10:36:46.89Z</time></trkpt><trkpt lat="43.510941000938956" lon="12.575948028388424"><ele>568.0</ele><time>2026-04-26T10:36:47.89Z</time></trkpt><trkpt lat="43.51082113689378" lon="12.57595384183277"><ele>568.0</ele><time>2026-04-26T10:36:48.89Z</time></trkpt><trkpt lat="43.51071301035322" lon="12.575963779645994"><ele>568.0</ele><time>2026-04-26T10:36:49.89Z</time></trkpt><trkpt lat="43.51059987959909" lon="12.57598153346755"><ele>568.0</ele><time>2026-04-26T10:36:50.89Z</time></trkpt><trkpt lat="43.51049109776934" lon="12.576008912565477"><ele>568.0</ele><time>2026-04-26T10:36:51.89Z</time></trkpt><trkpt lat="43.51039831981879" lon="12.576025570188692"><ele>568.0</ele><time>2026-04-26T10:36:52.89Z</time></trkpt><trkpt lat="43.51029937407664" lon="12.576055553623835"><ele>566.6</ele><time>2026-04-26T10:36:53.89Z</time></trkpt><trkpt lat="43.510199050430174" lon="12.57611615406977"><ele>565.1999999999999</ele><time>2026-04-26T10:36:54.89Z</time></trkpt><trkpt lat="43.510096970738495" lon="12.576121670429597"><ele>563.8</ele><time>2026-04-26T10:36:55.89Z</time></trkpt><trkpt lat="43.5100109715099" lon="12.576122525103704"><ele>562.4</ele><time>2026-04-26T10:36:56.89Z</time></trkpt><trkpt lat="43.50994278819357" lon="12.576098014264135"><ele>561.0</ele><time>2026-04-26T10:36:57.89Z</time></trkpt><trkpt lat="43.50987463570492" lon="12.576009199703664"><ele>561.0</ele><time>2026-04-26T10:36:59.89Z</time></trkpt><trkpt lat="43.50996364311791" lon="12.575871237124607"><ele>561.0</ele><time>2026-04-26T10:37:01.89Z</time></trkpt><trkpt lat="43.510034126463594" lon="12.575821037816766"><ele>561.0</ele><time>2026-04-26T10:37:02.89Z</time></trkpt><trkpt lat="43.51012032355895" lon="12.575756134171934"><ele>561.0</ele><time>2026-04-26T10:37:03.89Z</time></trkpt><trkpt lat="43.5102183734006" lon="12.575679418102233"><ele>561.0</ele><time>2026-04-26T10:37:04.889Z</time></trkpt><trkpt lat="43.510324382588465" lon="12.575622160347075"><ele>561.0</ele><time>2026-04-26T10:37:05.889Z</time></trkpt><trkpt lat="43.51039787102962" lon="12.575569642103883"><ele>561.0</ele><time>2026-04-26T10:37:06.889Z</time></trkpt><trkpt lat="43.510435867688635" lon="12.575475587515102"><ele>561.0</ele><time>2026-04-26T10:37:08.889Z</time></trkpt><trkpt lat="43.510327373648444" lon="12.575376837959674"><ele>561.0</ele><time>2026-04-26T10:37:10.889Z</time></trkpt><trkpt lat="43.51022427531149" lon="12.575407783191167"><ele>561.0</ele><time>2026-04-26T10:37:11.889Z</time></trkpt><trkpt lat="43.51011666115206" lon="12.57540586354315"><ele>561.0</ele><time>2026-04-26T10:37:12.889Z</time></trkpt><trkpt lat="43.510043025732365" lon="12.575370709309265"><ele>561.0</ele><time>2026-04-26T10:37:13.889Z</time></trkpt><trkpt lat="43.50998791673389" lon="12.575319134647849"><ele>561.0</ele><time>2026-04-26T10:37:14.889Z</time></trkpt><trkpt lat="43.50995376384834" lon="12.575203393279685"><ele>561.0</ele><time>2026-04-26T10:37:16.889Z</time></trkpt><trkpt lat="43.5100059534201" lon="12.57515110843227"><ele>561.0</ele><time>2026-04-26T10:37:17.889Z</time></trkpt><trkpt lat="43.510085453168706" lon="12.575155211264105"><ele>561.0</ele><time>2026-04-26T10:37:18.889Z</time></trkpt><trkpt lat="43.51018447376873" lon="12.575151699911373"><ele>556.6</ele><time>2026-04-26T10:37:19.889Z</time></trkpt><trkpt lat="43.51029902740568" lon="12.575173768323253"><ele>552.2</ele><time>2026-04-26T10:37:20.889Z</time></trkpt><trkpt lat="43.51042078156349" lon="12.575192723801505"><ele>547.8</ele><time>2026-04-26T10:37:21.889Z</time></trkpt><trkpt lat="43.51053267367878" lon="12.57519465675866"><ele>543.4</ele><time>2026-04-26T10:37:22.889Z</time></trkpt><trkpt lat="43.51060020897233" lon="12.57517817554233"><ele>539.0</ele><time>2026-04-26T10:37:23.889Z</time></trkpt><trkpt lat="43.510631030045644" lon="12.575100795798571"><ele>539.0</ele><time>2026-04-26T10:37:25.889Z</time></trkpt><trkpt lat="43.51051269148158" lon="12.57500141161725"><ele>539.0</ele><time>2026-04-26T10:37:27.889Z</time></trkpt><trkpt lat="43.51041047706531" lon="12.574956361573856"><ele>539.0</ele><time>2026-04-26T10:37:28.889Z</time></trkpt><trkpt lat="43.51030479315741" lon="12.574840145107588"><ele>539.0</ele><time>2026-04-26T10:37:29.889Z</time></trkpt><trkpt lat="43.5102338865351" lon="12.574729904283796"><ele>538.6</ele><time>2026-04-26T10:37:30.889Z</time></trkpt><trkpt lat="43.51018732037254" lon="12.57461715658338"><ele>538.2</ele><time>2026-04-26T10:37:31.889Z</time></trkpt><trkpt lat="43.51013323668175" lon="12.574542435719902"><ele>537.8000000000001</ele><time>2026-04-26T10:37:32.889Z</time></trkpt><trkpt lat="43.51006416631423" lon="12.574460716058262"><ele>537.4</ele><time>2026-04-26T10:37:34.889Z</time></trkpt><trkpt lat="43.50998247583603" lon="12.574564232293099"><ele>537.0</ele><time>2026-04-26T10:37:35.889Z</time></trkpt><trkpt lat="43.50991413344222" lon="12.574652828382776"><ele>537.0</ele><time>2026-04-26T10:37:36.889Z</time></trkpt><trkpt lat="43.50983731518065" lon="12.574780212845395"><ele>537.0</ele><time>2026-04-26T10:37:37.889Z</time></trkpt><trkpt lat="43.509766820075846" lon="12.574880253350607"><ele>537.0</ele><time>2026-04-26T10:37:38.889Z</time></trkpt><trkpt lat="43.509703221907024" lon="12.57495287244438"><ele>537.0</ele><time>2026-04-26T10:37:39.889Z</time></trkpt><trkpt lat="43.50969965877577" lon="12.574791397078993"><ele>537.0</ele><time>2026-04-26T10:37:43.888Z</time></trkpt><trkpt lat="43.5097552236412" lon="12.574706611859973"><ele>537.0</ele><time>2026-04-26T10:37:44.888Z</time></trkpt><trkpt lat="43.50983367970412" lon="12.574609061498652"><ele>537.0</ele><time>2026-04-26T10:37:45.888Z</time></trkpt><trkpt lat="43.50991092846327" lon="12.57449883079841"><ele>537.0</ele><time>2026-04-26T10:37:46.888Z</time></trkpt><trkpt lat="43.509966598530575" lon="12.574374884799836"><ele>537.0</ele><time>2026-04-26T10:37:47.888Z</time></trkpt><trkpt lat="43.5100144908858" lon="12.574279295926662"><ele>537.0</ele><time>2026-04-26T10:37:48.888Z</time></trkpt><trkpt lat="43.51006187186071" lon="12.574194123457746"><ele>531.8000000000001</ele><time>2026-04-26T10:37:49.888Z</time></trkpt><trkpt lat="43.510165393787936" lon="12.574141034668433"><ele>526.6</ele><time>2026-04-26T10:37:51.888Z</time></trkpt><trkpt lat="43.51025826741746" lon="12.574257776136973"><ele>521.4000000000001</ele><time>2026-04-26T10:37:53.888Z</time></trkpt><trkpt lat="43.510310985107694" lon="12.574355213906363"><ele>516.2</ele><time>2026-04-26T10:37:54.888Z</time></trkpt><trkpt lat="43.51039512522443" lon="12.574425108596488"><ele>511.0</ele><time>2026-04-26T10:37:55.888Z</time></trkpt><trkpt lat="43.51051380152092" lon="12.574461863736413"><ele>510.0</ele><time>2026-04-26T10:37:56.888Z</time></trkpt><trkpt lat="43.51062192187582" lon="12.574483207611152"><ele>509.0</ele><time>2026-04-26T10:37:57.888Z</time></trkpt><trkpt lat="43.510718505017664" lon="12.574495014567715"><ele>508.0</ele><time>2026-04-26T10:37:58.888Z</time></trkpt><trkpt lat="43.510813629968716" lon="12.574529385949825"><ele>507.0</ele><time>2026-04-26T10:37:59.888Z</time></trkpt><trkpt lat="43.510912264378206" lon="12.574514995415052"><ele>506.0</ele><time>2026-04-26T10:38:00.888Z</time></trkpt><trkpt lat="43.511003474225994" lon="12.574535869827274"><ele>509.16666666666663</ele><time>2026-04-26T10:38:01.888Z</time></trkpt><trkpt lat="43.51109534091322" lon="12.574533507041771"><ele>512.3333333333333</ele><time>2026-04-26T10:38:02.888Z</time></trkpt><trkpt lat="43.51118449901265" lon="12.574555656343666"><ele>515.5</ele><time>2026-04-26T10:38:03.888Z</time></trkpt><trkpt lat="43.51127337622426" lon="12.574544371585342"><ele>518.6666666666666</ele><time>2026-04-26T10:38:04.888Z</time></trkpt><trkpt lat="43.51135701258223" lon="12.574520505851416"><ele>521.8333333333334</ele><time>2026-04-26T10:38:05.888Z</time></trkpt><trkpt lat="43.51143500000476" lon="12.574483979029146"><ele>525.0</ele><time>2026-04-26T10:38:06.888Z</time></trkpt><trkpt lat="43.51150322440002" lon="12.574413283158526"><ele>525.0</ele><time>2026-04-26T10:38:07.888Z</time></trkpt><trkpt lat="43.51155631979938" lon="12.57432134955625"><ele>525.0</ele><time>2026-04-26T10:38:08.888Z</time></trkpt><trkpt lat="43.511593145065916" lon="12.57421100779227"><ele>525.0</ele><time>2026-04-26T10:38:09.888Z</time></trkpt><trkpt lat="43.51163279904395" lon="12.574107220359423"><ele>525.0</ele><time>2026-04-26T10:38:10.888Z</time></trkpt><trkpt lat="43.51165778480196" lon="12.57392573547261"><ele>525.0</ele><time>2026-04-26T10:38:11.888Z</time></trkpt><trkpt lat="43.51171506046806" lon="12.57375033729884"><ele>525.8</ele><time>2026-04-26T10:38:12.888Z</time></trkpt><trkpt lat="43.51179233541854" lon="12.57364031289678"><ele>526.6</ele><time>2026-04-26T10:38:13.888Z</time></trkpt><trkpt lat="43.51186061209183" lon="12.573527894113079"><ele>527.4</ele><time>2026-04-26T10:38:14.888Z</time></trkpt><trkpt lat="43.51193990805451" lon="12.573429124523127"><ele>528.2</ele><time>2026-04-26T10:38:15.888Z</time></trkpt><trkpt lat="43.51201763944594" lon="12.573333078332485"><ele>529.0</ele><time>2026-04-26T10:38:16.888Z</time></trkpt><trkpt lat="43.512103628978" lon="12.573262806844266"><ele>529.0</ele><time>2026-04-26T10:38:17.888Z</time></trkpt><trkpt lat="43.51220016385699" lon="12.573207157460272"><ele>529.0</ele><time>2026-04-26T10:38:18.887Z</time></trkpt><trkpt lat="43.512299891894536" lon="12.573173988895597"><ele>529.0</ele><time>2026-04-26T10:38:19.887Z</time></trkpt><trkpt lat="43.51236754770201" lon="12.573088565333235"><ele>529.0</ele><time>2026-04-26T10:38:21.888Z</time></trkpt><trkpt lat="43.512331108818486" lon="12.572992372811338"><ele>529.0</ele><time>2026-04-26T10:38:23.889Z</time></trkpt><trkpt lat="43.51223228386361" lon="12.57295982294765"><ele>529.0</ele><time>2026-04-26T10:38:24.889Z</time></trkpt><trkpt lat="43.512124398044655" lon="12.573016261596887"><ele>529.0</ele><time>2026-04-26T10:38:25.889Z</time></trkpt><trkpt lat="43.51199992879533" lon="12.57308300277055"><ele>529.0</ele><time>2026-04-26T10:38:26.888Z</time></trkpt><trkpt lat="43.51187071578636" lon="12.573168745946392"><ele>529.0</ele><time>2026-04-26T10:38:27.889Z</time></trkpt><trkpt lat="43.51172316621505" lon="12.57328099015138"><ele>515.3333333333334</ele><time>2026-04-26T10:38:28.889Z</time></trkpt><trkpt lat="43.511575221668295" lon="12.573426086912482"><ele>501.66666666666663</ele><time>2026-04-26T10:38:29.888Z</time></trkpt><trkpt lat="43.51144214515366" lon="12.57354855271662"><ele>488.0</ele><time>2026-04-26T10:38:30.889Z</time></trkpt><trkpt lat="43.51131870903737" lon="12.573614615672739"><ele>486.79999999999995</ele><time>2026-04-26T10:38:31.889Z</time></trkpt><trkpt lat="43.51121215090461" lon="12.573648238815062"><ele>485.59999999999997</ele><time>2026-04-26T10:38:32.888Z</time></trkpt><trkpt lat="43.51111341616725" lon="12.573625654874501"><ele>484.40000000000003</ele><time>2026-04-26T10:38:33.889Z</time></trkpt><trkpt lat="43.51100401573806" lon="12.573577935419488"><ele>483.20000000000005</ele><time>2026-04-26T10:38:34.889Z</time></trkpt><trkpt lat="43.51090256268347" lon="12.573524953901943"><ele>482.0</ele><time>2026-04-26T10:38:35.889Z</time></trkpt><trkpt lat="43.51083279033028" lon="12.57346391118134"><ele>482.0</ele><time>2026-04-26T10:38:36.889Z</time></trkpt><trkpt lat="43.51079072177016" lon="12.57336923577284"><ele>482.0</ele><time>2026-04-26T10:38:37.889Z</time></trkpt><trkpt lat="43.5107754210961" lon="12.573221497214917"><ele>482.0</ele><time>2026-04-26T10:38:38.889Z</time></trkpt><trkpt lat="43.510773844971865" lon="12.573010258098765"><ele>482.0</ele><time>2026-04-26T10:38:39.889Z</time></trkpt><trkpt lat="43.510789053952685" lon="12.57275898467959"><ele>478.0</ele><time>2026-04-26T10:38:40.888Z</time></trkpt><trkpt lat="43.51081682472794" lon="12.572494055069534"><ele>474.0</ele><time>2026-04-26T10:38:41.888Z</time></trkpt><trkpt lat="43.51085075384358" lon="12.572209731842099"><ele>470.0</ele><time>2026-04-26T10:38:42.888Z</time></trkpt><trkpt lat="43.510870051895104" lon="12.571922821225598"><ele>467.66666666666663</ele><time>2026-04-26T10:38:43.888Z</time></trkpt><trkpt lat="43.510898933434625" lon="12.571661828237222"><ele>465.33333333333337</ele><time>2026-04-26T10:38:44.888Z</time></trkpt><trkpt lat="43.51091587308445" lon="12.571424003790556"><ele>463.0</ele><time>2026-04-26T10:38:45.888Z</time></trkpt><trkpt lat="43.51093121063141" lon="12.571213365884796"><ele>460.59999999999997</ele><time>2026-04-26T10:38:46.888Z</time></trkpt><trkpt lat="43.51096456593057" lon="12.5710572230705"><ele>458.19999999999993</ele><time>2026-04-26T10:38:47.888Z</time></trkpt><trkpt lat="43.510958126437316" lon="12.570920677875543"><ele>455.8</ele><time>2026-04-26T10:38:48.888Z</time></trkpt><trkpt lat="43.510927841481575" lon="12.57080942582079"><ele>453.4</ele><time>2026-04-26T10:38:49.888Z</time></trkpt><trkpt lat="43.510886825093145" lon="12.570676839292277"><ele>451.0</ele><time>2026-04-26T10:38:50.888Z</time></trkpt><trkpt lat="43.51091418527147" lon="12.570534915632415"><ele>451.0</ele><time>2026-04-26T10:38:51.888Z</time></trkpt><trkpt lat="43.51095612375106" lon="12.57042115709067"><ele>451.0</ele><time>2026-04-26T10:38:52.888Z</time></trkpt><trkpt lat="43.51104879266301" lon="12.570419465998315"><ele>451.0</ele><time>2026-04-26T10:38:54.888Z</time></trkpt><trkpt lat="43.511076342887684" lon="12.570507803949367"><ele>451.0</ele><time>2026-04-26T10:38:55.888Z</time></trkpt><trkpt lat="43.51106892036386" lon="12.570629954013022"><ele>451.0</ele><time>2026-04-26T10:38:56.888Z</time></trkpt><trkpt lat="43.5110980582162" lon="12.570770898285913"><ele>451.0</ele><time>2026-04-26T10:38:57.888Z</time></trkpt><trkpt lat="43.51111478536189" lon="12.570963890800881"><ele>451.0</ele><time>2026-04-26T10:38:58.888Z</time></trkpt><trkpt lat="43.511139477293874" lon="12.571162866264459"><ele>451.0</ele><time>2026-04-26T10:38:59.888Z</time></trkpt><trkpt lat="43.511159890332664" lon="12.571335242671879"><ele>451.0</ele><time>2026-04-26T10:39:00.888Z</time></trkpt><trkpt lat="43.51118734324594" lon="12.5714870366622"><ele>449.83333333333337</ele><time>2026-04-26T10:39:01.888Z</time></trkpt><trkpt lat="43.51122074265098" lon="12.571619499713004"><ele>448.6666666666667</ele><time>2026-04-26T10:39:02.888Z</time></trkpt><trkpt lat="43.5112584875583" lon="12.571746161160906"><ele>447.5</ele><time>2026-04-26T10:39:03.888Z</time></trkpt><trkpt lat="43.51129099873431" lon="12.571858814364948"><ele>446.33333333333337</ele><time>2026-04-26T10:39:04.888Z</time></trkpt><trkpt lat="43.51132942577149" lon="12.571955677925386"><ele>445.1666666666667</ele><time>2026-04-26T10:39:05.888Z</time></trkpt><trkpt lat="43.51137506491017" lon="12.57202550620959"><ele>444.0</ele><time>2026-04-26T10:39:06.888Z</time></trkpt><trkpt lat="43.51143693044387" lon="12.572047520999549"><ele>444.0</ele><time>2026-04-26T10:39:07.888Z</time></trkpt><trkpt lat="43.51150265401104" lon="12.572022665590836"><ele>444.0</ele><time>2026-04-26T10:39:08.888Z</time></trkpt><trkpt lat="43.511565708124195" lon="12.571945302367455"><ele>444.0</ele><time>2026-04-26T10:39:09.888Z</time></trkpt><trkpt lat="43.51162861898255" lon="12.571836002126767"><ele>444.0</ele><time>2026-04-26T10:39:10.888Z</time></trkpt><trkpt lat="43.51171269989573" lon="12.571704539499567"><ele>444.0</ele><time>2026-04-26T10:39:11.888Z</time></trkpt><trkpt lat="43.511805971450116" lon="12.571550286500369"><ele>444.0</ele><time>2026-04-26T10:39:12.888Z</time></trkpt><trkpt lat="43.51191140502546" lon="12.571378886686517"><ele>444.0</ele><time>2026-04-26T10:39:13.888Z</time></trkpt><trkpt lat="43.51201124019934" lon="12.571214597155057"><ele>444.0</ele><time>2026-04-26T10:39:14.888Z</time></trkpt><trkpt lat="43.51209502135736" lon="12.571062385616049"><ele>445.0</ele><time>2026-04-26T10:39:15.887Z</time></trkpt><trkpt lat="43.51216711644348" lon="12.570918541183678"><ele>446.0</ele><time>2026-04-26T10:39:16.887Z</time></trkpt><trkpt lat="43.5122235393962" lon="12.570775851733549"><ele>447.0</ele><time>2026-04-26T10:39:17.887Z</time></trkpt><trkpt lat="43.5122704950817" lon="12.57063424390345"><ele>448.0</ele><time>2026-04-26T10:39:18.887Z</time></trkpt><trkpt lat="43.51230623085275" lon="12.570497100940107"><ele>448.0</ele><time>2026-04-26T10:39:19.887Z</time></trkpt><trkpt lat="43.51234291239588" lon="12.570361691792817"><ele>447.99999999999994</ele><time>2026-04-26T10:39:20.887Z</time></trkpt><trkpt lat="43.512383538179414" lon="12.570226993249497"><ele>447.99999999999994</ele><time>2026-04-26T10:39:21.887Z</time></trkpt><trkpt lat="43.51243898718002" lon="12.570113134543947"><ele>448.0</ele><time>2026-04-26T10:39:22.887Z</time></trkpt><trkpt lat="43.512488248370715" lon="12.56999338275592"><ele>448.0</ele><time>2026-04-26T10:39:23.887Z</time></trkpt><trkpt lat="43.51253625153373" lon="12.569875944032907"><ele>443.2</ele><time>2026-04-26T10:39:24.887Z</time></trkpt><trkpt lat="43.51257986451693" lon="12.569755840112045"><ele>438.4</ele><time>2026-04-26T10:39:25.887Z</time></trkpt><trkpt lat="43.51263204196663" lon="12.569624865625366"><ele>433.59999999999997</ele><time>2026-04-26T10:39:26.887Z</time></trkpt><trkpt lat="43.512689486349586" lon="12.569501590462554"><ele>428.79999999999995</ele><time>2026-04-26T10:39:27.887Z</time></trkpt><trkpt lat="43.51275336108956" lon="12.569378115179514"><ele>424.0</ele><time>2026-04-26T10:39:28.887Z</time></trkpt><trkpt lat="43.512819778327035" lon="12.569255974267987"><ele>426.0</ele><time>2026-04-26T10:39:29.887Z</time></trkpt><trkpt lat="43.51288870278572" lon="12.569133702769491"><ele>428.0</ele><time>2026-04-26T10:39:30.887Z</time></trkpt><trkpt lat="43.51299028044889" lon="12.569037107828365"><ele>430.0</ele><time>2026-04-26T10:39:31.887Z</time></trkpt><trkpt lat="43.51309684687918" lon="12.568966319701296"><ele>432.0</ele><time>2026-04-26T10:39:32.887Z</time></trkpt><trkpt lat="43.51319144936332" lon="12.568868528293448"><ele>432.0</ele><time>2026-04-26T10:39:33.887Z</time></trkpt><trkpt lat="43.513267911630905" lon="12.56876208654145"><ele>432.00000000000006</ele><time>2026-04-26T10:39:34.887Z</time></trkpt><trkpt lat="43.51335028557579" lon="12.568653644996026"><ele>432.00000000000006</ele><time>2026-04-26T10:39:35.887Z</time></trkpt><trkpt lat="43.513420991555286" lon="12.568538037071772"><ele>432.0</ele><time>2026-04-26T10:39:36.887Z</time></trkpt><trkpt lat="43.513490970861795" lon="12.56844483928914"><ele>432.0</ele><time>2026-04-26T10:39:37.887Z</time></trkpt><trkpt lat="43.51355034804339" lon="12.56836534203042"><ele>424.8</ele><time>2026-04-26T10:39:38.887Z</time></trkpt><trkpt lat="43.51359767922592" lon="12.56830484375945"><ele>417.6</ele><time>2026-04-26T10:39:39.887Z</time></trkpt><trkpt lat="43.51361401697518" lon="12.568201919247423"><ele>410.40000000000003</ele><time>2026-04-26T10:39:41.887Z</time></trkpt><trkpt lat="43.5134924362223" lon="12.568201486865911"><ele>403.20000000000005</ele><time>2026-04-26T10:39:44.887Z</time></trkpt><trkpt lat="43.51339214082427" lon="12.568318260891719"><ele>396.0</ele><time>2026-04-26T10:39:45.887Z</time></trkpt><trkpt lat="43.51331029416484" lon="12.568418254016937"><ele>396.0</ele><time>2026-04-26T10:39:46.887Z</time></trkpt><trkpt lat="43.51321578453436" lon="12.568520658556075"><ele>396.0</ele><time>2026-04-26T10:39:47.887Z</time></trkpt><trkpt lat="43.513122454211555" lon="12.568610107977761"><ele>396.0</ele><time>2026-04-26T10:39:48.887Z</time></trkpt><trkpt lat="43.513027622133215" lon="12.568659199513618"><ele>396.0</ele><time>2026-04-26T10:39:49.887Z</time></trkpt><trkpt lat="43.51292265205367" lon="12.568672254693777"><ele>396.0</ele><time>2026-04-26T10:39:50.886Z</time></trkpt><trkpt lat="43.51279414079763" lon="12.568686414483702"><ele>398.0</ele><time>2026-04-26T10:39:51.886Z</time></trkpt><trkpt lat="43.512659018973444" lon="12.568730708593575"><ele>400.0</ele><time>2026-04-26T10:39:52.886Z</time></trkpt><trkpt lat="43.51253428243577" lon="12.568825305582287"><ele>402.0</ele><time>2026-04-26T10:39:53.886Z</time></trkpt><trkpt lat="43.512407678863106" lon="12.568926384298711"><ele>404.0</ele><time>2026-04-26T10:39:54.886Z</time></trkpt><trkpt lat="43.5123128744852" lon="12.569021492273947"><ele>403.99999999999994</ele><time>2026-04-26T10:39:55.886Z</time></trkpt><trkpt lat="43.51222936278771" lon="12.569092962503971"><ele>404.0</ele><time>2026-04-26T10:39:56.886Z</time></trkpt><trkpt lat="43.51214602645326" lon="12.569118653484864"><ele>404.0</ele><time>2026-04-26T10:39:57.886Z</time></trkpt><trkpt lat="43.51207746132356" lon="12.569041509142366"><ele>404.0</ele><time>2026-04-26T10:39:58.886Z</time></trkpt><trkpt lat="43.51203577386868" lon="12.568971222253722"><ele>403.99999999999994</ele><time>2026-04-26T10:39:59.886Z</time></trkpt><trkpt lat="43.51204685788362" lon="12.568879103586792"><ele>404.0</ele><time>2026-04-26T10:40:00.886Z</time></trkpt><trkpt lat="43.51215876239622" lon="12.568845034255261"><ele>404.0</ele><time>2026-04-26T10:40:02.886Z</time></trkpt><trkpt lat="43.51223927835045" lon="12.568860117891177"><ele>404.0</ele><time>2026-04-26T10:40:03.886Z</time></trkpt><trkpt lat="43.51231900829889" lon="12.568820139923352"><ele>404.0</ele><time>2026-04-26T10:40:04.886Z</time></trkpt><trkpt lat="43.512371339724254" lon="12.568688408876861"><ele>404.0</ele><time>2026-04-26T10:40:05.886Z</time></trkpt><trkpt lat="43.51243236949662" lon="12.56855646477578"><ele>404.0</ele><time>2026-04-26T10:40:06.886Z</time></trkpt><trkpt lat="43.51249130020383" lon="12.568423477856667"><ele>400.6</ele><time>2026-04-26T10:40:07.886Z</time></trkpt><trkpt lat="43.51255822062014" lon="12.568341269902378"><ele>397.2</ele><time>2026-04-26T10:40:08.886Z</time></trkpt><trkpt lat="43.51264269458279" lon="12.568334708970397"><ele>393.8</ele><time>2026-04-26T10:40:09.886Z</time></trkpt><trkpt lat="43.51271319270713" lon="12.568319398427695"><ele>390.40000000000003</ele><time>2026-04-26T10:40:10.886Z</time></trkpt><trkpt lat="43.51280497838288" lon="12.568299346245428"><ele>387.0</ele><time>2026-04-26T10:40:11.886Z</time></trkpt><trkpt lat="43.51289384785613" lon="12.568205098373078"><ele>385.25</ele><time>2026-04-26T10:40:12.886Z</time></trkpt><trkpt lat="43.51297491937421" lon="12.568089047792451"><ele>383.5</ele><time>2026-04-26T10:40:13.886Z</time></trkpt><trkpt lat="43.51307237411531" lon="12.567932282598807"><ele>381.75</ele><time>2026-04-26T10:40:14.886Z</time></trkpt><trkpt lat="43.51314708886125" lon="12.567768737618554"><ele>380.0</ele><time>2026-04-26T10:40:15.886Z</time></trkpt><trkpt lat="43.51323809426644" lon="12.567647411443573"><ele>380.0</ele><time>2026-04-26T10:40:16.886Z</time></trkpt><trkpt lat="43.513299262660844" lon="12.567538644932942"><ele>380.0</ele><time>2026-04-26T10:40:17.886Z</time></trkpt><trkpt lat="43.51334236745589" lon="12.567453275246656"><ele>380.0</ele><time>2026-04-26T10:40:18.886Z</time></trkpt><trkpt lat="43.51336391339698" lon="12.567368400395738"><ele>380.0</ele><time>2026-04-26T10:40:19.886Z</time></trkpt><trkpt lat="43.5133700483498" lon="12.567264713233387"><ele>380.0</ele><time>2026-04-26T10:40:20.886Z</time></trkpt><trkpt lat="43.51334492856168" lon="12.567095303283592"><ele>380.0</ele><time>2026-04-26T10:40:21.886Z</time></trkpt><trkpt lat="43.51331132001733" lon="12.566889185634745"><ele>382.25</ele><time>2026-04-26T10:40:22.886Z</time></trkpt><trkpt lat="43.513302001848" lon="12.566700175053644"><ele>384.5</ele><time>2026-04-26T10:40:23.886Z</time></trkpt><trkpt lat="43.51333220528945" lon="12.566546885976232"><ele>386.75</ele><time>2026-04-26T10:40:24.886Z</time></trkpt><trkpt lat="43.513405911331205" lon="12.56645429840759"><ele>389.0</ele><time>2026-04-26T10:40:25.885Z</time></trkpt><trkpt lat="43.51349738549128" lon="12.566407077370323"><ele>389.0</ele><time>2026-04-26T10:40:26.886Z</time></trkpt><trkpt lat="43.51362269595411" lon="12.566342116815283"><ele>389.0</ele><time>2026-04-26T10:40:27.887Z</time></trkpt><trkpt lat="43.51375601293651" lon="12.56627632410695"><ele>389.0</ele><time>2026-04-26T10:40:28.887Z</time></trkpt><trkpt lat="43.51388611981462" lon="12.566196168686178"><ele>389.0</ele><time>2026-04-26T10:40:29.886Z</time></trkpt><trkpt lat="43.513991805746876" lon="12.566155401450446"><ele>388.3333333333333</ele><time>2026-04-26T10:40:30.887Z</time></trkpt><trkpt lat="43.51408959030696" lon="12.566107975950429"><ele>387.66666666666663</ele><time>2026-04-26T10:40:31.886Z</time></trkpt><trkpt lat="43.5141786040249" lon="12.566103841146028"><ele>387.0</ele><time>2026-04-26T10:40:32.886Z</time></trkpt><trkpt lat="43.51425487154322" lon="12.566079618982329"><ele>386.33333333333337</ele><time>2026-04-26T10:40:33.886Z</time></trkpt><trkpt lat="43.51432421668745" lon="12.566066096439911"><ele>385.6666666666667</ele><time>2026-04-26T10:40:34.886Z</time></trkpt><trkpt lat="43.51441795065021" lon="12.566061700992456"><ele>385.0</ele><time>2026-04-26T10:40:36.886Z</time></trkpt><trkpt lat="43.514491151228405" lon="12.565882785784938"><ele>385.0</ele><time>2026-04-26T10:40:50.886Z</time></trkpt><trkpt lat="43.51450065179485" lon="12.565749109999384"><ele>385.0</ele><time>2026-04-26T10:40:51.886Z</time></trkpt><trkpt lat="43.51447604661984" lon="12.565634795606538"><ele>385.0</ele><time>2026-04-26T10:40:52.885Z</time></trkpt><trkpt lat="43.51441692311925" lon="12.565524353659747"><ele>385.0</ele><time>2026-04-26T10:40:53.885Z</time></trkpt><trkpt lat="43.51432838248907" lon="12.565399268515515"><ele>385.0</ele><time>2026-04-26T10:40:54.885Z</time></trkpt><trkpt lat="43.514242342361094" lon="12.565270263891422"><ele>385.6666666666667</ele><time>2026-04-26T10:40:55.885Z</time></trkpt><trkpt lat="43.51414476773364" lon="12.565125458862992"><ele>386.33333333333337</ele><time>2026-04-26T10:40:56.885Z</time></trkpt><trkpt lat="43.514025439384056" lon="12.564968182906826"><ele>387.0</ele><time>2026-04-26T10:40:57.885Z</time></trkpt><trkpt lat="43.51390529948474" lon="12.564764727233324"><ele>387.0</ele><time>2026-04-26T10:40:58.885Z</time></trkpt><trkpt lat="43.51376844718468" lon="12.564553480114833"><ele>387.0</ele><time>2026-04-26T10:40:59.885Z</time></trkpt><trkpt lat="43.51364429110603" lon="12.564366678931647"><ele>387.0</ele><time>2026-04-26T10:41:00.885Z</time></trkpt><trkpt lat="43.51353443605705" lon="12.56420081836028"><ele>388.0</ele><time>2026-04-26T10:41:01.885Z</time></trkpt><trkpt lat="43.51343919255441" lon="12.564051033939219"><ele>389.0</ele><time>2026-04-26T10:41:02.885Z</time></trkpt><trkpt lat="43.51334924129729" lon="12.563912283927944"><ele>390.0</ele><time>2026-04-26T10:41:03.885Z</time></trkpt><trkpt lat="43.51327050206873" lon="12.563765573243796"><ele>391.0</ele><time>2026-04-26T10:41:04.885Z</time></trkpt><trkpt lat="43.51320951581088" lon="12.56359901633903"><ele>391.0</ele><time>2026-04-26T10:41:05.885Z</time></trkpt><trkpt lat="43.51319840375524" lon="12.563407306952785"><ele>391.0</ele><time>2026-04-26T10:41:06.885Z</time></trkpt><trkpt lat="43.51316780201204" lon="12.563194778961684"><ele>391.0</ele><time>2026-04-26T10:41:07.885Z</time></trkpt><trkpt lat="43.51311137036189" lon="12.563014817070117"><ele>391.0</ele><time>2026-04-26T10:41:08.885Z</time></trkpt><trkpt lat="43.51306025130016" lon="12.562850712798598"><ele>390.0</ele><time>2026-04-26T10:41:09.885Z</time></trkpt><trkpt lat="43.51297791327761" lon="12.56273883960265"><ele>389.0</ele><time>2026-04-26T10:41:10.885Z</time></trkpt><trkpt lat="43.512855297549144" lon="12.562655131362956"><ele>388.0</ele><time>2026-04-26T10:41:11.885Z</time></trkpt><trkpt lat="43.51269005707463" lon="12.562594788665763"><ele>387.0</ele><time>2026-04-26T10:41:12.885Z</time></trkpt><trkpt lat="43.51252801872434" lon="12.562490169115632"><ele>387.0</ele><time>2026-04-26T10:41:13.885Z</time></trkpt><trkpt lat="43.51238164259033" lon="12.56233321943402"><ele>387.0</ele><time>2026-04-26T10:41:14.885Z</time></trkpt><trkpt lat="43.512259673069565" lon="12.562162883357098"><ele>387.0</ele><time>2026-04-26T10:41:15.885Z</time></trkpt><trkpt lat="43.51215541532626" lon="12.561973990232516"><ele>397.33333333333337</ele><time>2026-04-26T10:41:16.885Z</time></trkpt><trkpt lat="43.51204892717884" lon="12.561767409329345"><ele>407.6666666666667</ele><time>2026-04-26T10:41:17.885Z</time></trkpt><trkpt lat="43.51196149234782" lon="12.561586512363027"><ele>418.0</ele><time>2026-04-26T10:41:18.885Z</time></trkpt><trkpt lat="43.511896144057175" lon="12.561398842618656"><ele>418.0</ele><time>2026-04-26T10:41:19.885Z</time></trkpt><trkpt lat="43.511859063144755" lon="12.561203557445396"><ele>418.0</ele><time>2026-04-26T10:41:20.885Z</time></trkpt><trkpt lat="43.511854029479565" lon="12.560972739466418"><ele>418.0</ele><time>2026-04-26T10:41:21.885Z</time></trkpt><trkpt lat="43.511876876047715" lon="12.56077097380186"><ele>414.33333333333337</ele><time>2026-04-26T10:41:22.885Z</time></trkpt><trkpt lat="43.51192673629244" lon="12.56057436374395"><ele>410.66666666666663</ele><time>2026-04-26T10:41:23.885Z</time></trkpt><trkpt lat="43.51200448419686" lon="12.560348660919075"><ele>407.0</ele><time>2026-04-26T10:41:24.885Z</time></trkpt><trkpt lat="43.51209539786597" lon="12.560097681078215"><ele>404.0</ele><time>2026-04-26T10:41:25.885Z</time></trkpt><trkpt lat="43.512177467282854" lon="12.559865113405218"><ele>401.0</ele><time>2026-04-26T10:41:26.885Z</time></trkpt><trkpt lat="43.51225660861327" lon="12.559644059653136"><ele>398.0</ele><time>2026-04-26T10:41:27.884Z</time></trkpt><trkpt lat="43.5123305901643" lon="12.559422238835888"><ele>398.0</ele><time>2026-04-26T10:41:28.884Z</time></trkpt><trkpt lat="43.51240568997627" lon="12.559205920009928"><ele>398.0</ele><time>2026-04-26T10:41:29.884Z</time></trkpt><trkpt lat="43.51247917091054" lon="12.558985736206333"><ele>398.0</ele><time>2026-04-26T10:41:30.884Z</time></trkpt><trkpt lat="43.51254425014823" lon="12.558788169236319"><ele>398.5</ele><time>2026-04-26T10:41:31.884Z</time></trkpt><trkpt lat="43.51259324893311" lon="12.558612675740678"><ele>399.0</ele><time>2026-04-26T10:41:32.884Z</time></trkpt><trkpt lat="43.5126358424459" lon="12.558443373844277"><ele>399.5</ele><time>2026-04-26T10:41:33.884Z</time></trkpt><trkpt lat="43.51264382588845" lon="12.55830266908845"><ele>400.0</ele><time>2026-04-26T10:41:34.884Z</time></trkpt><trkpt lat="43.51263321714541" lon="12.558149769500824"><ele>400.0</ele><time>2026-04-26T10:41:35.884Z</time></trkpt><trkpt lat="43.51260343872097" lon="12.557994568669937"><ele>400.0</ele><time>2026-04-26T10:41:36.884Z</time></trkpt><trkpt lat="43.512552280658106" lon="12.55782029674313"><ele>400.0</ele><time>2026-04-26T10:41:37.884Z</time></trkpt><trkpt lat="43.5124987403498" lon="12.557636248608286"><ele>400.0</ele><time>2026-04-26T10:41:38.884Z</time></trkpt><trkpt lat="43.5124462896116" lon="12.557440091671085"><ele>399.33333333333337</ele><time>2026-04-26T10:41:39.884Z</time></trkpt><trkpt lat="43.512409587303054" lon="12.55722431938602"><ele>398.66666666666663</ele><time>2026-04-26T10:41:40.884Z</time></trkpt><trkpt lat="43.51235817322596" lon="12.557006857589917"><ele>398.0</ele><time>2026-04-26T10:41:41.884Z</time></trkpt><trkpt lat="43.512308772751815" lon="12.556797956889538"><ele>397.75</ele><time>2026-04-26T10:41:42.884Z</time></trkpt><trkpt lat="43.51226119047332" lon="12.55658610658932"><ele>397.5</ele><time>2026-04-26T10:41:43.884Z</time></trkpt><trkpt lat="43.512223110200566" lon="12.556386666945786"><ele>397.25</ele><time>2026-04-26T10:41:44.884Z</time></trkpt><trkpt lat="43.51222405021756" lon="12.556219656912154"><ele>397.0</ele><time>2026-04-26T10:41:45.884Z</time></trkpt><trkpt lat="43.512237445464784" lon="12.556037289287568"><ele>396.6666666666667</ele><time>2026-04-26T10:41:46.884Z</time></trkpt><trkpt lat="43.51226384709852" lon="12.55584426532769"><ele>396.33333333333337</ele><time>2026-04-26T10:41:47.884Z</time></trkpt><trkpt lat="43.512277550506795" lon="12.555636065843903"><ele>396.0</ele><time>2026-04-26T10:41:48.884Z</time></trkpt><trkpt lat="43.512314991528775" lon="12.55541643086986"><ele>395.66666666666663</ele><time>2026-04-26T10:41:49.884Z</time></trkpt><trkpt lat="43.51235459441151" lon="12.555175122618095"><ele>395.3333333333333</ele><time>2026-04-26T10:41:50.884Z</time></trkpt><trkpt lat="43.51237890626914" lon="12.554932256687394"><ele>395.0</ele><time>2026-04-26T10:41:51.884Z</time></trkpt><trkpt lat="43.51240109989003" lon="12.554718711275651"><ele>395.5</ele><time>2026-04-26T10:41:52.884Z</time></trkpt><trkpt lat="43.512420120209136" lon="12.554534156136206"><ele>396.0</ele><time>2026-04-26T10:41:53.884Z</time></trkpt><trkpt lat="43.51240802690759" lon="12.554372829476655"><ele>396.5</ele><time>2026-04-26T10:41:54.884Z</time></trkpt><trkpt lat="43.51236347621879" lon="12.554230189106857"><ele>397.0</ele><time>2026-04-26T10:41:55.884Z</time></trkpt><trkpt lat="43.51229864615244" lon="12.554078834603084"><ele>397.0</ele><time>2026-04-26T10:41:56.884Z</time></trkpt><trkpt lat="43.512235464098424" lon="12.553930933285107"><ele>397.0</ele><time>2026-04-26T10:41:57.884Z</time></trkpt><trkpt lat="43.5122008293393" lon="12.553793900899661"><ele>397.0</ele><time>2026-04-26T10:41:58.884Z</time></trkpt><trkpt lat="43.51214828789426" lon="12.553677717721735"><ele>397.0</ele><time>2026-04-26T10:41:59.884Z</time></trkpt><trkpt lat="43.51211413910366" lon="12.553575369330613"><ele>397.0</ele><time>2026-04-26T10:42:00.884Z</time></trkpt><trkpt lat="43.512097710688344" lon="12.553447974061307"><ele>396.40000000000003</ele><time>2026-04-26T10:42:02.883Z</time></trkpt><trkpt lat="43.5122117643963" lon="12.55335335980099"><ele>395.8</ele><time>2026-04-26T10:42:04.883Z</time></trkpt><trkpt lat="43.51228349518557" lon="12.553381256042279"><ele>395.2</ele><time>2026-04-26T10:42:06.883Z</time></trkpt><trkpt lat="43.51235453047333" lon="12.553441707542026"><ele>394.6</ele><time>2026-04-26T10:43:33.882Z</time></trkpt><trkpt lat="43.512401079735014" lon="12.553571572162475"><ele>394.0</ele><time>2026-04-26T10:43:35.882Z</time></trkpt><trkpt lat="43.51243491718943" lon="12.55367221942102"><ele>394.6</ele><time>2026-04-26T10:43:36.882Z</time></trkpt><trkpt lat="43.512470198444944" lon="12.55377894083147"><ele>395.2</ele><time>2026-04-26T10:43:37.882Z</time></trkpt><trkpt lat="43.51251768624168" lon="12.553875707064629"><ele>395.8</ele><time>2026-04-26T10:43:38.882Z</time></trkpt><trkpt lat="43.512579926146906" lon="12.554026357063433"><ele>396.40000000000003</ele><time>2026-04-26T10:43:40.882Z</time></trkpt><trkpt lat="43.512680110360776" lon="12.554062101580014"><ele>397.0</ele><time>2026-04-26T10:43:42.882Z</time></trkpt><trkpt lat="43.51274739936719" lon="12.554003718335323"><ele>397.0</ele><time>2026-04-26T10:43:43.882Z</time></trkpt><trkpt lat="43.51280597761747" lon="12.55394679398791"><ele>397.0</ele><time>2026-04-26T10:43:44.882Z</time></trkpt><trkpt lat="43.51284457565147" lon="12.553867536870614"><ele>397.0</ele><time>2026-04-26T10:43:45.882Z</time></trkpt><trkpt lat="43.512877736735945" lon="12.553780316879868"><ele>397.0</ele><time>2026-04-26T10:43:46.882Z</time></trkpt><trkpt lat="43.512915565361546" lon="12.553693232837052"><ele>397.0</ele><time>2026-04-26T10:43:47.882Z</time></trkpt><trkpt lat="43.5129610326956" lon="12.553631172231174"><ele>397.0</ele><time>2026-04-26T10:43:48.882Z</time></trkpt><trkpt lat="43.513012803464385" lon="12.55352283906347"><ele>397.0</ele><time>2026-04-26T10:43:50.881Z</time></trkpt><trkpt lat="43.51307696224036" lon="12.55351553038501"><ele>395.0</ele><time>2026-04-26T10:43:51.881Z</time></trkpt><trkpt lat="43.513213639472596" lon="12.553614884756891"><ele>393.0</ele><time>2026-04-26T10:43:53.881Z</time></trkpt><trkpt lat="43.513296865622465" lon="12.553714420094789"><ele>391.0</ele><time>2026-04-26T10:43:54.881Z</time></trkpt><trkpt lat="43.513396635905224" lon="12.553799630483221"><ele>389.0</ele><time>2026-04-26T10:43:55.881Z</time></trkpt><trkpt lat="43.513485368743105" lon="12.553868155477234"><ele>389.0</ele><time>2026-04-26T10:43:56.881Z</time></trkpt><trkpt lat="43.513575722824406" lon="12.55392861610756"><ele>389.0</ele><time>2026-04-26T10:43:57.881Z</time></trkpt><trkpt lat="43.51363721336644" lon="12.553993041039625"><ele>389.0</ele><time>2026-04-26T10:43:58.881Z</time></trkpt><trkpt lat="43.513725747873174" lon="12.554102477130037"><ele>389.0</ele><time>2026-04-26T10:44:00.881Z</time></trkpt><trkpt lat="43.51382401702383" lon="12.55420181806331"><ele>389.0</ele><time>2026-04-26T10:44:02.881Z</time></trkpt><trkpt lat="43.513928929312314" lon="12.55427658174712"><ele>388.99999999999994</ele><time>2026-04-26T10:44:04.881Z</time></trkpt><trkpt lat="43.51399880436654" lon="12.55432405109726"><ele>389.0</ele><time>2026-04-26T10:44:05.881Z</time></trkpt><trkpt lat="43.514091111658104" lon="12.554412012361743"><ele>389.0</ele><time>2026-04-26T10:44:07.881Z</time></trkpt><trkpt lat="43.51414335540302" lon="12.554496806270475"><ele>389.0</ele><time>2026-04-26T10:44:09.881Z</time></trkpt><trkpt lat="43.51421825577986" lon="12.554554921677912"><ele>388.99999999999994</ele><time>2026-04-26T10:44:11.881Z</time></trkpt><trkpt lat="43.51430743191482" lon="12.554581271699146"><ele>389.0</ele><time>2026-04-26T10:44:13.881Z</time></trkpt><trkpt lat="43.51436896926357" lon="12.554624835488724"><ele>389.0</ele><time>2026-04-26T10:44:15.881Z</time></trkpt><trkpt lat="43.514427894378734" lon="12.55466867762091"><ele>389.0</ele><time>2026-04-26T10:44:19.881Z</time></trkpt><trkpt lat="43.51448752919823" lon="12.554705098303232"><ele>389.0</ele><time>2026-04-26T10:44:31.88Z</time></trkpt><trkpt lat="43.514557416974355" lon="12.554692693861071"><ele>389.0</ele><time>2026-04-26T10:44:34.88Z</time></trkpt><trkpt lat="43.51462200641248" lon="12.554703189701671"><ele>389.0</ele><time>2026-04-26T10:44:40.881Z</time></trkpt><trkpt lat="43.514694201129295" lon="12.554713603416662"><ele>389.0</ele><time>2026-04-26T10:45:40.88Z</time></trkpt><trkpt lat="43.514627159549605" lon="12.554706292787808"><ele>389.0</ele><time>2026-04-26T10:47:56.875Z</time></trkpt><trkpt lat="43.51469213847375" lon="12.554713359234357"><ele>389.2857142857143</ele><time>2026-04-26T10:48:13.875Z</time></trkpt><trkpt lat="43.51477477067973" lon="12.554723141238526"><ele>389.57142857142856</ele><time>2026-04-26T10:48:21.874Z</time></trkpt><trkpt lat="43.51484229688471" lon="12.554752073277182"><ele>389.85714285714283</ele><time>2026-04-26T10:48:31.874Z</time></trkpt><trkpt lat="43.51487471755297" lon="12.554830951823135"><ele>390.1428571428571</ele><time>2026-04-26T10:48:39.874Z</time></trkpt><trkpt lat="43.51489487363571" lon="12.554916280179208"><ele>390.42857142857144</ele><time>2026-04-26T10:48:47.874Z</time></trkpt><trkpt lat="43.51485260855929" lon="12.554844679302768"><ele>390.71428571428567</ele><time>2026-04-26T10:49:16.873Z</time></trkpt><trkpt lat="43.514836423956964" lon="12.554740817171155"><ele>391.0</ele><time>2026-04-26T10:49:22.873Z</time></trkpt><trkpt lat="43.514796145339524" lon="12.554672385127114"><ele>391.0</ele><time>2026-04-26T10:49:29.872Z</time></trkpt><trkpt lat="43.514840685168046" lon="12.55459179980741"><ele>391.0</ele><time>2026-04-26T10:49:44.872Z</time></trkpt><trkpt lat="43.5148439623257" lon="12.554367124021136"><ele>391.0</ele><time>2026-04-26T10:49:47.872Z</time></trkpt><trkpt lat="43.514861483801155" lon="12.554535777228121"><ele>391.0</ele><time>2026-04-26T10:50:02.776Z</time></trkpt><trkpt lat="43.51490933136555" lon="12.554598851018083"><ele>391.0</ele><time>2026-04-26T10:50:30.871Z</time></trkpt><trkpt lat="43.51487895831444" lon="12.55467775352669"><ele>391.0</ele><time>2026-04-26T10:51:32.867Z</time></trkpt><trkpt lat="43.514802786083706" lon="12.554661364664916"><ele>391.0</ele><time>2026-04-26T10:54:50.894Z</time></trkpt><trkpt lat="43.51495804170876" lon="12.554641237258572"><ele>391.0</ele><time>2026-04-26T10:56:18.891Z</time></trkpt><trkpt lat="43.51486605581905" lon="12.55466671677885"><ele>391.0</ele><time>2026-04-26T10:56:44.89Z</time></trkpt><trkpt lat="43.514905428689424" lon="12.554592245850762"><ele>391.0</ele><time>2026-04-26T11:00:51.884Z</time></trkpt><trkpt lat="43.514829496314285" lon="12.554613043301543"><ele>391.00000000000006</ele><time>2026-04-26T11:01:31.882Z</time></trkpt><trkpt lat="43.51496215642768" lon="12.554660546943706"><ele>391.0</ele><time>2026-04-26T11:02:13.881Z</time></trkpt><trkpt lat="43.51490797728284" lon="12.554717507708723"><ele>391.0</ele><time>2026-04-26T11:02:26.881Z</time></trkpt><trkpt lat="43.51483449461945" lon="12.554765469155516"><ele>391.0</ele><time>2026-04-26T11:02:44.88Z</time></trkpt><trkpt lat="43.5148705602009" lon="12.554684315957036"><ele>391.00000000000006</ele><time>2026-04-26T11:03:51.879Z</time></trkpt><trkpt lat="43.514803682861334" lon="12.554698348257833"><ele>391.0</ele><time>2026-04-26T11:04:27.878Z</time></trkpt><trkpt lat="43.51473478808177" lon="12.554714749902157"><ele>391.0</ele><time>2026-04-26T11:04:40.878Z</time></trkpt><trkpt lat="43.514801452914234" lon="12.554701258472342"><ele>391.0</ele><time>2026-04-26T11:07:06.873Z</time></trkpt><trkpt lat="43.51485250144029" lon="12.554769197466433"><ele>391.0</ele><time>2026-04-26T11:09:33.915Z</time></trkpt><trkpt lat="43.51478244729195" lon="12.554707383870497"><ele>391.0</ele><time>2026-04-26T11:11:51.912Z</time></trkpt><trkpt lat="43.51489234041032" lon="12.55463679076277"><ele>391.0</ele><time>2026-04-26T11:12:57.91Z</time></trkpt><trkpt lat="43.514776974326566" lon="12.55463361850442"><ele>390.99999999999994</ele><time>2026-04-26T11:13:12.91Z</time></trkpt><trkpt lat="43.51471431983923" lon="12.554658512324657"><ele>391.0</ele><time>2026-04-26T11:14:31.909Z</time></trkpt><trkpt lat="43.514791869065064" lon="12.554694230699816"><ele>391.0</ele><time>2026-04-26T11:31:13.917Z</time></trkpt><trkpt lat="43.514883688737996" lon="12.554661109788329"><ele>391.0</ele><time>2026-04-26T11:32:14.916Z</time></trkpt><trkpt lat="43.51481899438906" lon="12.554659246559712"><ele>391.0</ele><time>2026-04-26T11:32:24.916Z</time></trkpt><trkpt lat="43.514755399086724" lon="12.554666089306977"><ele>390.99999999999994</ele><time>2026-04-26T11:32:28.916Z</time></trkpt><trkpt lat="43.51468934796674" lon="12.554681422419902"><ele>391.0</ele><time>2026-04-26T11:32:34.916Z</time></trkpt><trkpt lat="43.51462993025566" lon="12.55471743372159"><ele>391.0</ele><time>2026-04-26T11:35:17.917Z</time></trkpt><trkpt lat="43.51471028812898" lon="12.554690898043212"><ele>391.0</ele><time>2026-04-26T11:36:29.916Z</time></trkpt><trkpt lat="43.51478268931275" lon="12.554687288757918"><ele>391.0</ele><time>2026-04-26T11:36:33.916Z</time></trkpt><trkpt lat="43.51481265940164" lon="12.554563089133106"><ele>391.0</ele><time>2026-04-26T11:36:38.916Z</time></trkpt><trkpt lat="43.51480382944619" lon="12.554386929617761"><ele>391.0</ele><time>2026-04-26T11:36:40.916Z</time></trkpt><trkpt lat="43.514805618052236" lon="12.554282654150082"><ele>392.2857142857143</ele><time>2026-04-26T11:36:41.916Z</time></trkpt><trkpt lat="43.51478044736355" lon="12.554199767044569"><ele>393.57142857142856</ele><time>2026-04-26T11:36:42.916Z</time></trkpt><trkpt lat="43.51479478645535" lon="12.554114429270747"><ele>394.8571428571429</ele><time>2026-04-26T11:36:43.916Z</time></trkpt><trkpt lat="43.5147424152793" lon="12.554021229113316"><ele>396.1428571428571</ele><time>2026-04-26T11:36:44.916Z</time></trkpt><trkpt lat="43.51474448698203" lon="12.55393337550401"><ele>397.42857142857144</ele><time>2026-04-26T11:36:45.916Z</time></trkpt><trkpt lat="43.51473439361172" lon="12.553820975104262"><ele>398.7142857142857</ele><time>2026-04-26T11:36:47.916Z</time></trkpt><trkpt lat="43.51472242328954" lon="12.55370199713373"><ele>400.0</ele><time>2026-04-26T11:36:49.916Z</time></trkpt><trkpt lat="43.51466561507208" lon="12.553570070724687"><ele>398.4</ele><time>2026-04-26T11:36:51.916Z</time></trkpt><trkpt lat="43.514646271097995" lon="12.55348558078539"><ele>396.8</ele><time>2026-04-26T11:36:52.916Z</time></trkpt><trkpt lat="43.5146138001752" lon="12.553346133033422"><ele>395.20000000000005</ele><time>2026-04-26T11:36:53.916Z</time></trkpt><trkpt lat="43.51457053249584" lon="12.553221588629935"><ele>393.6</ele><time>2026-04-26T11:36:54.916Z</time></trkpt><trkpt lat="43.5145373795639" lon="12.553106162360908"><ele>392.0</ele><time>2026-04-26T11:36:55.915Z</time></trkpt><trkpt lat="43.514504596299886" lon="12.552987505905984"><ele>393.20000000000005</ele><time>2026-04-26T11:36:56.915Z</time></trkpt><trkpt lat="43.51447061151362" lon="12.552863080514538"><ele>394.4</ele><time>2026-04-26T11:36:57.915Z</time></trkpt><trkpt lat="43.514429263278515" lon="12.55273941435697"><ele>395.6</ele><time>2026-04-26T11:36:58.915Z</time></trkpt><trkpt lat="43.514373284937726" lon="12.552596037376492"><ele>396.79999999999995</ele><time>2026-04-26T11:36:59.915Z</time></trkpt><trkpt lat="43.51431659873592" lon="12.552458205436345"><ele>398.0</ele><time>2026-04-26T11:37:00.915Z</time></trkpt><trkpt lat="43.51426662783432" lon="12.552336469573756"><ele>397.99999999999994</ele><time>2026-04-26T11:37:01.915Z</time></trkpt><trkpt lat="43.51422696774076" lon="12.552250901379091"><ele>398.0</ele><time>2026-04-26T11:37:02.915Z</time></trkpt><trkpt lat="43.514184337321225" lon="12.552169520758737"><ele>398.0</ele><time>2026-04-26T11:37:03.915Z</time></trkpt><trkpt lat="43.51415170542484" lon="12.55207333652868"><ele>398.0</ele><time>2026-04-26T11:37:04.915Z</time></trkpt><trkpt lat="43.514101149524485" lon="12.551965395919284"><ele>397.99999999999994</ele><time>2026-04-26T11:37:05.915Z</time></trkpt><trkpt lat="43.51406435731071" lon="12.551847732379331"><ele>398.0</ele><time>2026-04-26T11:37:06.915Z</time></trkpt><trkpt lat="43.51404532066327" lon="12.551744277792878"><ele>399.8333333333333</ele><time>2026-04-26T11:37:07.915Z</time></trkpt><trkpt lat="43.51402130999133" lon="12.551643128256949"><ele>401.66666666666663</ele><time>2026-04-26T11:37:08.915Z</time></trkpt><trkpt lat="43.51400172081101" lon="12.55153225843231"><ele>403.5</ele><time>2026-04-26T11:37:09.915Z</time></trkpt><trkpt lat="43.513988735431745" lon="12.551436167447388"><ele>405.33333333333337</ele><time>2026-04-26T11:37:10.915Z</time></trkpt><trkpt lat="43.51396797450849" lon="12.551307540873216"><ele>407.1666666666667</ele><time>2026-04-26T11:37:11.915Z</time></trkpt><trkpt lat="43.513934822297244" lon="12.551175413783136"><ele>409.0</ele><time>2026-04-26T11:37:12.915Z</time></trkpt><trkpt lat="43.513897308757876" lon="12.55104133412786"><ele>410.0</ele><time>2026-04-26T11:37:13.915Z</time></trkpt><trkpt lat="43.51385903708953" lon="12.55088873616926"><ele>411.0</ele><time>2026-04-26T11:37:14.915Z</time></trkpt><trkpt lat="43.51379309684695" lon="12.550738612370864"><ele>412.0</ele><time>2026-04-26T11:37:15.915Z</time></trkpt><trkpt lat="43.51372066724562" lon="12.550582148755234"><ele>413.0</ele><time>2026-04-26T11:37:16.915Z</time></trkpt><trkpt lat="43.51366315229011" lon="12.550434766614604"><ele>413.3333333333333</ele><time>2026-04-26T11:37:17.915Z</time></trkpt><trkpt lat="43.513573960669426" lon="12.550238967167294"><ele>413.66666666666663</ele><time>2026-04-26T11:37:18.915Z</time></trkpt><trkpt lat="43.513442724617" lon="12.550005490965862"><ele>414.0</ele><time>2026-04-26T11:37:19.915Z</time></trkpt><trkpt lat="43.51330649136716" lon="12.549768669244898"><ele>419.0</ele><time>2026-04-26T11:37:20.915Z</time></trkpt><trkpt lat="43.51319363165147" lon="12.549522481438771"><ele>424.0</ele><time>2026-04-26T11:37:21.915Z</time></trkpt><trkpt lat="43.5131236527067" lon="12.549312613422604"><ele>429.0</ele><time>2026-04-26T11:37:22.915Z</time></trkpt><trkpt lat="43.513067502244844" lon="12.549100061337407"><ele>429.0</ele><time>2026-04-26T11:37:23.915Z</time></trkpt><trkpt lat="43.513027588759606" lon="12.548878141610956"><ele>429.0</ele><time>2026-04-26T11:37:24.915Z</time></trkpt><trkpt lat="43.51303659045159" lon="12.548645241754583"><ele>429.0</ele><time>2026-04-26T11:37:25.915Z</time></trkpt><trkpt lat="43.51302254353752" lon="12.548402081059931"><ele>430.0</ele><time>2026-04-26T11:37:26.915Z</time></trkpt><trkpt lat="43.51303250564262" lon="12.548197302381766"><ele>431.0</ele><time>2026-04-26T11:37:27.915Z</time></trkpt><trkpt lat="43.51305344609957" lon="12.548022422377766"><ele>432.0</ele><time>2026-04-26T11:37:28.915Z</time></trkpt><trkpt lat="43.51310465501656" lon="12.547894853290448"><ele>433.0</ele><time>2026-04-26T11:37:29.915Z</time></trkpt><trkpt lat="43.51318973468406" lon="12.547800758253462"><ele>430.0</ele><time>2026-04-26T11:37:30.915Z</time></trkpt><trkpt lat="43.51329365463926" lon="12.54763604228456"><ele>427.0</ele><time>2026-04-26T11:37:31.915Z</time></trkpt><trkpt lat="43.5134610675335" lon="12.547551869027425"><ele>424.0</ele><time>2026-04-26T11:37:32.915Z</time></trkpt><trkpt lat="43.51363366022776" lon="12.54743177097061"><ele>431.6666666666667</ele><time>2026-04-26T11:37:33.915Z</time></trkpt><trkpt lat="43.51380602854065" lon="12.547322119476627"><ele>439.33333333333337</ele><time>2026-04-26T11:37:34.915Z</time></trkpt><trkpt lat="43.513983648743995" lon="12.547195813399636"><ele>447.0</ele><time>2026-04-26T11:37:35.915Z</time></trkpt><trkpt lat="43.51417853648762" lon="12.547056206459722"><ele>445.66666666666663</ele><time>2026-04-26T11:37:36.915Z</time></trkpt><trkpt lat="43.51438646023308" lon="12.546910859221674"><ele>444.3333333333333</ele><time>2026-04-26T11:37:37.915Z</time></trkpt><trkpt lat="43.51456411603066" lon="12.546754643158765"><ele>443.0</ele><time>2026-04-26T11:37:38.915Z</time></trkpt><trkpt lat="43.51470756644797" lon="12.546634938643733"><ele>443.0</ele><time>2026-04-26T11:37:39.915Z</time></trkpt><trkpt lat="43.514812013705004" lon="12.546504433039756"><ele>443.0</ele><time>2026-04-26T11:37:40.915Z</time></trkpt><trkpt lat="43.514878728201886" lon="12.546305361163093"><ele>443.0</ele><time>2026-04-26T11:37:41.915Z</time></trkpt><trkpt lat="43.51489147946891" lon="12.546084705825779"><ele>442.0</ele><time>2026-04-26T11:37:42.915Z</time></trkpt><trkpt lat="43.51496444324062" lon="12.545921907412819"><ele>440.99999999999994</ele><time>2026-04-26T11:37:43.915Z</time></trkpt><trkpt lat="43.51500602875272" lon="12.545804809305993"><ele>439.99999999999994</ele><time>2026-04-26T11:37:44.915Z</time></trkpt><trkpt lat="43.51508031877662" lon="12.545742193543152"><ele>439.0</ele><time>2026-04-26T11:37:45.915Z</time></trkpt><trkpt lat="43.51518829869067" lon="12.545799174243312"><ele>438.0</ele><time>2026-04-26T11:37:46.915Z</time></trkpt><trkpt lat="43.51525696069283" lon="12.545918553886104"><ele>438.0</ele><time>2026-04-26T11:37:47.915Z</time></trkpt><trkpt lat="43.5152541187114" lon="12.546086377998714"><ele>438.0</ele><time>2026-04-26T11:37:48.915Z</time></trkpt><trkpt lat="43.51528206820795" lon="12.54629282139022"><ele>438.0</ele><time>2026-04-26T11:37:49.915Z</time></trkpt><trkpt lat="43.51532037931293" lon="12.546517869000121"><ele>438.0</ele><time>2026-04-26T11:37:50.915Z</time></trkpt><trkpt lat="43.515387612731956" lon="12.546677009784407"><ele>440.5</ele><time>2026-04-26T11:37:51.915Z</time></trkpt><trkpt lat="43.51544536515313" lon="12.546813045600484"><ele>443.0</ele><time>2026-04-26T11:37:52.915Z</time></trkpt><trkpt lat="43.51553477865549" lon="12.546905846049523"><ele>445.5</ele><time>2026-04-26T11:37:53.915Z</time></trkpt><trkpt lat="43.51563551567184" lon="12.546961618537843"><ele>448.0</ele><time>2026-04-26T11:37:54.915Z</time></trkpt><trkpt lat="43.51575784261648" lon="12.546953913074082"><ele>448.0</ele><time>2026-04-26T11:37:55.915Z</time></trkpt><trkpt lat="43.5158975111747" lon="12.546876645383856"><ele>448.0</ele><time>2026-04-26T11:37:56.915Z</time></trkpt><trkpt lat="43.51603247957018" lon="12.546769273292888"><ele>448.0</ele><time>2026-04-26T11:37:57.915Z</time></trkpt><trkpt lat="43.5161162917462" lon="12.546574291171348"><ele>448.0</ele><time>2026-04-26T11:37:58.915Z</time></trkpt><trkpt lat="43.51621541721004" lon="12.546367032357933"><ele>448.0</ele><time>2026-04-26T11:37:59.915Z</time></trkpt><trkpt lat="43.51629402811976" lon="12.54612611867805"><ele>448.0</ele><time>2026-04-26T11:38:00.915Z</time></trkpt><trkpt lat="43.516385404440726" lon="12.545901251887885"><ele>449.0</ele><time>2026-04-26T11:38:01.915Z</time></trkpt><trkpt lat="43.516482882895524" lon="12.545669477798485"><ele>450.0</ele><time>2026-04-26T11:38:02.915Z</time></trkpt><trkpt lat="43.51658676304964" lon="12.545440395808356"><ele>451.0</ele><time>2026-04-26T11:38:03.915Z</time></trkpt><trkpt lat="43.516707658603806" lon="12.5452180707799"><ele>451.0</ele><time>2026-04-26T11:38:04.915Z</time></trkpt><trkpt lat="43.51680454960669" lon="12.545058483429296"><ele>451.0</ele><time>2026-04-26T11:38:05.915Z</time></trkpt><trkpt lat="43.51692265738093" lon="12.544962390248594"><ele>451.0</ele><time>2026-04-26T11:38:06.914Z</time></trkpt><trkpt lat="43.51704895755059" lon="12.54490256473318"><ele>451.0</ele><time>2026-04-26T11:38:07.914Z</time></trkpt><trkpt lat="43.51718236323825" lon="12.544948979042612"><ele>457.0</ele><time>2026-04-26T11:38:08.914Z</time></trkpt><trkpt lat="43.51733694454119" lon="12.54495734983852"><ele>463.0</ele><time>2026-04-26T11:38:09.914Z</time></trkpt><trkpt lat="43.5175214675759" lon="12.544961941208392"><ele>469.0</ele><time>2026-04-26T11:38:10.914Z</time></trkpt><trkpt lat="43.517691945434635" lon="12.544976186334432"><ele>469.0</ele><time>2026-04-26T11:38:11.914Z</time></trkpt><trkpt lat="43.5178421266956" lon="12.54499238042403"><ele>469.0</ele><time>2026-04-26T11:38:12.914Z</time></trkpt><trkpt lat="43.51794324095993" lon="12.544919228215061"><ele>469.0</ele><time>2026-04-26T11:38:13.914Z</time></trkpt><trkpt lat="43.51802386499357" lon="12.544815470774312"><ele>469.0</ele><time>2026-04-26T11:38:14.914Z</time></trkpt><trkpt lat="43.518053503501214" lon="12.544675241761874"><ele>466.0</ele><time>2026-04-26T11:38:15.914Z</time></trkpt><trkpt lat="43.51804513940902" lon="12.544438555591041"><ele>463.0</ele><time>2026-04-26T11:38:16.914Z</time></trkpt><trkpt lat="43.51795956544536" lon="12.544242426116508"><ele>460.0</ele><time>2026-04-26T11:38:17.914Z</time></trkpt><trkpt lat="43.51787538264779" lon="12.543997116742766"><ele>460.0</ele><time>2026-04-26T11:38:18.914Z</time></trkpt><trkpt lat="43.51776577136861" lon="12.54378197213072"><ele>460.0</ele><time>2026-04-26T11:38:19.914Z</time></trkpt><trkpt lat="43.51767343751989" lon="12.543535610939566"><ele>460.0</ele><time>2026-04-26T11:38:20.914Z</time></trkpt><trkpt lat="43.51760050909141" lon="12.543281719598548"><ele>460.25</ele><time>2026-04-26T11:38:21.914Z</time></trkpt><trkpt lat="43.51754330515201" lon="12.543068195105223"><ele>460.5</ele><time>2026-04-26T11:38:22.914Z</time></trkpt><trkpt lat="43.517550424481044" lon="12.542897515232838"><ele>460.75</ele><time>2026-04-26T11:38:23.914Z</time></trkpt><trkpt lat="43.517616567507936" lon="12.542766978575855"><ele>461.0</ele><time>2026-04-26T11:38:24.914Z</time></trkpt><trkpt lat="43.517710611197884" lon="12.542607276042206"><ele>461.0</ele><time>2026-04-26T11:38:25.914Z</time></trkpt><trkpt lat="43.51784390148573" lon="12.542385934748166"><ele>461.0</ele><time>2026-04-26T11:38:26.914Z</time></trkpt><trkpt lat="43.51797338869136" lon="12.542158370969839"><ele>461.0</ele><time>2026-04-26T11:38:27.914Z</time></trkpt><trkpt lat="43.51810315524124" lon="12.541904231936131"><ele>474.5</ele><time>2026-04-26T11:38:28.914Z</time></trkpt><trkpt lat="43.51825952396628" lon="12.541637408630745"><ele>488.0</ele><time>2026-04-26T11:38:29.914Z</time></trkpt><trkpt lat="43.51840947037378" lon="12.541336183010248"><ele>482.5</ele><time>2026-04-26T11:38:30.914Z</time></trkpt><trkpt lat="43.518545352979814" lon="12.541024601662166"><ele>477.0</ele><time>2026-04-26T11:38:31.914Z</time></trkpt><trkpt lat="43.518656547724966" lon="12.540708596069523"><ele>491.0</ele><time>2026-04-26T11:38:32.914Z</time></trkpt><trkpt lat="43.51875057499237" lon="12.540394694340112"><ele>505.0</ele><time>2026-04-26T11:38:33.914Z</time></trkpt><trkpt lat="43.5188320706702" lon="12.540093881541312"><ele>505.0</ele><time>2026-04-26T11:38:34.914Z</time></trkpt><trkpt lat="43.5188780801054" lon="12.5398439961534"><ele>505.0</ele><time>2026-04-26T11:38:35.914Z</time></trkpt><trkpt lat="43.51889656750134" lon="12.539650810413407"><ele>505.0</ele><time>2026-04-26T11:38:36.914Z</time></trkpt><trkpt lat="43.518939033548754" lon="12.539495201207608"><ele>505.0</ele><time>2026-04-26T11:38:37.914Z</time></trkpt><trkpt lat="43.51900324954761" lon="12.539373796514049"><ele>498.5</ele><time>2026-04-26T11:38:38.914Z</time></trkpt><trkpt lat="43.51910070612409" lon="12.539308263594313"><ele>492.0</ele><time>2026-04-26T11:38:39.914Z</time></trkpt><trkpt lat="43.51923880346258" lon="12.539280561311758"><ele>485.5</ele><time>2026-04-26T11:38:40.914Z</time></trkpt><trkpt lat="43.519405239176685" lon="12.53928015262087"><ele>479.0</ele><time>2026-04-26T11:38:41.914Z</time></trkpt><trkpt lat="43.51956430436465" lon="12.539366883361652"><ele>481.0</ele><time>2026-04-26T11:38:42.914Z</time></trkpt><trkpt lat="43.51965956298539" lon="12.539418683860815"><ele>483.0</ele><time>2026-04-26T11:38:43.914Z</time></trkpt><trkpt lat="43.5196963899308" lon="12.539541968129727"><ele>485.0</ele><time>2026-04-26T11:38:44.914Z</time></trkpt><trkpt lat="43.51976166852207" lon="12.539738670194845"><ele>487.0</ele><time>2026-04-26T11:38:45.914Z</time></trkpt><trkpt lat="43.519834452900795" lon="12.539952096425358"><ele>489.75</ele><time>2026-04-26T11:38:46.914Z</time></trkpt><trkpt lat="43.519917925341936" lon="12.540168936719978"><ele>492.5</ele><time>2026-04-26T11:38:47.914Z</time></trkpt><trkpt lat="43.519991928066574" lon="12.540308202963551"><ele>495.25</ele><time>2026-04-26T11:38:48.914Z</time></trkpt><trkpt lat="43.52011823754732" lon="12.540368686448353"><ele>498.0</ele><time>2026-04-26T11:38:49.914Z</time></trkpt><trkpt lat="43.52027337262553" lon="12.540399222522128"><ele>502.5</ele><time>2026-04-26T11:38:50.914Z</time></trkpt><trkpt lat="43.52043950945648" lon="12.540327990925809"><ele>507.0</ele><time>2026-04-26T11:38:51.914Z</time></trkpt><trkpt lat="43.52054860249503" lon="12.540225425742044"><ele>511.5</ele><time>2026-04-26T11:38:52.914Z</time></trkpt><trkpt lat="43.52060727931271" lon="12.540085769713535"><ele>516.0</ele><time>2026-04-26T11:38:53.914Z</time></trkpt><trkpt lat="43.520635707056066" lon="12.539903533477958"><ele>516.0</ele><time>2026-04-26T11:38:54.914Z</time></trkpt><trkpt lat="43.52063168848198" lon="12.539708389563899"><ele>516.0</ele><time>2026-04-26T11:38:55.914Z</time></trkpt><trkpt lat="43.52062296135714" lon="12.539483654798323"><ele>516.0</ele><time>2026-04-26T11:38:56.914Z</time></trkpt><trkpt lat="43.52061384687536" lon="12.539253512156249"><ele>516.25</ele><time>2026-04-26T11:38:57.914Z</time></trkpt><trkpt lat="43.520610717169156" lon="12.539074018408604"><ele>516.5</ele><time>2026-04-26T11:38:58.914Z</time></trkpt><trkpt lat="43.520625943139414" lon="12.538891520968317"><ele>516.75</ele><time>2026-04-26T11:38:59.914Z</time></trkpt><trkpt lat="43.520695646429736" lon="12.538734573012754"><ele>517.0</ele><time>2026-04-26T11:39:00.914Z</time></trkpt><trkpt lat="43.52080183528223" lon="12.538552121821407"><ele>513.6666666666667</ele><time>2026-04-26T11:39:01.914Z</time></trkpt><trkpt lat="43.52093012242171" lon="12.538338615572542"><ele>510.33333333333337</ele><time>2026-04-26T11:39:02.914Z</time></trkpt><trkpt lat="43.52105225066642" lon="12.538127161969353"><ele>507.0</ele><time>2026-04-26T11:39:03.914Z</time></trkpt><trkpt lat="43.521162252672326" lon="12.537915006453922"><ele>520.0</ele><time>2026-04-26T11:39:04.914Z</time></trkpt><trkpt lat="43.521239999849215" lon="12.53771172463584"><ele>533.0</ele><time>2026-04-26T11:39:05.914Z</time></trkpt><trkpt lat="43.521286177533646" lon="12.537496490366717"><ele>546.0</ele><time>2026-04-26T11:39:06.914Z</time></trkpt><trkpt lat="43.521328268560204" lon="12.537289116733515"><ele>546.0</ele><time>2026-04-26T11:39:07.914Z</time></trkpt><trkpt lat="43.52133541518241" lon="12.537125879510159"><ele>546.0</ele><time>2026-04-26T11:39:08.914Z</time></trkpt><trkpt lat="43.521298826523264" lon="12.53695856249077"><ele>546.0</ele><time>2026-04-26T11:39:09.914Z</time></trkpt><trkpt lat="43.52123615609736" lon="12.536829464190655"><ele>546.0</ele><time>2026-04-26T11:39:10.914Z</time></trkpt><trkpt lat="43.521146999603" lon="12.536742714963419"><ele>539.0</ele><time>2026-04-26T11:39:11.914Z</time></trkpt><trkpt lat="43.52104432109699" lon="12.53667871824916"><ele>532.0</ele><time>2026-04-26T11:39:12.914Z</time></trkpt><trkpt lat="43.52092496267296" lon="12.536646297389078"><ele>525.0</ele><time>2026-04-26T11:39:13.914Z</time></trkpt><trkpt lat="43.52081040944126" lon="12.536628573210272"><ele>518.0</ele><time>2026-04-26T11:39:14.913Z</time></trkpt><trkpt lat="43.52071906153135" lon="12.536602181692883"><ele>511.0</ele><time>2026-04-26T11:39:15.913Z</time></trkpt><trkpt lat="43.52068110467847" lon="12.536467963124167"><ele>511.0</ele><time>2026-04-26T11:39:17.913Z</time></trkpt><trkpt lat="43.5207074286222" lon="12.536378693753539"><ele>511.0</ele><time>2026-04-26T11:39:18.913Z</time></trkpt><trkpt lat="43.5207625782922" lon="12.536286698707093"><ele>511.0</ele><time>2026-04-26T11:39:19.913Z</time></trkpt><trkpt lat="43.52081559965175" lon="12.536185425305986"><ele>511.0</ele><time>2026-04-26T11:39:20.913Z</time></trkpt><trkpt lat="43.520833447772794" lon="12.53604561623057"><ele>511.0</ele><time>2026-04-26T11:39:21.914Z</time></trkpt><trkpt lat="43.520854517046665" lon="12.535904005164605"><ele>510.6666666666667</ele><time>2026-04-26T11:39:22.914Z</time></trkpt><trkpt lat="43.52087629080889" lon="12.53572025998429"><ele>510.33333333333337</ele><time>2026-04-26T11:39:23.913Z</time></trkpt><trkpt lat="43.52087055209169" lon="12.535513173523354"><ele>510.0</ele><time>2026-04-26T11:39:24.914Z</time></trkpt><trkpt lat="43.52087116151106" lon="12.535284114014658"><ele>509.66666666666663</ele><time>2026-04-26T11:39:25.914Z</time></trkpt><trkpt lat="43.52085025159938" lon="12.535007880036515"><ele>509.3333333333333</ele><time>2026-04-26T11:39:26.913Z</time></trkpt><trkpt lat="43.52083787102972" lon="12.534723861152592"><ele>509.0</ele><time>2026-04-26T11:39:27.913Z</time></trkpt><trkpt lat="43.5208335429778" lon="12.534473913501115"><ele>506.3333333333333</ele><time>2026-04-26T11:39:28.913Z</time></trkpt><trkpt lat="43.52084631439131" lon="12.534235809208369"><ele>503.66666666666663</ele><time>2026-04-26T11:39:29.913Z</time></trkpt><trkpt lat="43.52091540700705" lon="12.534024632078664"><ele>501.0</ele><time>2026-04-26T11:39:30.913Z</time></trkpt><trkpt lat="43.52100857030921" lon="12.533786365473766"><ele>495.0</ele><time>2026-04-26T11:39:31.913Z</time></trkpt><trkpt lat="43.52111505479012" lon="12.53349522919068"><ele>489.0</ele><time>2026-04-26T11:39:32.913Z</time></trkpt><trkpt lat="43.52123340362603" lon="12.533210756287792"><ele>493.66666666666663</ele><time>2026-04-26T11:39:33.913Z</time></trkpt><trkpt lat="43.521327092973785" lon="12.532952116445918"><ele>498.3333333333333</ele><time>2026-04-26T11:39:34.913Z</time></trkpt><trkpt lat="43.521397180394885" lon="12.532763259516422"><ele>503.0</ele><time>2026-04-26T11:39:35.913Z</time></trkpt><trkpt lat="43.521477872025464" lon="12.532644643883271"><ele>503.0</ele><time>2026-04-26T11:39:36.913Z</time></trkpt><trkpt lat="43.521554054197686" lon="12.532551306144454"><ele>503.0</ele><time>2026-04-26T11:39:37.913Z</time></trkpt><trkpt lat="43.52170235360471" lon="12.532684904518442"><ele>503.0</ele><time>2026-04-26T11:39:38.913Z</time></trkpt><trkpt lat="43.52181240986282" lon="12.532618862521376"><ele>503.0</ele><time>2026-04-26T11:39:39.913Z</time></trkpt><trkpt lat="43.52191228655983" lon="12.532524635916298"><ele>503.0</ele><time>2026-04-26T11:39:40.913Z</time></trkpt><trkpt lat="43.521974143747194" lon="12.532427387472378"><ele>503.0</ele><time>2026-04-26T11:39:41.913Z</time></trkpt><trkpt lat="43.52199899597755" lon="12.53225402209998"><ele>503.0</ele><time>2026-04-26T11:39:42.913Z</time></trkpt><trkpt lat="43.52197810022702" lon="12.532082779137472"><ele>503.0</ele><time>2026-04-26T11:39:43.913Z</time></trkpt><trkpt lat="43.521917398023206" lon="12.531903785935299"><ele>499.3333333333333</ele><time>2026-04-26T11:39:44.913Z</time></trkpt><trkpt lat="43.52184562233612" lon="12.531698480793787"><ele>495.66666666666663</ele><time>2026-04-26T11:39:45.913Z</time></trkpt><trkpt lat="43.52181068823045" lon="12.5314597600006"><ele>492.0</ele><time>2026-04-26T11:39:46.913Z</time></trkpt><trkpt lat="43.52182927852473" lon="12.53126644391409"><ele>489.66666666666663</ele><time>2026-04-26T11:39:47.913Z</time></trkpt><trkpt lat="43.52188783869922" lon="12.531077715316993"><ele>487.3333333333333</ele><time>2026-04-26T11:39:48.913Z</time></trkpt><trkpt lat="43.52199839267114" lon="12.530915752987788"><ele>485.0</ele><time>2026-04-26T11:39:49.913Z</time></trkpt><trkpt lat="43.52210003231288" lon="12.530722343784484"><ele>494.3333333333333</ele><time>2026-04-26T11:39:50.913Z</time></trkpt><trkpt lat="43.52216523819657" lon="12.530493627156643"><ele>503.66666666666663</ele><time>2026-04-26T11:39:51.913Z</time></trkpt><trkpt lat="43.52224275585499" lon="12.53022477815158"><ele>513.0</ele><time>2026-04-26T11:39:52.913Z</time></trkpt><trkpt lat="43.52229086774888" lon="12.529923282943876"><ele>513.0</ele><time>2026-04-26T11:39:53.913Z</time></trkpt><trkpt lat="43.522350621020536" lon="12.529643484195736"><ele>513.0</ele><time>2026-04-26T11:39:54.913Z</time></trkpt><trkpt lat="43.5224266005622" lon="12.529411546938547"><ele>513.0</ele><time>2026-04-26T11:39:55.913Z</time></trkpt><trkpt lat="43.52251687382537" lon="12.529190171856571"><ele>507.33333333333337</ele><time>2026-04-26T11:39:56.913Z</time></trkpt><trkpt lat="43.522640778611624" lon="12.528974845653405"><ele>501.6666666666667</ele><time>2026-04-26T11:39:57.913Z</time></trkpt><trkpt lat="43.52276498156263" lon="12.528742148794894"><ele>496.0</ele><time>2026-04-26T11:39:58.913Z</time></trkpt><trkpt lat="43.52286884479891" lon="12.52852793661892"><ele>505.5</ele><time>2026-04-26T11:39:59.913Z</time></trkpt><trkpt lat="43.52295972062802" lon="12.528252350032531"><ele>515.0</ele><time>2026-04-26T11:40:00.913Z</time></trkpt><trkpt lat="43.523027119903546" lon="12.527925433525036"><ele>510.0</ele><time>2026-04-26T11:40:01.913Z</time></trkpt><trkpt lat="43.52307519096319" lon="12.527562496609807"><ele>505.0</ele><time>2026-04-26T11:40:02.913Z</time></trkpt><trkpt lat="43.523140111841535" lon="12.52720215521902"><ele>502.5</ele><time>2026-04-26T11:40:03.913Z</time></trkpt><trkpt lat="43.52321344594396" lon="12.526843861317966"><ele>500.0</ele><time>2026-04-26T11:40:04.913Z</time></trkpt><trkpt lat="43.523287807493084" lon="12.526457802686812"><ele>497.0</ele><time>2026-04-26T11:40:05.913Z</time></trkpt><trkpt lat="43.523382013024836" lon="12.526046308700932"><ele>494.0</ele><time>2026-04-26T11:40:06.913Z</time></trkpt><trkpt lat="43.523455017598195" lon="12.525640687356852"><ele>491.3333333333333</ele><time>2026-04-26T11:40:07.913Z</time></trkpt><trkpt lat="43.523543220193304" lon="12.525320421666503"><ele>488.66666666666663</ele><time>2026-04-26T11:40:08.913Z</time></trkpt><trkpt lat="43.52363240623281" lon="12.525092914749488"><ele>486.0</ele><time>2026-04-26T11:40:09.913Z</time></trkpt><trkpt lat="43.523731554769604" lon="12.52491121613352"><ele>491.66666666666663</ele><time>2026-04-26T11:40:10.913Z</time></trkpt><trkpt lat="43.52386552756953" lon="12.524727790915284"><ele>497.3333333333333</ele><time>2026-04-26T11:40:11.913Z</time></trkpt><trkpt lat="43.524012398289436" lon="12.524539035905649"><ele>503.0</ele><time>2026-04-26T11:40:12.913Z</time></trkpt><trkpt lat="43.52417700776381" lon="12.524308065546826"><ele>503.0</ele><time>2026-04-26T11:40:13.913Z</time></trkpt><trkpt lat="43.5243122418709" lon="12.52406422644055"><ele>503.0</ele><time>2026-04-26T11:40:14.913Z</time></trkpt><trkpt lat="43.52446052082847" lon="12.523781359436873"><ele>512.5</ele><time>2026-04-26T11:40:15.913Z</time></trkpt><trkpt lat="43.524644713059125" lon="12.523477528654194"><ele>522.0</ele><time>2026-04-26T11:40:16.913Z</time></trkpt><trkpt lat="43.52482243325692" lon="12.523200255636207"><ele>522.0</ele><time>2026-04-26T11:40:17.913Z</time></trkpt><trkpt lat="43.52496232896369" lon="12.522953740890006"><ele>522.0</ele><time>2026-04-26T11:40:18.913Z</time></trkpt><trkpt lat="43.52509698362447" lon="12.522738555329642"><ele>522.0</ele><time>2026-04-26T11:40:19.913Z</time></trkpt><trkpt lat="43.52524428756922" lon="12.522593386464306"><ele>520.3333333333334</ele><time>2026-04-26T11:40:20.913Z</time></trkpt><trkpt lat="43.52536742927854" lon="12.522540117529083"><ele>518.6666666666667</ele><time>2026-04-26T11:40:21.913Z</time></trkpt><trkpt lat="43.52555035770516" lon="12.522463749589262"><ele>517.0</ele><time>2026-04-26T11:40:22.913Z</time></trkpt><trkpt lat="43.525742171587005" lon="12.522394084008015"><ele>517.0</ele><time>2026-04-26T11:40:23.913Z</time></trkpt><trkpt lat="43.52593248739553" lon="12.52232497031097"><ele>517.0</ele><time>2026-04-26T11:40:24.913Z</time></trkpt><trkpt lat="43.52610202090274" lon="12.522248013896665"><ele>517.0</ele><time>2026-04-26T11:40:25.913Z</time></trkpt><trkpt lat="43.52623487408259" lon="12.522151961728351"><ele>518.5</ele><time>2026-04-26T11:40:26.913Z</time></trkpt><trkpt lat="43.52635551853452" lon="12.522086088736897"><ele>520.0</ele><time>2026-04-26T11:40:27.913Z</time></trkpt><trkpt lat="43.5264321664323" lon="12.521975985055692"><ele>521.5</ele><time>2026-04-26T11:40:28.913Z</time></trkpt><trkpt lat="43.52648531948802" lon="12.521860447234864"><ele>523.0</ele><time>2026-04-26T11:40:29.913Z</time></trkpt><trkpt lat="43.52652736660382" lon="12.521712096152893"><ele>523.0</ele><time>2026-04-26T11:40:30.913Z</time></trkpt><trkpt lat="43.526558925578904" lon="12.521508587161408"><ele>523.0</ele><time>2026-04-26T11:40:31.913Z</time></trkpt><trkpt lat="43.5265630677537" lon="12.521277084560344"><ele>523.0</ele><time>2026-04-26T11:40:32.913Z</time></trkpt><trkpt lat="43.526537038338795" lon="12.52103140797731"><ele>518.3333333333334</ele><time>2026-04-26T11:40:33.913Z</time></trkpt><trkpt lat="43.5265032577806" lon="12.520770986187001"><ele>513.6666666666666</ele><time>2026-04-26T11:40:34.913Z</time></trkpt><trkpt lat="43.52647551890992" lon="12.520517070969598"><ele>509.0</ele><time>2026-04-26T11:40:35.913Z</time></trkpt><trkpt lat="43.52646392579155" lon="12.520305067195258"><ele>505.75</ele><time>2026-04-26T11:40:36.913Z</time></trkpt><trkpt lat="43.526454658894785" lon="12.520126970243663"><ele>502.5</ele><time>2026-04-26T11:40:37.913Z</time></trkpt><trkpt lat="43.52655006112303" lon="12.51999588702115"><ele>499.25</ele><time>2026-04-26T11:40:38.913Z</time></trkpt><trkpt lat="43.52666218958059" lon="12.519887631643734"><ele>496.0</ele><time>2026-04-26T11:40:39.913Z</time></trkpt><trkpt lat="43.526789742047406" lon="12.519726255442615"><ele>493.0</ele><time>2026-04-26T11:40:40.913Z</time></trkpt><trkpt lat="43.5269338856524" lon="12.519544841693827"><ele>490.0</ele><time>2026-04-26T11:40:41.913Z</time></trkpt><trkpt lat="43.52708839162608" lon="12.519317643243587"><ele>487.0</ele><time>2026-04-26T11:40:42.913Z</time></trkpt><trkpt lat="43.52722201777177" lon="12.519077991726498"><ele>491.0</ele><time>2026-04-26T11:40:43.913Z</time></trkpt><trkpt lat="43.527318515421314" lon="12.518851043083115"><ele>495.0</ele><time>2026-04-26T11:40:44.913Z</time></trkpt><trkpt lat="43.52736760980074" lon="12.518595212359713"><ele>499.0</ele><time>2026-04-26T11:40:45.913Z</time></trkpt><trkpt lat="43.52743953492197" lon="12.518355514224638"><ele>499.0</ele><time>2026-04-26T11:40:46.913Z</time></trkpt><trkpt lat="43.52752567493192" lon="12.518146326132316"><ele>499.0</ele><time>2026-04-26T11:40:47.912Z</time></trkpt><trkpt lat="43.5276192607347" lon="12.518007067638722"><ele>499.0</ele><time>2026-04-26T11:40:48.912Z</time></trkpt><trkpt lat="43.52775232208972" lon="12.51787752550771"><ele>499.5</ele><time>2026-04-26T11:40:49.912Z</time></trkpt><trkpt lat="43.527928422095485" lon="12.51771860858248"><ele>500.0</ele><time>2026-04-26T11:40:50.912Z</time></trkpt><trkpt lat="43.528141115710746" lon="12.51753210200044"><ele>500.0</ele><time>2026-04-26T11:40:51.912Z</time></trkpt><trkpt lat="43.52835285013896" lon="12.517337045356825"><ele>500.0</ele><time>2026-04-26T11:40:52.912Z</time></trkpt><trkpt lat="43.5285773432922" lon="12.517129517821324"><ele>501.5</ele><time>2026-04-26T11:40:53.912Z</time></trkpt><trkpt lat="43.52883762280422" lon="12.51689384560108"><ele>503.0</ele><time>2026-04-26T11:40:54.912Z</time></trkpt><trkpt lat="43.52906778339339" lon="12.516679821594881"><ele>503.0</ele><time>2026-04-26T11:40:55.912Z</time></trkpt><trkpt lat="43.529279636601004" lon="12.516480706832247"><ele>503.0</ele><time>2026-04-26T11:40:56.912Z</time></trkpt><trkpt lat="43.52944773191869" lon="12.516319877526602"><ele>508.0</ele><time>2026-04-26T11:40:57.912Z</time></trkpt><trkpt lat="43.52961348371139" lon="12.516139507813069"><ele>513.0</ele><time>2026-04-26T11:40:58.912Z</time></trkpt><trkpt lat="43.5297404871049" lon="12.515934126758543"><ele>518.0</ele><time>2026-04-26T11:40:59.912Z</time></trkpt><trkpt lat="43.52983656506049" lon="12.5157115776709"><ele>518.0</ele><time>2026-04-26T11:41:00.912Z</time></trkpt><trkpt lat="43.52993357188158" lon="12.515465609479602"><ele>518.0</ele><time>2026-04-26T11:41:01.912Z</time></trkpt><trkpt lat="43.530033806675824" lon="12.515207870542328"><ele>518.0</ele><time>2026-04-26T11:41:02.912Z</time></trkpt><trkpt lat="43.530111601879526" lon="12.514952327148821"><ele>515.0</ele><time>2026-04-26T11:41:03.912Z</time></trkpt><trkpt lat="43.53014495687589" lon="12.514728327730424"><ele>512.0</ele><time>2026-04-26T11:41:04.912Z</time></trkpt><trkpt lat="43.530114972192116" lon="12.514511406262102"><ele>509.0</ele><time>2026-04-26T11:41:05.912Z</time></trkpt><trkpt lat="43.5300949901467" lon="12.514301311315828"><ele>509.0</ele><time>2026-04-26T11:41:06.912Z</time></trkpt><trkpt lat="43.530091249905716" lon="12.514069600582113"><ele>509.0</ele><time>2026-04-26T11:41:07.912Z</time></trkpt><trkpt lat="43.53012630807001" lon="12.513876017353772"><ele>509.0</ele><time>2026-04-26T11:41:08.912Z</time></trkpt><trkpt lat="43.53019596325889" lon="12.513716097391404"><ele>509.0</ele><time>2026-04-26T11:41:09.912Z</time></trkpt><trkpt lat="43.5302660666875" lon="12.513527924995449"><ele>510.66666666666663</ele><time>2026-04-26T11:41:10.912Z</time></trkpt><trkpt lat="43.53034556304986" lon="12.513313512191528"><ele>512.3333333333334</ele><time>2026-04-26T11:41:11.912Z</time></trkpt><trkpt lat="43.53043690921347" lon="12.513066280082517"><ele>514.0</ele><time>2026-04-26T11:41:12.912Z</time></trkpt><trkpt lat="43.53053323268856" lon="12.512805583902995"><ele>514.0</ele><time>2026-04-26T11:41:13.912Z</time></trkpt><trkpt lat="43.530631752519" lon="12.512539488281377"><ele>514.0</ele><time>2026-04-26T11:41:14.912Z</time></trkpt><trkpt lat="43.53072353185127" lon="12.512283606934853"><ele>514.0</ele><time>2026-04-26T11:41:15.912Z</time></trkpt><trkpt lat="43.53083022731814" lon="12.512005411845522"><ele>520.3333333333334</ele><time>2026-04-26T11:41:16.912Z</time></trkpt><trkpt lat="43.53094079715699" lon="12.511748120911175"><ele>526.6666666666666</ele><time>2026-04-26T11:41:17.912Z</time></trkpt><trkpt lat="43.531067480279134" lon="12.5115686017451"><ele>533.0</ele><time>2026-04-26T11:41:18.912Z</time></trkpt><trkpt lat="43.53119805047678" lon="12.511438280045798"><ele>531.3333333333333</ele><time>2026-04-26T11:41:19.912Z</time></trkpt><trkpt lat="43.53134639390907" lon="12.511307750372557"><ele>529.6666666666666</ele><time>2026-04-26T11:41:20.912Z</time></trkpt><trkpt lat="43.53153127180402" lon="12.511208111130893"><ele>528.0</ele><time>2026-04-26T11:41:21.913Z</time></trkpt><trkpt lat="43.53173788324038" lon="12.51110857517176"><ele>528.0</ele><time>2026-04-26T11:41:22.913Z</time></trkpt><trkpt lat="43.53189690649983" lon="12.510980698367689"><ele>528.0</ele><time>2026-04-26T11:41:23.912Z</time></trkpt><trkpt lat="43.53202990952103" lon="12.51085576007523"><ele>528.0</ele><time>2026-04-26T11:41:24.912Z</time></trkpt><trkpt lat="43.5321576116326" lon="12.510657764086405"><ele>529.0</ele><time>2026-04-26T11:41:25.912Z</time></trkpt><trkpt lat="43.53228967928998" lon="12.510404197001634"><ele>530.0</ele><time>2026-04-26T11:41:26.912Z</time></trkpt><trkpt lat="43.532459032278" lon="12.510174535665094"><ele>530.0</ele><time>2026-04-26T11:41:27.912Z</time></trkpt><trkpt lat="43.53265903691188" lon="12.509983885859745"><ele>530.0</ele><time>2026-04-26T11:41:28.912Z</time></trkpt><trkpt lat="43.532840219648136" lon="12.509785037963965"><ele>530.3333333333333</ele><time>2026-04-26T11:41:29.912Z</time></trkpt><trkpt lat="43.53296790750687" lon="12.50959426181657"><ele>530.6666666666666</ele><time>2026-04-26T11:41:30.912Z</time></trkpt><trkpt lat="43.53306171490465" lon="12.509413694195173"><ele>531.0</ele><time>2026-04-26T11:41:31.912Z</time></trkpt><trkpt lat="43.53313865799011" lon="12.509200455241778"><ele>531.0</ele><time>2026-04-26T11:41:32.912Z</time></trkpt><trkpt lat="43.53322447738301" lon="12.508963723359313"><ele>531.0</ele><time>2026-04-26T11:41:33.912Z</time></trkpt><trkpt lat="43.533328744988005" lon="12.508684173488785"><ele>531.0</ele><time>2026-04-26T11:41:34.912Z</time></trkpt><trkpt lat="43.533417960529015" lon="12.508451213846053"><ele>532.75</ele><time>2026-04-26T11:41:35.912Z</time></trkpt><trkpt lat="43.53347537078293" lon="12.508234855048794"><ele>534.5</ele><time>2026-04-26T11:41:36.912Z</time></trkpt><trkpt lat="43.533548843559245" lon="12.508080840761572"><ele>536.25</ele><time>2026-04-26T11:41:37.912Z</time></trkpt><trkpt lat="43.53361757247304" lon="12.507970111099427"><ele>538.0</ele><time>2026-04-26T11:41:38.912Z</time></trkpt><trkpt lat="43.53368689288757" lon="12.50795621291109"><ele>536.5</ele><time>2026-04-26T11:41:39.912Z</time></trkpt><trkpt lat="43.53382013042722" lon="12.508048727533032"><ele>535.0</ele><time>2026-04-26T11:41:41.912Z</time></trkpt><trkpt lat="43.53393612592455" lon="12.508068004869383"><ele>533.5</ele><time>2026-04-26T11:41:42.912Z</time></trkpt><trkpt lat="43.534065877713985" lon="12.508069550852447"><ele>532.0</ele><time>2026-04-26T11:41:43.912Z</time></trkpt><trkpt lat="43.53415544383313" lon="12.50801539888805"><ele>532.0</ele><time>2026-04-26T11:41:44.912Z</time></trkpt><trkpt lat="43.534216987909275" lon="12.507979973676893"><ele>532.0</ele><time>2026-04-26T11:41:45.912Z</time></trkpt><trkpt lat="43.53429320677576" lon="12.50782568871079"><ele>532.0</ele><time>2026-04-26T11:41:47.912Z</time></trkpt><trkpt lat="43.53431675119177" lon="12.507683476763425"><ele>532.0</ele><time>2026-04-26T11:41:48.912Z</time></trkpt><trkpt lat="43.534326581848084" lon="12.507541059648489"><ele>532.0</ele><time>2026-04-26T11:41:49.912Z</time></trkpt><trkpt lat="43.53433856374442" lon="12.507392385488393"><ele>532.8000000000001</ele><time>2026-04-26T11:41:50.912Z</time></trkpt><trkpt lat="43.53436442512635" lon="12.507253837923473"><ele>533.6</ele><time>2026-04-26T11:41:51.912Z</time></trkpt><trkpt lat="43.53441771438423" lon="12.507136027591484"><ele>534.4000000000001</ele><time>2026-04-26T11:41:52.912Z</time></trkpt><trkpt lat="43.53446805172578" lon="12.507030066403676"><ele>535.2</ele><time>2026-04-26T11:41:53.912Z</time></trkpt><trkpt lat="43.53451008463075" lon="12.506959634586847"><ele>536.0</ele><time>2026-04-26T11:41:54.912Z</time></trkpt><trkpt lat="43.53465181304405" lon="12.507014323145283"><ele>536.0</ele><time>2026-04-26T11:41:56.912Z</time></trkpt><trkpt lat="43.53467464742247" lon="12.507107097546234"><ele>536.0</ele><time>2026-04-26T11:41:57.912Z</time></trkpt><trkpt lat="43.534619995065746" lon="12.507296285529659"><ele>536.0</ele><time>2026-04-26T11:41:59.912Z</time></trkpt><trkpt lat="43.5345555307125" lon="12.50737656562236"><ele>536.0</ele><time>2026-04-26T11:42:00.912Z</time></trkpt><trkpt lat="43.53449708240166" lon="12.50750295011744"><ele>536.0</ele><time>2026-04-26T11:42:01.912Z</time></trkpt><trkpt lat="43.53447517928274" lon="12.507672267738556"><ele>536.0</ele><time>2026-04-26T11:42:02.912Z</time></trkpt><trkpt lat="43.534487756746934" lon="12.507848817364987"><ele>536.0</ele><time>2026-04-26T11:42:03.912Z</time></trkpt><trkpt lat="43.53453307033383" lon="12.5080282241077"><ele>536.0</ele><time>2026-04-26T11:42:04.912Z</time></trkpt><trkpt lat="43.53457528192127" lon="12.508169273729594"><ele>536.0</ele><time>2026-04-26T11:42:05.912Z</time></trkpt><trkpt lat="43.5346800846238" lon="12.508238834591534"><ele>542.5</ele><time>2026-04-26T11:42:06.912Z</time></trkpt><trkpt lat="43.534807972843026" lon="12.508250207881533"><ele>549.0</ele><time>2026-04-26T11:42:07.912Z</time></trkpt><trkpt lat="43.5348978076408" lon="12.508154856097345"><ele>555.5</ele><time>2026-04-26T11:42:08.912Z</time></trkpt><trkpt lat="43.534973020733055" lon="12.50804810865572"><ele>562.0</ele><time>2026-04-26T11:42:09.912Z</time></trkpt><trkpt lat="43.53498436951285" lon="12.507892068295781"><ele>562.0</ele><time>2026-04-26T11:42:10.912Z</time></trkpt><trkpt lat="43.534989256190066" lon="12.507697831359115"><ele>562.0</ele><time>2026-04-26T11:42:11.912Z</time></trkpt><trkpt lat="43.5349974691972" lon="12.507498674356702"><ele>562.0</ele><time>2026-04-26T11:42:12.912Z</time></trkpt><trkpt lat="43.53494001640363" lon="12.507316493327332"><ele>562.0</ele><time>2026-04-26T11:42:13.912Z</time></trkpt><trkpt lat="43.53492138278391" lon="12.50711993324568"><ele>561.3333333333334</ele><time>2026-04-26T11:42:14.912Z</time></trkpt><trkpt lat="43.534943457629666" lon="12.506940999868933"><ele>560.6666666666666</ele><time>2026-04-26T11:42:15.912Z</time></trkpt><trkpt lat="43.53501494695136" lon="12.506792955996056"><ele>560.0</ele><time>2026-04-26T11:42:16.912Z</time></trkpt><trkpt lat="43.53515158853136" lon="12.506596517690488"><ele>560.0</ele><time>2026-04-26T11:42:17.912Z</time></trkpt><trkpt lat="43.53526240611153" lon="12.50634391338156"><ele>560.0</ele><time>2026-04-26T11:42:18.912Z</time></trkpt><trkpt lat="43.53535847663884" lon="12.506101454557948"><ele>560.0</ele><time>2026-04-26T11:42:19.912Z</time></trkpt><trkpt lat="43.53543654576138" lon="12.5058381469164"><ele>576.0</ele><time>2026-04-26T11:42:20.912Z</time></trkpt><trkpt lat="43.53548219939972" lon="12.505536470785191"><ele>592.0</ele><time>2026-04-26T11:42:21.912Z</time></trkpt><trkpt lat="43.5355049035677" lon="12.505210338189338"><ele>592.0</ele><time>2026-04-26T11:42:22.912Z</time></trkpt><trkpt lat="43.535497594112215" lon="12.504878157282295"><ele>592.0</ele><time>2026-04-26T11:42:23.912Z</time></trkpt><trkpt lat="43.53550455177284" lon="12.50459023684688"><ele>589.6666666666667</ele><time>2026-04-26T11:42:24.912Z</time></trkpt><trkpt lat="43.535530045325764" lon="12.504354582888434"><ele>587.3333333333334</ele><time>2026-04-26T11:42:25.912Z</time></trkpt><trkpt lat="43.535593515395504" lon="12.504098772586646"><ele>585.0</ele><time>2026-04-26T11:42:26.912Z</time></trkpt><trkpt lat="43.53564357235018" lon="12.503830084302463"><ele>583.6</ele><time>2026-04-26T11:42:27.912Z</time></trkpt><trkpt lat="43.53569991603331" lon="12.50363015893474"><ele>582.2</ele><time>2026-04-26T11:42:28.912Z</time></trkpt><trkpt lat="43.535763431548965" lon="12.503506075498715"><ele>580.8</ele><time>2026-04-26T11:42:29.912Z</time></trkpt><trkpt lat="43.53583054933497" lon="12.503435117445978"><ele>579.4</ele><time>2026-04-26T11:42:30.912Z</time></trkpt><trkpt lat="43.53592662414412" lon="12.503458775684505"><ele>578.0</ele><time>2026-04-26T11:42:31.912Z</time></trkpt><trkpt lat="43.53600215111458" lon="12.503536185322542"><ele>578.0</ele><time>2026-04-26T11:42:32.912Z</time></trkpt><trkpt lat="43.53603859171116" lon="12.503665290861798"><ele>578.0</ele><time>2026-04-26T11:42:33.912Z</time></trkpt><trkpt lat="43.53603163210839" lon="12.503822060813194"><ele>578.0</ele><time>2026-04-26T11:42:34.912Z</time></trkpt><trkpt lat="43.53596298075575" lon="12.504000997572444"><ele>578.0</ele><time>2026-04-26T11:42:35.912Z</time></trkpt><trkpt lat="43.535874215828244" lon="12.504215135133505"><ele>580.3333333333333</ele><time>2026-04-26T11:42:36.912Z</time></trkpt><trkpt lat="43.53579678946565" lon="12.504454391199465"><ele>582.6666666666666</ele><time>2026-04-26T11:42:37.912Z</time></trkpt><trkpt lat="43.53574849789227" lon="12.504676847043802"><ele>585.0</ele><time>2026-04-26T11:42:38.912Z</time></trkpt><trkpt lat="43.53570858525022" lon="12.504911358358221"><ele>587.3333333333334</ele><time>2026-04-26T11:42:39.912Z</time></trkpt><trkpt lat="43.5357069228366" lon="12.50518113910414"><ele>589.6666666666667</ele><time>2026-04-26T11:42:40.912Z</time></trkpt><trkpt lat="43.535715074871504" lon="12.505464551090087"><ele>592.0</ele><time>2026-04-26T11:42:41.912Z</time></trkpt><trkpt lat="43.53573835604552" lon="12.505746006519418"><ele>592.75</ele><time>2026-04-26T11:42:42.912Z</time></trkpt><trkpt lat="43.535683855370834" lon="12.505946516943645"><ele>593.5</ele><time>2026-04-26T11:42:43.912Z</time></trkpt><trkpt lat="43.5356288504215" lon="12.506116183715324"><ele>594.25</ele><time>2026-04-26T11:42:44.912Z</time></trkpt><trkpt lat="43.5356031077595" lon="12.506243021611153"><ele>595.0</ele><time>2026-04-26T11:42:45.912Z</time></trkpt><trkpt lat="43.53557412064468" lon="12.50635542069859"><ele>596.6</ele><time>2026-04-26T11:42:46.912Z</time></trkpt><trkpt lat="43.535608268063285" lon="12.50644825862334"><ele>598.2</ele><time>2026-04-26T11:42:47.912Z</time></trkpt><trkpt lat="43.535698849639736" lon="12.506494011407904"><ele>599.8</ele><time>2026-04-26T11:42:48.912Z</time></trkpt><trkpt lat="43.53581076739245" lon="12.506487859008532"><ele>601.4</ele><time>2026-04-26T11:42:49.912Z</time></trkpt><trkpt lat="43.535921878145864" lon="12.506430267660992"><ele>603.0</ele><time>2026-04-26T11:42:50.912Z</time></trkpt><trkpt lat="43.53601663223467" lon="12.506248621202241"><ele>600.3333333333334</ele><time>2026-04-26T11:42:51.912Z</time></trkpt><trkpt lat="43.53606938154028" lon="12.50603866122288"><ele>597.6666666666667</ele><time>2026-04-26T11:42:52.912Z</time></trkpt><trkpt lat="43.53607356968886" lon="12.505798743865475"><ele>595.0</ele><time>2026-04-26T11:42:53.911Z</time></trkpt><trkpt lat="43.536060289704594" lon="12.505557131627018"><ele>594.0</ele><time>2026-04-26T11:42:54.911Z</time></trkpt><trkpt lat="43.53602600330451" lon="12.505313748252954"><ele>593.0</ele><time>2026-04-26T11:42:55.911Z</time></trkpt><trkpt lat="43.536003305979044" lon="12.505080121825257"><ele>592.0</ele><time>2026-04-26T11:42:56.911Z</time></trkpt><trkpt lat="43.53607174048027" lon="12.50491282890871"><ele>592.0</ele><time>2026-04-26T11:42:57.911Z</time></trkpt><trkpt lat="43.536173808105296" lon="12.504720614400782"><ele>592.0</ele><time>2026-04-26T11:42:58.911Z</time></trkpt><trkpt lat="43.536302362291146" lon="12.504461157400229"><ele>592.0</ele><time>2026-04-26T11:42:59.911Z</time></trkpt><trkpt lat="43.53644489032254" lon="12.504191115256532"><ele>598.3333333333334</ele><time>2026-04-26T11:43:00.911Z</time></trkpt><trkpt lat="43.536605086884244" lon="12.503956801164637"><ele>604.6666666666666</ele><time>2026-04-26T11:43:01.911Z</time></trkpt><trkpt lat="43.53677134407519" lon="12.503811674047826"><ele>611.0</ele><time>2026-04-26T11:43:02.911Z</time></trkpt><trkpt lat="43.53694630067695" lon="12.503678971084037"><ele>623.6666666666666</ele><time>2026-04-26T11:43:03.911Z</time></trkpt><trkpt lat="43.537070116575634" lon="12.503545740690448"><ele>636.3333333333334</ele><time>2026-04-26T11:43:04.911Z</time></trkpt><trkpt lat="43.53715308255015" lon="12.503355449878994"><ele>649.0</ele><time>2026-04-26T11:43:05.911Z</time></trkpt><trkpt lat="43.53722598745331" lon="12.503170870520947"><ele>649.0</ele><time>2026-04-26T11:43:06.911Z</time></trkpt><trkpt lat="43.53728066356081" lon="12.502932869837863"><ele>649.0</ele><time>2026-04-26T11:43:07.911Z</time></trkpt><trkpt lat="43.53732896034286" lon="12.502653136750498"><ele>649.0</ele><time>2026-04-26T11:43:08.911Z</time></trkpt><trkpt lat="43.537390531963105" lon="12.502372383220651"><ele>644.5</ele><time>2026-04-26T11:43:09.911Z</time></trkpt><trkpt lat="43.53750726656046" lon="12.502119467507006"><ele>640.0</ele><time>2026-04-26T11:43:10.911Z</time></trkpt><trkpt lat="43.53762727800513" lon="12.501828518346324"><ele>635.0</ele><time>2026-04-26T11:43:11.911Z</time></trkpt><trkpt lat="43.537766523072854" lon="12.501510171788912"><ele>630.0</ele><time>2026-04-26T11:43:12.911Z</time></trkpt><trkpt lat="43.53790713779374" lon="12.501175491170237"><ele>640.5</ele><time>2026-04-26T11:43:13.911Z</time></trkpt><trkpt lat="43.53804406858117" lon="12.500880433228552"><ele>651.0</ele><time>2026-04-26T11:43:14.911Z</time></trkpt><trkpt lat="43.53818167771486" lon="12.50053409230039"><ele>648.0</ele><time>2026-04-26T11:43:15.911Z</time></trkpt><trkpt lat="43.53834435398044" lon="12.500179406045048"><ele>645.0</ele><time>2026-04-26T11:43:16.911Z</time></trkpt><trkpt lat="43.538500844900895" lon="12.499810949317602"><ele>643.0</ele><time>2026-04-26T11:43:17.911Z</time></trkpt><trkpt lat="43.5386343996525" lon="12.499450422718173"><ele>641.0</ele><time>2026-04-26T11:43:18.911Z</time></trkpt><trkpt lat="43.5387519679096" lon="12.499185520917168"><ele>647.5</ele><time>2026-04-26T11:43:19.911Z</time></trkpt><trkpt lat="43.53882656159036" lon="12.498956382911807"><ele>654.0</ele><time>2026-04-26T11:43:20.911Z</time></trkpt><trkpt lat="43.53891516040747" lon="12.498817422673142"><ele>660.5</ele><time>2026-04-26T11:43:21.911Z</time></trkpt><trkpt lat="43.538980760624874" lon="12.498768370227758"><ele>667.0</ele><time>2026-04-26T11:43:22.911Z</time></trkpt><trkpt lat="43.53904643118719" lon="12.498787536083618"><ele>667.0</ele><time>2026-04-26T11:43:23.912Z</time></trkpt><trkpt lat="43.53912188752158" lon="12.498869296151252"><ele>667.0</ele><time>2026-04-26T11:43:24.913Z</time></trkpt><trkpt lat="43.53916216412974" lon="12.498962683767246"><ele>667.0</ele><time>2026-04-26T11:43:25.914Z</time></trkpt><trkpt lat="43.5391668113132" lon="12.499088227188375"><ele>667.0</ele><time>2026-04-26T11:43:26.916Z</time></trkpt><trkpt lat="43.5391079333977" lon="12.49922507966847"><ele>667.0</ele><time>2026-04-26T11:43:27.916Z</time></trkpt><trkpt lat="43.53901959116317" lon="12.499442765900701"><ele>669.6666666666667</ele><time>2026-04-26T11:43:28.917Z</time></trkpt><trkpt lat="43.53894318399258" lon="12.499672765153479"><ele>672.3333333333334</ele><time>2026-04-26T11:43:29.918Z</time></trkpt><trkpt lat="43.53890557891006" lon="12.499942703614973"><ele>675.0</ele><time>2026-04-26T11:43:30.92Z</time></trkpt><trkpt lat="43.53887693250499" lon="12.500282842950417"><ele>680.5</ele><time>2026-04-26T11:43:31.921Z</time></trkpt><trkpt lat="43.53886974419966" lon="12.500658876968934"><ele>686.0</ele><time>2026-04-26T11:43:32.921Z</time></trkpt><trkpt lat="43.538814552362915" lon="12.50097453737009"><ele>676.5</ele><time>2026-04-26T11:43:33.922Z</time></trkpt><trkpt lat="43.53871026992513" lon="12.501235445912588"><ele>667.0</ele><time>2026-04-26T11:43:34.923Z</time></trkpt><trkpt lat="43.538582796766434" lon="12.501532962580995"><ele>667.0</ele><time>2026-04-26T11:43:35.923Z</time></trkpt><trkpt lat="43.53845270425389" lon="12.501847314030872"><ele>667.0</ele><time>2026-04-26T11:43:36.924Z</time></trkpt><trkpt lat="43.53832010255743" lon="12.502167728633685"><ele>672.5</ele><time>2026-04-26T11:43:37.924Z</time></trkpt><trkpt lat="43.53819179002887" lon="12.50247712182858"><ele>678.0</ele><time>2026-04-26T11:43:38.924Z</time></trkpt><trkpt lat="43.53808739219341" lon="12.502721049110962"><ele>679.25</ele><time>2026-04-26T11:43:39.925Z</time></trkpt><trkpt lat="43.5380251747641" lon="12.502959591813813"><ele>680.5</ele><time>2026-04-26T11:43:40.926Z</time></trkpt><trkpt lat="43.5379981148223" lon="12.503165793997143"><ele>681.75</ele><time>2026-04-26T11:43:41.926Z</time></trkpt><trkpt lat="43.53802309661835" lon="12.503289641423747"><ele>683.0</ele><time>2026-04-26T11:43:42.927Z</time></trkpt><trkpt lat="43.53808097362695" lon="12.503423817141337"><ele>683.0</ele><time>2026-04-26T11:43:43.927Z</time></trkpt><trkpt lat="43.53815873964656" lon="12.503620178002906"><ele>683.0</ele><time>2026-04-26T11:43:44.927Z</time></trkpt><trkpt lat="43.5382512988426" lon="12.503862429849157"><ele>683.0</ele><time>2026-04-26T11:43:45.928Z</time></trkpt><trkpt lat="43.53833620801099" lon="12.50405883927053"><ele>682.8</ele><time>2026-04-26T11:43:46.928Z</time></trkpt><trkpt lat="43.53841904860058" lon="12.504177357304055"><ele>682.5999999999999</ele><time>2026-04-26T11:43:47.928Z</time></trkpt><trkpt lat="43.53852488367994" lon="12.504236788549735"><ele>682.4000000000001</ele><time>2026-04-26T11:43:48.928Z</time></trkpt><trkpt lat="43.53862744255262" lon="12.504219518315491"><ele>682.2</ele><time>2026-04-26T11:43:49.929Z</time></trkpt><trkpt lat="43.53868744390524" lon="12.50413456348851"><ele>682.0</ele><time>2026-04-26T11:43:50.929Z</time></trkpt><trkpt lat="43.53875112073703" lon="12.50403249153576"><ele>682.25</ele><time>2026-04-26T11:43:51.929Z</time></trkpt><trkpt lat="43.53876110854662" lon="12.503893433117982"><ele>682.5</ele><time>2026-04-26T11:43:52.929Z</time></trkpt><trkpt lat="43.538725198448866" lon="12.503759730906388"><ele>682.75</ele><time>2026-04-26T11:43:53.929Z</time></trkpt><trkpt lat="43.53863194008464" lon="12.503612920453016"><ele>683.0</ele><time>2026-04-26T11:43:54.93Z</time></trkpt><trkpt lat="43.53851303253032" lon="12.50337328105857"><ele>683.0</ele><time>2026-04-26T11:43:55.93Z</time></trkpt><trkpt lat="43.53841102150951" lon="12.503099345871535"><ele>683.0</ele><time>2026-04-26T11:43:56.93Z</time></trkpt><trkpt lat="43.538416245952305" lon="12.502884217763166"><ele>683.0</ele><time>2026-04-26T11:43:57.93Z</time></trkpt><trkpt lat="43.53847882207471" lon="12.502749977705713"><ele>681.75</ele><time>2026-04-26T11:43:58.93Z</time></trkpt><trkpt lat="43.53856494621007" lon="12.502672248452699"><ele>680.5</ele><time>2026-04-26T11:43:59.93Z</time></trkpt><trkpt lat="43.53868138532716" lon="12.502677675942833"><ele>679.25</ele><time>2026-04-26T11:44:00.93Z</time></trkpt><trkpt lat="43.53877924094799" lon="12.502758778545804"><ele>678.0</ele><time>2026-04-26T11:44:01.931Z</time></trkpt><trkpt lat="43.53884147834764" lon="12.502953505192025"><ele>688.6666666666666</ele><time>2026-04-26T11:44:02.931Z</time></trkpt><trkpt lat="43.538815934170024" lon="12.503234120599062"><ele>699.3333333333333</ele><time>2026-04-26T11:44:03.931Z</time></trkpt><trkpt lat="43.53886554158396" lon="12.503472483284177"><ele>710.0</ele><time>2026-04-26T11:44:04.931Z</time></trkpt><trkpt lat="43.53891892977392" lon="12.50372875510291"><ele>712.25</ele><time>2026-04-26T11:44:05.931Z</time></trkpt><trkpt lat="43.53897915746787" lon="12.503919812980646"><ele>714.5</ele><time>2026-04-26T11:44:06.931Z</time></trkpt><trkpt lat="43.53904549445458" lon="12.504032600382732"><ele>716.75</ele><time>2026-04-26T11:44:07.931Z</time></trkpt><trkpt lat="43.53911006037138" lon="12.504079810592511"><ele>719.0</ele><time>2026-04-26T11:44:08.931Z</time></trkpt><trkpt lat="43.53923434557602" lon="12.504031228475098"><ele>719.0</ele><time>2026-04-26T11:44:09.931Z</time></trkpt><trkpt lat="43.53932249549108" lon="12.503979814606689"><ele>719.0</ele><time>2026-04-26T11:44:10.931Z</time></trkpt><trkpt lat="43.53938061944288" lon="12.503838319396188"><ele>719.0</ele><time>2026-04-26T11:44:11.931Z</time></trkpt><trkpt lat="43.53935976460842" lon="12.50361318989464"><ele>719.0</ele><time>2026-04-26T11:44:12.931Z</time></trkpt><trkpt lat="43.539300688338365" lon="12.503395560707038"><ele>716.0</ele><time>2026-04-26T11:44:13.931Z</time></trkpt><trkpt lat="43.53928200572966" lon="12.503144033699439"><ele>713.0</ele><time>2026-04-26T11:44:14.932Z</time></trkpt><trkpt lat="43.53930520259386" lon="12.502931902250925"><ele>710.0</ele><time>2026-04-26T11:44:15.932Z</time></trkpt><trkpt lat="43.53937780674225" lon="12.502714312879473"><ele>708.6666666666666</ele><time>2026-04-26T11:44:16.932Z</time></trkpt><trkpt lat="43.53945643279419" lon="12.502453517693702"><ele>707.3333333333334</ele><time>2026-04-26T11:44:17.932Z</time></trkpt><trkpt lat="43.539536166568155" lon="12.502223361020969"><ele>706.0</ele><time>2026-04-26T11:44:18.932Z</time></trkpt><trkpt lat="43.539604015013424" lon="12.502032066489459"><ele>712.5</ele><time>2026-04-26T11:44:19.932Z</time></trkpt><trkpt lat="43.53966092653036" lon="12.501869278031972"><ele>719.0</ele><time>2026-04-26T11:44:20.932Z</time></trkpt><trkpt lat="43.539717573266564" lon="12.50171201933695"><ele>725.5</ele><time>2026-04-26T11:44:21.932Z</time></trkpt><trkpt lat="43.5398038332723" lon="12.501530804387663"><ele>732.0</ele><time>2026-04-26T11:44:22.932Z</time></trkpt><trkpt lat="43.53989362498903" lon="12.501321914083817"><ele>728.0</ele><time>2026-04-26T11:44:23.932Z</time></trkpt><trkpt lat="43.53999586974985" lon="12.501110671153414"><ele>724.0</ele><time>2026-04-26T11:44:24.932Z</time></trkpt><trkpt lat="43.540098883567694" lon="12.500881162611146"><ele>720.0</ele><time>2026-04-26T11:44:25.932Z</time></trkpt><trkpt lat="43.540206233332334" lon="12.500638148589788"><ele>715.3333333333334</ele><time>2026-04-26T11:44:26.932Z</time></trkpt><trkpt lat="43.54033254404183" lon="12.500404251590625"><ele>710.6666666666667</ele><time>2026-04-26T11:44:27.932Z</time></trkpt><trkpt lat="43.540447724931" lon="12.500177196057523"><ele>706.0</ele><time>2026-04-26T11:44:28.932Z</time></trkpt><trkpt lat="43.54055164277119" lon="12.499955750536287"><ele>718.3333333333334</ele><time>2026-04-26T11:44:29.932Z</time></trkpt><trkpt lat="43.540647495761284" lon="12.499765758790687"><ele>730.6666666666666</ele><time>2026-04-26T11:44:30.932Z</time></trkpt><trkpt lat="43.54071825240097" lon="12.499572470539945"><ele>743.0</ele><time>2026-04-26T11:44:31.932Z</time></trkpt><trkpt lat="43.5407791480075" lon="12.49935358976278"><ele>743.0</ele><time>2026-04-26T11:44:32.932Z</time></trkpt><trkpt lat="43.540816131410764" lon="12.499103078783403"><ele>743.0</ele><time>2026-04-26T11:44:33.932Z</time></trkpt><trkpt lat="43.54082891003125" lon="12.498819694758277"><ele>743.0</ele><time>2026-04-26T11:44:34.932Z</time></trkpt><trkpt lat="43.540841454303084" lon="12.498512965650892"><ele>743.3333333333333</ele><time>2026-04-26T11:44:35.932Z</time></trkpt><trkpt lat="43.540871164140306" lon="12.498229459370323"><ele>743.6666666666666</ele><time>2026-04-26T11:44:36.932Z</time></trkpt><trkpt lat="43.54090110008678" lon="12.497974892476627"><ele>744.0</ele><time>2026-04-26T11:44:37.932Z</time></trkpt><trkpt lat="43.540931116235406" lon="12.497761903162857"><ele>743.5</ele><time>2026-04-26T11:44:38.932Z</time></trkpt><trkpt lat="43.54095939587972" lon="12.497578220873603"><ele>743.0</ele><time>2026-04-26T11:44:39.932Z</time></trkpt><trkpt lat="43.54103334848335" lon="12.497443349529567"><ele>742.5</ele><time>2026-04-26T11:44:40.932Z</time></trkpt><trkpt lat="43.541112122769036" lon="12.497337945980156"><ele>742.0</ele><time>2026-04-26T11:44:41.932Z</time></trkpt><trkpt lat="43.5412148982385" lon="12.497272109782749"><ele>744.6666666666667</ele><time>2026-04-26T11:44:42.932Z</time></trkpt><trkpt lat="43.54134669870131" lon="12.497177976622242"><ele>747.3333333333334</ele><time>2026-04-26T11:44:43.932Z</time></trkpt><trkpt lat="43.54148096131255" lon="12.497080201450904"><ele>750.0</ele><time>2026-04-26T11:44:44.932Z</time></trkpt><trkpt lat="43.54161915287874" lon="12.496973045469156"><ele>750.0</ele><time>2026-04-26T11:44:45.932Z</time></trkpt><trkpt lat="43.54176209480636" lon="12.496858868634726"><ele>750.0</ele><time>2026-04-26T11:44:46.932Z</time></trkpt><trkpt lat="43.541905993545704" lon="12.496735140746315"><ele>750.0</ele><time>2026-04-26T11:44:47.932Z</time></trkpt><trkpt lat="43.542036196500725" lon="12.496572816214345"><ele>750.3333333333334</ele><time>2026-04-26T11:44:48.932Z</time></trkpt><trkpt lat="43.542187955062815" lon="12.496449464247966"><ele>750.6666666666667</ele><time>2026-04-26T11:44:49.932Z</time></trkpt><trkpt lat="43.54232654195634" lon="12.496303294254615"><ele>751.0</ele><time>2026-04-26T11:44:50.932Z</time></trkpt><trkpt lat="43.54247953874822" lon="12.496176762338273"><ele>751.0</ele><time>2026-04-26T11:44:51.932Z</time></trkpt><trkpt lat="43.542615089090006" lon="12.496057388593167"><ele>751.0</ele><time>2026-04-26T11:44:52.932Z</time></trkpt><trkpt lat="43.542722030301576" lon="12.495904679206944"><ele>751.0</ele><time>2026-04-26T11:44:53.932Z</time></trkpt><trkpt lat="43.542812813202936" lon="12.495715132416525"><ele>751.0</ele><time>2026-04-26T11:44:54.932Z</time></trkpt><trkpt lat="43.54287988483079" lon="12.495502709331497"><ele>751.0</ele><time>2026-04-26T11:44:55.932Z</time></trkpt><trkpt lat="43.54288180680396" lon="12.495261965625847"><ele>751.0</ele><time>2026-04-26T11:44:56.932Z</time></trkpt><trkpt lat="43.54288630480957" lon="12.495039390215782"><ele>757.0</ele><time>2026-04-26T11:44:57.932Z</time></trkpt><trkpt lat="43.54291351219645" lon="12.494782344216478"><ele>763.0</ele><time>2026-04-26T11:44:58.932Z</time></trkpt><trkpt lat="43.54295250277052" lon="12.494556971726894"><ele>769.0</ele><time>2026-04-26T11:44:59.932Z</time></trkpt><trkpt lat="43.542987662763935" lon="12.494346327103269"><ele>769.0</ele><time>2026-04-26T11:45:00.932Z</time></trkpt><trkpt lat="43.5430032880921" lon="12.494139612430986"><ele>769.0</ele><time>2026-04-26T11:45:01.932Z</time></trkpt><trkpt lat="43.54301332056054" lon="12.493946247515037"><ele>769.0</ele><time>2026-04-26T11:45:02.932Z</time></trkpt><trkpt lat="43.54301358147909" lon="12.493759155625693"><ele>769.0</ele><time>2026-04-26T11:45:03.932Z</time></trkpt><trkpt lat="43.54297979907639" lon="12.493579001147543"><ele>769.0</ele><time>2026-04-26T11:45:04.932Z</time></trkpt><trkpt lat="43.54294234442151" lon="12.493397565137206"><ele>769.0</ele><time>2026-04-26T11:45:05.932Z</time></trkpt><trkpt lat="43.5429105609234" lon="12.493234045188903"><ele>769.0</ele><time>2026-04-26T11:45:06.932Z</time></trkpt><trkpt lat="43.54288806481276" lon="12.493061620588033"><ele>769.0</ele><time>2026-04-26T11:45:07.932Z</time></trkpt><trkpt lat="43.542935220041024" lon="12.492893882756881"><ele>769.0</ele><time>2026-04-26T11:45:08.932Z</time></trkpt><trkpt lat="43.5429995052865" lon="12.49269645754544"><ele>769.0</ele><time>2026-04-26T11:45:09.932Z</time></trkpt><trkpt lat="43.5430673704171" lon="12.492480601331458"><ele>769.0</ele><time>2026-04-26T11:45:10.932Z</time></trkpt><trkpt lat="43.543139178828696" lon="12.492243255474225"><ele>765.0</ele><time>2026-04-26T11:45:11.932Z</time></trkpt><trkpt lat="43.5432103351365" lon="12.492002968857902"><ele>761.0</ele><time>2026-04-26T11:45:12.932Z</time></trkpt><trkpt lat="43.543291526950064" lon="12.491763272647503"><ele>757.0</ele><time>2026-04-26T11:45:13.932Z</time></trkpt><trkpt lat="43.5433782656403" lon="12.491536675784786"><ele>757.0</ele><time>2026-04-26T11:45:14.932Z</time></trkpt><trkpt lat="43.543451638975355" lon="12.49129098138219"><ele>757.0</ele><time>2026-04-26T11:45:15.932Z</time></trkpt><trkpt lat="43.5435066573975" lon="12.491055781969898"><ele>757.0</ele><time>2026-04-26T11:45:16.932Z</time></trkpt><trkpt lat="43.54360841278232" lon="12.49088578185312"><ele>757.5</ele><time>2026-04-26T11:45:17.932Z</time></trkpt><trkpt lat="43.543704397420534" lon="12.490765944965197"><ele>758.0</ele><time>2026-04-26T11:45:18.932Z</time></trkpt><trkpt lat="43.54380951191847" lon="12.490635646327515"><ele>758.5</ele><time>2026-04-26T11:45:19.932Z</time></trkpt><trkpt lat="43.54389224150819" lon="12.490524530957034"><ele>759.0</ele><time>2026-04-26T11:45:20.932Z</time></trkpt><trkpt lat="43.54396527409792" lon="12.490436049412576"><ele>760.8333333333334</ele><time>2026-04-26T11:45:21.932Z</time></trkpt><trkpt lat="43.54404173993805" lon="12.490355391149192"><ele>762.6666666666667</ele><time>2026-04-26T11:45:22.932Z</time></trkpt><trkpt lat="43.54410501443371" lon="12.490288970082457"><ele>764.5</ele><time>2026-04-26T11:45:23.932Z</time></trkpt><trkpt lat="43.54416937607917" lon="12.490239082844647"><ele>766.3333333333334</ele><time>2026-04-26T11:45:24.932Z</time></trkpt><trkpt lat="43.54423030366207" lon="12.490199167807742"><ele>768.1666666666667</ele><time>2026-04-26T11:45:25.932Z</time></trkpt><trkpt lat="43.544293661648474" lon="12.49016268501679"><ele>770.0</ele><time>2026-04-26T11:45:26.932Z</time></trkpt><trkpt lat="43.54435849432074" lon="12.49012594093535"><ele>770.0000000000001</ele><time>2026-04-26T11:45:27.932Z</time></trkpt><trkpt lat="43.54442338761264" lon="12.490085732337537"><ele>770.0</ele><time>2026-04-26T11:45:28.932Z</time></trkpt><trkpt lat="43.54452952681639" lon="12.49002291472891"><ele>770.0</ele><time>2026-04-26T11:45:30.932Z</time></trkpt><trkpt lat="43.54463504241223" lon="12.48998183598045"><ele>770.0</ele><time>2026-04-26T11:45:32.932Z</time></trkpt><trkpt lat="43.54467911440253" lon="12.489902742813912"><ele>770.0000000000001</ele><time>2026-04-26T11:47:05.931Z</time></trkpt><trkpt lat="43.54473980194095" lon="12.48984782361289"><ele>770.0</ele><time>2026-04-26T11:47:06.931Z</time></trkpt><trkpt lat="43.54482923428549" lon="12.489789518472792"><ele>770.0</ele><time>2026-04-26T11:47:07.931Z</time></trkpt><trkpt lat="43.54494282333394" lon="12.489773482550198"><ele>770.0</ele><time>2026-04-26T11:47:08.931Z</time></trkpt><trkpt lat="43.54504860974834" lon="12.489707294484548"><ele>770.0</ele><time>2026-04-26T11:47:09.931Z</time></trkpt><trkpt lat="43.54515052356181" lon="12.489643841850524"><ele>770.0</ele><time>2026-04-26T11:47:10.931Z</time></trkpt><trkpt lat="43.545246175669014" lon="12.489584287885053"><ele>770.0</ele><time>2026-04-26T11:47:11.931Z</time></trkpt><trkpt lat="43.54534028159351" lon="12.489489427207156"><ele>769.25</ele><time>2026-04-26T11:47:12.931Z</time></trkpt><trkpt lat="43.545455267948846" lon="12.489419747190587"><ele>768.5</ele><time>2026-04-26T11:47:13.931Z</time></trkpt><trkpt lat="43.54557278824568" lon="12.48935402388234"><ele>767.75</ele><time>2026-04-26T11:47:14.931Z</time></trkpt><trkpt lat="43.54567556402016" lon="12.489289725228033"><ele>767.0</ele><time>2026-04-26T11:47:15.931Z</time></trkpt><trkpt lat="43.545783355450034" lon="12.489212119357761"><ele>767.0</ele><time>2026-04-26T11:47:16.931Z</time></trkpt><trkpt lat="43.54589416323225" lon="12.48913692166182"><ele>767.0</ele><time>2026-04-26T11:47:17.931Z</time></trkpt><trkpt lat="43.546015757822275" lon="12.489029300525784"><ele>767.0</ele><time>2026-04-26T11:47:18.931Z</time></trkpt><trkpt lat="43.546153177548575" lon="12.488915749918377"><ele>767.0</ele><time>2026-04-26T11:47:19.931Z</time></trkpt><trkpt lat="43.54629842908782" lon="12.488761479372426"><ele>764.0</ele><time>2026-04-26T11:47:20.931Z</time></trkpt><trkpt lat="43.54644146414734" lon="12.488600144214718"><ele>761.0</ele><time>2026-04-26T11:47:21.931Z</time></trkpt><trkpt lat="43.54657470963516" lon="12.488430970137436"><ele>758.0</ele><time>2026-04-26T11:47:22.931Z</time></trkpt><trkpt lat="43.546728603389774" lon="12.488306286717895"><ele>758.0</ele><time>2026-04-26T11:47:23.931Z</time></trkpt><trkpt lat="43.54687722721748" lon="12.488172581583175"><ele>758.0</ele><time>2026-04-26T11:47:24.931Z</time></trkpt><trkpt lat="43.547030673687075" lon="12.488014620269626"><ele>758.0</ele><time>2026-04-26T11:47:25.931Z</time></trkpt><trkpt lat="43.5472106098729" lon="12.487875996845785"><ele>757.3333333333333</ele><time>2026-04-26T11:47:26.931Z</time></trkpt><trkpt lat="43.5474054853612" lon="12.487745351623106"><ele>756.6666666666666</ele><time>2026-04-26T11:47:27.931Z</time></trkpt><trkpt lat="43.54760373563567" lon="12.487613643028668"><ele>756.0</ele><time>2026-04-26T11:47:28.931Z</time></trkpt><trkpt lat="43.54780473355627" lon="12.487485003644192"><ele>756.0</ele><time>2026-04-26T11:47:29.931Z</time></trkpt><trkpt lat="43.54802096061764" lon="12.48735174972703"><ele>756.0</ele><time>2026-04-26T11:47:30.931Z</time></trkpt><trkpt lat="43.54825464232424" lon="12.487245637825543"><ele>756.0</ele><time>2026-04-26T11:47:31.931Z</time></trkpt><trkpt lat="43.5484897332641" lon="12.487097953043783"><ele>756.0</ele><time>2026-04-26T11:47:32.931Z</time></trkpt><trkpt lat="43.54873159953717" lon="12.486973574234634"><ele>754.5</ele><time>2026-04-26T11:47:33.931Z</time></trkpt><trkpt lat="43.548970795036965" lon="12.486842337493277"><ele>753.0</ele><time>2026-04-26T11:47:34.931Z</time></trkpt><trkpt lat="43.54919978593247" lon="12.486722457332698"><ele>753.0</ele><time>2026-04-26T11:47:35.931Z</time></trkpt><trkpt lat="43.54943386279329" lon="12.48659413870971"><ele>753.0</ele><time>2026-04-26T11:47:36.931Z</time></trkpt><trkpt lat="43.549667408183545" lon="12.486462078116784"><ele>752.0</ele><time>2026-04-26T11:47:37.931Z</time></trkpt><trkpt lat="43.5499094071116" lon="12.486356703649735"><ele>751.0</ele><time>2026-04-26T11:47:38.931Z</time></trkpt><trkpt lat="43.550145989562175" lon="12.486229862127349"><ele>751.0</ele><time>2026-04-26T11:47:39.931Z</time></trkpt><trkpt lat="43.55037007145603" lon="12.486108858839065"><ele>751.0</ele><time>2026-04-26T11:47:40.931Z</time></trkpt><trkpt lat="43.55058188589009" lon="12.485994396866966"><ele>750.3333333333334</ele><time>2026-04-26T11:47:41.932Z</time></trkpt><trkpt lat="43.550770457408106" lon="12.485867671332521"><ele>749.6666666666666</ele><time>2026-04-26T11:47:42.931Z</time></trkpt><trkpt lat="43.5509709537458" lon="12.485785654261967"><ele>749.0</ele><time>2026-04-26T11:47:43.931Z</time></trkpt><trkpt lat="43.5511710183355" lon="12.485678257565272"><ele>748.6666666666666</ele><time>2026-04-26T11:47:44.931Z</time></trkpt><trkpt lat="43.55135945343301" lon="12.485576002572461"><ele>748.3333333333334</ele><time>2026-04-26T11:47:45.932Z</time></trkpt><trkpt lat="43.55154125138402" lon="12.485476374214867"><ele>748.0</ele><time>2026-04-26T11:47:46.932Z</time></trkpt><trkpt lat="43.55172070042884" lon="12.485384329816252"><ele>747.3333333333334</ele><time>2026-04-26T11:47:47.931Z</time></trkpt><trkpt lat="43.551890791580135" lon="12.485292936118643"><ele>746.6666666666666</ele><time>2026-04-26T11:47:48.931Z</time></trkpt><trkpt lat="43.552033967467295" lon="12.485210656358293"><ele>746.0</ele><time>2026-04-26T11:47:49.931Z</time></trkpt><trkpt lat="43.55216597284583" lon="12.485135868675973"><ele>746.0</ele><time>2026-04-26T11:47:50.932Z</time></trkpt><trkpt lat="43.55225760065027" lon="12.485036299449337"><ele>746.0</ele><time>2026-04-26T11:47:51.932Z</time></trkpt><trkpt lat="43.55231690063392" lon="12.484892546742667"><ele>746.0</ele><time>2026-04-26T11:47:52.932Z</time></trkpt><trkpt lat="43.55233055981073" lon="12.484731648563987"><ele>746.0</ele><time>2026-04-26T11:47:53.932Z</time></trkpt><trkpt lat="43.5523076756105" lon="12.484520645852918"><ele>738.3333333333333</ele><time>2026-04-26T11:47:54.932Z</time></trkpt><trkpt lat="43.5522531067298" lon="12.48427177203608"><ele>730.6666666666666</ele><time>2026-04-26T11:47:55.932Z</time></trkpt><trkpt lat="43.55218806191662" lon="12.483989616655261"><ele>723.0</ele><time>2026-04-26T11:47:56.932Z</time></trkpt><trkpt lat="43.55211841112632" lon="12.48368771684437"><ele>720.3333333333334</ele><time>2026-04-26T11:47:57.932Z</time></trkpt><trkpt lat="43.55205802224964" lon="12.483411896340476"><ele>717.6666666666667</ele><time>2026-04-26T11:47:58.932Z</time></trkpt><trkpt lat="43.552006748423494" lon="12.483190454652563"><ele>715.0</ele><time>2026-04-26T11:47:59.932Z</time></trkpt><trkpt lat="43.55193570465819" lon="12.483015632128728"><ele>719.0</ele><time>2026-04-26T11:48:00.932Z</time></trkpt><trkpt lat="43.5518226062055" lon="12.482883502530571"><ele>723.0</ele><time>2026-04-26T11:48:01.932Z</time></trkpt><trkpt lat="43.55167824403095" lon="12.482742220532923"><ele>727.0</ele><time>2026-04-26T11:48:02.932Z</time></trkpt><trkpt lat="43.5514884760218" lon="12.482610534180202"><ele>727.0</ele><time>2026-04-26T11:48:03.932Z</time></trkpt><trkpt lat="43.55134677607102" lon="12.48245776828859"><ele>727.0</ele><time>2026-04-26T11:48:04.932Z</time></trkpt><trkpt lat="43.55129911483423" lon="12.482266792981717"><ele>727.0</ele><time>2026-04-26T11:48:05.932Z</time></trkpt><trkpt lat="43.55130685563628" lon="12.482098214729065"><ele>727.0</ele><time>2026-04-26T11:48:06.932Z</time></trkpt><trkpt lat="43.55134014924926" lon="12.481905911440778"><ele>728.6666666666667</ele><time>2026-04-26T11:48:07.932Z</time></trkpt><trkpt lat="43.55132261375042" lon="12.481671500342188"><ele>730.3333333333334</ele><time>2026-04-26T11:48:08.932Z</time></trkpt><trkpt lat="43.55125287296453" lon="12.48143936465901"><ele>732.0</ele><time>2026-04-26T11:48:09.932Z</time></trkpt><trkpt lat="43.5511967312517" lon="12.481176395895993"><ele>732.0</ele><time>2026-04-26T11:48:10.932Z</time></trkpt><trkpt lat="43.55118156940544" lon="12.480927763743287"><ele>732.0</ele><time>2026-04-26T11:48:11.932Z</time></trkpt><trkpt lat="43.551222517991974" lon="12.480720895262056"><ele>732.0</ele><time>2026-04-26T11:48:12.932Z</time></trkpt><trkpt lat="43.551306620974515" lon="12.480541865409158"><ele>721.5</ele><time>2026-04-26T11:48:13.932Z</time></trkpt><trkpt lat="43.551429212416565" lon="12.480298529200383"><ele>711.0</ele><time>2026-04-26T11:48:14.932Z</time></trkpt><trkpt lat="43.55156515984827" lon="12.480024760833048"><ele>711.0</ele><time>2026-04-26T11:48:15.932Z</time></trkpt><trkpt lat="43.55168905342677" lon="12.4797431813273"><ele>711.0</ele><time>2026-04-26T11:48:16.932Z</time></trkpt><trkpt lat="43.55182887694283" lon="12.4795144519913"><ele>712.0</ele><time>2026-04-26T11:48:17.932Z</time></trkpt><trkpt lat="43.551946357973314" lon="12.479277921449848"><ele>713.0</ele><time>2026-04-26T11:48:18.932Z</time></trkpt><trkpt lat="43.55205069156548" lon="12.47901778491462"><ele>714.0</ele><time>2026-04-26T11:48:19.932Z</time></trkpt><trkpt lat="43.5521436540901" lon="12.478741797766565"><ele>708.3333333333334</ele><time>2026-04-26T11:48:20.932Z</time></trkpt><trkpt lat="43.55221667248648" lon="12.478446486963723"><ele>702.6666666666667</ele><time>2026-04-26T11:48:21.932Z</time></trkpt><trkpt lat="43.55228195703018" lon="12.478175334492134"><ele>697.0</ele><time>2026-04-26T11:48:22.932Z</time></trkpt><trkpt lat="43.55235466096553" lon="12.477955154165217"><ele>699.0</ele><time>2026-04-26T11:48:23.932Z</time></trkpt><trkpt lat="43.5524492581115" lon="12.477765059867407"><ele>701.0</ele><time>2026-04-26T11:48:24.932Z</time></trkpt><trkpt lat="43.55259050086962" lon="12.477557148459711"><ele>703.0</ele><time>2026-04-26T11:48:25.932Z</time></trkpt><trkpt lat="43.552793818561256" lon="12.47734600747387"><ele>698.0</ele><time>2026-04-26T11:48:26.932Z</time></trkpt><trkpt lat="43.55302475742405" lon="12.47710636911692"><ele>693.0</ele><time>2026-04-26T11:48:27.932Z</time></trkpt><trkpt lat="43.55326332793815" lon="12.476850703735698"><ele>693.0</ele><time>2026-04-26T11:48:28.932Z</time></trkpt><trkpt lat="43.55347415632966" lon="12.476628108327834"><ele>693.0</ele><time>2026-04-26T11:48:29.932Z</time></trkpt><trkpt lat="43.55366455548644" lon="12.476453699572408"><ele>694.6666666666666</ele><time>2026-04-26T11:48:30.932Z</time></trkpt><trkpt lat="43.55383241536207" lon="12.476299169980887"><ele>696.3333333333333</ele><time>2026-04-26T11:48:31.932Z</time></trkpt><trkpt lat="43.55400168135452" lon="12.47619239002858"><ele>698.0</ele><time>2026-04-26T11:48:32.932Z</time></trkpt><trkpt lat="43.55419235179955" lon="12.47613780634011"><ele>698.0</ele><time>2026-04-26T11:48:33.932Z</time></trkpt><trkpt lat="43.55440134634542" lon="12.476085823914397"><ele>698.0</ele><time>2026-04-26T11:48:34.932Z</time></trkpt><trkpt lat="43.5546394945386" lon="12.476053365755336"><ele>692.0</ele><time>2026-04-26T11:48:35.932Z</time></trkpt><trkpt lat="43.55491124953901" lon="12.476003606563555"><ele>686.0</ele><time>2026-04-26T11:48:36.932Z</time></trkpt><trkpt lat="43.5552148259532" lon="12.475868761772954"><ele>676.5</ele><time>2026-04-26T11:48:37.932Z</time></trkpt><trkpt lat="43.55551998882013" lon="12.475685484266227"><ele>667.0</ele><time>2026-04-26T11:48:38.932Z</time></trkpt><trkpt lat="43.55580754041987" lon="12.475515761550598"><ele>666.5</ele><time>2026-04-26T11:48:39.932Z</time></trkpt><trkpt lat="43.556080834620545" lon="12.475384658743245"><ele>666.0</ele><time>2026-04-26T11:48:40.932Z</time></trkpt><trkpt lat="43.55632755374634" lon="12.4753025778572"><ele>666.0</ele><time>2026-04-26T11:48:41.932Z</time></trkpt><trkpt lat="43.55651750911133" lon="12.475225702630317"><ele>666.0</ele><time>2026-04-26T11:48:42.932Z</time></trkpt><trkpt lat="43.556644643399345" lon="12.475138383970918"><ele>666.0</ele><time>2026-04-26T11:48:43.932Z</time></trkpt><trkpt lat="43.55674297735749" lon="12.475032716216344"><ele>666.0</ele><time>2026-04-26T11:48:44.932Z</time></trkpt><trkpt lat="43.55681539285423" lon="12.474935615680321"><ele>666.0</ele><time>2026-04-26T11:48:45.932Z</time></trkpt><trkpt lat="43.55688521628208" lon="12.474755271561962"><ele>666.0</ele><time>2026-04-26T11:48:46.932Z</time></trkpt><trkpt lat="43.556905395978795" lon="12.474474936581014"><ele>667.0</ele><time>2026-04-26T11:48:47.932Z</time></trkpt><trkpt lat="43.55692076402476" lon="12.474099082115892"><ele>668.0</ele><time>2026-04-26T11:48:48.932Z</time></trkpt><trkpt lat="43.55695494046139" lon="12.473724406443463"><ele>663.5</ele><time>2026-04-26T11:48:49.932Z</time></trkpt><trkpt lat="43.556996657077015" lon="12.473378285273164"><ele>659.0</ele><time>2026-04-26T11:48:50.932Z</time></trkpt><trkpt lat="43.557044638254816" lon="12.47305643080974"><ele>648.6666666666666</ele><time>2026-04-26T11:48:51.932Z</time></trkpt><trkpt lat="43.55708160783425" lon="12.472784277043743"><ele>638.3333333333334</ele><time>2026-04-26T11:48:52.932Z</time></trkpt><trkpt lat="43.557087738901174" lon="12.472540851956255"><ele>628.0</ele><time>2026-04-26T11:48:53.932Z</time></trkpt><trkpt lat="43.557055435820025" lon="12.472316561262591"><ele>634.0</ele><time>2026-04-26T11:48:54.931Z</time></trkpt><trkpt lat="43.55701118913179" lon="12.472058204603638"><ele>640.0</ele><time>2026-04-26T11:48:55.931Z</time></trkpt><trkpt lat="43.556901237299144" lon="12.471685723873199"><ele>640.0</ele><time>2026-04-26T11:48:56.931Z</time></trkpt><trkpt lat="43.5567785735314" lon="12.471355940083455"><ele>640.0</ele><time>2026-04-26T11:48:57.931Z</time></trkpt><trkpt lat="43.556758182695866" lon="12.471010520444628"><ele>639.0</ele><time>2026-04-26T11:48:58.931Z</time></trkpt><trkpt lat="43.556794806943046" lon="12.47067932737243"><ele>638.0</ele><time>2026-04-26T11:48:59.931Z</time></trkpt><trkpt lat="43.556860691816325" lon="12.470342975477124"><ele>638.0</ele><time>2026-04-26T11:49:00.931Z</time></trkpt><trkpt lat="43.55694755719493" lon="12.469964625996287"><ele>638.0</ele><time>2026-04-26T11:49:01.931Z</time></trkpt><trkpt lat="43.5570314018359" lon="12.46956171969981"><ele>627.5</ele><time>2026-04-26T11:49:02.931Z</time></trkpt><trkpt lat="43.557124484026176" lon="12.46915551646579"><ele>617.0</ele><time>2026-04-26T11:49:03.931Z</time></trkpt><trkpt lat="43.55722178497974" lon="12.468800962261694"><ele>619.0</ele><time>2026-04-26T11:49:04.931Z</time></trkpt><trkpt lat="43.55734371474919" lon="12.468482278055326"><ele>621.0</ele><time>2026-04-26T11:49:05.931Z</time></trkpt><trkpt lat="43.55748293038301" lon="12.468127751412537"><ele>621.5</ele><time>2026-04-26T11:49:06.931Z</time></trkpt><trkpt lat="43.55765551124069" lon="12.467786245508552"><ele>622.0</ele><time>2026-04-26T11:49:07.931Z</time></trkpt><trkpt lat="43.5578511814379" lon="12.46746290716553"><ele>617.5</ele><time>2026-04-26T11:49:08.931Z</time></trkpt><trkpt lat="43.55805636498127" lon="12.467122451483677"><ele>613.0</ele><time>2026-04-26T11:49:09.931Z</time></trkpt><trkpt lat="43.55826262428464" lon="12.466780988496849"><ele>613.0</ele><time>2026-04-26T11:49:10.931Z</time></trkpt><trkpt lat="43.55844698883146" lon="12.466479155513541"><ele>613.0</ele><time>2026-04-26T11:49:11.931Z</time></trkpt><trkpt lat="43.55860778312907" lon="12.466221364130286"><ele>605.0</ele><time>2026-04-26T11:49:12.931Z</time></trkpt><trkpt lat="43.55873086309725" lon="12.46596819189267"><ele>597.0</ele><time>2026-04-26T11:49:13.931Z</time></trkpt><trkpt lat="43.55884802768001" lon="12.465682848854492"><ele>600.5</ele><time>2026-04-26T11:49:14.931Z</time></trkpt><trkpt lat="43.55893711728635" lon="12.465360563009229"><ele>604.0</ele><time>2026-04-26T11:49:15.931Z</time></trkpt><trkpt lat="43.559023738499015" lon="12.46500134605354"><ele>604.0</ele><time>2026-04-26T11:49:16.931Z</time></trkpt><trkpt lat="43.55911097598542" lon="12.464614582000433"><ele>604.0</ele><time>2026-04-26T11:49:17.931Z</time></trkpt><trkpt lat="43.55920022256905" lon="12.464281404995463"><ele>604.6666666666667</ele><time>2026-04-26T11:49:18.931Z</time></trkpt><trkpt lat="43.559269237062836" lon="12.464029074181289"><ele>605.3333333333334</ele><time>2026-04-26T11:49:19.931Z</time></trkpt><trkpt lat="43.55932172439449" lon="12.46379788019027"><ele>606.0</ele><time>2026-04-26T11:49:20.931Z</time></trkpt><trkpt lat="43.55934603491212" lon="12.463583328934558"><ele>603.0</ele><time>2026-04-26T11:49:21.931Z</time></trkpt><trkpt lat="43.559328119418645" lon="12.463304990886751"><ele>600.0</ele><time>2026-04-26T11:49:22.931Z</time></trkpt><trkpt lat="43.559287376545406" lon="12.462933674940617"><ele>596.5</ele><time>2026-04-26T11:49:23.931Z</time></trkpt><trkpt lat="43.55925453617358" lon="12.462582356145656"><ele>593.0</ele><time>2026-04-26T11:49:24.931Z</time></trkpt><trkpt lat="43.55923554909441" lon="12.462264720323306"><ele>591.0</ele><time>2026-04-26T11:49:25.931Z</time></trkpt><trkpt lat="43.55920843271583" lon="12.461987313402025"><ele>589.0</ele><time>2026-04-26T11:49:26.931Z</time></trkpt><trkpt lat="43.55913292346412" lon="12.461738593312571"><ele>587.0</ele><time>2026-04-26T11:49:27.931Z</time></trkpt><trkpt lat="43.559029292276996" lon="12.461446025839267"><ele>584.0</ele><time>2026-04-26T11:49:28.931Z</time></trkpt><trkpt lat="43.55889243402004" lon="12.461110851631837"><ele>581.0</ele><time>2026-04-26T11:49:29.931Z</time></trkpt><trkpt lat="43.55876712510306" lon="12.460812017989838"><ele>584.25</ele><time>2026-04-26T11:49:30.931Z</time></trkpt><trkpt lat="43.55868811058946" lon="12.460577036920837"><ele>587.5</ele><time>2026-04-26T11:49:31.931Z</time></trkpt><trkpt lat="43.5586436016873" lon="12.460403509467813"><ele>590.75</ele><time>2026-04-26T11:49:32.931Z</time></trkpt><trkpt lat="43.558620642057456" lon="12.46025056424737"><ele>594.0</ele><time>2026-04-26T11:49:33.931Z</time></trkpt><trkpt lat="43.558675711525865" lon="12.460168030974375"><ele>592.0</ele><time>2026-04-26T11:49:34.931Z</time></trkpt><trkpt lat="43.558765410173514" lon="12.460126405652558"><ele>590.0</ele><time>2026-04-26T11:49:35.931Z</time></trkpt><trkpt lat="43.55884408160217" lon="12.460010810804205"><ele>588.0</ele><time>2026-04-26T11:49:36.931Z</time></trkpt><trkpt lat="43.558936099652094" lon="12.45991846911899"><ele>586.0</ele><time>2026-04-26T11:49:37.931Z</time></trkpt><trkpt lat="43.55904524308216" lon="12.459928233827474"><ele>584.0</ele><time>2026-04-26T11:49:38.931Z</time></trkpt><trkpt lat="43.559182078748265" lon="12.460015392654665"><ele>584.0</ele><time>2026-04-26T11:49:39.931Z</time></trkpt><trkpt lat="43.55934654943202" lon="12.460066443816688"><ele>584.0</ele><time>2026-04-26T11:49:40.931Z</time></trkpt><trkpt lat="43.559538286465035" lon="12.460100488470747"><ele>584.0</ele><time>2026-04-26T11:49:41.931Z</time></trkpt><trkpt lat="43.55978633621996" lon="12.460087497442554"><ele>582.0</ele><time>2026-04-26T11:49:42.931Z</time></trkpt><trkpt lat="43.56004295093572" lon="12.460049891934675"><ele>580.0</ele><time>2026-04-26T11:49:43.931Z</time></trkpt><trkpt lat="43.56030302175468" lon="12.460029883607772"><ele>575.5</ele><time>2026-04-26T11:49:44.932Z</time></trkpt><trkpt lat="43.56054887413575" lon="12.460002393884642"><ele>571.0</ele><time>2026-04-26T11:49:45.932Z</time></trkpt><trkpt lat="43.560785846547276" lon="12.460016026897142"><ele>571.0</ele><time>2026-04-26T11:49:46.932Z</time></trkpt><trkpt lat="43.561050613189785" lon="12.460028879516257"><ele>571.0</ele><time>2026-04-26T11:49:47.931Z</time></trkpt><trkpt lat="43.56130918832851" lon="12.460031411655631"><ele>570.0</ele><time>2026-04-26T11:49:48.931Z</time></trkpt><trkpt lat="43.56153979475123" lon="12.460023726743641"><ele>569.0</ele><time>2026-04-26T11:49:49.931Z</time></trkpt><trkpt lat="43.56170176809802" lon="12.460067109152542"><ele>568.0</ele><time>2026-04-26T11:49:50.932Z</time></trkpt><trkpt lat="43.56182610239633" lon="12.460149735242235"><ele>568.0</ele><time>2026-04-26T11:49:51.932Z</time></trkpt><trkpt lat="43.561964974499396" lon="12.460280326138603"><ele>568.0</ele><time>2026-04-26T11:49:52.932Z</time></trkpt><trkpt lat="43.56214432800835" lon="12.460454597547901"><ele>568.0</ele><time>2026-04-26T11:49:53.931Z</time></trkpt><trkpt lat="43.562353445543856" lon="12.460643823234161"><ele>562.0</ele><time>2026-04-26T11:49:54.932Z</time></trkpt><trkpt lat="43.56256333799452" lon="12.460865609320539"><ele>556.0</ele><time>2026-04-26T11:49:55.932Z</time></trkpt><trkpt lat="43.562753599037386" lon="12.46107478014574"><ele>558.3333333333334</ele><time>2026-04-26T11:49:56.931Z</time></trkpt><trkpt lat="43.562936533668264" lon="12.461248966481312"><ele>560.6666666666666</ele><time>2026-04-26T11:49:57.931Z</time></trkpt><trkpt lat="43.563136496929054" lon="12.46136294265669"><ele>563.0</ele><time>2026-04-26T11:49:58.931Z</time></trkpt><trkpt lat="43.56337853882936" lon="12.46143794886867"><ele>553.0</ele><time>2026-04-26T11:49:59.931Z</time></trkpt><trkpt lat="43.56366085710562" lon="12.461536387121125"><ele>543.0</ele><time>2026-04-26T11:50:00.931Z</time></trkpt><trkpt lat="43.563954323162946" lon="12.461598632688558"><ele>542.5</ele><time>2026-04-26T11:50:01.931Z</time></trkpt><trkpt lat="43.56423505552087" lon="12.461685057802125"><ele>542.0</ele><time>2026-04-26T11:50:02.931Z</time></trkpt><trkpt lat="43.56451005978214" lon="12.461779205669904"><ele>543.0</ele><time>2026-04-26T11:50:03.931Z</time></trkpt><trkpt lat="43.56473740009004" lon="12.461847560191591"><ele>544.0</ele><time>2026-04-26T11:50:04.931Z</time></trkpt><trkpt lat="43.56494907936923" lon="12.461915727086813"><ele>544.0</ele><time>2026-04-26T11:50:05.931Z</time></trkpt><trkpt lat="43.56514685060431" lon="12.462006566169652"><ele>544.0</ele><time>2026-04-26T11:50:06.931Z</time></trkpt><trkpt lat="43.56529735236846" lon="12.462165487264334"><ele>544.0</ele><time>2026-04-26T11:50:07.931Z</time></trkpt><trkpt lat="43.56539557453692" lon="12.462322585020825"><ele>543.0</ele><time>2026-04-26T11:50:08.931Z</time></trkpt><trkpt lat="43.56547898060187" lon="12.462517035593033"><ele>542.0</ele><time>2026-04-26T11:50:09.931Z</time></trkpt><trkpt lat="43.56552011196123" lon="12.462717842535488"><ele>541.0</ele><time>2026-04-26T11:50:10.931Z</time></trkpt><trkpt lat="43.56557827377194" lon="12.462885237116671"><ele>540.0</ele><time>2026-04-26T11:50:11.931Z</time></trkpt><trkpt lat="43.565652689455895" lon="12.463003333023588"><ele>533.5</ele><time>2026-04-26T11:50:12.931Z</time></trkpt><trkpt lat="43.56573937527456" lon="12.46309647712523"><ele>527.0</ele><time>2026-04-26T11:50:13.931Z</time></trkpt><trkpt lat="43.56585734204761" lon="12.463138525391551"><ele>520.5</ele><time>2026-04-26T11:50:14.931Z</time></trkpt><trkpt lat="43.56602249831936" lon="12.463135610853614"><ele>514.0</ele><time>2026-04-26T11:50:15.931Z</time></trkpt><trkpt lat="43.566175680160974" lon="12.463125826894341"><ele>509.33333333333337</ele><time>2026-04-26T11:50:16.931Z</time></trkpt><trkpt lat="43.56636227972994" lon="12.463076905990624"><ele>504.66666666666663</ele><time>2026-04-26T11:50:17.931Z</time></trkpt><trkpt lat="43.566517386279635" lon="12.463018520851668"><ele>500.0</ele><time>2026-04-26T11:50:18.931Z</time></trkpt><trkpt lat="43.566657713167096" lon="12.46294469767455"><ele>507.5</ele><time>2026-04-26T11:50:19.931Z</time></trkpt><trkpt lat="43.566766358677526" lon="12.462828203931654"><ele>515.0</ele><time>2026-04-26T11:50:20.931Z</time></trkpt><trkpt lat="43.566859188538984" lon="12.462697873805617"><ele>522.5</ele><time>2026-04-26T11:50:21.931Z</time></trkpt><trkpt lat="43.56689565233767" lon="12.462529394737457"><ele>530.0</ele><time>2026-04-26T11:50:22.931Z</time></trkpt><trkpt lat="43.56690819311252" lon="12.462332342072077"><ele>530.0</ele><time>2026-04-26T11:50:23.931Z</time></trkpt><trkpt lat="43.566917858796124" lon="12.462122688629865"><ele>530.0</ele><time>2026-04-26T11:50:24.931Z</time></trkpt><trkpt lat="43.566931791606855" lon="12.461920529336796"><ele>530.0</ele><time>2026-04-26T11:50:25.931Z</time></trkpt><trkpt lat="43.56694674365149" lon="12.461774635785721"><ele>530.0</ele><time>2026-04-26T11:50:26.931Z</time></trkpt><trkpt lat="43.56702342900164" lon="12.461680869265406"><ele>528.8</ele><time>2026-04-26T11:50:27.931Z</time></trkpt><trkpt lat="43.5671074735886" lon="12.461663157313168"><ele>527.6</ele><time>2026-04-26T11:50:28.931Z</time></trkpt><trkpt lat="43.567203581370336" lon="12.461666190490654"><ele>526.4</ele><time>2026-04-26T11:50:29.931Z</time></trkpt><trkpt lat="43.56730301942192" lon="12.461699303690697"><ele>525.2</ele><time>2026-04-26T11:50:30.931Z</time></trkpt><trkpt lat="43.56739032413001" lon="12.461750581358563"><ele>524.0</ele><time>2026-04-26T11:50:31.931Z</time></trkpt><trkpt lat="43.56748897853006" lon="12.461778451259134"><ele>524.0</ele><time>2026-04-26T11:50:32.931Z</time></trkpt><trkpt lat="43.56757816870603" lon="12.461751966851708"><ele>524.0</ele><time>2026-04-26T11:50:33.931Z</time></trkpt><trkpt lat="43.5676590202975" lon="12.461705333426435"><ele>524.0</ele><time>2026-04-26T11:50:34.931Z</time></trkpt><trkpt lat="43.567741226391675" lon="12.461580706867096"><ele>524.0</ele><time>2026-04-26T11:50:35.931Z</time></trkpt><trkpt lat="43.56783603305393" lon="12.461461280078078"><ele>524.0</ele><time>2026-04-26T11:50:36.931Z</time></trkpt><trkpt lat="43.5679469447351" lon="12.461350940246339"><ele>522.0</ele><time>2026-04-26T11:50:37.931Z</time></trkpt><trkpt lat="43.56803670740599" lon="12.46128678830217"><ele>520.0</ele><time>2026-04-26T11:50:38.931Z</time></trkpt><trkpt lat="43.56811934516431" lon="12.461269767630077"><ele>518.0</ele><time>2026-04-26T11:50:39.931Z</time></trkpt><trkpt lat="43.56821894733669" lon="12.461289013006759"><ele>516.0</ele><time>2026-04-26T11:50:40.931Z</time></trkpt><trkpt lat="43.56832037808146" lon="12.461351552937659"><ele>514.0</ele><time>2026-04-26T11:50:41.931Z</time></trkpt><trkpt lat="43.56842397705978" lon="12.461386996085153"><ele>514.0</ele><time>2026-04-26T11:50:42.931Z</time></trkpt><trkpt lat="43.56851664689613" lon="12.461393689790981"><ele>514.0</ele><time>2026-04-26T11:50:43.931Z</time></trkpt><trkpt lat="43.56859265145951" lon="12.461363899786548"><ele>514.0</ele><time>2026-04-26T11:50:44.931Z</time></trkpt><trkpt lat="43.56866990596695" lon="12.461292596705292"><ele>514.0</ele><time>2026-04-26T11:50:45.931Z</time></trkpt><trkpt lat="43.56876239430407" lon="12.46123177288991"><ele>514.0</ele><time>2026-04-26T11:50:46.931Z</time></trkpt><trkpt lat="43.56885861018936" lon="12.461170248670411"><ele>517.3333333333334</ele><time>2026-04-26T11:50:47.931Z</time></trkpt><trkpt lat="43.56893475000886" lon="12.46111626996582"><ele>520.6666666666667</ele><time>2026-04-26T11:50:48.931Z</time></trkpt><trkpt lat="43.5690079973017" lon="12.461069263249675"><ele>524.0</ele><time>2026-04-26T11:50:49.931Z</time></trkpt><trkpt lat="43.56907563630415" lon="12.461021356300392"><ele>527.3333333333334</ele><time>2026-04-26T11:50:50.931Z</time></trkpt><trkpt lat="43.56913538946489" lon="12.46098221470199"><ele>530.6666666666666</ele><time>2026-04-26T11:50:51.931Z</time></trkpt><trkpt lat="43.569249542790764" lon="12.460919278971572"><ele>534.0</ele><time>2026-04-26T11:50:53.931Z</time></trkpt><trkpt lat="43.56935976180963" lon="12.460871068175901"><ele>534.0</ele><time>2026-04-26T11:50:55.931Z</time></trkpt><trkpt lat="43.56941830842116" lon="12.460836634778705"><ele>534.0</ele><time>2026-04-26T11:50:56.931Z</time></trkpt><trkpt lat="43.56951584588954" lon="12.460762772919281"><ele>534.0</ele><time>2026-04-26T11:50:58.931Z</time></trkpt><trkpt lat="43.56961087225755" lon="12.460725351302358"><ele>534.0</ele><time>2026-04-26T11:51:00.931Z</time></trkpt><trkpt lat="43.56967610981195" lon="12.460718556174601"><ele>534.0</ele><time>2026-04-26T11:51:01.931Z</time></trkpt><trkpt lat="43.569754392860006" lon="12.46072449159292"><ele>534.0</ele><time>2026-04-26T11:51:02.931Z</time></trkpt><trkpt lat="43.56983827028879" lon="12.46074220076574"><ele>532.4</ele><time>2026-04-26T11:51:03.931Z</time></trkpt><trkpt lat="43.56992555725155" lon="12.46076847819395"><ele>530.8</ele><time>2026-04-26T11:51:04.931Z</time></trkpt><trkpt lat="43.57004150704893" lon="12.460808691702153"><ele>529.2</ele><time>2026-04-26T11:51:06.931Z</time></trkpt><trkpt lat="43.570146983491036" lon="12.460821341081282"><ele>527.6</ele><time>2026-04-26T11:51:08.931Z</time></trkpt><trkpt lat="43.5702319195206" lon="12.460809586839023"><ele>526.0</ele><time>2026-04-26T11:51:10.931Z</time></trkpt><trkpt lat="43.57031280138814" lon="12.460769997809653"><ele>523.4</ele><time>2026-04-26T11:51:12.931Z</time></trkpt><trkpt lat="43.57037253102644" lon="12.4607268413379"><ele>520.8</ele><time>2026-04-26T11:51:13.931Z</time></trkpt><trkpt lat="43.57047146234254" lon="12.460667025717239"><ele>518.1999999999999</ele><time>2026-04-26T11:51:15.931Z</time></trkpt><trkpt lat="43.57054218339152" lon="12.460619558481115"><ele>515.6</ele><time>2026-04-26T11:51:22.931Z</time></trkpt><trkpt lat="43.57066541090988" lon="12.460547898345277"><ele>513.0</ele><time>2026-04-26T11:51:24.931Z</time></trkpt><trkpt lat="43.5707509884728" lon="12.46048315686544"><ele>516.5</ele><time>2026-04-26T11:51:25.931Z</time></trkpt><trkpt lat="43.57085835787378" lon="12.460410752953868"><ele>520.0</ele><time>2026-04-26T11:51:26.931Z</time></trkpt><trkpt lat="43.57097582618496" lon="12.460345685225642"><ele>523.5</ele><time>2026-04-26T11:51:27.931Z</time></trkpt><trkpt lat="43.571110933669864" lon="12.4603071960436"><ele>527.0</ele><time>2026-04-26T11:51:28.931Z</time></trkpt><trkpt lat="43.57128436548862" lon="12.46030477449101"><ele>527.0</ele><time>2026-04-26T11:51:29.931Z</time></trkpt><trkpt lat="43.57146122966948" lon="12.460335903568074"><ele>527.0</ele><time>2026-04-26T11:51:30.931Z</time></trkpt><trkpt lat="43.57161433983161" lon="12.460432947682868"><ele>527.0</ele><time>2026-04-26T11:51:31.931Z</time></trkpt><trkpt lat="43.57174850197896" lon="12.460545067800538"><ele>523.75</ele><time>2026-04-26T11:51:32.931Z</time></trkpt><trkpt lat="43.57187308235611" lon="12.460659961960523"><ele>520.5</ele><time>2026-04-26T11:51:33.931Z</time></trkpt><trkpt lat="43.571981490030105" lon="12.460726368358438"><ele>517.25</ele><time>2026-04-26T11:51:34.931Z</time></trkpt><trkpt lat="43.57207956080303" lon="12.460711259228583"><ele>514.0</ele><time>2026-04-26T11:51:35.931Z</time></trkpt><trkpt lat="43.57216647738444" lon="12.460654637322401"><ele>514.0</ele><time>2026-04-26T11:51:36.931Z</time></trkpt><trkpt lat="43.572265378953254" lon="12.460520479284527"><ele>514.0</ele><time>2026-04-26T11:51:37.931Z</time></trkpt><trkpt lat="43.5723482550634" lon="12.46032999775707"><ele>514.0</ele><time>2026-04-26T11:51:38.931Z</time></trkpt><trkpt lat="43.572471157456484" lon="12.460153762120926"><ele>516.6666666666667</ele><time>2026-04-26T11:51:39.931Z</time></trkpt><trkpt lat="43.57258884693153" lon="12.459968821325822"><ele>519.3333333333334</ele><time>2026-04-26T11:51:40.931Z</time></trkpt><trkpt lat="43.57271021276993" lon="12.459814599880882"><ele>522.0</ele><time>2026-04-26T11:51:41.931Z</time></trkpt><trkpt lat="43.572843994890185" lon="12.459682885248423"><ele>521.0</ele><time>2026-04-26T11:51:42.931Z</time></trkpt><trkpt lat="43.57298336170578" lon="12.459588466290048"><ele>520.0</ele><time>2026-04-26T11:51:43.931Z</time></trkpt><trkpt lat="43.573114260216826" lon="12.459529432830015"><ele>519.0</ele><time>2026-04-26T11:51:44.931Z</time></trkpt><trkpt lat="43.57324908347929" lon="12.459499646811704"><ele>518.0</ele><time>2026-04-26T11:51:45.931Z</time></trkpt><trkpt lat="43.57335742157376" lon="12.459527522627448"><ele>518.0</ele><time>2026-04-26T11:51:46.931Z</time></trkpt><trkpt lat="43.57348151042249" lon="12.459578864567602"><ele>518.0</ele><time>2026-04-26T11:51:47.931Z</time></trkpt><trkpt lat="43.57364601879173" lon="12.459663840817763"><ele>518.0</ele><time>2026-04-26T11:51:48.931Z</time></trkpt><trkpt lat="43.573852861911305" lon="12.459764155043283"><ele>517.0</ele><time>2026-04-26T11:51:49.931Z</time></trkpt><trkpt lat="43.57405325860694" lon="12.459862897564744"><ele>516.0</ele><time>2026-04-26T11:51:50.931Z</time></trkpt><trkpt lat="43.57427056264989" lon="12.459958741039644"><ele>515.0</ele><time>2026-04-26T11:51:51.931Z</time></trkpt><trkpt lat="43.57449883446176" lon="12.460026617026445"><ele>510.3333333333333</ele><time>2026-04-26T11:51:52.931Z</time></trkpt><trkpt lat="43.57471597192393" lon="12.460068793132898"><ele>505.66666666666663</ele><time>2026-04-26T11:51:53.93Z</time></trkpt><trkpt lat="43.574943671279506" lon="12.460059517153985"><ele>501.0</ele><time>2026-04-26T11:51:54.931Z</time></trkpt><trkpt lat="43.575200270800586" lon="12.460021603151462"><ele>499.0</ele><time>2026-04-26T11:51:55.931Z</time></trkpt><trkpt lat="43.57545124094333" lon="12.459994786028544"><ele>497.0</ele><time>2026-04-26T11:51:56.931Z</time></trkpt><trkpt lat="43.5756834919178" lon="12.459952799474092"><ele>497.0</ele><time>2026-04-26T11:51:57.931Z</time></trkpt><trkpt lat="43.57588178847698" lon="12.459856465919055"><ele>497.0</ele><time>2026-04-26T11:51:58.931Z</time></trkpt><trkpt lat="43.57606873087411" lon="12.459729036737544"><ele>497.0</ele><time>2026-04-26T11:51:59.93Z</time></trkpt><trkpt lat="43.57626611287742" lon="12.459521367949549"><ele>490.0</ele><time>2026-04-26T11:52:00.93Z</time></trkpt><trkpt lat="43.576438949839485" lon="12.459259215508684"><ele>483.0</ele><time>2026-04-26T11:52:01.93Z</time></trkpt><trkpt lat="43.5766301303871" lon="12.459026226887921"><ele>483.0</ele><time>2026-04-26T11:52:02.931Z</time></trkpt><trkpt lat="43.57676100772419" lon="12.458857084821577"><ele>483.0</ele><time>2026-04-26T11:52:03.931Z</time></trkpt><trkpt lat="43.576885064722156" lon="12.458741775635417"><ele>483.0</ele><time>2026-04-26T11:52:04.931Z</time></trkpt><trkpt lat="43.57701170617282" lon="12.458676261669735"><ele>482.5</ele><time>2026-04-26T11:52:05.931Z</time></trkpt><trkpt lat="43.57712451244752" lon="12.458689179075503"><ele>482.0</ele><time>2026-04-26T11:52:06.931Z</time></trkpt><trkpt lat="43.577213490136664" lon="12.458767846227039"><ele>481.5</ele><time>2026-04-26T11:52:07.931Z</time></trkpt><trkpt lat="43.57740359531708" lon="12.458883629535864"><ele>481.0</ele><time>2026-04-26T11:52:08.931Z</time></trkpt><trkpt lat="43.57758485900448" lon="12.459001891829306"><ele>481.0</ele><time>2026-04-26T11:52:09.931Z</time></trkpt><trkpt lat="43.577773109566316" lon="12.459122296613119"><ele>481.0</ele><time>2026-04-26T11:52:10.931Z</time></trkpt><trkpt lat="43.57794667189896" lon="12.459231030599334"><ele>481.0</ele><time>2026-04-26T11:52:11.931Z</time></trkpt><trkpt lat="43.57807252076049" lon="12.459296928148206"><ele>476.4</ele><time>2026-04-26T11:52:12.931Z</time></trkpt><trkpt lat="43.57818252162349" lon="12.45929455466788"><ele>471.8</ele><time>2026-04-26T11:52:13.931Z</time></trkpt><trkpt lat="43.578260394071116" lon="12.459268361669476"><ele>467.19999999999993</ele><time>2026-04-26T11:52:14.931Z</time></trkpt><trkpt lat="43.57831110759586" lon="12.459136432585051"><ele>462.59999999999997</ele><time>2026-04-26T11:52:15.931Z</time></trkpt><trkpt lat="43.57832005437049" lon="12.459010319513657"><ele>458.0</ele><time>2026-04-26T11:52:16.931Z</time></trkpt><trkpt lat="43.578273199023705" lon="12.458896104755159"><ele>458.0</ele><time>2026-04-26T11:52:17.931Z</time></trkpt><trkpt lat="43.578179647496995" lon="12.45879313383507"><ele>458.0</ele><time>2026-04-26T11:52:18.931Z</time></trkpt><trkpt lat="43.57804734748766" lon="12.458690509048239"><ele>458.0</ele><time>2026-04-26T11:52:19.931Z</time></trkpt><trkpt lat="43.57789610397721" lon="12.458592438962437"><ele>458.0</ele><time>2026-04-26T11:52:20.931Z</time></trkpt><trkpt lat="43.5777205992854" lon="12.458498078679046"><ele>461.0</ele><time>2026-04-26T11:52:21.931Z</time></trkpt><trkpt lat="43.577515649959466" lon="12.458383787112757"><ele>464.0</ele><time>2026-04-26T11:52:22.931Z</time></trkpt><trkpt lat="43.57731791876001" lon="12.45828272023775"><ele>467.0</ele><time>2026-04-26T11:52:23.931Z</time></trkpt><trkpt lat="43.577158060052255" lon="12.458198911477153"><ele>467.0</ele><time>2026-04-26T11:52:24.931Z</time></trkpt><trkpt lat="43.57703840486241" lon="12.458084035951554"><ele>467.0</ele><time>2026-04-26T11:52:25.931Z</time></trkpt><trkpt lat="43.57697321469967" lon="12.45798064716573"><ele>467.0</ele><time>2026-04-26T11:52:26.931Z</time></trkpt><trkpt lat="43.57699624670695" lon="12.457888401234754"><ele>467.0</ele><time>2026-04-26T11:52:27.931Z</time></trkpt><trkpt lat="43.57710061116723" lon="12.457762330338547"><ele>467.0</ele><time>2026-04-26T11:52:29.931Z</time></trkpt><trkpt lat="43.577196486699805" lon="12.457759742053764"><ele>467.0</ele><time>2026-04-26T11:52:30.931Z</time></trkpt><trkpt lat="43.577313706464324" lon="12.457827499267696"><ele>467.0</ele><time>2026-04-26T11:52:31.931Z</time></trkpt><trkpt lat="43.577455151297414" lon="12.457907151047907"><ele>467.0</ele><time>2026-04-26T11:52:32.931Z</time></trkpt><trkpt lat="43.57761331169341" lon="12.458034702607018"><ele>467.0</ele><time>2026-04-26T11:52:33.931Z</time></trkpt><trkpt lat="43.57780494143339" lon="12.458167878816498"><ele>467.0</ele><time>2026-04-26T11:52:34.931Z</time></trkpt><trkpt lat="43.57800512165688" lon="12.458250038988464"><ele>467.0</ele><time>2026-04-26T11:52:35.931Z</time></trkpt><trkpt lat="43.578222338786446" lon="12.458339129689463"><ele>464.5</ele><time>2026-04-26T11:52:36.931Z</time></trkpt><trkpt lat="43.57842299910676" lon="12.458413062315591"><ele>462.0</ele><time>2026-04-26T11:52:37.931Z</time></trkpt><trkpt lat="43.57855355690349" lon="12.458471713066045"><ele>459.5</ele><time>2026-04-26T11:52:38.931Z</time></trkpt><trkpt lat="43.578643891849815" lon="12.458469467332714"><ele>457.0</ele><time>2026-04-26T11:52:39.931Z</time></trkpt><trkpt lat="43.578734313746196" lon="12.458448313541421"><ele>452.8</ele><time>2026-04-26T11:52:40.931Z</time></trkpt><trkpt lat="43.578785238269816" lon="12.4583645219223"><ele>448.6</ele><time>2026-04-26T11:52:41.931Z</time></trkpt><trkpt lat="43.57881208907453" lon="12.458229716821512"><ele>444.40000000000003</ele><time>2026-04-26T11:52:42.931Z</time></trkpt><trkpt lat="43.57878353494816" lon="12.458078335240474"><ele>440.20000000000005</ele><time>2026-04-26T11:52:43.931Z</time></trkpt><trkpt lat="43.578717758561496" lon="12.457967452965983"><ele>436.0</ele><time>2026-04-26T11:52:44.931Z</time></trkpt><trkpt lat="43.57861248292583" lon="12.457876454166096"><ele>436.0</ele><time>2026-04-26T11:52:45.931Z</time></trkpt><trkpt lat="43.57847358772207" lon="12.457804709018715"><ele>436.0</ele><time>2026-04-26T11:52:46.931Z</time></trkpt><trkpt lat="43.578303150260865" lon="12.457744271530244"><ele>436.0</ele><time>2026-04-26T11:52:47.931Z</time></trkpt><trkpt lat="43.57813031160937" lon="12.45765819986685"><ele>436.0</ele><time>2026-04-26T11:52:48.931Z</time></trkpt><trkpt lat="43.57794801937577" lon="12.457521045918076"><ele>436.0</ele><time>2026-04-26T11:52:49.931Z</time></trkpt><trkpt lat="43.57774967804324" lon="12.457325370766567"><ele>435.33333333333337</ele><time>2026-04-26T11:52:50.931Z</time></trkpt><trkpt lat="43.57756727753146" lon="12.457153063243938"><ele>434.66666666666663</ele><time>2026-04-26T11:52:51.931Z</time></trkpt><trkpt lat="43.57739554542005" lon="12.457007575885049"><ele>434.0</ele><time>2026-04-26T11:52:52.931Z</time></trkpt><trkpt lat="43.5772566452409" lon="12.456854877396507"><ele>434.0</ele><time>2026-04-26T11:52:53.931Z</time></trkpt><trkpt lat="43.577156712334684" lon="12.45673147552762"><ele>434.0</ele><time>2026-04-26T11:52:54.931Z</time></trkpt><trkpt lat="43.57706792865032" lon="12.456591476903041"><ele>434.0</ele><time>2026-04-26T11:52:55.931Z</time></trkpt><trkpt lat="43.57704995431868" lon="12.456433507705642"><ele>434.0</ele><time>2026-04-26T11:52:56.931Z</time></trkpt><trkpt lat="43.57706048813379" lon="12.456273701712231"><ele>434.0</ele><time>2026-04-26T11:52:57.931Z</time></trkpt><trkpt lat="43.57708212422933" lon="12.456103554526772"><ele>434.0</ele><time>2026-04-26T11:52:58.931Z</time></trkpt><trkpt lat="43.577162819139424" lon="12.455965931494278"><ele>434.0</ele><time>2026-04-26T11:52:59.931Z</time></trkpt><trkpt lat="43.57728553699609" lon="12.455832013311548"><ele>434.0</ele><time>2026-04-26T11:53:00.931Z</time></trkpt><trkpt lat="43.577462087742575" lon="12.455664227003918"><ele>434.0</ele><time>2026-04-26T11:53:01.931Z</time></trkpt><trkpt lat="43.57763344136434" lon="12.455498692613542"><ele>434.0</ele><time>2026-04-26T11:53:02.931Z</time></trkpt><trkpt lat="43.5778071500522" lon="12.455330883255884"><ele>434.0</ele><time>2026-04-26T11:53:03.931Z</time></trkpt><trkpt lat="43.57799609254947" lon="12.455149138305535"><ele>429.5</ele><time>2026-04-26T11:53:04.931Z</time></trkpt><trkpt lat="43.57818682815767" lon="12.454966073124021"><ele>425.0</ele><time>2026-04-26T11:53:05.931Z</time></trkpt><trkpt lat="43.57837763630743" lon="12.454779335412603"><ele>423.66666666666663</ele><time>2026-04-26T11:53:06.931Z</time></trkpt><trkpt lat="43.57854895516825" lon="12.454607272790412"><ele>422.33333333333337</ele><time>2026-04-26T11:53:07.931Z</time></trkpt><trkpt lat="43.578698442913016" lon="12.454441324693219"><ele>421.0</ele><time>2026-04-26T11:53:08.931Z</time></trkpt><trkpt lat="43.57886994238412" lon="12.454326773009093"><ele>421.0</ele><time>2026-04-26T11:53:09.931Z</time></trkpt><trkpt lat="43.57903472980423" lon="12.454250588048513"><ele>421.0</ele><time>2026-04-26T11:53:10.931Z</time></trkpt><trkpt lat="43.57920810513758" lon="12.454219377872253"><ele>421.0</ele><time>2026-04-26T11:53:11.931Z</time></trkpt><trkpt lat="43.579375535106294" lon="12.454230028219204"><ele>420.6666666666667</ele><time>2026-04-26T11:53:12.931Z</time></trkpt><trkpt lat="43.57954122256088" lon="12.454248492210192"><ele>420.33333333333337</ele><time>2026-04-26T11:53:13.931Z</time></trkpt><trkpt lat="43.579716732835166" lon="12.45427299526159"><ele>420.0</ele><time>2026-04-26T11:53:14.931Z</time></trkpt><trkpt lat="43.579875765986344" lon="12.454296396150188"><ele>420.0</ele><time>2026-04-26T11:53:15.931Z</time></trkpt><trkpt lat="43.580022345416126" lon="12.454315479159268"><ele>420.0</ele><time>2026-04-26T11:53:16.931Z</time></trkpt><trkpt lat="43.580152688013925" lon="12.454323792073312"><ele>420.0</ele><time>2026-04-26T11:53:17.931Z</time></trkpt><trkpt lat="43.58028403079222" lon="12.454347362247153"><ele>420.0</ele><time>2026-04-26T11:53:18.931Z</time></trkpt><trkpt lat="43.5804024122523" lon="12.45437720994855"><ele>420.3333333333333</ele><time>2026-04-26T11:53:19.931Z</time></trkpt><trkpt lat="43.58049631822824" lon="12.454404494556547"><ele>420.66666666666663</ele><time>2026-04-26T11:53:20.931Z</time></trkpt><trkpt lat="43.58056411036541" lon="12.454482962688909"><ele>421.0</ele><time>2026-04-26T11:53:21.931Z</time></trkpt><trkpt lat="43.58065438706672" lon="12.45450056340064"><ele>421.3333333333333</ele><time>2026-04-26T11:53:23.931Z</time></trkpt><trkpt lat="43.58061398196246" lon="12.454422222689185"><ele>421.66666666666663</ele><time>2026-04-26T11:54:12Z</time></trkpt><trkpt lat="43.58067141021394" lon="12.454316136307241"><ele>422.0</ele><time>2026-04-26T11:54:14Z</time></trkpt><trkpt lat="43.58068748003078" lon="12.454212170253761"><ele>422.0</ele><time>2026-04-26T11:54:15Z</time></trkpt><trkpt lat="43.58068514967502" lon="12.454084822665193"><ele>422.0</ele><time>2026-04-26T11:54:16Z</time></trkpt><trkpt lat="43.58070251875651" lon="12.453771839626055"><ele>422.0</ele><time>2026-04-26T11:54:18Z</time></trkpt><trkpt lat="43.58071560083029" lon="12.453605781149921"><ele>422.0</ele><time>2026-04-26T11:54:19Z</time></trkpt><trkpt lat="43.58068537107582" lon="12.453421537526719"><ele>424.0</ele><time>2026-04-26T11:54:20Z</time></trkpt><trkpt lat="43.58065025380186" lon="12.453239845105596"><ele>426.0</ele><time>2026-04-26T11:54:21Z</time></trkpt><trkpt lat="43.58059803550584" lon="12.45306405294354"><ele>428.0</ele><time>2026-04-26T11:54:22Z</time></trkpt><trkpt lat="43.580523379456686" lon="12.452886206704502"><ele>430.0</ele><time>2026-04-26T11:54:23Z</time></trkpt><trkpt lat="43.58042608874461" lon="12.452717097276546"><ele>428.33333333333337</ele><time>2026-04-26T11:54:24Z</time></trkpt><trkpt lat="43.58031843864227" lon="12.452547140946345"><ele>426.66666666666663</ele><time>2026-04-26T11:54:25Z</time></trkpt><trkpt lat="43.58020241452074" lon="12.452370581351408"><ele>425.0</ele><time>2026-04-26T11:54:26Z</time></trkpt><trkpt lat="43.580105181201496" lon="12.452171723336894"><ele>430.0</ele><time>2026-04-26T11:54:27Z</time></trkpt><trkpt lat="43.58000334915882" lon="12.451704869736595"><ele>435.0</ele><time>2026-04-26T11:54:29Z</time></trkpt><trkpt lat="43.58001830213699" lon="12.45144075891339"><ele>434.66666666666663</ele><time>2026-04-26T11:54:30Z</time></trkpt><trkpt lat="43.58005741740368" lon="12.45119682659087"><ele>434.3333333333333</ele><time>2026-04-26T11:54:31Z</time></trkpt><trkpt lat="43.580100853448734" lon="12.450964448896636"><ele>434.0</ele><time>2026-04-26T11:54:32Z</time></trkpt><trkpt lat="43.5801326981679" lon="12.450744532891521"><ele>434.0</ele><time>2026-04-26T11:54:33Z</time></trkpt><trkpt lat="43.580146864784304" lon="12.450531284895495"><ele>434.0</ele><time>2026-04-26T11:54:34Z</time></trkpt><trkpt lat="43.58013143413508" lon="12.450315626699645"><ele>434.0</ele><time>2026-04-26T11:54:35Z</time></trkpt><trkpt lat="43.58008179695399" lon="12.450091130428032"><ele>433.3333333333333</ele><time>2026-04-26T11:54:36Z</time></trkpt><trkpt lat="43.58001255234802" lon="12.449874878909672"><ele>432.66666666666663</ele><time>2026-04-26T11:54:37Z</time></trkpt><trkpt lat="43.5798959304424" lon="12.449673311255182"><ele>432.0</ele><time>2026-04-26T11:54:38Z</time></trkpt><trkpt lat="43.5797463863935" lon="12.449470622964714"><ele>433.66666666666663</ele><time>2026-04-26T11:54:39Z</time></trkpt><trkpt lat="43.57959532405841" lon="12.449266954601887"><ele>435.3333333333333</ele><time>2026-04-26T11:54:40Z</time></trkpt><trkpt lat="43.579427029650276" lon="12.449042900464375"><ele>437.0</ele><time>2026-04-26T11:54:41Z</time></trkpt><trkpt lat="43.5792809408917" lon="12.448821704464729"><ele>440.5</ele><time>2026-04-26T11:54:42Z</time></trkpt><trkpt lat="43.57911549172202" lon="12.4485821436401"><ele>444.0</ele><time>2026-04-26T11:54:43Z</time></trkpt><trkpt lat="43.57895599959628" lon="12.448350818999032"><ele>444.0</ele><time>2026-04-26T11:54:44Z</time></trkpt><trkpt lat="43.578800006194115" lon="12.448137485202254"><ele>444.0</ele><time>2026-04-26T11:54:45Z</time></trkpt><trkpt lat="43.57865095223971" lon="12.44791099622109"><ele>444.0</ele><time>2026-04-26T11:54:46Z</time></trkpt><trkpt lat="43.57852116823304" lon="12.44768737728485"><ele>445.0</ele><time>2026-04-26T11:54:47Z</time></trkpt><trkpt lat="43.57841283234999" lon="12.447472693822474"><ele>446.0</ele><time>2026-04-26T11:54:48Z</time></trkpt><trkpt lat="43.578333491259286" lon="12.447240542776001"><ele>447.0</ele><time>2026-04-26T11:54:49Z</time></trkpt><trkpt lat="43.57828203139732" lon="12.447023300966807"><ele>447.0</ele><time>2026-04-26T11:54:50Z</time></trkpt><trkpt lat="43.57824483382932" lon="12.446820429242564"><ele>447.0</ele><time>2026-04-26T11:54:51Z</time></trkpt><trkpt lat="43.57818160291814" lon="12.446623857215041"><ele>447.0</ele><time>2026-04-26T11:54:52Z</time></trkpt><trkpt lat="43.57808984634948" lon="12.446442653356742"><ele>447.0</ele><time>2026-04-26T11:54:53Z</time></trkpt><trkpt lat="43.57796785360588" lon="12.446260958748885"><ele>447.0</ele><time>2026-04-26T11:54:54Z</time></trkpt><trkpt lat="43.577812342957394" lon="12.446082081365187"><ele>447.0</ele><time>2026-04-26T11:54:55Z</time></trkpt><trkpt lat="43.577646391910235" lon="12.445909480801161"><ele>447.0</ele><time>2026-04-26T11:54:56Z</time></trkpt><trkpt lat="43.577468988484284" lon="12.445731616409539"><ele>447.0</ele><time>2026-04-26T11:54:57Z</time></trkpt><trkpt lat="43.57730565421145" lon="12.445555651784897"><ele>447.0</ele><time>2026-04-26T11:54:58Z</time></trkpt><trkpt lat="43.57715833569932" lon="12.445383275209833"><ele>446.66666666666663</ele><time>2026-04-26T11:54:59Z</time></trkpt><trkpt lat="43.57702439852227" lon="12.445207937705222"><ele>446.3333333333333</ele><time>2026-04-26T11:55:00Z</time></trkpt><trkpt lat="43.576929818116916" lon="12.44501876082174"><ele>446.0</ele><time>2026-04-26T11:55:01Z</time></trkpt><trkpt lat="43.57687213959548" lon="12.444796351115151"><ele>450.0</ele><time>2026-04-26T11:55:02Z</time></trkpt><trkpt lat="43.57680711286026" lon="12.444552944369581"><ele>454.0</ele><time>2026-04-26T11:55:03Z</time></trkpt><trkpt lat="43.57673866229629" lon="12.444343054533602"><ele>458.0</ele><time>2026-04-26T11:55:04Z</time></trkpt><trkpt lat="43.576641685723374" lon="12.444158548661893"><ele>458.0</ele><time>2026-04-26T11:55:05Z</time></trkpt><trkpt lat="43.57649942719785" lon="12.444003337763652"><ele>458.0</ele><time>2026-04-26T11:55:06Z</time></trkpt><trkpt lat="43.5763250457736" lon="12.443874925216976"><ele>458.0</ele><time>2026-04-26T11:55:07Z</time></trkpt><trkpt lat="43.5761323634475" lon="12.44376842290788"><ele>460.0</ele><time>2026-04-26T11:55:08Z</time></trkpt><trkpt lat="43.575916832336645" lon="12.443696003931002"><ele>462.0</ele><time>2026-04-26T11:55:09Z</time></trkpt><trkpt lat="43.5756966715695" lon="12.443649188237835"><ele>464.0</ele><time>2026-04-26T11:55:10Z</time></trkpt><trkpt lat="43.57548082001669" lon="12.443581561371191"><ele>461.3333333333333</ele><time>2026-04-26T11:55:11Z</time></trkpt><trkpt lat="43.57527385525325" lon="12.443508039810174"><ele>458.66666666666663</ele><time>2026-04-26T11:55:12Z</time></trkpt><trkpt lat="43.575078030662965" lon="12.443445780779227"><ele>456.0</ele><time>2026-04-26T11:55:13Z</time></trkpt><trkpt lat="43.57488031482119" lon="12.443365790864686"><ele>456.0</ele><time>2026-04-26T11:55:14Z</time></trkpt><trkpt lat="43.57468606381178" lon="12.443227510724428"><ele>456.0</ele><time>2026-04-26T11:55:15Z</time></trkpt><trkpt lat="43.57447786517693" lon="12.44308062548447"><ele>459.5</ele><time>2026-04-26T11:55:16.001Z</time></trkpt><trkpt lat="43.574243835213345" lon="12.442915426440788"><ele>463.0</ele><time>2026-04-26T11:55:17.001Z</time></trkpt><trkpt lat="43.574018063167486" lon="12.442759757822982"><ele>463.0</ele><time>2026-04-26T11:55:18.001Z</time></trkpt><trkpt lat="43.57378894857969" lon="12.442602397845384"><ele>463.0</ele><time>2026-04-26T11:55:19.001Z</time></trkpt><trkpt lat="43.57355592960557" lon="12.442466018269384"><ele>458.0</ele><time>2026-04-26T11:55:20.001Z</time></trkpt><trkpt lat="43.573338213072724" lon="12.442320968001074"><ele>453.0</ele><time>2026-04-26T11:55:21.001Z</time></trkpt><trkpt lat="43.573139972420336" lon="12.442197561108717"><ele>455.0</ele><time>2026-04-26T11:55:22.001Z</time></trkpt><trkpt lat="43.57295194740657" lon="12.442074174151282"><ele>457.0</ele><time>2026-04-26T11:55:23.001Z</time></trkpt><trkpt lat="43.5727715143542" lon="12.441955710676561"><ele>459.0</ele><time>2026-04-26T11:55:24.001Z</time></trkpt><trkpt lat="43.572632560342264" lon="12.441791703967533"><ele>459.0</ele><time>2026-04-26T11:55:25.001Z</time></trkpt><trkpt lat="43.572463199955756" lon="12.44162462473055"><ele>459.0</ele><time>2026-04-26T11:55:26.001Z</time></trkpt><trkpt lat="43.57228959742284" lon="12.441452491820588"><ele>459.0</ele><time>2026-04-26T11:55:27.001Z</time></trkpt><trkpt lat="43.572105457522866" lon="12.441271793975943"><ele>460.66666666666663</ele><time>2026-04-26T11:55:28.001Z</time></trkpt><trkpt lat="43.57193423821403" lon="12.441106643515212"><ele>462.3333333333333</ele><time>2026-04-26T11:55:29.001Z</time></trkpt><trkpt lat="43.57175238516957" lon="12.440936993290135"><ele>464.0</ele><time>2026-04-26T11:55:30.001Z</time></trkpt><trkpt lat="43.57157994968143" lon="12.440789679055488"><ele>464.0</ele><time>2026-04-26T11:55:31.001Z</time></trkpt><trkpt lat="43.57140490749115" lon="12.440658145433654"><ele>464.0</ele><time>2026-04-26T11:55:32.001Z</time></trkpt><trkpt lat="43.57122856493993" lon="12.44052912538143"><ele>464.0</ele><time>2026-04-26T11:55:33.001Z</time></trkpt><trkpt lat="43.57105402288003" lon="12.440394257203213"><ele>463.66666666666663</ele><time>2026-04-26T11:55:34.001Z</time></trkpt><trkpt lat="43.570882339898375" lon="12.440227999311674"><ele>463.33333333333337</ele><time>2026-04-26T11:55:35.001Z</time></trkpt><trkpt lat="43.57072550355056" lon="12.440034933166626"><ele>463.0</ele><time>2026-04-26T11:55:36.001Z</time></trkpt><trkpt lat="43.570585693216714" lon="12.439829361960046"><ele>461.33333333333337</ele><time>2026-04-26T11:55:37.001Z</time></trkpt><trkpt lat="43.57047092469316" lon="12.439615744905824"><ele>459.66666666666663</ele><time>2026-04-26T11:55:38.001Z</time></trkpt><trkpt lat="43.57036338445172" lon="12.439379900844944"><ele>458.0</ele><time>2026-04-26T11:55:39.001Z</time></trkpt><trkpt lat="43.57026681521011" lon="12.439126472779648"><ele>458.0</ele><time>2026-04-26T11:55:40.001Z</time></trkpt><trkpt lat="43.57017252693639" lon="12.438876499216672"><ele>458.0</ele><time>2026-04-26T11:55:41.001Z</time></trkpt><trkpt lat="43.57007452397044" lon="12.438615225256443"><ele>458.0</ele><time>2026-04-26T11:55:42.001Z</time></trkpt><trkpt lat="43.569972666016994" lon="12.438346777582026"><ele>458.0</ele><time>2026-04-26T11:55:43.001Z</time></trkpt><trkpt lat="43.56986997705561" lon="12.438074843048145"><ele>458.0</ele><time>2026-04-26T11:55:44.001Z</time></trkpt><trkpt lat="43.569765077186034" lon="12.437798121632149"><ele>458.0</ele><time>2026-04-26T11:55:45.001Z</time></trkpt><trkpt lat="43.569669552579036" lon="12.437526609148474"><ele>458.0</ele><time>2026-04-26T11:55:46.001Z</time></trkpt><trkpt lat="43.569584293856636" lon="12.437249073537814"><ele>458.0</ele><time>2026-04-26T11:55:47.001Z</time></trkpt><trkpt lat="43.56950195299031" lon="12.436958296834879"><ele>458.0</ele><time>2026-04-26T11:55:48.001Z</time></trkpt><trkpt lat="43.56942501443295" lon="12.436673962043304"><ele>458.0</ele><time>2026-04-26T11:55:49.001Z</time></trkpt><trkpt lat="43.56935074881216" lon="12.436393140286377"><ele>458.0</ele><time>2026-04-26T11:55:50.001Z</time></trkpt><trkpt lat="43.56927729800971" lon="12.436125664187747"><ele>458.0</ele><time>2026-04-26T11:55:51.001Z</time></trkpt><trkpt lat="43.56918895760311" lon="12.435906638106754"><ele>459.0</ele><time>2026-04-26T11:55:52.001Z</time></trkpt><trkpt lat="43.56911296613982" lon="12.435701086873221"><ele>460.0</ele><time>2026-04-26T11:55:53.001Z</time></trkpt><trkpt lat="43.56900564123127" lon="12.435504575867443"><ele>461.0</ele><time>2026-04-26T11:55:54.001Z</time></trkpt><trkpt lat="43.56886402901368" lon="12.43534823406845"><ele>460.3333333333333</ele><time>2026-04-26T11:55:55.001Z</time></trkpt><trkpt lat="43.56868945955118" lon="12.43521985548612"><ele>459.66666666666663</ele><time>2026-04-26T11:55:56.001Z</time></trkpt><trkpt lat="43.56850440619149" lon="12.435115192620446"><ele>459.0</ele><time>2026-04-26T11:55:57.001Z</time></trkpt><trkpt lat="43.56831247565333" lon="12.435003907594412"><ele>459.0</ele><time>2026-04-26T11:55:58.001Z</time></trkpt><trkpt lat="43.56811629684958" lon="12.434877573816616"><ele>459.0</ele><time>2026-04-26T11:55:59.001Z</time></trkpt><trkpt lat="43.567912230409" lon="12.434750019834519"><ele>459.0</ele><time>2026-04-26T11:56:00.001Z</time></trkpt><trkpt lat="43.567709289522874" lon="12.434620747965429"><ele>458.66666666666663</ele><time>2026-04-26T11:56:01.001Z</time></trkpt><trkpt lat="43.56750232974538" lon="12.434489372390832"><ele>458.3333333333333</ele><time>2026-04-26T11:56:02.001Z</time></trkpt><trkpt lat="43.567305997400126" lon="12.434357523169133"><ele>458.0</ele><time>2026-04-26T11:56:03.002Z</time></trkpt><trkpt lat="43.56710601041191" lon="12.434221817724454"><ele>459.0</ele><time>2026-04-26T11:56:04.002Z</time></trkpt><trkpt lat="43.56691280100921" lon="12.434065915671946"><ele>460.0</ele><time>2026-04-26T11:56:05.002Z</time></trkpt><trkpt lat="43.56673013170508" lon="12.433888127266485"><ele>461.0</ele><time>2026-04-26T11:56:06.002Z</time></trkpt><trkpt lat="43.56655716077851" lon="12.433684907754587"><ele>461.0</ele><time>2026-04-26T11:56:07.002Z</time></trkpt><trkpt lat="43.56639357727532" lon="12.433465950491057"><ele>461.0</ele><time>2026-04-26T11:56:08.002Z</time></trkpt><trkpt lat="43.56622806666419" lon="12.433229786825091"><ele>462.5</ele><time>2026-04-26T11:56:09.002Z</time></trkpt><trkpt lat="43.56605800955008" lon="12.43298544913565"><ele>464.0</ele><time>2026-04-26T11:56:10.001Z</time></trkpt><trkpt lat="43.56588932899087" lon="12.432730901790343"><ele>464.0</ele><time>2026-04-26T11:56:11.001Z</time></trkpt><trkpt lat="43.565721871527025" lon="12.432455666251002"><ele>464.0</ele><time>2026-04-26T11:56:12.001Z</time></trkpt><trkpt lat="43.56553836282947" lon="12.432174857030166"><ele>464.5</ele><time>2026-04-26T11:56:13.001Z</time></trkpt><trkpt lat="43.56534179561519" lon="12.431879480319365"><ele>465.0</ele><time>2026-04-26T11:56:14.001Z</time></trkpt><trkpt lat="43.56515252349393" lon="12.431594405454742"><ele>465.0</ele><time>2026-04-26T11:56:15.001Z</time></trkpt><trkpt lat="43.56499339703302" lon="12.431343571909002"><ele>465.0</ele><time>2026-04-26T11:56:16.001Z</time></trkpt><trkpt lat="43.5648721891444" lon="12.431113391391861"><ele>465.0</ele><time>2026-04-26T11:56:17.001Z</time></trkpt><trkpt lat="43.56477907565313" lon="12.430897134741215"><ele>467.66666666666663</ele><time>2026-04-26T11:56:18.001Z</time></trkpt><trkpt lat="43.564686731565686" lon="12.430690107073046"><ele>470.3333333333333</ele><time>2026-04-26T11:56:19.001Z</time></trkpt><trkpt lat="43.56464578156948" lon="12.43041585653757"><ele>473.0</ele><time>2026-04-26T11:56:20.001Z</time></trkpt><trkpt lat="43.56457675894293" lon="12.430183035703571"><ele>472.0</ele><time>2026-04-26T11:56:21.001Z</time></trkpt><trkpt lat="43.56450344733222" lon="12.429913230478553"><ele>471.0</ele><time>2026-04-26T11:56:22.001Z</time></trkpt><trkpt lat="43.56439111372927" lon="12.42966407411534"><ele>470.0</ele><time>2026-04-26T11:56:23.001Z</time></trkpt><trkpt lat="43.564259048389786" lon="12.429433435677517"><ele>473.66666666666663</ele><time>2026-04-26T11:56:24.001Z</time></trkpt><trkpt lat="43.56410614750778" lon="12.429215088838701"><ele>477.33333333333337</ele><time>2026-04-26T11:56:25.001Z</time></trkpt><trkpt lat="43.56395814027372" lon="12.429008772276521"><ele>481.0</ele><time>2026-04-26T11:56:26.001Z</time></trkpt><trkpt lat="43.56380292833486" lon="12.428823792498052"><ele>484.33333333333337</ele><time>2026-04-26T11:56:27.001Z</time></trkpt><trkpt lat="43.56364664682251" lon="12.42867743251322"><ele>487.66666666666663</ele><time>2026-04-26T11:56:28.001Z</time></trkpt><trkpt lat="43.563474435769386" lon="12.428546583912198"><ele>491.0</ele><time>2026-04-26T11:56:29.001Z</time></trkpt><trkpt lat="43.563278883026165" lon="12.42847303105511"><ele>491.0</ele><time>2026-04-26T11:56:30.001Z</time></trkpt><trkpt lat="43.56307892112104" lon="12.428399112314013"><ele>491.0</ele><time>2026-04-26T11:56:31.001Z</time></trkpt><trkpt lat="43.56284691995607" lon="12.428349535004896"><ele>491.0</ele><time>2026-04-26T11:56:32.001Z</time></trkpt><trkpt lat="43.56261282757729" lon="12.428294652632466"><ele>483.5</ele><time>2026-04-26T11:56:33.001Z</time></trkpt><trkpt lat="43.56236081548305" lon="12.428212295508741"><ele>476.0</ele><time>2026-04-26T11:56:34.001Z</time></trkpt><trkpt lat="43.562111940890894" lon="12.42815142732764"><ele>473.0</ele><time>2026-04-26T11:56:35.001Z</time></trkpt><trkpt lat="43.56187086881418" lon="12.428080658824687"><ele>470.0</ele><time>2026-04-26T11:56:36.001Z</time></trkpt><trkpt lat="43.561647524609725" lon="12.428017694619378"><ele>474.3333333333333</ele><time>2026-04-26T11:56:37.001Z</time></trkpt><trkpt lat="43.56144029660212" lon="12.42796734744548"><ele>478.66666666666663</ele><time>2026-04-26T11:56:38.001Z</time></trkpt><trkpt lat="43.56124848663478" lon="12.427928711993067"><ele>483.0</ele><time>2026-04-26T11:56:39.001Z</time></trkpt><trkpt lat="43.56106588060433" lon="12.427882598692456"><ele>483.0</ele><time>2026-04-26T11:56:40.001Z</time></trkpt><trkpt lat="43.56089555409385" lon="12.427842833633472"><ele>483.0</ele><time>2026-04-26T11:56:41.001Z</time></trkpt><trkpt lat="43.56073976651009" lon="12.427788316940589"><ele>483.0</ele><time>2026-04-26T11:56:42.001Z</time></trkpt><trkpt lat="43.560584992071604" lon="12.427735120199104"><ele>483.0</ele><time>2026-04-26T11:56:43.001Z</time></trkpt><trkpt lat="43.56044363625957" lon="12.42765002301927"><ele>483.0</ele><time>2026-04-26T11:56:44.001Z</time></trkpt><trkpt lat="43.56030140101837" lon="12.427530147696343"><ele>483.0</ele><time>2026-04-26T11:56:45.001Z</time></trkpt><trkpt lat="43.560159304403776" lon="12.427388293008486"><ele>484.33333333333337</ele><time>2026-04-26T11:56:46.001Z</time></trkpt><trkpt lat="43.560020344587386" lon="12.427242410865166"><ele>485.6666666666667</ele><time>2026-04-26T11:56:47.001Z</time></trkpt><trkpt lat="43.55990260550363" lon="12.427092532373777"><ele>487.0</ele><time>2026-04-26T11:56:48.001Z</time></trkpt><trkpt lat="43.55978292082609" lon="12.426936769043254"><ele>487.0</ele><time>2026-04-26T11:56:49.001Z</time></trkpt><trkpt lat="43.55968726946222" lon="12.426792237569341"><ele>487.0</ele><time>2026-04-26T11:56:50.001Z</time></trkpt><trkpt lat="43.559601112404195" lon="12.426623805896085"><ele>487.0</ele><time>2026-04-26T11:56:51.001Z</time></trkpt><trkpt lat="43.559528271242776" lon="12.426448116451981"><ele>487.0</ele><time>2026-04-26T11:56:52.001Z</time></trkpt><trkpt lat="43.55949125834825" lon="12.426259414352264"><ele>483.5</ele><time>2026-04-26T11:56:53.001Z</time></trkpt><trkpt lat="43.5594696060707" lon="12.426073686409877"><ele>480.0</ele><time>2026-04-26T11:56:54.001Z</time></trkpt><trkpt lat="43.559448282024434" lon="12.425890401646182"><ele>476.5</ele><time>2026-04-26T11:56:55.001Z</time></trkpt><trkpt lat="43.5594298502988" lon="12.425701548939887"><ele>473.0</ele><time>2026-04-26T11:56:56.001Z</time></trkpt><trkpt lat="43.55940762906195" lon="12.42551543407244"><ele>473.75</ele><time>2026-04-26T11:56:57.001Z</time></trkpt><trkpt lat="43.55938375225903" lon="12.42534268802059"><ele>474.5</ele><time>2026-04-26T11:56:58.001Z</time></trkpt><trkpt lat="43.5593574614398" lon="12.425186855261419"><ele>475.25</ele><time>2026-04-26T11:56:59.001Z</time></trkpt><trkpt lat="43.55933462375748" lon="12.425029729354598"><ele>476.0</ele><time>2026-04-26T11:57:00.001Z</time></trkpt><trkpt lat="43.55930746832805" lon="12.424861380843828"><ele>476.0</ele><time>2026-04-26T11:57:01.001Z</time></trkpt><trkpt lat="43.55928121466507" lon="12.424689389623445"><ele>476.0</ele><time>2026-04-26T11:57:02.001Z</time></trkpt><trkpt lat="43.55926296248168" lon="12.42453274466749"><ele>476.0</ele><time>2026-04-26T11:57:03.001Z</time></trkpt><trkpt lat="43.55924197881597" lon="12.42438709049743"><ele>476.0</ele><time>2026-04-26T11:57:04.001Z</time></trkpt><trkpt lat="43.55921702160537" lon="12.424240366572079"><ele>477.4</ele><time>2026-04-26T11:57:05.001Z</time></trkpt><trkpt lat="43.559189717617095" lon="12.424106986576096"><ele>478.8</ele><time>2026-04-26T11:57:06.001Z</time></trkpt><trkpt lat="43.55916979203383" lon="12.423964141974322"><ele>480.19999999999993</ele><time>2026-04-26T11:57:07.001Z</time></trkpt><trkpt lat="43.559158678191885" lon="12.423807059125533"><ele>481.59999999999997</ele><time>2026-04-26T11:57:08.001Z</time></trkpt><trkpt lat="43.55916026357817" lon="12.423635687493348"><ele>483.0</ele><time>2026-04-26T11:57:09.001Z</time></trkpt><trkpt lat="43.55917817255195" lon="12.42346023488601"><ele>483.2</ele><time>2026-04-26T11:57:10.001Z</time></trkpt><trkpt lat="43.559196423685776" lon="12.423293598264936"><ele>483.4</ele><time>2026-04-26T11:57:11.001Z</time></trkpt><trkpt lat="43.5592221314092" lon="12.42313938405639"><ele>483.59999999999997</ele><time>2026-04-26T11:57:12.001Z</time></trkpt><trkpt lat="43.55923357770006" lon="12.422997246334763"><ele>483.79999999999995</ele><time>2026-04-26T11:57:13.001Z</time></trkpt><trkpt lat="43.55924375794185" lon="12.42284737879294"><ele>484.0</ele><time>2026-04-26T11:57:14.001Z</time></trkpt><trkpt lat="43.55926113396904" lon="12.42267682749236"><ele>483.25</ele><time>2026-04-26T11:57:15.001Z</time></trkpt><trkpt lat="43.5592747187582" lon="12.422502434516051"><ele>482.5</ele><time>2026-04-26T11:57:16.001Z</time></trkpt><trkpt lat="43.55928463263173" lon="12.422346341687641"><ele>481.75</ele><time>2026-04-26T11:57:17.001Z</time></trkpt><trkpt lat="43.55928382796858" lon="12.422190356346395"><ele>481.0</ele><time>2026-04-26T11:57:18.001Z</time></trkpt><trkpt lat="43.55927337392793" lon="12.422014950176594"><ele>480.25</ele><time>2026-04-26T11:57:19.001Z</time></trkpt><trkpt lat="43.55925034860285" lon="12.421828431354347"><ele>479.5</ele><time>2026-04-26T11:57:20.001Z</time></trkpt><trkpt lat="43.55922689144456" lon="12.421650940073043"><ele>478.75</ele><time>2026-04-26T11:57:21.001Z</time></trkpt><trkpt lat="43.55921064314991" lon="12.421492474199535"><ele>478.0</ele><time>2026-04-26T11:57:22.001Z</time></trkpt><trkpt lat="43.55918937329294" lon="12.421320602314243"><ele>477.25</ele><time>2026-04-26T11:57:23.001Z</time></trkpt><trkpt lat="43.55917350874289" lon="12.421131029278797"><ele>476.5</ele><time>2026-04-26T11:57:24.001Z</time></trkpt><trkpt lat="43.559152245180734" lon="12.420945566881771"><ele>475.75</ele><time>2026-04-26T11:57:25.001Z</time></trkpt><trkpt lat="43.55913690753108" lon="12.420749548511377"><ele>475.0</ele><time>2026-04-26T11:57:26.001Z</time></trkpt><trkpt lat="43.55912402220236" lon="12.420581799187353"><ele>475.75</ele><time>2026-04-26T11:57:27.001Z</time></trkpt><trkpt lat="43.55910409684586" lon="12.42043079105087"><ele>476.5</ele><time>2026-04-26T11:57:28.001Z</time></trkpt><trkpt lat="43.559088272220336" lon="12.420288017669916"><ele>477.25</ele><time>2026-04-26T11:57:29.001Z</time></trkpt><trkpt lat="43.559085032665394" lon="12.420125544777282"><ele>478.0</ele><time>2026-04-26T11:57:30.001Z</time></trkpt><trkpt lat="43.55906584702222" lon="12.419955006543189"><ele>478.0</ele><time>2026-04-26T11:57:31.001Z</time></trkpt><trkpt lat="43.55902955376496" lon="12.419779907398077"><ele>477.99999999999994</ele><time>2026-04-26T11:57:32.001Z</time></trkpt><trkpt lat="43.559023113397984" lon="12.419632152970694"><ele>477.99999999999994</ele><time>2026-04-26T11:57:33.001Z</time></trkpt><trkpt lat="43.559014879778175" lon="12.419484469216314"><ele>478.0</ele><time>2026-04-26T11:57:34.001Z</time></trkpt><trkpt lat="43.5590063489928" lon="12.419356204670041"><ele>478.0</ele><time>2026-04-26T11:57:35.001Z</time></trkpt><trkpt lat="43.55899315142619" lon="12.419225324213196"><ele>478.4</ele><time>2026-04-26T11:57:36.001Z</time></trkpt><trkpt lat="43.55902652455514" lon="12.419068278896502"><ele>478.79999999999995</ele><time>2026-04-26T11:57:37.001Z</time></trkpt><trkpt lat="43.55903200617099" lon="12.418901598775829"><ele>479.2</ele><time>2026-04-26T11:57:38.001Z</time></trkpt><trkpt lat="43.55903884644439" lon="12.418750547876586"><ele>479.6</ele><time>2026-04-26T11:57:39.001Z</time></trkpt><trkpt lat="43.55904610043707" lon="12.418616770144842"><ele>480.0</ele><time>2026-04-26T11:57:40.001Z</time></trkpt><trkpt lat="43.55905655654012" lon="12.418481978505659"><ele>480.4</ele><time>2026-04-26T11:57:41.001Z</time></trkpt><trkpt lat="43.55907111253229" lon="12.418343770340654"><ele>480.8</ele><time>2026-04-26T11:57:42.001Z</time></trkpt><trkpt lat="43.55909083636372" lon="12.418189926419394"><ele>481.20000000000005</ele><time>2026-04-26T11:57:43.001Z</time></trkpt><trkpt lat="43.55911171277408" lon="12.418041300101057"><ele>481.6</ele><time>2026-04-26T11:57:44.001Z</time></trkpt><trkpt lat="43.55913722774239" lon="12.417923285120233"><ele>482.0</ele><time>2026-04-26T11:57:45.001Z</time></trkpt><trkpt lat="43.55919130573726" lon="12.41782432863552"><ele>482.25</ele><time>2026-04-26T11:57:46.001Z</time></trkpt><trkpt lat="43.559246995566475" lon="12.417699216504118"><ele>482.5</ele><time>2026-04-26T11:57:47.001Z</time></trkpt><trkpt lat="43.5593486640872" lon="12.41760387781025"><ele>482.75</ele><time>2026-04-26T11:57:48.001Z</time></trkpt><trkpt lat="43.559454900481164" lon="12.417479766558435"><ele>483.0</ele><time>2026-04-26T11:57:49.001Z</time></trkpt><trkpt lat="43.55955609331882" lon="12.41737053028179"><ele>483.0</ele><time>2026-04-26T11:57:50.001Z</time></trkpt><trkpt lat="43.55964306788289" lon="12.417272626433197"><ele>483.0</ele><time>2026-04-26T11:57:51.001Z</time></trkpt><trkpt lat="43.55971980263573" lon="12.417179722658362"><ele>483.0</ele><time>2026-04-26T11:57:52.001Z</time></trkpt><trkpt lat="43.55980141989906" lon="12.417068805530299"><ele>483.0</ele><time>2026-04-26T11:57:53.001Z</time></trkpt><trkpt lat="43.55988895959389" lon="12.416952705307342"><ele>484.75</ele><time>2026-04-26T11:57:54.001Z</time></trkpt><trkpt lat="43.559954563268185" lon="12.416822906455172"><ele>486.5</ele><time>2026-04-26T11:57:55.001Z</time></trkpt><trkpt lat="43.560001041827924" lon="12.416682494715968"><ele>488.25</ele><time>2026-04-26T11:57:56.001Z</time></trkpt><trkpt lat="43.560029434970026" lon="12.416526505067845"><ele>490.0</ele><time>2026-04-26T11:57:57.001Z</time></trkpt><trkpt lat="43.560023359402116" lon="12.416365973318118"><ele>491.25</ele><time>2026-04-26T11:57:58.001Z</time></trkpt><trkpt lat="43.55995993691497" lon="12.416207110453188"><ele>492.5</ele><time>2026-04-26T11:57:59.001Z</time></trkpt><trkpt lat="43.559882969616105" lon="12.41604903360071"><ele>493.75</ele><time>2026-04-26T11:58:00.001Z</time></trkpt><trkpt lat="43.55981053956699" lon="12.41589233035852"><ele>495.0</ele><time>2026-04-26T11:58:01.001Z</time></trkpt><trkpt lat="43.55973448419278" lon="12.415735044467171"><ele>495.0</ele><time>2026-04-26T11:58:02.001Z</time></trkpt><trkpt lat="43.5596645721963" lon="12.415590974880411"><ele>495.0</ele><time>2026-04-26T11:58:03.001Z</time></trkpt><trkpt lat="43.55961190658638" lon="12.415454260647481"><ele>495.0</ele><time>2026-04-26T11:58:04.001Z</time></trkpt><trkpt lat="43.55957150658998" lon="12.415309092052105"><ele>495.0</ele><time>2026-04-26T11:58:05.001Z</time></trkpt><trkpt lat="43.55954590341059" lon="12.41514633781682"><ele>495.75</ele><time>2026-04-26T11:58:06.001Z</time></trkpt><trkpt lat="43.55955396285383" lon="12.414951356169741"><ele>496.5</ele><time>2026-04-26T11:58:07.001Z</time></trkpt><trkpt lat="43.55958117512044" lon="12.414767285877897"><ele>497.25</ele><time>2026-04-26T11:58:08.001Z</time></trkpt><trkpt lat="43.55959631072793" lon="12.414603721682456"><ele>498.0</ele><time>2026-04-26T11:58:09.001Z</time></trkpt><trkpt lat="43.559599503973416" lon="12.414434812617232"><ele>500.0</ele><time>2026-04-26T11:58:10.001Z</time></trkpt><trkpt lat="43.55960160854478" lon="12.41425975212092"><ele>502.0</ele><time>2026-04-26T11:58:11.001Z</time></trkpt><trkpt lat="43.55959205347388" lon="12.414067957560341"><ele>504.0</ele><time>2026-04-26T11:58:12.001Z</time></trkpt><trkpt lat="43.55956663190772" lon="12.413885449464097"><ele>506.0</ele><time>2026-04-26T11:58:13.001Z</time></trkpt><trkpt lat="43.559536936083646" lon="12.413741713441736"><ele>501.0</ele><time>2026-04-26T11:58:14.001Z</time></trkpt><trkpt lat="43.55949611978198" lon="12.413607098119723"><ele>496.0</ele><time>2026-04-26T11:58:15.001Z</time></trkpt><trkpt lat="43.559442528230846" lon="12.41347121578167"><ele>491.0</ele><time>2026-04-26T11:58:16.001Z</time></trkpt><trkpt lat="43.55940153969891" lon="12.413315404638206"><ele>486.0</ele><time>2026-04-26T11:58:17.001Z</time></trkpt><trkpt lat="43.55935795483808" lon="12.413166499744618"><ele>486.0</ele><time>2026-04-26T11:58:18.001Z</time></trkpt><trkpt lat="43.55931597371212" lon="12.413021801898205"><ele>486.0</ele><time>2026-04-26T11:58:19.001Z</time></trkpt><trkpt lat="43.55927475922267" lon="12.412887398774766"><ele>486.0</ele><time>2026-04-26T11:58:20.001Z</time></trkpt><trkpt lat="43.55923746821533" lon="12.412760571628478"><ele>486.0</ele><time>2026-04-26T11:58:21.001Z</time></trkpt><trkpt lat="43.55920129652478" lon="12.41261051449285"><ele>486.0</ele><time>2026-04-26T11:58:22.001Z</time></trkpt><trkpt lat="43.55915427642348" lon="12.412451845700305"><ele>487.75</ele><time>2026-04-26T11:58:23.001Z</time></trkpt><trkpt lat="43.55913056696199" lon="12.412276654390505"><ele>489.5</ele><time>2026-04-26T11:58:24.001Z</time></trkpt><trkpt lat="43.559089492631564" lon="12.412120239728502"><ele>491.25</ele><time>2026-04-26T11:58:25.001Z</time></trkpt><trkpt lat="43.5590584107336" lon="12.411959038703499"><ele>493.0</ele><time>2026-04-26T11:58:26.001Z</time></trkpt><trkpt lat="43.55901314593143" lon="12.411785579880565"><ele>495.75</ele><time>2026-04-26T11:58:27.001Z</time></trkpt><trkpt lat="43.55896095532933" lon="12.411606382268163"><ele>498.5</ele><time>2026-04-26T11:58:28.001Z</time></trkpt><trkpt lat="43.55891051822793" lon="12.41140795127106"><ele>501.25</ele><time>2026-04-26T11:58:29.001Z</time></trkpt><trkpt lat="43.55884836208686" lon="12.411218676486461"><ele>504.0</ele><time>2026-04-26T11:58:30.001Z</time></trkpt><trkpt lat="43.5587662312412" lon="12.411025817750659"><ele>499.0</ele><time>2026-04-26T11:58:31.001Z</time></trkpt><trkpt lat="43.558677326901524" lon="12.410836164629604"><ele>494.0</ele><time>2026-04-26T11:58:32.001Z</time></trkpt><trkpt lat="43.55854096514245" lon="12.410658895798111"><ele>489.0</ele><time>2026-04-26T11:58:33.001Z</time></trkpt><trkpt lat="43.558399986531256" lon="12.410489760722884"><ele>489.0</ele><time>2026-04-26T11:58:34.001Z</time></trkpt><trkpt lat="43.558244323278686" lon="12.410304920037614"><ele>489.0</ele><time>2026-04-26T11:58:35.001Z</time></trkpt><trkpt lat="43.558067299084314" lon="12.410122394281833"><ele>489.0</ele><time>2026-04-26T11:58:36.001Z</time></trkpt><trkpt lat="43.55787242457421" lon="12.409931223826215"><ele>488.5</ele><time>2026-04-26T11:58:37.001Z</time></trkpt><trkpt lat="43.55765901855312" lon="12.409718243403846"><ele>488.0</ele><time>2026-04-26T11:58:38.001Z</time></trkpt><trkpt lat="43.55740817237874" lon="12.409502708352601"><ele>487.0</ele><time>2026-04-26T11:58:39.001Z</time></trkpt><trkpt lat="43.557162440632396" lon="12.409257243070195"><ele>486.0</ele><time>2026-04-26T11:58:40.001Z</time></trkpt><trkpt lat="43.556915349887575" lon="12.409027419750759"><ele>486.0</ele><time>2026-04-26T11:58:41.001Z</time></trkpt><trkpt lat="43.55673924870884" lon="12.408842783317025"><ele>486.0</ele><time>2026-04-26T11:58:43.001Z</time></trkpt><trkpt lat="43.55656810697307" lon="12.408683194354067"><ele>486.0</ele><time>2026-04-26T11:58:44.001Z</time></trkpt><trkpt lat="43.556392465212404" lon="12.408510703118337"><ele>487.5</ele><time>2026-04-26T11:58:45.001Z</time></trkpt><trkpt lat="43.556227164745664" lon="12.408294803739457"><ele>489.0</ele><time>2026-04-26T11:58:46.001Z</time></trkpt><trkpt lat="43.556047196056674" lon="12.408098723267802"><ele>493.0</ele><time>2026-04-26T11:58:47.001Z</time></trkpt><trkpt lat="43.555896154843104" lon="12.40785177338691"><ele>497.0</ele><time>2026-04-26T11:58:48.001Z</time></trkpt><trkpt lat="43.55573947497408" lon="12.407614447609424"><ele>497.0</ele><time>2026-04-26T11:58:49.001Z</time></trkpt><trkpt lat="43.55558239052461" lon="12.407369140482373"><ele>497.0</ele><time>2026-04-26T11:58:50.001Z</time></trkpt><trkpt lat="43.55543446930017" lon="12.407133503083275"><ele>496.66666666666663</ele><time>2026-04-26T11:58:51.001Z</time></trkpt><trkpt lat="43.555296094143586" lon="12.4069092380176"><ele>496.33333333333337</ele><time>2026-04-26T11:58:52.001Z</time></trkpt><trkpt lat="43.55517226742928" lon="12.406708587269396"><ele>496.0</ele><time>2026-04-26T11:58:53.001Z</time></trkpt><trkpt lat="43.55508474110249" lon="12.406487392501852"><ele>499.0</ele><time>2026-04-26T11:58:54.001Z</time></trkpt><trkpt lat="43.5550028541544" lon="12.40622619516607"><ele>502.0</ele><time>2026-04-26T11:58:55.001Z</time></trkpt><trkpt lat="43.55489658202477" lon="12.405960693276063"><ele>505.0</ele><time>2026-04-26T11:58:56.001Z</time></trkpt><trkpt lat="43.55474135268082" lon="12.405739328260859"><ele>505.0</ele><time>2026-04-26T11:58:57.001Z</time></trkpt><trkpt lat="43.55458763974326" lon="12.405513930549356"><ele>505.0</ele><time>2026-04-26T11:58:58.001Z</time></trkpt><trkpt lat="43.5543996119884" lon="12.405302162439195"><ele>503.0</ele><time>2026-04-26T11:58:59.001Z</time></trkpt><trkpt lat="43.55424452306993" lon="12.40504776447983"><ele>501.0</ele><time>2026-04-26T11:59:00.001Z</time></trkpt><trkpt lat="43.55408558133371" lon="12.404853767679674"><ele>501.0</ele><time>2026-04-26T11:59:01.001Z</time></trkpt><trkpt lat="43.553950866945456" lon="12.404666526183462"><ele>501.0</ele><time>2026-04-26T11:59:02.001Z</time></trkpt><trkpt lat="43.55383289004575" lon="12.404489362923837"><ele>501.0</ele><time>2026-04-26T11:59:03.001Z</time></trkpt><trkpt lat="43.55374984356221" lon="12.404287473690106"><ele>501.66666666666663</ele><time>2026-04-26T11:59:04.001Z</time></trkpt><trkpt lat="43.553681970561875" lon="12.404049752212488"><ele>502.3333333333333</ele><time>2026-04-26T11:59:05.001Z</time></trkpt><trkpt lat="43.55361427077751" lon="12.403771387266794"><ele>503.0</ele><time>2026-04-26T11:59:06.001Z</time></trkpt><trkpt lat="43.55354525408" lon="12.403481752462158"><ele>503.0</ele><time>2026-04-26T11:59:07.001Z</time></trkpt><trkpt lat="43.5534792528132" lon="12.403209308493382"><ele>503.0</ele><time>2026-04-26T11:59:08.001Z</time></trkpt><trkpt lat="43.55341763648212" lon="12.402966650370438"><ele>503.0</ele><time>2026-04-26T11:59:09.001Z</time></trkpt><trkpt lat="43.55334768639672" lon="12.40274220197361"><ele>507.3333333333333</ele><time>2026-04-26T11:59:10.001Z</time></trkpt><trkpt lat="43.553251491350544" lon="12.402546728795885"><ele>511.66666666666663</ele><time>2026-04-26T11:59:11.001Z</time></trkpt><trkpt lat="43.55313599454298" lon="12.402361227157495"><ele>516.0</ele><time>2026-04-26T11:59:12.001Z</time></trkpt><trkpt lat="43.55298587316097" lon="12.402206221321723"><ele>516.0</ele><time>2026-04-26T11:59:13.001Z</time></trkpt><trkpt lat="43.55281090547955" lon="12.402064452747586"><ele>516.0</ele><time>2026-04-26T11:59:14.001Z</time></trkpt><trkpt lat="43.55261802230011" lon="12.401936159031205"><ele>516.0</ele><time>2026-04-26T11:59:15.001Z</time></trkpt><trkpt lat="43.552436806257425" lon="12.401824450672786"><ele>516.0</ele><time>2026-04-26T11:59:16.001Z</time></trkpt><trkpt lat="43.55228107405665" lon="12.401713208143649"><ele>516.0</ele><time>2026-04-26T11:59:17.001Z</time></trkpt><trkpt lat="43.552135954656755" lon="12.401591925829523"><ele>516.0</ele><time>2026-04-26T11:59:18.001Z</time></trkpt><trkpt lat="43.552028078537475" lon="12.401413455685086"><ele>513.3333333333334</ele><time>2026-04-26T11:59:19.001Z</time></trkpt><trkpt lat="43.55191043145669" lon="12.401233007028788"><ele>510.6666666666667</ele><time>2026-04-26T11:59:20.001Z</time></trkpt><trkpt lat="43.55179955577282" lon="12.401040164277402"><ele>508.0</ele><time>2026-04-26T11:59:21.001Z</time></trkpt><trkpt lat="43.551677040998285" lon="12.400816321787866"><ele>508.0</ele><time>2026-04-26T11:59:22.001Z</time></trkpt><trkpt lat="43.55155840560029" lon="12.400583790755878"><ele>508.0</ele><time>2026-04-26T11:59:23.001Z</time></trkpt><trkpt lat="43.551446445529656" lon="12.400335407932385"><ele>508.0</ele><time>2026-04-26T11:59:24.001Z</time></trkpt><trkpt lat="43.55135297712645" lon="12.400109782522382"><ele>510.6666666666667</ele><time>2026-04-26T11:59:25.001Z</time></trkpt><trkpt lat="43.55128674288455" lon="12.399893298419125"><ele>513.3333333333334</ele><time>2026-04-26T11:59:26.001Z</time></trkpt><trkpt lat="43.55124653499359" lon="12.39967835038808"><ele>516.0</ele><time>2026-04-26T11:59:27.001Z</time></trkpt><trkpt lat="43.551219533620596" lon="12.399430597896108"><ele>511.66666666666663</ele><time>2026-04-26T11:59:28.001Z</time></trkpt><trkpt lat="43.551205205723846" lon="12.39916883159644"><ele>507.3333333333333</ele><time>2026-04-26T11:59:29.001Z</time></trkpt><trkpt lat="43.55119658514118" lon="12.398882926886888"><ele>503.0</ele><time>2026-04-26T11:59:30.001Z</time></trkpt><trkpt lat="43.551186606822384" lon="12.398583114608993"><ele>503.0</ele><time>2026-04-26T11:59:31.001Z</time></trkpt><trkpt lat="43.551172295918136" lon="12.398300363260539"><ele>503.0</ele><time>2026-04-26T11:59:32.001Z</time></trkpt><trkpt lat="43.551125044289016" lon="12.398031082007204"><ele>503.0</ele><time>2026-04-26T11:59:33.001Z</time></trkpt><trkpt lat="43.551071191278446" lon="12.39776758523301"><ele>506.0</ele><time>2026-04-26T11:59:34.001Z</time></trkpt><trkpt lat="43.550999995389915" lon="12.397499133195613"><ele>509.0</ele><time>2026-04-26T11:59:35.001Z</time></trkpt><trkpt lat="43.550917759559795" lon="12.397224951229497"><ele>512.0</ele><time>2026-04-26T11:59:36.001Z</time></trkpt><trkpt lat="43.55084436505328" lon="12.396947780725714"><ele>516.0</ele><time>2026-04-26T11:59:37.001Z</time></trkpt><trkpt lat="43.55078041222794" lon="12.39669196218413"><ele>520.0</ele><time>2026-04-26T11:59:38.001Z</time></trkpt><trkpt lat="43.550720819227855" lon="12.396419744654738"><ele>524.0</ele><time>2026-04-26T11:59:39.001Z</time></trkpt><trkpt lat="43.550665871133084" lon="12.396136140531768"><ele>527.3333333333333</ele><time>2026-04-26T11:59:40.001Z</time></trkpt><trkpt lat="43.55063333236395" lon="12.395867139509567"><ele>530.6666666666666</ele><time>2026-04-26T11:59:41.001Z</time></trkpt><trkpt lat="43.550598084911776" lon="12.395611439207379"><ele>534.0</ele><time>2026-04-26T11:59:42.001Z</time></trkpt><trkpt lat="43.550545396502656" lon="12.395350570937623"><ele>531.6666666666666</ele><time>2026-04-26T11:59:43.001Z</time></trkpt><trkpt lat="43.55046301000544" lon="12.395083810957088"><ele>529.3333333333333</ele><time>2026-04-26T11:59:44.001Z</time></trkpt><trkpt lat="43.550369654935125" lon="12.394792238353627"><ele>527.0</ele><time>2026-04-26T11:59:45.001Z</time></trkpt><trkpt lat="43.5502770909492" lon="12.394528396578625"><ele>527.0</ele><time>2026-04-26T11:59:46.001Z</time></trkpt><trkpt lat="43.55020013751828" lon="12.394285283679302"><ele>527.0</ele><time>2026-04-26T11:59:47.001Z</time></trkpt><trkpt lat="43.55014754355587" lon="12.394043828495821"><ele>527.0</ele><time>2026-04-26T11:59:48.001Z</time></trkpt><trkpt lat="43.55011787571868" lon="12.393799599400888"><ele>526.0</ele><time>2026-04-26T11:59:49.001Z</time></trkpt><trkpt lat="43.55011741890395" lon="12.393537964439307"><ele>525.0</ele><time>2026-04-26T11:59:50.001Z</time></trkpt><trkpt lat="43.55011467657358" lon="12.393281097247622"><ele>524.0</ele><time>2026-04-26T11:59:51.001Z</time></trkpt><trkpt lat="43.5501566484254" lon="12.39302285462153"><ele>522.0</ele><time>2026-04-26T11:59:52.001Z</time></trkpt><trkpt lat="43.5502497799275" lon="12.392784154140205"><ele>520.0</ele><time>2026-04-26T11:59:53.001Z</time></trkpt><trkpt lat="43.55035891988302" lon="12.392575596816215"><ele>518.0</ele><time>2026-04-26T11:59:54.001Z</time></trkpt><trkpt lat="43.550482020260425" lon="12.392389542755803"><ele>520.6666666666666</ele><time>2026-04-26T11:59:55.001Z</time></trkpt><trkpt lat="43.550608714219976" lon="12.39221247613023"><ele>523.3333333333334</ele><time>2026-04-26T11:59:56.001Z</time></trkpt><trkpt lat="43.55074122872479" lon="12.392042740704895"><ele>526.0</ele><time>2026-04-26T11:59:57.001Z</time></trkpt><trkpt lat="43.55086868148962" lon="12.391869395505756"><ele>526.0</ele><time>2026-04-26T11:59:58.001Z</time></trkpt><trkpt lat="43.55099528382563" lon="12.391677600714472"><ele>526.0</ele><time>2026-04-26T11:59:59.001Z</time></trkpt><trkpt lat="43.55113352860721" lon="12.391485837532615"><ele>526.0</ele><time>2026-04-26T12:00:00.001Z</time></trkpt><trkpt lat="43.551280596416895" lon="12.39130128635841"><ele>529.6666666666667</ele><time>2026-04-26T12:00:01.001Z</time></trkpt><trkpt lat="43.55143606944833" lon="12.39113381590478"><ele>533.3333333333334</ele><time>2026-04-26T12:00:02.001Z</time></trkpt><trkpt lat="43.551594630191516" lon="12.390985001596174"><ele>537.0</ele><time>2026-04-26T12:00:03.001Z</time></trkpt><trkpt lat="43.55175212982609" lon="12.39081291055503"><ele>537.0</ele><time>2026-04-26T12:00:04.001Z</time></trkpt><trkpt lat="43.55190336766604" lon="12.390593523490239"><ele>537.0</ele><time>2026-04-26T12:00:05.001Z</time></trkpt><trkpt lat="43.55203394981802" lon="12.390346097028864"><ele>537.0</ele><time>2026-04-26T12:00:06.001Z</time></trkpt><trkpt lat="43.55214769552013" lon="12.390102268084854"><ele>542.0</ele><time>2026-04-26T12:00:07.001Z</time></trkpt><trkpt lat="43.55225025802467" lon="12.389866585937357"><ele>547.0</ele><time>2026-04-26T12:00:08.001Z</time></trkpt><trkpt lat="43.55234221943205" lon="12.389619148295802"><ele>552.0</ele><time>2026-04-26T12:00:09.001Z</time></trkpt><trkpt lat="43.552407436150986" lon="12.38935508289443"><ele>552.0</ele><time>2026-04-26T12:00:10.001Z</time></trkpt><trkpt lat="43.55243565848855" lon="12.389082561247738"><ele>552.0</ele><time>2026-04-26T12:00:11.001Z</time></trkpt><trkpt lat="43.5524221890705" lon="12.3887957566547"><ele>552.0</ele><time>2026-04-26T12:00:12.001Z</time></trkpt><trkpt lat="43.552396712030124" lon="12.38851420583696"><ele>552.0</ele><time>2026-04-26T12:00:13.001Z</time></trkpt><trkpt lat="43.55237113468261" lon="12.388227987353979"><ele>552.0</ele><time>2026-04-26T12:00:14.001Z</time></trkpt><trkpt lat="43.55238357853781" lon="12.387974458446573"><ele>552.0</ele><time>2026-04-26T12:00:15.001Z</time></trkpt><trkpt lat="43.55244864188889" lon="12.387739785695711"><ele>549.6666666666666</ele><time>2026-04-26T12:00:16.001Z</time></trkpt><trkpt lat="43.55255621354893" lon="12.387509201021585"><ele>547.3333333333333</ele><time>2026-04-26T12:00:17.001Z</time></trkpt><trkpt lat="43.55266474467944" lon="12.387256994115424"><ele>545.0</ele><time>2026-04-26T12:00:18.001Z</time></trkpt><trkpt lat="43.552735854579964" lon="12.386964346740442"><ele>541.3333333333333</ele><time>2026-04-26T12:00:19.001Z</time></trkpt><trkpt lat="43.5527832866937" lon="12.386663010498333"><ele>537.6666666666666</ele><time>2026-04-26T12:00:20.001Z</time></trkpt><trkpt lat="43.55282824874713" lon="12.386365812730228"><ele>534.0</ele><time>2026-04-26T12:00:21.001Z</time></trkpt><trkpt lat="43.55287801204807" lon="12.386075451714673"><ele>551.0</ele><time>2026-04-26T12:00:22.001Z</time></trkpt><trkpt lat="43.55291310559136" lon="12.38577356046631"><ele>568.0</ele><time>2026-04-26T12:00:23.001Z</time></trkpt><trkpt lat="43.55292106660471" lon="12.385447316852082"><ele>568.0</ele><time>2026-04-26T12:00:24.001Z</time></trkpt><trkpt lat="43.55290876389959" lon="12.385086798417369"><ele>568.0</ele><time>2026-04-26T12:00:25.001Z</time></trkpt><trkpt lat="43.552885122348464" lon="12.384727762378871"><ele>550.0</ele><time>2026-04-26T12:00:26.001Z</time></trkpt><trkpt lat="43.55286533183486" lon="12.384390373230985"><ele>532.0</ele><time>2026-04-26T12:00:27.001Z</time></trkpt><trkpt lat="43.552857358580695" lon="12.384085403968584"><ele>533.0</ele><time>2026-04-26T12:00:28.001Z</time></trkpt><trkpt lat="43.5528620187255" lon="12.383809517873551"><ele>534.0</ele><time>2026-04-26T12:00:29.001Z</time></trkpt><trkpt lat="43.55285806065986" lon="12.383580011917706"><ele>535.0</ele><time>2026-04-26T12:00:30.001Z</time></trkpt><trkpt lat="43.55288275650389" lon="12.383367379475198"><ele>536.3333333333334</ele><time>2026-04-26T12:00:31.001Z</time></trkpt><trkpt lat="43.55292729324327" lon="12.383168151512184"><ele>537.6666666666666</ele><time>2026-04-26T12:00:32.001Z</time></trkpt><trkpt lat="43.55299974043078" lon="12.382962210271879"><ele>539.0</ele><time>2026-04-26T12:00:33.001Z</time></trkpt><trkpt lat="43.553116209273014" lon="12.382764924549713"><ele>539.0</ele><time>2026-04-26T12:00:34.001Z</time></trkpt><trkpt lat="43.553231378776054" lon="12.38258187366499"><ele>539.0</ele><time>2026-04-26T12:00:35.001Z</time></trkpt><trkpt lat="43.553332847184464" lon="12.382413726409558"><ele>539.0</ele><time>2026-04-26T12:00:36.001Z</time></trkpt><trkpt lat="43.553405033531796" lon="12.382255348397715"><ele>536.75</ele><time>2026-04-26T12:00:37.001Z</time></trkpt><trkpt lat="43.55346417186657" lon="12.382084166876057"><ele>534.5</ele><time>2026-04-26T12:00:38.001Z</time></trkpt><trkpt lat="43.55349745118755" lon="12.381907188319163"><ele>532.25</ele><time>2026-04-26T12:00:39.001Z</time></trkpt><trkpt lat="43.55350649128516" lon="12.381720331344045"><ele>530.0</ele><time>2026-04-26T12:00:40.001Z</time></trkpt><trkpt lat="43.55347438585614" lon="12.381496056553804"><ele>530.6666666666666</ele><time>2026-04-26T12:00:41.001Z</time></trkpt><trkpt lat="43.5534029913038" lon="12.381271394998093"><ele>531.3333333333334</ele><time>2026-04-26T12:00:42.001Z</time></trkpt><trkpt lat="43.553303446415676" lon="12.38103370276136"><ele>532.0</ele><time>2026-04-26T12:00:43.001Z</time></trkpt><trkpt lat="43.55321862361957" lon="12.380770908094792"><ele>532.0</ele><time>2026-04-26T12:00:44.001Z</time></trkpt><trkpt lat="43.553134050588426" lon="12.380521790450683"><ele>532.0</ele><time>2026-04-26T12:00:45.001Z</time></trkpt><trkpt lat="43.553019587009054" lon="12.380296265637046"><ele>532.0</ele><time>2026-04-26T12:00:46.001Z</time></trkpt><trkpt lat="43.55287934294009" lon="12.380096056637681"><ele>534.0</ele><time>2026-04-26T12:00:47.001Z</time></trkpt><trkpt lat="43.55271776709601" lon="12.379912238519141"><ele>536.0</ele><time>2026-04-26T12:00:48.001Z</time></trkpt><trkpt lat="43.552535084201836" lon="12.37971599516452"><ele>538.0</ele><time>2026-04-26T12:00:49.001Z</time></trkpt><trkpt lat="43.55237112248266" lon="12.379534565612133"><ele>538.3333333333334</ele><time>2026-04-26T12:00:50.001Z</time></trkpt><trkpt lat="43.55221341982462" lon="12.379362111525282"><ele>538.6666666666666</ele><time>2026-04-26T12:00:51.001Z</time></trkpt><trkpt lat="43.55207836371053" lon="12.379196147052108"><ele>539.0</ele><time>2026-04-26T12:00:52.001Z</time></trkpt><trkpt lat="43.55195926131476" lon="12.379042701618632"><ele>539.0</ele><time>2026-04-26T12:00:53.001Z</time></trkpt><trkpt lat="43.551841841269166" lon="12.378893386819685"><ele>539.0</ele><time>2026-04-26T12:00:54.001Z</time></trkpt><trkpt lat="43.5517252500505" lon="12.378731223294755"><ele>539.0</ele><time>2026-04-26T12:00:55.001Z</time></trkpt><trkpt lat="43.55160736690682" lon="12.378572197871502"><ele>542.0</ele><time>2026-04-26T12:00:56.001Z</time></trkpt><trkpt lat="43.55148411270592" lon="12.378411793152672"><ele>545.0</ele><time>2026-04-26T12:00:57.001Z</time></trkpt><trkpt lat="43.551354493255786" lon="12.378248256165312"><ele>548.0</ele><time>2026-04-26T12:00:58.001Z</time></trkpt><trkpt lat="43.551227518194054" lon="12.378076549202031"><ele>548.3333333333333</ele><time>2026-04-26T12:00:59.001Z</time></trkpt><trkpt lat="43.55109931616114" lon="12.37790848464092"><ele>548.6666666666666</ele><time>2026-04-26T12:01:00.001Z</time></trkpt><trkpt lat="43.550972532183124" lon="12.377742077768703"><ele>549.0</ele><time>2026-04-26T12:01:01.001Z</time></trkpt><trkpt lat="43.550845357524764" lon="12.377576726416027"><ele>549.0</ele><time>2026-04-26T12:01:02.001Z</time></trkpt><trkpt lat="43.55071938545339" lon="12.377400805313103"><ele>549.0</ele><time>2026-04-26T12:01:03.001Z</time></trkpt><trkpt lat="43.55058365945253" lon="12.377219919084313"><ele>549.0</ele><time>2026-04-26T12:01:04.001Z</time></trkpt><trkpt lat="43.550450236066574" lon="12.377045788641226"><ele>548.0</ele><time>2026-04-26T12:01:05.001Z</time></trkpt><trkpt lat="43.55031187407202" lon="12.376861606401329"><ele>547.0</ele><time>2026-04-26T12:01:06.001Z</time></trkpt><trkpt lat="43.55016910647178" lon="12.376667298012208"><ele>546.0</ele><time>2026-04-26T12:01:07.001Z</time></trkpt><trkpt lat="43.55001440951393" lon="12.376457936830827"><ele>553.5</ele><time>2026-04-26T12:01:08.001Z</time></trkpt><trkpt lat="43.549847503692426" lon="12.376225234492841"><ele>561.0</ele><time>2026-04-26T12:01:09.001Z</time></trkpt><trkpt lat="43.549674113900046" lon="12.375992401334248"><ele>558.5</ele><time>2026-04-26T12:01:10.001Z</time></trkpt><trkpt lat="43.54949469685542" lon="12.375748846925843"><ele>556.0</ele><time>2026-04-26T12:01:11.001Z</time></trkpt><trkpt lat="43.54930430553119" lon="12.375493233315513"><ele>556.0</ele><time>2026-04-26T12:01:12.001Z</time></trkpt><trkpt lat="43.54911577182574" lon="12.375228675012643"><ele>556.0</ele><time>2026-04-26T12:01:13.001Z</time></trkpt><trkpt lat="43.54893973897663" lon="12.374970413522504"><ele>556.0</ele><time>2026-04-26T12:01:14.001Z</time></trkpt><trkpt lat="43.54876851674768" lon="12.374719551922544"><ele>556.0</ele><time>2026-04-26T12:01:15.001Z</time></trkpt><trkpt lat="43.54859488758631" lon="12.374468674342454"><ele>553.5</ele><time>2026-04-26T12:01:16.001Z</time></trkpt><trkpt lat="43.548409950639275" lon="12.37419687555854"><ele>551.0</ele><time>2026-04-26T12:01:17.001Z</time></trkpt><trkpt lat="43.548214065342826" lon="12.373898880453716"><ele>556.0</ele><time>2026-04-26T12:01:18.001Z</time></trkpt><trkpt lat="43.54803365810749" lon="12.37363611799966"><ele>561.0</ele><time>2026-04-26T12:01:19.001Z</time></trkpt><trkpt lat="43.54787829590685" lon="12.373403758106658"><ele>559.5</ele><time>2026-04-26T12:01:20.001Z</time></trkpt><trkpt lat="43.547720327777185" lon="12.373187107746947"><ele>558.0</ele><time>2026-04-26T12:01:21.001Z</time></trkpt><trkpt lat="43.54756061698167" lon="12.3729497989975"><ele>558.0</ele><time>2026-04-26T12:01:22.001Z</time></trkpt><trkpt lat="43.54739228687313" lon="12.372699542333226"><ele>558.0</ele><time>2026-04-26T12:01:23.001Z</time></trkpt><trkpt lat="43.54722175894746" lon="12.372440270623873"><ele>558.0</ele><time>2026-04-26T12:01:24.001Z</time></trkpt><trkpt lat="43.5470584512106" lon="12.372195942476344"><ele>558.0</ele><time>2026-04-26T12:01:25.001Z</time></trkpt><trkpt lat="43.54690016516934" lon="12.371970239350194"><ele>556.0</ele><time>2026-04-26T12:01:26.001Z</time></trkpt><trkpt lat="43.54674909296843" lon="12.37174616784831"><ele>554.0</ele><time>2026-04-26T12:01:27.001Z</time></trkpt><trkpt lat="43.546609112769154" lon="12.371546156651997"><ele>552.0</ele><time>2026-04-26T12:01:28.001Z</time></trkpt><trkpt lat="43.54647930911349" lon="12.371360391986746"><ele>553.0</ele><time>2026-04-26T12:01:29.001Z</time></trkpt><trkpt lat="43.54635576259922" lon="12.371183912316425"><ele>554.0</ele><time>2026-04-26T12:01:30.001Z</time></trkpt><trkpt lat="43.54620988437667" lon="12.3710180181112"><ele>555.0</ele><time>2026-04-26T12:01:31.001Z</time></trkpt><trkpt lat="43.54602351595329" lon="12.370886991709881"><ele>556.0</ele><time>2026-04-26T12:01:32.001Z</time></trkpt><trkpt lat="43.54580889709379" lon="12.370803410668543"><ele>557.0</ele><time>2026-04-26T12:01:33.001Z</time></trkpt><trkpt lat="43.545572616547254" lon="12.370711292999765"><ele>560.5</ele><time>2026-04-26T12:01:34.001Z</time></trkpt><trkpt lat="43.54532794646156" lon="12.37061454617841"><ele>564.0</ele><time>2026-04-26T12:01:35.001Z</time></trkpt><trkpt lat="43.54508516090201" lon="12.370502883711698"><ele>570.5</ele><time>2026-04-26T12:01:36.001Z</time></trkpt><trkpt lat="43.54483145220266" lon="12.370389956491415"><ele>577.0</ele><time>2026-04-26T12:01:37.001Z</time></trkpt><trkpt lat="43.54457093563022" lon="12.370261960135126"><ele>576.5</ele><time>2026-04-26T12:01:38.001Z</time></trkpt><trkpt lat="43.54431808561103" lon="12.370148091102463"><ele>576.0</ele><time>2026-04-26T12:01:39.001Z</time></trkpt><trkpt lat="43.54408126619343" lon="12.370062227559353"><ele>576.0</ele><time>2026-04-26T12:01:40.001Z</time></trkpt><trkpt lat="43.543868792663595" lon="12.369967520597621"><ele>576.0</ele><time>2026-04-26T12:01:41.001Z</time></trkpt><trkpt lat="43.54368512032723" lon="12.369877661833279"><ele>576.0</ele><time>2026-04-26T12:01:42.001Z</time></trkpt><trkpt lat="43.543507086249065" lon="12.369765232461567"><ele>580.0</ele><time>2026-04-26T12:01:43.001Z</time></trkpt><trkpt lat="43.54333024721202" lon="12.36963252204295"><ele>584.0</ele><time>2026-04-26T12:01:44.001Z</time></trkpt><trkpt lat="43.54316288344459" lon="12.369466627705645"><ele>588.0</ele><time>2026-04-26T12:01:45.001Z</time></trkpt><trkpt lat="43.54300015609804" lon="12.369281272636421"><ele>587.3333333333334</ele><time>2026-04-26T12:01:46.001Z</time></trkpt><trkpt lat="43.542843275397175" lon="12.369077939343878"><ele>586.6666666666667</ele><time>2026-04-26T12:01:47.001Z</time></trkpt><trkpt lat="43.5427100228482" lon="12.368878707765711"><ele>586.0</ele><time>2026-04-26T12:01:48.001Z</time></trkpt><trkpt lat="43.5425873762984" lon="12.368684753941952"><ele>586.0</ele><time>2026-04-26T12:01:49.001Z</time></trkpt><trkpt lat="43.542477377846225" lon="12.368511137447602"><ele>586.0</ele><time>2026-04-26T12:01:50.001Z</time></trkpt><trkpt lat="43.54238196411129" lon="12.368376974840487"><ele>586.0</ele><time>2026-04-26T12:01:51.001Z</time></trkpt><trkpt lat="43.54228220063597" lon="12.368280604981432"><ele>586.0</ele><time>2026-04-26T12:01:52.001Z</time></trkpt><trkpt lat="43.542171305827125" lon="12.368231759241489"><ele>586.0</ele><time>2026-04-26T12:01:53.001Z</time></trkpt><trkpt lat="43.54205868931113" lon="12.36822914456088"><ele>586.0</ele><time>2026-04-26T12:01:54.001Z</time></trkpt><trkpt lat="43.54194739949777" lon="12.368280179301735"><ele>586.0</ele><time>2026-04-26T12:01:55.001Z</time></trkpt><trkpt lat="43.541852098390706" lon="12.368385490136424"><ele>586.0</ele><time>2026-04-26T12:01:56.001Z</time></trkpt><trkpt lat="43.541779912863014" lon="12.368539000839272"><ele>584.6666666666667</ele><time>2026-04-26T12:01:57.001Z</time></trkpt><trkpt lat="43.54172893988232" lon="12.36873468618937"><ele>583.3333333333334</ele><time>2026-04-26T12:01:58.001Z</time></trkpt><trkpt lat="43.54169547551181" lon="12.368975915670212"><ele>582.0</ele><time>2026-04-26T12:01:59.001Z</time></trkpt><trkpt lat="43.54164932750945" lon="12.36920027024995"><ele>582.0</ele><time>2026-04-26T12:02:00.001Z</time></trkpt><trkpt lat="43.54156960210465" lon="12.369359024963131"><ele>582.0</ele><time>2026-04-26T12:02:01.001Z</time></trkpt><trkpt lat="43.54143039545492" lon="12.369468521360808"><ele>582.0</ele><time>2026-04-26T12:02:02.001Z</time></trkpt><trkpt lat="43.54127409114226" lon="12.36957327498111"><ele>588.6666666666666</ele><time>2026-04-26T12:02:03.001Z</time></trkpt><trkpt lat="43.54111601033084" lon="12.369702912947085"><ele>595.3333333333333</ele><time>2026-04-26T12:02:04.001Z</time></trkpt><trkpt lat="43.540989952561276" lon="12.369858574623873"><ele>602.0</ele><time>2026-04-26T12:02:05.001Z</time></trkpt><trkpt lat="43.5409238702248" lon="12.370052119434513"><ele>602.0</ele><time>2026-04-26T12:02:06.001Z</time></trkpt><trkpt lat="43.540890867731875" lon="12.370277925274344"><ele>602.0</ele><time>2026-04-26T12:02:07.001Z</time></trkpt><trkpt lat="43.54088637085204" lon="12.370554957493917"><ele>602.0</ele><time>2026-04-26T12:02:08.001Z</time></trkpt><trkpt lat="43.54088572425227" lon="12.370811206758757"><ele>600.0</ele><time>2026-04-26T12:02:09.001Z</time></trkpt><trkpt lat="43.540876950760556" lon="12.371011871516195"><ele>598.0</ele><time>2026-04-26T12:02:10.001Z</time></trkpt><trkpt lat="43.540841697805554" lon="12.371169350723584"><ele>596.0</ele><time>2026-04-26T12:02:11.001Z</time></trkpt><trkpt lat="43.540778801307574" lon="12.371289387236011"><ele>594.0</ele><time>2026-04-26T12:02:12.001Z</time></trkpt><trkpt lat="43.54065498642344" lon="12.371338345913196"><ele>594.0</ele><time>2026-04-26T12:02:13.001Z</time></trkpt><trkpt lat="43.54049139238953" lon="12.371352221700445"><ele>594.0</ele><time>2026-04-26T12:02:14.001Z</time></trkpt><trkpt lat="43.54029791952821" lon="12.37135729795101"><ele>594.0</ele><time>2026-04-26T12:02:15.001Z</time></trkpt><trkpt lat="43.54008967113368" lon="12.37135068417198"><ele>593.5</ele><time>2026-04-26T12:02:16.001Z</time></trkpt><trkpt lat="43.539865031368066" lon="12.37136280060151"><ele>593.0</ele><time>2026-04-26T12:02:17.001Z</time></trkpt><trkpt lat="43.53962343956871" lon="12.371375819733014"><ele>597.0</ele><time>2026-04-26T12:02:18.001Z</time></trkpt><trkpt lat="43.53936368401227" lon="12.37139393561101"><ele>601.0</ele><time>2026-04-26T12:02:19.001Z</time></trkpt><trkpt lat="43.5390965490738" lon="12.371412040028003"><ele>601.0</ele><time>2026-04-26T12:02:20.001Z</time></trkpt><trkpt lat="43.53883051402794" lon="12.371426470001847"><ele>601.0</ele><time>2026-04-26T12:02:21.001Z</time></trkpt><trkpt lat="43.53857749403962" lon="12.371419042816655"><ele>602.0</ele><time>2026-04-26T12:02:22.001Z</time></trkpt><trkpt lat="43.538322980159535" lon="12.371397769683249"><ele>603.0</ele><time>2026-04-26T12:02:23.001Z</time></trkpt><trkpt lat="43.53805737295114" lon="12.37136138804701"><ele>611.5</ele><time>2026-04-26T12:02:24.001Z</time></trkpt><trkpt lat="43.53779920619884" lon="12.371328015667316"><ele>620.0</ele><time>2026-04-26T12:02:25.001Z</time></trkpt><trkpt lat="43.53759302519175" lon="12.371309904258311"><ele>620.0</ele><time>2026-04-26T12:02:26.001Z</time></trkpt><trkpt lat="43.537373537815185" lon="12.371283055725758"><ele>620.0</ele><time>2026-04-26T12:02:27.001Z</time></trkpt><trkpt lat="43.53705116249134" lon="12.371225139994005"><ele>621.6666666666666</ele><time>2026-04-26T12:02:28.001Z</time></trkpt><trkpt lat="43.53683514275863" lon="12.371198366120398"><ele>623.3333333333334</ele><time>2026-04-26T12:02:29.001Z</time></trkpt><trkpt lat="43.536650546678445" lon="12.371163391022002"><ele>625.0</ele><time>2026-04-26T12:02:30.001Z</time></trkpt><trkpt lat="43.536479162504214" lon="12.371105690629832"><ele>625.0</ele><time>2026-04-26T12:02:31.001Z</time></trkpt><trkpt lat="43.53630712875129" lon="12.371011478303165"><ele>625.0</ele><time>2026-04-26T12:02:32.001Z</time></trkpt><trkpt lat="43.53613749682691" lon="12.370867425214389"><ele>625.0</ele><time>2026-04-26T12:02:33.001Z</time></trkpt><trkpt lat="43.53596972172153" lon="12.370696173585227"><ele>622.3333333333334</ele><time>2026-04-26T12:02:34.001Z</time></trkpt><trkpt lat="43.53580826475569" lon="12.3705256087944"><ele>619.6666666666666</ele><time>2026-04-26T12:02:35.001Z</time></trkpt><trkpt lat="43.53563286293052" lon="12.370374348126843"><ele>617.0</ele><time>2026-04-26T12:02:36.001Z</time></trkpt><trkpt lat="43.53543393665879" lon="12.370271719215431"><ele>624.0</ele><time>2026-04-26T12:02:37.002Z</time></trkpt><trkpt lat="43.53522331014701" lon="12.370193887795347"><ele>631.0</ele><time>2026-04-26T12:02:38.002Z</time></trkpt><trkpt lat="43.53501500691431" lon="12.37013173161377"><ele>638.0</ele><time>2026-04-26T12:02:39.002Z</time></trkpt><trkpt lat="43.53479874863678" lon="12.37009270496255"><ele>638.0</ele><time>2026-04-26T12:02:40.002Z</time></trkpt><trkpt lat="43.5345740078532" lon="12.370091201924742"><ele>638.0</ele><time>2026-04-26T12:02:41.002Z</time></trkpt><trkpt lat="43.53435345137517" lon="12.37009415697849"><ele>638.0</ele><time>2026-04-26T12:02:42.002Z</time></trkpt><trkpt lat="43.53415332632287" lon="12.37009914319962"><ele>638.6666666666666</ele><time>2026-04-26T12:02:43.002Z</time></trkpt><trkpt lat="43.53396823063434" lon="12.370073097116467"><ele>639.3333333333334</ele><time>2026-04-26T12:02:44.002Z</time></trkpt><trkpt lat="43.53378273102473" lon="12.370010461280694"><ele>640.0</ele><time>2026-04-26T12:02:45.002Z</time></trkpt><trkpt lat="43.533602183929105" lon="12.369911058352118"><ele>637.6666666666667</ele><time>2026-04-26T12:02:46.002Z</time></trkpt><trkpt lat="43.533434393807795" lon="12.369770749550383"><ele>635.3333333333334</ele><time>2026-04-26T12:02:47.002Z</time></trkpt><trkpt lat="43.53329046173757" lon="12.369629801183342"><ele>633.0</ele><time>2026-04-26T12:02:48.002Z</time></trkpt><trkpt lat="43.53315334974976" lon="12.369512626607875"><ele>639.3333333333334</ele><time>2026-04-26T12:02:49.002Z</time></trkpt><trkpt lat="43.53298765085178" lon="12.369461413641464"><ele>645.6666666666667</ele><time>2026-04-26T12:02:50.002Z</time></trkpt><trkpt lat="43.53279699361757" lon="12.369464616014387"><ele>652.0</ele><time>2026-04-26T12:02:51.002Z</time></trkpt><trkpt lat="43.532614914117836" lon="12.36948597871316"><ele>652.0</ele><time>2026-04-26T12:02:52.002Z</time></trkpt><trkpt lat="43.5324560667253" lon="12.369489097916098"><ele>652.0</ele><time>2026-04-26T12:02:53.002Z</time></trkpt><trkpt lat="43.53232451068453" lon="12.369473076985498"><ele>652.0</ele><time>2026-04-26T12:02:54.002Z</time></trkpt><trkpt lat="43.532208614600066" lon="12.369442006828884"><ele>652.0</ele><time>2026-04-26T12:02:55.002Z</time></trkpt><trkpt lat="43.53210954759761" lon="12.369371357135353"><ele>654.75</ele><time>2026-04-26T12:02:56.002Z</time></trkpt><trkpt lat="43.53203601506799" lon="12.369257212140258"><ele>657.5</ele><time>2026-04-26T12:02:57.002Z</time></trkpt><trkpt lat="43.53200659542476" lon="12.369120445564777"><ele>660.25</ele><time>2026-04-26T12:02:58.002Z</time></trkpt><trkpt lat="43.53203689617964" lon="12.368947763551787"><ele>663.0</ele><time>2026-04-26T12:02:59.002Z</time></trkpt><trkpt lat="43.5320952530784" lon="12.368766876358913"><ele>663.0</ele><time>2026-04-26T12:03:00.002Z</time></trkpt><trkpt lat="43.532153407052164" lon="12.368601881792378"><ele>663.0</ele><time>2026-04-26T12:03:01.002Z</time></trkpt><trkpt lat="43.53216795146215" lon="12.368460186043004"><ele>663.0</ele><time>2026-04-26T12:03:02.002Z</time></trkpt><trkpt lat="43.53211725583829" lon="12.368352763866756"><ele>663.0</ele><time>2026-04-26T12:03:03.002Z</time></trkpt><trkpt lat="43.53202761097596" lon="12.368303736183762"><ele>663.0</ele><time>2026-04-26T12:03:04.002Z</time></trkpt><trkpt lat="43.53190249401446" lon="12.36832250471197"><ele>660.25</ele><time>2026-04-26T12:03:05.002Z</time></trkpt><trkpt lat="43.531767767003686" lon="12.368414149372738"><ele>657.5</ele><time>2026-04-26T12:03:06.002Z</time></trkpt><trkpt lat="43.53164874736196" lon="12.36852973303024"><ele>654.75</ele><time>2026-04-26T12:03:07.002Z</time></trkpt><trkpt lat="43.5315455893814" lon="12.368588060952531"><ele>652.0</ele><time>2026-04-26T12:03:08.002Z</time></trkpt><trkpt lat="43.53143452454315" lon="12.3685699396962"><ele>652.0</ele><time>2026-04-26T12:03:09.002Z</time></trkpt><trkpt lat="43.53129028933651" lon="12.368478212365437"><ele>652.0</ele><time>2026-04-26T12:03:10.002Z</time></trkpt><trkpt lat="43.531155732593184" lon="12.368323136645788"><ele>652.0</ele><time>2026-04-26T12:03:11.002Z</time></trkpt><trkpt lat="43.53101297997084" lon="12.368149822616202"><ele>652.6666666666667</ele><time>2026-04-26T12:03:12.002Z</time></trkpt><trkpt lat="43.530869998071516" lon="12.367976301015798"><ele>653.3333333333334</ele><time>2026-04-26T12:03:13.002Z</time></trkpt><trkpt lat="43.53074587105308" lon="12.367796277519803"><ele>654.0</ele><time>2026-04-26T12:03:14.002Z</time></trkpt><trkpt lat="43.530656430771124" lon="12.36760946127973"><ele>654.0</ele><time>2026-04-26T12:03:15.002Z</time></trkpt><trkpt lat="43.53059704381895" lon="12.367420507692962"><ele>654.0</ele><time>2026-04-26T12:03:16.002Z</time></trkpt><trkpt lat="43.53054527386205" lon="12.367246322650377"><ele>654.0</ele><time>2026-04-26T12:03:17.002Z</time></trkpt><trkpt lat="43.530486648909246" lon="12.367089124369905"><ele>654.0</ele><time>2026-04-26T12:03:18.002Z</time></trkpt><trkpt lat="43.53038327155329" lon="12.366968894422813"><ele>654.6666666666666</ele><time>2026-04-26T12:03:19.002Z</time></trkpt><trkpt lat="43.53023794778319" lon="12.366895413070939"><ele>655.3333333333333</ele><time>2026-04-26T12:03:20.002Z</time></trkpt><trkpt lat="43.53005338332236" lon="12.366877359323736"><ele>656.0</ele><time>2026-04-26T12:03:21.002Z</time></trkpt><trkpt lat="43.52984985663182" lon="12.36687974852744"><ele>656.0</ele><time>2026-04-26T12:03:22.002Z</time></trkpt><trkpt lat="43.529635966578994" lon="12.366871129662064"><ele>656.0</ele><time>2026-04-26T12:03:23.002Z</time></trkpt><trkpt lat="43.52944865075872" lon="12.366827310051482"><ele>656.0</ele><time>2026-04-26T12:03:24.002Z</time></trkpt><trkpt lat="43.529293537372766" lon="12.366771926686484"><ele>657.0</ele><time>2026-04-26T12:03:25.002Z</time></trkpt><trkpt lat="43.529181806024" lon="12.366689029122464"><ele>658.0</ele><time>2026-04-26T12:03:26.002Z</time></trkpt><trkpt lat="43.52911475550868" lon="12.366565863277003"><ele>659.0</ele><time>2026-04-26T12:03:27.002Z</time></trkpt><trkpt lat="43.529082475371" lon="12.366411651113962"><ele>660.0</ele><time>2026-04-26T12:03:28.002Z</time></trkpt><trkpt lat="43.529068881688275" lon="12.366203936289493"><ele>660.0</ele><time>2026-04-26T12:03:29.002Z</time></trkpt><trkpt lat="43.529042122920295" lon="12.366014275483211"><ele>660.0</ele><time>2026-04-26T12:03:30.002Z</time></trkpt><trkpt lat="43.52895683321367" lon="12.365879498472744"><ele>660.0</ele><time>2026-04-26T12:03:31.002Z</time></trkpt><trkpt lat="43.52882302396246" lon="12.365787600117507"><ele>660.0</ele><time>2026-04-26T12:03:32.002Z</time></trkpt><trkpt lat="43.52864411726046" lon="12.365739448810416"><ele>657.6666666666666</ele><time>2026-04-26T12:03:33.002Z</time></trkpt><trkpt lat="43.52843888258013" lon="12.365716194478853"><ele>655.3333333333333</ele><time>2026-04-26T12:03:34.002Z</time></trkpt><trkpt lat="43.528231705835275" lon="12.365698921599867"><ele>653.0</ele><time>2026-04-26T12:03:35.002Z</time></trkpt><trkpt lat="43.52804434463917" lon="12.36565718982896"><ele>651.3333333333333</ele><time>2026-04-26T12:03:36.002Z</time></trkpt><trkpt lat="43.52787329847432" lon="12.36559857426262"><ele>649.6666666666666</ele><time>2026-04-26T12:03:37.002Z</time></trkpt><trkpt lat="43.527732152987674" lon="12.365468832666396"><ele>648.0</ele><time>2026-04-26T12:03:38.002Z</time></trkpt><trkpt lat="43.52758546644379" lon="12.365317794249407"><ele>652.3333333333334</ele><time>2026-04-26T12:03:39.002Z</time></trkpt><trkpt lat="43.52741296590283" lon="12.365215744536737"><ele>656.6666666666667</ele><time>2026-04-26T12:03:40.002Z</time></trkpt><trkpt lat="43.52723284534034" lon="12.365078386831835"><ele>661.0</ele><time>2026-04-26T12:03:41.002Z</time></trkpt><trkpt lat="43.52703168621483" lon="12.364967291581262"><ele>661.0</ele><time>2026-04-26T12:03:42.002Z</time></trkpt><trkpt lat="43.52683856415433" lon="12.364868557955448"><ele>661.0</ele><time>2026-04-26T12:03:43.002Z</time></trkpt><trkpt lat="43.52664340223317" lon="12.364781410603385"><ele>661.0</ele><time>2026-04-26T12:03:44.002Z</time></trkpt><trkpt lat="43.52642940382452" lon="12.364695161293145"><ele>665.3333333333334</ele><time>2026-04-26T12:03:45.002Z</time></trkpt><trkpt lat="43.52621269295189" lon="12.364637464172924"><ele>669.6666666666666</ele><time>2026-04-26T12:03:46.002Z</time></trkpt><trkpt lat="43.526017159860025" lon="12.364602944189468"><ele>674.0</ele><time>2026-04-26T12:03:47.002Z</time></trkpt><trkpt lat="43.525852677098335" lon="12.364530601331948"><ele>674.0</ele><time>2026-04-26T12:03:48.002Z</time></trkpt><trkpt lat="43.52571482659839" lon="12.36437016396688"><ele>674.0</ele><time>2026-04-26T12:03:49.002Z</time></trkpt><trkpt lat="43.525568815730765" lon="12.364179222569694"><ele>674.0</ele><time>2026-04-26T12:03:50.002Z</time></trkpt><trkpt lat="43.525409676905475" lon="12.363938637920901"><ele>675.0</ele><time>2026-04-26T12:03:51.002Z</time></trkpt><trkpt lat="43.52525629581024" lon="12.363731105028801"><ele>676.0</ele><time>2026-04-26T12:03:52.002Z</time></trkpt><trkpt lat="43.5251043144507" lon="12.363582105142465"><ele>677.0</ele><time>2026-04-26T12:03:53.002Z</time></trkpt><trkpt lat="43.52494161532499" lon="12.36343268949393"><ele>677.0</ele><time>2026-04-26T12:03:54.002Z</time></trkpt><trkpt lat="43.52476136452792" lon="12.363332270189973"><ele>677.0</ele><time>2026-04-26T12:03:55.002Z</time></trkpt><trkpt lat="43.52456824811482" lon="12.363283733450839"><ele>677.0</ele><time>2026-04-26T12:03:56.002Z</time></trkpt><trkpt lat="43.52436111096233" lon="12.363264026870924"><ele>675.3333333333333</ele><time>2026-04-26T12:03:57.002Z</time></trkpt><trkpt lat="43.524179898945114" lon="12.363274316731129"><ele>673.6666666666666</ele><time>2026-04-26T12:03:58.002Z</time></trkpt><trkpt lat="43.52403797998141" lon="12.363218793684018"><ele>672.0</ele><time>2026-04-26T12:03:59.002Z</time></trkpt><trkpt lat="43.523883114594874" lon="12.363109972549074"><ele>673.3333333333334</ele><time>2026-04-26T12:04:00.002Z</time></trkpt><trkpt lat="43.52372046103414" lon="12.363000249581981"><ele>674.6666666666667</ele><time>2026-04-26T12:04:01.002Z</time></trkpt><trkpt lat="43.52358621809292" lon="12.362853155832703"><ele>676.0</ele><time>2026-04-26T12:04:02.002Z</time></trkpt><trkpt lat="43.52347559265384" lon="12.362643877638625"><ele>676.0</ele><time>2026-04-26T12:04:03.002Z</time></trkpt><trkpt lat="43.52335820916573" lon="12.362439964450118"><ele>676.0</ele><time>2026-04-26T12:04:04.002Z</time></trkpt><trkpt lat="43.52324685228899" lon="12.362227001449078"><ele>676.0</ele><time>2026-04-26T12:04:05.002Z</time></trkpt><trkpt lat="43.52309708015577" lon="12.362049371643188"><ele>678.0</ele><time>2026-04-26T12:04:06.002Z</time></trkpt><trkpt lat="43.52291938475825" lon="12.361920780046585"><ele>680.0</ele><time>2026-04-26T12:04:07.002Z</time></trkpt><trkpt lat="43.52275516576804" lon="12.36183154116411"><ele>682.0</ele><time>2026-04-26T12:04:08.002Z</time></trkpt><trkpt lat="43.522625647648695" lon="12.361726668026943"><ele>682.0</ele><time>2026-04-26T12:04:09.002Z</time></trkpt><trkpt lat="43.52257521329681" lon="12.361554324209017"><ele>682.0</ele><time>2026-04-26T12:04:10.002Z</time></trkpt><trkpt lat="43.522473747045105" lon="12.361411126143802"><ele>682.0</ele><time>2026-04-26T12:04:11.002Z</time></trkpt><trkpt lat="43.5224471240272" lon="12.361213451822486"><ele>682.0</ele><time>2026-04-26T12:04:12.002Z</time></trkpt><trkpt lat="43.52239410146162" lon="12.361058833303714"><ele>684.3333333333334</ele><time>2026-04-26T12:04:13.002Z</time></trkpt><trkpt lat="43.522291329124286" lon="12.360934493571266"><ele>686.6666666666666</ele><time>2026-04-26T12:04:14.002Z</time></trkpt><trkpt lat="43.52214494071169" lon="12.36084400869389"><ele>689.0</ele><time>2026-04-26T12:04:15.002Z</time></trkpt><trkpt lat="43.521967970742615" lon="12.360765483583954"><ele>689.0</ele><time>2026-04-26T12:04:16.002Z</time></trkpt><trkpt lat="43.521820795690346" lon="12.360596024990203"><ele>689.0</ele><time>2026-04-26T12:04:17.002Z</time></trkpt><trkpt lat="43.5216830366057" lon="12.360396190155262"><ele>689.0</ele><time>2026-04-26T12:04:18.002Z</time></trkpt><trkpt lat="43.52153723613214" lon="12.360176531680036"><ele>693.0</ele><time>2026-04-26T12:04:19.002Z</time></trkpt><trkpt lat="43.52137489709822" lon="12.359958714313644"><ele>697.0</ele><time>2026-04-26T12:04:20.002Z</time></trkpt><trkpt lat="43.521236504832736" lon="12.359750655888469"><ele>701.0</ele><time>2026-04-26T12:04:21.002Z</time></trkpt><trkpt lat="43.52108400942758" lon="12.359572399661001"><ele>704.5</ele><time>2026-04-26T12:04:22.002Z</time></trkpt><trkpt lat="43.52087685864653" lon="12.359444558255822"><ele>708.0</ele><time>2026-04-26T12:04:23.002Z</time></trkpt><trkpt lat="43.520649864980356" lon="12.359299229434543"><ele>708.0</ele><time>2026-04-26T12:04:24.002Z</time></trkpt><trkpt lat="43.52043672854043" lon="12.35916458312964"><ele>708.0</ele><time>2026-04-26T12:04:25.002Z</time></trkpt><trkpt lat="43.52025477521551" lon="12.359051524336449"><ele>708.0</ele><time>2026-04-26T12:04:26.002Z</time></trkpt><trkpt lat="43.52008089980643" lon="12.358965257738648"><ele>707.0</ele><time>2026-04-26T12:04:27.002Z</time></trkpt><trkpt lat="43.51992597464196" lon="12.358889322337168"><ele>706.0</ele><time>2026-04-26T12:04:28.002Z</time></trkpt><trkpt lat="43.51978680410294" lon="12.358807787286073"><ele>705.0</ele><time>2026-04-26T12:04:29.002Z</time></trkpt><trkpt lat="43.5196618195284" lon="12.358685467940171"><ele>706.75</ele><time>2026-04-26T12:04:30.002Z</time></trkpt><trkpt lat="43.51956338876467" lon="12.358527687868627"><ele>708.5</ele><time>2026-04-26T12:04:31.002Z</time></trkpt><trkpt lat="43.519487313152965" lon="12.35834979187258"><ele>710.25</ele><time>2026-04-26T12:04:32.002Z</time></trkpt><trkpt lat="43.519473221923974" lon="12.358163538456244"><ele>712.0</ele><time>2026-04-26T12:04:33.002Z</time></trkpt><trkpt lat="43.51950557861854" lon="12.357984222962461"><ele>714.0</ele><time>2026-04-26T12:04:34.002Z</time></trkpt><trkpt lat="43.51954945788278" lon="12.357792347446818"><ele>716.0</ele><time>2026-04-26T12:04:35.002Z</time></trkpt><trkpt lat="43.51955404938765" lon="12.357647070559214"><ele>718.0</ele><time>2026-04-26T12:04:36.002Z</time></trkpt><trkpt lat="43.51950278044713" lon="12.357518759727263"><ele>720.0</ele><time>2026-04-26T12:04:37.002Z</time></trkpt><trkpt lat="43.51941813774519" lon="12.357426996305591"><ele>720.0</ele><time>2026-04-26T12:04:38.002Z</time></trkpt><trkpt lat="43.51932590339614" lon="12.357398705509285"><ele>720.0</ele><time>2026-04-26T12:04:39.002Z</time></trkpt><trkpt lat="43.51921804413615" lon="12.357430606652795"><ele>720.0</ele><time>2026-04-26T12:04:40.002Z</time></trkpt><trkpt lat="43.51911377627434" lon="12.357548270450225"><ele>720.0</ele><time>2026-04-26T12:04:41.002Z</time></trkpt><trkpt lat="43.51904203304231" lon="12.357722715972034"><ele>720.0</ele><time>2026-04-26T12:04:42.002Z</time></trkpt><trkpt lat="43.519010333763816" lon="12.35790104692154"><ele>720.0</ele><time>2026-04-26T12:04:43.002Z</time></trkpt><trkpt lat="43.51900001626794" lon="12.358060506270153"><ele>720.0</ele><time>2026-04-26T12:04:44.002Z</time></trkpt><trkpt lat="43.51897762476307" lon="12.358208345713606"><ele>720.0</ele><time>2026-04-26T12:04:45.002Z</time></trkpt><trkpt lat="43.51893423996989" lon="12.35831830483139"><ele>720.5</ele><time>2026-04-26T12:04:46.002Z</time></trkpt><trkpt lat="43.51883783798917" lon="12.358407467725968"><ele>721.0</ele><time>2026-04-26T12:04:47.002Z</time></trkpt><trkpt lat="43.518696788588336" lon="12.358409015757715"><ele>721.5</ele><time>2026-04-26T12:04:48.002Z</time></trkpt><trkpt lat="43.51856797717292" lon="12.358375992335963"><ele>722.0</ele><time>2026-04-26T12:04:49.002Z</time></trkpt><trkpt lat="43.518395734447196" lon="12.358345343570692"><ele>722.0</ele><time>2026-04-26T12:04:50.002Z</time></trkpt><trkpt lat="43.518226176816" lon="12.358283996149085"><ele>722.0</ele><time>2026-04-26T12:04:51.002Z</time></trkpt><trkpt lat="43.51806378875067" lon="12.358183716254334"><ele>722.0</ele><time>2026-04-26T12:04:52.002Z</time></trkpt><trkpt lat="43.51790356630174" lon="12.358056928400325"><ele>725.6666666666666</ele><time>2026-04-26T12:04:53.002Z</time></trkpt><trkpt lat="43.5177142503579" lon="12.357936299809007"><ele>729.3333333333334</ele><time>2026-04-26T12:04:54.002Z</time></trkpt><trkpt lat="43.51754390503247" lon="12.357859003679216"><ele>733.0</ele><time>2026-04-26T12:04:55.002Z</time></trkpt><trkpt lat="43.517396521757476" lon="12.357790746518425"><ele>733.0</ele><time>2026-04-26T12:04:56.002Z</time></trkpt><trkpt lat="43.517284356014066" lon="12.357715278282251"><ele>733.0</ele><time>2026-04-26T12:04:57.002Z</time></trkpt><trkpt lat="43.51720585249003" lon="12.35759153378024"><ele>733.0</ele><time>2026-04-26T12:04:58.002Z</time></trkpt><trkpt lat="43.51714703451185" lon="12.357416527773692"><ele>733.0</ele><time>2026-04-26T12:04:59.002Z</time></trkpt><trkpt lat="43.517074300507815" lon="12.35719165540058"><ele>735.3333333333334</ele><time>2026-04-26T12:05:00.002Z</time></trkpt><trkpt lat="43.51700277883639" lon="12.356965795735128"><ele>737.6666666666666</ele><time>2026-04-26T12:05:01.002Z</time></trkpt><trkpt lat="43.516928555943075" lon="12.356763137482803"><ele>740.0</ele><time>2026-04-26T12:05:02.002Z</time></trkpt><trkpt lat="43.51685988257224" lon="12.356608311088694"><ele>740.0</ele><time>2026-04-26T12:05:03.002Z</time></trkpt><trkpt lat="43.516770095825294" lon="12.356505613650521"><ele>740.0</ele><time>2026-04-26T12:05:04.002Z</time></trkpt><trkpt lat="43.51665215211808" lon="12.356495424565107"><ele>740.0</ele><time>2026-04-26T12:05:05.002Z</time></trkpt><trkpt lat="43.516543886835684" lon="12.35655694736417"><ele>740.0</ele><time>2026-04-26T12:05:06.002Z</time></trkpt><trkpt lat="43.51645030594199" lon="12.356666746622547"><ele>740.0</ele><time>2026-04-26T12:05:07.002Z</time></trkpt><trkpt lat="43.51636329381064" lon="12.356791107074637"><ele>740.0</ele><time>2026-04-26T12:05:08.002Z</time></trkpt><trkpt lat="43.516294309255166" lon="12.356918620561572"><ele>740.0</ele><time>2026-04-26T12:05:09.002Z</time></trkpt><trkpt lat="43.51624640790862" lon="12.357016600633143"><ele>740.0</ele><time>2026-04-26T12:05:10.002Z</time></trkpt><trkpt lat="43.516176780815215" lon="12.35708976524966"><ele>740.0</ele><time>2026-04-26T12:05:11.002Z</time></trkpt><trkpt lat="43.51608693814977" lon="12.35715100877224"><ele>739.0</ele><time>2026-04-26T12:05:12.002Z</time></trkpt><trkpt lat="43.51600061839368" lon="12.357189367994451"><ele>738.0</ele><time>2026-04-26T12:05:13.002Z</time></trkpt><trkpt lat="43.515924828597214" lon="12.357197696670738"><ele>737.0</ele><time>2026-04-26T12:05:14.002Z</time></trkpt><trkpt lat="43.51584935221259" lon="12.357186969472009"><ele>736.0</ele><time>2026-04-26T12:05:15.002Z</time></trkpt><trkpt lat="43.51578489864237" lon="12.35713382089324"><ele>735.0</ele><time>2026-04-26T12:05:16.002Z</time></trkpt><trkpt lat="43.515725375958176" lon="12.357046432325687"><ele>734.0</ele><time>2026-04-26T12:05:17.002Z</time></trkpt><trkpt lat="43.51571064899948" lon="12.356917757849184"><ele>734.0</ele><time>2026-04-26T12:05:18.002Z</time></trkpt><trkpt lat="43.51568337893884" lon="12.356790462804877"><ele>734.0</ele><time>2026-04-26T12:05:19.002Z</time></trkpt><trkpt lat="43.515643333393754" lon="12.356667592665781"><ele>734.0</ele><time>2026-04-26T12:05:20.002Z</time></trkpt><trkpt lat="43.51563206355121" lon="12.35655461643875"><ele>734.0</ele><time>2026-04-26T12:05:21.002Z</time></trkpt><trkpt lat="43.51561611144304" lon="12.356451030716597"><ele>734.0</ele><time>2026-04-26T12:05:22.002Z</time></trkpt><trkpt lat="43.51561797566582" lon="12.35634087144351"><ele>734.0</ele><time>2026-04-26T12:05:23.002Z</time></trkpt><trkpt lat="43.51562066118573" lon="12.356239951219175"><ele>733.3333333333333</ele><time>2026-04-26T12:05:24.002Z</time></trkpt><trkpt lat="43.515635953210854" lon="12.356141492958178"><ele>732.6666666666666</ele><time>2026-04-26T12:05:25.002Z</time></trkpt><trkpt lat="43.5156655172384" lon="12.356057515318598"><ele>732.0</ele><time>2026-04-26T12:05:26.002Z</time></trkpt><trkpt lat="43.51573623605327" lon="12.355928888842968"><ele>731.3333333333334</ele><time>2026-04-26T12:05:28.002Z</time></trkpt><trkpt lat="43.51578775593144" lon="12.355825917875912"><ele>730.6666666666667</ele><time>2026-04-26T12:05:30.002Z</time></trkpt><trkpt lat="43.51585974619226" lon="12.355729111059746"><ele>730.0</ele><time>2026-04-26T12:05:32.002Z</time></trkpt><trkpt lat="43.515911831130786" lon="12.355634101171576"><ele>730.0</ele><time>2026-04-26T12:05:34.002Z</time></trkpt><trkpt lat="43.51596580941091" lon="12.355566894529689"><ele>730.0</ele><time>2026-04-26T12:05:37.002Z</time></trkpt><trkpt lat="43.51597829678206" lon="12.355473994758036"><ele>730.0</ele><time>2026-04-26T12:06:00.002Z</time></trkpt><trkpt lat="43.51600044534234" lon="12.35533883039899"><ele>730.0</ele><time>2026-04-26T12:06:02.002Z</time></trkpt><trkpt lat="43.51602934572631" lon="12.355209746525926"><ele>730.0</ele><time>2026-04-26T12:06:03.002Z</time></trkpt><trkpt lat="43.516039755545" lon="12.355062614322852"><ele>730.0</ele><time>2026-04-26T12:06:04.002Z</time></trkpt><trkpt lat="43.51603166201486" lon="12.35490563504982"><ele>730.2</ele><time>2026-04-26T12:06:05.002Z</time></trkpt><trkpt lat="43.51601779478698" lon="12.354771953144068"><ele>730.4</ele><time>2026-04-26T12:06:06.002Z</time></trkpt><trkpt lat="43.516018180883414" lon="12.354649448082982"><ele>730.5999999999999</ele><time>2026-04-26T12:06:07.002Z</time></trkpt><trkpt lat="43.51601165077768" lon="12.354521783525717"><ele>730.8</ele><time>2026-04-26T12:06:08.002Z</time></trkpt><trkpt lat="43.516021915618595" lon="12.354369845122589"><ele>731.0</ele><time>2026-04-26T12:06:09.002Z</time></trkpt><trkpt lat="43.516054894651234" lon="12.354196323126704"><ele>731.0</ele><time>2026-04-26T12:06:10.002Z</time></trkpt><trkpt lat="43.51608759975144" lon="12.354049038398239"><ele>731.0</ele><time>2026-04-26T12:06:11.002Z</time></trkpt><trkpt lat="43.516092589443815" lon="12.35389772011471"><ele>731.0</ele><time>2026-04-26T12:06:12.002Z</time></trkpt><trkpt lat="43.516117314421095" lon="12.353744945106774"><ele>731.0</ele><time>2026-04-26T12:06:13.002Z</time></trkpt><trkpt lat="43.516118414087344" lon="12.353585127936794"><ele>734.5</ele><time>2026-04-26T12:06:14.002Z</time></trkpt><trkpt lat="43.51607693295582" lon="12.35340970617956"><ele>738.0</ele><time>2026-04-26T12:06:15.002Z</time></trkpt><trkpt lat="43.51601314141898" lon="12.353276522369292"><ele>741.5</ele><time>2026-04-26T12:06:16.002Z</time></trkpt><trkpt lat="43.51590067918503" lon="12.353141777695809"><ele>745.0</ele><time>2026-04-26T12:06:17.002Z</time></trkpt><trkpt lat="43.51575374561937" lon="12.353057443701287"><ele>745.0</ele><time>2026-04-26T12:06:18.002Z</time></trkpt><trkpt lat="43.51559223146603" lon="12.353041615516082"><ele>745.0</ele><time>2026-04-26T12:06:19.002Z</time></trkpt><trkpt lat="43.51544468843182" lon="12.353100593577519"><ele>745.0</ele><time>2026-04-26T12:06:20.002Z</time></trkpt><trkpt lat="43.51528009886214" lon="12.353182072004849"><ele>745.3333333333334</ele><time>2026-04-26T12:06:21.002Z</time></trkpt><trkpt lat="43.51510802384328" lon="12.353285510724586"><ele>745.6666666666666</ele><time>2026-04-26T12:06:22.002Z</time></trkpt><trkpt lat="43.514925588566555" lon="12.353429187134278"><ele>746.0</ele><time>2026-04-26T12:06:23.002Z</time></trkpt><trkpt lat="43.514769998162976" lon="12.353525276400303"><ele>746.0</ele><time>2026-04-26T12:06:24.002Z</time></trkpt><trkpt lat="43.51461887831484" lon="12.35361258208202"><ele>746.0</ele><time>2026-04-26T12:06:25.002Z</time></trkpt><trkpt lat="43.5144539240467" lon="12.35359736252485"><ele>746.0</ele><time>2026-04-26T12:06:26.002Z</time></trkpt><trkpt lat="43.51426114717995" lon="12.353583984842325"><ele>747.3333333333333</ele><time>2026-04-26T12:06:27.002Z</time></trkpt><trkpt lat="43.51406735293239" lon="12.353569088503306"><ele>748.6666666666666</ele><time>2026-04-26T12:06:28.002Z</time></trkpt><trkpt lat="43.5138787079015" lon="12.353552022315075"><ele>750.0</ele><time>2026-04-26T12:06:29.002Z</time></trkpt><trkpt lat="43.513667568370884" lon="12.353515679339331"><ele>742.5</ele><time>2026-04-26T12:06:30.002Z</time></trkpt><trkpt lat="43.5134273570107" lon="12.353413019440598"><ele>735.0</ele><time>2026-04-26T12:06:31.002Z</time></trkpt><trkpt lat="43.51321791921876" lon="12.353298148270873"><ele>735.0</ele><time>2026-04-26T12:06:32.002Z</time></trkpt><trkpt lat="43.51307370577922" lon="12.353178048163477"><ele>735.0</ele><time>2026-04-26T12:06:33.002Z</time></trkpt><trkpt lat="43.51298568587137" lon="12.353039404654478"><ele>735.0</ele><time>2026-04-26T12:06:34.002Z</time></trkpt><trkpt lat="43.512912010934876" lon="12.352842274717053"><ele>735.6666666666666</ele><time>2026-04-26T12:06:35.002Z</time></trkpt><trkpt lat="43.51284131290543" lon="12.352589719717338"><ele>736.3333333333333</ele><time>2026-04-26T12:06:36.002Z</time></trkpt><trkpt lat="43.51274104022221" lon="12.352344977548443"><ele>737.0</ele><time>2026-04-26T12:06:37.002Z</time></trkpt><trkpt lat="43.51258460595084" lon="12.35211357177807"><ele>737.0</ele><time>2026-04-26T12:06:38.002Z</time></trkpt><trkpt lat="43.512402884457266" lon="12.351927060061504"><ele>737.0</ele><time>2026-04-26T12:06:39.002Z</time></trkpt><trkpt lat="43.512257774195405" lon="12.351733967958166"><ele>737.0</ele><time>2026-04-26T12:06:40.002Z</time></trkpt><trkpt lat="43.51217982638435" lon="12.351571328158425"><ele>737.0</ele><time>2026-04-26T12:06:41.002Z</time></trkpt><trkpt lat="43.512165523741196" lon="12.351407525041504"><ele>737.0</ele><time>2026-04-26T12:06:42.002Z</time></trkpt><trkpt lat="43.5121769187447" lon="12.351169542451501"><ele>737.0</ele><time>2026-04-26T12:06:43.002Z</time></trkpt><trkpt lat="43.51219468825073" lon="12.350852914923346"><ele>737.6666666666666</ele><time>2026-04-26T12:06:44.002Z</time></trkpt><trkpt lat="43.51221199728137" lon="12.350544500038032"><ele>738.3333333333334</ele><time>2026-04-26T12:06:45.002Z</time></trkpt><trkpt lat="43.51222752575975" lon="12.350267811388207"><ele>739.0</ele><time>2026-04-26T12:06:46.002Z</time></trkpt><trkpt lat="43.51210572665668" lon="12.35001419749842"><ele>732.6666666666667</ele><time>2026-04-26T12:06:47.002Z</time></trkpt><trkpt lat="43.5119528287394" lon="12.349810334929275"><ele>726.3333333333334</ele><time>2026-04-26T12:06:48.002Z</time></trkpt><trkpt lat="43.51177550930448" lon="12.349597998511957"><ele>720.0</ele><time>2026-04-26T12:06:49.002Z</time></trkpt><trkpt lat="43.5116519182756" lon="12.349372759213557"><ele>720.0</ele><time>2026-04-26T12:06:50.002Z</time></trkpt><trkpt lat="43.51159671130924" lon="12.349167595208305"><ele>720.0</ele><time>2026-04-26T12:06:51.002Z</time></trkpt><trkpt lat="43.511597510902654" lon="12.34898935889029"><ele>720.0</ele><time>2026-04-26T12:06:52.002Z</time></trkpt><trkpt lat="43.51164005759556" lon="12.348838306088636"><ele>720.0</ele><time>2026-04-26T12:06:53.002Z</time></trkpt><trkpt lat="43.51172316072209" lon="12.348786453464"><ele>720.0</ele><time>2026-04-26T12:06:54.002Z</time></trkpt><trkpt lat="43.51183057598886" lon="12.348821425305509"><ele>720.0</ele><time>2026-04-26T12:06:55.002Z</time></trkpt><trkpt lat="43.51196595064621" lon="12.348929092838063"><ele>720.0</ele><time>2026-04-26T12:06:56.002Z</time></trkpt><trkpt lat="43.51212355328041" lon="12.349097269727896"><ele>715.5</ele><time>2026-04-26T12:06:57.002Z</time></trkpt><trkpt lat="43.51230020372043" lon="12.349309098428424"><ele>711.0</ele><time>2026-04-26T12:06:58.002Z</time></trkpt><trkpt lat="43.51246475627773" lon="12.349584014468775"><ele>715.0</ele><time>2026-04-26T12:06:59.002Z</time></trkpt><trkpt lat="43.51263070077585" lon="12.349824228037006"><ele>719.0</ele><time>2026-04-26T12:07:00.002Z</time></trkpt><trkpt lat="43.5127946716296" lon="12.349999539153503"><ele>723.0</ele><time>2026-04-26T12:07:01.002Z</time></trkpt><trkpt lat="43.51297671305275" lon="12.350129367858983"><ele>723.0</ele><time>2026-04-26T12:07:02.002Z</time></trkpt><trkpt lat="43.51318266347739" lon="12.350217767744764"><ele>723.0</ele><time>2026-04-26T12:07:03.002Z</time></trkpt><trkpt lat="43.513428891011785" lon="12.350234801319331"><ele>723.0</ele><time>2026-04-26T12:07:04.002Z</time></trkpt><trkpt lat="43.5136890380124" lon="12.350226127620623"><ele>723.0</ele><time>2026-04-26T12:07:05.002Z</time></trkpt><trkpt lat="43.51388249834377" lon="12.350237479564953"><ele>726.25</ele><time>2026-04-26T12:07:06.002Z</time></trkpt><trkpt lat="43.514022669719246" lon="12.350200321801662"><ele>729.5</ele><time>2026-04-26T12:07:07.002Z</time></trkpt><trkpt lat="43.51410118403818" lon="12.350101372898905"><ele>732.75</ele><time>2026-04-26T12:07:08.002Z</time></trkpt><trkpt lat="43.51415292981443" lon="12.349949864317722"><ele>736.0</ele><time>2026-04-26T12:07:09.002Z</time></trkpt><trkpt lat="43.51418370190103" lon="12.349750817599672"><ele>732.3333333333334</ele><time>2026-04-26T12:07:10.002Z</time></trkpt><trkpt lat="43.51416615178131" lon="12.349501059080364"><ele>728.6666666666666</ele><time>2026-04-26T12:07:11.002Z</time></trkpt><trkpt lat="43.51411106191395" lon="12.34917346921498"><ele>725.0</ele><time>2026-04-26T12:07:12.002Z</time></trkpt><trkpt lat="43.514113426311724" lon="12.348819497406124"><ele>724.3333333333333</ele><time>2026-04-26T12:07:13.002Z</time></trkpt><trkpt lat="43.51415366845223" lon="12.348519304011754"><ele>723.6666666666666</ele><time>2026-04-26T12:07:14.002Z</time></trkpt><trkpt lat="43.51410964654279" lon="12.348229438071463"><ele>723.0</ele><time>2026-04-26T12:07:15.002Z</time></trkpt><trkpt lat="43.514074808078256" lon="12.347969881382847"><ele>722.0</ele><time>2026-04-26T12:07:16.002Z</time></trkpt><trkpt lat="43.51405435276937" lon="12.347798979005232"><ele>721.0</ele><time>2026-04-26T12:07:17.002Z</time></trkpt><trkpt lat="43.51407454311786" lon="12.347692228055598"><ele>720.0</ele><time>2026-04-26T12:07:18.002Z</time></trkpt><trkpt lat="43.51416911477136" lon="12.347632622534597"><ele>719.0</ele><time>2026-04-26T12:07:19.002Z</time></trkpt><trkpt lat="43.514290128454256" lon="12.347600348976021"><ele>718.0</ele><time>2026-04-26T12:07:20.002Z</time></trkpt><trkpt lat="43.51446916870435" lon="12.347572382008265"><ele>719.0</ele><time>2026-04-26T12:07:21.002Z</time></trkpt><trkpt lat="43.51467988445591" lon="12.347540802909597"><ele>720.0</ele><time>2026-04-26T12:07:22.002Z</time></trkpt><trkpt lat="43.51490167193903" lon="12.347509434997024"><ele>721.0</ele><time>2026-04-26T12:07:23.002Z</time></trkpt><trkpt lat="43.515091340786576" lon="12.347525352183753"><ele>721.0</ele><time>2026-04-26T12:07:24.002Z</time></trkpt><trkpt lat="43.51529265477852" lon="12.347614910193279"><ele>721.0</ele><time>2026-04-26T12:07:25.002Z</time></trkpt><trkpt lat="43.51553233070349" lon="12.347680091749966"><ele>718.5</ele><time>2026-04-26T12:07:26.002Z</time></trkpt><trkpt lat="43.51577176146372" lon="12.347687541785646"><ele>716.0</ele><time>2026-04-26T12:07:27.002Z</time></trkpt><trkpt lat="43.51601231453312" lon="12.347729316858057"><ele>716.0</ele><time>2026-04-26T12:07:28.002Z</time></trkpt><trkpt lat="43.51622132728396" lon="12.34775602626505"><ele>716.0</ele><time>2026-04-26T12:07:29.002Z</time></trkpt><trkpt lat="43.516381690580374" lon="12.347777289346942"><ele>716.0</ele><time>2026-04-26T12:07:30.002Z</time></trkpt><trkpt lat="43.5165040801946" lon="12.347819759098883"><ele>713.25</ele><time>2026-04-26T12:07:31.002Z</time></trkpt><trkpt lat="43.51659534231402" lon="12.347898762452123"><ele>710.5</ele><time>2026-04-26T12:07:32.002Z</time></trkpt><trkpt lat="43.51665731269712" lon="12.348088201981952"><ele>707.75</ele><time>2026-04-26T12:07:33.002Z</time></trkpt><trkpt lat="43.51674985839468" lon="12.34831451034534"><ele>705.0</ele><time>2026-04-26T12:07:34.002Z</time></trkpt><trkpt lat="43.516864534329116" lon="12.348493640187643"><ele>708.0</ele><time>2026-04-26T12:07:35.002Z</time></trkpt><trkpt lat="43.51696226364485" lon="12.34863173572576"><ele>711.0</ele><time>2026-04-26T12:07:36.002Z</time></trkpt><trkpt lat="43.517088359828676" lon="12.348714655190522"><ele>714.0</ele><time>2026-04-26T12:07:37.002Z</time></trkpt><trkpt lat="43.51722357214312" lon="12.348743925778182"><ele>717.0</ele><time>2026-04-26T12:07:38.002Z</time></trkpt><trkpt lat="43.51736440295587" lon="12.34867981872144"><ele>717.0</ele><time>2026-04-26T12:07:39.002Z</time></trkpt><trkpt lat="43.51752134642644" lon="12.348530939687267"><ele>717.0</ele><time>2026-04-26T12:07:40.002Z</time></trkpt><trkpt lat="43.517676020328636" lon="12.34833809400388"><ele>717.0</ele><time>2026-04-26T12:07:41.002Z</time></trkpt><trkpt lat="43.517785810285986" lon="12.348138414428735"><ele>718.3333333333334</ele><time>2026-04-26T12:07:42.002Z</time></trkpt><trkpt lat="43.51785835651391" lon="12.347902296183568"><ele>719.6666666666667</ele><time>2026-04-26T12:07:43.002Z</time></trkpt><trkpt lat="43.51788954661145" lon="12.347607115840745"><ele>721.0</ele><time>2026-04-26T12:07:44.002Z</time></trkpt><trkpt lat="43.517919467289055" lon="12.347350973289787"><ele>721.0</ele><time>2026-04-26T12:07:45.002Z</time></trkpt><trkpt lat="43.517965103714616" lon="12.347211038407867"><ele>721.0</ele><time>2026-04-26T12:07:46.002Z</time></trkpt><trkpt lat="43.51811615979443" lon="12.347119759005956"><ele>721.0</ele><time>2026-04-26T12:07:47.002Z</time></trkpt><trkpt lat="43.51829589722026" lon="12.346964553541977"><ele>712.0</ele><time>2026-04-26T12:07:48.002Z</time></trkpt><trkpt lat="43.518502553755624" lon="12.346768378326333"><ele>703.0</ele><time>2026-04-26T12:07:49.002Z</time></trkpt><trkpt lat="43.51871916645307" lon="12.34660622712838"><ele>710.3333333333334</ele><time>2026-04-26T12:07:50.002Z</time></trkpt><trkpt lat="43.51889688919831" lon="12.346468942708688"><ele>717.6666666666666</ele><time>2026-04-26T12:07:51.002Z</time></trkpt><trkpt lat="43.51902043583784" lon="12.346352827008678"><ele>725.0</ele><time>2026-04-26T12:07:52.002Z</time></trkpt><trkpt lat="43.51910098256179" lon="12.346242272005906"><ele>725.0</ele><time>2026-04-26T12:07:53.002Z</time></trkpt><trkpt lat="43.51913199192142" lon="12.346085610015482"><ele>725.0</ele><time>2026-04-26T12:07:54.002Z</time></trkpt><trkpt lat="43.519092835536114" lon="12.345899632863949"><ele>725.0</ele><time>2026-04-26T12:07:55.002Z</time></trkpt><trkpt lat="43.51898349170636" lon="12.345651495578071"><ele>729.5</ele><time>2026-04-26T12:07:56.002Z</time></trkpt><trkpt lat="43.518842476820545" lon="12.345379940081338"><ele>734.0</ele><time>2026-04-26T12:07:57.002Z</time></trkpt><trkpt lat="43.51873503050786" lon="12.34508942099292"><ele>720.3333333333333</ele><time>2026-04-26T12:07:58.002Z</time></trkpt><trkpt lat="43.51865766740904" lon="12.34481534586632"><ele>706.6666666666666</ele><time>2026-04-26T12:07:59.002Z</time></trkpt><trkpt lat="43.518606363566356" lon="12.344568584762172"><ele>693.0</ele><time>2026-04-26T12:08:00.002Z</time></trkpt><trkpt lat="43.51858420403275" lon="12.34432741346448"><ele>693.0</ele><time>2026-04-26T12:08:01.002Z</time></trkpt><trkpt lat="43.518598213402505" lon="12.344083338578221"><ele>693.0</ele><time>2026-04-26T12:08:02.002Z</time></trkpt><trkpt lat="43.518664286660524" lon="12.343849120121458"><ele>693.0</ele><time>2026-04-26T12:08:03.002Z</time></trkpt><trkpt lat="43.518732473214314" lon="12.343619395553505"><ele>693.0</ele><time>2026-04-26T12:08:04.002Z</time></trkpt><trkpt lat="43.518754972224045" lon="12.343431246931042"><ele>693.0</ele><time>2026-04-26T12:08:05.002Z</time></trkpt><trkpt lat="43.5187425317238" lon="12.343234294555693"><ele>693.0</ele><time>2026-04-26T12:08:06.002Z</time></trkpt><trkpt lat="43.51865747331564" lon="12.34304209165044"><ele>693.0</ele><time>2026-04-26T12:08:07.002Z</time></trkpt><trkpt lat="43.51854709435921" lon="12.342842149956756"><ele>693.0</ele><time>2026-04-26T12:08:08.002Z</time></trkpt><trkpt lat="43.51852646361749" lon="12.342611169722648"><ele>693.0</ele><time>2026-04-26T12:08:09.002Z</time></trkpt><trkpt lat="43.51855112150239" lon="12.342379405488757"><ele>693.0</ele><time>2026-04-26T12:08:10.002Z</time></trkpt><trkpt lat="43.51860641687495" lon="12.342179521004741"><ele>691.0</ele><time>2026-04-26T12:08:11.002Z</time></trkpt><trkpt lat="43.51873370464251" lon="12.342004983519864"><ele>689.0</ele><time>2026-04-26T12:08:12.002Z</time></trkpt><trkpt lat="43.518893304047474" lon="12.34176505568529"><ele>687.0</ele><time>2026-04-26T12:08:13.002Z</time></trkpt><trkpt lat="43.51902231452504" lon="12.341556085535618"><ele>694.75</ele><time>2026-04-26T12:08:14.002Z</time></trkpt><trkpt lat="43.5190907431322" lon="12.3413704932195"><ele>702.5</ele><time>2026-04-26T12:08:15.002Z</time></trkpt><trkpt lat="43.51907950183568" lon="12.341190361214823"><ele>710.25</ele><time>2026-04-26T12:08:16.002Z</time></trkpt><trkpt lat="43.51901626767952" lon="12.34098067919221"><ele>718.0</ele><time>2026-04-26T12:08:17.002Z</time></trkpt><trkpt lat="43.51888653213185" lon="12.340777370757147"><ele>724.5</ele><time>2026-04-26T12:08:18.002Z</time></trkpt><trkpt lat="43.51870691649558" lon="12.340597718071693"><ele>731.0</ele><time>2026-04-26T12:08:19.002Z</time></trkpt><trkpt lat="43.51849573890844" lon="12.340447175632782"><ele>731.0</ele><time>2026-04-26T12:08:20.002Z</time></trkpt><trkpt lat="43.518257362873" lon="12.340334835666994"><ele>731.0</ele><time>2026-04-26T12:08:21.002Z</time></trkpt><trkpt lat="43.518025420903925" lon="12.340249146410258"><ele>726.5</ele><time>2026-04-26T12:08:22.002Z</time></trkpt><trkpt lat="43.51779344016679" lon="12.340213260015869"><ele>722.0</ele><time>2026-04-26T12:08:23.002Z</time></trkpt><trkpt lat="43.51754624062959" lon="12.340227071665035"><ele>722.0</ele><time>2026-04-26T12:08:24.002Z</time></trkpt><trkpt lat="43.51730259548772" lon="12.340275208136402"><ele>722.0</ele><time>2026-04-26T12:08:25.002Z</time></trkpt><trkpt lat="43.5170907032816" lon="12.340242141357843"><ele>714.5</ele><time>2026-04-26T12:08:26.002Z</time></trkpt><trkpt lat="43.51689496426802" lon="12.34015045903668"><ele>707.0</ele><time>2026-04-26T12:08:27.002Z</time></trkpt><trkpt lat="43.51666443771748" lon="12.340024307982832"><ele>707.0</ele><time>2026-04-26T12:08:28.002Z</time></trkpt><trkpt lat="43.51642193930395" lon="12.339891610765106"><ele>707.0</ele><time>2026-04-26T12:08:29.002Z</time></trkpt><trkpt lat="43.516181870505136" lon="12.33976024305683"><ele>705.0</ele><time>2026-04-26T12:08:30.002Z</time></trkpt><trkpt lat="43.51598264687394" lon="12.339674251847613"><ele>703.0</ele><time>2026-04-26T12:08:31.002Z</time></trkpt><trkpt lat="43.5158412463877" lon="12.339566418455362"><ele>701.0</ele><time>2026-04-26T12:08:32.002Z</time></trkpt><trkpt lat="43.51572438987516" lon="12.339472694463423"><ele>701.0</ele><time>2026-04-26T12:08:33.002Z</time></trkpt><trkpt lat="43.515638919299995" lon="12.339333490367235"><ele>701.0</ele><time>2026-04-26T12:08:34.003Z</time></trkpt><trkpt lat="43.51556825830034" lon="12.339181960972912"><ele>701.0</ele><time>2026-04-26T12:08:35.003Z</time></trkpt><trkpt lat="43.51555475510096" lon="12.338968827258558"><ele>701.0</ele><time>2026-04-26T12:08:36.003Z</time></trkpt><trkpt lat="43.51560756459631" lon="12.338761289505351"><ele>698.6666666666666</ele><time>2026-04-26T12:08:37.003Z</time></trkpt><trkpt lat="43.51570698447525" lon="12.338581897697717"><ele>696.3333333333334</ele><time>2026-04-26T12:08:38.003Z</time></trkpt><trkpt lat="43.515857055321746" lon="12.338432012966111"><ele>694.0</ele><time>2026-04-26T12:08:39.003Z</time></trkpt><trkpt lat="43.51604678425152" lon="12.338297610075285"><ele>691.5</ele><time>2026-04-26T12:08:40.003Z</time></trkpt><trkpt lat="43.51629366096426" lon="12.338160001381784"><ele>689.0</ele><time>2026-04-26T12:08:41.003Z</time></trkpt><trkpt lat="43.51654045984874" lon="12.337997291243758"><ele>689.0</ele><time>2026-04-26T12:08:42.003Z</time></trkpt><trkpt lat="43.51676932111338" lon="12.337840127169569"><ele>689.0</ele><time>2026-04-26T12:08:43.003Z</time></trkpt><trkpt lat="43.51697895933857" lon="12.337687287664343"><ele>697.5</ele><time>2026-04-26T12:08:44.003Z</time></trkpt><trkpt lat="43.51719098561934" lon="12.33749534876324"><ele>706.0</ele><time>2026-04-26T12:08:45.003Z</time></trkpt><trkpt lat="43.51738720668582" lon="12.337263999329238"><ele>697.0</ele><time>2026-04-26T12:08:46.003Z</time></trkpt><trkpt lat="43.51758563402827" lon="12.33706794569983"><ele>688.0</ele><time>2026-04-26T12:08:47.003Z</time></trkpt><trkpt lat="43.51775403429408" lon="12.336863313006395"><ele>688.0</ele><time>2026-04-26T12:08:48.003Z</time></trkpt><trkpt lat="43.51788183464834" lon="12.336636062784482"><ele>688.0</ele><time>2026-04-26T12:08:49.003Z</time></trkpt><trkpt lat="43.51798286561834" lon="12.336420165707262"><ele>688.0</ele><time>2026-04-26T12:08:50.003Z</time></trkpt><trkpt lat="43.51804751016782" lon="12.336189168120056"><ele>693.0</ele><time>2026-04-26T12:08:51.003Z</time></trkpt><trkpt lat="43.51804398502592" lon="12.335925406904298"><ele>698.0</ele><time>2026-04-26T12:08:52.003Z</time></trkpt><trkpt lat="43.51802545005937" lon="12.335647748768526"><ele>703.0</ele><time>2026-04-26T12:08:53.003Z</time></trkpt><trkpt lat="43.517967465363746" lon="12.335390536693215"><ele>699.6666666666667</ele><time>2026-04-26T12:08:54.003Z</time></trkpt><trkpt lat="43.51787355052461" lon="12.335178847900613"><ele>696.3333333333334</ele><time>2026-04-26T12:08:55.003Z</time></trkpt><trkpt lat="43.51772394162546" lon="12.335041172976188"><ele>693.0</ele><time>2026-04-26T12:08:56.003Z</time></trkpt><trkpt lat="43.51752585118078" lon="12.33495688915092"><ele>693.0</ele><time>2026-04-26T12:08:57.003Z</time></trkpt><trkpt lat="43.51729332147914" lon="12.334882802958381"><ele>693.0</ele><time>2026-04-26T12:08:58.003Z</time></trkpt><trkpt lat="43.51703081002877" lon="12.33479535718417"><ele>702.0</ele><time>2026-04-26T12:08:59.003Z</time></trkpt><trkpt lat="43.516768364181516" lon="12.334714678017592"><ele>711.0</ele><time>2026-04-26T12:09:00.003Z</time></trkpt><trkpt lat="43.516493410432" lon="12.334628340128154"><ele>711.0</ele><time>2026-04-26T12:09:01.003Z</time></trkpt><trkpt lat="43.51623858247131" lon="12.334550206484552"><ele>711.0</ele><time>2026-04-26T12:09:02.003Z</time></trkpt><trkpt lat="43.51601347388345" lon="12.334487329249038"><ele>704.0</ele><time>2026-04-26T12:09:03.003Z</time></trkpt><trkpt lat="43.51579910770787" lon="12.334424019643402"><ele>697.0</ele><time>2026-04-26T12:09:04.003Z</time></trkpt><trkpt lat="43.51562310597218" lon="12.33437465568996"><ele>690.0</ele><time>2026-04-26T12:09:05.003Z</time></trkpt><trkpt lat="43.5154781403196" lon="12.334317399378447"><ele>683.5</ele><time>2026-04-26T12:09:06.003Z</time></trkpt><trkpt lat="43.51538335195705" lon="12.334207866871484"><ele>677.0</ele><time>2026-04-26T12:09:07.003Z</time></trkpt><trkpt lat="43.51533480700037" lon="12.334069819183732"><ele>670.5</ele><time>2026-04-26T12:09:08.003Z</time></trkpt><trkpt lat="43.51533512811219" lon="12.333922115755328"><ele>664.0</ele><time>2026-04-26T12:09:09.003Z</time></trkpt><trkpt lat="43.51537581196443" lon="12.33375158490763"><ele>673.0</ele><time>2026-04-26T12:09:10.003Z</time></trkpt><trkpt lat="43.515477658766315" lon="12.33360313088763"><ele>682.0</ele><time>2026-04-26T12:09:11.003Z</time></trkpt><trkpt lat="43.51562004594788" lon="12.333482936011412"><ele>691.0</ele><time>2026-04-26T12:09:12.003Z</time></trkpt><trkpt lat="43.51576579615765" lon="12.333340419115792"><ele>691.0</ele><time>2026-04-26T12:09:13.003Z</time></trkpt><trkpt lat="43.51585413032453" lon="12.33318353122457"><ele>691.0</ele><time>2026-04-26T12:09:14.003Z</time></trkpt><trkpt lat="43.51587112959642" lon="12.332990124067955"><ele>691.0</ele><time>2026-04-26T12:09:15.003Z</time></trkpt><trkpt lat="43.515828470021006" lon="12.33278654861776"><ele>691.0</ele><time>2026-04-26T12:09:16.003Z</time></trkpt><trkpt lat="43.5156925865448" lon="12.33256668389051"><ele>690.0</ele><time>2026-04-26T12:09:17.003Z</time></trkpt><trkpt lat="43.515517527350084" lon="12.33236581292884"><ele>689.0</ele><time>2026-04-26T12:09:18.003Z</time></trkpt><trkpt lat="43.51535762633085" lon="12.332108955835968"><ele>689.0</ele><time>2026-04-26T12:09:19.003Z</time></trkpt><trkpt lat="43.51519852255736" lon="12.331804629162805"><ele>689.0</ele><time>2026-04-26T12:09:20.003Z</time></trkpt><trkpt lat="43.515079463876695" lon="12.331577396896558"><ele>689.0</ele><time>2026-04-26T12:09:21.003Z</time></trkpt><trkpt lat="43.51497522558068" lon="12.331415944973008"><ele>689.0</ele><time>2026-04-26T12:09:22.003Z</time></trkpt><trkpt lat="43.51487765107931" lon="12.331286395437944"><ele>689.0</ele><time>2026-04-26T12:09:23.003Z</time></trkpt><trkpt lat="43.514754094137544" lon="12.33120697240241"><ele>689.0</ele><time>2026-04-26T12:09:24.003Z</time></trkpt><trkpt lat="43.51459384770154" lon="12.33125460878722"><ele>684.3333333333333</ele><time>2026-04-26T12:09:25.003Z</time></trkpt><trkpt lat="43.51442366245063" lon="12.331393965143961"><ele>679.6666666666666</ele><time>2026-04-26T12:09:26.003Z</time></trkpt><trkpt lat="43.514219773544546" lon="12.33152632077751"><ele>675.0</ele><time>2026-04-26T12:09:27.003Z</time></trkpt><trkpt lat="43.514035884462395" lon="12.331617807500603"><ele>675.0</ele><time>2026-04-26T12:09:28.003Z</time></trkpt><trkpt lat="43.51389296947765" lon="12.33164099345952"><ele>675.0</ele><time>2026-04-26T12:09:29.003Z</time></trkpt><trkpt lat="43.5137841849453" lon="12.33159273722821"><ele>675.0</ele><time>2026-04-26T12:09:30.003Z</time></trkpt><trkpt lat="43.51371501909722" lon="12.331466163649347"><ele>675.0</ele><time>2026-04-26T12:09:31.003Z</time></trkpt><trkpt lat="43.51372611044058" lon="12.331266038244827"><ele>673.0</ele><time>2026-04-26T12:09:32.003Z</time></trkpt><trkpt lat="43.51372629748337" lon="12.331031795051912"><ele>671.0</ele><time>2026-04-26T12:09:33.003Z</time></trkpt><trkpt lat="43.51369077561501" lon="12.330782150582145"><ele>669.0</ele><time>2026-04-26T12:09:34.003Z</time></trkpt><trkpt lat="43.51366052675617" lon="12.330587005892465"><ele>674.0</ele><time>2026-04-26T12:09:35.003Z</time></trkpt><trkpt lat="43.51355265314022" lon="12.330464869574072"><ele>679.0</ele><time>2026-04-26T12:09:36.003Z</time></trkpt><trkpt lat="43.51338637569818" lon="12.330398083373426"><ele>684.0</ele><time>2026-04-26T12:09:37.003Z</time></trkpt><trkpt lat="43.513160639220324" lon="12.33036030377111"><ele>684.0</ele><time>2026-04-26T12:09:38.003Z</time></trkpt><trkpt lat="43.51291749520119" lon="12.330389174833769"><ele>684.0</ele><time>2026-04-26T12:09:39.003Z</time></trkpt><trkpt lat="43.512744470362925" lon="12.33034977875579"><ele>684.0</ele><time>2026-04-26T12:09:40.003Z</time></trkpt><trkpt lat="43.512637152798476" lon="12.330303760250828"><ele>680.75</ele><time>2026-04-26T12:09:41.003Z</time></trkpt><trkpt lat="43.512605198162305" lon="12.330150466296654"><ele>677.5</ele><time>2026-04-26T12:09:42.003Z</time></trkpt><trkpt lat="43.51260260915307" lon="12.32998175529792"><ele>674.25</ele><time>2026-04-26T12:09:43.003Z</time></trkpt><trkpt lat="43.51263763826101" lon="12.32974477753692"><ele>671.0</ele><time>2026-04-26T12:09:44.003Z</time></trkpt><trkpt lat="43.51264383041517" lon="12.32947711293318"><ele>671.0</ele><time>2026-04-26T12:09:45.003Z</time></trkpt><trkpt lat="43.51260799698412" lon="12.329240195663065"><ele>671.0</ele><time>2026-04-26T12:09:46.003Z</time></trkpt><trkpt lat="43.512520223951924" lon="12.329046492404881"><ele>671.0</ele><time>2026-04-26T12:09:47.003Z</time></trkpt><trkpt lat="43.51235762427871" lon="12.328894127535383"><ele>670.0</ele><time>2026-04-26T12:09:48.003Z</time></trkpt><trkpt lat="43.51215982037874" lon="12.328794973828716"><ele>669.0</ele><time>2026-04-26T12:09:49.003Z</time></trkpt><trkpt lat="43.511921092805544" lon="12.32874359379693"><ele>673.0</ele><time>2026-04-26T12:09:50.003Z</time></trkpt><trkpt lat="43.51165657688912" lon="12.328701548607452"><ele>677.0</ele><time>2026-04-26T12:09:51.003Z</time></trkpt><trkpt lat="43.51138665120838" lon="12.328633425754823"><ele>670.5</ele><time>2026-04-26T12:09:52.003Z</time></trkpt><trkpt lat="43.51111807962338" lon="12.328558373736195"><ele>664.0</ele><time>2026-04-26T12:09:53.003Z</time></trkpt><trkpt lat="43.510877603386916" lon="12.32848174291283"><ele>664.0</ele><time>2026-04-26T12:09:54.003Z</time></trkpt><trkpt lat="43.51068262983939" lon="12.328413435653122"><ele>664.0</ele><time>2026-04-26T12:09:55.003Z</time></trkpt><trkpt lat="43.51049396070509" lon="12.328388822501687"><ele>664.0</ele><time>2026-04-26T12:09:56.003Z</time></trkpt><trkpt lat="43.510313554670105" lon="12.328431966176186"><ele>663.6666666666667</ele><time>2026-04-26T12:09:57.003Z</time></trkpt><trkpt lat="43.51013794425882" lon="12.328571450849964"><ele>663.3333333333334</ele><time>2026-04-26T12:09:58.003Z</time></trkpt><trkpt lat="43.509939758473585" lon="12.328770346708456"><ele>663.0</ele><time>2026-04-26T12:09:59.003Z</time></trkpt><trkpt lat="43.50972943981834" lon="12.328995352906627"><ele>664.0</ele><time>2026-04-26T12:10:00.003Z</time></trkpt><trkpt lat="43.509552746211355" lon="12.32915405234285"><ele>665.0</ele><time>2026-04-26T12:10:01.003Z</time></trkpt><trkpt lat="43.509400121289566" lon="12.329251988342849"><ele>666.0</ele><time>2026-04-26T12:10:02.003Z</time></trkpt><trkpt lat="43.50925535716735" lon="12.329289088032036"><ele>666.0</ele><time>2026-04-26T12:10:03.003Z</time></trkpt><trkpt lat="43.509120218047016" lon="12.32924446963728"><ele>666.0</ele><time>2026-04-26T12:10:04.003Z</time></trkpt><trkpt lat="43.508965727768555" lon="12.329154585980271"><ele>666.0</ele><time>2026-04-26T12:10:05.003Z</time></trkpt><trkpt lat="43.50882797321587" lon="12.329023843227619"><ele>663.25</ele><time>2026-04-26T12:10:06.003Z</time></trkpt><trkpt lat="43.50871238106392" lon="12.328862622042054"><ele>660.5</ele><time>2026-04-26T12:10:07.003Z</time></trkpt><trkpt lat="43.50860044543658" lon="12.328724058861884"><ele>657.75</ele><time>2026-04-26T12:10:08.003Z</time></trkpt><trkpt lat="43.50850318701749" lon="12.32862754709025"><ele>655.0</ele><time>2026-04-26T12:10:09.003Z</time></trkpt><trkpt lat="43.50863787122506" lon="12.328130748361552"><ele>654.3333333333334</ele><time>2026-04-26T12:10:10.003Z</time></trkpt><trkpt lat="43.50871366679485" lon="12.32791415255293"><ele>653.6666666666666</ele><time>2026-04-26T12:10:11.003Z</time></trkpt><trkpt lat="43.508829522124145" lon="12.32774792341819"><ele>653.0</ele><time>2026-04-26T12:10:12.003Z</time></trkpt><trkpt lat="43.50897167367425" lon="12.327637457712237"><ele>653.0</ele><time>2026-04-26T12:10:13.003Z</time></trkpt><trkpt lat="43.50916219442197" lon="12.32765666637128"><ele>653.0</ele><time>2026-04-26T12:10:14.003Z</time></trkpt><trkpt lat="43.50938130023644" lon="12.327624140126634"><ele>653.0</ele><time>2026-04-26T12:10:15.003Z</time></trkpt><trkpt lat="43.50963697852053" lon="12.32758993049608"><ele>655.0</ele><time>2026-04-26T12:10:16.003Z</time></trkpt><trkpt lat="43.50986776142803" lon="12.32754551084178"><ele>657.0</ele><time>2026-04-26T12:10:17.003Z</time></trkpt><trkpt lat="43.510039687754265" lon="12.327454998219785"><ele>659.0</ele><time>2026-04-26T12:10:18.003Z</time></trkpt><trkpt lat="43.51016436055918" lon="12.327328889643951"><ele>658.6666666666666</ele><time>2026-04-26T12:10:19.003Z</time></trkpt><trkpt lat="43.51029017997531" lon="12.32713943116823"><ele>658.3333333333334</ele><time>2026-04-26T12:10:20.003Z</time></trkpt><trkpt lat="43.51041427402687" lon="12.32685790439088"><ele>658.0</ele><time>2026-04-26T12:10:21.003Z</time></trkpt><trkpt lat="43.51054501528491" lon="12.326578717164596"><ele>656.6666666666667</ele><time>2026-04-26T12:10:22.003Z</time></trkpt><trkpt lat="43.51064278738833" lon="12.326371000471509"><ele>655.3333333333334</ele><time>2026-04-26T12:10:23.003Z</time></trkpt><trkpt lat="43.51069025352711" lon="12.326188040791356"><ele>654.0</ele><time>2026-04-26T12:10:24.003Z</time></trkpt><trkpt lat="43.5106712062908" lon="12.3260057068109"><ele>654.0</ele><time>2026-04-26T12:10:25.003Z</time></trkpt><trkpt lat="43.5105887591339" lon="12.325847386230699"><ele>654.0</ele><time>2026-04-26T12:10:26.003Z</time></trkpt><trkpt lat="43.510442605858806" lon="12.32574801698803"><ele>654.0</ele><time>2026-04-26T12:10:27.003Z</time></trkpt><trkpt lat="43.51026301383101" lon="12.32569181681702"><ele>652.6666666666666</ele><time>2026-04-26T12:10:28.003Z</time></trkpt><trkpt lat="43.51006176246127" lon="12.32570052710813"><ele>651.3333333333333</ele><time>2026-04-26T12:10:29.003Z</time></trkpt><trkpt lat="43.50982888004357" lon="12.325732216952613"><ele>650.0</ele><time>2026-04-26T12:10:30.003Z</time></trkpt><trkpt lat="43.509597187752206" lon="12.325739000877554"><ele>649.3333333333333</ele><time>2026-04-26T12:10:31.003Z</time></trkpt><trkpt lat="43.50940500243352" lon="12.325654803512835"><ele>648.6666666666666</ele><time>2026-04-26T12:10:32.003Z</time></trkpt><trkpt lat="43.509255572185644" lon="12.325528102051477"><ele>648.0</ele><time>2026-04-26T12:10:33.003Z</time></trkpt><trkpt lat="43.5091380985737" lon="12.325345331076692"><ele>648.0</ele><time>2026-04-26T12:10:34.003Z</time></trkpt><trkpt lat="43.508979308322616" lon="12.325092415202619"><ele>648.0</ele><time>2026-04-26T12:10:35.003Z</time></trkpt><trkpt lat="43.50880052477198" lon="12.32486459778707"><ele>647.0</ele><time>2026-04-26T12:10:36.003Z</time></trkpt><trkpt lat="43.50860534380326" lon="12.32465379691421"><ele>646.0</ele><time>2026-04-26T12:10:37.003Z</time></trkpt><trkpt lat="43.5083330606279" lon="12.324477647002366"><ele>646.0</ele><time>2026-04-26T12:10:38.003Z</time></trkpt><trkpt lat="43.508076467540725" lon="12.324329292008715"><ele>646.0</ele><time>2026-04-26T12:10:39.003Z</time></trkpt><trkpt lat="43.50787698415186" lon="12.324207800311212"><ele>641.0</ele><time>2026-04-26T12:10:40.003Z</time></trkpt><trkpt lat="43.50772845843979" lon="12.324001086409965"><ele>636.0</ele><time>2026-04-26T12:10:41.003Z</time></trkpt><trkpt lat="43.50756129347168" lon="12.323745184994703"><ele>636.0</ele><time>2026-04-26T12:10:42.003Z</time></trkpt><trkpt lat="43.50737273134953" lon="12.323441850570436"><ele>636.0</ele><time>2026-04-26T12:10:43.003Z</time></trkpt><trkpt lat="43.507196002297675" lon="12.323157126477687"><ele>633.3333333333334</ele><time>2026-04-26T12:10:44.003Z</time></trkpt><trkpt lat="43.50704558351373" lon="12.322947755804206"><ele>630.6666666666667</ele><time>2026-04-26T12:10:45.003Z</time></trkpt><trkpt lat="43.506925145402455" lon="12.32275075890846"><ele>628.0</ele><time>2026-04-26T12:10:46.003Z</time></trkpt><trkpt lat="43.50676829822977" lon="12.32258894338234"><ele>628.0</ele><time>2026-04-26T12:10:47.003Z</time></trkpt><trkpt lat="43.50655147132184" lon="12.32243853257728"><ele>628.0</ele><time>2026-04-26T12:10:48.003Z</time></trkpt><trkpt lat="43.506307681372704" lon="12.322257866489206"><ele>627.5</ele><time>2026-04-26T12:10:49.003Z</time></trkpt><trkpt lat="43.50605077847119" lon="12.32207650757347"><ele>627.0</ele><time>2026-04-26T12:10:50.003Z</time></trkpt><trkpt lat="43.50581979755529" lon="12.32191344813812"><ele>627.0</ele><time>2026-04-26T12:10:51.003Z</time></trkpt><trkpt lat="43.50561897279717" lon="12.321774893045678"><ele>627.0</ele><time>2026-04-26T12:10:52.003Z</time></trkpt><trkpt lat="43.50544979322258" lon="12.32161259228317"><ele>627.0</ele><time>2026-04-26T12:10:53.003Z</time></trkpt><trkpt lat="43.50531847867195" lon="12.321437692796298"><ele>623.3333333333334</ele><time>2026-04-26T12:10:54.003Z</time></trkpt><trkpt lat="43.50522877677738" lon="12.321252688267872"><ele>619.6666666666667</ele><time>2026-04-26T12:10:55.003Z</time></trkpt><trkpt lat="43.50516797530508" lon="12.321075673394002"><ele>616.0</ele><time>2026-04-26T12:10:56.003Z</time></trkpt><trkpt lat="43.505156833737914" lon="12.320863280819044"><ele>616.0</ele><time>2026-04-26T12:10:57.003Z</time></trkpt><trkpt lat="43.50514212777103" lon="12.320581775857894"><ele>616.0</ele><time>2026-04-26T12:10:58.003Z</time></trkpt><trkpt lat="43.505087339878386" lon="12.320289278206193"><ele>616.0</ele><time>2026-04-26T12:10:59.003Z</time></trkpt><trkpt lat="43.50496503170454" lon="12.320011567010088"><ele>615.6666666666667</ele><time>2026-04-26T12:11:00.003Z</time></trkpt><trkpt lat="43.50484608661627" lon="12.319768434291113"><ele>615.3333333333334</ele><time>2026-04-26T12:11:01.003Z</time></trkpt><trkpt lat="43.504801767130765" lon="12.319536390556"><ele>615.0</ele><time>2026-04-26T12:11:02.003Z</time></trkpt><trkpt lat="43.50480772395381" lon="12.319308138216515"><ele>614.6666666666666</ele><time>2026-04-26T12:11:03.003Z</time></trkpt><trkpt lat="43.504817554965236" lon="12.319029362421533"><ele>614.3333333333333</ele><time>2026-04-26T12:11:04.003Z</time></trkpt><trkpt lat="43.50483413417277" lon="12.318763879687372"><ele>614.0</ele><time>2026-04-26T12:11:05.003Z</time></trkpt><trkpt lat="43.504874787615265" lon="12.318584262416293"><ele>612.0</ele><time>2026-04-26T12:11:06.003Z</time></trkpt><trkpt lat="43.50493824154381" lon="12.318436728914042"><ele>610.0</ele><time>2026-04-26T12:11:07.003Z</time></trkpt><trkpt lat="43.50502811085893" lon="12.318334024271257"><ele>608.0</ele><time>2026-04-26T12:11:08.003Z</time></trkpt><trkpt lat="43.50513699539504" lon="12.318296159474274"><ele>606.0</ele><time>2026-04-26T12:11:09.003Z</time></trkpt><trkpt lat="43.50527600250657" lon="12.318314823609134"><ele>606.3333333333334</ele><time>2026-04-26T12:11:10.003Z</time></trkpt><trkpt lat="43.505463813759015" lon="12.318352164387372"><ele>606.6666666666667</ele><time>2026-04-26T12:11:11.003Z</time></trkpt><trkpt lat="43.50565176217849" lon="12.318383307258726"><ele>607.0</ele><time>2026-04-26T12:11:12.003Z</time></trkpt><trkpt lat="43.50580101152593" lon="12.31837809656108"><ele>607.0</ele><time>2026-04-26T12:11:13.003Z</time></trkpt><trkpt lat="43.50590552070594" lon="12.318316559172462"><ele>607.0</ele><time>2026-04-26T12:11:14.003Z</time></trkpt><trkpt lat="43.50598761605829" lon="12.318185351695597"><ele>607.0</ele><time>2026-04-26T12:11:15.003Z</time></trkpt><trkpt lat="43.50604945015644" lon="12.31797960339511"><ele>607.0</ele><time>2026-04-26T12:11:16.003Z</time></trkpt><trkpt lat="43.50610684298936" lon="12.317731367504521"><ele>603.25</ele><time>2026-04-26T12:11:17.003Z</time></trkpt><trkpt lat="43.50622339346607" lon="12.317610720777603"><ele>599.5</ele><time>2026-04-26T12:11:18.003Z</time></trkpt><trkpt lat="43.50636184344464" lon="12.3175323256823"><ele>595.75</ele><time>2026-04-26T12:11:19.003Z</time></trkpt><trkpt lat="43.50650453070323" lon="12.31750313907517"><ele>592.0</ele><time>2026-04-26T12:11:20.003Z</time></trkpt><trkpt lat="43.50665820375313" lon="12.317523884999225"><ele>592.0</ele><time>2026-04-26T12:11:21.003Z</time></trkpt><trkpt lat="43.50682446781465" lon="12.317620575741937"><ele>592.0</ele><time>2026-04-26T12:11:22.003Z</time></trkpt><trkpt lat="43.50700060336607" lon="12.317733318699808"><ele>592.0</ele><time>2026-04-26T12:11:23.003Z</time></trkpt><trkpt lat="43.507160207266594" lon="12.317773615971936"><ele>592.0</ele><time>2026-04-26T12:11:24.003Z</time></trkpt><trkpt lat="43.507299910018226" lon="12.317762100244233"><ele>592.0</ele><time>2026-04-26T12:11:25.003Z</time></trkpt><trkpt lat="43.50743705384923" lon="12.317676666223239"><ele>592.0</ele><time>2026-04-26T12:11:26.003Z</time></trkpt><trkpt lat="43.50755661690046" lon="12.31752603833707"><ele>592.0</ele><time>2026-04-26T12:11:27.003Z</time></trkpt><trkpt lat="43.50762762334833" lon="12.317342215211054"><ele>592.0</ele><time>2026-04-26T12:11:28.003Z</time></trkpt><trkpt lat="43.50763388124691" lon="12.317146679558574"><ele>592.0</ele><time>2026-04-26T12:11:29.003Z</time></trkpt><trkpt lat="43.50758439671825" lon="12.316910223673316"><ele>592.0</ele><time>2026-04-26T12:11:30.003Z</time></trkpt><trkpt lat="43.507489557855926" lon="12.316654760985015"><ele>592.0</ele><time>2026-04-26T12:11:31.003Z</time></trkpt><trkpt lat="43.50736240135642" lon="12.3163880471165"><ele>592.0</ele><time>2026-04-26T12:11:32.003Z</time></trkpt><trkpt lat="43.50722816644817" lon="12.316172545217716"><ele>591.3333333333334</ele><time>2026-04-26T12:11:33.003Z</time></trkpt><trkpt lat="43.507123710130365" lon="12.316001224688872"><ele>590.6666666666666</ele><time>2026-04-26T12:11:34.003Z</time></trkpt><trkpt lat="43.507127166521116" lon="12.315812679253073"><ele>590.0</ele><time>2026-04-26T12:11:35.003Z</time></trkpt><trkpt lat="43.50716498217932" lon="12.315577766792577"><ele>589.0</ele><time>2026-04-26T12:11:36.003Z</time></trkpt><trkpt lat="43.50721118813131" lon="12.315251957834528"><ele>588.0</ele><time>2026-04-26T12:11:37.003Z</time></trkpt><trkpt lat="43.50726449715443" lon="12.314876063514081"><ele>585.5</ele><time>2026-04-26T12:11:38.003Z</time></trkpt><trkpt lat="43.507183671269864" lon="12.314480842040435"><ele>583.0</ele><time>2026-04-26T12:11:39.003Z</time></trkpt><trkpt lat="43.507169902752835" lon="12.314091244296984"><ele>576.0</ele><time>2026-04-26T12:11:40.003Z</time></trkpt><trkpt lat="43.50715836420176" lon="12.313720885790262"><ele>569.0</ele><time>2026-04-26T12:11:41.003Z</time></trkpt><trkpt lat="43.50713149337762" lon="12.313417383963507"><ele>569.3333333333333</ele><time>2026-04-26T12:11:42.003Z</time></trkpt><trkpt lat="43.50702835880251" lon="12.313222442574324"><ele>569.6666666666666</ele><time>2026-04-26T12:11:43.003Z</time></trkpt><trkpt lat="43.50689614359107" lon="12.31297369281591"><ele>570.0</ele><time>2026-04-26T12:11:44.003Z</time></trkpt><trkpt lat="43.50675040465147" lon="12.312691684068822"><ele>572.5</ele><time>2026-04-26T12:11:45.003Z</time></trkpt><trkpt lat="43.50654892515354" lon="12.312400850321307"><ele>575.0</ele><time>2026-04-26T12:11:46.003Z</time></trkpt><trkpt lat="43.50639242931144" lon="12.31213844272229"><ele>576.3333333333333</ele><time>2026-04-26T12:11:47.003Z</time></trkpt><trkpt lat="43.506273807115214" lon="12.311889667351977"><ele>577.6666666666666</ele><time>2026-04-26T12:11:48.003Z</time></trkpt><trkpt lat="43.506198467589826" lon="12.311595696978415"><ele>579.0</ele><time>2026-04-26T12:11:49.003Z</time></trkpt><trkpt lat="43.506155285728624" lon="12.311308688298222"><ele>576.0</ele><time>2026-04-26T12:11:50.003Z</time></trkpt><trkpt lat="43.50609259245791" lon="12.311041706789215"><ele>573.0</ele><time>2026-04-26T12:11:51.003Z</time></trkpt><trkpt lat="43.50596547784092" lon="12.310793423840904"><ele>570.0</ele><time>2026-04-26T12:11:52.003Z</time></trkpt><trkpt lat="43.50579761804649" lon="12.310556864398357"><ele>570.0</ele><time>2026-04-26T12:11:53.003Z</time></trkpt><trkpt lat="43.505674270356884" lon="12.310338611803417"><ele>570.0</ele><time>2026-04-26T12:11:54.003Z</time></trkpt><trkpt lat="43.50559004708927" lon="12.31014055914202"><ele>570.0</ele><time>2026-04-26T12:11:55.003Z</time></trkpt><trkpt lat="43.505582737077546" lon="12.309907953793337"><ele>567.0</ele><time>2026-04-26T12:11:56.003Z</time></trkpt><trkpt lat="43.505597594022994" lon="12.309660035001759"><ele>564.0</ele><time>2026-04-26T12:11:57.003Z</time></trkpt><trkpt lat="43.50559106244613" lon="12.309424988950116"><ele>561.0</ele><time>2026-04-26T12:11:58.003Z</time></trkpt><trkpt lat="43.505570610964455" lon="12.309216828376114"><ele>561.0</ele><time>2026-04-26T12:11:59.003Z</time></trkpt><trkpt lat="43.505479596967795" lon="12.309011042527489"><ele>561.0</ele><time>2026-04-26T12:12:00.003Z</time></trkpt><trkpt lat="43.50535115246315" lon="12.308830990412263"><ele>561.0</ele><time>2026-04-26T12:12:01.003Z</time></trkpt><trkpt lat="43.50520605062335" lon="12.308699115581577"><ele>560.3333333333334</ele><time>2026-04-26T12:12:02.003Z</time></trkpt><trkpt lat="43.50507565988111" lon="12.308580410780538"><ele>559.6666666666667</ele><time>2026-04-26T12:12:03.003Z</time></trkpt><trkpt lat="43.504945853989085" lon="12.30843500594129"><ele>559.0</ele><time>2026-04-26T12:12:04.003Z</time></trkpt><trkpt lat="43.50481974157817" lon="12.308278843040958"><ele>559.0</ele><time>2026-04-26T12:12:05.003Z</time></trkpt><trkpt lat="43.50468085175976" lon="12.308122201578756"><ele>559.0</ele><time>2026-04-26T12:12:06.003Z</time></trkpt><trkpt lat="43.5045517029283" lon="12.307968167432499"><ele>559.0</ele><time>2026-04-26T12:12:07.003Z</time></trkpt><trkpt lat="43.50442636186326" lon="12.30782573938622"><ele>556.6666666666667</ele><time>2026-04-26T12:12:08.003Z</time></trkpt><trkpt lat="43.50431115862305" lon="12.307674124422666"><ele>554.3333333333334</ele><time>2026-04-26T12:12:09.003Z</time></trkpt><trkpt lat="43.504205946654416" lon="12.307516581550463"><ele>552.0</ele><time>2026-04-26T12:12:10.003Z</time></trkpt><trkpt lat="43.50411321716023" lon="12.307362056408062"><ele>550.75</ele><time>2026-04-26T12:12:11.003Z</time></trkpt><trkpt lat="43.5040530608873" lon="12.307197772143875"><ele>549.5</ele><time>2026-04-26T12:12:12.003Z</time></trkpt><trkpt lat="43.50401917980967" lon="12.307011651326729"><ele>548.25</ele><time>2026-04-26T12:12:13.003Z</time></trkpt><trkpt lat="43.50400498055482" lon="12.306802684703927"><ele>547.0</ele><time>2026-04-26T12:12:14.003Z</time></trkpt><trkpt lat="43.50400370773839" lon="12.306585516391054"><ele>545.3333333333334</ele><time>2026-04-26T12:12:15.003Z</time></trkpt><trkpt lat="43.503995511246465" lon="12.306371727367813"><ele>543.6666666666666</ele><time>2026-04-26T12:12:16.003Z</time></trkpt><trkpt lat="43.50397805856273" lon="12.306154411323062"><ele>542.0</ele><time>2026-04-26T12:12:17.003Z</time></trkpt><trkpt lat="43.50396777809762" lon="12.30596348560734"><ele>542.0</ele><time>2026-04-26T12:12:18.003Z</time></trkpt><trkpt lat="43.50396537588216" lon="12.305801369925552"><ele>542.0</ele><time>2026-04-26T12:12:19.003Z</time></trkpt><trkpt lat="43.5039415564988" lon="12.305645881743544"><ele>542.0</ele><time>2026-04-26T12:12:20.003Z</time></trkpt><trkpt lat="43.50392344313837" lon="12.305501208754626"><ele>542.0</ele><time>2026-04-26T12:12:21.003Z</time></trkpt><trkpt lat="43.503902600311704" lon="12.305355869074011"><ele>542.0</ele><time>2026-04-26T12:12:22.003Z</time></trkpt><trkpt lat="43.503884247307816" lon="12.305184833569944"><ele>542.0</ele><time>2026-04-26T12:12:23.003Z</time></trkpt><trkpt lat="43.5038570402466" lon="12.30500143796718"><ele>542.0</ele><time>2026-04-26T12:12:24.003Z</time></trkpt><trkpt lat="43.50381088452056" lon="12.3048343744188"><ele>542.0</ele><time>2026-04-26T12:12:25.003Z</time></trkpt><trkpt lat="43.50373968802976" lon="12.304669450205033"><ele>542.0</ele><time>2026-04-26T12:12:26.003Z</time></trkpt><trkpt lat="43.50364242001008" lon="12.304515062416161"><ele>541.0</ele><time>2026-04-26T12:12:27.003Z</time></trkpt><trkpt lat="43.50352498131283" lon="12.304382773379672"><ele>540.0</ele><time>2026-04-26T12:12:28.003Z</time></trkpt><trkpt lat="43.5033830471326" lon="12.304275669073398"><ele>539.0</ele><time>2026-04-26T12:12:29.003Z</time></trkpt><trkpt lat="43.50324397155143" lon="12.304192710756329"><ele>539.0</ele><time>2026-04-26T12:12:30.003Z</time></trkpt><trkpt lat="43.5031163297402" lon="12.304132427191695"><ele>539.0</ele><time>2026-04-26T12:12:31.003Z</time></trkpt><trkpt lat="43.502999829471584" lon="12.304069252664345"><ele>539.0</ele><time>2026-04-26T12:12:32.003Z</time></trkpt><trkpt lat="43.502885212280134" lon="12.303997703218338"><ele>539.0</ele><time>2026-04-26T12:12:33.003Z</time></trkpt><trkpt lat="43.502773704206795" lon="12.303922969832056"><ele>542.25</ele><time>2026-04-26T12:12:34.003Z</time></trkpt><trkpt lat="43.50265441226881" lon="12.30384169805385"><ele>545.5</ele><time>2026-04-26T12:12:35.003Z</time></trkpt><trkpt lat="43.502529133335834" lon="12.303748191407697"><ele>548.75</ele><time>2026-04-26T12:12:36.003Z</time></trkpt><trkpt lat="43.50239778288288" lon="12.30364879810558"><ele>552.0</ele><time>2026-04-26T12:12:37.003Z</time></trkpt><trkpt lat="43.502257801249655" lon="12.303537880696446"><ele>552.0</ele><time>2026-04-26T12:12:38.003Z</time></trkpt><trkpt lat="43.502103189304776" lon="12.303418395298216"><ele>552.0</ele><time>2026-04-26T12:12:39.003Z</time></trkpt><trkpt lat="43.501922471749" lon="12.303275208744607"><ele>552.0</ele><time>2026-04-26T12:12:40.003Z</time></trkpt><trkpt lat="43.501744592736046" lon="12.30311508226472"><ele>552.3333333333334</ele><time>2026-04-26T12:12:41.003Z</time></trkpt><trkpt lat="43.501572435275946" lon="12.30293894564121"><ele>552.6666666666667</ele><time>2026-04-26T12:12:42.003Z</time></trkpt><trkpt lat="43.50142669483245" lon="12.302772215004708"><ele>553.0</ele><time>2026-04-26T12:12:43.003Z</time></trkpt><trkpt lat="43.501290638935686" lon="12.302621548777024"><ele>548.6666666666667</ele><time>2026-04-26T12:12:44.003Z</time></trkpt><trkpt lat="43.5011646392061" lon="12.30248476933873"><ele>544.3333333333334</ele><time>2026-04-26T12:12:45.003Z</time></trkpt><trkpt lat="43.50103116233979" lon="12.30239630682146"><ele>540.0</ele><time>2026-04-26T12:12:46.003Z</time></trkpt><trkpt lat="43.500884576844136" lon="12.302352942668717"><ele>540.0</ele><time>2026-04-26T12:12:47.003Z</time></trkpt><trkpt lat="43.5007203235883" lon="12.302371080517316"><ele>540.0</ele><time>2026-04-26T12:12:48.003Z</time></trkpt><trkpt lat="43.50056501665341" lon="12.302448336266634"><ele>540.0</ele><time>2026-04-26T12:12:49.003Z</time></trkpt><trkpt lat="43.50042836733679" lon="12.302550094332842"><ele>538.75</ele><time>2026-04-26T12:12:50.003Z</time></trkpt><trkpt lat="43.500297431359456" lon="12.302622877327725"><ele>537.5</ele><time>2026-04-26T12:12:51.003Z</time></trkpt><trkpt lat="43.500154696625295" lon="12.302642114212626"><ele>536.25</ele><time>2026-04-26T12:12:52.003Z</time></trkpt><trkpt lat="43.500010685074045" lon="12.302550265451924"><ele>535.0</ele><time>2026-04-26T12:12:53.003Z</time></trkpt><trkpt lat="43.499861038413854" lon="12.302406344709588"><ele>532.6666666666667</ele><time>2026-04-26T12:12:54.003Z</time></trkpt><trkpt lat="43.49969614584688" lon="12.302241556112063"><ele>530.3333333333334</ele><time>2026-04-26T12:12:55.003Z</time></trkpt><trkpt lat="43.49956724100028" lon="12.30203340934489"><ele>528.0</ele><time>2026-04-26T12:12:56.003Z</time></trkpt><trkpt lat="43.49945906918825" lon="12.301816450812211"><ele>528.0</ele><time>2026-04-26T12:12:57.003Z</time></trkpt><trkpt lat="43.499374579467116" lon="12.301585093984686"><ele>528.0</ele><time>2026-04-26T12:12:58.003Z</time></trkpt><trkpt lat="43.49930288911818" lon="12.301316608175828"><ele>528.0</ele><time>2026-04-26T12:12:59.003Z</time></trkpt><trkpt lat="43.499234669333376" lon="12.301024042600451"><ele>531.0</ele><time>2026-04-26T12:13:00.003Z</time></trkpt><trkpt lat="43.49916899310787" lon="12.3006860834293"><ele>534.0</ele><time>2026-04-26T12:13:01.003Z</time></trkpt><trkpt lat="43.49907872502179" lon="12.300384002956076"><ele>536.6666666666666</ele><time>2026-04-26T12:13:02.003Z</time></trkpt><trkpt lat="43.49901522494258" lon="12.300099091096817"><ele>539.3333333333333</ele><time>2026-04-26T12:13:03.003Z</time></trkpt><trkpt lat="43.498980205385905" lon="12.299835970541254"><ele>542.0</ele><time>2026-04-26T12:13:04.003Z</time></trkpt><trkpt lat="43.49892791740023" lon="12.29960126537973"><ele>544.3333333333333</ele><time>2026-04-26T12:13:05.003Z</time></trkpt><trkpt lat="43.49882052857351" lon="12.299388238897626"><ele>546.6666666666666</ele><time>2026-04-26T12:13:06.003Z</time></trkpt><trkpt lat="43.49866981496615" lon="12.299185740239391"><ele>549.0</ele><time>2026-04-26T12:13:07.003Z</time></trkpt><trkpt lat="43.49851050327433" lon="12.298959848527831"><ele>543.6666666666666</ele><time>2026-04-26T12:13:08.003Z</time></trkpt><trkpt lat="43.49837399897254" lon="12.298706758382254"><ele>538.3333333333333</ele><time>2026-04-26T12:13:09.003Z</time></trkpt><trkpt lat="43.49825935725114" lon="12.298467031024554"><ele>533.0</ele><time>2026-04-26T12:13:10.003Z</time></trkpt><trkpt lat="43.49818057055831" lon="12.298257454127016"><ele>533.0</ele><time>2026-04-26T12:13:11.003Z</time></trkpt><trkpt lat="43.498119996967795" lon="12.298087760216642"><ele>533.0</ele><time>2026-04-26T12:13:12.003Z</time></trkpt><trkpt lat="43.49810590158847" lon="12.29796687025583"><ele>533.0</ele><time>2026-04-26T12:13:13.003Z</time></trkpt><trkpt lat="43.498126568873786" lon="12.297852738169004"><ele>533.0</ele><time>2026-04-26T12:13:14.003Z</time></trkpt><trkpt lat="43.4982099901995" lon="12.297750736059028"><ele>533.0</ele><time>2026-04-26T12:13:15.003Z</time></trkpt><trkpt lat="43.4983271638631" lon="12.297647421469495"><ele>532.5</ele><time>2026-04-26T12:13:16.003Z</time></trkpt><trkpt lat="43.4984485431621" lon="12.297534884307426"><ele>532.0</ele><time>2026-04-26T12:13:17.003Z</time></trkpt><trkpt lat="43.49854718226095" lon="12.29739020693182"><ele>531.5</ele><time>2026-04-26T12:13:18.003Z</time></trkpt><trkpt lat="43.49857939627552" lon="12.297228652375832"><ele>531.0</ele><time>2026-04-26T12:13:19.003Z</time></trkpt><trkpt lat="43.49852219811428" lon="12.29704912199527"><ele>534.3333333333334</ele><time>2026-04-26T12:13:20.003Z</time></trkpt><trkpt lat="43.49839375094105" lon="12.296878013720471"><ele>537.6666666666667</ele><time>2026-04-26T12:13:21.003Z</time></trkpt><trkpt lat="43.49823967575537" lon="12.296727874617588"><ele>541.0</ele><time>2026-04-26T12:13:22.003Z</time></trkpt><trkpt lat="43.49806862802025" lon="12.296668694385225"><ele>537.6666666666667</ele><time>2026-04-26T12:13:23.003Z</time></trkpt><trkpt lat="43.49788531651443" lon="12.296656452567975"><ele>534.3333333333334</ele><time>2026-04-26T12:13:24.003Z</time></trkpt><trkpt lat="43.49769968837602" lon="12.296690691523654"><ele>531.0</ele><time>2026-04-26T12:13:25.003Z</time></trkpt><trkpt lat="43.497496802452446" lon="12.296690424592674"><ele>531.0</ele><time>2026-04-26T12:13:26.003Z</time></trkpt><trkpt lat="43.49729097867583" lon="12.296629611745018"><ele>531.0</ele><time>2026-04-26T12:13:27.003Z</time></trkpt><trkpt lat="43.497105055421365" lon="12.296537380708038"><ele>531.0</ele><time>2026-04-26T12:13:28.003Z</time></trkpt><trkpt lat="43.49692164024955" lon="12.296408886483578"><ele>532.0</ele><time>2026-04-26T12:13:29.003Z</time></trkpt><trkpt lat="43.49672741942649" lon="12.296253770921648"><ele>533.0</ele><time>2026-04-26T12:13:30.003Z</time></trkpt><trkpt lat="43.49651640269042" lon="12.29605703191839"><ele>533.0</ele><time>2026-04-26T12:13:31.003Z</time></trkpt><trkpt lat="43.496304376406485" lon="12.295863555237146"><ele>533.0</ele><time>2026-04-26T12:13:32.003Z</time></trkpt><trkpt lat="43.496129320351876" lon="12.295693993759281"><ele>530.25</ele><time>2026-04-26T12:13:33.003Z</time></trkpt><trkpt lat="43.49600562798385" lon="12.29556264001291"><ele>527.5</ele><time>2026-04-26T12:13:34.003Z</time></trkpt><trkpt lat="43.49592319734715" lon="12.295461413801773"><ele>524.75</ele><time>2026-04-26T12:13:35.003Z</time></trkpt><trkpt lat="43.495866375719615" lon="12.295332128523107"><ele>522.0</ele><time>2026-04-26T12:13:36.003Z</time></trkpt><trkpt lat="43.49584331489608" lon="12.29518186118406"><ele>522.0</ele><time>2026-04-26T12:13:37.003Z</time></trkpt><trkpt lat="43.4958676258881" lon="12.295001399493914"><ele>522.0</ele><time>2026-04-26T12:13:38.003Z</time></trkpt><trkpt lat="43.49597134189417" lon="12.294843267375855"><ele>522.0</ele><time>2026-04-26T12:13:39.003Z</time></trkpt><trkpt lat="43.49609581706568" lon="12.294711390633884"><ele>522.0</ele><time>2026-04-26T12:13:40.003Z</time></trkpt><trkpt lat="43.49629876532161" lon="12.29461298718087"><ele>525.0</ele><time>2026-04-26T12:13:41.003Z</time></trkpt><trkpt lat="43.496434509831715" lon="12.294471032892524"><ele>528.0</ele><time>2026-04-26T12:13:42.003Z</time></trkpt><trkpt lat="43.496503467772314" lon="12.294287359464935"><ele>531.0</ele><time>2026-04-26T12:13:43.003Z</time></trkpt><trkpt lat="43.49652806267647" lon="12.29408652710241"><ele>531.6666666666666</ele><time>2026-04-26T12:13:44.003Z</time></trkpt><trkpt lat="43.49648241147677" lon="12.293874869658577"><ele>532.3333333333333</ele><time>2026-04-26T12:13:45.003Z</time></trkpt><trkpt lat="43.49635026819845" lon="12.293647451067123"><ele>533.0</ele><time>2026-04-26T12:13:46.003Z</time></trkpt><trkpt lat="43.49615415319084" lon="12.293418232612854"><ele>531.0</ele><time>2026-04-26T12:13:47.003Z</time></trkpt><trkpt lat="43.49595712196473" lon="12.293212368581601"><ele>529.0</ele><time>2026-04-26T12:13:48.003Z</time></trkpt><trkpt lat="43.495716835890796" lon="12.293032318193212"><ele>529.0</ele><time>2026-04-26T12:13:49.003Z</time></trkpt><trkpt lat="43.49546564865247" lon="12.292882365034526"><ele>529.0</ele><time>2026-04-26T12:13:50.003Z</time></trkpt><trkpt lat="43.49520832490244" lon="12.292770805896776"><ele>524.5</ele><time>2026-04-26T12:13:51.003Z</time></trkpt><trkpt lat="43.49499439395092" lon="12.292658921389801"><ele>520.0</ele><time>2026-04-26T12:13:52.003Z</time></trkpt><trkpt lat="43.49478509222561" lon="12.292532433036614"><ele>518.5</ele><time>2026-04-26T12:13:53.003Z</time></trkpt><trkpt lat="43.4945817685277" lon="12.29237232266218"><ele>517.0</ele><time>2026-04-26T12:13:54.003Z</time></trkpt><trkpt lat="43.49436185576355" lon="12.29220135838764"><ele>517.0</ele><time>2026-04-26T12:13:55.003Z</time></trkpt><trkpt lat="43.49416271437864" lon="12.292006549751044"><ele>517.0</ele><time>2026-04-26T12:13:56.003Z</time></trkpt><trkpt lat="43.49401633724015" lon="12.29182419533858"><ele>517.0</ele><time>2026-04-26T12:13:57.003Z</time></trkpt><trkpt lat="43.49396515335679" lon="12.291629862771536"><ele>519.0</ele><time>2026-04-26T12:13:58.003Z</time></trkpt><trkpt lat="43.49391404801089" lon="12.291371190729096"><ele>521.0</ele><time>2026-04-26T12:13:59.003Z</time></trkpt><trkpt lat="43.49388467622067" lon="12.291117956453851"><ele>523.0</ele><time>2026-04-26T12:14:00.003Z</time></trkpt><trkpt lat="43.493843919149334" lon="12.290887474107567"><ele>520.3333333333334</ele><time>2026-04-26T12:14:01.003Z</time></trkpt><trkpt lat="43.49373562905366" lon="12.290678078326794"><ele>517.6666666666666</ele><time>2026-04-26T12:14:02.003Z</time></trkpt><trkpt lat="43.49357048726177" lon="12.290481784250128"><ele>515.0</ele><time>2026-04-26T12:14:03.003Z</time></trkpt><trkpt lat="43.49338224325029" lon="12.290312039501035"><ele>515.0</ele><time>2026-04-26T12:14:04.003Z</time></trkpt><trkpt lat="43.493228188573084" lon="12.290081374667649"><ele>515.0</ele><time>2026-04-26T12:14:05.003Z</time></trkpt><trkpt lat="43.49309874457726" lon="12.2897895060274"><ele>517.5</ele><time>2026-04-26T12:14:06.003Z</time></trkpt><trkpt lat="43.49296523260848" lon="12.289484524718866"><ele>520.0</ele><time>2026-04-26T12:14:07.003Z</time></trkpt><trkpt lat="43.492816632017764" lon="12.28919368648698"><ele>518.0</ele><time>2026-04-26T12:14:08.003Z</time></trkpt><trkpt lat="43.492662787189076" lon="12.288918830358147"><ele>516.0</ele><time>2026-04-26T12:14:09.003Z</time></trkpt><trkpt lat="43.49249303030243" lon="12.288679518532645"><ele>516.0</ele><time>2026-04-26T12:14:10.003Z</time></trkpt><trkpt lat="43.492300194482176" lon="12.288479586048146"><ele>516.0</ele><time>2026-04-26T12:14:11.003Z</time></trkpt><trkpt lat="43.49206413117845" lon="12.288293494365956"><ele>516.5</ele><time>2026-04-26T12:14:12.003Z</time></trkpt><trkpt lat="43.491821840824414" lon="12.28808547996086"><ele>517.0</ele><time>2026-04-26T12:14:13.003Z</time></trkpt><trkpt lat="43.49155473891901" lon="12.287865843370028"><ele>517.0</ele><time>2026-04-26T12:14:14.003Z</time></trkpt><trkpt lat="43.491274036962" lon="12.28762486430194"><ele>517.0</ele><time>2026-04-26T12:14:15.003Z</time></trkpt><trkpt lat="43.49098304740229" lon="12.287379348782753"><ele>515.5</ele><time>2026-04-26T12:14:16.003Z</time></trkpt><trkpt lat="43.490720580579186" lon="12.28716113147457"><ele>514.0</ele><time>2026-04-26T12:14:17.003Z</time></trkpt><trkpt lat="43.490520562021814" lon="12.286967364844704"><ele>508.33333333333337</ele><time>2026-04-26T12:14:18.003Z</time></trkpt><trkpt lat="43.490378550665945" lon="12.28681991418127"><ele>502.66666666666663</ele><time>2026-04-26T12:14:19.003Z</time></trkpt><trkpt lat="43.49026708648506" lon="12.286706162390603"><ele>497.0</ele><time>2026-04-26T12:14:20.003Z</time></trkpt><trkpt lat="43.49016267179501" lon="12.28657077585252"><ele>498.66666666666663</ele><time>2026-04-26T12:14:21.003Z</time></trkpt><trkpt lat="43.49011527330534" lon="12.286353515962867"><ele>500.33333333333337</ele><time>2026-04-26T12:14:22.003Z</time></trkpt><trkpt lat="43.49007940174261" lon="12.28611942626922"><ele>502.0</ele><time>2026-04-26T12:14:23.003Z</time></trkpt><trkpt lat="43.49007700590551" lon="12.2858528375875"><ele>503.6666666666667</ele><time>2026-04-26T12:14:24.003Z</time></trkpt><trkpt lat="43.490085946199706" lon="12.285536460019129"><ele>505.33333333333337</ele><time>2026-04-26T12:14:25.003Z</time></trkpt><trkpt lat="43.49004806966051" lon="12.285286290639242"><ele>507.0</ele><time>2026-04-26T12:14:26.003Z</time></trkpt><trkpt lat="43.489997421766596" lon="12.285104523680552"><ele>507.0</ele><time>2026-04-26T12:14:27.003Z</time></trkpt><trkpt lat="43.489898971879164" lon="12.2849425452742"><ele>507.0</ele><time>2026-04-26T12:14:28.003Z</time></trkpt><trkpt lat="43.48973950628599" lon="12.284832999276725"><ele>507.0</ele><time>2026-04-26T12:14:29.003Z</time></trkpt><trkpt lat="43.489559601666464" lon="12.284701748087208"><ele>510.0</ele><time>2026-04-26T12:14:30.003Z</time></trkpt><trkpt lat="43.48930340833678" lon="12.28455232512682"><ele>513.0</ele><time>2026-04-26T12:14:31.003Z</time></trkpt><trkpt lat="43.489047769305685" lon="12.284421605532463"><ele>513.0</ele><time>2026-04-26T12:14:32.003Z</time></trkpt><trkpt lat="43.48884529948875" lon="12.284308588979348"><ele>513.0</ele><time>2026-04-26T12:14:33.003Z</time></trkpt><trkpt lat="43.48867655545806" lon="12.28426809655168"><ele>513.0</ele><time>2026-04-26T12:14:34.004Z</time></trkpt><trkpt lat="43.48846244972949" lon="12.284288965544864"><ele>510.0</ele><time>2026-04-26T12:14:35.004Z</time></trkpt><trkpt lat="43.488243193225046" lon="12.284337905658322"><ele>507.0</ele><time>2026-04-26T12:14:36.004Z</time></trkpt><trkpt lat="43.488053258538706" lon="12.284316854575561"><ele>504.0</ele><time>2026-04-26T12:14:37.004Z</time></trkpt><trkpt lat="43.487885422777055" lon="12.284190009832473"><ele>504.0</ele><time>2026-04-26T12:14:38.004Z</time></trkpt><trkpt lat="43.48771091842822" lon="12.283997745114293"><ele>504.0</ele><time>2026-04-26T12:14:39.004Z</time></trkpt><trkpt lat="43.48750137073497" lon="12.283769339076215"><ele>504.0</ele><time>2026-04-26T12:14:40.004Z</time></trkpt><trkpt lat="43.48726189076814" lon="12.283597152700722"><ele>504.0</ele><time>2026-04-26T12:14:41.004Z</time></trkpt><trkpt lat="43.48699439953096" lon="12.283377824599384"><ele>498.5</ele><time>2026-04-26T12:14:42.004Z</time></trkpt><trkpt lat="43.48668962683116" lon="12.283205889703781"><ele>493.0</ele><time>2026-04-26T12:14:43.004Z</time></trkpt><trkpt lat="43.486384278566405" lon="12.28300689387068"><ele>493.5</ele><time>2026-04-26T12:14:44.004Z</time></trkpt><trkpt lat="43.486076370990865" lon="12.282803490713706"><ele>494.0</ele><time>2026-04-26T12:14:45.004Z</time></trkpt><trkpt lat="43.485778782117556" lon="12.282608507042763"><ele>494.0</ele><time>2026-04-26T12:14:46.004Z</time></trkpt><trkpt lat="43.485513716728285" lon="12.282423380385737"><ele>494.0</ele><time>2026-04-26T12:14:47.004Z</time></trkpt><trkpt lat="43.48527463016839" lon="12.282249315274798"><ele>493.0</ele><time>2026-04-26T12:14:48.004Z</time></trkpt><trkpt lat="43.48507013308615" lon="12.282088941717161"><ele>492.0</ele><time>2026-04-26T12:14:49.004Z</time></trkpt><trkpt lat="43.48492180543662" lon="12.281960524555748"><ele>491.0</ele><time>2026-04-26T12:14:50.004Z</time></trkpt><trkpt lat="43.484837417817445" lon="12.281869168952486"><ele>491.0</ele><time>2026-04-26T12:14:51.004Z</time></trkpt><trkpt lat="43.484788148380204" lon="12.281753585254256"><ele>491.0</ele><time>2026-04-26T12:14:52.004Z</time></trkpt><trkpt lat="43.48479039312573" lon="12.281619412499003"><ele>491.0</ele><time>2026-04-26T12:14:53.004Z</time></trkpt><trkpt lat="43.48486308630754" lon="12.281471058810066"><ele>491.0</ele><time>2026-04-26T12:14:54.004Z</time></trkpt><trkpt lat="43.484954770548654" lon="12.281249056778812"><ele>489.3333333333333</ele><time>2026-04-26T12:14:55.004Z</time></trkpt><trkpt lat="43.484982998995974" lon="12.280980031919531"><ele>487.66666666666663</ele><time>2026-04-26T12:14:56.004Z</time></trkpt><trkpt lat="43.48495895877737" lon="12.28072261803101"><ele>486.0</ele><time>2026-04-26T12:14:57.004Z</time></trkpt><trkpt lat="43.48485902589554" lon="12.28044755338625"><ele>484.5</ele><time>2026-04-26T12:14:58.004Z</time></trkpt><trkpt lat="43.48471752128775" lon="12.280166258649993"><ele>483.0</ele><time>2026-04-26T12:14:59.004Z</time></trkpt><trkpt lat="43.484588401062275" lon="12.27987200158241"><ele>479.0</ele><time>2026-04-26T12:15:00.004Z</time></trkpt><trkpt lat="43.48443746828483" lon="12.279545459962227"><ele>475.0</ele><time>2026-04-26T12:15:01.004Z</time></trkpt><trkpt lat="43.48431876919009" lon="12.279271179144372"><ele>475.0</ele><time>2026-04-26T12:15:02.004Z</time></trkpt><trkpt lat="43.48420261926725" lon="12.27902480985617"><ele>475.0</ele><time>2026-04-26T12:15:03.004Z</time></trkpt><trkpt lat="43.48405267048618" lon="12.278813626574035"><ele>475.0</ele><time>2026-04-26T12:15:04.004Z</time></trkpt><trkpt lat="43.48385602691806" lon="12.278623623877495"><ele>473.0</ele><time>2026-04-26T12:15:05.004Z</time></trkpt><trkpt lat="43.483637259497684" lon="12.278429358311367"><ele>471.0</ele><time>2026-04-26T12:15:06.004Z</time></trkpt><trkpt lat="43.48341787952929" lon="12.278227022858273"><ele>470.5</ele><time>2026-04-26T12:15:07.004Z</time></trkpt><trkpt lat="43.48318570696201" lon="12.278032912265175"><ele>470.0</ele><time>2026-04-26T12:15:08.004Z</time></trkpt><trkpt lat="43.4829805455356" lon="12.277847945442307"><ele>471.3333333333333</ele><time>2026-04-26T12:15:09.004Z</time></trkpt><trkpt lat="43.48280044347192" lon="12.277683358835924"><ele>472.66666666666663</ele><time>2026-04-26T12:15:10.004Z</time></trkpt><trkpt lat="43.482627425609486" lon="12.27759793162158"><ele>474.0</ele><time>2026-04-26T12:15:11.004Z</time></trkpt><trkpt lat="43.48243692521844" lon="12.27756523716665"><ele>474.0</ele><time>2026-04-26T12:15:12.004Z</time></trkpt><trkpt lat="43.48226969337491" lon="12.277526051413593"><ele>474.0</ele><time>2026-04-26T12:15:13.004Z</time></trkpt><trkpt lat="43.4821120357825" lon="12.277443707499351"><ele>474.0</ele><time>2026-04-26T12:15:14.004Z</time></trkpt><trkpt lat="43.481992190496484" lon="12.277250020102908"><ele>470.5</ele><time>2026-04-26T12:15:15.004Z</time></trkpt><trkpt lat="43.481898013473284" lon="12.277085389096118"><ele>467.0</ele><time>2026-04-26T12:15:16.004Z</time></trkpt><trkpt lat="43.48185666691022" lon="12.276921358600056"><ele>463.5</ele><time>2026-04-26T12:15:17.004Z</time></trkpt><trkpt lat="43.481865698729976" lon="12.276746735649834"><ele>460.0</ele><time>2026-04-26T12:15:18.004Z</time></trkpt><trkpt lat="43.48194375742881" lon="12.276614272042858"><ele>460.0</ele><time>2026-04-26T12:15:19.004Z</time></trkpt><trkpt lat="43.48205297614609" lon="12.276550217783429"><ele>460.0</ele><time>2026-04-26T12:15:20.004Z</time></trkpt><trkpt lat="43.48217969961038" lon="12.276507678050638"><ele>460.0</ele><time>2026-04-26T12:15:21.004Z</time></trkpt><trkpt lat="43.48236149920454" lon="12.276503628658043"><ele>460.0</ele><time>2026-04-26T12:15:22.004Z</time></trkpt><trkpt lat="43.48258252487443" lon="12.276495576063194"><ele>461.33333333333337</ele><time>2026-04-26T12:15:23.004Z</time></trkpt><trkpt lat="43.482799504402166" lon="12.276480837786854"><ele>462.66666666666663</ele><time>2026-04-26T12:15:24.004Z</time></trkpt><trkpt lat="43.48298614633533" lon="12.276440088482435"><ele>464.0</ele><time>2026-04-26T12:15:25.004Z</time></trkpt><trkpt lat="43.48311790585145" lon="12.276340879346064"><ele>464.75</ele><time>2026-04-26T12:15:26.004Z</time></trkpt><trkpt lat="43.48321431753804" lon="12.276257450256077"><ele>465.5</ele><time>2026-04-26T12:15:27.004Z</time></trkpt><trkpt lat="43.48328893133798" lon="12.276129922654313"><ele>466.25</ele><time>2026-04-26T12:15:28.004Z</time></trkpt><trkpt lat="43.48325590003486" lon="12.275901653536467"><ele>467.0</ele><time>2026-04-26T12:15:29.004Z</time></trkpt><trkpt lat="43.48317333600321" lon="12.275681336624826"><ele>468.5</ele><time>2026-04-26T12:15:30.004Z</time></trkpt><trkpt lat="43.483027402380976" lon="12.275440612239274"><ele>470.0</ele><time>2026-04-26T12:15:31.004Z</time></trkpt><trkpt lat="43.482860971434484" lon="12.275187219043229"><ele>469.0</ele><time>2026-04-26T12:15:32.004Z</time></trkpt><trkpt lat="43.4826980641026" lon="12.274926969417399"><ele>468.0</ele><time>2026-04-26T12:15:33.004Z</time></trkpt><trkpt lat="43.48254961323688" lon="12.27471617777553"><ele>468.0</ele><time>2026-04-26T12:15:34.004Z</time></trkpt><trkpt lat="43.48240815106386" lon="12.27456208914347"><ele>468.0</ele><time>2026-04-26T12:15:35.004Z</time></trkpt><trkpt lat="43.48222707170588" lon="12.274506724032086"><ele>468.0</ele><time>2026-04-26T12:15:36.004Z</time></trkpt><trkpt lat="43.48199330450623" lon="12.274469401409597"><ele>465.0</ele><time>2026-04-26T12:15:37.004Z</time></trkpt><trkpt lat="43.48173096499566" lon="12.274443242022782"><ele>462.0</ele><time>2026-04-26T12:15:38.004Z</time></trkpt><trkpt lat="43.48148507605855" lon="12.274363967667098"><ele>460.5</ele><time>2026-04-26T12:15:39.004Z</time></trkpt><trkpt lat="43.4812518761409" lon="12.274280621705886"><ele>459.0</ele><time>2026-04-26T12:15:40.004Z</time></trkpt><trkpt lat="43.48104577083374" lon="12.27423526614728"><ele>459.0</ele><time>2026-04-26T12:15:41.004Z</time></trkpt><trkpt lat="43.48085025848139" lon="12.274241427249386"><ele>459.0</ele><time>2026-04-26T12:15:42.004Z</time></trkpt><trkpt lat="43.480667602870696" lon="12.274268217703257"><ele>459.0</ele><time>2026-04-26T12:15:43.004Z</time></trkpt><trkpt lat="43.48049940171838" lon="12.274291565094593"><ele>458.0</ele><time>2026-04-26T12:15:44.004Z</time></trkpt><trkpt lat="43.480315405034105" lon="12.274232442437377"><ele>457.0</ele><time>2026-04-26T12:15:45.004Z</time></trkpt><trkpt lat="43.48015250345219" lon="12.274131662807857"><ele>456.0</ele><time>2026-04-26T12:15:46.004Z</time></trkpt><trkpt lat="43.480000028985785" lon="12.274025289232965"><ele>456.75</ele><time>2026-04-26T12:15:47.004Z</time></trkpt><trkpt lat="43.4798486717222" lon="12.273930378866647"><ele>457.5</ele><time>2026-04-26T12:15:48.004Z</time></trkpt><trkpt lat="43.47972959349657" lon="12.273811730033259"><ele>458.25</ele><time>2026-04-26T12:15:49.004Z</time></trkpt><trkpt lat="43.47962861059741" lon="12.273711685537805"><ele>459.0</ele><time>2026-04-26T12:15:50.004Z</time></trkpt><trkpt lat="43.47957603352346" lon="12.273571217286959"><ele>459.0</ele><time>2026-04-26T12:15:51.004Z</time></trkpt><trkpt lat="43.47954906154105" lon="12.273432468251965"><ele>459.0</ele><time>2026-04-26T12:15:52.004Z</time></trkpt><trkpt lat="43.47953897486152" lon="12.273279563552693"><ele>459.0</ele><time>2026-04-26T12:15:53.004Z</time></trkpt><trkpt lat="43.47960653669131" lon="12.273178982237479"><ele>459.0</ele><time>2026-04-26T12:15:54.004Z</time></trkpt><trkpt lat="43.479673756856734" lon="12.27308689489529"><ele>459.0</ele><time>2026-04-26T12:15:55.004Z</time></trkpt><trkpt lat="43.47975612581982" lon="12.273019051922669"><ele>459.0</ele><time>2026-04-26T12:15:56.004Z</time></trkpt><trkpt lat="43.47984329437824" lon="12.272984588900835"><ele>459.0</ele><time>2026-04-26T12:15:57.004Z</time></trkpt><trkpt lat="43.47993774241097" lon="12.272968874071067"><ele>459.0</ele><time>2026-04-26T12:15:58.004Z</time></trkpt><trkpt lat="43.48003002455993" lon="12.273006209527397"><ele>459.0</ele><time>2026-04-26T12:15:59.004Z</time></trkpt><trkpt lat="43.48016859961336" lon="12.273086089493104"><ele>459.0</ele><time>2026-04-26T12:16:00.004Z</time></trkpt><trkpt lat="43.4802963066049" lon="12.273178922848965"><ele>459.0</ele><time>2026-04-26T12:16:01.004Z</time></trkpt><trkpt lat="43.480411647999354" lon="12.273255281264433"><ele>459.0</ele><time>2026-04-26T12:16:02.004Z</time></trkpt><trkpt lat="43.48053077461368" lon="12.273322972732574"><ele>459.0</ele><time>2026-04-26T12:16:03.004Z</time></trkpt><trkpt lat="43.48065551191869" lon="12.273351178138276"><ele>459.0</ele><time>2026-04-26T12:16:04.004Z</time></trkpt><trkpt lat="43.48082505617828" lon="12.273312217587348"><ele>458.75</ele><time>2026-04-26T12:16:05.004Z</time></trkpt><trkpt lat="43.48095539499651" lon="12.273185866848666"><ele>458.5</ele><time>2026-04-26T12:16:06.004Z</time></trkpt><trkpt lat="43.48102153070838" lon="12.273030631558266"><ele>458.25</ele><time>2026-04-26T12:16:07.004Z</time></trkpt><trkpt lat="43.48102465264209" lon="12.272814485964284"><ele>458.0</ele><time>2026-04-26T12:16:08.004Z</time></trkpt><trkpt lat="43.48101827429466" lon="12.272667758112265"><ele>455.0</ele><time>2026-04-26T12:16:09.004Z</time></trkpt><trkpt lat="43.48099077012884" lon="12.272442674734329"><ele>452.0</ele><time>2026-04-26T12:16:10.004Z</time></trkpt><trkpt lat="43.48089055276707" lon="12.2721867466849"><ele>449.0</ele><time>2026-04-26T12:16:11.004Z</time></trkpt><trkpt lat="43.48079892370877" lon="12.27190108261822"><ele>448.3333333333333</ele><time>2026-04-26T12:16:12.004Z</time></trkpt><trkpt lat="43.480727315771176" lon="12.271633477929635"><ele>447.66666666666663</ele><time>2026-04-26T12:16:13.004Z</time></trkpt><trkpt lat="43.48063554382547" lon="12.271339030453195"><ele>447.0</ele><time>2026-04-26T12:16:14.004Z</time></trkpt><trkpt lat="43.48052664046751" lon="12.271021425700452"><ele>450.0</ele><time>2026-04-26T12:16:15.004Z</time></trkpt><trkpt lat="43.480453948295256" lon="12.27069731107386"><ele>453.0</ele><time>2026-04-26T12:16:16.017Z</time></trkpt><trkpt lat="43.480335792675305" lon="12.270427077733798"><ele>446.0</ele><time>2026-04-26T12:16:17.017Z</time></trkpt><trkpt lat="43.48016951185988" lon="12.270178548522686"><ele>439.0</ele><time>2026-04-26T12:16:18.017Z</time></trkpt><trkpt lat="43.47995482633974" lon="12.26995777414744"><ele>436.0</ele><time>2026-04-26T12:16:19.017Z</time></trkpt><trkpt lat="43.47971654618053" lon="12.269722564248113"><ele>433.0</ele><time>2026-04-26T12:16:20.017Z</time></trkpt><trkpt lat="43.47950435464888" lon="12.269479193192609"><ele>431.0</ele><time>2026-04-26T12:16:21.017Z</time></trkpt><trkpt lat="43.47928950262257" lon="12.26925502694751"><ele>429.0</ele><time>2026-04-26T12:16:22.017Z</time></trkpt><trkpt lat="43.479053982748866" lon="12.269056364963928"><ele>429.5</ele><time>2026-04-26T12:16:23.017Z</time></trkpt><trkpt lat="43.47882527473206" lon="12.26886539397216"><ele>430.0</ele><time>2026-04-26T12:16:24.017Z</time></trkpt><trkpt lat="43.47864157801458" lon="12.268676844309045"><ele>428.0</ele><time>2026-04-26T12:16:25.017Z</time></trkpt><trkpt lat="43.47845647641911" lon="12.268501086537546"><ele>426.0</ele><time>2026-04-26T12:16:26.017Z</time></trkpt><trkpt lat="43.478260259732615" lon="12.268282898722918"><ele>428.0</ele><time>2026-04-26T12:16:27.017Z</time></trkpt><trkpt lat="43.47807638639736" lon="12.268017985668259"><ele>430.0</ele><time>2026-04-26T12:16:28.017Z</time></trkpt><trkpt lat="43.47790736250268" lon="12.267762440960347"><ele>428.0</ele><time>2026-04-26T12:16:29.017Z</time></trkpt><trkpt lat="43.47774990111823" lon="12.267546914928205"><ele>426.0</ele><time>2026-04-26T12:16:30.017Z</time></trkpt><trkpt lat="43.47760802294884" lon="12.267350931602111"><ele>424.0</ele><time>2026-04-26T12:16:31.017Z</time></trkpt><trkpt lat="43.47749175075752" lon="12.267169567887468"><ele>424.0</ele><time>2026-04-26T12:16:32.017Z</time></trkpt><trkpt lat="43.4773723332825" lon="12.267004414324173"><ele>424.0</ele><time>2026-04-26T12:16:33.017Z</time></trkpt><trkpt lat="43.47725636337696" lon="12.266823083306932"><ele>424.0</ele><time>2026-04-26T12:16:34.017Z</time></trkpt><trkpt lat="43.4771592940433" lon="12.266610323844313"><ele>415.6666666666667</ele><time>2026-04-26T12:16:35.017Z</time></trkpt><trkpt lat="43.47709419445106" lon="12.266384153172051"><ele>407.33333333333337</ele><time>2026-04-26T12:16:36.017Z</time></trkpt><trkpt lat="43.47704610318523" lon="12.26614564864947"><ele>399.0</ele><time>2026-04-26T12:16:37.017Z</time></trkpt><trkpt lat="43.47701024420888" lon="12.265887147990146"><ele>399.66666666666663</ele><time>2026-04-26T12:16:38.017Z</time></trkpt><trkpt lat="43.47696743181022" lon="12.265611871603623"><ele>400.3333333333333</ele><time>2026-04-26T12:16:39.017Z</time></trkpt><trkpt lat="43.47693187315579" lon="12.265372434867217"><ele>401.0</ele><time>2026-04-26T12:16:40.017Z</time></trkpt><trkpt lat="43.47692415575484" lon="12.265152238675272"><ele>401.0</ele><time>2026-04-26T12:16:41.017Z</time></trkpt><trkpt lat="43.476978066909055" lon="12.26497606092466"><ele>401.0</ele><time>2026-04-26T12:16:42.017Z</time></trkpt><trkpt lat="43.47704798315502" lon="12.264848422617703"><ele>401.0</ele><time>2026-04-26T12:16:43.017Z</time></trkpt><trkpt lat="43.47713709458723" lon="12.264746068608758"><ele>401.0</ele><time>2026-04-26T12:16:44.017Z</time></trkpt><trkpt lat="43.47723533903291" lon="12.26472910735657"><ele>397.66666666666663</ele><time>2026-04-26T12:16:45.017Z</time></trkpt><trkpt lat="43.47733131969789" lon="12.264757020414317"><ele>394.33333333333337</ele><time>2026-04-26T12:16:46.017Z</time></trkpt><trkpt lat="43.477491680436465" lon="12.264790333223608"><ele>391.0</ele><time>2026-04-26T12:16:47.017Z</time></trkpt><trkpt lat="43.47773710950726" lon="12.264848908825858"><ele>399.0</ele><time>2026-04-26T12:16:48.017Z</time></trkpt><trkpt lat="43.47798374377942" lon="12.264926809388044"><ele>407.0</ele><time>2026-04-26T12:16:49.017Z</time></trkpt><trkpt lat="43.47822123803786" lon="12.265018846464647"><ele>407.0</ele><time>2026-04-26T12:16:50.017Z</time></trkpt><trkpt lat="43.478447845268626" lon="12.2651063267782"><ele>407.0</ele><time>2026-04-26T12:16:51.017Z</time></trkpt><trkpt lat="43.47864569635144" lon="12.265187821953967"><ele>407.0</ele><time>2026-04-26T12:16:52.017Z</time></trkpt><trkpt lat="43.47879538650017" lon="12.265244465072001"><ele>403.25</ele><time>2026-04-26T12:16:53.017Z</time></trkpt><trkpt lat="43.478894453116915" lon="12.265265278925705"><ele>399.5</ele><time>2026-04-26T12:16:54.017Z</time></trkpt><trkpt lat="43.4789882950066" lon="12.265227048169901"><ele>395.75</ele><time>2026-04-26T12:16:56.017Z</time></trkpt><trkpt lat="43.47908401663025" lon="12.265102088511673"><ele>392.0</ele><time>2026-04-26T12:16:57.017Z</time></trkpt><trkpt lat="43.47906958581089" lon="12.264879870200232"><ele>391.0</ele><time>2026-04-26T12:16:58.017Z</time></trkpt><trkpt lat="43.47895104098453" lon="12.264731038722553"><ele>390.0</ele><time>2026-04-26T12:16:59.017Z</time></trkpt><trkpt lat="43.47870201870355" lon="12.264614986626597"><ele>389.0</ele><time>2026-04-26T12:17:00.017Z</time></trkpt><trkpt lat="43.47844356409022" lon="12.264470437831937"><ele>389.0</ele><time>2026-04-26T12:17:01.017Z</time></trkpt><trkpt lat="43.47818115086809" lon="12.264359754693396"><ele>389.0</ele><time>2026-04-26T12:17:02.017Z</time></trkpt><trkpt lat="43.477925338955224" lon="12.264270410226883"><ele>390.0</ele><time>2026-04-26T12:17:03.018Z</time></trkpt><trkpt lat="43.47766010137977" lon="12.264194863751127"><ele>391.0</ele><time>2026-04-26T12:17:04.018Z</time></trkpt><trkpt lat="43.47737198501155" lon="12.264153610564223"><ele>391.0</ele><time>2026-04-26T12:17:05.018Z</time></trkpt><trkpt lat="43.47712634090689" lon="12.264099902890088"><ele>391.0</ele><time>2026-04-26T12:17:06.018Z</time></trkpt><trkpt lat="43.47689284778218" lon="12.264052388978925"><ele>390.33333333333337</ele><time>2026-04-26T12:17:07.017Z</time></trkpt><trkpt lat="43.47666502224661" lon="12.264014207092632"><ele>389.66666666666663</ele><time>2026-04-26T12:17:08.017Z</time></trkpt><trkpt lat="43.476449919926644" lon="12.26400558957643"><ele>389.0</ele><time>2026-04-26T12:17:09.018Z</time></trkpt><trkpt lat="43.47625186869533" lon="12.264032646642383"><ele>384.75</ele><time>2026-04-26T12:17:10.018Z</time></trkpt><trkpt lat="43.47609675393957" lon="12.264100370089349"><ele>380.5</ele><time>2026-04-26T12:17:11.018Z</time></trkpt><trkpt lat="43.4759835863233" lon="12.264198187369598"><ele>376.25</ele><time>2026-04-26T12:17:12.018Z</time></trkpt><trkpt lat="43.4759005754528" lon="12.26433625663188"><ele>372.0</ele><time>2026-04-26T12:17:13.018Z</time></trkpt><trkpt lat="43.475847171096184" lon="12.264496924339317"><ele>372.0</ele><time>2026-04-26T12:17:14.018Z</time></trkpt><trkpt lat="43.47582205407" lon="12.264698083302482"><ele>372.0</ele><time>2026-04-26T12:17:15.018Z</time></trkpt><trkpt lat="43.47584673583937" lon="12.264890996373879"><ele>372.0</ele><time>2026-04-26T12:17:16.018Z</time></trkpt><trkpt lat="43.47590603596027" lon="12.265148377471562"><ele>372.0</ele><time>2026-04-26T12:17:17.018Z</time></trkpt><trkpt lat="43.47599143650719" lon="12.265483051496881"><ele>372.0</ele><time>2026-04-26T12:17:18.018Z</time></trkpt><trkpt lat="43.47602197759682" lon="12.265809358492385"><ele>372.0</ele><time>2026-04-26T12:17:19.018Z</time></trkpt><trkpt lat="43.47604555885374" lon="12.266100120218749"><ele>372.0</ele><time>2026-04-26T12:17:20.018Z</time></trkpt><trkpt lat="43.47602476259694" lon="12.266380894791013"><ele>372.0</ele><time>2026-04-26T12:17:21.018Z</time></trkpt><trkpt lat="43.47596387485547" lon="12.266677722127119"><ele>375.0</ele><time>2026-04-26T12:17:22.018Z</time></trkpt><trkpt lat="43.4758554459432" lon="12.266994752850628"><ele>378.0</ele><time>2026-04-26T12:17:23.018Z</time></trkpt><trkpt lat="43.47574604318994" lon="12.267290675233118"><ele>380.33333333333337</ele><time>2026-04-26T12:17:24.018Z</time></trkpt><trkpt lat="43.47565507362117" lon="12.267530891046208"><ele>382.6666666666667</ele><time>2026-04-26T12:17:25.018Z</time></trkpt><trkpt lat="43.475578179420715" lon="12.267735268901705"><ele>385.0</ele><time>2026-04-26T12:17:26.018Z</time></trkpt><trkpt lat="43.47551381790009" lon="12.267916971002512"><ele>384.0</ele><time>2026-04-26T12:17:27.018Z</time></trkpt><trkpt lat="43.47550121653394" lon="12.268119150774565"><ele>383.0</ele><time>2026-04-26T12:17:28.018Z</time></trkpt><trkpt lat="43.47554781899683" lon="12.268338041305086"><ele>382.0</ele><time>2026-04-26T12:17:29.018Z</time></trkpt><trkpt lat="43.4756138950531" lon="12.268570417871775"><ele>382.0</ele><time>2026-04-26T12:17:30.018Z</time></trkpt><trkpt lat="43.47572043448723" lon="12.268818279367556"><ele>382.0</ele><time>2026-04-26T12:17:31.018Z</time></trkpt><trkpt lat="43.47583683726023" lon="12.268992615042855"><ele>382.0</ele><time>2026-04-26T12:17:32.018Z</time></trkpt><trkpt lat="43.475984210686256" lon="12.269092206752408"><ele>380.66666666666663</ele><time>2026-04-26T12:17:33.018Z</time></trkpt><trkpt lat="43.47613534864469" lon="12.26915879146"><ele>379.3333333333333</ele><time>2026-04-26T12:17:34.018Z</time></trkpt><trkpt lat="43.47633556969134" lon="12.269179771963708"><ele>378.0</ele><time>2026-04-26T12:17:35.018Z</time></trkpt><trkpt lat="43.47650555169585" lon="12.269179636404221"><ele>378.0</ele><time>2026-04-26T12:17:36.018Z</time></trkpt><trkpt lat="43.476635961094956" lon="12.269185624931266"><ele>378.0</ele><time>2026-04-26T12:17:37.018Z</time></trkpt><trkpt lat="43.47672783585409" lon="12.269248434907004"><ele>378.0</ele><time>2026-04-26T12:17:38.018Z</time></trkpt><trkpt lat="43.47675742515964" lon="12.269389033073299"><ele>378.0</ele><time>2026-04-26T12:17:39.018Z</time></trkpt><trkpt lat="43.47672510626639" lon="12.269523105394917"><ele>378.0</ele><time>2026-04-26T12:17:40.018Z</time></trkpt><trkpt lat="43.47661321317671" lon="12.269622543600345"><ele>378.0</ele><time>2026-04-26T12:17:41.018Z</time></trkpt><trkpt lat="43.4764368324229" lon="12.269595976929471"><ele>378.0</ele><time>2026-04-26T12:17:42.018Z</time></trkpt><trkpt lat="43.476263390639964" lon="12.269520912559825"><ele>378.0</ele><time>2026-04-26T12:17:43.018Z</time></trkpt><trkpt lat="43.47607173929068" lon="12.269478530064243"><ele>376.6666666666667</ele><time>2026-04-26T12:17:44.018Z</time></trkpt><trkpt lat="43.475893949176374" lon="12.269424659371712"><ele>375.33333333333337</ele><time>2026-04-26T12:17:45.018Z</time></trkpt><trkpt lat="43.47574809337402" lon="12.269339934469928"><ele>374.0</ele><time>2026-04-26T12:17:46.018Z</time></trkpt><trkpt lat="43.47564645949478" lon="12.269215835080267"><ele>374.0</ele><time>2026-04-26T12:17:47.018Z</time></trkpt><trkpt lat="43.47554247941066" lon="12.269025683505728"><ele>374.0</ele><time>2026-04-26T12:17:48.018Z</time></trkpt><trkpt lat="43.47542625565217" lon="12.268789398564019"><ele>374.0</ele><time>2026-04-26T12:17:49.018Z</time></trkpt><trkpt lat="43.47531490487312" lon="12.268524533818622"><ele>365.5</ele><time>2026-04-26T12:17:50.018Z</time></trkpt><trkpt lat="43.475211871204735" lon="12.268230473200875"><ele>357.0</ele><time>2026-04-26T12:17:51.018Z</time></trkpt><trkpt lat="43.47512049198642" lon="12.267942119627403"><ele>356.6666666666667</ele><time>2026-04-26T12:17:52.018Z</time></trkpt><trkpt lat="43.475060157091676" lon="12.267680892255493"><ele>356.33333333333337</ele><time>2026-04-26T12:17:53.018Z</time></trkpt><trkpt lat="43.47503463729835" lon="12.267443314991612"><ele>356.0</ele><time>2026-04-26T12:17:54.018Z</time></trkpt><trkpt lat="43.47504693840658" lon="12.267219496199555"><ele>356.0</ele><time>2026-04-26T12:17:55.018Z</time></trkpt><trkpt lat="43.4750797277163" lon="12.266917103797937"><ele>356.0</ele><time>2026-04-26T12:17:56.018Z</time></trkpt><trkpt lat="43.47511765368928" lon="12.266603435609087"><ele>355.0</ele><time>2026-04-26T12:17:57.018Z</time></trkpt><trkpt lat="43.47510090981141" lon="12.266316930107132"><ele>354.0</ele><time>2026-04-26T12:17:58.018Z</time></trkpt><trkpt lat="43.47504229535735" lon="12.266076220690328"><ele>353.0</ele><time>2026-04-26T12:17:59.018Z</time></trkpt><trkpt lat="43.474933304451405" lon="12.265839276963762"><ele>353.6666666666667</ele><time>2026-04-26T12:18:00.018Z</time></trkpt><trkpt lat="43.47482745622808" lon="12.265603858357787"><ele>354.3333333333333</ele><time>2026-04-26T12:18:01.018Z</time></trkpt><trkpt lat="43.474720872120926" lon="12.265390901698574"><ele>355.0</ele><time>2026-04-26T12:18:02.018Z</time></trkpt><trkpt lat="43.47466252021914" lon="12.265159743835886"><ele>355.0</ele><time>2026-04-26T12:18:03.018Z</time></trkpt><trkpt lat="43.474609943043156" lon="12.264906351177462"><ele>355.0</ele><time>2026-04-26T12:18:04.018Z</time></trkpt><trkpt lat="43.47458025499919" lon="12.264618449664368"><ele>355.0</ele><time>2026-04-26T12:18:05.018Z</time></trkpt><trkpt lat="43.47456764964835" lon="12.264332241051529"><ele>351.66666666666663</ele><time>2026-04-26T12:18:06.018Z</time></trkpt><trkpt lat="43.47459589637536" lon="12.264071527699212"><ele>348.3333333333333</ele><time>2026-04-26T12:18:07.018Z</time></trkpt><trkpt lat="43.47465706392916" lon="12.26384364094805"><ele>345.0</ele><time>2026-04-26T12:18:08.018Z</time></trkpt><trkpt lat="43.4747331139558" lon="12.26362230357596"><ele>345.0</ele><time>2026-04-26T12:18:09.018Z</time></trkpt><trkpt lat="43.474797028500916" lon="12.26342069137761"><ele>345.0</ele><time>2026-04-26T12:18:10.018Z</time></trkpt><trkpt lat="43.47481713831631" lon="12.263226190859944"><ele>345.0</ele><time>2026-04-26T12:18:11.018Z</time></trkpt><trkpt lat="43.474831313677505" lon="12.263048378303385"><ele>345.0</ele><time>2026-04-26T12:18:12.019Z</time></trkpt><trkpt lat="43.474717236536065" lon="12.262845261697684"><ele>341.0</ele><time>2026-04-26T12:18:13.019Z</time></trkpt><trkpt lat="43.47459882636156" lon="12.262683449901568"><ele>337.0</ele><time>2026-04-26T12:18:14.019Z</time></trkpt><trkpt lat="43.474454892587325" lon="12.262532964054135"><ele>333.0</ele><time>2026-04-26T12:18:15.019Z</time></trkpt><trkpt lat="43.47431299012307" lon="12.262377251987111"><ele>330.3333333333333</ele><time>2026-04-26T12:18:16.019Z</time></trkpt><trkpt lat="43.47417263325741" lon="12.262212588547644"><ele>327.66666666666663</ele><time>2026-04-26T12:18:17.019Z</time></trkpt><trkpt lat="43.47403196522418" lon="12.262031499124081"><ele>325.0</ele><time>2026-04-26T12:18:18.019Z</time></trkpt><trkpt lat="43.47389214619598" lon="12.261838390443334"><ele>324.3333333333333</ele><time>2026-04-26T12:18:19.019Z</time></trkpt><trkpt lat="43.473748167062574" lon="12.261641378314657"><ele>323.6666666666667</ele><time>2026-04-26T12:18:20.019Z</time></trkpt><trkpt lat="43.47359998470079" lon="12.261436127002256"><ele>323.0</ele><time>2026-04-26T12:18:21.019Z</time></trkpt><trkpt lat="43.473445218558226" lon="12.261231033606881"><ele>323.0</ele><time>2026-04-26T12:18:22.019Z</time></trkpt><trkpt lat="43.47329439983784" lon="12.261023452781716"><ele>323.0</ele><time>2026-04-26T12:18:23.019Z</time></trkpt><trkpt lat="43.47314433906699" lon="12.260796206080913"><ele>323.0</ele><time>2026-04-26T12:18:24.019Z</time></trkpt><trkpt lat="43.472981948276434" lon="12.260608681236526"><ele>322.0</ele><time>2026-04-26T12:18:25.019Z</time></trkpt><trkpt lat="43.47285089453019" lon="12.260401805467168"><ele>321.0</ele><time>2026-04-26T12:18:26.019Z</time></trkpt><trkpt lat="43.47270063849328" lon="12.26022851851533"><ele>320.0</ele><time>2026-04-26T12:18:27.019Z</time></trkpt><trkpt lat="43.472570238387235" lon="12.260024068270566"><ele>320.0</ele><time>2026-04-26T12:18:28.019Z</time></trkpt><trkpt lat="43.47242936957177" lon="12.259833938114364"><ele>320.0</ele><time>2026-04-26T12:18:29.019Z</time></trkpt><trkpt lat="43.47229912482987" lon="12.259669410699892"><ele>320.0</ele><time>2026-04-26T12:18:30.019Z</time></trkpt><trkpt lat="43.472185059804616" lon="12.259517633944881"><ele>318.33333333333337</ele><time>2026-04-26T12:18:31.019Z</time></trkpt><trkpt lat="43.47207805146617" lon="12.259361578014481"><ele>316.6666666666667</ele><time>2026-04-26T12:18:32.019Z</time></trkpt><trkpt lat="43.47197328664638" lon="12.259178661253959"><ele>315.0</ele><time>2026-04-26T12:18:33.019Z</time></trkpt><trkpt lat="43.47186205164986" lon="12.258981646034767"><ele>314.0</ele><time>2026-04-26T12:18:34.019Z</time></trkpt><trkpt lat="43.471764256998306" lon="12.258764919841335"><ele>313.0</ele><time>2026-04-26T12:18:35.019Z</time></trkpt><trkpt lat="43.47169192358688" lon="12.25852102524123"><ele>312.0</ele><time>2026-04-26T12:18:36.019Z</time></trkpt><trkpt lat="43.47162820227456" lon="12.258289975481617"><ele>311.0</ele><time>2026-04-26T12:18:37.019Z</time></trkpt><trkpt lat="43.47158036165143" lon="12.258066379848115"><ele>310.0</ele><time>2026-04-26T12:18:38.019Z</time></trkpt><trkpt lat="43.47152282575831" lon="12.257860635231397"><ele>309.0</ele><time>2026-04-26T12:18:39.019Z</time></trkpt><trkpt lat="43.47148742839613" lon="12.257653876611586"><ele>309.0</ele><time>2026-04-26T12:18:40.019Z</time></trkpt><trkpt lat="43.47146268052715" lon="12.257458445533004"><ele>309.0</ele><time>2026-04-26T12:18:41.019Z</time></trkpt><trkpt lat="43.47142600422629" lon="12.25727694971209"><ele>309.0</ele><time>2026-04-26T12:18:42.019Z</time></trkpt><trkpt lat="43.47139696497379" lon="12.257126929650546"><ele>309.0</ele><time>2026-04-26T12:18:43.019Z</time></trkpt><trkpt lat="43.47138858733276" lon="12.257007599266453"><ele>308.8</ele><time>2026-04-26T12:18:44.019Z</time></trkpt><trkpt lat="43.47137429395437" lon="12.256923090315613"><ele>308.59999999999997</ele><time>2026-04-26T12:18:45.019Z</time></trkpt><trkpt lat="43.471360923956496" lon="12.256827531351705"><ele>308.4</ele><time>2026-04-26T12:18:47.019Z</time></trkpt><trkpt lat="43.47131535781543" lon="12.256612714847478"><ele>308.2</ele><time>2026-04-26T12:25:47.026Z</time></trkpt><trkpt lat="43.47129099509378" lon="12.256491630161618"><ele>308.0</ele><time>2026-04-26T12:25:48.026Z</time></trkpt><trkpt lat="43.47126020051853" lon="12.256359693822539"><ele>307.8</ele><time>2026-04-26T12:25:49.026Z</time></trkpt><trkpt lat="43.47124753404982" lon="12.256216381862696"><ele>307.6</ele><time>2026-04-26T12:25:50.026Z</time></trkpt><trkpt lat="43.471222681777725" lon="12.256077668810503"><ele>307.4</ele><time>2026-04-26T12:25:51.026Z</time></trkpt><trkpt lat="43.471176979009094" lon="12.255964112120042"><ele>307.2</ele><time>2026-04-26T12:25:52.026Z</time></trkpt><trkpt lat="43.4711714876744" lon="12.25584954588524"><ele>307.0</ele><time>2026-04-26T12:25:53.026Z</time></trkpt><trkpt lat="43.471178293243966" lon="12.25574501932325"><ele>307.0</ele><time>2026-04-26T12:25:54.026Z</time></trkpt><trkpt lat="43.47119691285226" lon="12.255632442834075"><ele>307.0</ele><time>2026-04-26T12:25:55.026Z</time></trkpt><trkpt lat="43.471216535324515" lon="12.255512964851004"><ele>307.0</ele><time>2026-04-26T12:25:56.026Z</time></trkpt><trkpt lat="43.471213746159684" lon="12.255421039592118"><ele>307.0</ele><time>2026-04-26T12:25:57.026Z</time></trkpt><trkpt lat="43.471127003460666" lon="12.25531242167553"><ele>307.0</ele><time>2026-04-26T12:25:59.026Z</time></trkpt><trkpt lat="43.47105569745868" lon="12.255297700632154"><ele>307.0</ele><time>2026-04-26T12:26:00.026Z</time></trkpt><trkpt lat="43.470981415331195" lon="12.255325548341887"><ele>307.0</ele><time>2026-04-26T12:26:01.026Z</time></trkpt><trkpt lat="43.47092149584363" lon="12.255388740757848"><ele>307.0</ele><time>2026-04-26T12:26:02.026Z</time></trkpt><trkpt lat="43.47086109481073" lon="12.25552395562945"><ele>307.0</ele><time>2026-04-26T12:26:03.026Z</time></trkpt><trkpt lat="43.47078656025742" lon="12.255677216768445"><ele>307.0</ele><time>2026-04-26T12:26:04.026Z</time></trkpt><trkpt lat="43.47068502753025" lon="12.255805642629262"><ele>307.0</ele><time>2026-04-26T12:26:05.026Z</time></trkpt><trkpt lat="43.47054931989706" lon="12.255904956284533"><ele>307.0</ele><time>2026-04-26T12:26:06.026Z</time></trkpt><trkpt lat="43.470400836062694" lon="12.25600524298737"><ele>307.0</ele><time>2026-04-26T12:26:07.026Z</time></trkpt><trkpt lat="43.470268620092696" lon="12.256097653941325"><ele>306.6</ele><time>2026-04-26T12:26:08.026Z</time></trkpt><trkpt lat="43.47015496908765" lon="12.256183129247452"><ele>306.2</ele><time>2026-04-26T12:26:09.026Z</time></trkpt><trkpt lat="43.470058315630936" lon="12.256245628088243"><ele>305.8</ele><time>2026-04-26T12:26:10.026Z</time></trkpt><trkpt lat="43.46996606081846" lon="12.256291942278693"><ele>305.4</ele><time>2026-04-26T12:26:11.026Z</time></trkpt><trkpt lat="43.46988134064471" lon="12.256289069377125"><ele>305.0</ele><time>2026-04-26T12:26:12.026Z</time></trkpt><trkpt lat="43.46978420541643" lon="12.256247227324948"><ele>305.0</ele><time>2026-04-26T12:26:13.026Z</time></trkpt><trkpt lat="43.4696808428314" lon="12.256148165482143"><ele>305.0</ele><time>2026-04-26T12:26:14.026Z</time></trkpt><trkpt lat="43.46957452309472" lon="12.25601506321089"><ele>305.0</ele><time>2026-04-26T12:26:15.026Z</time></trkpt><trkpt lat="43.469464334091036" lon="12.255856280852319"><ele>305.0</ele><time>2026-04-26T12:26:16.026Z</time></trkpt><trkpt lat="43.469334586453435" lon="12.255684198260386"><ele>304.0</ele><time>2026-04-26T12:26:17.026Z</time></trkpt><trkpt lat="43.46919504964102" lon="12.255508581787133"><ele>303.0</ele><time>2026-04-26T12:26:18.026Z</time></trkpt><trkpt lat="43.469056890395564" lon="12.255325125271522"><ele>302.0</ele><time>2026-04-26T12:26:19.026Z</time></trkpt><trkpt lat="43.46891958461696" lon="12.255134045128507"><ele>302.0</ele><time>2026-04-26T12:26:20.026Z</time></trkpt><trkpt lat="43.468776387557064" lon="12.254941011690775"><ele>302.0</ele><time>2026-04-26T12:26:21.026Z</time></trkpt><trkpt lat="43.468634717767344" lon="12.254744732639377"><ele>302.0</ele><time>2026-04-26T12:26:22.026Z</time></trkpt><trkpt lat="43.46849311262411" lon="12.254552445288317"><ele>302.0</ele><time>2026-04-26T12:26:23.026Z</time></trkpt><trkpt lat="43.46835122194078" lon="12.254346983156994"><ele>302.0</ele><time>2026-04-26T12:26:24.026Z</time></trkpt><trkpt lat="43.468208685461484" lon="12.254136402896187"><ele>302.0</ele><time>2026-04-26T12:26:25.026Z</time></trkpt><trkpt lat="43.46806341516012" lon="12.253921843688888"><ele>302.0</ele><time>2026-04-26T12:26:26.026Z</time></trkpt><trkpt lat="43.467916694038905" lon="12.253712729865285"><ele>302.0</ele><time>2026-04-26T12:26:27.026Z</time></trkpt><trkpt lat="43.46776709646786" lon="12.25350055151198"><ele>302.0</ele><time>2026-04-26T12:26:28.026Z</time></trkpt><trkpt lat="43.46761489381686" lon="12.253288143362417"><ele>302.0</ele><time>2026-04-26T12:26:29.026Z</time></trkpt><trkpt lat="43.46746537921482" lon="12.25306822416734"><ele>302.0</ele><time>2026-04-26T12:26:30.026Z</time></trkpt><trkpt lat="43.46730844199935" lon="12.25284057869709"><ele>302.0</ele><time>2026-04-26T12:26:31.026Z</time></trkpt><trkpt lat="43.467161775494894" lon="12.252629264807668"><ele>301.0</ele><time>2026-04-26T12:26:32.026Z</time></trkpt><trkpt lat="43.467020616851364" lon="12.252436608795191"><ele>300.0</ele><time>2026-04-26T12:26:33.026Z</time></trkpt><trkpt lat="43.46688967135821" lon="12.25225830202637"><ele>299.0</ele><time>2026-04-26T12:26:34.026Z</time></trkpt><trkpt lat="43.4667694956063" lon="12.252082794320502"><ele>299.0</ele><time>2026-04-26T12:26:35.026Z</time></trkpt><trkpt lat="43.466645579136134" lon="12.25192162910597"><ele>299.0</ele><time>2026-04-26T12:26:36.026Z</time></trkpt><trkpt lat="43.466533991763924" lon="12.251766858562238"><ele>299.0</ele><time>2026-04-26T12:26:37.026Z</time></trkpt><trkpt lat="43.46642409380109" lon="12.251619831173308"><ele>299.0</ele><time>2026-04-26T12:26:38.026Z</time></trkpt><trkpt lat="43.46630933102319" lon="12.251465378156718"><ele>299.0</ele><time>2026-04-26T12:26:39.026Z</time></trkpt><trkpt lat="43.466200002883475" lon="12.251323588515298"><ele>299.0</ele><time>2026-04-26T12:26:40.026Z</time></trkpt><trkpt lat="43.466113532918406" lon="12.251193473700708"><ele>299.0</ele><time>2026-04-26T12:26:41.026Z</time></trkpt><trkpt lat="43.46604786266757" lon="12.251074434902558"><ele>298.5</ele><time>2026-04-26T12:26:42.026Z</time></trkpt><trkpt lat="43.466005206082436" lon="12.250962413758442"><ele>298.0</ele><time>2026-04-26T12:26:43.026Z</time></trkpt><trkpt lat="43.4659802269474" lon="12.250847273369361"><ele>297.5</ele><time>2026-04-26T12:26:44.026Z</time></trkpt><trkpt lat="43.465961184837305" lon="12.250732859569586"><ele>297.0</ele><time>2026-04-26T12:26:45.026Z</time></trkpt><trkpt lat="43.465893246713556" lon="12.25069978251206"><ele>296.5</ele><time>2026-04-26T12:26:46.026Z</time></trkpt><trkpt lat="43.465819801000556" lon="12.250696664398255"><ele>296.0</ele><time>2026-04-26T12:26:47.026Z</time></trkpt><trkpt lat="43.46572981172712" lon="12.250624047058986"><ele>296.0</ele><time>2026-04-26T12:26:49.026Z</time></trkpt><trkpt lat="43.46567464479364" lon="12.250918100936264"><ele>296.0</ele><time>2026-04-26T12:26:50.026Z</time></trkpt><trkpt lat="43.4656672077974" lon="12.251098980412356"><ele>296.0</ele><time>2026-04-26T12:26:51.026Z</time></trkpt><trkpt lat="43.46558872586556" lon="12.251237767733667"><ele>296.0</ele><time>2026-04-26T12:26:52.026Z</time></trkpt><trkpt lat="43.46552246179053" lon="12.251352209381361"><ele>296.0</ele><time>2026-04-26T12:26:53.026Z</time></trkpt><trkpt lat="43.46543584748687" lon="12.251441032296842"><ele>296.0</ele><time>2026-04-26T12:26:54.026Z</time></trkpt><trkpt lat="43.46530827626333" lon="12.251508126878367"><ele>296.0</ele><time>2026-04-26T12:26:55.026Z</time></trkpt><trkpt lat="43.46519743199674" lon="12.251589325216534"><ele>296.6</ele><time>2026-04-26T12:26:56.026Z</time></trkpt><trkpt lat="43.46511016309378" lon="12.251662520143226"><ele>297.20000000000005</ele><time>2026-04-26T12:26:57.026Z</time></trkpt><trkpt lat="43.465053160305594" lon="12.251713178124216"><ele>297.79999999999995</ele><time>2026-04-26T12:26:58.026Z</time></trkpt><trkpt lat="43.464950773892596" lon="12.251776059248652"><ele>298.4</ele><time>2026-04-26T12:27:00.026Z</time></trkpt><trkpt lat="43.464876004184966" lon="12.251799082553353"><ele>299.0</ele><time>2026-04-26T12:27:01.026Z</time></trkpt><trkpt lat="43.46478820161488" lon="12.251842846770746"><ele>299.0</ele><time>2026-04-26T12:27:02.026Z</time></trkpt><trkpt lat="43.46468623904264" lon="12.251891512462784"><ele>299.0</ele><time>2026-04-26T12:27:03.026Z</time></trkpt><trkpt lat="43.464584225706766" lon="12.251933938043173"><ele>299.0</ele><time>2026-04-26T12:27:04.026Z</time></trkpt><trkpt lat="43.46449837395599" lon="12.251981281858752"><ele>299.0</ele><time>2026-04-26T12:27:05.026Z</time></trkpt><trkpt lat="43.464407551492556" lon="12.252033170857715"><ele>299.0</ele><time>2026-04-26T12:27:06.026Z</time></trkpt><trkpt lat="43.46429924945153" lon="12.252092960648499"><ele>298.4</ele><time>2026-04-26T12:27:07.026Z</time></trkpt><trkpt lat="43.46418298935714" lon="12.252151280133626"><ele>297.79999999999995</ele><time>2026-04-26T12:27:08.026Z</time></trkpt><trkpt lat="43.46407469602915" lon="12.252191663890937"><ele>297.20000000000005</ele><time>2026-04-26T12:27:09.026Z</time></trkpt><trkpt lat="43.46397066844618" lon="12.252219622300519"><ele>296.6</ele><time>2026-04-26T12:27:10.026Z</time></trkpt><trkpt lat="43.46386386445766" lon="12.252236753793419"><ele>296.0</ele><time>2026-04-26T12:27:11.026Z</time></trkpt><trkpt lat="43.46376261982377" lon="12.252239056409392"><ele>295.75</ele><time>2026-04-26T12:27:12.026Z</time></trkpt><trkpt lat="43.46365065699763" lon="12.252232305546128"><ele>295.5</ele><time>2026-04-26T12:27:13.026Z</time></trkpt><trkpt lat="43.46353084604922" lon="12.252218533336974"><ele>295.25</ele><time>2026-04-26T12:27:14.026Z</time></trkpt><trkpt lat="43.46340766675335" lon="12.252210580132054"><ele>295.0</ele><time>2026-04-26T12:27:15.026Z</time></trkpt><trkpt lat="43.4632820492642" lon="12.25220043210385"><ele>295.0</ele><time>2026-04-26T12:27:16.026Z</time></trkpt><trkpt lat="43.46316470852027" lon="12.25219819512054"><ele>295.0</ele><time>2026-04-26T12:27:17.026Z</time></trkpt><trkpt lat="43.463050941898416" lon="12.252189955110172"><ele>295.0</ele><time>2026-04-26T12:27:18.026Z</time></trkpt><trkpt lat="43.46292872846751" lon="12.252184796754868"><ele>295.0</ele><time>2026-04-26T12:27:19.026Z</time></trkpt><trkpt lat="43.46279914345483" lon="12.252184669128221"><ele>295.75</ele><time>2026-04-26T12:27:20.026Z</time></trkpt><trkpt lat="43.46265904055067" lon="12.252178510686809"><ele>296.5</ele><time>2026-04-26T12:27:21.026Z</time></trkpt><trkpt lat="43.46251600068799" lon="12.252171609429526"><ele>297.25</ele><time>2026-04-26T12:27:22.026Z</time></trkpt><trkpt lat="43.46238687340576" lon="12.252172678165987"><ele>298.0</ele><time>2026-04-26T12:27:23.026Z</time></trkpt><trkpt lat="43.462272695132064" lon="12.252167195272346"><ele>298.0</ele><time>2026-04-26T12:27:24.026Z</time></trkpt><trkpt lat="43.462176579415654" lon="12.252167132348035"><ele>298.0</ele><time>2026-04-26T12:27:25.026Z</time></trkpt><trkpt lat="43.46208042678861" lon="12.252165225322937"><ele>298.0</ele><time>2026-04-26T12:27:26.026Z</time></trkpt><trkpt lat="43.461994150855546" lon="12.252160152216195"><ele>298.0</ele><time>2026-04-26T12:27:27.026Z</time></trkpt><trkpt lat="43.461913974719096" lon="12.252160970121503"><ele>298.0</ele><time>2026-04-26T12:27:28.026Z</time></trkpt><trkpt lat="43.4618342458664" lon="12.252156267999718"><ele>298.0</ele><time>2026-04-26T12:27:29.026Z</time></trkpt><trkpt lat="43.46176929466767" lon="12.252150297807193"><ele>298.66666666666663</ele><time>2026-04-26T12:27:30.026Z</time></trkpt><trkpt lat="43.46167366360633" lon="12.25214882240386"><ele>299.3333333333333</ele><time>2026-04-26T12:27:32.026Z</time></trkpt><trkpt lat="43.461602714431244" lon="12.252150204701545"><ele>300.0</ele><time>2026-04-26T12:27:35.026Z</time></trkpt><trkpt lat="43.46152999530045" lon="12.252170342905501"><ele>300.6666666666667</ele><time>2026-04-26T12:28:18.027Z</time></trkpt><trkpt lat="43.461460136602675" lon="12.25216561711026"><ele>301.33333333333337</ele><time>2026-04-26T12:28:20.027Z</time></trkpt><trkpt lat="43.461366210016244" lon="12.252152918292586"><ele>302.0</ele><time>2026-04-26T12:28:22.027Z</time></trkpt><trkpt lat="43.46128857668461" lon="12.252139402451862"><ele>304.0</ele><time>2026-04-26T12:28:23.027Z</time></trkpt><trkpt lat="43.461180117728944" lon="12.252133550020698"><ele>306.0</ele><time>2026-04-26T12:28:24.027Z</time></trkpt><trkpt lat="43.461036792914776" lon="12.252132406062165"><ele>308.0</ele><time>2026-04-26T12:28:25.027Z</time></trkpt><trkpt lat="43.460871145633924" lon="12.252137749227886"><ele>310.0</ele><time>2026-04-26T12:28:26.027Z</time></trkpt><trkpt lat="43.46068822420559" lon="12.252131644011806"><ele>310.0</ele><time>2026-04-26T12:28:27.027Z</time></trkpt><trkpt lat="43.46052641441364" lon="12.252127590456434"><ele>310.0</ele><time>2026-04-26T12:28:28.027Z</time></trkpt><trkpt lat="43.460382078436254" lon="12.252124600541405"><ele>310.0</ele><time>2026-04-26T12:28:29.027Z</time></trkpt><trkpt lat="43.46024817117999" lon="12.25211692968814"><ele>310.0</ele><time>2026-04-26T12:28:30.027Z</time></trkpt><trkpt lat="43.46012232019246" lon="12.25209613450897"><ele>309.25</ele><time>2026-04-26T12:28:31.027Z</time></trkpt><trkpt lat="43.460016431958095" lon="12.252009779158426"><ele>308.5</ele><time>2026-04-26T12:28:32.027Z</time></trkpt><trkpt lat="43.45991441942299" lon="12.25191968867083"><ele>307.75</ele><time>2026-04-26T12:28:33.027Z</time></trkpt><trkpt lat="43.45980757780926" lon="12.251820611998042"><ele>307.0</ele><time>2026-04-26T12:28:34.027Z</time></trkpt><trkpt lat="43.45969897125909" lon="12.25172605695818"><ele>304.0</ele><time>2026-04-26T12:28:35.027Z</time></trkpt><trkpt lat="43.459598824866575" lon="12.251634003213743"><ele>301.0</ele><time>2026-04-26T12:28:36.027Z</time></trkpt><trkpt lat="43.45948885469925" lon="12.251566057106498"><ele>298.0</ele><time>2026-04-26T12:28:37.027Z</time></trkpt><trkpt lat="43.459372367063516" lon="12.251526690123578"><ele>295.0</ele><time>2026-04-26T12:28:38.027Z</time></trkpt><trkpt lat="43.45925159420373" lon="12.251518575805832"><ele>295.0</ele><time>2026-04-26T12:28:39.027Z</time></trkpt><trkpt lat="43.459136809321194" lon="12.251524660377633"><ele>295.0</ele><time>2026-04-26T12:28:40.027Z</time></trkpt><trkpt lat="43.45902902405987" lon="12.251546240490086"><ele>295.0</ele><time>2026-04-26T12:28:41.027Z</time></trkpt><trkpt lat="43.45893302279484" lon="12.251577552759018"><ele>295.0</ele><time>2026-04-26T12:28:42.027Z</time></trkpt><trkpt lat="43.45885038380208" lon="12.251587385743413"><ele>295.0</ele><time>2026-04-26T12:28:43.027Z</time></trkpt><trkpt lat="43.45877479325552" lon="12.251557911615885"><ele>294.25</ele><time>2026-04-26T12:28:44.027Z</time></trkpt><trkpt lat="43.458712969925344" lon="12.25138114532207"><ele>293.5</ele><time>2026-04-26T12:28:46.027Z</time></trkpt><trkpt lat="43.45867135966356" lon="12.251266427153578"><ele>292.75</ele><time>2026-04-26T12:28:47.027Z</time></trkpt><trkpt lat="43.45861858484494" lon="12.251120929668595"><ele>292.0</ele><time>2026-04-26T12:28:48.027Z</time></trkpt><trkpt lat="43.458550210856664" lon="12.250942475531359"><ele>292.0</ele><time>2026-04-26T12:28:49.027Z</time></trkpt><trkpt lat="43.45846480080502" lon="12.25071725164483"><ele>292.0</ele><time>2026-04-26T12:28:50.027Z</time></trkpt><trkpt lat="43.45838969056956" lon="12.250518944069725"><ele>292.0</ele><time>2026-04-26T12:28:51.027Z</time></trkpt><trkpt lat="43.458323213606896" lon="12.2503434301797"><ele>291.5</ele><time>2026-04-26T12:28:52.027Z</time></trkpt><trkpt lat="43.45825464654956" lon="12.250162940158319"><ele>291.0</ele><time>2026-04-26T12:28:53.027Z</time></trkpt><trkpt lat="43.45818644715424" lon="12.249984033479516"><ele>290.5</ele><time>2026-04-26T12:28:54.027Z</time></trkpt><trkpt lat="43.45812137286266" lon="12.249812744921952"><ele>290.0</ele><time>2026-04-26T12:28:55.027Z</time></trkpt><trkpt lat="43.45806326389871" lon="12.249658245666584"><ele>290.0</ele><time>2026-04-26T12:28:56.027Z</time></trkpt><trkpt lat="43.457997779299774" lon="12.24953344260912"><ele>290.0</ele><time>2026-04-26T12:28:57.027Z</time></trkpt><trkpt lat="43.45796868581735" lon="12.249386478282817"><ele>290.0</ele><time>2026-04-26T12:28:58.027Z</time></trkpt><trkpt lat="43.457920843810356" lon="12.249259158035313"><ele>290.0</ele><time>2026-04-26T12:28:59.027Z</time></trkpt><trkpt lat="43.45787688921147" lon="12.249145204509855"><ele>290.0</ele><time>2026-04-26T12:29:00.027Z</time></trkpt><trkpt lat="43.45783769074804" lon="12.249053838860288"><ele>289.8</ele><time>2026-04-26T12:29:01.027Z</time></trkpt><trkpt lat="43.45778717717904" lon="12.248932564874401"><ele>289.6</ele><time>2026-04-26T12:29:03.027Z</time></trkpt><trkpt lat="43.457758895488006" lon="12.24885107132791"><ele>289.4</ele><time>2026-04-26T12:29:08.027Z</time></trkpt><trkpt lat="43.45760943640617" lon="12.248960803052602"><ele>289.2</ele><time>2026-04-26T12:29:11.027Z</time></trkpt><trkpt lat="43.457543239841876" lon="12.249033519175283"><ele>289.0</ele><time>2026-04-26T12:29:12.027Z</time></trkpt><trkpt lat="43.45746440377548" lon="12.24908790598012"><ele>289.0</ele><time>2026-04-26T12:29:13.027Z</time></trkpt><trkpt lat="43.457419564703564" lon="12.249155555368166"><ele>289.0</ele><time>2026-04-26T12:29:14.027Z</time></trkpt><trkpt lat="43.457327710256216" lon="12.249201660413506"><ele>289.0</ele><time>2026-04-26T12:29:16.027Z</time></trkpt><trkpt lat="43.45703196315408" lon="12.249238560957123"><ele>289.0</ele><time>2026-04-26T12:29:19.027Z</time></trkpt><trkpt lat="43.456991824564625" lon="12.249151025832886"><ele>289.0</ele><time>2026-04-26T12:29:22.027Z</time></trkpt><trkpt lat="43.456955403829696" lon="12.249071142300156"><ele>289.0</ele><time>2026-04-26T12:29:26.027Z</time></trkpt><trkpt lat="43.45691953748795" lon="12.248992471058742"><ele>289.0</ele><time>2026-04-26T12:29:31.027Z</time></trkpt><trkpt lat="43.45697450358715" lon="12.249082809511853"><ele>289.0</ele><time>2026-04-26T12:29:42.028Z</time></trkpt><trkpt lat="43.4573693003315" lon="12.249191164084833"><ele>289.0</ele><time>2026-04-26T12:29:45.027Z</time></trkpt><trkpt lat="43.45729447498013" lon="12.24923794837441"><ele>289.0</ele><time>2026-04-26T12:30:02.171Z</time></trkpt><trkpt lat="43.45725012891957" lon="12.249332502220737"><ele>289.0</ele><time>2026-04-26T12:30:04.171Z</time></trkpt><trkpt lat="43.457334913319606" lon="12.249219943545167"><ele>289.0</ele><time>2026-04-26T12:30:11.028Z</time></trkpt><trkpt lat="43.45740253570412" lon="12.24913685799181"><ele>289.0</ele><time>2026-04-26T12:31:45.029Z</time></trkpt><trkpt lat="43.45720313526798" lon="12.249091278156689"><ele>289.0</ele><time>2026-04-26T12:33:28.036Z</time></trkpt><trkpt lat="43.457541795556565" lon="12.24888943668292"><ele>289.0</ele><time>2026-04-26T12:33:35.675Z</time></trkpt><trkpt lat="43.4572585503458" lon="12.249048721066414"><ele>289.0</ele><time>2026-04-26T12:35:29.507Z</time></trkpt></trkseg></trk></gpx>